<?xml version="1.0" encoding="UTF-8" standalone="no" ?>
<gpx xmlns="http://www.topografix.com/GPX/1/1" xmlns:xsi="http://www.w3.org/2001/XMLSchema-instance" xsi:schemaLocation="http://www.topografix.com/GPX/1/1 http://www.topografix.com/GPX/1/1/gpx.xsd" version="1.1" creator="VisuGPX - https://www.visugpx.com">
  <metadata>
    <name>lundi 2015 04 27</name>
    <desc><![CDATA[rando du lundi]]></desc>
  </metadata>
  <trk>
    <name><![CDATA[27/04/2015 20:18]]></name>
    <desc><![CDATA[]]></desc>
    <trkseg>
      <trkpt lat="48.85743" lon="2.34727">
        <ele>92.6</ele>
        <time>2015-04-27T18:18:35.341Z</time>
      </trkpt>
      <trkpt lat="48.85741" lon="2.34733">
        <ele>92.8</ele>
        <time>2015-04-27T18:19:31.936Z</time>
      </trkpt>
      <trkpt lat="48.8574" lon="2.34733">
        <ele>92.8</ele>
        <time>2015-04-27T18:19:32.880Z</time>
      </trkpt>
      <trkpt lat="48.8574" lon="2.34733">
        <ele>92.8</ele>
        <time>2015-04-27T18:19:33.904Z</time>
      </trkpt>
      <trkpt lat="48.8574" lon="2.34733">
        <ele>92.8</ele>
        <time>2015-04-27T18:19:34.944Z</time>
      </trkpt>
      <trkpt lat="48.8574" lon="2.34734">
        <ele>92.8</ele>
        <time>2015-04-27T18:19:35.956Z</time>
      </trkpt>
      <trkpt lat="48.8574" lon="2.34734">
        <ele>92.8</ele>
        <time>2015-04-27T18:19:36.911Z</time>
      </trkpt>
      <trkpt lat="48.85739" lon="2.34734">
        <ele>92.8</ele>
        <time>2015-04-27T18:19:37.878Z</time>
      </trkpt>
      <trkpt lat="48.85741" lon="2.3473">
        <ele>92.6</ele>
        <time>2015-04-27T18:19:45.936Z</time>
      </trkpt>
      <trkpt lat="48.85741" lon="2.3473">
        <ele>92.5</ele>
        <time>2015-04-27T18:19:46.949Z</time>
      </trkpt>
      <trkpt lat="48.85741" lon="2.3473">
        <ele>92.6</ele>
        <time>2015-04-27T18:19:47.853Z</time>
      </trkpt>
      <trkpt lat="48.85741" lon="2.3473">
        <ele>92.5</ele>
        <time>2015-04-27T18:19:48.910Z</time>
      </trkpt>
      <trkpt lat="48.85741" lon="2.3473">
        <ele>92.5</ele>
        <time>2015-04-27T18:19:49.933Z</time>
      </trkpt>
      <trkpt lat="48.85742" lon="2.34729">
        <ele>92.5</ele>
        <time>2015-04-27T18:19:50.940Z</time>
      </trkpt>
      <trkpt lat="48.85743" lon="2.34729">
        <ele>92.5</ele>
        <time>2015-04-27T18:19:51.958Z</time>
      </trkpt>
      <trkpt lat="48.85744" lon="2.34729">
        <ele>92.5</ele>
        <time>2015-04-27T18:19:54.988Z</time>
      </trkpt>
      <trkpt lat="48.85744" lon="2.34729">
        <ele>92.5</ele>
        <time>2015-04-27T18:19:55.887Z</time>
      </trkpt>
      <trkpt lat="48.85744" lon="2.34728">
        <ele>92.5</ele>
        <time>2015-04-27T18:19:58.943Z</time>
      </trkpt>
      <trkpt lat="48.85743" lon="2.34727">
        <ele>92.5</ele>
        <time>2015-04-27T18:19:59.963Z</time>
      </trkpt>
      <trkpt lat="48.85741" lon="2.34724">
        <ele>92.8</ele>
        <time>2015-04-27T18:20:22.929Z</time>
      </trkpt>
      <trkpt lat="48.85741" lon="2.34724">
        <ele>92.8</ele>
        <time>2015-04-27T18:20:23.975Z</time>
      </trkpt>
      <trkpt lat="48.85741" lon="2.34723">
        <ele>92.9</ele>
        <time>2015-04-27T18:20:35.875Z</time>
      </trkpt>
      <trkpt lat="48.85742" lon="2.34723">
        <ele>93.1</ele>
        <time>2015-04-27T18:20:36.991Z</time>
      </trkpt>
      <trkpt lat="48.85742" lon="2.34723">
        <ele>93.1</ele>
        <time>2015-04-27T18:20:37.919Z</time>
      </trkpt>
      <trkpt lat="48.85743" lon="2.34723">
        <ele>93.2</ele>
        <time>2015-04-27T18:21:26.993Z</time>
      </trkpt>
      <trkpt lat="48.85741" lon="2.34722">
        <ele>93.2</ele>
        <time>2015-04-27T18:21:27.954Z</time>
      </trkpt>
      <trkpt lat="48.85737" lon="2.34712">
        <ele>93.4</ele>
        <time>2015-04-27T18:21:34.958Z</time>
      </trkpt>
      <trkpt lat="48.85737" lon="2.34709">
        <ele>93.2</ele>
        <time>2015-04-27T18:21:35.957Z</time>
      </trkpt>
      <trkpt lat="48.85736" lon="2.34697">
        <ele>91.3</ele>
        <time>2015-04-27T18:21:51.942Z</time>
      </trkpt>
      <trkpt lat="48.85736" lon="2.34697">
        <ele>91.2</ele>
        <time>2015-04-27T18:21:52.886Z</time>
      </trkpt>
      <trkpt lat="48.85736" lon="2.34697">
        <ele>91.3</ele>
        <time>2015-04-27T18:21:53.920Z</time>
      </trkpt>
      <trkpt lat="48.85736" lon="2.34697">
        <ele>91.2</ele>
        <time>2015-04-27T18:21:54.929Z</time>
      </trkpt>
      <trkpt lat="48.85736" lon="2.34698">
        <ele>91.1</ele>
        <time>2015-04-27T18:22:13.854Z</time>
      </trkpt>
      <trkpt lat="48.85737" lon="2.34698">
        <ele>90.7</ele>
        <time>2015-04-27T18:22:14.876Z</time>
      </trkpt>
      <trkpt lat="48.8573" lon="2.34694">
        <ele>90.7</ele>
        <time>2015-04-27T18:22:18.989Z</time>
      </trkpt>
      <trkpt lat="48.85728" lon="2.34693">
        <ele>90.7</ele>
        <time>2015-04-27T18:22:19.890Z</time>
      </trkpt>
      <trkpt lat="48.8572" lon="2.34689">
        <ele>90.1</ele>
        <time>2015-04-27T18:22:22.915Z</time>
      </trkpt>
      <trkpt lat="48.85716" lon="2.34688">
        <ele>89.9</ele>
        <time>2015-04-27T18:22:23.927Z</time>
      </trkpt>
      <trkpt lat="48.85708" lon="2.34682">
        <ele>89.7</ele>
        <time>2015-04-27T18:22:26.983Z</time>
      </trkpt>
      <trkpt lat="48.85705" lon="2.34681">
        <ele>89.5</ele>
        <time>2015-04-27T18:22:28.005Z</time>
      </trkpt>
      <trkpt lat="48.85697" lon="2.34676">
        <ele>89.5</ele>
        <time>2015-04-27T18:22:30.942Z</time>
      </trkpt>
      <trkpt lat="48.85695" lon="2.34674">
        <ele>89.5</ele>
        <time>2015-04-27T18:22:31.920Z</time>
      </trkpt>
      <trkpt lat="48.8569" lon="2.34669">
        <ele>89.3</ele>
        <time>2015-04-27T18:22:33.941Z</time>
      </trkpt>
      <trkpt lat="48.85687" lon="2.34667">
        <ele>89.1</ele>
        <time>2015-04-27T18:22:34.899Z</time>
      </trkpt>
      <trkpt lat="48.85681" lon="2.34664">
        <ele>88.9</ele>
        <time>2015-04-27T18:22:36.920Z</time>
      </trkpt>
      <trkpt lat="48.85678" lon="2.34662">
        <ele>88.9</ele>
        <time>2015-04-27T18:22:37.934Z</time>
      </trkpt>
      <trkpt lat="48.85671" lon="2.34657">
        <ele>89</ele>
        <time>2015-04-27T18:22:39.955Z</time>
      </trkpt>
      <trkpt lat="48.85667" lon="2.34656">
        <ele>89.1</ele>
        <time>2015-04-27T18:22:40.879Z</time>
      </trkpt>
      <trkpt lat="48.8566" lon="2.34651">
        <ele>89.3</ele>
        <time>2015-04-27T18:22:43.036Z</time>
      </trkpt>
      <trkpt lat="48.85656" lon="2.34648">
        <ele>89.3</ele>
        <time>2015-04-27T18:22:43.942Z</time>
      </trkpt>
      <trkpt lat="48.85648" lon="2.34645">
        <ele>89.2</ele>
        <time>2015-04-27T18:22:45.988Z</time>
      </trkpt>
      <trkpt lat="48.85644" lon="2.34643">
        <ele>89.1</ele>
        <time>2015-04-27T18:22:46.963Z</time>
      </trkpt>
      <trkpt lat="48.85637" lon="2.34639">
        <ele>89.1</ele>
        <time>2015-04-27T18:22:48.966Z</time>
      </trkpt>
      <trkpt lat="48.85633" lon="2.34637">
        <ele>88.8</ele>
        <time>2015-04-27T18:22:49.971Z</time>
      </trkpt>
      <trkpt lat="48.85625" lon="2.34634">
        <ele>88.8</ele>
        <time>2015-04-27T18:22:51.981Z</time>
      </trkpt>
      <trkpt lat="48.85621" lon="2.34631">
        <ele>88.8</ele>
        <time>2015-04-27T18:22:52.934Z</time>
      </trkpt>
      <trkpt lat="48.85617" lon="2.34629">
        <ele>88.8</ele>
        <time>2015-04-27T18:22:53.957Z</time>
      </trkpt>
      <trkpt lat="48.85613" lon="2.34625">
        <ele>88.9</ele>
        <time>2015-04-27T18:22:54.971Z</time>
      </trkpt>
      <trkpt lat="48.85609" lon="2.34622">
        <ele>89</ele>
        <time>2015-04-27T18:22:55.993Z</time>
      </trkpt>
      <trkpt lat="48.85605" lon="2.34619">
        <ele>89</ele>
        <time>2015-04-27T18:22:56.951Z</time>
      </trkpt>
      <trkpt lat="48.85601" lon="2.34616">
        <ele>89.1</ele>
        <time>2015-04-27T18:22:57.974Z</time>
      </trkpt>
      <trkpt lat="48.85596" lon="2.34614">
        <ele>89.1</ele>
        <time>2015-04-27T18:22:58.974Z</time>
      </trkpt>
      <trkpt lat="48.85592" lon="2.34612">
        <ele>89.2</ele>
        <time>2015-04-27T18:22:59.908Z</time>
      </trkpt>
      <trkpt lat="48.85588" lon="2.34609">
        <ele>89.3</ele>
        <time>2015-04-27T18:23:00.913Z</time>
      </trkpt>
      <trkpt lat="48.85583" lon="2.34605">
        <ele>89.3</ele>
        <time>2015-04-27T18:23:01.942Z</time>
      </trkpt>
      <trkpt lat="48.85579" lon="2.34602">
        <ele>89.3</ele>
        <time>2015-04-27T18:23:03.017Z</time>
      </trkpt>
      <trkpt lat="48.85571" lon="2.34597">
        <ele>89.3</ele>
        <time>2015-04-27T18:23:04.893Z</time>
      </trkpt>
      <trkpt lat="48.85567" lon="2.34594">
        <ele>89.3</ele>
        <time>2015-04-27T18:23:05.992Z</time>
      </trkpt>
      <trkpt lat="48.8556" lon="2.34591">
        <ele>89.2</ele>
        <time>2015-04-27T18:23:08.057Z</time>
      </trkpt>
      <trkpt lat="48.85557" lon="2.3459">
        <ele>89.2</ele>
        <time>2015-04-27T18:23:09.091Z</time>
      </trkpt>
      <trkpt lat="48.8555" lon="2.34586">
        <ele>89.1</ele>
        <time>2015-04-27T18:23:11.924Z</time>
      </trkpt>
      <trkpt lat="48.85547" lon="2.34586">
        <ele>89.1</ele>
        <time>2015-04-27T18:23:12.940Z</time>
      </trkpt>
      <trkpt lat="48.85539" lon="2.34582">
        <ele>89.2</ele>
        <time>2015-04-27T18:23:17.910Z</time>
      </trkpt>
      <trkpt lat="48.85538" lon="2.34581">
        <ele>89.2</ele>
        <time>2015-04-27T18:23:18.853Z</time>
      </trkpt>
      <trkpt lat="48.85536" lon="2.34581">
        <ele>88.9</ele>
        <time>2015-04-27T18:23:22.079Z</time>
      </trkpt>
      <trkpt lat="48.85536" lon="2.3458">
        <ele>89</ele>
        <time>2015-04-27T18:23:22.933Z</time>
      </trkpt>
      <trkpt lat="48.85537" lon="2.34581">
        <ele>89</ele>
        <time>2015-04-27T18:23:23.966Z</time>
      </trkpt>
      <trkpt lat="48.85537" lon="2.34581">
        <ele>89.2</ele>
        <time>2015-04-27T18:23:24.853Z</time>
      </trkpt>
      <trkpt lat="48.85537" lon="2.34581">
        <ele>89.2</ele>
        <time>2015-04-27T18:23:25.873Z</time>
      </trkpt>
      <trkpt lat="48.85537" lon="2.34581">
        <ele>89.2</ele>
        <time>2015-04-27T18:23:26.894Z</time>
      </trkpt>
      <trkpt lat="48.85537" lon="2.34581">
        <ele>89.2</ele>
        <time>2015-04-27T18:23:34.922Z</time>
      </trkpt>
      <trkpt lat="48.85536" lon="2.34582">
        <ele>88.7</ele>
        <time>2015-04-27T18:23:35.944Z</time>
      </trkpt>
      <trkpt lat="48.85532" lon="2.34592">
        <ele>89.1</ele>
        <time>2015-04-27T18:23:40.905Z</time>
      </trkpt>
      <trkpt lat="48.85532" lon="2.34596">
        <ele>89.3</ele>
        <time>2015-04-27T18:23:41.943Z</time>
      </trkpt>
      <trkpt lat="48.85531" lon="2.34606">
        <ele>89.2</ele>
        <time>2015-04-27T18:23:45.091Z</time>
      </trkpt>
      <trkpt lat="48.8553" lon="2.3461">
        <ele>89.1</ele>
        <time>2015-04-27T18:23:45.906Z</time>
      </trkpt>
      <trkpt lat="48.85529" lon="2.34619">
        <ele>88.9</ele>
        <time>2015-04-27T18:23:47.922Z</time>
      </trkpt>
      <trkpt lat="48.85529" lon="2.34624">
        <ele>88.8</ele>
        <time>2015-04-27T18:23:48.932Z</time>
      </trkpt>
      <trkpt lat="48.85526" lon="2.34636">
        <ele>88.5</ele>
        <time>2015-04-27T18:23:52.239Z</time>
      </trkpt>
      <trkpt lat="48.85524" lon="2.3464">
        <ele>88.4</ele>
        <time>2015-04-27T18:23:52.916Z</time>
      </trkpt>
      <trkpt lat="48.85521" lon="2.34649">
        <ele>88</ele>
        <time>2015-04-27T18:23:54.943Z</time>
      </trkpt>
      <trkpt lat="48.8552" lon="2.34654">
        <ele>87.8</ele>
        <time>2015-04-27T18:23:55.950Z</time>
      </trkpt>
      <trkpt lat="48.85517" lon="2.34664">
        <ele>87.3</ele>
        <time>2015-04-27T18:23:57.915Z</time>
      </trkpt>
      <trkpt lat="48.85515" lon="2.34669">
        <ele>87.2</ele>
        <time>2015-04-27T18:23:58.929Z</time>
      </trkpt>
      <trkpt lat="48.8551" lon="2.34679">
        <ele>86.9</ele>
        <time>2015-04-27T18:24:00.990Z</time>
      </trkpt>
      <trkpt lat="48.85508" lon="2.34684">
        <ele>86.7</ele>
        <time>2015-04-27T18:24:01.910Z</time>
      </trkpt>
      <trkpt lat="48.85504" lon="2.34693">
        <ele>86.8</ele>
        <time>2015-04-27T18:24:03.943Z</time>
      </trkpt>
      <trkpt lat="48.85501" lon="2.34696">
        <ele>86.6</ele>
        <time>2015-04-27T18:24:04.947Z</time>
      </trkpt>
      <trkpt lat="48.85495" lon="2.34704">
        <ele>86.5</ele>
        <time>2015-04-27T18:24:07.980Z</time>
      </trkpt>
      <trkpt lat="48.85494" lon="2.34706">
        <ele>86.5</ele>
        <time>2015-04-27T18:24:08.987Z</time>
      </trkpt>
      <trkpt lat="48.85489" lon="2.34714">
        <ele>86.4</ele>
        <time>2015-04-27T18:24:11.920Z</time>
      </trkpt>
      <trkpt lat="48.85487" lon="2.34718">
        <ele>86.4</ele>
        <time>2015-04-27T18:24:12.919Z</time>
      </trkpt>
      <trkpt lat="48.85483" lon="2.34729">
        <ele>86.2</ele>
        <time>2015-04-27T18:24:15.914Z</time>
      </trkpt>
      <trkpt lat="48.85482" lon="2.34733">
        <ele>86.2</ele>
        <time>2015-04-27T18:24:16.934Z</time>
      </trkpt>
      <trkpt lat="48.85479" lon="2.34743">
        <ele>86.1</ele>
        <time>2015-04-27T18:24:19.900Z</time>
      </trkpt>
      <trkpt lat="48.85477" lon="2.34747">
        <ele>85.9</ele>
        <time>2015-04-27T18:24:20.973Z</time>
      </trkpt>
      <trkpt lat="48.8547" lon="2.34752">
        <ele>85.8</ele>
        <time>2015-04-27T18:24:23.921Z</time>
      </trkpt>
      <trkpt lat="48.85467" lon="2.34752">
        <ele>85.7</ele>
        <time>2015-04-27T18:24:25.062Z</time>
      </trkpt>
      <trkpt lat="48.8546" lon="2.34752">
        <ele>86</ele>
        <time>2015-04-27T18:24:27.773Z</time>
      </trkpt>
      <trkpt lat="48.85457" lon="2.34751">
        <ele>86.1</ele>
        <time>2015-04-27T18:24:27.925Z</time>
      </trkpt>
      <trkpt lat="48.85451" lon="2.34749">
        <ele>86.5</ele>
        <time>2015-04-27T18:24:29.925Z</time>
      </trkpt>
      <trkpt lat="48.85448" lon="2.34748">
        <ele>86.5</ele>
        <time>2015-04-27T18:24:30.875Z</time>
      </trkpt>
      <trkpt lat="48.85441" lon="2.34746">
        <ele>86.5</ele>
        <time>2015-04-27T18:24:32.905Z</time>
      </trkpt>
      <trkpt lat="48.85437" lon="2.34745">
        <ele>86.4</ele>
        <time>2015-04-27T18:24:33.947Z</time>
      </trkpt>
      <trkpt lat="48.8543" lon="2.34742">
        <ele>86.5</ele>
        <time>2015-04-27T18:24:35.893Z</time>
      </trkpt>
      <trkpt lat="48.85426" lon="2.3474">
        <ele>86.8</ele>
        <time>2015-04-27T18:24:36.969Z</time>
      </trkpt>
      <trkpt lat="48.85418" lon="2.34736">
        <ele>87.2</ele>
        <time>2015-04-27T18:24:38.470Z</time>
      </trkpt>
      <trkpt lat="48.85414" lon="2.34734">
        <ele>87.3</ele>
        <time>2015-04-27T18:24:39.897Z</time>
      </trkpt>
      <trkpt lat="48.85406" lon="2.3473">
        <ele>87.4</ele>
        <time>2015-04-27T18:24:41.938Z</time>
      </trkpt>
      <trkpt lat="48.85402" lon="2.34729">
        <ele>87.3</ele>
        <time>2015-04-27T18:24:42.947Z</time>
      </trkpt>
      <trkpt lat="48.85394" lon="2.34725">
        <ele>87.4</ele>
        <time>2015-04-27T18:24:45.563Z</time>
      </trkpt>
      <trkpt lat="48.8539" lon="2.34723">
        <ele>87.5</ele>
        <time>2015-04-27T18:24:45.904Z</time>
      </trkpt>
      <trkpt lat="48.85381" lon="2.3472">
        <ele>87.8</ele>
        <time>2015-04-27T18:24:47.886Z</time>
      </trkpt>
      <trkpt lat="48.85377" lon="2.34718">
        <ele>87.8</ele>
        <time>2015-04-27T18:24:48.894Z</time>
      </trkpt>
      <trkpt lat="48.85372" lon="2.34717">
        <ele>87.8</ele>
        <time>2015-04-27T18:24:50.730Z</time>
      </trkpt>
      <trkpt lat="48.85367" lon="2.34714">
        <ele>87.8</ele>
        <time>2015-04-27T18:24:50.847Z</time>
      </trkpt>
      <trkpt lat="48.85362" lon="2.34711">
        <ele>87.7</ele>
        <time>2015-04-27T18:24:51.902Z</time>
      </trkpt>
      <trkpt lat="48.85357" lon="2.34709">
        <ele>87.6</ele>
        <time>2015-04-27T18:24:52.903Z</time>
      </trkpt>
      <trkpt lat="48.85353" lon="2.34706">
        <ele>87.7</ele>
        <time>2015-04-27T18:24:53.939Z</time>
      </trkpt>
      <trkpt lat="48.85348" lon="2.34703">
        <ele>87.8</ele>
        <time>2015-04-27T18:24:54.886Z</time>
      </trkpt>
      <trkpt lat="48.85344" lon="2.347">
        <ele>87.8</ele>
        <time>2015-04-27T18:24:55.907Z</time>
      </trkpt>
      <trkpt lat="48.85339" lon="2.34698">
        <ele>87.8</ele>
        <time>2015-04-27T18:24:56.925Z</time>
      </trkpt>
      <trkpt lat="48.85331" lon="2.34695">
        <ele>87.7</ele>
        <time>2015-04-27T18:24:58.878Z</time>
      </trkpt>
      <trkpt lat="48.85328" lon="2.34694">
        <ele>87.6</ele>
        <time>2015-04-27T18:24:59.932Z</time>
      </trkpt>
      <trkpt lat="48.8532" lon="2.34691">
        <ele>87.5</ele>
        <time>2015-04-27T18:25:03.939Z</time>
      </trkpt>
      <trkpt lat="48.85318" lon="2.34691">
        <ele>87.5</ele>
        <time>2015-04-27T18:25:04.950Z</time>
      </trkpt>
      <trkpt lat="48.85311" lon="2.34685">
        <ele>87.7</ele>
        <time>2015-04-27T18:25:26.941Z</time>
      </trkpt>
      <trkpt lat="48.8531" lon="2.34684">
        <ele>87.7</ele>
        <time>2015-04-27T18:25:27.951Z</time>
      </trkpt>
      <trkpt lat="48.85304" lon="2.34679">
        <ele>87.7</ele>
        <time>2015-04-27T18:25:30.941Z</time>
      </trkpt>
      <trkpt lat="48.85301" lon="2.34678">
        <ele>87.6</ele>
        <time>2015-04-27T18:25:31.944Z</time>
      </trkpt>
      <trkpt lat="48.85295" lon="2.34673">
        <ele>87.5</ele>
        <time>2015-04-27T18:25:33.984Z</time>
      </trkpt>
      <trkpt lat="48.85292" lon="2.34671">
        <ele>87.4</ele>
        <time>2015-04-27T18:25:34.997Z</time>
      </trkpt>
      <trkpt lat="48.85285" lon="2.34664">
        <ele>87.2</ele>
        <time>2015-04-27T18:25:36.926Z</time>
      </trkpt>
      <trkpt lat="48.8528" lon="2.34661">
        <ele>87</ele>
        <time>2015-04-27T18:25:37.940Z</time>
      </trkpt>
      <trkpt lat="48.85273" lon="2.34656">
        <ele>87</ele>
        <time>2015-04-27T18:25:39.946Z</time>
      </trkpt>
      <trkpt lat="48.85269" lon="2.34654">
        <ele>87.1</ele>
        <time>2015-04-27T18:25:40.954Z</time>
      </trkpt>
      <trkpt lat="48.85264" lon="2.34651">
        <ele>87.2</ele>
        <time>2015-04-27T18:25:42.969Z</time>
      </trkpt>
      <trkpt lat="48.85258" lon="2.34648">
        <ele>87.5</ele>
        <time>2015-04-27T18:25:43.985Z</time>
      </trkpt>
      <trkpt lat="48.85253" lon="2.34645">
        <ele>87.6</ele>
        <time>2015-04-27T18:25:44.922Z</time>
      </trkpt>
      <trkpt lat="48.85248" lon="2.34642">
        <ele>87.7</ele>
        <time>2015-04-27T18:25:45.940Z</time>
      </trkpt>
      <trkpt lat="48.85242" lon="2.34639">
        <ele>87.7</ele>
        <time>2015-04-27T18:25:46.966Z</time>
      </trkpt>
      <trkpt lat="48.85238" lon="2.34636">
        <ele>87.7</ele>
        <time>2015-04-27T18:25:47.862Z</time>
      </trkpt>
      <trkpt lat="48.8523" lon="2.34629">
        <ele>87.9</ele>
        <time>2015-04-27T18:25:49.930Z</time>
      </trkpt>
      <trkpt lat="48.85129" lon="2.34577">
        <ele>88.3</ele>
        <time>2015-04-27T18:26:08.977Z</time>
      </trkpt>
      <trkpt lat="48.85124" lon="2.34575">
        <ele>88.4</ele>
        <time>2015-04-27T18:26:10.002Z</time>
      </trkpt>
      <trkpt lat="48.85119" lon="2.34574">
        <ele>88.5</ele>
        <time>2015-04-27T18:26:10.878Z</time>
      </trkpt>
      <trkpt lat="48.85114" lon="2.34573">
        <ele>88.6</ele>
        <time>2015-04-27T18:26:11.876Z</time>
      </trkpt>
      <trkpt lat="48.8511" lon="2.34572">
        <ele>88.6</ele>
        <time>2015-04-27T18:26:12.893Z</time>
      </trkpt>
      <trkpt lat="48.85102" lon="2.34572">
        <ele>88.5</ele>
        <time>2015-04-27T18:26:14.915Z</time>
      </trkpt>
      <trkpt lat="48.85098" lon="2.34573">
        <ele>88.5</ele>
        <time>2015-04-27T18:26:15.923Z</time>
      </trkpt>
      <trkpt lat="48.8509" lon="2.34578">
        <ele>88.3</ele>
        <time>2015-04-27T18:26:17.908Z</time>
      </trkpt>
      <trkpt lat="48.85087" lon="2.34581">
        <ele>88.2</ele>
        <time>2015-04-27T18:26:18.946Z</time>
      </trkpt>
      <trkpt lat="48.85082" lon="2.34588">
        <ele>87.9</ele>
        <time>2015-04-27T18:26:20.906Z</time>
      </trkpt>
      <trkpt lat="48.85081" lon="2.34593">
        <ele>87.8</ele>
        <time>2015-04-27T18:26:21.971Z</time>
      </trkpt>
      <trkpt lat="48.85079" lon="2.34599">
        <ele>87.6</ele>
        <time>2015-04-27T18:26:22.873Z</time>
      </trkpt>
      <trkpt lat="48.85078" lon="2.34606">
        <ele>87.3</ele>
        <time>2015-04-27T18:26:23.873Z</time>
      </trkpt>
      <trkpt lat="48.85076" lon="2.34613">
        <ele>87.2</ele>
        <time>2015-04-27T18:26:24.881Z</time>
      </trkpt>
      <trkpt lat="48.85075" lon="2.3462">
        <ele>87.1</ele>
        <time>2015-04-27T18:26:25.890Z</time>
      </trkpt>
      <trkpt lat="48.85073" lon="2.34627">
        <ele>86.8</ele>
        <time>2015-04-27T18:26:27.167Z</time>
      </trkpt>
      <trkpt lat="48.85071" lon="2.34635">
        <ele>86.6</ele>
        <time>2015-04-27T18:26:27.952Z</time>
      </trkpt>
      <trkpt lat="48.85068" lon="2.34643">
        <ele>86.4</ele>
        <time>2015-04-27T18:26:28.863Z</time>
      </trkpt>
      <trkpt lat="48.85066" lon="2.34651">
        <ele>86.3</ele>
        <time>2015-04-27T18:26:30.075Z</time>
      </trkpt>
      <trkpt lat="48.85063" lon="2.34659">
        <ele>86.1</ele>
        <time>2015-04-27T18:26:30.931Z</time>
      </trkpt>
      <trkpt lat="48.85061" lon="2.34666">
        <ele>86.1</ele>
        <time>2015-04-27T18:26:31.935Z</time>
      </trkpt>
      <trkpt lat="48.85058" lon="2.34674">
        <ele>85.9</ele>
        <time>2015-04-27T18:26:32.941Z</time>
      </trkpt>
      <trkpt lat="48.85056" lon="2.34682">
        <ele>85.8</ele>
        <time>2015-04-27T18:26:33.949Z</time>
      </trkpt>
      <trkpt lat="48.85054" lon="2.3469">
        <ele>85.6</ele>
        <time>2015-04-27T18:26:34.962Z</time>
      </trkpt>
      <trkpt lat="48.85052" lon="2.34698">
        <ele>85.4</ele>
        <time>2015-04-27T18:26:35.870Z</time>
      </trkpt>
      <trkpt lat="48.8505" lon="2.34708">
        <ele>85.5</ele>
        <time>2015-04-27T18:26:36.952Z</time>
      </trkpt>
      <trkpt lat="48.85048" lon="2.34718">
        <ele>85.5</ele>
        <time>2015-04-27T18:26:37.860Z</time>
      </trkpt>
      <trkpt lat="48.85045" lon="2.34727">
        <ele>85.6</ele>
        <time>2015-04-27T18:26:38.958Z</time>
      </trkpt>
      <trkpt lat="48.85043" lon="2.34735">
        <ele>85.8</ele>
        <time>2015-04-27T18:26:39.912Z</time>
      </trkpt>
      <trkpt lat="48.8504" lon="2.34743">
        <ele>85.8</ele>
        <time>2015-04-27T18:26:40.963Z</time>
      </trkpt>
      <trkpt lat="48.85038" lon="2.3475">
        <ele>85.7</ele>
        <time>2015-04-27T18:26:41.851Z</time>
      </trkpt>
      <trkpt lat="48.85035" lon="2.34759">
        <ele>85.8</ele>
        <time>2015-04-27T18:26:42.890Z</time>
      </trkpt>
      <trkpt lat="48.85033" lon="2.34767">
        <ele>85.9</ele>
        <time>2015-04-27T18:26:43.911Z</time>
      </trkpt>
      <trkpt lat="48.85031" lon="2.34776">
        <ele>86</ele>
        <time>2015-04-27T18:26:44.917Z</time>
      </trkpt>
      <trkpt lat="48.85028" lon="2.34784">
        <ele>85.8</ele>
        <time>2015-04-27T18:26:45.927Z</time>
      </trkpt>
      <trkpt lat="48.85027" lon="2.34792">
        <ele>85.7</ele>
        <time>2015-04-27T18:26:46.936Z</time>
      </trkpt>
      <trkpt lat="48.85025" lon="2.34801">
        <ele>85.6</ele>
        <time>2015-04-27T18:26:47.945Z</time>
      </trkpt>
      <trkpt lat="48.85023" lon="2.3481">
        <ele>85.4</ele>
        <time>2015-04-27T18:26:48.955Z</time>
      </trkpt>
      <trkpt lat="48.85021" lon="2.34818">
        <ele>85.1</ele>
        <time>2015-04-27T18:26:49.966Z</time>
      </trkpt>
      <trkpt lat="48.85019" lon="2.34826">
        <ele>84.8</ele>
        <time>2015-04-27T18:26:50.880Z</time>
      </trkpt>
      <trkpt lat="48.85017" lon="2.34834">
        <ele>84.6</ele>
        <time>2015-04-27T18:26:51.915Z</time>
      </trkpt>
      <trkpt lat="48.85015" lon="2.34842">
        <ele>84.4</ele>
        <time>2015-04-27T18:26:52.912Z</time>
      </trkpt>
      <trkpt lat="48.85013" lon="2.3485">
        <ele>84.2</ele>
        <time>2015-04-27T18:26:53.922Z</time>
      </trkpt>
      <trkpt lat="48.8501" lon="2.34858">
        <ele>83.9</ele>
        <time>2015-04-27T18:26:54.929Z</time>
      </trkpt>
      <trkpt lat="48.85008" lon="2.34866">
        <ele>83.6</ele>
        <time>2015-04-27T18:26:55.886Z</time>
      </trkpt>
      <trkpt lat="48.85005" lon="2.34874">
        <ele>83.3</ele>
        <time>2015-04-27T18:26:56.878Z</time>
      </trkpt>
      <trkpt lat="48.85002" lon="2.34882">
        <ele>83.1</ele>
        <time>2015-04-27T18:26:57.928Z</time>
      </trkpt>
      <trkpt lat="48.85" lon="2.34889">
        <ele>82.9</ele>
        <time>2015-04-27T18:26:58.938Z</time>
      </trkpt>
      <trkpt lat="48.84997" lon="2.34896">
        <ele>82.8</ele>
        <time>2015-04-27T18:26:59.956Z</time>
      </trkpt>
      <trkpt lat="48.84993" lon="2.34901">
        <ele>82.9</ele>
        <time>2015-04-27T18:27:00.855Z</time>
      </trkpt>
      <trkpt lat="48.84988" lon="2.34905">
        <ele>83</ele>
        <time>2015-04-27T18:27:01.878Z</time>
      </trkpt>
      <trkpt lat="48.84984" lon="2.34909">
        <ele>83.1</ele>
        <time>2015-04-27T18:27:02.924Z</time>
      </trkpt>
      <trkpt lat="48.8498" lon="2.34912">
        <ele>83.3</ele>
        <time>2015-04-27T18:27:03.970Z</time>
      </trkpt>
      <trkpt lat="48.84972" lon="2.34914">
        <ele>83.7</ele>
        <time>2015-04-27T18:27:05.875Z</time>
      </trkpt>
      <trkpt lat="48.84967" lon="2.34913">
        <ele>83.9</ele>
        <time>2015-04-27T18:27:06.962Z</time>
      </trkpt>
      <trkpt lat="48.84958" lon="2.34914">
        <ele>84.3</ele>
        <time>2015-04-27T18:27:08.881Z</time>
      </trkpt>
      <trkpt lat="48.84955" lon="2.34915">
        <ele>84.4</ele>
        <time>2015-04-27T18:27:09.926Z</time>
      </trkpt>
      <trkpt lat="48.84949" lon="2.3492">
        <ele>84.8</ele>
        <time>2015-04-27T18:27:11.953Z</time>
      </trkpt>
      <trkpt lat="48.84946" lon="2.34924">
        <ele>85</ele>
        <time>2015-04-27T18:27:12.850Z</time>
      </trkpt>
      <trkpt lat="48.84942" lon="2.34929">
        <ele>85.1</ele>
        <time>2015-04-27T18:27:13.919Z</time>
      </trkpt>
      <trkpt lat="48.84938" lon="2.34935">
        <ele>85.4</ele>
        <time>2015-04-27T18:27:14.947Z</time>
      </trkpt>
      <trkpt lat="48.84935" lon="2.34941">
        <ele>85.3</ele>
        <time>2015-04-27T18:27:15.993Z</time>
      </trkpt>
      <trkpt lat="48.84931" lon="2.34947">
        <ele>85.5</ele>
        <time>2015-04-27T18:27:16.882Z</time>
      </trkpt>
      <trkpt lat="48.84928" lon="2.34952">
        <ele>85.7</ele>
        <time>2015-04-27T18:27:17.878Z</time>
      </trkpt>
      <trkpt lat="48.84923" lon="2.34955">
        <ele>85.7</ele>
        <time>2015-04-27T18:27:18.895Z</time>
      </trkpt>
      <trkpt lat="48.84918" lon="2.34959">
        <ele>85.3</ele>
        <time>2015-04-27T18:27:19.914Z</time>
      </trkpt>
      <trkpt lat="48.84912" lon="2.34963">
        <ele>85.1</ele>
        <time>2015-04-27T18:27:20.927Z</time>
      </trkpt>
      <trkpt lat="48.84905" lon="2.34967">
        <ele>84.9</ele>
        <time>2015-04-27T18:27:21.946Z</time>
      </trkpt>
      <trkpt lat="48.84898" lon="2.34971">
        <ele>84.8</ele>
        <time>2015-04-27T18:27:22.960Z</time>
      </trkpt>
      <trkpt lat="48.84886" lon="2.34982">
        <ele>84.4</ele>
        <time>2015-04-27T18:27:24.898Z</time>
      </trkpt>
      <trkpt lat="48.8488" lon="2.34986">
        <ele>84.3</ele>
        <time>2015-04-27T18:27:25.910Z</time>
      </trkpt>
      <trkpt lat="48.84874" lon="2.3499">
        <ele>84.3</ele>
        <time>2015-04-27T18:27:26.918Z</time>
      </trkpt>
      <trkpt lat="48.84867" lon="2.34994">
        <ele>84.4</ele>
        <time>2015-04-27T18:27:27.933Z</time>
      </trkpt>
      <trkpt lat="48.84862" lon="2.34998">
        <ele>84.5</ele>
        <time>2015-04-27T18:27:28.945Z</time>
      </trkpt>
      <trkpt lat="48.84856" lon="2.35002">
        <ele>84.6</ele>
        <time>2015-04-27T18:27:29.861Z</time>
      </trkpt>
      <trkpt lat="48.84851" lon="2.35006">
        <ele>84.7</ele>
        <time>2015-04-27T18:27:30.869Z</time>
      </trkpt>
      <trkpt lat="48.84846" lon="2.3501">
        <ele>84.9</ele>
        <time>2015-04-27T18:27:31.876Z</time>
      </trkpt>
      <trkpt lat="48.84841" lon="2.35015">
        <ele>85.1</ele>
        <time>2015-04-27T18:27:32.884Z</time>
      </trkpt>
      <trkpt lat="48.84837" lon="2.3502">
        <ele>85.2</ele>
        <time>2015-04-27T18:27:33.921Z</time>
      </trkpt>
      <trkpt lat="48.84832" lon="2.35025">
        <ele>85.4</ele>
        <time>2015-04-27T18:27:34.937Z</time>
      </trkpt>
      <trkpt lat="48.84828" lon="2.35031">
        <ele>85.2</ele>
        <time>2015-04-27T18:27:35.972Z</time>
      </trkpt>
      <trkpt lat="48.84824" lon="2.35036">
        <ele>85.3</ele>
        <time>2015-04-27T18:27:36.875Z</time>
      </trkpt>
      <trkpt lat="48.84819" lon="2.35041">
        <ele>85.5</ele>
        <time>2015-04-27T18:27:37.910Z</time>
      </trkpt>
      <trkpt lat="48.84815" lon="2.35045">
        <ele>85.6</ele>
        <time>2015-04-27T18:27:38.920Z</time>
      </trkpt>
      <trkpt lat="48.84808" lon="2.35051">
        <ele>85.5</ele>
        <time>2015-04-27T18:27:40.929Z</time>
      </trkpt>
      <trkpt lat="48.84805" lon="2.35053">
        <ele>85.6</ele>
        <time>2015-04-27T18:27:41.953Z</time>
      </trkpt>
      <trkpt lat="48.84802" lon="2.35055">
        <ele>85.6</ele>
        <time>2015-04-27T18:27:44.919Z</time>
      </trkpt>
      <trkpt lat="48.84802" lon="2.35055">
        <ele>85.2</ele>
        <time>2015-04-27T18:27:45.956Z</time>
      </trkpt>
      <trkpt lat="48.84803" lon="2.35054">
        <ele>84.8</ele>
        <time>2015-04-27T18:27:50.898Z</time>
      </trkpt>
      <trkpt lat="48.84804" lon="2.35056">
        <ele>84.9</ele>
        <time>2015-04-27T18:27:51.923Z</time>
      </trkpt>
      <trkpt lat="48.84803" lon="2.35067">
        <ele>85.5</ele>
        <time>2015-04-27T18:27:55.908Z</time>
      </trkpt>
      <trkpt lat="48.84802" lon="2.35072">
        <ele>85.6</ele>
        <time>2015-04-27T18:27:56.915Z</time>
      </trkpt>
      <trkpt lat="48.84799" lon="2.35084">
        <ele>85.4</ele>
        <time>2015-04-27T18:27:58.921Z</time>
      </trkpt>
      <trkpt lat="48.84797" lon="2.3509">
        <ele>85.2</ele>
        <time>2015-04-27T18:27:59.947Z</time>
      </trkpt>
      <trkpt lat="48.84795" lon="2.35096">
        <ele>85.1</ele>
        <time>2015-04-27T18:28:00.857Z</time>
      </trkpt>
      <trkpt lat="48.84793" lon="2.35103">
        <ele>85</ele>
        <time>2015-04-27T18:28:01.884Z</time>
      </trkpt>
      <trkpt lat="48.84791" lon="2.35109">
        <ele>84.9</ele>
        <time>2015-04-27T18:28:02.890Z</time>
      </trkpt>
      <trkpt lat="48.84788" lon="2.35116">
        <ele>84.8</ele>
        <time>2015-04-27T18:28:03.925Z</time>
      </trkpt>
      <trkpt lat="48.84785" lon="2.35123">
        <ele>84.7</ele>
        <time>2015-04-27T18:28:04.931Z</time>
      </trkpt>
      <trkpt lat="48.84783" lon="2.35131">
        <ele>84.6</ele>
        <time>2015-04-27T18:28:05.864Z</time>
      </trkpt>
      <trkpt lat="48.8478" lon="2.35137">
        <ele>84.5</ele>
        <time>2015-04-27T18:28:05.406Z</time>
      </trkpt>
      <trkpt lat="48.84777" lon="2.35144">
        <ele>84.4</ele>
        <time>2015-04-27T18:28:07.887Z</time>
      </trkpt>
      <trkpt lat="48.84775" lon="2.35152">
        <ele>83.9</ele>
        <time>2015-04-27T18:28:08.898Z</time>
      </trkpt>
      <trkpt lat="48.84772" lon="2.35159">
        <ele>83.9</ele>
        <time>2015-04-27T18:28:09.924Z</time>
      </trkpt>
      <trkpt lat="48.8477" lon="2.35166">
        <ele>83.7</ele>
        <time>2015-04-27T18:28:10.935Z</time>
      </trkpt>
      <trkpt lat="48.84767" lon="2.35174">
        <ele>83.7</ele>
        <time>2015-04-27T18:28:11.948Z</time>
      </trkpt>
      <trkpt lat="48.84765" lon="2.35182">
        <ele>83.5</ele>
        <time>2015-04-27T18:28:12.844Z</time>
      </trkpt>
      <trkpt lat="48.84761" lon="2.35198">
        <ele>83.3</ele>
        <time>2015-04-27T18:28:14.946Z</time>
      </trkpt>
      <trkpt lat="48.84758" lon="2.35206">
        <ele>83</ele>
        <time>2015-04-27T18:28:15.975Z</time>
      </trkpt>
      <trkpt lat="48.84756" lon="2.35215">
        <ele>82.8</ele>
        <time>2015-04-27T18:28:16.906Z</time>
      </trkpt>
      <trkpt lat="48.84753" lon="2.35224">
        <ele>82.6</ele>
        <time>2015-04-27T18:28:17.924Z</time>
      </trkpt>
      <trkpt lat="48.84751" lon="2.35233">
        <ele>82.6</ele>
        <time>2015-04-27T18:28:18.945Z</time>
      </trkpt>
      <trkpt lat="48.84749" lon="2.35242">
        <ele>82.4</ele>
        <time>2015-04-27T18:28:19.953Z</time>
      </trkpt>
      <trkpt lat="48.84746" lon="2.3525">
        <ele>82.2</ele>
        <time>2015-04-27T18:28:20.867Z</time>
      </trkpt>
      <trkpt lat="48.84741" lon="2.35261">
        <ele>82.1</ele>
        <time>2015-04-27T18:28:22.922Z</time>
      </trkpt>
      <trkpt lat="48.8474" lon="2.35265">
        <ele>81.7</ele>
        <time>2015-04-27T18:28:23.955Z</time>
      </trkpt>
      <trkpt lat="48.84737" lon="2.35274">
        <ele>81.9</ele>
        <time>2015-04-27T18:28:25.886Z</time>
      </trkpt>
      <trkpt lat="48.84736" lon="2.35278">
        <ele>82</ele>
        <time>2015-04-27T18:28:26.955Z</time>
      </trkpt>
      <trkpt lat="48.84734" lon="2.35286">
        <ele>82</ele>
        <time>2015-04-27T18:28:29.908Z</time>
      </trkpt>
      <trkpt lat="48.84734" lon="2.35285">
        <ele>82.4</ele>
        <time>2015-04-27T18:28:30.941Z</time>
      </trkpt>
      <trkpt lat="48.84734" lon="2.35285">
        <ele>82.4</ele>
        <time>2015-04-27T18:28:31.880Z</time>
      </trkpt>
      <trkpt lat="48.84734" lon="2.35285">
        <ele>82.3</ele>
        <time>2015-04-27T18:28:32.951Z</time>
      </trkpt>
      <trkpt lat="48.84735" lon="2.35285">
        <ele>82</ele>
        <time>2015-04-27T18:28:33.969Z</time>
      </trkpt>
      <trkpt lat="48.84735" lon="2.35284">
        <ele>81.6</ele>
        <time>2015-04-27T18:28:35.920Z</time>
      </trkpt>
      <trkpt lat="48.84736" lon="2.35286">
        <ele>81.6</ele>
        <time>2015-04-27T18:28:36.928Z</time>
      </trkpt>
      <trkpt lat="48.84736" lon="2.35295">
        <ele>81.6</ele>
        <time>2015-04-27T18:28:38.950Z</time>
      </trkpt>
      <trkpt lat="48.84735" lon="2.35301">
        <ele>81.3</ele>
        <time>2015-04-27T18:28:39.957Z</time>
      </trkpt>
      <trkpt lat="48.84734" lon="2.35313">
        <ele>81.4</ele>
        <time>2015-04-27T18:28:41.898Z</time>
      </trkpt>
      <trkpt lat="48.84734" lon="2.3532">
        <ele>81.5</ele>
        <time>2015-04-27T18:28:42.974Z</time>
      </trkpt>
      <trkpt lat="48.84731" lon="2.3533">
        <ele>81.6</ele>
        <time>2015-04-27T18:28:44.907Z</time>
      </trkpt>
      <trkpt lat="48.84729" lon="2.35335">
        <ele>81.7</ele>
        <time>2015-04-27T18:28:45.974Z</time>
      </trkpt>
      <trkpt lat="48.84723" lon="2.35343">
        <ele>81.8</ele>
        <time>2015-04-27T18:28:48.934Z</time>
      </trkpt>
      <trkpt lat="48.84722" lon="2.35346">
        <ele>81.7</ele>
        <time>2015-04-27T18:28:49.953Z</time>
      </trkpt>
      <trkpt lat="48.84717" lon="2.35357">
        <ele>81</ele>
        <time>2015-04-27T18:28:54.372Z</time>
      </trkpt>
      <trkpt lat="48.84715" lon="2.35363">
        <ele>80.5</ele>
        <time>2015-04-27T18:28:54.891Z</time>
      </trkpt>
      <trkpt lat="48.84713" lon="2.35371">
        <ele>80</ele>
        <time>2015-04-27T18:28:55.966Z</time>
      </trkpt>
      <trkpt lat="48.84712" lon="2.35378">
        <ele>79.6</ele>
        <time>2015-04-27T18:28:56.843Z</time>
      </trkpt>
      <trkpt lat="48.8471" lon="2.35383">
        <ele>79.5</ele>
        <time>2015-04-27T18:28:57.908Z</time>
      </trkpt>
      <trkpt lat="48.84707" lon="2.35393">
        <ele>78.6</ele>
        <time>2015-04-27T18:28:59.101Z</time>
      </trkpt>
      <trkpt lat="48.84701" lon="2.35399">
        <ele>78</ele>
        <time>2015-04-27T18:28:59.933Z</time>
      </trkpt>
      <trkpt lat="48.84696" lon="2.35405">
        <ele>77.7</ele>
        <time>2015-04-27T18:29:00.944Z</time>
      </trkpt>
      <trkpt lat="48.84689" lon="2.3541">
        <ele>77.8</ele>
        <time>2015-04-27T18:29:01.955Z</time>
      </trkpt>
      <trkpt lat="48.84683" lon="2.35413">
        <ele>77.5</ele>
        <time>2015-04-27T18:29:02.878Z</time>
      </trkpt>
      <trkpt lat="48.84674" lon="2.35415">
        <ele>77.1</ele>
        <time>2015-04-27T18:29:03.917Z</time>
      </trkpt>
      <trkpt lat="48.84666" lon="2.35418">
        <ele>76.9</ele>
        <time>2015-04-27T18:29:04.931Z</time>
      </trkpt>
      <trkpt lat="48.84658" lon="2.35421">
        <ele>76.6</ele>
        <time>2015-04-27T18:29:04.571Z</time>
      </trkpt>
      <trkpt lat="48.84651" lon="2.35422">
        <ele>76.7</ele>
        <time>2015-04-27T18:29:06.879Z</time>
      </trkpt>
      <trkpt lat="48.84645" lon="2.35425">
        <ele>76.8</ele>
        <time>2015-04-27T18:29:07.870Z</time>
      </trkpt>
      <trkpt lat="48.84638" lon="2.35428">
        <ele>76.8</ele>
        <time>2015-04-27T18:29:08.907Z</time>
      </trkpt>
      <trkpt lat="48.84631" lon="2.35431">
        <ele>76.9</ele>
        <time>2015-04-27T18:29:09.927Z</time>
      </trkpt>
      <trkpt lat="48.84623" lon="2.35433">
        <ele>76.8</ele>
        <time>2015-04-27T18:29:10.956Z</time>
      </trkpt>
      <trkpt lat="48.84616" lon="2.35435">
        <ele>77</ele>
        <time>2015-04-27T18:29:11.877Z</time>
      </trkpt>
      <trkpt lat="48.84609" lon="2.35436">
        <ele>77.3</ele>
        <time>2015-04-27T18:29:12.928Z</time>
      </trkpt>
      <trkpt lat="48.84602" lon="2.35438">
        <ele>77.5</ele>
        <time>2015-04-27T18:29:13.941Z</time>
      </trkpt>
      <trkpt lat="48.84595" lon="2.35439">
        <ele>77.9</ele>
        <time>2015-04-27T18:29:14.975Z</time>
      </trkpt>
      <trkpt lat="48.84588" lon="2.35441">
        <ele>78.3</ele>
        <time>2015-04-27T18:29:15.906Z</time>
      </trkpt>
      <trkpt lat="48.84582" lon="2.35442">
        <ele>78.5</ele>
        <time>2015-04-27T18:29:16.870Z</time>
      </trkpt>
      <trkpt lat="48.84576" lon="2.35445">
        <ele>78.8</ele>
        <time>2015-04-27T18:29:17.889Z</time>
      </trkpt>
      <trkpt lat="48.84569" lon="2.35447">
        <ele>79.2</ele>
        <time>2015-04-27T18:29:18.901Z</time>
      </trkpt>
      <trkpt lat="48.84563" lon="2.35449">
        <ele>79.5</ele>
        <time>2015-04-27T18:29:19.926Z</time>
      </trkpt>
      <trkpt lat="48.84556" lon="2.35451">
        <ele>79.7</ele>
        <time>2015-04-27T18:29:20.934Z</time>
      </trkpt>
      <trkpt lat="48.8455" lon="2.35454">
        <ele>79.9</ele>
        <time>2015-04-27T18:29:21.948Z</time>
      </trkpt>
      <trkpt lat="48.84545" lon="2.35456">
        <ele>80.1</ele>
        <time>2015-04-27T18:29:22.878Z</time>
      </trkpt>
      <trkpt lat="48.84536" lon="2.35459">
        <ele>80.5</ele>
        <time>2015-04-27T18:29:24.950Z</time>
      </trkpt>
      <trkpt lat="48.84533" lon="2.35461">
        <ele>80.7</ele>
        <time>2015-04-27T18:29:25.868Z</time>
      </trkpt>
      <trkpt lat="48.84529" lon="2.35463">
        <ele>80.9</ele>
        <time>2015-04-27T18:29:26.960Z</time>
      </trkpt>
      <trkpt lat="48.84524" lon="2.35465">
        <ele>81.2</ele>
        <time>2015-04-27T18:29:27.920Z</time>
      </trkpt>
      <trkpt lat="48.84515" lon="2.35467">
        <ele>81.6</ele>
        <time>2015-04-27T18:29:29.934Z</time>
      </trkpt>
      <trkpt lat="48.84511" lon="2.35468">
        <ele>81.8</ele>
        <time>2015-04-27T18:29:30.900Z</time>
      </trkpt>
      <trkpt lat="48.84506" lon="2.35469">
        <ele>82</ele>
        <time>2015-04-27T18:29:31.844Z</time>
      </trkpt>
      <trkpt lat="48.845" lon="2.35469">
        <ele>82.2</ele>
        <time>2015-04-27T18:29:32.850Z</time>
      </trkpt>
      <trkpt lat="48.84494" lon="2.35468">
        <ele>82.3</ele>
        <time>2015-04-27T18:29:33.910Z</time>
      </trkpt>
      <trkpt lat="48.84488" lon="2.35468">
        <ele>82.5</ele>
        <time>2015-04-27T18:29:34.980Z</time>
      </trkpt>
      <trkpt lat="48.84483" lon="2.35469">
        <ele>82.7</ele>
        <time>2015-04-27T18:29:35.892Z</time>
      </trkpt>
      <trkpt lat="48.84478" lon="2.35471">
        <ele>82.9</ele>
        <time>2015-04-27T18:29:36.923Z</time>
      </trkpt>
      <trkpt lat="48.84469" lon="2.35474">
        <ele>83.2</ele>
        <time>2015-04-27T18:29:38.905Z</time>
      </trkpt>
      <trkpt lat="48.84466" lon="2.35475">
        <ele>83.3</ele>
        <time>2015-04-27T18:29:39.939Z</time>
      </trkpt>
      <trkpt lat="48.84458" lon="2.35476">
        <ele>83.6</ele>
        <time>2015-04-27T18:29:42.098Z</time>
      </trkpt>
      <trkpt lat="48.84453" lon="2.35476">
        <ele>83.6</ele>
        <time>2015-04-27T18:29:42.947Z</time>
      </trkpt>
      <trkpt lat="48.84447" lon="2.35476">
        <ele>83.7</ele>
        <time>2015-04-27T18:29:43.878Z</time>
      </trkpt>
      <trkpt lat="48.84441" lon="2.35476">
        <ele>83.8</ele>
        <time>2015-04-27T18:29:44.905Z</time>
      </trkpt>
      <trkpt lat="48.84436" lon="2.35476">
        <ele>83.9</ele>
        <time>2015-04-27T18:29:46.016Z</time>
      </trkpt>
      <trkpt lat="48.8443" lon="2.35479">
        <ele>84.4</ele>
        <time>2015-04-27T18:29:46.877Z</time>
      </trkpt>
      <trkpt lat="48.84425" lon="2.3548">
        <ele>84.5</ele>
        <time>2015-04-27T18:29:47.909Z</time>
      </trkpt>
      <trkpt lat="48.8442" lon="2.35481">
        <ele>84.7</ele>
        <time>2015-04-27T18:29:48.933Z</time>
      </trkpt>
      <trkpt lat="48.84411" lon="2.35484">
        <ele>84.8</ele>
        <time>2015-04-27T18:29:50.866Z</time>
      </trkpt>
      <trkpt lat="48.84407" lon="2.35485">
        <ele>84.9</ele>
        <time>2015-04-27T18:29:51.902Z</time>
      </trkpt>
      <trkpt lat="48.84402" lon="2.35485">
        <ele>84.6</ele>
        <time>2015-04-27T18:29:52.936Z</time>
      </trkpt>
      <trkpt lat="48.84397" lon="2.35486">
        <ele>84.7</ele>
        <time>2015-04-27T18:29:53.843Z</time>
      </trkpt>
      <trkpt lat="48.84389" lon="2.35488">
        <ele>84.5</ele>
        <time>2015-04-27T18:29:55.911Z</time>
      </trkpt>
      <trkpt lat="48.84386" lon="2.35488">
        <ele>84.3</ele>
        <time>2015-04-27T18:29:56.970Z</time>
      </trkpt>
      <trkpt lat="48.84379" lon="2.35493">
        <ele>83.9</ele>
        <time>2015-04-27T18:29:59.936Z</time>
      </trkpt>
      <trkpt lat="48.84377" lon="2.35494">
        <ele>84</ele>
        <time>2015-04-27T18:30:00.951Z</time>
      </trkpt>
      <trkpt lat="48.84368" lon="2.35498">
        <ele>84.6</ele>
        <time>2015-04-27T18:30:10.935Z</time>
      </trkpt>
      <trkpt lat="48.84366" lon="2.35499">
        <ele>84.7</ele>
        <time>2015-04-27T18:30:12.017Z</time>
      </trkpt>
      <trkpt lat="48.84358" lon="2.35502">
        <ele>85.3</ele>
        <time>2015-04-27T18:30:14.977Z</time>
      </trkpt>
      <trkpt lat="48.84355" lon="2.35503">
        <ele>85.5</ele>
        <time>2015-04-27T18:30:15.927Z</time>
      </trkpt>
      <trkpt lat="48.84348" lon="2.35504">
        <ele>85.8</ele>
        <time>2015-04-27T18:30:17.969Z</time>
      </trkpt>
      <trkpt lat="48.84343" lon="2.35506">
        <ele>85.8</ele>
        <time>2015-04-27T18:30:18.923Z</time>
      </trkpt>
      <trkpt lat="48.84338" lon="2.35506">
        <ele>85.9</ele>
        <time>2015-04-27T18:30:19.896Z</time>
      </trkpt>
      <trkpt lat="48.84334" lon="2.35507">
        <ele>85.8</ele>
        <time>2015-04-27T18:30:20.926Z</time>
      </trkpt>
      <trkpt lat="48.84329" lon="2.35508">
        <ele>85.6</ele>
        <time>2015-04-27T18:30:21.951Z</time>
      </trkpt>
      <trkpt lat="48.84325" lon="2.35508">
        <ele>85.6</ele>
        <time>2015-04-27T18:30:22.868Z</time>
      </trkpt>
      <trkpt lat="48.8432" lon="2.35509">
        <ele>85.7</ele>
        <time>2015-04-27T18:30:23.903Z</time>
      </trkpt>
      <trkpt lat="48.84315" lon="2.3551">
        <ele>85.6</ele>
        <time>2015-04-27T18:30:24.921Z</time>
      </trkpt>
      <trkpt lat="48.84306" lon="2.35513">
        <ele>85.7</ele>
        <time>2015-04-27T18:30:26.871Z</time>
      </trkpt>
      <trkpt lat="48.84301" lon="2.35515">
        <ele>85.7</ele>
        <time>2015-04-27T18:30:27.935Z</time>
      </trkpt>
      <trkpt lat="48.84295" lon="2.35517">
        <ele>85.6</ele>
        <time>2015-04-27T18:30:28.895Z</time>
      </trkpt>
      <trkpt lat="48.84289" lon="2.3552">
        <ele>85.3</ele>
        <time>2015-04-27T18:30:29.861Z</time>
      </trkpt>
      <trkpt lat="48.84283" lon="2.35522">
        <ele>85.3</ele>
        <time>2015-04-27T18:30:30.890Z</time>
      </trkpt>
      <trkpt lat="48.84277" lon="2.35524">
        <ele>85.3</ele>
        <time>2015-04-27T18:30:31.900Z</time>
      </trkpt>
      <trkpt lat="48.84272" lon="2.35526">
        <ele>85.5</ele>
        <time>2015-04-27T18:30:32.921Z</time>
      </trkpt>
      <trkpt lat="48.84265" lon="2.35529">
        <ele>85.6</ele>
        <time>2015-04-27T18:30:33.927Z</time>
      </trkpt>
      <trkpt lat="48.84259" lon="2.35532">
        <ele>85.7</ele>
        <time>2015-04-27T18:30:34.943Z</time>
      </trkpt>
      <trkpt lat="48.84253" lon="2.35534">
        <ele>85.8</ele>
        <time>2015-04-27T18:30:35.964Z</time>
      </trkpt>
      <trkpt lat="48.84132" lon="2.35592">
        <ele>86</ele>
        <time>2015-04-27T18:30:59.909Z</time>
      </trkpt>
      <trkpt lat="48.84112" lon="2.35595">
        <ele>86.2</ele>
        <time>2015-04-27T18:31:09.070Z</time>
      </trkpt>
      <trkpt lat="48.84105" lon="2.35598">
        <ele>86.2</ele>
        <time>2015-04-27T18:31:10.862Z</time>
      </trkpt>
      <trkpt lat="48.84102" lon="2.35599">
        <ele>86.2</ele>
        <time>2015-04-27T18:31:11.901Z</time>
      </trkpt>
      <trkpt lat="48.84097" lon="2.35598">
        <ele>86.2</ele>
        <time>2015-04-27T18:31:12.939Z</time>
      </trkpt>
      <trkpt lat="48.84092" lon="2.356">
        <ele>86.1</ele>
        <time>2015-04-27T18:31:13.943Z</time>
      </trkpt>
      <trkpt lat="48.84086" lon="2.35602">
        <ele>86</ele>
        <time>2015-04-27T18:31:14.864Z</time>
      </trkpt>
      <trkpt lat="48.84081" lon="2.35603">
        <ele>86</ele>
        <time>2015-04-27T18:31:15.904Z</time>
      </trkpt>
      <trkpt lat="48.84076" lon="2.35604">
        <ele>86.1</ele>
        <time>2015-04-27T18:31:16.927Z</time>
      </trkpt>
      <trkpt lat="48.84071" lon="2.35604">
        <ele>86.1</ele>
        <time>2015-04-27T18:31:17.935Z</time>
      </trkpt>
      <trkpt lat="48.84061" lon="2.35606">
        <ele>86.2</ele>
        <time>2015-04-27T18:31:19.870Z</time>
      </trkpt>
      <trkpt lat="48.84053" lon="2.35612">
        <ele>86.3</ele>
        <time>2015-04-27T18:31:21.897Z</time>
      </trkpt>
      <trkpt lat="48.84049" lon="2.35615">
        <ele>86.3</ele>
        <time>2015-04-27T18:31:23.101Z</time>
      </trkpt>
      <trkpt lat="48.84044" lon="2.35617">
        <ele>86.5</ele>
        <time>2015-04-27T18:31:23.869Z</time>
      </trkpt>
      <trkpt lat="48.84039" lon="2.35619">
        <ele>86.7</ele>
        <time>2015-04-27T18:31:24.880Z</time>
      </trkpt>
      <trkpt lat="48.84029" lon="2.35624">
        <ele>86.9</ele>
        <time>2015-04-27T18:31:26.907Z</time>
      </trkpt>
      <trkpt lat="48.84024" lon="2.35626">
        <ele>87.1</ele>
        <time>2015-04-27T18:31:27.912Z</time>
      </trkpt>
      <trkpt lat="48.84019" lon="2.35629">
        <ele>87.2</ele>
        <time>2015-04-27T18:31:28.918Z</time>
      </trkpt>
      <trkpt lat="48.84014" lon="2.3563">
        <ele>87.3</ele>
        <time>2015-04-27T18:31:29.935Z</time>
      </trkpt>
      <trkpt lat="48.8401" lon="2.35631">
        <ele>87.3</ele>
        <time>2015-04-27T18:31:30.941Z</time>
      </trkpt>
      <trkpt lat="48.84003" lon="2.3563">
        <ele>87.2</ele>
        <time>2015-04-27T18:31:31.966Z</time>
      </trkpt>
      <trkpt lat="48.83998" lon="2.35631">
        <ele>87.3</ele>
        <time>2015-04-27T18:31:32.958Z</time>
      </trkpt>
      <trkpt lat="48.83992" lon="2.35632">
        <ele>87.1</ele>
        <time>2015-04-27T18:31:33.971Z</time>
      </trkpt>
      <trkpt lat="48.83987" lon="2.35633">
        <ele>87.1</ele>
        <time>2015-04-27T18:31:34.860Z</time>
      </trkpt>
      <trkpt lat="48.83979" lon="2.35635">
        <ele>87.2</ele>
        <time>2015-04-27T18:31:36.900Z</time>
      </trkpt>
      <trkpt lat="48.83977" lon="2.35637">
        <ele>87.2</ele>
        <time>2015-04-27T18:31:37.974Z</time>
      </trkpt>
      <trkpt lat="48.83976" lon="2.3565">
        <ele>87.5</ele>
        <time>2015-04-27T18:31:42.914Z</time>
      </trkpt>
      <trkpt lat="48.83976" lon="2.35654">
        <ele>87.7</ele>
        <time>2015-04-27T18:31:43.978Z</time>
      </trkpt>
      <trkpt lat="48.83978" lon="2.35666">
        <ele>88.1</ele>
        <time>2015-04-27T18:31:46.896Z</time>
      </trkpt>
      <trkpt lat="48.83978" lon="2.3567">
        <ele>88.2</ele>
        <time>2015-04-27T18:31:47.901Z</time>
      </trkpt>
      <trkpt lat="48.83981" lon="2.35682">
        <ele>88.4</ele>
        <time>2015-04-27T18:31:50.845Z</time>
      </trkpt>
      <trkpt lat="48.83982" lon="2.35686">
        <ele>88.4</ele>
        <time>2015-04-27T18:31:51.890Z</time>
      </trkpt>
      <trkpt lat="48.83984" lon="2.35694">
        <ele>88.5</ele>
        <time>2015-04-27T18:31:53.956Z</time>
      </trkpt>
      <trkpt lat="48.83986" lon="2.35699">
        <ele>88.6</ele>
        <time>2015-04-27T18:31:54.853Z</time>
      </trkpt>
      <trkpt lat="48.83989" lon="2.3571">
        <ele>88.6</ele>
        <time>2015-04-27T18:31:56.864Z</time>
      </trkpt>
      <trkpt lat="48.83991" lon="2.35715">
        <ele>88.6</ele>
        <time>2015-04-27T18:31:57.902Z</time>
      </trkpt>
      <trkpt lat="48.83997" lon="2.35763">
        <ele>89.1</ele>
        <time>2015-04-27T18:32:04.844Z</time>
      </trkpt>
      <trkpt lat="48.83998" lon="2.35772">
        <ele>89.3</ele>
        <time>2015-04-27T18:32:05.867Z</time>
      </trkpt>
      <trkpt lat="48.83999" lon="2.3578">
        <ele>89.4</ele>
        <time>2015-04-27T18:32:06.877Z</time>
      </trkpt>
      <trkpt lat="48.84" lon="2.35788">
        <ele>89.5</ele>
        <time>2015-04-27T18:32:08.595Z</time>
      </trkpt>
      <trkpt lat="48.84002" lon="2.35796">
        <ele>89.7</ele>
        <time>2015-04-27T18:32:08.884Z</time>
      </trkpt>
      <trkpt lat="48.84003" lon="2.35804">
        <ele>89.8</ele>
        <time>2015-04-27T18:32:09.907Z</time>
      </trkpt>
      <trkpt lat="48.84004" lon="2.35811">
        <ele>89.9</ele>
        <time>2015-04-27T18:32:10.912Z</time>
      </trkpt>
      <trkpt lat="48.84005" lon="2.35819">
        <ele>90.1</ele>
        <time>2015-04-27T18:32:11.932Z</time>
      </trkpt>
      <trkpt lat="48.84006" lon="2.35827">
        <ele>90.3</ele>
        <time>2015-04-27T18:32:12.944Z</time>
      </trkpt>
      <trkpt lat="48.84008" lon="2.35836">
        <ele>90.5</ele>
        <time>2015-04-27T18:32:13.865Z</time>
      </trkpt>
      <trkpt lat="48.84009" lon="2.35846">
        <ele>90.7</ele>
        <time>2015-04-27T18:32:14.880Z</time>
      </trkpt>
      <trkpt lat="48.84012" lon="2.35855">
        <ele>91</ele>
        <time>2015-04-27T18:32:15.928Z</time>
      </trkpt>
      <trkpt lat="48.84015" lon="2.35862">
        <ele>91</ele>
        <time>2015-04-27T18:32:16.874Z</time>
      </trkpt>
      <trkpt lat="48.84018" lon="2.35868">
        <ele>91</ele>
        <time>2015-04-27T18:32:17.882Z</time>
      </trkpt>
      <trkpt lat="48.84021" lon="2.35875">
        <ele>91</ele>
        <time>2015-04-27T18:32:18.914Z</time>
      </trkpt>
      <trkpt lat="48.84023" lon="2.35882">
        <ele>91</ele>
        <time>2015-04-27T18:32:19.938Z</time>
      </trkpt>
      <trkpt lat="48.84024" lon="2.35888">
        <ele>90.9</ele>
        <time>2015-04-27T18:32:20.842Z</time>
      </trkpt>
      <trkpt lat="48.84026" lon="2.35894">
        <ele>91</ele>
        <time>2015-04-27T18:32:21.911Z</time>
      </trkpt>
      <trkpt lat="48.84028" lon="2.35901">
        <ele>91</ele>
        <time>2015-04-27T18:32:22.931Z</time>
      </trkpt>
      <trkpt lat="48.84029" lon="2.35908">
        <ele>90.9</ele>
        <time>2015-04-27T18:32:23.962Z</time>
      </trkpt>
      <trkpt lat="48.84031" lon="2.35916">
        <ele>90.9</ele>
        <time>2015-04-27T18:32:24.848Z</time>
      </trkpt>
      <trkpt lat="48.84036" lon="2.35927">
        <ele>90.9</ele>
        <time>2015-04-27T18:32:26.869Z</time>
      </trkpt>
      <trkpt lat="48.84037" lon="2.35932">
        <ele>90.9</ele>
        <time>2015-04-27T18:32:27.925Z</time>
      </trkpt>
      <trkpt lat="48.84037" lon="2.35947">
        <ele>91.2</ele>
        <time>2015-04-27T18:32:29.891Z</time>
      </trkpt>
      <trkpt lat="48.84038" lon="2.35955">
        <ele>91.3</ele>
        <time>2015-04-27T18:32:30.909Z</time>
      </trkpt>
      <trkpt lat="48.84039" lon="2.35962">
        <ele>91.4</ele>
        <time>2015-04-27T18:32:31.910Z</time>
      </trkpt>
      <trkpt lat="48.84039" lon="2.35969">
        <ele>91.5</ele>
        <time>2015-04-27T18:32:32.923Z</time>
      </trkpt>
      <trkpt lat="48.84039" lon="2.35976">
        <ele>91.5</ele>
        <time>2015-04-27T18:32:33.927Z</time>
      </trkpt>
      <trkpt lat="48.84039" lon="2.3599">
        <ele>91.7</ele>
        <time>2015-04-27T18:32:35.840Z</time>
      </trkpt>
      <trkpt lat="48.84039" lon="2.35996">
        <ele>91.8</ele>
        <time>2015-04-27T18:32:36.895Z</time>
      </trkpt>
      <trkpt lat="48.8404" lon="2.36009">
        <ele>91.9</ele>
        <time>2015-04-27T18:32:38.923Z</time>
      </trkpt>
      <trkpt lat="48.84041" lon="2.36017">
        <ele>92</ele>
        <time>2015-04-27T18:32:39.922Z</time>
      </trkpt>
      <trkpt lat="48.84042" lon="2.36026">
        <ele>92.1</ele>
        <time>2015-04-27T18:32:40.947Z</time>
      </trkpt>
      <trkpt lat="48.84043" lon="2.36035">
        <ele>92.1</ele>
        <time>2015-04-27T18:32:41.857Z</time>
      </trkpt>
      <trkpt lat="48.84043" lon="2.36045">
        <ele>92.3</ele>
        <time>2015-04-27T18:32:42.862Z</time>
      </trkpt>
      <trkpt lat="48.84043" lon="2.36054">
        <ele>92.5</ele>
        <time>2015-04-27T18:32:43.879Z</time>
      </trkpt>
      <trkpt lat="48.84044" lon="2.36062">
        <ele>92.6</ele>
        <time>2015-04-27T18:32:44.900Z</time>
      </trkpt>
      <trkpt lat="48.84045" lon="2.36071">
        <ele>92.7</ele>
        <time>2015-04-27T18:32:45.932Z</time>
      </trkpt>
      <trkpt lat="48.84045" lon="2.36079">
        <ele>92.8</ele>
        <time>2015-04-27T18:32:46.920Z</time>
      </trkpt>
      <trkpt lat="48.84046" lon="2.36087">
        <ele>92.9</ele>
        <time>2015-04-27T18:32:47.932Z</time>
      </trkpt>
      <trkpt lat="48.84046" lon="2.36096">
        <ele>92.9</ele>
        <time>2015-04-27T18:32:49.172Z</time>
      </trkpt>
      <trkpt lat="48.84044" lon="2.36104">
        <ele>92.5</ele>
        <time>2015-04-27T18:32:49.858Z</time>
      </trkpt>
      <trkpt lat="48.84041" lon="2.36112">
        <ele>91.7</ele>
        <time>2015-04-27T18:32:50.873Z</time>
      </trkpt>
      <trkpt lat="48.84038" lon="2.36119">
        <ele>90.9</ele>
        <time>2015-04-27T18:32:51.904Z</time>
      </trkpt>
      <trkpt lat="48.84036" lon="2.36125">
        <ele>90.2</ele>
        <time>2015-04-27T18:32:52.920Z</time>
      </trkpt>
      <trkpt lat="48.84036" lon="2.36132">
        <ele>89</ele>
        <time>2015-04-27T18:32:53.937Z</time>
      </trkpt>
      <trkpt lat="48.84035" lon="2.3614">
        <ele>88</ele>
        <time>2015-04-27T18:32:54.946Z</time>
      </trkpt>
      <trkpt lat="48.84034" lon="2.36147">
        <ele>87.2</ele>
        <time>2015-04-27T18:32:55.954Z</time>
      </trkpt>
      <trkpt lat="48.84033" lon="2.36158">
        <ele>86</ele>
        <time>2015-04-27T18:32:57.972Z</time>
      </trkpt>
      <trkpt lat="48.84032" lon="2.36162">
        <ele>85</ele>
        <time>2015-04-27T18:32:58.894Z</time>
      </trkpt>
      <trkpt lat="48.84032" lon="2.36168">
        <ele>84.2</ele>
        <time>2015-04-27T18:32:59.457Z</time>
      </trkpt>
      <trkpt lat="48.84032" lon="2.36171">
        <ele>84.4</ele>
        <time>2015-04-27T18:33:02.958Z</time>
      </trkpt>
      <trkpt lat="48.84033" lon="2.36172">
        <ele>84.3</ele>
        <time>2015-04-27T18:33:03.928Z</time>
      </trkpt>
      <trkpt lat="48.84034" lon="2.36174">
        <ele>84.3</ele>
        <time>2015-04-27T18:33:04.945Z</time>
      </trkpt>
      <trkpt lat="48.84034" lon="2.36176">
        <ele>84.4</ele>
        <time>2015-04-27T18:33:06.196Z</time>
      </trkpt>
      <trkpt lat="48.84034" lon="2.36176">
        <ele>84.3</ele>
        <time>2015-04-27T18:33:10.886Z</time>
      </trkpt>
      <trkpt lat="48.84035" lon="2.36181">
        <ele>84</ele>
        <time>2015-04-27T18:33:11.920Z</time>
      </trkpt>
      <trkpt lat="48.84035" lon="2.36185">
        <ele>85.4</ele>
        <time>2015-04-27T18:33:31.937Z</time>
      </trkpt>
      <trkpt lat="48.84035" lon="2.36185">
        <ele>85.3</ele>
        <time>2015-04-27T18:33:32.949Z</time>
      </trkpt>
      <trkpt lat="48.84034" lon="2.36186">
        <ele>84.9</ele>
        <time>2015-04-27T18:33:37.894Z</time>
      </trkpt>
      <trkpt lat="48.84033" lon="2.36186">
        <ele>84.6</ele>
        <time>2015-04-27T18:33:38.929Z</time>
      </trkpt>
      <trkpt lat="48.84032" lon="2.36186">
        <ele>84.9</ele>
        <time>2015-04-27T18:33:40.853Z</time>
      </trkpt>
      <trkpt lat="48.84032" lon="2.36187">
        <ele>85</ele>
        <time>2015-04-27T18:33:41.879Z</time>
      </trkpt>
      <trkpt lat="48.84032" lon="2.36188">
        <ele>86.4</ele>
        <time>2015-04-27T18:33:45.698Z</time>
      </trkpt>
      <trkpt lat="48.84031" lon="2.3619">
        <ele>86.4</ele>
        <time>2015-04-27T18:33:45.890Z</time>
      </trkpt>
      <trkpt lat="48.84023" lon="2.36187">
        <ele>86.9</ele>
        <time>2015-04-27T18:33:50.864Z</time>
      </trkpt>
      <trkpt lat="48.84021" lon="2.36186">
        <ele>86.8</ele>
        <time>2015-04-27T18:33:51.939Z</time>
      </trkpt>
      <trkpt lat="48.84013" lon="2.36182">
        <ele>87</ele>
        <time>2015-04-27T18:33:55.746Z</time>
      </trkpt>
      <trkpt lat="48.84011" lon="2.3618">
        <ele>86.9</ele>
        <time>2015-04-27T18:33:55.946Z</time>
      </trkpt>
      <trkpt lat="48.84005" lon="2.36172">
        <ele>86.8</ele>
        <time>2015-04-27T18:33:58.901Z</time>
      </trkpt>
      <trkpt lat="48.84004" lon="2.3617">
        <ele>86.8</ele>
        <time>2015-04-27T18:33:59.912Z</time>
      </trkpt>
      <trkpt lat="48.83998" lon="2.3616">
        <ele>86.7</ele>
        <time>2015-04-27T18:34:05.928Z</time>
      </trkpt>
      <trkpt lat="48.83998" lon="2.36158">
        <ele>86.7</ele>
        <time>2015-04-27T18:34:05.977Z</time>
      </trkpt>
      <trkpt lat="48.8399" lon="2.36158">
        <ele>87</ele>
        <time>2015-04-27T18:34:09.936Z</time>
      </trkpt>
      <trkpt lat="48.83987" lon="2.36157">
        <ele>86.9</ele>
        <time>2015-04-27T18:34:10.982Z</time>
      </trkpt>
      <trkpt lat="48.83981" lon="2.36154">
        <ele>86.9</ele>
        <time>2015-04-27T18:34:12.925Z</time>
      </trkpt>
      <trkpt lat="48.83977" lon="2.36152">
        <ele>86.9</ele>
        <time>2015-04-27T18:34:13.978Z</time>
      </trkpt>
      <trkpt lat="48.83969" lon="2.36146">
        <ele>86.8</ele>
        <time>2015-04-27T18:34:16.049Z</time>
      </trkpt>
      <trkpt lat="48.83965" lon="2.36143">
        <ele>86.8</ele>
        <time>2015-04-27T18:34:17.059Z</time>
      </trkpt>
      <trkpt lat="48.8396" lon="2.3614">
        <ele>86.9</ele>
        <time>2015-04-27T18:34:17.867Z</time>
      </trkpt>
      <trkpt lat="48.83957" lon="2.36136">
        <ele>86.9</ele>
        <time>2015-04-27T18:34:18.976Z</time>
      </trkpt>
      <trkpt lat="48.83953" lon="2.36133">
        <ele>87.1</ele>
        <time>2015-04-27T18:34:20.034Z</time>
      </trkpt>
      <trkpt lat="48.83949" lon="2.36129">
        <ele>87.1</ele>
        <time>2015-04-27T18:34:20.897Z</time>
      </trkpt>
      <trkpt lat="48.83945" lon="2.36126">
        <ele>87.2</ele>
        <time>2015-04-27T18:34:21.946Z</time>
      </trkpt>
      <trkpt lat="48.8394" lon="2.36123">
        <ele>87.2</ele>
        <time>2015-04-27T18:34:22.952Z</time>
      </trkpt>
      <trkpt lat="48.83935" lon="2.36119">
        <ele>87.2</ele>
        <time>2015-04-27T18:34:23.991Z</time>
      </trkpt>
      <trkpt lat="48.83931" lon="2.36116">
        <ele>87.2</ele>
        <time>2015-04-27T18:34:24.937Z</time>
      </trkpt>
      <trkpt lat="48.83927" lon="2.36112">
        <ele>87.2</ele>
        <time>2015-04-27T18:34:26.097Z</time>
      </trkpt>
      <trkpt lat="48.8392" lon="2.36107">
        <ele>87.7</ele>
        <time>2015-04-27T18:34:26.976Z</time>
      </trkpt>
      <trkpt lat="48.83915" lon="2.36103">
        <ele>87.7</ele>
        <time>2015-04-27T18:34:27.941Z</time>
      </trkpt>
      <trkpt lat="48.8391" lon="2.36098">
        <ele>87.9</ele>
        <time>2015-04-27T18:34:28.952Z</time>
      </trkpt>
      <trkpt lat="48.83904" lon="2.36093">
        <ele>88.4</ele>
        <time>2015-04-27T18:34:29.890Z</time>
      </trkpt>
      <trkpt lat="48.83897" lon="2.36088">
        <ele>88.3</ele>
        <time>2015-04-27T18:34:30.954Z</time>
      </trkpt>
      <trkpt lat="48.83891" lon="2.36084">
        <ele>88.3</ele>
        <time>2015-04-27T18:34:31.888Z</time>
      </trkpt>
      <trkpt lat="48.83886" lon="2.36078">
        <ele>88.5</ele>
        <time>2015-04-27T18:34:32.898Z</time>
      </trkpt>
      <trkpt lat="48.8388" lon="2.36074">
        <ele>88.8</ele>
        <time>2015-04-27T18:34:33.934Z</time>
      </trkpt>
      <trkpt lat="48.83875" lon="2.3607">
        <ele>88.9</ele>
        <time>2015-04-27T18:34:34.952Z</time>
      </trkpt>
      <trkpt lat="48.8387" lon="2.36067">
        <ele>89</ele>
        <time>2015-04-27T18:34:35.879Z</time>
      </trkpt>
      <trkpt lat="48.83864" lon="2.36064">
        <ele>89.1</ele>
        <time>2015-04-27T18:34:36.906Z</time>
      </trkpt>
      <trkpt lat="48.83859" lon="2.3606">
        <ele>89.2</ele>
        <time>2015-04-27T18:34:37.852Z</time>
      </trkpt>
      <trkpt lat="48.83854" lon="2.36056">
        <ele>89.4</ele>
        <time>2015-04-27T18:34:38.858Z</time>
      </trkpt>
      <trkpt lat="48.83849" lon="2.36052">
        <ele>89.4</ele>
        <time>2015-04-27T18:34:39.981Z</time>
      </trkpt>
      <trkpt lat="48.83844" lon="2.36049">
        <ele>89.6</ele>
        <time>2015-04-27T18:34:40.883Z</time>
      </trkpt>
      <trkpt lat="48.83839" lon="2.36045">
        <ele>89.9</ele>
        <time>2015-04-27T18:34:41.896Z</time>
      </trkpt>
      <trkpt lat="48.83835" lon="2.36041">
        <ele>90</ele>
        <time>2015-04-27T18:34:42.912Z</time>
      </trkpt>
      <trkpt lat="48.8383" lon="2.36037">
        <ele>90.1</ele>
        <time>2015-04-27T18:34:43.922Z</time>
      </trkpt>
      <trkpt lat="48.83824" lon="2.36034">
        <ele>90.2</ele>
        <time>2015-04-27T18:34:44.962Z</time>
      </trkpt>
      <trkpt lat="48.83819" lon="2.3603">
        <ele>90.4</ele>
        <time>2015-04-27T18:34:45.976Z</time>
      </trkpt>
      <trkpt lat="48.83814" lon="2.36026">
        <ele>90.5</ele>
        <time>2015-04-27T18:34:46.887Z</time>
      </trkpt>
      <trkpt lat="48.83808" lon="2.36022">
        <ele>90.7</ele>
        <time>2015-04-27T18:34:47.889Z</time>
      </trkpt>
      <trkpt lat="48.83803" lon="2.36017">
        <ele>90.7</ele>
        <time>2015-04-27T18:34:48.897Z</time>
      </trkpt>
      <trkpt lat="48.83797" lon="2.36014">
        <ele>90.8</ele>
        <time>2015-04-27T18:34:49.929Z</time>
      </trkpt>
      <trkpt lat="48.83792" lon="2.3601">
        <ele>90.9</ele>
        <time>2015-04-27T18:34:50.942Z</time>
      </trkpt>
      <trkpt lat="48.83786" lon="2.36007">
        <ele>90.9</ele>
        <time>2015-04-27T18:34:51.963Z</time>
      </trkpt>
      <trkpt lat="48.83781" lon="2.36003">
        <ele>90.9</ele>
        <time>2015-04-27T18:34:52.859Z</time>
      </trkpt>
      <trkpt lat="48.83776" lon="2.35999">
        <ele>90.9</ele>
        <time>2015-04-27T18:34:53.882Z</time>
      </trkpt>
      <trkpt lat="48.8377" lon="2.35995">
        <ele>90.9</ele>
        <time>2015-04-27T18:34:54.893Z</time>
      </trkpt>
      <trkpt lat="48.83765" lon="2.3599">
        <ele>91</ele>
        <time>2015-04-27T18:34:55.915Z</time>
      </trkpt>
      <trkpt lat="48.8376" lon="2.35986">
        <ele>91</ele>
        <time>2015-04-27T18:34:56.937Z</time>
      </trkpt>
      <trkpt lat="48.83709" lon="2.35958">
        <ele>90.7</ele>
        <time>2015-04-27T18:35:07.900Z</time>
      </trkpt>
      <trkpt lat="48.83703" lon="2.35954">
        <ele>90.9</ele>
        <time>2015-04-27T18:35:09.941Z</time>
      </trkpt>
      <trkpt lat="48.837" lon="2.35952">
        <ele>91</ele>
        <time>2015-04-27T18:35:10.892Z</time>
      </trkpt>
      <trkpt lat="48.83691" lon="2.35949">
        <ele>92.2</ele>
        <time>2015-04-27T18:35:12.873Z</time>
      </trkpt>
      <trkpt lat="48.83688" lon="2.35947">
        <ele>92.4</ele>
        <time>2015-04-27T18:35:13.933Z</time>
      </trkpt>
      <trkpt lat="48.83683" lon="2.35943">
        <ele>92.6</ele>
        <time>2015-04-27T18:35:15.893Z</time>
      </trkpt>
      <trkpt lat="48.8368" lon="2.35941">
        <ele>92.8</ele>
        <time>2015-04-27T18:35:16.894Z</time>
      </trkpt>
      <trkpt lat="48.83674" lon="2.35938">
        <ele>93.7</ele>
        <time>2015-04-27T18:35:19.911Z</time>
      </trkpt>
      <trkpt lat="48.83672" lon="2.35936">
        <ele>94</ele>
        <time>2015-04-27T18:35:20.926Z</time>
      </trkpt>
      <trkpt lat="48.83665" lon="2.35932">
        <ele>95.4</ele>
        <time>2015-04-27T18:35:24.919Z</time>
      </trkpt>
      <trkpt lat="48.83663" lon="2.35931">
        <ele>95.8</ele>
        <time>2015-04-27T18:35:25.929Z</time>
      </trkpt>
      <trkpt lat="48.83656" lon="2.35925">
        <ele>97.3</ele>
        <time>2015-04-27T18:35:29.963Z</time>
      </trkpt>
      <trkpt lat="48.83654" lon="2.35925">
        <ele>97.7</ele>
        <time>2015-04-27T18:35:30.974Z</time>
      </trkpt>
      <trkpt lat="48.83646" lon="2.35919">
        <ele>98.8</ele>
        <time>2015-04-27T18:35:36.866Z</time>
      </trkpt>
      <trkpt lat="48.83645" lon="2.35919">
        <ele>99</ele>
        <time>2015-04-27T18:35:37.882Z</time>
      </trkpt>
      <trkpt lat="48.83643" lon="2.35918">
        <ele>99.7</ele>
        <time>2015-04-27T18:35:39.924Z</time>
      </trkpt>
      <trkpt lat="48.83643" lon="2.35919">
        <ele>100</ele>
        <time>2015-04-27T18:35:40.901Z</time>
      </trkpt>
      <trkpt lat="48.83643" lon="2.35919">
        <ele>100.3</ele>
        <time>2015-04-27T18:35:43.917Z</time>
      </trkpt>
      <trkpt lat="48.83643" lon="2.35922">
        <ele>100.9</ele>
        <time>2015-04-27T18:35:44.939Z</time>
      </trkpt>
      <trkpt lat="48.83641" lon="2.35935">
        <ele>102.5</ele>
        <time>2015-04-27T18:35:52.028Z</time>
      </trkpt>
      <trkpt lat="48.83641" lon="2.35937">
        <ele>102.7</ele>
        <time>2015-04-27T18:35:52.950Z</time>
      </trkpt>
      <trkpt lat="48.83638" lon="2.35949">
        <ele>104.2</ele>
        <time>2015-04-27T18:35:59.930Z</time>
      </trkpt>
      <trkpt lat="48.83637" lon="2.3595">
        <ele>104.2</ele>
        <time>2015-04-27T18:36:00.962Z</time>
      </trkpt>
      <trkpt lat="48.83629" lon="2.35957">
        <ele>104.4</ele>
        <time>2015-04-27T18:36:06.877Z</time>
      </trkpt>
      <trkpt lat="48.83627" lon="2.35958">
        <ele>104.4</ele>
        <time>2015-04-27T18:36:08.080Z</time>
      </trkpt>
      <trkpt lat="48.8362" lon="2.35962">
        <ele>104.3</ele>
        <time>2015-04-27T18:36:10.943Z</time>
      </trkpt>
      <trkpt lat="48.83617" lon="2.35964">
        <ele>104.3</ele>
        <time>2015-04-27T18:36:11.950Z</time>
      </trkpt>
      <trkpt lat="48.8361" lon="2.35968">
        <ele>104.5</ele>
        <time>2015-04-27T18:36:13.919Z</time>
      </trkpt>
      <trkpt lat="48.83607" lon="2.3597">
        <ele>104.6</ele>
        <time>2015-04-27T18:36:14.947Z</time>
      </trkpt>
      <trkpt lat="48.836" lon="2.35976">
        <ele>105</ele>
        <time>2015-04-27T18:36:16.917Z</time>
      </trkpt>
      <trkpt lat="48.83596" lon="2.35979">
        <ele>105.1</ele>
        <time>2015-04-27T18:36:17.932Z</time>
      </trkpt>
      <trkpt lat="48.83592" lon="2.35987">
        <ele>105.4</ele>
        <time>2015-04-27T18:36:19.913Z</time>
      </trkpt>
      <trkpt lat="48.8359" lon="2.35992">
        <ele>105.6</ele>
        <time>2015-04-27T18:36:20.865Z</time>
      </trkpt>
      <trkpt lat="48.83589" lon="2.36003">
        <ele>106</ele>
        <time>2015-04-27T18:36:22.919Z</time>
      </trkpt>
      <trkpt lat="48.83589" lon="2.3601">
        <ele>106.2</ele>
        <time>2015-04-27T18:36:23.885Z</time>
      </trkpt>
      <trkpt lat="48.83586" lon="2.36022">
        <ele>106.5</ele>
        <time>2015-04-27T18:36:25.921Z</time>
      </trkpt>
      <trkpt lat="48.83583" lon="2.36028">
        <ele>106.4</ele>
        <time>2015-04-27T18:36:26.952Z</time>
      </trkpt>
      <trkpt lat="48.83579" lon="2.36032">
        <ele>106.5</ele>
        <time>2015-04-27T18:36:27.968Z</time>
      </trkpt>
      <trkpt lat="48.83576" lon="2.36037">
        <ele>106.5</ele>
        <time>2015-04-27T18:36:28.886Z</time>
      </trkpt>
      <trkpt lat="48.83572" lon="2.36042">
        <ele>106.5</ele>
        <time>2015-04-27T18:36:29.916Z</time>
      </trkpt>
      <trkpt lat="48.83568" lon="2.36047">
        <ele>106.6</ele>
        <time>2015-04-27T18:36:30.862Z</time>
      </trkpt>
      <trkpt lat="48.83564" lon="2.36052">
        <ele>106.5</ele>
        <time>2015-04-27T18:36:31.915Z</time>
      </trkpt>
      <trkpt lat="48.8356" lon="2.36057">
        <ele>106.5</ele>
        <time>2015-04-27T18:36:32.923Z</time>
      </trkpt>
      <trkpt lat="48.83556" lon="2.36062">
        <ele>106.4</ele>
        <time>2015-04-27T18:36:33.965Z</time>
      </trkpt>
      <trkpt lat="48.83552" lon="2.36067">
        <ele>106.2</ele>
        <time>2015-04-27T18:36:34.854Z</time>
      </trkpt>
      <trkpt lat="48.83548" lon="2.36071">
        <ele>106.3</ele>
        <time>2015-04-27T18:36:35.879Z</time>
      </trkpt>
      <trkpt lat="48.83544" lon="2.36077">
        <ele>106.3</ele>
        <time>2015-04-27T18:36:36.893Z</time>
      </trkpt>
      <trkpt lat="48.83539" lon="2.36082">
        <ele>106.2</ele>
        <time>2015-04-27T18:36:37.909Z</time>
      </trkpt>
      <trkpt lat="48.83535" lon="2.36088">
        <ele>106.3</ele>
        <time>2015-04-27T18:36:38.927Z</time>
      </trkpt>
      <trkpt lat="48.83531" lon="2.36094">
        <ele>106.2</ele>
        <time>2015-04-27T18:36:39.953Z</time>
      </trkpt>
      <trkpt lat="48.83528" lon="2.36101">
        <ele>106.2</ele>
        <time>2015-04-27T18:36:40.968Z</time>
      </trkpt>
      <trkpt lat="48.83525" lon="2.36108">
        <ele>106.2</ele>
        <time>2015-04-27T18:36:41.883Z</time>
      </trkpt>
      <trkpt lat="48.83522" lon="2.36116">
        <ele>106.1</ele>
        <time>2015-04-27T18:36:42.888Z</time>
      </trkpt>
      <trkpt lat="48.83519" lon="2.36124">
        <ele>106.1</ele>
        <time>2015-04-27T18:36:43.908Z</time>
      </trkpt>
      <trkpt lat="48.83515" lon="2.36132">
        <ele>105.7</ele>
        <time>2015-04-27T18:36:44.917Z</time>
      </trkpt>
      <trkpt lat="48.83511" lon="2.3614">
        <ele>105.5</ele>
        <time>2015-04-27T18:36:45.916Z</time>
      </trkpt>
      <trkpt lat="48.83506" lon="2.36148">
        <ele>105.4</ele>
        <time>2015-04-27T18:36:46.920Z</time>
      </trkpt>
      <trkpt lat="48.83502" lon="2.36156">
        <ele>105.6</ele>
        <time>2015-04-27T18:36:47.928Z</time>
      </trkpt>
      <trkpt lat="48.83497" lon="2.36163">
        <ele>105.7</ele>
        <time>2015-04-27T18:36:48.936Z</time>
      </trkpt>
      <trkpt lat="48.83493" lon="2.36171">
        <ele>105.9</ele>
        <time>2015-04-27T18:36:49.936Z</time>
      </trkpt>
      <trkpt lat="48.83484" lon="2.36179">
        <ele>104.6</ele>
        <time>2015-04-27T18:36:50.945Z</time>
      </trkpt>
      <trkpt lat="48.83477" lon="2.36186">
        <ele>104</ele>
        <time>2015-04-27T18:36:51.986Z</time>
      </trkpt>
      <trkpt lat="48.8347" lon="2.36192">
        <ele>103.7</ele>
        <time>2015-04-27T18:36:52.857Z</time>
      </trkpt>
      <trkpt lat="48.83464" lon="2.36198">
        <ele>104.1</ele>
        <time>2015-04-27T18:36:53.884Z</time>
      </trkpt>
      <trkpt lat="48.83459" lon="2.36204">
        <ele>104.3</ele>
        <time>2015-04-27T18:36:54.894Z</time>
      </trkpt>
      <trkpt lat="48.83454" lon="2.36211">
        <ele>104.4</ele>
        <time>2015-04-27T18:36:55.920Z</time>
      </trkpt>
      <trkpt lat="48.83449" lon="2.36218">
        <ele>104.4</ele>
        <time>2015-04-27T18:36:56.927Z</time>
      </trkpt>
      <trkpt lat="48.83445" lon="2.36225">
        <ele>104.5</ele>
        <time>2015-04-27T18:36:58.184Z</time>
      </trkpt>
      <trkpt lat="48.8344" lon="2.36233">
        <ele>104.6</ele>
        <time>2015-04-27T18:36:58.960Z</time>
      </trkpt>
      <trkpt lat="48.83435" lon="2.3624">
        <ele>104.7</ele>
        <time>2015-04-27T18:36:59.876Z</time>
      </trkpt>
      <trkpt lat="48.8343" lon="2.36247">
        <ele>104.7</ele>
        <time>2015-04-27T18:37:00.889Z</time>
      </trkpt>
      <trkpt lat="48.83425" lon="2.36255">
        <ele>104.5</ele>
        <time>2015-04-27T18:37:01.903Z</time>
      </trkpt>
      <trkpt lat="48.8342" lon="2.36261">
        <ele>104.3</ele>
        <time>2015-04-27T18:37:02.915Z</time>
      </trkpt>
      <trkpt lat="48.83417" lon="2.36269">
        <ele>104.2</ele>
        <time>2015-04-27T18:37:03.926Z</time>
      </trkpt>
      <trkpt lat="48.83414" lon="2.36275">
        <ele>104</ele>
        <time>2015-04-27T18:37:04.938Z</time>
      </trkpt>
      <trkpt lat="48.83411" lon="2.36282">
        <ele>103.8</ele>
        <time>2015-04-27T18:37:05.868Z</time>
      </trkpt>
      <trkpt lat="48.83407" lon="2.36289">
        <ele>103.7</ele>
        <time>2015-04-27T18:37:06.901Z</time>
      </trkpt>
      <trkpt lat="48.83403" lon="2.36296">
        <ele>103.5</ele>
        <time>2015-04-27T18:37:07.938Z</time>
      </trkpt>
      <trkpt lat="48.83398" lon="2.36302">
        <ele>102.9</ele>
        <time>2015-04-27T18:37:08.944Z</time>
      </trkpt>
      <trkpt lat="48.83393" lon="2.36307">
        <ele>102.7</ele>
        <time>2015-04-27T18:37:09.987Z</time>
      </trkpt>
      <trkpt lat="48.83387" lon="2.36313">
        <ele>102.2</ele>
        <time>2015-04-27T18:37:10.980Z</time>
      </trkpt>
      <trkpt lat="48.83382" lon="2.36318">
        <ele>102</ele>
        <time>2015-04-27T18:37:11.877Z</time>
      </trkpt>
      <trkpt lat="48.83378" lon="2.36323">
        <ele>101.9</ele>
        <time>2015-04-27T18:37:12.885Z</time>
      </trkpt>
      <trkpt lat="48.83373" lon="2.36327">
        <ele>101.8</ele>
        <time>2015-04-27T18:37:13.936Z</time>
      </trkpt>
      <trkpt lat="48.8337" lon="2.36331">
        <ele>101.8</ele>
        <time>2015-04-27T18:37:14.958Z</time>
      </trkpt>
      <trkpt lat="48.83363" lon="2.36339">
        <ele>101.8</ele>
        <time>2015-04-27T18:37:16.883Z</time>
      </trkpt>
      <trkpt lat="48.83361" lon="2.36342">
        <ele>102.1</ele>
        <time>2015-04-27T18:37:17.878Z</time>
      </trkpt>
      <trkpt lat="48.83361" lon="2.36351">
        <ele>103.2</ele>
        <time>2015-04-27T18:37:22.940Z</time>
      </trkpt>
      <trkpt lat="48.83361" lon="2.36351">
        <ele>104.5</ele>
        <time>2015-04-27T18:37:23.970Z</time>
      </trkpt>
      <trkpt lat="48.83361" lon="2.36352">
        <ele>105.1</ele>
        <time>2015-04-27T18:37:28.946Z</time>
      </trkpt>
      <trkpt lat="48.8336" lon="2.3635">
        <ele>104.8</ele>
        <time>2015-04-27T18:37:29.983Z</time>
      </trkpt>
      <trkpt lat="48.83359" lon="2.36348">
        <ele>103.8</ele>
        <time>2015-04-27T18:37:30.916Z</time>
      </trkpt>
      <trkpt lat="48.83358" lon="2.36346">
        <ele>103.3</ele>
        <time>2015-04-27T18:37:31.925Z</time>
      </trkpt>
      <trkpt lat="48.83358" lon="2.36346">
        <ele>103.3</ele>
        <time>2015-04-27T18:37:37.987Z</time>
      </trkpt>
      <trkpt lat="48.83355" lon="2.36345">
        <ele>103.5</ele>
        <time>2015-04-27T18:37:38.918Z</time>
      </trkpt>
      <trkpt lat="48.8335" lon="2.36346">
        <ele>103.7</ele>
        <time>2015-04-27T18:37:40.941Z</time>
      </trkpt>
      <trkpt lat="48.83346" lon="2.36349">
        <ele>103.7</ele>
        <time>2015-04-27T18:37:41.962Z</time>
      </trkpt>
      <trkpt lat="48.83342" lon="2.36352">
        <ele>103.9</ele>
        <time>2015-04-27T18:37:42.899Z</time>
      </trkpt>
      <trkpt lat="48.83338" lon="2.36357">
        <ele>104.2</ele>
        <time>2015-04-27T18:37:43.902Z</time>
      </trkpt>
      <trkpt lat="48.83333" lon="2.36362">
        <ele>104.2</ele>
        <time>2015-04-27T18:37:44.924Z</time>
      </trkpt>
      <trkpt lat="48.83327" lon="2.36368">
        <ele>104.1</ele>
        <time>2015-04-27T18:37:45.940Z</time>
      </trkpt>
      <trkpt lat="48.83322" lon="2.36373">
        <ele>104.2</ele>
        <time>2015-04-27T18:37:46.947Z</time>
      </trkpt>
      <trkpt lat="48.83317" lon="2.36379">
        <ele>104.3</ele>
        <time>2015-04-27T18:37:47.978Z</time>
      </trkpt>
      <trkpt lat="48.83312" lon="2.36385">
        <ele>104.4</ele>
        <time>2015-04-27T18:37:48.894Z</time>
      </trkpt>
      <trkpt lat="48.83307" lon="2.36392">
        <ele>104.4</ele>
        <time>2015-04-27T18:37:49.905Z</time>
      </trkpt>
      <trkpt lat="48.83302" lon="2.36401">
        <ele>104.4</ele>
        <time>2015-04-27T18:37:50.974Z</time>
      </trkpt>
      <trkpt lat="48.83298" lon="2.36409">
        <ele>104.2</ele>
        <time>2015-04-27T18:37:52.060Z</time>
      </trkpt>
      <trkpt lat="48.83293" lon="2.36416">
        <ele>104.1</ele>
        <time>2015-04-27T18:37:52.881Z</time>
      </trkpt>
      <trkpt lat="48.83289" lon="2.36421">
        <ele>104.1</ele>
        <time>2015-04-27T18:37:53.895Z</time>
      </trkpt>
      <trkpt lat="48.83284" lon="2.36428">
        <ele>104.2</ele>
        <time>2015-04-27T18:37:54.926Z</time>
      </trkpt>
      <trkpt lat="48.83279" lon="2.36436">
        <ele>104.3</ele>
        <time>2015-04-27T18:37:55.931Z</time>
      </trkpt>
      <trkpt lat="48.83275" lon="2.36446">
        <ele>104.3</ele>
        <time>2015-04-27T18:37:56.950Z</time>
      </trkpt>
      <trkpt lat="48.8327" lon="2.36454">
        <ele>104.3</ele>
        <time>2015-04-27T18:37:57.977Z</time>
      </trkpt>
      <trkpt lat="48.83263" lon="2.36462">
        <ele>104.2</ele>
        <time>2015-04-27T18:37:58.894Z</time>
      </trkpt>
      <trkpt lat="48.83257" lon="2.3647">
        <ele>104</ele>
        <time>2015-04-27T18:37:59.892Z</time>
      </trkpt>
      <trkpt lat="48.83251" lon="2.36477">
        <ele>104</ele>
        <time>2015-04-27T18:38:00.935Z</time>
      </trkpt>
      <trkpt lat="48.83245" lon="2.36485">
        <ele>104.1</ele>
        <time>2015-04-27T18:38:01.958Z</time>
      </trkpt>
      <trkpt lat="48.83239" lon="2.36492">
        <ele>104.3</ele>
        <time>2015-04-27T18:38:02.973Z</time>
      </trkpt>
      <trkpt lat="48.83233" lon="2.36499">
        <ele>104.5</ele>
        <time>2015-04-27T18:38:03.981Z</time>
      </trkpt>
      <trkpt lat="48.83227" lon="2.36507">
        <ele>104.7</ele>
        <time>2015-04-27T18:38:05.001Z</time>
      </trkpt>
      <trkpt lat="48.83222" lon="2.36514">
        <ele>104.8</ele>
        <time>2015-04-27T18:38:05.874Z</time>
      </trkpt>
      <trkpt lat="48.83217" lon="2.36521">
        <ele>105</ele>
        <time>2015-04-27T18:38:06.896Z</time>
      </trkpt>
      <trkpt lat="48.83211" lon="2.36528">
        <ele>105.2</ele>
        <time>2015-04-27T18:38:07.912Z</time>
      </trkpt>
      <trkpt lat="48.83206" lon="2.36536">
        <ele>105.3</ele>
        <time>2015-04-27T18:38:08.871Z</time>
      </trkpt>
      <trkpt lat="48.83201" lon="2.36545">
        <ele>105.4</ele>
        <time>2015-04-27T18:38:09.979Z</time>
      </trkpt>
      <trkpt lat="48.83197" lon="2.36553">
        <ele>105.5</ele>
        <time>2015-04-27T18:38:10.868Z</time>
      </trkpt>
      <trkpt lat="48.83193" lon="2.3656">
        <ele>105.7</ele>
        <time>2015-04-27T18:38:11.869Z</time>
      </trkpt>
      <trkpt lat="48.8319" lon="2.36567">
        <ele>105.8</ele>
        <time>2015-04-27T18:38:12.934Z</time>
      </trkpt>
      <trkpt lat="48.83187" lon="2.36574">
        <ele>105.8</ele>
        <time>2015-04-27T18:38:13.919Z</time>
      </trkpt>
      <trkpt lat="48.83183" lon="2.3658">
        <ele>106</ele>
        <time>2015-04-27T18:38:14.875Z</time>
      </trkpt>
      <trkpt lat="48.83179" lon="2.36586">
        <ele>106</ele>
        <time>2015-04-27T18:38:15.905Z</time>
      </trkpt>
      <trkpt lat="48.83175" lon="2.36593">
        <ele>105.9</ele>
        <time>2015-04-27T18:38:16.914Z</time>
      </trkpt>
      <trkpt lat="48.83171" lon="2.36598">
        <ele>105.7</ele>
        <time>2015-04-27T18:38:17.925Z</time>
      </trkpt>
      <trkpt lat="48.83166" lon="2.36605">
        <ele>105.3</ele>
        <time>2015-04-27T18:38:18.953Z</time>
      </trkpt>
      <trkpt lat="48.83162" lon="2.36612">
        <ele>105.3</ele>
        <time>2015-04-27T18:38:19.868Z</time>
      </trkpt>
      <trkpt lat="48.83158" lon="2.36617">
        <ele>105.4</ele>
        <time>2015-04-27T18:38:20.883Z</time>
      </trkpt>
      <trkpt lat="48.83155" lon="2.36622">
        <ele>105.6</ele>
        <time>2015-04-27T18:38:21.907Z</time>
      </trkpt>
      <trkpt lat="48.83152" lon="2.36628">
        <ele>106.2</ele>
        <time>2015-04-27T18:38:22.924Z</time>
      </trkpt>
      <trkpt lat="48.83151" lon="2.36635">
        <ele>107</ele>
        <time>2015-04-27T18:38:23.936Z</time>
      </trkpt>
      <trkpt lat="48.83151" lon="2.36645">
        <ele>107.1</ele>
        <time>2015-04-27T18:38:25.962Z</time>
      </trkpt>
      <trkpt lat="48.83152" lon="2.36651">
        <ele>106.6</ele>
        <time>2015-04-27T18:38:26.975Z</time>
      </trkpt>
      <trkpt lat="48.83156" lon="2.3666">
        <ele>106.1</ele>
        <time>2015-04-27T18:38:28.889Z</time>
      </trkpt>
      <trkpt lat="48.83158" lon="2.36664">
        <ele>105.6</ele>
        <time>2015-04-27T18:38:29.900Z</time>
      </trkpt>
      <trkpt lat="48.83165" lon="2.3667">
        <ele>105.6</ele>
        <time>2015-04-27T18:38:31.931Z</time>
      </trkpt>
      <trkpt lat="48.83168" lon="2.36674">
        <ele>105.7</ele>
        <time>2015-04-27T18:38:32.964Z</time>
      </trkpt>
      <trkpt lat="48.83171" lon="2.36678">
        <ele>105.7</ele>
        <time>2015-04-27T18:38:34.014Z</time>
      </trkpt>
      <trkpt lat="48.83175" lon="2.36683">
        <ele>105.8</ele>
        <time>2015-04-27T18:38:34.890Z</time>
      </trkpt>
      <trkpt lat="48.83179" lon="2.36688">
        <ele>105.7</ele>
        <time>2015-04-27T18:38:35.895Z</time>
      </trkpt>
      <trkpt lat="48.83184" lon="2.36693">
        <ele>105.5</ele>
        <time>2015-04-27T18:38:36.905Z</time>
      </trkpt>
      <trkpt lat="48.83188" lon="2.36698">
        <ele>105.6</ele>
        <time>2015-04-27T18:38:37.920Z</time>
      </trkpt>
      <trkpt lat="48.83192" lon="2.36703">
        <ele>105.5</ele>
        <time>2015-04-27T18:38:38.928Z</time>
      </trkpt>
      <trkpt lat="48.83196" lon="2.36709">
        <ele>105.3</ele>
        <time>2015-04-27T18:38:39.943Z</time>
      </trkpt>
      <trkpt lat="48.83199" lon="2.36714">
        <ele>105.1</ele>
        <time>2015-04-27T18:38:40.953Z</time>
      </trkpt>
      <trkpt lat="48.83203" lon="2.36719">
        <ele>105.2</ele>
        <time>2015-04-27T18:38:41.874Z</time>
      </trkpt>
      <trkpt lat="48.83207" lon="2.36723">
        <ele>105.3</ele>
        <time>2015-04-27T18:38:42.881Z</time>
      </trkpt>
      <trkpt lat="48.83211" lon="2.36727">
        <ele>105.1</ele>
        <time>2015-04-27T18:38:43.883Z</time>
      </trkpt>
      <trkpt lat="48.83215" lon="2.36732">
        <ele>105</ele>
        <time>2015-04-27T18:38:44.892Z</time>
      </trkpt>
      <trkpt lat="48.83218" lon="2.36736">
        <ele>104.9</ele>
        <time>2015-04-27T18:38:45.939Z</time>
      </trkpt>
      <trkpt lat="48.83222" lon="2.36742">
        <ele>104.6</ele>
        <time>2015-04-27T18:38:46.951Z</time>
      </trkpt>
      <trkpt lat="48.83225" lon="2.36747">
        <ele>104.5</ele>
        <time>2015-04-27T18:38:48.021Z</time>
      </trkpt>
      <trkpt lat="48.83228" lon="2.36754">
        <ele>104.7</ele>
        <time>2015-04-27T18:38:48.887Z</time>
      </trkpt>
      <trkpt lat="48.8323" lon="2.36761">
        <ele>104.6</ele>
        <time>2015-04-27T18:38:49.880Z</time>
      </trkpt>
      <trkpt lat="48.83232" lon="2.36767">
        <ele>104.4</ele>
        <time>2015-04-27T18:38:50.900Z</time>
      </trkpt>
      <trkpt lat="48.83236" lon="2.36773">
        <ele>103.6</ele>
        <time>2015-04-27T18:38:51.921Z</time>
      </trkpt>
      <trkpt lat="48.83239" lon="2.36779">
        <ele>103.2</ele>
        <time>2015-04-27T18:38:52.930Z</time>
      </trkpt>
      <trkpt lat="48.83242" lon="2.36786">
        <ele>102.7</ele>
        <time>2015-04-27T18:38:53.931Z</time>
      </trkpt>
      <trkpt lat="48.83245" lon="2.36793">
        <ele>101.8</ele>
        <time>2015-04-27T18:38:54.938Z</time>
      </trkpt>
      <trkpt lat="48.83248" lon="2.36799">
        <ele>101.4</ele>
        <time>2015-04-27T18:38:55.946Z</time>
      </trkpt>
      <trkpt lat="48.83251" lon="2.36806">
        <ele>101.6</ele>
        <time>2015-04-27T18:38:56.962Z</time>
      </trkpt>
      <trkpt lat="48.83252" lon="2.36813">
        <ele>101.7</ele>
        <time>2015-04-27T18:38:57.958Z</time>
      </trkpt>
      <trkpt lat="48.83255" lon="2.36821">
        <ele>101.9</ele>
        <time>2015-04-27T18:38:58.964Z</time>
      </trkpt>
      <trkpt lat="48.83258" lon="2.36826">
        <ele>102</ele>
        <time>2015-04-27T18:38:59.882Z</time>
      </trkpt>
      <trkpt lat="48.83262" lon="2.3683">
        <ele>102.3</ele>
        <time>2015-04-27T18:39:00.896Z</time>
      </trkpt>
      <trkpt lat="48.83269" lon="2.36837">
        <ele>102.6</ele>
        <time>2015-04-27T18:39:02.942Z</time>
      </trkpt>
      <trkpt lat="48.83271" lon="2.36842">
        <ele>103</ele>
        <time>2015-04-27T18:39:03.986Z</time>
      </trkpt>
      <trkpt lat="48.83277" lon="2.36849">
        <ele>103.5</ele>
        <time>2015-04-27T18:39:05.876Z</time>
      </trkpt>
      <trkpt lat="48.83281" lon="2.36851">
        <ele>103.6</ele>
        <time>2015-04-27T18:39:06.904Z</time>
      </trkpt>
      <trkpt lat="48.83286" lon="2.36853">
        <ele>103.3</ele>
        <time>2015-04-27T18:39:07.906Z</time>
      </trkpt>
      <trkpt lat="48.83291" lon="2.36854">
        <ele>103.1</ele>
        <time>2015-04-27T18:39:08.933Z</time>
      </trkpt>
      <trkpt lat="48.83296" lon="2.36855">
        <ele>102.9</ele>
        <time>2015-04-27T18:39:09.966Z</time>
      </trkpt>
      <trkpt lat="48.83302" lon="2.36855">
        <ele>102.7</ele>
        <time>2015-04-27T18:39:10.866Z</time>
      </trkpt>
      <trkpt lat="48.83309" lon="2.36862">
        <ele>103.8</ele>
        <time>2015-04-27T18:39:12.970Z</time>
      </trkpt>
      <trkpt lat="48.83311" lon="2.36867">
        <ele>104.2</ele>
        <time>2015-04-27T18:39:13.896Z</time>
      </trkpt>
      <trkpt lat="48.83313" lon="2.36875">
        <ele>104.6</ele>
        <time>2015-04-27T18:39:14.944Z</time>
      </trkpt>
      <trkpt lat="48.83316" lon="2.36882">
        <ele>105.1</ele>
        <time>2015-04-27T18:39:15.956Z</time>
      </trkpt>
      <trkpt lat="48.8332" lon="2.36887">
        <ele>105.5</ele>
        <time>2015-04-27T18:39:16.870Z</time>
      </trkpt>
      <trkpt lat="48.83323" lon="2.36893">
        <ele>105.9</ele>
        <time>2015-04-27T18:39:17.867Z</time>
      </trkpt>
      <trkpt lat="48.83326" lon="2.36898">
        <ele>105.7</ele>
        <time>2015-04-27T18:39:18.919Z</time>
      </trkpt>
      <trkpt lat="48.8333" lon="2.36901">
        <ele>105.2</ele>
        <time>2015-04-27T18:39:19.958Z</time>
      </trkpt>
      <trkpt lat="48.83332" lon="2.36908">
        <ele>105.1</ele>
        <time>2015-04-27T18:39:20.871Z</time>
      </trkpt>
      <trkpt lat="48.83332" lon="2.36917">
        <ele>105.5</ele>
        <time>2015-04-27T18:39:21.969Z</time>
      </trkpt>
      <trkpt lat="48.83332" lon="2.36924">
        <ele>106.1</ele>
        <time>2015-04-27T18:39:22.884Z</time>
      </trkpt>
      <trkpt lat="48.83333" lon="2.36931">
        <ele>106.6</ele>
        <time>2015-04-27T18:39:23.891Z</time>
      </trkpt>
      <trkpt lat="48.83332" lon="2.36944">
        <ele>107.7</ele>
        <time>2015-04-27T18:39:25.955Z</time>
      </trkpt>
      <trkpt lat="48.83332" lon="2.3695">
        <ele>108.1</ele>
        <time>2015-04-27T18:39:26.969Z</time>
      </trkpt>
      <trkpt lat="48.83334" lon="2.36961">
        <ele>109.5</ele>
        <time>2015-04-27T18:39:28.919Z</time>
      </trkpt>
      <trkpt lat="48.83335" lon="2.36965">
        <ele>109.8</ele>
        <time>2015-04-27T18:39:29.951Z</time>
      </trkpt>
      <trkpt lat="48.83339" lon="2.36972">
        <ele>110.3</ele>
        <time>2015-04-27T18:39:31.940Z</time>
      </trkpt>
      <trkpt lat="48.83342" lon="2.36976">
        <ele>110.5</ele>
        <time>2015-04-27T18:39:32.940Z</time>
      </trkpt>
      <trkpt lat="48.83344" lon="2.36981">
        <ele>110.8</ele>
        <time>2015-04-27T18:39:33.968Z</time>
      </trkpt>
      <trkpt lat="48.83348" lon="2.36989">
        <ele>108.2</ele>
        <time>2015-04-27T18:39:34.861Z</time>
      </trkpt>
      <trkpt lat="48.83351" lon="2.36996">
        <ele>107.2</ele>
        <time>2015-04-27T18:39:35.893Z</time>
      </trkpt>
      <trkpt lat="48.83353" lon="2.37003">
        <ele>106.2</ele>
        <time>2015-04-27T18:39:36.898Z</time>
      </trkpt>
      <trkpt lat="48.83356" lon="2.37014">
        <ele>104.9</ele>
        <time>2015-04-27T18:39:38.921Z</time>
      </trkpt>
      <trkpt lat="48.83357" lon="2.3702">
        <ele>104.9</ele>
        <time>2015-04-27T18:39:39.905Z</time>
      </trkpt>
      <trkpt lat="48.83356" lon="2.37033">
        <ele>104.4</ele>
        <time>2015-04-27T18:39:42.890Z</time>
      </trkpt>
      <trkpt lat="48.83354" lon="2.37034">
        <ele>104.5</ele>
        <time>2015-04-27T18:39:43.899Z</time>
      </trkpt>
      <trkpt lat="48.83347" lon="2.37038">
        <ele>104.5</ele>
        <time>2015-04-27T18:39:46.933Z</time>
      </trkpt>
      <trkpt lat="48.83343" lon="2.3704">
        <ele>104.5</ele>
        <time>2015-04-27T18:39:47.864Z</time>
      </trkpt>
      <trkpt lat="48.83336" lon="2.37047">
        <ele>104.5</ele>
        <time>2015-04-27T18:39:49.899Z</time>
      </trkpt>
      <trkpt lat="48.83332" lon="2.37052">
        <ele>104.5</ele>
        <time>2015-04-27T18:39:50.910Z</time>
      </trkpt>
      <trkpt lat="48.83327" lon="2.3706">
        <ele>104.6</ele>
        <time>2015-04-27T18:39:52.934Z</time>
      </trkpt>
      <trkpt lat="48.83324" lon="2.37065">
        <ele>104.8</ele>
        <time>2015-04-27T18:39:53.943Z</time>
      </trkpt>
      <trkpt lat="48.8332" lon="2.37074">
        <ele>104.9</ele>
        <time>2015-04-27T18:39:55.871Z</time>
      </trkpt>
      <trkpt lat="48.83318" lon="2.37079">
        <ele>105</ele>
        <time>2015-04-27T18:39:56.862Z</time>
      </trkpt>
      <trkpt lat="48.83314" lon="2.37087">
        <ele>105.1</ele>
        <time>2015-04-27T18:39:58.900Z</time>
      </trkpt>
      <trkpt lat="48.83311" lon="2.3709">
        <ele>105.1</ele>
        <time>2015-04-27T18:39:59.932Z</time>
      </trkpt>
      <trkpt lat="48.83306" lon="2.37096">
        <ele>105.3</ele>
        <time>2015-04-27T18:40:01.951Z</time>
      </trkpt>
      <trkpt lat="48.83302" lon="2.37098">
        <ele>105.3</ele>
        <time>2015-04-27T18:40:02.881Z</time>
      </trkpt>
      <trkpt lat="48.83299" lon="2.37103">
        <ele>105</ele>
        <time>2015-04-27T18:40:03.908Z</time>
      </trkpt>
      <trkpt lat="48.83291" lon="2.37106">
        <ele>104</ele>
        <time>2015-04-27T18:40:04.906Z</time>
      </trkpt>
      <trkpt lat="48.83284" lon="2.3711">
        <ele>102.9</ele>
        <time>2015-04-27T18:40:05.867Z</time>
      </trkpt>
      <trkpt lat="48.83279" lon="2.37114">
        <ele>102.2</ele>
        <time>2015-04-27T18:40:06.875Z</time>
      </trkpt>
      <trkpt lat="48.83275" lon="2.37119">
        <ele>101.8</ele>
        <time>2015-04-27T18:40:07.903Z</time>
      </trkpt>
      <trkpt lat="48.83272" lon="2.37125">
        <ele>101.6</ele>
        <time>2015-04-27T18:40:08.907Z</time>
      </trkpt>
      <trkpt lat="48.8327" lon="2.37133">
        <ele>101.3</ele>
        <time>2015-04-27T18:40:09.913Z</time>
      </trkpt>
      <trkpt lat="48.83268" lon="2.3714">
        <ele>101.1</ele>
        <time>2015-04-27T18:40:10.915Z</time>
      </trkpt>
      <trkpt lat="48.83265" lon="2.37147">
        <ele>100.9</ele>
        <time>2015-04-27T18:40:11.920Z</time>
      </trkpt>
      <trkpt lat="48.83262" lon="2.37153">
        <ele>100.6</ele>
        <time>2015-04-27T18:40:12.936Z</time>
      </trkpt>
      <trkpt lat="48.83258" lon="2.37158">
        <ele>99.9</ele>
        <time>2015-04-27T18:40:13.857Z</time>
      </trkpt>
      <trkpt lat="48.83254" lon="2.37164">
        <ele>99.4</ele>
        <time>2015-04-27T18:40:14.864Z</time>
      </trkpt>
      <trkpt lat="48.8325" lon="2.3717">
        <ele>98.9</ele>
        <time>2015-04-27T18:40:15.888Z</time>
      </trkpt>
      <trkpt lat="48.83246" lon="2.37175">
        <ele>98.6</ele>
        <time>2015-04-27T18:40:16.892Z</time>
      </trkpt>
      <trkpt lat="48.83242" lon="2.3718">
        <ele>98.3</ele>
        <time>2015-04-27T18:40:17.915Z</time>
      </trkpt>
      <trkpt lat="48.83239" lon="2.37185">
        <ele>98</ele>
        <time>2015-04-27T18:40:18.919Z</time>
      </trkpt>
      <trkpt lat="48.83234" lon="2.3719">
        <ele>97.7</ele>
        <time>2015-04-27T18:40:19.922Z</time>
      </trkpt>
      <trkpt lat="48.83231" lon="2.37195">
        <ele>97.5</ele>
        <time>2015-04-27T18:40:20.927Z</time>
      </trkpt>
      <trkpt lat="48.83225" lon="2.37204">
        <ele>97.1</ele>
        <time>2015-04-27T18:40:22.838Z</time>
      </trkpt>
      <trkpt lat="48.83221" lon="2.37209">
        <ele>96.9</ele>
        <time>2015-04-27T18:40:23.920Z</time>
      </trkpt>
      <trkpt lat="48.83215" lon="2.37217">
        <ele>96.5</ele>
        <time>2015-04-27T18:40:25.853Z</time>
      </trkpt>
      <trkpt lat="48.83212" lon="2.37221">
        <ele>96.3</ele>
        <time>2015-04-27T18:40:26.905Z</time>
      </trkpt>
      <trkpt lat="48.83206" lon="2.37229">
        <ele>96.1</ele>
        <time>2015-04-27T18:40:28.842Z</time>
      </trkpt>
      <trkpt lat="48.83203" lon="2.37233">
        <ele>96</ele>
        <time>2015-04-27T18:40:29.935Z</time>
      </trkpt>
      <trkpt lat="48.83198" lon="2.37241">
        <ele>95.7</ele>
        <time>2015-04-27T18:40:31.865Z</time>
      </trkpt>
      <trkpt lat="48.83195" lon="2.37245">
        <ele>95.6</ele>
        <time>2015-04-27T18:40:32.977Z</time>
      </trkpt>
      <trkpt lat="48.8319" lon="2.37253">
        <ele>95.2</ele>
        <time>2015-04-27T18:40:34.866Z</time>
      </trkpt>
      <trkpt lat="48.83187" lon="2.37257">
        <ele>95.4</ele>
        <time>2015-04-27T18:40:35.970Z</time>
      </trkpt>
      <trkpt lat="48.83183" lon="2.37268">
        <ele>96.2</ele>
        <time>2015-04-27T18:40:38.011Z</time>
      </trkpt>
      <trkpt lat="48.8318" lon="2.37274">
        <ele>96.7</ele>
        <time>2015-04-27T18:40:38.920Z</time>
      </trkpt>
      <trkpt lat="48.83175" lon="2.37284">
        <ele>97.3</ele>
        <time>2015-04-27T18:40:40.969Z</time>
      </trkpt>
      <trkpt lat="48.83172" lon="2.3729">
        <ele>97.3</ele>
        <time>2015-04-27T18:40:42.019Z</time>
      </trkpt>
      <trkpt lat="48.83168" lon="2.37301">
        <ele>97.4</ele>
        <time>2015-04-27T18:40:43.930Z</time>
      </trkpt>
      <trkpt lat="48.83165" lon="2.37306">
        <ele>98</ele>
        <time>2015-04-27T18:40:44.940Z</time>
      </trkpt>
      <trkpt lat="48.83162" lon="2.37312">
        <ele>98.2</ele>
        <time>2015-04-27T18:40:45.945Z</time>
      </trkpt>
      <trkpt lat="48.83159" lon="2.37318">
        <ele>98</ele>
        <time>2015-04-27T18:40:46.974Z</time>
      </trkpt>
      <trkpt lat="48.83157" lon="2.37324">
        <ele>97.7</ele>
        <time>2015-04-27T18:40:47.901Z</time>
      </trkpt>
      <trkpt lat="48.83155" lon="2.37331">
        <ele>97.5</ele>
        <time>2015-04-27T18:40:48.907Z</time>
      </trkpt>
      <trkpt lat="48.83152" lon="2.37337">
        <ele>97.3</ele>
        <time>2015-04-27T18:40:49.929Z</time>
      </trkpt>
      <trkpt lat="48.8315" lon="2.37343">
        <ele>97.1</ele>
        <time>2015-04-27T18:40:50.935Z</time>
      </trkpt>
      <trkpt lat="48.83147" lon="2.37348">
        <ele>97</ele>
        <time>2015-04-27T18:40:51.951Z</time>
      </trkpt>
      <trkpt lat="48.83144" lon="2.37354">
        <ele>97</ele>
        <time>2015-04-27T18:40:52.968Z</time>
      </trkpt>
      <trkpt lat="48.83139" lon="2.37365">
        <ele>97</ele>
        <time>2015-04-27T18:40:54.883Z</time>
      </trkpt>
      <trkpt lat="48.83137" lon="2.3737">
        <ele>97</ele>
        <time>2015-04-27T18:40:55.883Z</time>
      </trkpt>
      <trkpt lat="48.83131" lon="2.37378">
        <ele>96.8</ele>
        <time>2015-04-27T18:40:57.903Z</time>
      </trkpt>
      <trkpt lat="48.83129" lon="2.37382">
        <ele>96.8</ele>
        <time>2015-04-27T18:40:58.915Z</time>
      </trkpt>
      <trkpt lat="48.83124" lon="2.37391">
        <ele>96.8</ele>
        <time>2015-04-27T18:41:00.939Z</time>
      </trkpt>
      <trkpt lat="48.83121" lon="2.37395">
        <ele>96.9</ele>
        <time>2015-04-27T18:41:01.945Z</time>
      </trkpt>
      <trkpt lat="48.83117" lon="2.37403">
        <ele>97.1</ele>
        <time>2015-04-27T18:41:03.994Z</time>
      </trkpt>
      <trkpt lat="48.83115" lon="2.37407">
        <ele>97.2</ele>
        <time>2015-04-27T18:41:04.897Z</time>
      </trkpt>
      <trkpt lat="48.83112" lon="2.37416">
        <ele>98.8</ele>
        <time>2015-04-27T18:41:06.922Z</time>
      </trkpt>
      <trkpt lat="48.8311" lon="2.3742">
        <ele>98.6</ele>
        <time>2015-04-27T18:41:07.934Z</time>
      </trkpt>
      <trkpt lat="48.83107" lon="2.37432">
        <ele>98.2</ele>
        <time>2015-04-27T18:41:11.915Z</time>
      </trkpt>
      <trkpt lat="48.83107" lon="2.37434">
        <ele>98.3</ele>
        <time>2015-04-27T18:41:12.961Z</time>
      </trkpt>
      <trkpt lat="48.83105" lon="2.37437">
        <ele>98.4</ele>
        <time>2015-04-27T18:41:21.936Z</time>
      </trkpt>
      <trkpt lat="48.83105" lon="2.37437">
        <ele>98.5</ele>
        <time>2015-04-27T18:41:22.957Z</time>
      </trkpt>
      <trkpt lat="48.83104" lon="2.37437">
        <ele>98.8</ele>
        <time>2015-04-27T18:41:25.931Z</time>
      </trkpt>
      <trkpt lat="48.83102" lon="2.37438">
        <ele>99.5</ele>
        <time>2015-04-27T18:41:26.931Z</time>
      </trkpt>
      <trkpt lat="48.83102" lon="2.37441">
        <ele>99.8</ele>
        <time>2015-04-27T18:41:32.950Z</time>
      </trkpt>
      <trkpt lat="48.83102" lon="2.37441">
        <ele>99.8</ele>
        <time>2015-04-27T18:41:33.949Z</time>
      </trkpt>
      <trkpt lat="48.83102" lon="2.37441">
        <ele>99.8</ele>
        <time>2015-04-27T18:41:56.975Z</time>
      </trkpt>
      <trkpt lat="48.83109" lon="2.37448">
        <ele>102.7</ele>
        <time>2015-04-27T18:41:57.989Z</time>
      </trkpt>
      <trkpt lat="48.8311" lon="2.3745">
        <ele>102.6</ele>
        <time>2015-04-27T18:41:59.913Z</time>
      </trkpt>
      <trkpt lat="48.8311" lon="2.3745">
        <ele>102.6</ele>
        <time>2015-04-27T18:42:00.924Z</time>
      </trkpt>
      <trkpt lat="48.8311" lon="2.37451">
        <ele>102.6</ele>
        <time>2015-04-27T18:42:19.040Z</time>
      </trkpt>
      <trkpt lat="48.83111" lon="2.37461">
        <ele>101.9</ele>
        <time>2015-04-27T18:42:20.042Z</time>
      </trkpt>
      <trkpt lat="48.83113" lon="2.37465">
        <ele>102.4</ele>
        <time>2015-04-27T18:42:23.935Z</time>
      </trkpt>
      <trkpt lat="48.83113" lon="2.37465">
        <ele>102.6</ele>
        <time>2015-04-27T18:42:24.929Z</time>
      </trkpt>
      <trkpt lat="48.83112" lon="2.37466">
        <ele>103</ele>
        <time>2015-04-27T18:42:25.981Z</time>
      </trkpt>
      <trkpt lat="48.83109" lon="2.37465">
        <ele>103.2</ele>
        <time>2015-04-27T18:42:29.938Z</time>
      </trkpt>
      <trkpt lat="48.83109" lon="2.37466">
        <ele>103.1</ele>
        <time>2015-04-27T18:42:30.966Z</time>
      </trkpt>
      <trkpt lat="48.8311" lon="2.37467">
        <ele>102.8</ele>
        <time>2015-04-27T18:42:45.151Z</time>
      </trkpt>
      <trkpt lat="48.8311" lon="2.37472">
        <ele>102.7</ele>
        <time>2015-04-27T18:42:45.924Z</time>
      </trkpt>
      <trkpt lat="48.83113" lon="2.37474">
        <ele>103.2</ele>
        <time>2015-04-27T18:42:48.993Z</time>
      </trkpt>
      <trkpt lat="48.83113" lon="2.37474">
        <ele>103.4</ele>
        <time>2015-04-27T18:42:49.904Z</time>
      </trkpt>
      <trkpt lat="48.83113" lon="2.37474">
        <ele>103.6</ele>
        <time>2015-04-27T18:43:02.925Z</time>
      </trkpt>
      <trkpt lat="48.83114" lon="2.37476">
        <ele>104.3</ele>
        <time>2015-04-27T18:43:04.018Z</time>
      </trkpt>
      <trkpt lat="48.83114" lon="2.37488">
        <ele>105.8</ele>
        <time>2015-04-27T18:43:12.056Z</time>
      </trkpt>
      <trkpt lat="48.83115" lon="2.3749">
        <ele>105.4</ele>
        <time>2015-04-27T18:43:13.069Z</time>
      </trkpt>
      <trkpt lat="48.83116" lon="2.37501">
        <ele>105</ele>
        <time>2015-04-27T18:43:17.920Z</time>
      </trkpt>
      <trkpt lat="48.83118" lon="2.37503">
        <ele>104.9</ele>
        <time>2015-04-27T18:43:18.939Z</time>
      </trkpt>
      <trkpt lat="48.83121" lon="2.37514">
        <ele>104.7</ele>
        <time>2015-04-27T18:43:22.911Z</time>
      </trkpt>
      <trkpt lat="48.83122" lon="2.37517">
        <ele>104.6</ele>
        <time>2015-04-27T18:43:23.917Z</time>
      </trkpt>
      <trkpt lat="48.83126" lon="2.37528">
        <ele>104.1</ele>
        <time>2015-04-27T18:43:27.983Z</time>
      </trkpt>
      <trkpt lat="48.83128" lon="2.37532">
        <ele>104.1</ele>
        <time>2015-04-27T18:43:28.991Z</time>
      </trkpt>
      <trkpt lat="48.83131" lon="2.37543">
        <ele>104</ele>
        <time>2015-04-27T18:43:31.920Z</time>
      </trkpt>
      <trkpt lat="48.83133" lon="2.37546">
        <ele>104</ele>
        <time>2015-04-27T18:43:32.895Z</time>
      </trkpt>
      <trkpt lat="48.83136" lon="2.37556">
        <ele>104.7</ele>
        <time>2015-04-27T18:43:34.933Z</time>
      </trkpt>
      <trkpt lat="48.83139" lon="2.37561">
        <ele>105.4</ele>
        <time>2015-04-27T18:43:35.900Z</time>
      </trkpt>
      <trkpt lat="48.83143" lon="2.37569">
        <ele>105.6</ele>
        <time>2015-04-27T18:43:37.952Z</time>
      </trkpt>
      <trkpt lat="48.83143" lon="2.37573">
        <ele>104.6</ele>
        <time>2015-04-27T18:43:39.099Z</time>
      </trkpt>
      <trkpt lat="48.83147" lon="2.37581">
        <ele>105.1</ele>
        <time>2015-04-27T18:43:41.023Z</time>
      </trkpt>
      <trkpt lat="48.83148" lon="2.37585">
        <ele>105.3</ele>
        <time>2015-04-27T18:43:41.931Z</time>
      </trkpt>
      <trkpt lat="48.83154" lon="2.37595">
        <ele>105.6</ele>
        <time>2015-04-27T18:43:44.898Z</time>
      </trkpt>
      <trkpt lat="48.83157" lon="2.37597">
        <ele>105.7</ele>
        <time>2015-04-27T18:43:45.969Z</time>
      </trkpt>
      <trkpt lat="48.83164" lon="2.37602">
        <ele>106.1</ele>
        <time>2015-04-27T18:43:49.962Z</time>
      </trkpt>
      <trkpt lat="48.83166" lon="2.37603">
        <ele>106.1</ele>
        <time>2015-04-27T18:43:50.873Z</time>
      </trkpt>
      <trkpt lat="48.83173" lon="2.37605">
        <ele>105.8</ele>
        <time>2015-04-27T18:43:55.928Z</time>
      </trkpt>
      <trkpt lat="48.83176" lon="2.37605">
        <ele>105.9</ele>
        <time>2015-04-27T18:43:56.949Z</time>
      </trkpt>
      <trkpt lat="48.83183" lon="2.37608">
        <ele>106.2</ele>
        <time>2015-04-27T18:43:59.929Z</time>
      </trkpt>
      <trkpt lat="48.83187" lon="2.3761">
        <ele>106.4</ele>
        <time>2015-04-27T18:44:00.980Z</time>
      </trkpt>
      <trkpt lat="48.83193" lon="2.37613">
        <ele>106.6</ele>
        <time>2015-04-27T18:44:02.942Z</time>
      </trkpt>
      <trkpt lat="48.83198" lon="2.37614">
        <ele>107</ele>
        <time>2015-04-27T18:44:04.057Z</time>
      </trkpt>
      <trkpt lat="48.83206" lon="2.37616">
        <ele>107.5</ele>
        <time>2015-04-27T18:44:06.078Z</time>
      </trkpt>
      <trkpt lat="48.8321" lon="2.37618">
        <ele>107.7</ele>
        <time>2015-04-27T18:44:07.012Z</time>
      </trkpt>
      <trkpt lat="48.83217" lon="2.37623">
        <ele>107.6</ele>
        <time>2015-04-27T18:44:10.114Z</time>
      </trkpt>
      <trkpt lat="48.8322" lon="2.37625">
        <ele>107.5</ele>
        <time>2015-04-27T18:44:11.032Z</time>
      </trkpt>
      <trkpt lat="48.83225" lon="2.37629">
        <ele>107.5</ele>
        <time>2015-04-27T18:44:13.054Z</time>
      </trkpt>
      <trkpt lat="48.83229" lon="2.37632">
        <ele>107.6</ele>
        <time>2015-04-27T18:44:14.068Z</time>
      </trkpt>
      <trkpt lat="48.83235" lon="2.37641">
        <ele>107.7</ele>
        <time>2015-04-27T18:44:15.909Z</time>
      </trkpt>
      <trkpt lat="48.83238" lon="2.37645">
        <ele>107.7</ele>
        <time>2015-04-27T18:44:16.916Z</time>
      </trkpt>
      <trkpt lat="48.83243" lon="2.37653">
        <ele>107.4</ele>
        <time>2015-04-27T18:44:18.993Z</time>
      </trkpt>
      <trkpt lat="48.83246" lon="2.37657">
        <ele>107.5</ele>
        <time>2015-04-27T18:44:19.998Z</time>
      </trkpt>
      <trkpt lat="48.83251" lon="2.37665">
        <ele>107.3</ele>
        <time>2015-04-27T18:44:21.951Z</time>
      </trkpt>
      <trkpt lat="48.83254" lon="2.37669">
        <ele>107.3</ele>
        <time>2015-04-27T18:44:22.943Z</time>
      </trkpt>
      <trkpt lat="48.83258" lon="2.37677">
        <ele>107.4</ele>
        <time>2015-04-27T18:44:24.903Z</time>
      </trkpt>
      <trkpt lat="48.83259" lon="2.37683">
        <ele>107.3</ele>
        <time>2015-04-27T18:44:25.951Z</time>
      </trkpt>
      <trkpt lat="48.83263" lon="2.37692">
        <ele>107.3</ele>
        <time>2015-04-27T18:44:28.019Z</time>
      </trkpt>
      <trkpt lat="48.83265" lon="2.37694">
        <ele>107.1</ele>
        <time>2015-04-27T18:44:28.963Z</time>
      </trkpt>
      <trkpt lat="48.83271" lon="2.37691">
        <ele>106.1</ele>
        <time>2015-04-27T18:44:32.967Z</time>
      </trkpt>
      <trkpt lat="48.83273" lon="2.37688">
        <ele>105.9</ele>
        <time>2015-04-27T18:44:34.038Z</time>
      </trkpt>
      <trkpt lat="48.83279" lon="2.3768">
        <ele>105.8</ele>
        <time>2015-04-27T18:44:38.063Z</time>
      </trkpt>
      <trkpt lat="48.83281" lon="2.37678">
        <ele>106</ele>
        <time>2015-04-27T18:44:39.096Z</time>
      </trkpt>
      <trkpt lat="48.83279" lon="2.37666">
        <ele>109.3</ele>
        <time>2015-04-27T18:44:49.894Z</time>
      </trkpt>
      <trkpt lat="48.83279" lon="2.37663">
        <ele>109.1</ele>
        <time>2015-04-27T18:44:50.898Z</time>
      </trkpt>
      <trkpt lat="48.83282" lon="2.37655">
        <ele>110.4</ele>
        <time>2015-04-27T18:44:53.958Z</time>
      </trkpt>
      <trkpt lat="48.83285" lon="2.37652">
        <ele>110.9</ele>
        <time>2015-04-27T18:44:54.970Z</time>
      </trkpt>
      <trkpt lat="48.8329" lon="2.37651">
        <ele>111.2</ele>
        <time>2015-04-27T18:44:55.875Z</time>
      </trkpt>
      <trkpt lat="48.83294" lon="2.37651">
        <ele>111.2</ele>
        <time>2015-04-27T18:44:56.917Z</time>
      </trkpt>
      <trkpt lat="48.83303" lon="2.37648">
        <ele>111</ele>
        <time>2015-04-27T18:44:58.951Z</time>
      </trkpt>
      <trkpt lat="48.83307" lon="2.37646">
        <ele>110.8</ele>
        <time>2015-04-27T18:44:59.974Z</time>
      </trkpt>
      <trkpt lat="48.83312" lon="2.37644">
        <ele>110.9</ele>
        <time>2015-04-27T18:45:00.986Z</time>
      </trkpt>
      <trkpt lat="48.83316" lon="2.37642">
        <ele>111.1</ele>
        <time>2015-04-27T18:45:01.946Z</time>
      </trkpt>
      <trkpt lat="48.83323" lon="2.37637">
        <ele>111.4</ele>
        <time>2015-04-27T18:45:04.016Z</time>
      </trkpt>
      <trkpt lat="48.83326" lon="2.37636">
        <ele>111.7</ele>
        <time>2015-04-27T18:45:05.047Z</time>
      </trkpt>
      <trkpt lat="48.83332" lon="2.37642">
        <ele>111.6</ele>
        <time>2015-04-27T18:45:07.066Z</time>
      </trkpt>
      <trkpt lat="48.83338" lon="2.37657">
        <ele>111.1</ele>
        <time>2015-04-27T18:45:08.073Z</time>
      </trkpt>
      <trkpt lat="48.83341" lon="2.37663">
        <ele>115.2</ele>
        <time>2015-04-27T18:45:11.997Z</time>
      </trkpt>
      <trkpt lat="48.83345" lon="2.37671">
        <ele>114.5</ele>
        <time>2015-04-27T18:45:12.864Z</time>
      </trkpt>
      <trkpt lat="48.83349" lon="2.37677">
        <ele>113.8</ele>
        <time>2015-04-27T18:45:13.873Z</time>
      </trkpt>
      <trkpt lat="48.83353" lon="2.3768">
        <ele>113.9</ele>
        <time>2015-04-27T18:45:14.970Z</time>
      </trkpt>
      <trkpt lat="48.8336" lon="2.37683">
        <ele>113.3</ele>
        <time>2015-04-27T18:45:16.990Z</time>
      </trkpt>
      <trkpt lat="48.83364" lon="2.37681">
        <ele>113.6</ele>
        <time>2015-04-27T18:45:17.970Z</time>
      </trkpt>
      <trkpt lat="48.83372" lon="2.37679">
        <ele>113.1</ele>
        <time>2015-04-27T18:45:19.970Z</time>
      </trkpt>
      <trkpt lat="48.83376" lon="2.37677">
        <ele>113</ele>
        <time>2015-04-27T18:45:20.941Z</time>
      </trkpt>
      <trkpt lat="48.83383" lon="2.37674">
        <ele>113.2</ele>
        <time>2015-04-27T18:45:22.976Z</time>
      </trkpt>
      <trkpt lat="48.83387" lon="2.37671">
        <ele>113.5</ele>
        <time>2015-04-27T18:45:23.950Z</time>
      </trkpt>
      <trkpt lat="48.83393" lon="2.37667">
        <ele>113.7</ele>
        <time>2015-04-27T18:45:26.079Z</time>
      </trkpt>
      <trkpt lat="48.83396" lon="2.37666">
        <ele>113.7</ele>
        <time>2015-04-27T18:45:26.979Z</time>
      </trkpt>
      <trkpt lat="48.83403" lon="2.3766">
        <ele>114.1</ele>
        <time>2015-04-27T18:45:29.930Z</time>
      </trkpt>
      <trkpt lat="48.83406" lon="2.37657">
        <ele>115.3</ele>
        <time>2015-04-27T18:45:30.956Z</time>
      </trkpt>
      <trkpt lat="48.83414" lon="2.37653">
        <ele>116.4</ele>
        <time>2015-04-27T18:45:34.136Z</time>
      </trkpt>
      <trkpt lat="48.83417" lon="2.37652">
        <ele>116.7</ele>
        <time>2015-04-27T18:45:34.990Z</time>
      </trkpt>
      <trkpt lat="48.83422" lon="2.37647">
        <ele>117</ele>
        <time>2015-04-27T18:45:36.915Z</time>
      </trkpt>
      <trkpt lat="48.83425" lon="2.37646">
        <ele>117.1</ele>
        <time>2015-04-27T18:45:37.915Z</time>
      </trkpt>
      <trkpt lat="48.83432" lon="2.37646">
        <ele>116.4</ele>
        <time>2015-04-27T18:45:40.721Z</time>
      </trkpt>
      <trkpt lat="48.83435" lon="2.37648">
        <ele>115.7</ele>
        <time>2015-04-27T18:45:40.959Z</time>
      </trkpt>
      <trkpt lat="48.83441" lon="2.37652">
        <ele>114.3</ele>
        <time>2015-04-27T18:45:42.989Z</time>
      </trkpt>
      <trkpt lat="48.83443" lon="2.37656">
        <ele>113.7</ele>
        <time>2015-04-27T18:45:44.017Z</time>
      </trkpt>
      <trkpt lat="48.83447" lon="2.37667">
        <ele>112.1</ele>
        <time>2015-04-27T18:45:46.883Z</time>
      </trkpt>
      <trkpt lat="48.83449" lon="2.3767">
        <ele>111.4</ele>
        <time>2015-04-27T18:45:47.915Z</time>
      </trkpt>
      <trkpt lat="48.83452" lon="2.37678">
        <ele>110.9</ele>
        <time>2015-04-27T18:45:50.927Z</time>
      </trkpt>
      <trkpt lat="48.83454" lon="2.37682">
        <ele>111</ele>
        <time>2015-04-27T18:45:50.968Z</time>
      </trkpt>
      <trkpt lat="48.83458" lon="2.37689">
        <ele>110.2</ele>
        <time>2015-04-27T18:45:52.977Z</time>
      </trkpt>
      <trkpt lat="48.8346" lon="2.37692">
        <ele>109.8</ele>
        <time>2015-04-27T18:45:53.898Z</time>
      </trkpt>
      <trkpt lat="48.83465" lon="2.37698">
        <ele>109.2</ele>
        <time>2015-04-27T18:45:55.953Z</time>
      </trkpt>
      <trkpt lat="48.83467" lon="2.37701">
        <ele>108.9</ele>
        <time>2015-04-27T18:45:56.927Z</time>
      </trkpt>
      <trkpt lat="48.83471" lon="2.37708">
        <ele>108.4</ele>
        <time>2015-04-27T18:45:58.972Z</time>
      </trkpt>
      <trkpt lat="48.83474" lon="2.37712">
        <ele>108.1</ele>
        <time>2015-04-27T18:45:59.974Z</time>
      </trkpt>
      <trkpt lat="48.83479" lon="2.37721">
        <ele>107.8</ele>
        <time>2015-04-27T18:46:01.904Z</time>
      </trkpt>
      <trkpt lat="48.83481" lon="2.37726">
        <ele>107.6</ele>
        <time>2015-04-27T18:46:02.898Z</time>
      </trkpt>
      <trkpt lat="48.83484" lon="2.37731">
        <ele>107.3</ele>
        <time>2015-04-27T18:46:03.960Z</time>
      </trkpt>
      <trkpt lat="48.83487" lon="2.37737">
        <ele>107.1</ele>
        <time>2015-04-27T18:46:04.978Z</time>
      </trkpt>
      <trkpt lat="48.83493" lon="2.37746">
        <ele>106.3</ele>
        <time>2015-04-27T18:46:06.919Z</time>
      </trkpt>
      <trkpt lat="48.83495" lon="2.37751">
        <ele>106.2</ele>
        <time>2015-04-27T18:46:07.928Z</time>
      </trkpt>
      <trkpt lat="48.835" lon="2.3776">
        <ele>105.9</ele>
        <time>2015-04-27T18:46:09.946Z</time>
      </trkpt>
      <trkpt lat="48.83502" lon="2.37765">
        <ele>105.7</ele>
        <time>2015-04-27T18:46:10.960Z</time>
      </trkpt>
      <trkpt lat="48.83508" lon="2.37774">
        <ele>105</ele>
        <time>2015-04-27T18:46:12.894Z</time>
      </trkpt>
      <trkpt lat="48.83511" lon="2.37779">
        <ele>104.6</ele>
        <time>2015-04-27T18:46:13.934Z</time>
      </trkpt>
      <trkpt lat="48.83514" lon="2.37784">
        <ele>104.3</ele>
        <time>2015-04-27T18:46:14.963Z</time>
      </trkpt>
      <trkpt lat="48.83518" lon="2.3779">
        <ele>103.7</ele>
        <time>2015-04-27T18:46:15.972Z</time>
      </trkpt>
      <trkpt lat="48.83521" lon="2.37796">
        <ele>103.2</ele>
        <time>2015-04-27T18:46:16.981Z</time>
      </trkpt>
      <trkpt lat="48.83524" lon="2.37801">
        <ele>102.8</ele>
        <time>2015-04-27T18:46:17.902Z</time>
      </trkpt>
      <trkpt lat="48.83528" lon="2.37807">
        <ele>102.4</ele>
        <time>2015-04-27T18:46:18.895Z</time>
      </trkpt>
      <trkpt lat="48.83531" lon="2.37813">
        <ele>101.9</ele>
        <time>2015-04-27T18:46:19.911Z</time>
      </trkpt>
      <trkpt lat="48.83537" lon="2.37823">
        <ele>101.6</ele>
        <time>2015-04-27T18:46:22.011Z</time>
      </trkpt>
      <trkpt lat="48.8354" lon="2.37827">
        <ele>101.2</ele>
        <time>2015-04-27T18:46:22.894Z</time>
      </trkpt>
      <trkpt lat="48.83545" lon="2.37836">
        <ele>100.7</ele>
        <time>2015-04-27T18:46:24.967Z</time>
      </trkpt>
      <trkpt lat="48.83547" lon="2.3784">
        <ele>100.3</ele>
        <time>2015-04-27T18:46:25.922Z</time>
      </trkpt>
      <trkpt lat="48.83551" lon="2.37848">
        <ele>99.6</ele>
        <time>2015-04-27T18:46:27.911Z</time>
      </trkpt>
      <trkpt lat="48.83553" lon="2.37852">
        <ele>99.4</ele>
        <time>2015-04-27T18:46:28.930Z</time>
      </trkpt>
      <trkpt lat="48.83558" lon="2.3786">
        <ele>98.9</ele>
        <time>2015-04-27T18:46:31.922Z</time>
      </trkpt>
      <trkpt lat="48.8356" lon="2.37862">
        <ele>98.9</ele>
        <time>2015-04-27T18:46:32.933Z</time>
      </trkpt>
      <trkpt lat="48.83565" lon="2.3787">
        <ele>98.3</ele>
        <time>2015-04-27T18:46:36.004Z</time>
      </trkpt>
      <trkpt lat="48.83567" lon="2.37875">
        <ele>98.2</ele>
        <time>2015-04-27T18:46:37.042Z</time>
      </trkpt>
      <trkpt lat="48.83571" lon="2.37883">
        <ele>98.4</ele>
        <time>2015-04-27T18:46:39.090Z</time>
      </trkpt>
      <trkpt lat="48.83572" lon="2.37886">
        <ele>98.6</ele>
        <time>2015-04-27T18:46:40.124Z</time>
      </trkpt>
      <trkpt lat="48.83577" lon="2.37895">
        <ele>99.7</ele>
        <time>2015-04-27T18:46:44.031Z</time>
      </trkpt>
      <trkpt lat="48.83578" lon="2.37897">
        <ele>99.8</ele>
        <time>2015-04-27T18:46:44.889Z</time>
      </trkpt>
      <trkpt lat="48.83581" lon="2.37902">
        <ele>100.3</ele>
        <time>2015-04-27T18:46:48.933Z</time>
      </trkpt>
      <trkpt lat="48.83581" lon="2.37902">
        <ele>100.2</ele>
        <time>2015-04-27T18:46:49.920Z</time>
      </trkpt>
      <trkpt lat="48.83581" lon="2.37902">
        <ele>100</ele>
        <time>2015-04-27T18:46:50.975Z</time>
      </trkpt>
      <trkpt lat="48.83582" lon="2.37902">
        <ele>99.9</ele>
        <time>2015-04-27T18:46:52.018Z</time>
      </trkpt>
      <trkpt lat="48.83582" lon="2.37902">
        <ele>99.9</ele>
        <time>2015-04-27T18:46:52.889Z</time>
      </trkpt>
      <trkpt lat="48.83582" lon="2.37901">
        <ele>99.8</ele>
        <time>2015-04-27T18:46:53.893Z</time>
      </trkpt>
      <trkpt lat="48.83582" lon="2.37901">
        <ele>99.2</ele>
        <time>2015-04-27T18:46:56.923Z</time>
      </trkpt>
      <trkpt lat="48.83582" lon="2.379">
        <ele>98.2</ele>
        <time>2015-04-27T18:46:57.995Z</time>
      </trkpt>
      <trkpt lat="48.83583" lon="2.37897">
        <ele>97.2</ele>
        <time>2015-04-27T18:47:07.029Z</time>
      </trkpt>
      <trkpt lat="48.83583" lon="2.37897">
        <ele>97.2</ele>
        <time>2015-04-27T18:47:08.069Z</time>
      </trkpt>
      <trkpt lat="48.83583" lon="2.37898">
        <ele>97.1</ele>
        <time>2015-04-27T18:47:08.898Z</time>
      </trkpt>
      <trkpt lat="48.83583" lon="2.37898">
        <ele>97</ele>
        <time>2015-04-27T18:47:09.953Z</time>
      </trkpt>
      <trkpt lat="48.83583" lon="2.37899">
        <ele>96.8</ele>
        <time>2015-04-27T18:47:10.927Z</time>
      </trkpt>
      <trkpt lat="48.83589" lon="2.37902">
        <ele>96.9</ele>
        <time>2015-04-27T18:47:16.988Z</time>
      </trkpt>
      <trkpt lat="48.83589" lon="2.37902">
        <ele>96.8</ele>
        <time>2015-04-27T18:47:18.004Z</time>
      </trkpt>
      <trkpt lat="48.83589" lon="2.37902">
        <ele>96.7</ele>
        <time>2015-04-27T18:47:43.876Z</time>
      </trkpt>
      <trkpt lat="48.83588" lon="2.3791">
        <ele>97.2</ele>
        <time>2015-04-27T18:47:44.876Z</time>
      </trkpt>
      <trkpt lat="48.83582" lon="2.37918">
        <ele>96.7</ele>
        <time>2015-04-27T18:47:51.954Z</time>
      </trkpt>
      <trkpt lat="48.83581" lon="2.3792">
        <ele>96.7</ele>
        <time>2015-04-27T18:47:53.043Z</time>
      </trkpt>
      <trkpt lat="48.83573" lon="2.37926">
        <ele>96.5</ele>
        <time>2015-04-27T18:47:56.932Z</time>
      </trkpt>
      <trkpt lat="48.83571" lon="2.3793">
        <ele>95.9</ele>
        <time>2015-04-27T18:47:57.962Z</time>
      </trkpt>
      <trkpt lat="48.83566" lon="2.37937">
        <ele>94.6</ele>
        <time>2015-04-27T18:47:59.911Z</time>
      </trkpt>
      <trkpt lat="48.83563" lon="2.37941">
        <ele>94.4</ele>
        <time>2015-04-27T18:48:00.946Z</time>
      </trkpt>
      <trkpt lat="48.83558" lon="2.37947">
        <ele>93.9</ele>
        <time>2015-04-27T18:48:02.984Z</time>
      </trkpt>
      <trkpt lat="48.83555" lon="2.3795">
        <ele>93.8</ele>
        <time>2015-04-27T18:48:03.995Z</time>
      </trkpt>
      <trkpt lat="48.83549" lon="2.37956">
        <ele>93.5</ele>
        <time>2015-04-27T18:48:05.896Z</time>
      </trkpt>
      <trkpt lat="48.83545" lon="2.37961">
        <ele>92.7</ele>
        <time>2015-04-27T18:48:07.134Z</time>
      </trkpt>
      <trkpt lat="48.83539" lon="2.37969">
        <ele>92.4</ele>
        <time>2015-04-27T18:48:08.915Z</time>
      </trkpt>
      <trkpt lat="48.83536" lon="2.37973">
        <ele>92.4</ele>
        <time>2015-04-27T18:48:09.972Z</time>
      </trkpt>
      <trkpt lat="48.8353" lon="2.37979">
        <ele>92.2</ele>
        <time>2015-04-27T18:48:11.891Z</time>
      </trkpt>
      <trkpt lat="48.83527" lon="2.37982">
        <ele>92.2</ele>
        <time>2015-04-27T18:48:12.929Z</time>
      </trkpt>
      <trkpt lat="48.83521" lon="2.3799">
        <ele>91.8</ele>
        <time>2015-04-27T18:48:14.895Z</time>
      </trkpt>
      <trkpt lat="48.83518" lon="2.37994">
        <ele>92</ele>
        <time>2015-04-27T18:48:15.975Z</time>
      </trkpt>
      <trkpt lat="48.83512" lon="2.38">
        <ele>91.9</ele>
        <time>2015-04-27T18:48:17.893Z</time>
      </trkpt>
      <trkpt lat="48.83509" lon="2.38004">
        <ele>92</ele>
        <time>2015-04-27T18:48:18.892Z</time>
      </trkpt>
      <trkpt lat="48.83503" lon="2.38012">
        <ele>92.1</ele>
        <time>2015-04-27T18:48:21.025Z</time>
      </trkpt>
      <trkpt lat="48.835" lon="2.38016">
        <ele>92</ele>
        <time>2015-04-27T18:48:22.029Z</time>
      </trkpt>
      <trkpt lat="48.83493" lon="2.38025">
        <ele>91.7</ele>
        <time>2015-04-27T18:48:23.928Z</time>
      </trkpt>
      <trkpt lat="48.8349" lon="2.38029">
        <ele>91.6</ele>
        <time>2015-04-27T18:48:24.967Z</time>
      </trkpt>
      <trkpt lat="48.83486" lon="2.38033">
        <ele>91.4</ele>
        <time>2015-04-27T18:48:25.954Z</time>
      </trkpt>
      <trkpt lat="48.83483" lon="2.38038">
        <ele>91.3</ele>
        <time>2015-04-27T18:48:26.868Z</time>
      </trkpt>
      <trkpt lat="48.83479" lon="2.38042">
        <ele>91</ele>
        <time>2015-04-27T18:48:27.914Z</time>
      </trkpt>
      <trkpt lat="48.83476" lon="2.38048">
        <ele>90.8</ele>
        <time>2015-04-27T18:48:28.918Z</time>
      </trkpt>
      <trkpt lat="48.83472" lon="2.38053">
        <ele>90.7</ele>
        <time>2015-04-27T18:48:29.923Z</time>
      </trkpt>
      <trkpt lat="48.83468" lon="2.38058">
        <ele>90.8</ele>
        <time>2015-04-27T18:48:30.925Z</time>
      </trkpt>
      <trkpt lat="48.83465" lon="2.38062">
        <ele>90.9</ele>
        <time>2015-04-27T18:48:31.936Z</time>
      </trkpt>
      <trkpt lat="48.83461" lon="2.38067">
        <ele>90.9</ele>
        <time>2015-04-27T18:48:32.946Z</time>
      </trkpt>
      <trkpt lat="48.83458" lon="2.38072">
        <ele>90.9</ele>
        <time>2015-04-27T18:48:34.732Z</time>
      </trkpt>
      <trkpt lat="48.83454" lon="2.38077">
        <ele>90.9</ele>
        <time>2015-04-27T18:48:34.996Z</time>
      </trkpt>
      <trkpt lat="48.8345" lon="2.38081">
        <ele>90.9</ele>
        <time>2015-04-27T18:48:36.038Z</time>
      </trkpt>
      <trkpt lat="48.83446" lon="2.38085">
        <ele>90.9</ele>
        <time>2015-04-27T18:48:37.054Z</time>
      </trkpt>
      <trkpt lat="48.83443" lon="2.3809">
        <ele>90.8</ele>
        <time>2015-04-27T18:48:38.060Z</time>
      </trkpt>
      <trkpt lat="48.83439" lon="2.38094">
        <ele>90.7</ele>
        <time>2015-04-27T18:48:39.073Z</time>
      </trkpt>
      <trkpt lat="48.83435" lon="2.38099">
        <ele>90.7</ele>
        <time>2015-04-27T18:48:40.091Z</time>
      </trkpt>
      <trkpt lat="48.83431" lon="2.38104">
        <ele>90.8</ele>
        <time>2015-04-27T18:48:41.005Z</time>
      </trkpt>
      <trkpt lat="48.83428" lon="2.38109">
        <ele>91</ele>
        <time>2015-04-27T18:48:42.004Z</time>
      </trkpt>
      <trkpt lat="48.83424" lon="2.38114">
        <ele>91.1</ele>
        <time>2015-04-27T18:48:43.027Z</time>
      </trkpt>
      <trkpt lat="48.8342" lon="2.38119">
        <ele>91.1</ele>
        <time>2015-04-27T18:48:44.059Z</time>
      </trkpt>
      <trkpt lat="48.83417" lon="2.38123">
        <ele>91.1</ele>
        <time>2015-04-27T18:48:45.076Z</time>
      </trkpt>
      <trkpt lat="48.8341" lon="2.38131">
        <ele>90.9</ele>
        <time>2015-04-27T18:48:46.916Z</time>
      </trkpt>
      <trkpt lat="48.83406" lon="2.38136">
        <ele>90.8</ele>
        <time>2015-04-27T18:48:47.941Z</time>
      </trkpt>
      <trkpt lat="48.83403" lon="2.38141">
        <ele>90.8</ele>
        <time>2015-04-27T18:48:48.893Z</time>
      </trkpt>
      <trkpt lat="48.83399" lon="2.38145">
        <ele>90.7</ele>
        <time>2015-04-27T18:48:49.899Z</time>
      </trkpt>
      <trkpt lat="48.83392" lon="2.38153">
        <ele>90.6</ele>
        <time>2015-04-27T18:48:51.937Z</time>
      </trkpt>
      <trkpt lat="48.83389" lon="2.38157">
        <ele>90.6</ele>
        <time>2015-04-27T18:48:52.929Z</time>
      </trkpt>
      <trkpt lat="48.83382" lon="2.38165">
        <ele>90.2</ele>
        <time>2015-04-27T18:48:54.919Z</time>
      </trkpt>
      <trkpt lat="48.83379" lon="2.38169">
        <ele>90.1</ele>
        <time>2015-04-27T18:48:55.918Z</time>
      </trkpt>
      <trkpt lat="48.83372" lon="2.38178">
        <ele>90.1</ele>
        <time>2015-04-27T18:48:57.931Z</time>
      </trkpt>
      <trkpt lat="48.83369" lon="2.38182">
        <ele>90</ele>
        <time>2015-04-27T18:48:59.018Z</time>
      </trkpt>
      <trkpt lat="48.83363" lon="2.3819">
        <ele>89.7</ele>
        <time>2015-04-27T18:49:00.898Z</time>
      </trkpt>
      <trkpt lat="48.8336" lon="2.38195">
        <ele>89.6</ele>
        <time>2015-04-27T18:49:01.934Z</time>
      </trkpt>
      <trkpt lat="48.83353" lon="2.38203">
        <ele>89.6</ele>
        <time>2015-04-27T18:49:03.975Z</time>
      </trkpt>
      <trkpt lat="48.8335" lon="2.38207">
        <ele>89.6</ele>
        <time>2015-04-27T18:49:05.034Z</time>
      </trkpt>
      <trkpt lat="48.83343" lon="2.38215">
        <ele>89.3</ele>
        <time>2015-04-27T18:49:06.895Z</time>
      </trkpt>
      <trkpt lat="48.8334" lon="2.38219">
        <ele>89.3</ele>
        <time>2015-04-27T18:49:07.910Z</time>
      </trkpt>
      <trkpt lat="48.83332" lon="2.38224">
        <ele>89.4</ele>
        <time>2015-04-27T18:49:09.954Z</time>
      </trkpt>
      <trkpt lat="48.83328" lon="2.38227">
        <ele>89.4</ele>
        <time>2015-04-27T18:49:10.875Z</time>
      </trkpt>
      <trkpt lat="48.83321" lon="2.38232">
        <ele>89.2</ele>
        <time>2015-04-27T18:49:11.713Z</time>
      </trkpt>
      <trkpt lat="48.83317" lon="2.38236">
        <ele>89</ele>
        <time>2015-04-27T18:49:13.879Z</time>
      </trkpt>
      <trkpt lat="48.8331" lon="2.38242">
        <ele>88.7</ele>
        <time>2015-04-27T18:49:15.986Z</time>
      </trkpt>
      <trkpt lat="48.83307" lon="2.38247">
        <ele>88.7</ele>
        <time>2015-04-27T18:49:17.003Z</time>
      </trkpt>
      <trkpt lat="48.83303" lon="2.38251">
        <ele>88.5</ele>
        <time>2015-04-27T18:49:17.921Z</time>
      </trkpt>
      <trkpt lat="48.83299" lon="2.38255">
        <ele>88.4</ele>
        <time>2015-04-27T18:49:18.927Z</time>
      </trkpt>
      <trkpt lat="48.83295" lon="2.3826">
        <ele>88.6</ele>
        <time>2015-04-27T18:49:19.950Z</time>
      </trkpt>
      <trkpt lat="48.83291" lon="2.38265">
        <ele>88.3</ele>
        <time>2015-04-27T18:49:20.957Z</time>
      </trkpt>
      <trkpt lat="48.83288" lon="2.38271">
        <ele>87.9</ele>
        <time>2015-04-27T18:49:21.961Z</time>
      </trkpt>
      <trkpt lat="48.83284" lon="2.38276">
        <ele>87.6</ele>
        <time>2015-04-27T18:49:22.954Z</time>
      </trkpt>
      <trkpt lat="48.8328" lon="2.38281">
        <ele>87.3</ele>
        <time>2015-04-27T18:49:22.052Z</time>
      </trkpt>
      <trkpt lat="48.83276" lon="2.38287">
        <ele>87.1</ele>
        <time>2015-04-27T18:49:24.927Z</time>
      </trkpt>
      <trkpt lat="48.83272" lon="2.38292">
        <ele>87</ele>
        <time>2015-04-27T18:49:25.892Z</time>
      </trkpt>
      <trkpt lat="48.83269" lon="2.38298">
        <ele>87.4</ele>
        <time>2015-04-27T18:49:26.907Z</time>
      </trkpt>
      <trkpt lat="48.83265" lon="2.38305">
        <ele>87.5</ele>
        <time>2015-04-27T18:49:27.950Z</time>
      </trkpt>
      <trkpt lat="48.83261" lon="2.3831">
        <ele>88.1</ele>
        <time>2015-04-27T18:49:28.965Z</time>
      </trkpt>
      <trkpt lat="48.83257" lon="2.38316">
        <ele>88.4</ele>
        <time>2015-04-27T18:49:29.968Z</time>
      </trkpt>
      <trkpt lat="48.83253" lon="2.38321">
        <ele>88.3</ele>
        <time>2015-04-27T18:49:30.866Z</time>
      </trkpt>
      <trkpt lat="48.83249" lon="2.38326">
        <ele>88.3</ele>
        <time>2015-04-27T18:49:31.898Z</time>
      </trkpt>
      <trkpt lat="48.83245" lon="2.38331">
        <ele>88.2</ele>
        <time>2015-04-27T18:49:32.907Z</time>
      </trkpt>
      <trkpt lat="48.83241" lon="2.38337">
        <ele>88.3</ele>
        <time>2015-04-27T18:49:33.959Z</time>
      </trkpt>
      <trkpt lat="48.83237" lon="2.38342">
        <ele>88.3</ele>
        <time>2015-04-27T18:49:35.014Z</time>
      </trkpt>
      <trkpt lat="48.83233" lon="2.38348">
        <ele>88.5</ele>
        <time>2015-04-27T18:49:36.066Z</time>
      </trkpt>
      <trkpt lat="48.8323" lon="2.38353">
        <ele>88.6</ele>
        <time>2015-04-27T18:49:37.101Z</time>
      </trkpt>
      <trkpt lat="48.83227" lon="2.3836">
        <ele>88.8</ele>
        <time>2015-04-27T18:49:37.940Z</time>
      </trkpt>
      <trkpt lat="48.83223" lon="2.38365">
        <ele>88.9</ele>
        <time>2015-04-27T18:49:39.169Z</time>
      </trkpt>
      <trkpt lat="48.83219" lon="2.38369">
        <ele>88.9</ele>
        <time>2015-04-27T18:49:40.040Z</time>
      </trkpt>
      <trkpt lat="48.83215" lon="2.38374">
        <ele>88.9</ele>
        <time>2015-04-27T18:49:41.047Z</time>
      </trkpt>
      <trkpt lat="48.83211" lon="2.38378">
        <ele>88.9</ele>
        <time>2015-04-27T18:49:42.060Z</time>
      </trkpt>
      <trkpt lat="48.83207" lon="2.38383">
        <ele>89</ele>
        <time>2015-04-27T18:49:43.065Z</time>
      </trkpt>
      <trkpt lat="48.83203" lon="2.38388">
        <ele>89.1</ele>
        <time>2015-04-27T18:49:44.085Z</time>
      </trkpt>
      <trkpt lat="48.832" lon="2.38393">
        <ele>89.5</ele>
        <time>2015-04-27T18:49:45.095Z</time>
      </trkpt>
      <trkpt lat="48.83196" lon="2.38397">
        <ele>89.7</ele>
        <time>2015-04-27T18:49:45.911Z</time>
      </trkpt>
      <trkpt lat="48.83192" lon="2.38401">
        <ele>89.7</ele>
        <time>2015-04-27T18:49:46.926Z</time>
      </trkpt>
      <trkpt lat="48.83188" lon="2.38406">
        <ele>89.8</ele>
        <time>2015-04-27T18:49:47.934Z</time>
      </trkpt>
      <trkpt lat="48.83185" lon="2.38411">
        <ele>89.8</ele>
        <time>2015-04-27T18:49:48.940Z</time>
      </trkpt>
      <trkpt lat="48.83181" lon="2.38416">
        <ele>89.9</ele>
        <time>2015-04-27T18:49:49.944Z</time>
      </trkpt>
      <trkpt lat="48.83178" lon="2.3842">
        <ele>90.2</ele>
        <time>2015-04-27T18:49:50.950Z</time>
      </trkpt>
      <trkpt lat="48.83174" lon="2.38424">
        <ele>90.4</ele>
        <time>2015-04-27T18:49:51.956Z</time>
      </trkpt>
      <trkpt lat="48.83171" lon="2.38429">
        <ele>90.6</ele>
        <time>2015-04-27T18:49:52.967Z</time>
      </trkpt>
      <trkpt lat="48.83167" lon="2.38435">
        <ele>90.6</ele>
        <time>2015-04-27T18:49:53.967Z</time>
      </trkpt>
      <trkpt lat="48.83163" lon="2.3844">
        <ele>90.4</ele>
        <time>2015-04-27T18:49:54.917Z</time>
      </trkpt>
      <trkpt lat="48.83159" lon="2.38445">
        <ele>90.5</ele>
        <time>2015-04-27T18:49:55.901Z</time>
      </trkpt>
      <trkpt lat="48.83155" lon="2.3845">
        <ele>90.5</ele>
        <time>2015-04-27T18:49:56.903Z</time>
      </trkpt>
      <trkpt lat="48.83151" lon="2.38455">
        <ele>90.5</ele>
        <time>2015-04-27T18:49:57.934Z</time>
      </trkpt>
      <trkpt lat="48.83147" lon="2.3846">
        <ele>90.5</ele>
        <time>2015-04-27T18:49:58.936Z</time>
      </trkpt>
      <trkpt lat="48.83144" lon="2.38465">
        <ele>90.4</ele>
        <time>2015-04-27T18:49:59.951Z</time>
      </trkpt>
      <trkpt lat="48.8314" lon="2.38469">
        <ele>90.3</ele>
        <time>2015-04-27T18:50:00.964Z</time>
      </trkpt>
      <trkpt lat="48.83136" lon="2.38474">
        <ele>90.3</ele>
        <time>2015-04-27T18:50:01.969Z</time>
      </trkpt>
      <trkpt lat="48.83133" lon="2.38478">
        <ele>90.3</ele>
        <time>2015-04-27T18:50:02.888Z</time>
      </trkpt>
      <trkpt lat="48.83129" lon="2.38483">
        <ele>90.6</ele>
        <time>2015-04-27T18:50:03.956Z</time>
      </trkpt>
      <trkpt lat="48.83125" lon="2.38488">
        <ele>90.5</ele>
        <time>2015-04-27T18:50:04.965Z</time>
      </trkpt>
      <trkpt lat="48.83121" lon="2.38493">
        <ele>90.6</ele>
        <time>2015-04-27T18:50:05.889Z</time>
      </trkpt>
      <trkpt lat="48.83117" lon="2.38497">
        <ele>90.5</ele>
        <time>2015-04-27T18:50:06.894Z</time>
      </trkpt>
      <trkpt lat="48.83113" lon="2.38502">
        <ele>90.4</ele>
        <time>2015-04-27T18:50:08.029Z</time>
      </trkpt>
      <trkpt lat="48.83109" lon="2.38508">
        <ele>90.4</ele>
        <time>2015-04-27T18:50:09.147Z</time>
      </trkpt>
      <trkpt lat="48.83105" lon="2.38512">
        <ele>90.4</ele>
        <time>2015-04-27T18:50:10.010Z</time>
      </trkpt>
      <trkpt lat="48.83101" lon="2.38518">
        <ele>90.4</ele>
        <time>2015-04-27T18:50:11.017Z</time>
      </trkpt>
      <trkpt lat="48.83097" lon="2.38523">
        <ele>90.4</ele>
        <time>2015-04-27T18:50:12.040Z</time>
      </trkpt>
      <trkpt lat="48.83093" lon="2.38528">
        <ele>90.5</ele>
        <time>2015-04-27T18:50:12.890Z</time>
      </trkpt>
      <trkpt lat="48.83089" lon="2.38533">
        <ele>90.6</ele>
        <time>2015-04-27T18:50:13.917Z</time>
      </trkpt>
      <trkpt lat="48.83085" lon="2.38537">
        <ele>90.7</ele>
        <time>2015-04-27T18:50:14.963Z</time>
      </trkpt>
      <trkpt lat="48.83082" lon="2.38542">
        <ele>91</ele>
        <time>2015-04-27T18:50:15.986Z</time>
      </trkpt>
      <trkpt lat="48.83078" lon="2.38547">
        <ele>91.3</ele>
        <time>2015-04-27T18:50:16.896Z</time>
      </trkpt>
      <trkpt lat="48.83074" lon="2.38552">
        <ele>91.6</ele>
        <time>2015-04-27T18:50:17.912Z</time>
      </trkpt>
      <trkpt lat="48.83071" lon="2.38557">
        <ele>91.9</ele>
        <time>2015-04-27T18:50:18.918Z</time>
      </trkpt>
      <trkpt lat="48.83067" lon="2.38563">
        <ele>92.4</ele>
        <time>2015-04-27T18:50:19.936Z</time>
      </trkpt>
      <trkpt lat="48.83064" lon="2.38567">
        <ele>92.5</ele>
        <time>2015-04-27T18:50:20.947Z</time>
      </trkpt>
      <trkpt lat="48.8306" lon="2.38572">
        <ele>92.8</ele>
        <time>2015-04-27T18:50:21.978Z</time>
      </trkpt>
      <trkpt lat="48.83056" lon="2.38576">
        <ele>93.2</ele>
        <time>2015-04-27T18:50:22.931Z</time>
      </trkpt>
      <trkpt lat="48.83053" lon="2.3858">
        <ele>93.3</ele>
        <time>2015-04-27T18:50:23.900Z</time>
      </trkpt>
      <trkpt lat="48.83049" lon="2.38584">
        <ele>93.4</ele>
        <time>2015-04-27T18:50:24.901Z</time>
      </trkpt>
      <trkpt lat="48.83046" lon="2.38588">
        <ele>93.3</ele>
        <time>2015-04-27T18:50:25.917Z</time>
      </trkpt>
      <trkpt lat="48.83042" lon="2.38594">
        <ele>93.6</ele>
        <time>2015-04-27T18:50:26.935Z</time>
      </trkpt>
      <trkpt lat="48.83037" lon="2.38602">
        <ele>93.8</ele>
        <time>2015-04-27T18:50:27.952Z</time>
      </trkpt>
      <trkpt lat="48.83033" lon="2.38609">
        <ele>94.3</ele>
        <time>2015-04-27T18:50:28.967Z</time>
      </trkpt>
      <trkpt lat="48.83029" lon="2.38616">
        <ele>94.8</ele>
        <time>2015-04-27T18:50:29.889Z</time>
      </trkpt>
      <trkpt lat="48.83025" lon="2.38622">
        <ele>95.3</ele>
        <time>2015-04-27T18:50:30.901Z</time>
      </trkpt>
      <trkpt lat="48.83021" lon="2.38628">
        <ele>95.4</ele>
        <time>2015-04-27T18:50:31.910Z</time>
      </trkpt>
      <trkpt lat="48.83017" lon="2.38633">
        <ele>95.7</ele>
        <time>2015-04-27T18:50:32.927Z</time>
      </trkpt>
      <trkpt lat="48.83013" lon="2.38638">
        <ele>96</ele>
        <time>2015-04-27T18:50:33.983Z</time>
      </trkpt>
      <trkpt lat="48.8301" lon="2.38643">
        <ele>96.3</ele>
        <time>2015-04-27T18:50:35.002Z</time>
      </trkpt>
      <trkpt lat="48.83005" lon="2.38648">
        <ele>96.3</ele>
        <time>2015-04-27T18:50:36.011Z</time>
      </trkpt>
      <trkpt lat="48.83002" lon="2.38653">
        <ele>96.4</ele>
        <time>2015-04-27T18:50:37.006Z</time>
      </trkpt>
      <trkpt lat="48.82998" lon="2.38658">
        <ele>96.4</ele>
        <time>2015-04-27T18:50:38.011Z</time>
      </trkpt>
      <trkpt lat="48.82994" lon="2.38663">
        <ele>96.5</ele>
        <time>2015-04-27T18:50:39.052Z</time>
      </trkpt>
      <trkpt lat="48.8299" lon="2.38669">
        <ele>96.6</ele>
        <time>2015-04-27T18:50:40.057Z</time>
      </trkpt>
      <trkpt lat="48.82986" lon="2.38674">
        <ele>96.6</ele>
        <time>2015-04-27T18:50:41.080Z</time>
      </trkpt>
      <trkpt lat="48.82981" lon="2.38679">
        <ele>96.7</ele>
        <time>2015-04-27T18:50:42.083Z</time>
      </trkpt>
      <trkpt lat="48.82977" lon="2.38684">
        <ele>96.8</ele>
        <time>2015-04-27T18:50:43.002Z</time>
      </trkpt>
      <trkpt lat="48.82972" lon="2.38689">
        <ele>97</ele>
        <time>2015-04-27T18:50:43.887Z</time>
      </trkpt>
      <trkpt lat="48.82968" lon="2.38693">
        <ele>97.2</ele>
        <time>2015-04-27T18:50:44.904Z</time>
      </trkpt>
      <trkpt lat="48.82963" lon="2.38698">
        <ele>97.1</ele>
        <time>2015-04-27T18:50:45.921Z</time>
      </trkpt>
      <trkpt lat="48.82959" lon="2.38701">
        <ele>97.1</ele>
        <time>2015-04-27T18:50:46.929Z</time>
      </trkpt>
      <trkpt lat="48.82954" lon="2.38704">
        <ele>97.2</ele>
        <time>2015-04-27T18:50:47.966Z</time>
      </trkpt>
      <trkpt lat="48.82949" lon="2.38708">
        <ele>97.2</ele>
        <time>2015-04-27T18:50:48.879Z</time>
      </trkpt>
      <trkpt lat="48.82944" lon="2.38712">
        <ele>97.1</ele>
        <time>2015-04-27T18:50:49.902Z</time>
      </trkpt>
      <trkpt lat="48.82939" lon="2.38716">
        <ele>97.2</ele>
        <time>2015-04-27T18:50:50.928Z</time>
      </trkpt>
      <trkpt lat="48.82935" lon="2.38719">
        <ele>97.1</ele>
        <time>2015-04-27T18:50:51.958Z</time>
      </trkpt>
      <trkpt lat="48.8293" lon="2.38722">
        <ele>97.1</ele>
        <time>2015-04-27T18:50:52.914Z</time>
      </trkpt>
      <trkpt lat="48.82922" lon="2.38725">
        <ele>96.8</ele>
        <time>2015-04-27T18:50:54.891Z</time>
      </trkpt>
      <trkpt lat="48.82918" lon="2.38726">
        <ele>96.9</ele>
        <time>2015-04-27T18:50:55.905Z</time>
      </trkpt>
      <trkpt lat="48.82911" lon="2.38727">
        <ele>97.1</ele>
        <time>2015-04-27T18:50:58.028Z</time>
      </trkpt>
      <trkpt lat="48.82907" lon="2.3873">
        <ele>97.3</ele>
        <time>2015-04-27T18:50:58.881Z</time>
      </trkpt>
      <trkpt lat="48.829" lon="2.38736">
        <ele>97.7</ele>
        <time>2015-04-27T18:51:00.937Z</time>
      </trkpt>
      <trkpt lat="48.82896" lon="2.3874">
        <ele>97.8</ele>
        <time>2015-04-27T18:51:01.983Z</time>
      </trkpt>
      <trkpt lat="48.82889" lon="2.38747">
        <ele>97.9</ele>
        <time>2015-04-27T18:51:03.966Z</time>
      </trkpt>
      <trkpt lat="48.82885" lon="2.38749">
        <ele>97.9</ele>
        <time>2015-04-27T18:51:04.881Z</time>
      </trkpt>
      <trkpt lat="48.82881" lon="2.38752">
        <ele>97.4</ele>
        <time>2015-04-27T18:51:05.883Z</time>
      </trkpt>
      <trkpt lat="48.82876" lon="2.38755">
        <ele>96.9</ele>
        <time>2015-04-27T18:51:06.895Z</time>
      </trkpt>
      <trkpt lat="48.82872" lon="2.38759">
        <ele>96.5</ele>
        <time>2015-04-27T18:51:07.929Z</time>
      </trkpt>
      <trkpt lat="48.82867" lon="2.38763">
        <ele>96.2</ele>
        <time>2015-04-27T18:51:08.943Z</time>
      </trkpt>
      <trkpt lat="48.82863" lon="2.38767">
        <ele>95.9</ele>
        <time>2015-04-27T18:51:09.959Z</time>
      </trkpt>
      <trkpt lat="48.82859" lon="2.3877">
        <ele>95.9</ele>
        <time>2015-04-27T18:51:10.865Z</time>
      </trkpt>
      <trkpt lat="48.82852" lon="2.38779">
        <ele>95.8</ele>
        <time>2015-04-27T18:51:12.874Z</time>
      </trkpt>
      <trkpt lat="48.82834" lon="2.38805">
        <ele>95.5</ele>
        <time>2015-04-27T18:51:17.890Z</time>
      </trkpt>
      <trkpt lat="48.82829" lon="2.38809">
        <ele>95.3</ele>
        <time>2015-04-27T18:51:18.864Z</time>
      </trkpt>
      <trkpt lat="48.82825" lon="2.38813">
        <ele>95.3</ele>
        <time>2015-04-27T18:51:19.866Z</time>
      </trkpt>
      <trkpt lat="48.82818" lon="2.3882">
        <ele>94.9</ele>
        <time>2015-04-27T18:51:21.915Z</time>
      </trkpt>
      <trkpt lat="48.82815" lon="2.38824">
        <ele>94.8</ele>
        <time>2015-04-27T18:51:22.955Z</time>
      </trkpt>
      <trkpt lat="48.8281" lon="2.38832">
        <ele>94.3</ele>
        <time>2015-04-27T18:51:24.928Z</time>
      </trkpt>
      <trkpt lat="48.82807" lon="2.38836">
        <ele>94</ele>
        <time>2015-04-27T18:51:25.925Z</time>
      </trkpt>
      <trkpt lat="48.82801" lon="2.38845">
        <ele>93.4</ele>
        <time>2015-04-27T18:51:27.978Z</time>
      </trkpt>
      <trkpt lat="48.82798" lon="2.3885">
        <ele>93.1</ele>
        <time>2015-04-27T18:51:28.873Z</time>
      </trkpt>
      <trkpt lat="48.82793" lon="2.38858">
        <ele>92.8</ele>
        <time>2015-04-27T18:51:30.895Z</time>
      </trkpt>
      <trkpt lat="48.8279" lon="2.38861">
        <ele>92.8</ele>
        <time>2015-04-27T18:51:31.912Z</time>
      </trkpt>
      <trkpt lat="48.82784" lon="2.38867">
        <ele>93</ele>
        <time>2015-04-27T18:51:33.979Z</time>
      </trkpt>
      <trkpt lat="48.82782" lon="2.3887">
        <ele>93.1</ele>
        <time>2015-04-27T18:51:35.008Z</time>
      </trkpt>
      <trkpt lat="48.82776" lon="2.38878">
        <ele>93</ele>
        <time>2015-04-27T18:51:38.033Z</time>
      </trkpt>
      <trkpt lat="48.82774" lon="2.38881">
        <ele>93.2</ele>
        <time>2015-04-27T18:51:39.045Z</time>
      </trkpt>
      <trkpt lat="48.82767" lon="2.38888">
        <ele>92.5</ele>
        <time>2015-04-27T18:51:42.085Z</time>
      </trkpt>
      <trkpt lat="48.82765" lon="2.38891">
        <ele>92.2</ele>
        <time>2015-04-27T18:51:43.027Z</time>
      </trkpt>
      <trkpt lat="48.8276" lon="2.38897">
        <ele>92</ele>
        <time>2015-04-27T18:51:45.082Z</time>
      </trkpt>
      <trkpt lat="48.82758" lon="2.38901">
        <ele>91.9</ele>
        <time>2015-04-27T18:51:45.910Z</time>
      </trkpt>
      <trkpt lat="48.82753" lon="2.38908">
        <ele>91.6</ele>
        <time>2015-04-27T18:51:47.942Z</time>
      </trkpt>
      <trkpt lat="48.8275" lon="2.38911">
        <ele>91.5</ele>
        <time>2015-04-27T18:51:48.958Z</time>
      </trkpt>
      <trkpt lat="48.82746" lon="2.38918">
        <ele>91.2</ele>
        <time>2015-04-27T18:51:50.923Z</time>
      </trkpt>
      <trkpt lat="48.82743" lon="2.38921">
        <ele>91.2</ele>
        <time>2015-04-27T18:51:51.948Z</time>
      </trkpt>
      <trkpt lat="48.82738" lon="2.38927">
        <ele>91.2</ele>
        <time>2015-04-27T18:51:51.740Z</time>
      </trkpt>
      <trkpt lat="48.82735" lon="2.3893">
        <ele>91.1</ele>
        <time>2015-04-27T18:51:54.898Z</time>
      </trkpt>
      <trkpt lat="48.8273" lon="2.38938">
        <ele>91.1</ele>
        <time>2015-04-27T18:51:56.929Z</time>
      </trkpt>
      <trkpt lat="48.82727" lon="2.38942">
        <ele>91</ele>
        <time>2015-04-27T18:51:58.067Z</time>
      </trkpt>
      <trkpt lat="48.8272" lon="2.38951">
        <ele>90.9</ele>
        <time>2015-04-27T18:51:59.917Z</time>
      </trkpt>
      <trkpt lat="48.82717" lon="2.38956">
        <ele>91</ele>
        <time>2015-04-27T18:52:00.937Z</time>
      </trkpt>
      <trkpt lat="48.82713" lon="2.38961">
        <ele>91</ele>
        <time>2015-04-27T18:52:01.893Z</time>
      </trkpt>
      <trkpt lat="48.82709" lon="2.38965">
        <ele>91.1</ele>
        <time>2015-04-27T18:52:02.959Z</time>
      </trkpt>
      <trkpt lat="48.82704" lon="2.38972">
        <ele>91.7</ele>
        <time>2015-04-27T18:52:05.020Z</time>
      </trkpt>
      <trkpt lat="48.82701" lon="2.38976">
        <ele>92</ele>
        <time>2015-04-27T18:52:06.106Z</time>
      </trkpt>
      <trkpt lat="48.82695" lon="2.38982">
        <ele>92.5</ele>
        <time>2015-04-27T18:52:07.999Z</time>
      </trkpt>
      <trkpt lat="48.82691" lon="2.38986">
        <ele>92.6</ele>
        <time>2015-04-27T18:52:09.054Z</time>
      </trkpt>
      <trkpt lat="48.82688" lon="2.3899">
        <ele>92.5</ele>
        <time>2015-04-27T18:52:09.915Z</time>
      </trkpt>
      <trkpt lat="48.82684" lon="2.38995">
        <ele>92.6</ele>
        <time>2015-04-27T18:52:10.996Z</time>
      </trkpt>
      <trkpt lat="48.82681" lon="2.39">
        <ele>92.6</ele>
        <time>2015-04-27T18:52:12.033Z</time>
      </trkpt>
      <trkpt lat="48.82677" lon="2.39005">
        <ele>92.3</ele>
        <time>2015-04-27T18:52:12.845Z</time>
      </trkpt>
      <trkpt lat="48.82671" lon="2.39011">
        <ele>92.2</ele>
        <time>2015-04-27T18:52:14.074Z</time>
      </trkpt>
      <trkpt lat="48.82667" lon="2.39016">
        <ele>92.1</ele>
        <time>2015-04-27T18:52:15.162Z</time>
      </trkpt>
      <trkpt lat="48.82663" lon="2.39021">
        <ele>91.9</ele>
        <time>2015-04-27T18:52:15.849Z</time>
      </trkpt>
      <trkpt lat="48.82658" lon="2.3903">
        <ele>93.4</ele>
        <time>2015-04-27T18:52:17.065Z</time>
      </trkpt>
      <trkpt lat="48.82654" lon="2.39035">
        <ele>93.2</ele>
        <time>2015-04-27T18:52:17.876Z</time>
      </trkpt>
      <trkpt lat="48.8265" lon="2.3904">
        <ele>93.3</ele>
        <time>2015-04-27T18:52:18.968Z</time>
      </trkpt>
      <trkpt lat="48.82645" lon="2.3905">
        <ele>93.6</ele>
        <time>2015-04-27T18:52:20.933Z</time>
      </trkpt>
      <trkpt lat="48.82642" lon="2.39054">
        <ele>93.8</ele>
        <time>2015-04-27T18:52:21.958Z</time>
      </trkpt>
      <trkpt lat="48.82636" lon="2.39064">
        <ele>93.6</ele>
        <time>2015-04-27T18:52:23.924Z</time>
      </trkpt>
      <trkpt lat="48.82633" lon="2.39068">
        <ele>93.6</ele>
        <time>2015-04-27T18:52:24.920Z</time>
      </trkpt>
      <trkpt lat="48.82628" lon="2.39075">
        <ele>93.6</ele>
        <time>2015-04-27T18:52:26.971Z</time>
      </trkpt>
      <trkpt lat="48.82624" lon="2.39079">
        <ele>93.6</ele>
        <time>2015-04-27T18:52:27.986Z</time>
      </trkpt>
      <trkpt lat="48.82619" lon="2.39086">
        <ele>93.6</ele>
        <time>2015-04-27T18:52:29.912Z</time>
      </trkpt>
      <trkpt lat="48.82616" lon="2.3909">
        <ele>93.7</ele>
        <time>2015-04-27T18:52:30.901Z</time>
      </trkpt>
      <trkpt lat="48.82611" lon="2.39097">
        <ele>93.6</ele>
        <time>2015-04-27T18:52:32.861Z</time>
      </trkpt>
      <trkpt lat="48.82608" lon="2.39101">
        <ele>93.6</ele>
        <time>2015-04-27T18:52:33.922Z</time>
      </trkpt>
      <trkpt lat="48.82602" lon="2.39108">
        <ele>93.6</ele>
        <time>2015-04-27T18:52:36.009Z</time>
      </trkpt>
      <trkpt lat="48.82599" lon="2.39112">
        <ele>93.5</ele>
        <time>2015-04-27T18:52:37.025Z</time>
      </trkpt>
      <trkpt lat="48.82593" lon="2.39119">
        <ele>93.2</ele>
        <time>2015-04-27T18:52:38.916Z</time>
      </trkpt>
      <trkpt lat="48.8259" lon="2.39123">
        <ele>93.1</ele>
        <time>2015-04-27T18:52:39.977Z</time>
      </trkpt>
      <trkpt lat="48.82583" lon="2.3913">
        <ele>92.9</ele>
        <time>2015-04-27T18:52:41.918Z</time>
      </trkpt>
      <trkpt lat="48.8258" lon="2.39134">
        <ele>92.8</ele>
        <time>2015-04-27T18:52:42.926Z</time>
      </trkpt>
      <trkpt lat="48.82573" lon="2.39142">
        <ele>92.6</ele>
        <time>2015-04-27T18:52:45.763Z</time>
      </trkpt>
      <trkpt lat="48.82569" lon="2.39147">
        <ele>92.5</ele>
        <time>2015-04-27T18:52:45.946Z</time>
      </trkpt>
      <trkpt lat="48.82565" lon="2.39152">
        <ele>92.4</ele>
        <time>2015-04-27T18:52:46.863Z</time>
      </trkpt>
      <trkpt lat="48.82561" lon="2.39157">
        <ele>92.2</ele>
        <time>2015-04-27T18:52:47.882Z</time>
      </trkpt>
      <trkpt lat="48.82557" lon="2.39163">
        <ele>92.1</ele>
        <time>2015-04-27T18:52:48.903Z</time>
      </trkpt>
      <trkpt lat="48.82552" lon="2.39169">
        <ele>91.9</ele>
        <time>2015-04-27T18:52:49.913Z</time>
      </trkpt>
      <trkpt lat="48.82548" lon="2.39176">
        <ele>91.8</ele>
        <time>2015-04-27T18:52:50.937Z</time>
      </trkpt>
      <trkpt lat="48.82543" lon="2.39183">
        <ele>91.8</ele>
        <time>2015-04-27T18:52:51.958Z</time>
      </trkpt>
      <trkpt lat="48.82537" lon="2.39191">
        <ele>91.8</ele>
        <time>2015-04-27T18:52:52.958Z</time>
      </trkpt>
      <trkpt lat="48.82532" lon="2.39198">
        <ele>91.8</ele>
        <time>2015-04-27T18:52:53.968Z</time>
      </trkpt>
      <trkpt lat="48.82527" lon="2.39205">
        <ele>91.9</ele>
        <time>2015-04-27T18:52:54.882Z</time>
      </trkpt>
      <trkpt lat="48.82522" lon="2.39213">
        <ele>92</ele>
        <time>2015-04-27T18:52:56.138Z</time>
      </trkpt>
      <trkpt lat="48.82518" lon="2.3922">
        <ele>91.8</ele>
        <time>2015-04-27T18:52:56.985Z</time>
      </trkpt>
      <trkpt lat="48.82514" lon="2.39227">
        <ele>91.7</ele>
        <time>2015-04-27T18:52:57.997Z</time>
      </trkpt>
      <trkpt lat="48.82509" lon="2.39234">
        <ele>91.8</ele>
        <time>2015-04-27T18:52:58.859Z</time>
      </trkpt>
      <trkpt lat="48.82505" lon="2.39241">
        <ele>91.9</ele>
        <time>2015-04-27T18:52:59.888Z</time>
      </trkpt>
      <trkpt lat="48.82501" lon="2.39247">
        <ele>92</ele>
        <time>2015-04-27T18:53:01.022Z</time>
      </trkpt>
      <trkpt lat="48.82497" lon="2.39253">
        <ele>92.3</ele>
        <time>2015-04-27T18:53:01.943Z</time>
      </trkpt>
      <trkpt lat="48.82493" lon="2.39259">
        <ele>92.5</ele>
        <time>2015-04-27T18:53:02.952Z</time>
      </trkpt>
      <trkpt lat="48.8249" lon="2.39265">
        <ele>92.5</ele>
        <time>2015-04-27T18:53:03.990Z</time>
      </trkpt>
      <trkpt lat="48.82486" lon="2.39271">
        <ele>91.9</ele>
        <time>2015-04-27T18:53:05.009Z</time>
      </trkpt>
      <trkpt lat="48.82483" lon="2.39276">
        <ele>91.9</ele>
        <time>2015-04-27T18:53:06.068Z</time>
      </trkpt>
      <trkpt lat="48.8248" lon="2.39281">
        <ele>91.8</ele>
        <time>2015-04-27T18:53:06.972Z</time>
      </trkpt>
      <trkpt lat="48.82476" lon="2.39286">
        <ele>91.7</ele>
        <time>2015-04-27T18:53:08.018Z</time>
      </trkpt>
      <trkpt lat="48.82473" lon="2.39291">
        <ele>91.4</ele>
        <time>2015-04-27T18:53:09.034Z</time>
      </trkpt>
      <trkpt lat="48.8247" lon="2.39296">
        <ele>91.3</ele>
        <time>2015-04-27T18:53:10.041Z</time>
      </trkpt>
      <trkpt lat="48.82464" lon="2.39305">
        <ele>90.9</ele>
        <time>2015-04-27T18:53:11.840Z</time>
      </trkpt>
      <trkpt lat="48.82461" lon="2.39308">
        <ele>90.8</ele>
        <time>2015-04-27T18:53:12.869Z</time>
      </trkpt>
      <trkpt lat="48.82454" lon="2.39314">
        <ele>90.9</ele>
        <time>2015-04-27T18:53:15.048Z</time>
      </trkpt>
      <trkpt lat="48.82451" lon="2.39318">
        <ele>91</ele>
        <time>2015-04-27T18:53:15.881Z</time>
      </trkpt>
      <trkpt lat="48.82448" lon="2.39322">
        <ele>91</ele>
        <time>2015-04-27T18:53:16.911Z</time>
      </trkpt>
      <trkpt lat="48.82444" lon="2.39326">
        <ele>91</ele>
        <time>2015-04-27T18:53:17.952Z</time>
      </trkpt>
      <trkpt lat="48.8244" lon="2.39332">
        <ele>90.7</ele>
        <time>2015-04-27T18:53:18.885Z</time>
      </trkpt>
      <trkpt lat="48.82436" lon="2.39337">
        <ele>90.4</ele>
        <time>2015-04-27T18:53:19.915Z</time>
      </trkpt>
      <trkpt lat="48.82432" lon="2.39343">
        <ele>90.1</ele>
        <time>2015-04-27T18:53:20.897Z</time>
      </trkpt>
      <trkpt lat="48.82427" lon="2.39349">
        <ele>89.6</ele>
        <time>2015-04-27T18:53:21.948Z</time>
      </trkpt>
      <trkpt lat="48.82423" lon="2.39354">
        <ele>89.5</ele>
        <time>2015-04-27T18:53:22.895Z</time>
      </trkpt>
      <trkpt lat="48.82418" lon="2.3936">
        <ele>89.2</ele>
        <time>2015-04-27T18:53:23.909Z</time>
      </trkpt>
      <trkpt lat="48.82413" lon="2.39367">
        <ele>88.7</ele>
        <time>2015-04-27T18:53:24.922Z</time>
      </trkpt>
      <trkpt lat="48.82409" lon="2.39374">
        <ele>88.6</ele>
        <time>2015-04-27T18:53:25.935Z</time>
      </trkpt>
      <trkpt lat="48.82405" lon="2.3938">
        <ele>88.5</ele>
        <time>2015-04-27T18:53:26.951Z</time>
      </trkpt>
      <trkpt lat="48.82401" lon="2.39387">
        <ele>88.5</ele>
        <time>2015-04-27T18:53:27.963Z</time>
      </trkpt>
      <trkpt lat="48.82397" lon="2.39396">
        <ele>88.8</ele>
        <time>2015-04-27T18:53:28.974Z</time>
      </trkpt>
      <trkpt lat="48.82391" lon="2.39401">
        <ele>88.6</ele>
        <time>2015-04-27T18:53:29.901Z</time>
      </trkpt>
      <trkpt lat="48.82386" lon="2.39406">
        <ele>88.6</ele>
        <time>2015-04-27T18:53:30.915Z</time>
      </trkpt>
      <trkpt lat="48.82382" lon="2.3941">
        <ele>88.8</ele>
        <time>2015-04-27T18:53:31.929Z</time>
      </trkpt>
      <trkpt lat="48.82377" lon="2.39416">
        <ele>88.9</ele>
        <time>2015-04-27T18:53:32.932Z</time>
      </trkpt>
      <trkpt lat="48.82373" lon="2.39424">
        <ele>88.9</ele>
        <time>2015-04-27T18:53:33.981Z</time>
      </trkpt>
      <trkpt lat="48.82368" lon="2.39431">
        <ele>89</ele>
        <time>2015-04-27T18:53:35.016Z</time>
      </trkpt>
      <trkpt lat="48.82363" lon="2.39439">
        <ele>89.2</ele>
        <time>2015-04-27T18:53:36.025Z</time>
      </trkpt>
      <trkpt lat="48.82358" lon="2.39447">
        <ele>89.4</ele>
        <time>2015-04-27T18:53:37.035Z</time>
      </trkpt>
      <trkpt lat="48.82353" lon="2.39456">
        <ele>89.4</ele>
        <time>2015-04-27T18:53:38.051Z</time>
      </trkpt>
      <trkpt lat="48.82347" lon="2.39464">
        <ele>89.4</ele>
        <time>2015-04-27T18:53:39.036Z</time>
      </trkpt>
      <trkpt lat="48.8234" lon="2.39472">
        <ele>89.5</ele>
        <time>2015-04-27T18:53:39.929Z</time>
      </trkpt>
      <trkpt lat="48.82335" lon="2.39481">
        <ele>90</ele>
        <time>2015-04-27T18:53:40.872Z</time>
      </trkpt>
      <trkpt lat="48.8233" lon="2.39491">
        <ele>89.8</ele>
        <time>2015-04-27T18:53:41.924Z</time>
      </trkpt>
      <trkpt lat="48.82324" lon="2.395">
        <ele>90.1</ele>
        <time>2015-04-27T18:53:42.953Z</time>
      </trkpt>
      <trkpt lat="48.82316" lon="2.3951">
        <ele>88.7</ele>
        <time>2015-04-27T18:53:43.872Z</time>
      </trkpt>
      <trkpt lat="48.8231" lon="2.39519">
        <ele>88.5</ele>
        <time>2015-04-27T18:53:44.883Z</time>
      </trkpt>
      <trkpt lat="48.82305" lon="2.39528">
        <ele>88.3</ele>
        <time>2015-04-27T18:53:45.933Z</time>
      </trkpt>
      <trkpt lat="48.823" lon="2.39537">
        <ele>87.8</ele>
        <time>2015-04-27T18:53:46.977Z</time>
      </trkpt>
      <trkpt lat="48.82295" lon="2.39547">
        <ele>87.4</ele>
        <time>2015-04-27T18:53:47.885Z</time>
      </trkpt>
      <trkpt lat="48.8229" lon="2.39556">
        <ele>87</ele>
        <time>2015-04-27T18:53:48.899Z</time>
      </trkpt>
      <trkpt lat="48.82285" lon="2.39565">
        <ele>86.5</ele>
        <time>2015-04-27T18:53:49.912Z</time>
      </trkpt>
      <trkpt lat="48.8228" lon="2.39573">
        <ele>85.9</ele>
        <time>2015-04-27T18:53:50.844Z</time>
      </trkpt>
      <trkpt lat="48.82275" lon="2.39582">
        <ele>85.5</ele>
        <time>2015-04-27T18:53:51.923Z</time>
      </trkpt>
      <trkpt lat="48.8227" lon="2.39591">
        <ele>85.3</ele>
        <time>2015-04-27T18:53:52.918Z</time>
      </trkpt>
      <trkpt lat="48.82265" lon="2.396">
        <ele>85.7</ele>
        <time>2015-04-27T18:53:53.924Z</time>
      </trkpt>
      <trkpt lat="48.8226" lon="2.3961">
        <ele>86.4</ele>
        <time>2015-04-27T18:53:54.950Z</time>
      </trkpt>
      <trkpt lat="48.82254" lon="2.39619">
        <ele>86.3</ele>
        <time>2015-04-27T18:53:55.870Z</time>
      </trkpt>
      <trkpt lat="48.82249" lon="2.39627">
        <ele>86.4</ele>
        <time>2015-04-27T18:53:56.878Z</time>
      </trkpt>
      <trkpt lat="48.82244" lon="2.39636">
        <ele>86.4</ele>
        <time>2015-04-27T18:53:57.920Z</time>
      </trkpt>
      <trkpt lat="48.82239" lon="2.39644">
        <ele>86.4</ele>
        <time>2015-04-27T18:53:58.929Z</time>
      </trkpt>
      <trkpt lat="48.82234" lon="2.39653">
        <ele>86.6</ele>
        <time>2015-04-27T18:53:59.874Z</time>
      </trkpt>
      <trkpt lat="48.82229" lon="2.39661">
        <ele>86.6</ele>
        <time>2015-04-27T18:54:00.908Z</time>
      </trkpt>
      <trkpt lat="48.82225" lon="2.3967">
        <ele>86.8</ele>
        <time>2015-04-27T18:54:01.930Z</time>
      </trkpt>
      <trkpt lat="48.8222" lon="2.39678">
        <ele>86.8</ele>
        <time>2015-04-27T18:54:02.942Z</time>
      </trkpt>
      <trkpt lat="48.82216" lon="2.39686">
        <ele>86.5</ele>
        <time>2015-04-27T18:54:03.981Z</time>
      </trkpt>
      <trkpt lat="48.82211" lon="2.39694">
        <ele>86.7</ele>
        <time>2015-04-27T18:54:04.864Z</time>
      </trkpt>
      <trkpt lat="48.82207" lon="2.39702">
        <ele>86.3</ele>
        <time>2015-04-27T18:54:05.896Z</time>
      </trkpt>
      <trkpt lat="48.82202" lon="2.3971">
        <ele>85.9</ele>
        <time>2015-04-27T18:54:07.094Z</time>
      </trkpt>
      <trkpt lat="48.82197" lon="2.39718">
        <ele>85.8</ele>
        <time>2015-04-27T18:54:08.006Z</time>
      </trkpt>
      <trkpt lat="48.82193" lon="2.39727">
        <ele>86.6</ele>
        <time>2015-04-27T18:54:09.059Z</time>
      </trkpt>
      <trkpt lat="48.82189" lon="2.39735">
        <ele>86.4</ele>
        <time>2015-04-27T18:54:10.071Z</time>
      </trkpt>
      <trkpt lat="48.82185" lon="2.39744">
        <ele>86.5</ele>
        <time>2015-04-27T18:54:11.076Z</time>
      </trkpt>
      <trkpt lat="48.82181" lon="2.39752">
        <ele>86.4</ele>
        <time>2015-04-27T18:54:12.009Z</time>
      </trkpt>
      <trkpt lat="48.82177" lon="2.3976">
        <ele>86.3</ele>
        <time>2015-04-27T18:54:13.038Z</time>
      </trkpt>
      <trkpt lat="48.82173" lon="2.39768">
        <ele>85.9</ele>
        <time>2015-04-27T18:54:14.076Z</time>
      </trkpt>
      <trkpt lat="48.82169" lon="2.39776">
        <ele>85.5</ele>
        <time>2015-04-27T18:54:14.931Z</time>
      </trkpt>
      <trkpt lat="48.82165" lon="2.39784">
        <ele>85.4</ele>
        <time>2015-04-27T18:54:15.946Z</time>
      </trkpt>
      <trkpt lat="48.82161" lon="2.39792">
        <ele>85.1</ele>
        <time>2015-04-27T18:54:16.957Z</time>
      </trkpt>
      <trkpt lat="48.82157" lon="2.39799">
        <ele>84.8</ele>
        <time>2015-04-27T18:54:17.979Z</time>
      </trkpt>
      <trkpt lat="48.82153" lon="2.39807">
        <ele>84.8</ele>
        <time>2015-04-27T18:54:18.895Z</time>
      </trkpt>
      <trkpt lat="48.8215" lon="2.39815">
        <ele>85.1</ele>
        <time>2015-04-27T18:54:19.887Z</time>
      </trkpt>
      <trkpt lat="48.82146" lon="2.39823">
        <ele>85.6</ele>
        <time>2015-04-27T18:54:20.906Z</time>
      </trkpt>
      <trkpt lat="48.82143" lon="2.39832">
        <ele>85.8</ele>
        <time>2015-04-27T18:54:21.933Z</time>
      </trkpt>
      <trkpt lat="48.82139" lon="2.39841">
        <ele>86</ele>
        <time>2015-04-27T18:54:22.954Z</time>
      </trkpt>
      <trkpt lat="48.82136" lon="2.3985">
        <ele>86</ele>
        <time>2015-04-27T18:54:23.896Z</time>
      </trkpt>
      <trkpt lat="48.82132" lon="2.39859">
        <ele>85.8</ele>
        <time>2015-04-27T18:54:24.894Z</time>
      </trkpt>
      <trkpt lat="48.82129" lon="2.39867">
        <ele>85.6</ele>
        <time>2015-04-27T18:54:25.912Z</time>
      </trkpt>
      <trkpt lat="48.82125" lon="2.39875">
        <ele>85.7</ele>
        <time>2015-04-27T18:54:26.916Z</time>
      </trkpt>
      <trkpt lat="48.82121" lon="2.39883">
        <ele>86.1</ele>
        <time>2015-04-27T18:54:27.953Z</time>
      </trkpt>
      <trkpt lat="48.82118" lon="2.39891">
        <ele>86.5</ele>
        <time>2015-04-27T18:54:28.893Z</time>
      </trkpt>
      <trkpt lat="48.82114" lon="2.39899">
        <ele>87</ele>
        <time>2015-04-27T18:54:29.923Z</time>
      </trkpt>
      <trkpt lat="48.82111" lon="2.39905">
        <ele>87</ele>
        <time>2015-04-27T18:54:30.924Z</time>
      </trkpt>
      <trkpt lat="48.82108" lon="2.39914">
        <ele>87.1</ele>
        <time>2015-04-27T18:54:31.930Z</time>
      </trkpt>
      <trkpt lat="48.82104" lon="2.39922">
        <ele>86.8</ele>
        <time>2015-04-27T18:54:32.950Z</time>
      </trkpt>
      <trkpt lat="48.821" lon="2.3993">
        <ele>86.4</ele>
        <time>2015-04-27T18:54:33.956Z</time>
      </trkpt>
      <trkpt lat="48.82096" lon="2.39939">
        <ele>86.1</ele>
        <time>2015-04-27T18:54:35.012Z</time>
      </trkpt>
      <trkpt lat="48.82093" lon="2.39946">
        <ele>85.9</ele>
        <time>2015-04-27T18:54:36.026Z</time>
      </trkpt>
      <trkpt lat="48.8209" lon="2.39954">
        <ele>85.3</ele>
        <time>2015-04-27T18:54:37.044Z</time>
      </trkpt>
      <trkpt lat="48.82086" lon="2.39961">
        <ele>85</ele>
        <time>2015-04-27T18:54:38.044Z</time>
      </trkpt>
      <trkpt lat="48.82083" lon="2.3997">
        <ele>84.5</ele>
        <time>2015-04-27T18:54:39.070Z</time>
      </trkpt>
      <trkpt lat="48.8208" lon="2.39979">
        <ele>83.9</ele>
        <time>2015-04-27T18:54:39.986Z</time>
      </trkpt>
      <trkpt lat="48.82077" lon="2.39989">
        <ele>83.4</ele>
        <time>2015-04-27T18:54:40.842Z</time>
      </trkpt>
      <trkpt lat="48.82075" lon="2.39998">
        <ele>83.3</ele>
        <time>2015-04-27T18:54:41.911Z</time>
      </trkpt>
      <trkpt lat="48.82072" lon="2.40008">
        <ele>83.3</ele>
        <time>2015-04-27T18:54:42.890Z</time>
      </trkpt>
      <trkpt lat="48.82069" lon="2.40018">
        <ele>83.2</ele>
        <time>2015-04-27T18:54:43.839Z</time>
      </trkpt>
      <trkpt lat="48.82066" lon="2.40028">
        <ele>83.2</ele>
        <time>2015-04-27T18:54:44.872Z</time>
      </trkpt>
      <trkpt lat="48.82064" lon="2.40038">
        <ele>83.4</ele>
        <time>2015-04-27T18:54:45.906Z</time>
      </trkpt>
      <trkpt lat="48.82061" lon="2.40047">
        <ele>83.7</ele>
        <time>2015-04-27T18:54:46.904Z</time>
      </trkpt>
      <trkpt lat="48.82059" lon="2.40056">
        <ele>84.1</ele>
        <time>2015-04-27T18:54:47.935Z</time>
      </trkpt>
      <trkpt lat="48.82056" lon="2.40064">
        <ele>84.5</ele>
        <time>2015-04-27T18:54:48.839Z</time>
      </trkpt>
      <trkpt lat="48.82054" lon="2.40071">
        <ele>84.6</ele>
        <time>2015-04-27T18:54:49.863Z</time>
      </trkpt>
      <trkpt lat="48.82051" lon="2.40079">
        <ele>84.8</ele>
        <time>2015-04-27T18:54:51.073Z</time>
      </trkpt>
      <trkpt lat="48.82048" lon="2.40087">
        <ele>85.1</ele>
        <time>2015-04-27T18:54:51.992Z</time>
      </trkpt>
      <trkpt lat="48.82044" lon="2.40095">
        <ele>85.7</ele>
        <time>2015-04-27T18:54:53.022Z</time>
      </trkpt>
      <trkpt lat="48.8204" lon="2.40103">
        <ele>85.9</ele>
        <time>2015-04-27T18:54:54.037Z</time>
      </trkpt>
      <trkpt lat="48.82035" lon="2.40112">
        <ele>86</ele>
        <time>2015-04-27T18:54:54.849Z</time>
      </trkpt>
      <trkpt lat="48.82031" lon="2.40122">
        <ele>85.8</ele>
        <time>2015-04-27T18:54:55.920Z</time>
      </trkpt>
      <trkpt lat="48.82029" lon="2.40131">
        <ele>85.9</ele>
        <time>2015-04-27T18:54:56.942Z</time>
      </trkpt>
      <trkpt lat="48.82026" lon="2.4014">
        <ele>85.7</ele>
        <time>2015-04-27T18:54:57.961Z</time>
      </trkpt>
      <trkpt lat="48.82023" lon="2.40148">
        <ele>86.2</ele>
        <time>2015-04-27T18:54:58.873Z</time>
      </trkpt>
      <trkpt lat="48.8202" lon="2.40156">
        <ele>86.5</ele>
        <time>2015-04-27T18:54:59.873Z</time>
      </trkpt>
      <trkpt lat="48.82018" lon="2.40165">
        <ele>86.3</ele>
        <time>2015-04-27T18:55:00.921Z</time>
      </trkpt>
      <trkpt lat="48.82016" lon="2.40175">
        <ele>85.8</ele>
        <time>2015-04-27T18:55:01.955Z</time>
      </trkpt>
      <trkpt lat="48.82013" lon="2.40184">
        <ele>85.4</ele>
        <time>2015-04-27T18:55:02.878Z</time>
      </trkpt>
      <trkpt lat="48.8201" lon="2.40193">
        <ele>85</ele>
        <time>2015-04-27T18:55:03.963Z</time>
      </trkpt>
      <trkpt lat="48.82007" lon="2.40203">
        <ele>84.7</ele>
        <time>2015-04-27T18:55:04.977Z</time>
      </trkpt>
      <trkpt lat="48.82004" lon="2.40211">
        <ele>84</ele>
        <time>2015-04-27T18:55:06.022Z</time>
      </trkpt>
      <trkpt lat="48.82001" lon="2.4022">
        <ele>83.6</ele>
        <time>2015-04-27T18:55:07.039Z</time>
      </trkpt>
      <trkpt lat="48.81999" lon="2.4023">
        <ele>83.4</ele>
        <time>2015-04-27T18:55:08.068Z</time>
      </trkpt>
      <trkpt lat="48.81996" lon="2.40239">
        <ele>83.5</ele>
        <time>2015-04-27T18:55:09.081Z</time>
      </trkpt>
      <trkpt lat="48.81993" lon="2.40248">
        <ele>83.6</ele>
        <time>2015-04-27T18:55:10.089Z</time>
      </trkpt>
      <trkpt lat="48.81989" lon="2.40257">
        <ele>83.3</ele>
        <time>2015-04-27T18:55:10.993Z</time>
      </trkpt>
      <trkpt lat="48.81986" lon="2.40266">
        <ele>83.7</ele>
        <time>2015-04-27T18:55:11.997Z</time>
      </trkpt>
      <trkpt lat="48.81984" lon="2.40276">
        <ele>83.4</ele>
        <time>2015-04-27T18:55:12.882Z</time>
      </trkpt>
      <trkpt lat="48.81982" lon="2.40286">
        <ele>83.2</ele>
        <time>2015-04-27T18:55:13.987Z</time>
      </trkpt>
      <trkpt lat="48.8198" lon="2.40297">
        <ele>83.4</ele>
        <time>2015-04-27T18:55:14.873Z</time>
      </trkpt>
      <trkpt lat="48.81977" lon="2.40307">
        <ele>83.9</ele>
        <time>2015-04-27T18:55:15.910Z</time>
      </trkpt>
      <trkpt lat="48.81975" lon="2.40317">
        <ele>84.2</ele>
        <time>2015-04-27T18:55:16.907Z</time>
      </trkpt>
      <trkpt lat="48.81972" lon="2.40327">
        <ele>84.3</ele>
        <time>2015-04-27T18:55:17.916Z</time>
      </trkpt>
      <trkpt lat="48.81969" lon="2.40336">
        <ele>84.3</ele>
        <time>2015-04-27T18:55:18.927Z</time>
      </trkpt>
      <trkpt lat="48.81966" lon="2.40346">
        <ele>84.2</ele>
        <time>2015-04-27T18:55:19.992Z</time>
      </trkpt>
      <trkpt lat="48.81964" lon="2.40357">
        <ele>84.8</ele>
        <time>2015-04-27T18:55:20.879Z</time>
      </trkpt>
      <trkpt lat="48.81961" lon="2.40367">
        <ele>85.2</ele>
        <time>2015-04-27T18:55:21.926Z</time>
      </trkpt>
      <trkpt lat="48.81959" lon="2.40377">
        <ele>85.7</ele>
        <time>2015-04-27T18:55:23.001Z</time>
      </trkpt>
      <trkpt lat="48.81956" lon="2.40387">
        <ele>85.5</ele>
        <time>2015-04-27T18:55:23.886Z</time>
      </trkpt>
      <trkpt lat="48.81954" lon="2.40396">
        <ele>85.4</ele>
        <time>2015-04-27T18:55:24.929Z</time>
      </trkpt>
      <trkpt lat="48.81951" lon="2.40404">
        <ele>85.4</ele>
        <time>2015-04-27T18:55:25.945Z</time>
      </trkpt>
      <trkpt lat="48.81948" lon="2.40412">
        <ele>85.5</ele>
        <time>2015-04-27T18:55:26.954Z</time>
      </trkpt>
      <trkpt lat="48.81947" lon="2.40419">
        <ele>85.6</ele>
        <time>2015-04-27T18:55:27.987Z</time>
      </trkpt>
      <trkpt lat="48.81945" lon="2.40426">
        <ele>85.1</ele>
        <time>2015-04-27T18:55:28.892Z</time>
      </trkpt>
      <trkpt lat="48.81943" lon="2.40433">
        <ele>85.5</ele>
        <time>2015-04-27T18:55:30.151Z</time>
      </trkpt>
      <trkpt lat="48.81943" lon="2.40446">
        <ele>85.9</ele>
        <time>2015-04-27T18:55:31.884Z</time>
      </trkpt>
      <trkpt lat="48.81944" lon="2.40452">
        <ele>85.9</ele>
        <time>2015-04-27T18:55:32.939Z</time>
      </trkpt>
      <trkpt lat="48.81944" lon="2.40462">
        <ele>85.8</ele>
        <time>2015-04-27T18:55:35.004Z</time>
      </trkpt>
      <trkpt lat="48.81942" lon="2.40469">
        <ele>85.8</ele>
        <time>2015-04-27T18:55:36.052Z</time>
      </trkpt>
      <trkpt lat="48.81939" lon="2.40476">
        <ele>85.7</ele>
        <time>2015-04-27T18:55:37.005Z</time>
      </trkpt>
      <trkpt lat="48.81937" lon="2.40483">
        <ele>85.9</ele>
        <time>2015-04-27T18:55:38.025Z</time>
      </trkpt>
      <trkpt lat="48.81936" lon="2.40491">
        <ele>85.9</ele>
        <time>2015-04-27T18:55:39.116Z</time>
      </trkpt>
      <trkpt lat="48.81934" lon="2.40498">
        <ele>86.2</ele>
        <time>2015-04-27T18:55:39.929Z</time>
      </trkpt>
      <trkpt lat="48.81932" lon="2.40506">
        <ele>86.5</ele>
        <time>2015-04-27T18:55:40.990Z</time>
      </trkpt>
      <trkpt lat="48.81929" lon="2.40515">
        <ele>86.4</ele>
        <time>2015-04-27T18:55:41.956Z</time>
      </trkpt>
      <trkpt lat="48.81927" lon="2.40523">
        <ele>86.2</ele>
        <time>2015-04-27T18:55:42.861Z</time>
      </trkpt>
      <trkpt lat="48.81924" lon="2.40533">
        <ele>86.2</ele>
        <time>2015-04-27T18:55:43.895Z</time>
      </trkpt>
      <trkpt lat="48.81922" lon="2.40542">
        <ele>86</ele>
        <time>2015-04-27T18:55:45.121Z</time>
      </trkpt>
      <trkpt lat="48.81919" lon="2.40552">
        <ele>85.7</ele>
        <time>2015-04-27T18:55:45.993Z</time>
      </trkpt>
      <trkpt lat="48.81917" lon="2.40561">
        <ele>85.3</ele>
        <time>2015-04-27T18:55:46.844Z</time>
      </trkpt>
      <trkpt lat="48.81914" lon="2.40571">
        <ele>85</ele>
        <time>2015-04-27T18:55:47.885Z</time>
      </trkpt>
      <trkpt lat="48.81911" lon="2.4058">
        <ele>84.4</ele>
        <time>2015-04-27T18:55:48.908Z</time>
      </trkpt>
      <trkpt lat="48.81909" lon="2.4059">
        <ele>83.8</ele>
        <time>2015-04-27T18:55:49.913Z</time>
      </trkpt>
      <trkpt lat="48.81906" lon="2.40599">
        <ele>83.5</ele>
        <time>2015-04-27T18:55:50.931Z</time>
      </trkpt>
      <trkpt lat="48.81904" lon="2.40608">
        <ele>83.1</ele>
        <time>2015-04-27T18:55:52.013Z</time>
      </trkpt>
      <trkpt lat="48.81902" lon="2.40617">
        <ele>82.9</ele>
        <time>2015-04-27T18:55:52.864Z</time>
      </trkpt>
      <trkpt lat="48.819" lon="2.40626">
        <ele>82.7</ele>
        <time>2015-04-27T18:55:54.184Z</time>
      </trkpt>
      <trkpt lat="48.81897" lon="2.40635">
        <ele>82.5</ele>
        <time>2015-04-27T18:55:54.907Z</time>
      </trkpt>
      <trkpt lat="48.81895" lon="2.40646">
        <ele>82.6</ele>
        <time>2015-04-27T18:55:55.915Z</time>
      </trkpt>
      <trkpt lat="48.81893" lon="2.40655">
        <ele>82.7</ele>
        <time>2015-04-27T18:55:56.947Z</time>
      </trkpt>
      <trkpt lat="48.81891" lon="2.40665">
        <ele>83</ele>
        <time>2015-04-27T18:55:57.975Z</time>
      </trkpt>
      <trkpt lat="48.81888" lon="2.40674">
        <ele>83.3</ele>
        <time>2015-04-27T18:55:58.997Z</time>
      </trkpt>
      <trkpt lat="48.81886" lon="2.40682">
        <ele>83.5</ele>
        <time>2015-04-27T18:55:59.870Z</time>
      </trkpt>
      <trkpt lat="48.81884" lon="2.4069">
        <ele>83.5</ele>
        <time>2015-04-27T18:56:00.891Z</time>
      </trkpt>
      <trkpt lat="48.81882" lon="2.40698">
        <ele>84.4</ele>
        <time>2015-04-27T18:56:01.928Z</time>
      </trkpt>
      <trkpt lat="48.81879" lon="2.40705">
        <ele>85.2</ele>
        <time>2015-04-27T18:56:02.941Z</time>
      </trkpt>
      <trkpt lat="48.81877" lon="2.40713">
        <ele>85.8</ele>
        <time>2015-04-27T18:56:03.957Z</time>
      </trkpt>
      <trkpt lat="48.81875" lon="2.40721">
        <ele>86.4</ele>
        <time>2015-04-27T18:56:04.974Z</time>
      </trkpt>
      <trkpt lat="48.81874" lon="2.40729">
        <ele>86.7</ele>
        <time>2015-04-27T18:56:06.015Z</time>
      </trkpt>
      <trkpt lat="48.81872" lon="2.40738">
        <ele>86.5</ele>
        <time>2015-04-27T18:56:07.027Z</time>
      </trkpt>
      <trkpt lat="48.81869" lon="2.40746">
        <ele>86.2</ele>
        <time>2015-04-27T18:56:08.034Z</time>
      </trkpt>
      <trkpt lat="48.81867" lon="2.40754">
        <ele>86.1</ele>
        <time>2015-04-27T18:56:08.878Z</time>
      </trkpt>
      <trkpt lat="48.81864" lon="2.40764">
        <ele>86.1</ele>
        <time>2015-04-27T18:56:10.109Z</time>
      </trkpt>
      <trkpt lat="48.81861" lon="2.40772">
        <ele>86.3</ele>
        <time>2015-04-27T18:56:10.992Z</time>
      </trkpt>
      <trkpt lat="48.81858" lon="2.40779">
        <ele>86.4</ele>
        <time>2015-04-27T18:56:12.009Z</time>
      </trkpt>
      <trkpt lat="48.81856" lon="2.40788">
        <ele>87</ele>
        <time>2015-04-27T18:56:13.018Z</time>
      </trkpt>
      <trkpt lat="48.81854" lon="2.40796">
        <ele>87.4</ele>
        <time>2015-04-27T18:56:14.026Z</time>
      </trkpt>
      <trkpt lat="48.81854" lon="2.40804">
        <ele>87.2</ele>
        <time>2015-04-27T18:56:15.033Z</time>
      </trkpt>
      <trkpt lat="48.81853" lon="2.40812">
        <ele>87.3</ele>
        <time>2015-04-27T18:56:15.867Z</time>
      </trkpt>
      <trkpt lat="48.81852" lon="2.40819">
        <ele>87.2</ele>
        <time>2015-04-27T18:56:16.966Z</time>
      </trkpt>
      <trkpt lat="48.81851" lon="2.40826">
        <ele>87.3</ele>
        <time>2015-04-27T18:56:17.848Z</time>
      </trkpt>
      <trkpt lat="48.81851" lon="2.40838">
        <ele>87.3</ele>
        <time>2015-04-27T18:56:19.867Z</time>
      </trkpt>
      <trkpt lat="48.81851" lon="2.40844">
        <ele>87.7</ele>
        <time>2015-04-27T18:56:20.941Z</time>
      </trkpt>
      <trkpt lat="48.81849" lon="2.40857">
        <ele>88.1</ele>
        <time>2015-04-27T18:56:22.889Z</time>
      </trkpt>
      <trkpt lat="48.81846" lon="2.40863">
        <ele>88.4</ele>
        <time>2015-04-27T18:56:23.922Z</time>
      </trkpt>
      <trkpt lat="48.81844" lon="2.40868">
        <ele>88.8</ele>
        <time>2015-04-27T18:56:24.932Z</time>
      </trkpt>
      <trkpt lat="48.81843" lon="2.40875">
        <ele>89.1</ele>
        <time>2015-04-27T18:56:25.937Z</time>
      </trkpt>
      <trkpt lat="48.8184" lon="2.40883">
        <ele>88.8</ele>
        <time>2015-04-27T18:56:26.857Z</time>
      </trkpt>
      <trkpt lat="48.81838" lon="2.40892">
        <ele>88.8</ele>
        <time>2015-04-27T18:56:27.923Z</time>
      </trkpt>
      <trkpt lat="48.81836" lon="2.409">
        <ele>88.7</ele>
        <time>2015-04-27T18:56:28.950Z</time>
      </trkpt>
      <trkpt lat="48.81833" lon="2.40907">
        <ele>88.6</ele>
        <time>2015-04-27T18:56:29.875Z</time>
      </trkpt>
      <trkpt lat="48.8183" lon="2.40915">
        <ele>88.4</ele>
        <time>2015-04-27T18:56:30.984Z</time>
      </trkpt>
      <trkpt lat="48.81828" lon="2.40925">
        <ele>88.5</ele>
        <time>2015-04-27T18:56:31.888Z</time>
      </trkpt>
      <trkpt lat="48.81827" lon="2.40934">
        <ele>88.8</ele>
        <time>2015-04-27T18:56:32.902Z</time>
      </trkpt>
      <trkpt lat="48.81825" lon="2.40943">
        <ele>89</ele>
        <time>2015-04-27T18:56:33.977Z</time>
      </trkpt>
      <trkpt lat="48.81824" lon="2.40951">
        <ele>89</ele>
        <time>2015-04-27T18:56:34.997Z</time>
      </trkpt>
      <trkpt lat="48.81822" lon="2.4096">
        <ele>89</ele>
        <time>2015-04-27T18:56:36.015Z</time>
      </trkpt>
      <trkpt lat="48.8182" lon="2.40968">
        <ele>88.5</ele>
        <time>2015-04-27T18:56:37.041Z</time>
      </trkpt>
      <trkpt lat="48.81817" lon="2.40977">
        <ele>88.1</ele>
        <time>2015-04-27T18:56:38.053Z</time>
      </trkpt>
      <trkpt lat="48.81815" lon="2.40986">
        <ele>87.7</ele>
        <time>2015-04-27T18:56:39.074Z</time>
      </trkpt>
      <trkpt lat="48.81812" lon="2.40995">
        <ele>87.3</ele>
        <time>2015-04-27T18:56:39.996Z</time>
      </trkpt>
      <trkpt lat="48.81811" lon="2.41004">
        <ele>87.1</ele>
        <time>2015-04-27T18:56:41.002Z</time>
      </trkpt>
      <trkpt lat="48.81809" lon="2.41013">
        <ele>86.9</ele>
        <time>2015-04-27T18:56:42.025Z</time>
      </trkpt>
      <trkpt lat="48.81808" lon="2.41023">
        <ele>87.1</ele>
        <time>2015-04-27T18:56:43.036Z</time>
      </trkpt>
      <trkpt lat="48.81806" lon="2.41032">
        <ele>87.3</ele>
        <time>2015-04-27T18:56:44.045Z</time>
      </trkpt>
      <trkpt lat="48.81805" lon="2.41041">
        <ele>87.3</ele>
        <time>2015-04-27T18:56:45.064Z</time>
      </trkpt>
      <trkpt lat="48.81803" lon="2.4105">
        <ele>87.4</ele>
        <time>2015-04-27T18:56:46.080Z</time>
      </trkpt>
      <trkpt lat="48.81802" lon="2.41059">
        <ele>87.6</ele>
        <time>2015-04-27T18:56:46.889Z</time>
      </trkpt>
      <trkpt lat="48.818" lon="2.41067">
        <ele>88</ele>
        <time>2015-04-27T18:56:47.919Z</time>
      </trkpt>
      <trkpt lat="48.81799" lon="2.41075">
        <ele>88</ele>
        <time>2015-04-27T18:56:48.925Z</time>
      </trkpt>
      <trkpt lat="48.81797" lon="2.41082">
        <ele>88.2</ele>
        <time>2015-04-27T18:56:49.932Z</time>
      </trkpt>
      <trkpt lat="48.81794" lon="2.41095">
        <ele>88.8</ele>
        <time>2015-04-27T18:56:51.962Z</time>
      </trkpt>
      <trkpt lat="48.81793" lon="2.41099">
        <ele>88.9</ele>
        <time>2015-04-27T18:56:52.884Z</time>
      </trkpt>
      <trkpt lat="48.81789" lon="2.41102">
        <ele>88.8</ele>
        <time>2015-04-27T18:57:59.932Z</time>
      </trkpt>
      <trkpt lat="48.81781" lon="2.41096">
        <ele>92.5</ele>
        <time>2015-04-27T18:58:00.977Z</time>
      </trkpt>
      <trkpt lat="48.81775" lon="2.41093">
        <ele>92.6</ele>
        <time>2015-04-27T18:58:02.918Z</time>
      </trkpt>
      <trkpt lat="48.81772" lon="2.41092">
        <ele>92.7</ele>
        <time>2015-04-27T18:58:03.970Z</time>
      </trkpt>
      <trkpt lat="48.81765" lon="2.41087">
        <ele>92.6</ele>
        <time>2015-04-27T18:58:06.008Z</time>
      </trkpt>
      <trkpt lat="48.81762" lon="2.41084">
        <ele>92.6</ele>
        <time>2015-04-27T18:58:07.019Z</time>
      </trkpt>
      <trkpt lat="48.81755" lon="2.41079">
        <ele>92.6</ele>
        <time>2015-04-27T18:58:09.114Z</time>
      </trkpt>
      <trkpt lat="48.81751" lon="2.41076">
        <ele>92.6</ele>
        <time>2015-04-27T18:58:09.998Z</time>
      </trkpt>
      <trkpt lat="48.81744" lon="2.4107">
        <ele>92.7</ele>
        <time>2015-04-27T18:58:11.849Z</time>
      </trkpt>
      <trkpt lat="48.81739" lon="2.41067">
        <ele>92.7</ele>
        <time>2015-04-27T18:58:13.065Z</time>
      </trkpt>
      <trkpt lat="48.81734" lon="2.41064">
        <ele>92.8</ele>
        <time>2015-04-27T18:58:13.985Z</time>
      </trkpt>
      <trkpt lat="48.81729" lon="2.41062">
        <ele>92.8</ele>
        <time>2015-04-27T18:58:15.013Z</time>
      </trkpt>
      <trkpt lat="48.81724" lon="2.4106">
        <ele>92.8</ele>
        <time>2015-04-27T18:58:15.976Z</time>
      </trkpt>
      <trkpt lat="48.81719" lon="2.41058">
        <ele>93</ele>
        <time>2015-04-27T18:58:17.052Z</time>
      </trkpt>
      <trkpt lat="48.8171" lon="2.41056">
        <ele>92.8</ele>
        <time>2015-04-27T18:58:21.047Z</time>
      </trkpt>
      <trkpt lat="48.8171" lon="2.41056">
        <ele>92.7</ele>
        <time>2015-04-27T18:58:21.988Z</time>
      </trkpt>
      <trkpt lat="48.81706" lon="2.41068">
        <ele>91.5</ele>
        <time>2015-04-27T18:58:35.988Z</time>
      </trkpt>
      <trkpt lat="48.81705" lon="2.41071">
        <ele>91.3</ele>
        <time>2015-04-27T18:58:36.990Z</time>
      </trkpt>
      <trkpt lat="48.81701" lon="2.41082">
        <ele>90.8</ele>
        <time>2015-04-27T18:58:39.962Z</time>
      </trkpt>
      <trkpt lat="48.81699" lon="2.41087">
        <ele>90.3</ele>
        <time>2015-04-27T18:58:40.918Z</time>
      </trkpt>
      <trkpt lat="48.81696" lon="2.41092">
        <ele>90</ele>
        <time>2015-04-27T18:58:41.920Z</time>
      </trkpt>
      <trkpt lat="48.81694" lon="2.41099">
        <ele>89.7</ele>
        <time>2015-04-27T18:58:42.928Z</time>
      </trkpt>
      <trkpt lat="48.81691" lon="2.41105">
        <ele>89.5</ele>
        <time>2015-04-27T18:58:43.944Z</time>
      </trkpt>
      <trkpt lat="48.81689" lon="2.41112">
        <ele>89.5</ele>
        <time>2015-04-27T18:58:44.865Z</time>
      </trkpt>
      <trkpt lat="48.81688" lon="2.41119">
        <ele>89.6</ele>
        <time>2015-04-27T18:58:45.995Z</time>
      </trkpt>
      <trkpt lat="48.81687" lon="2.41127">
        <ele>89.6</ele>
        <time>2015-04-27T18:58:46.908Z</time>
      </trkpt>
      <trkpt lat="48.81686" lon="2.41135">
        <ele>89.6</ele>
        <time>2015-04-27T18:58:47.947Z</time>
      </trkpt>
      <trkpt lat="48.81685" lon="2.41143">
        <ele>89.5</ele>
        <time>2015-04-27T18:58:48.955Z</time>
      </trkpt>
      <trkpt lat="48.81682" lon="2.4115">
        <ele>89.2</ele>
        <time>2015-04-27T18:58:49.888Z</time>
      </trkpt>
      <trkpt lat="48.81681" lon="2.41158">
        <ele>88.8</ele>
        <time>2015-04-27T18:58:50.879Z</time>
      </trkpt>
      <trkpt lat="48.81679" lon="2.41167">
        <ele>88.7</ele>
        <time>2015-04-27T18:58:51.927Z</time>
      </trkpt>
      <trkpt lat="48.81678" lon="2.41175">
        <ele>88.7</ele>
        <time>2015-04-27T18:58:52.922Z</time>
      </trkpt>
      <trkpt lat="48.81678" lon="2.41184">
        <ele>88.2</ele>
        <time>2015-04-27T18:58:53.936Z</time>
      </trkpt>
      <trkpt lat="48.81677" lon="2.41193">
        <ele>88.1</ele>
        <time>2015-04-27T18:58:54.942Z</time>
      </trkpt>
      <trkpt lat="48.81678" lon="2.41203">
        <ele>87.8</ele>
        <time>2015-04-27T18:58:55.881Z</time>
      </trkpt>
      <trkpt lat="48.81677" lon="2.41211">
        <ele>87.7</ele>
        <time>2015-04-27T18:58:56.899Z</time>
      </trkpt>
      <trkpt lat="48.81676" lon="2.4122">
        <ele>87.3</ele>
        <time>2015-04-27T18:58:57.954Z</time>
      </trkpt>
      <trkpt lat="48.81676" lon="2.4123">
        <ele>87.2</ele>
        <time>2015-04-27T18:58:58.903Z</time>
      </trkpt>
      <trkpt lat="48.81675" lon="2.41238">
        <ele>87.1</ele>
        <time>2015-04-27T18:59:00.031Z</time>
      </trkpt>
      <trkpt lat="48.81675" lon="2.41246">
        <ele>87.2</ele>
        <time>2015-04-27T18:59:01.039Z</time>
      </trkpt>
      <trkpt lat="48.81676" lon="2.41255">
        <ele>87.3</ele>
        <time>2015-04-27T18:59:01.911Z</time>
      </trkpt>
      <trkpt lat="48.81675" lon="2.41264">
        <ele>87</ele>
        <time>2015-04-27T18:59:02.940Z</time>
      </trkpt>
      <trkpt lat="48.81674" lon="2.41273">
        <ele>86.8</ele>
        <time>2015-04-27T18:59:03.945Z</time>
      </trkpt>
      <trkpt lat="48.81674" lon="2.41282">
        <ele>86.9</ele>
        <time>2015-04-27T18:59:04.979Z</time>
      </trkpt>
      <trkpt lat="48.81674" lon="2.4129">
        <ele>86.8</ele>
        <time>2015-04-27T18:59:05.997Z</time>
      </trkpt>
      <trkpt lat="48.81673" lon="2.41299">
        <ele>86.8</ele>
        <time>2015-04-27T18:59:07.017Z</time>
      </trkpt>
      <trkpt lat="48.81672" lon="2.41307">
        <ele>86.9</ele>
        <time>2015-04-27T18:59:07.972Z</time>
      </trkpt>
      <trkpt lat="48.8167" lon="2.41315">
        <ele>87.3</ele>
        <time>2015-04-27T18:59:09.014Z</time>
      </trkpt>
      <trkpt lat="48.81669" lon="2.41322">
        <ele>87.5</ele>
        <time>2015-04-27T18:59:09.883Z</time>
      </trkpt>
      <trkpt lat="48.81666" lon="2.4133">
        <ele>87.6</ele>
        <time>2015-04-27T18:59:10.833Z</time>
      </trkpt>
      <trkpt lat="48.81663" lon="2.41338">
        <ele>87.7</ele>
        <time>2015-04-27T18:59:11.917Z</time>
      </trkpt>
      <trkpt lat="48.8166" lon="2.41347">
        <ele>87.7</ele>
        <time>2015-04-27T18:59:12.827Z</time>
      </trkpt>
      <trkpt lat="48.81658" lon="2.41356">
        <ele>87.7</ele>
        <time>2015-04-27T18:59:14.046Z</time>
      </trkpt>
      <trkpt lat="48.81659" lon="2.41367">
        <ele>88.3</ele>
        <time>2015-04-27T18:59:15.059Z</time>
      </trkpt>
      <trkpt lat="48.8166" lon="2.41377">
        <ele>88.5</ele>
        <time>2015-04-27T18:59:15.884Z</time>
      </trkpt>
      <trkpt lat="48.8166" lon="2.41387">
        <ele>88.7</ele>
        <time>2015-04-27T18:59:16.975Z</time>
      </trkpt>
      <trkpt lat="48.81662" lon="2.41397">
        <ele>89</ele>
        <time>2015-04-27T18:59:18.014Z</time>
      </trkpt>
      <trkpt lat="48.81663" lon="2.41405">
        <ele>89.3</ele>
        <time>2015-04-27T18:59:18.937Z</time>
      </trkpt>
      <trkpt lat="48.81663" lon="2.41413">
        <ele>89.5</ele>
        <time>2015-04-27T18:59:19.882Z</time>
      </trkpt>
      <trkpt lat="48.81663" lon="2.41421">
        <ele>89.7</ele>
        <time>2015-04-27T18:59:20.923Z</time>
      </trkpt>
      <trkpt lat="48.81662" lon="2.41428">
        <ele>90</ele>
        <time>2015-04-27T18:59:21.897Z</time>
      </trkpt>
      <trkpt lat="48.81663" lon="2.41436">
        <ele>90.1</ele>
        <time>2015-04-27T18:59:22.901Z</time>
      </trkpt>
      <trkpt lat="48.81662" lon="2.41444">
        <ele>90.3</ele>
        <time>2015-04-27T18:59:23.905Z</time>
      </trkpt>
      <trkpt lat="48.81662" lon="2.41452">
        <ele>90.4</ele>
        <time>2015-04-27T18:59:24.918Z</time>
      </trkpt>
      <trkpt lat="48.81662" lon="2.41461">
        <ele>90.3</ele>
        <time>2015-04-27T18:59:26.014Z</time>
      </trkpt>
      <trkpt lat="48.81663" lon="2.4147">
        <ele>90.2</ele>
        <time>2015-04-27T18:59:26.856Z</time>
      </trkpt>
      <trkpt lat="48.81663" lon="2.41479">
        <ele>90.1</ele>
        <time>2015-04-27T18:59:28.013Z</time>
      </trkpt>
      <trkpt lat="48.81663" lon="2.41488">
        <ele>89.8</ele>
        <time>2015-04-27T18:59:29.033Z</time>
      </trkpt>
      <trkpt lat="48.81663" lon="2.41495">
        <ele>89.6</ele>
        <time>2015-04-27T18:59:30.076Z</time>
      </trkpt>
      <trkpt lat="48.81663" lon="2.41503">
        <ele>89.4</ele>
        <time>2015-04-27T18:59:31.011Z</time>
      </trkpt>
      <trkpt lat="48.81664" lon="2.4151">
        <ele>89.4</ele>
        <time>2015-04-27T18:59:31.855Z</time>
      </trkpt>
      <trkpt lat="48.81666" lon="2.41516">
        <ele>89.3</ele>
        <time>2015-04-27T18:59:33.107Z</time>
      </trkpt>
      <trkpt lat="48.81666" lon="2.41522">
        <ele>89.5</ele>
        <time>2015-04-27T18:59:33.925Z</time>
      </trkpt>
      <trkpt lat="48.81667" lon="2.4153">
        <ele>89.6</ele>
        <time>2015-04-27T18:59:34.943Z</time>
      </trkpt>
      <trkpt lat="48.81667" lon="2.41539">
        <ele>89.7</ele>
        <time>2015-04-27T18:59:35.967Z</time>
      </trkpt>
      <trkpt lat="48.81667" lon="2.41546">
        <ele>89.8</ele>
        <time>2015-04-27T18:59:36.974Z</time>
      </trkpt>
      <trkpt lat="48.81668" lon="2.41554">
        <ele>89.5</ele>
        <time>2015-04-27T18:59:37.996Z</time>
      </trkpt>
      <trkpt lat="48.81669" lon="2.41562">
        <ele>89</ele>
        <time>2015-04-27T18:59:39.013Z</time>
      </trkpt>
      <trkpt lat="48.81671" lon="2.4157">
        <ele>88.5</ele>
        <time>2015-04-27T18:59:39.846Z</time>
      </trkpt>
      <trkpt lat="48.81673" lon="2.41578">
        <ele>88.1</ele>
        <time>2015-04-27T18:59:40.973Z</time>
      </trkpt>
      <trkpt lat="48.81674" lon="2.41591">
        <ele>87.1</ele>
        <time>2015-04-27T18:59:43.032Z</time>
      </trkpt>
      <trkpt lat="48.81676" lon="2.41598">
        <ele>85.9</ele>
        <time>2015-04-27T18:59:44.051Z</time>
      </trkpt>
      <trkpt lat="48.8168" lon="2.4161">
        <ele>84.2</ele>
        <time>2015-04-27T18:59:45.970Z</time>
      </trkpt>
      <trkpt lat="48.81681" lon="2.41617">
        <ele>84.4</ele>
        <time>2015-04-27T18:59:46.849Z</time>
      </trkpt>
      <trkpt lat="48.81681" lon="2.41625">
        <ele>84.1</ele>
        <time>2015-04-27T18:59:47.922Z</time>
      </trkpt>
      <trkpt lat="48.81682" lon="2.41634">
        <ele>84</ele>
        <time>2015-04-27T18:59:48.928Z</time>
      </trkpt>
      <trkpt lat="48.81683" lon="2.41642">
        <ele>84</ele>
        <time>2015-04-27T18:59:49.874Z</time>
      </trkpt>
      <trkpt lat="48.81683" lon="2.41652">
        <ele>84</ele>
        <time>2015-04-27T18:59:50.917Z</time>
      </trkpt>
      <trkpt lat="48.81683" lon="2.41662">
        <ele>84.1</ele>
        <time>2015-04-27T18:59:51.930Z</time>
      </trkpt>
      <trkpt lat="48.81684" lon="2.41673">
        <ele>84.2</ele>
        <time>2015-04-27T18:59:52.936Z</time>
      </trkpt>
      <trkpt lat="48.81685" lon="2.41683">
        <ele>84.2</ele>
        <time>2015-04-27T18:59:53.871Z</time>
      </trkpt>
      <trkpt lat="48.81685" lon="2.41695">
        <ele>84.5</ele>
        <time>2015-04-27T18:59:54.885Z</time>
      </trkpt>
      <trkpt lat="48.81686" lon="2.41706">
        <ele>84.7</ele>
        <time>2015-04-27T18:59:55.890Z</time>
      </trkpt>
      <trkpt lat="48.81688" lon="2.4172">
        <ele>84.9</ele>
        <time>2015-04-27T18:59:56.897Z</time>
      </trkpt>
      <trkpt lat="48.8169" lon="2.41732">
        <ele>84.9</ele>
        <time>2015-04-27T18:59:57.926Z</time>
      </trkpt>
      <trkpt lat="48.81692" lon="2.41742">
        <ele>85.1</ele>
        <time>2015-04-27T18:59:58.951Z</time>
      </trkpt>
      <trkpt lat="48.81694" lon="2.41751">
        <ele>84.8</ele>
        <time>2015-04-27T18:59:59.853Z</time>
      </trkpt>
      <trkpt lat="48.81696" lon="2.41761">
        <ele>84.8</ele>
        <time>2015-04-27T19:00:00.912Z</time>
      </trkpt>
      <trkpt lat="48.81698" lon="2.41773">
        <ele>84.2</ele>
        <time>2015-04-27T19:00:01.921Z</time>
      </trkpt>
      <trkpt lat="48.817" lon="2.41783">
        <ele>84.2</ele>
        <time>2015-04-27T19:00:02.931Z</time>
      </trkpt>
      <trkpt lat="48.81702" lon="2.41791">
        <ele>84.6</ele>
        <time>2015-04-27T19:00:03.941Z</time>
      </trkpt>
      <trkpt lat="48.81703" lon="2.41799">
        <ele>85.1</ele>
        <time>2015-04-27T19:00:04.949Z</time>
      </trkpt>
      <trkpt lat="48.81704" lon="2.41809">
        <ele>86</ele>
        <time>2015-04-27T19:00:05.903Z</time>
      </trkpt>
      <trkpt lat="48.81706" lon="2.41817">
        <ele>86.5</ele>
        <time>2015-04-27T19:00:06.914Z</time>
      </trkpt>
      <trkpt lat="48.81707" lon="2.41826">
        <ele>87</ele>
        <time>2015-04-27T19:00:07.963Z</time>
      </trkpt>
      <trkpt lat="48.81709" lon="2.41835">
        <ele>87.3</ele>
        <time>2015-04-27T19:00:09.015Z</time>
      </trkpt>
      <trkpt lat="48.8171" lon="2.41843">
        <ele>87.7</ele>
        <time>2015-04-27T19:00:10.038Z</time>
      </trkpt>
      <trkpt lat="48.81711" lon="2.4185">
        <ele>87.8</ele>
        <time>2015-04-27T19:00:11.047Z</time>
      </trkpt>
      <trkpt lat="48.81711" lon="2.41858">
        <ele>87.9</ele>
        <time>2015-04-27T19:00:11.975Z</time>
      </trkpt>
      <trkpt lat="48.81712" lon="2.41868">
        <ele>88.1</ele>
        <time>2015-04-27T19:00:12.883Z</time>
      </trkpt>
      <trkpt lat="48.81713" lon="2.41877">
        <ele>88.2</ele>
        <time>2015-04-27T19:00:13.914Z</time>
      </trkpt>
      <trkpt lat="48.81715" lon="2.41887">
        <ele>88</ele>
        <time>2015-04-27T19:00:14.924Z</time>
      </trkpt>
      <trkpt lat="48.81716" lon="2.41898">
        <ele>87.6</ele>
        <time>2015-04-27T19:00:15.959Z</time>
      </trkpt>
      <trkpt lat="48.81716" lon="2.41908">
        <ele>87.4</ele>
        <time>2015-04-27T19:00:16.850Z</time>
      </trkpt>
      <trkpt lat="48.81721" lon="2.41947">
        <ele>87.4</ele>
        <time>2015-04-27T19:00:21.003Z</time>
      </trkpt>
      <trkpt lat="48.81721" lon="2.41955">
        <ele>87.5</ele>
        <time>2015-04-27T19:00:22.002Z</time>
      </trkpt>
      <trkpt lat="48.81722" lon="2.41965">
        <ele>87.6</ele>
        <time>2015-04-27T19:00:23.011Z</time>
      </trkpt>
      <trkpt lat="48.81722" lon="2.41973">
        <ele>87.5</ele>
        <time>2015-04-27T19:00:24.023Z</time>
      </trkpt>
      <trkpt lat="48.81721" lon="2.41981">
        <ele>87.3</ele>
        <time>2015-04-27T19:00:24.846Z</time>
      </trkpt>
      <trkpt lat="48.81721" lon="2.41988">
        <ele>87</ele>
        <time>2015-04-27T19:00:25.866Z</time>
      </trkpt>
      <trkpt lat="48.8172" lon="2.41997">
        <ele>86.8</ele>
        <time>2015-04-27T19:00:26.918Z</time>
      </trkpt>
      <trkpt lat="48.81724" lon="2.42052">
        <ele>86.4</ele>
        <time>2015-04-27T19:00:31.846Z</time>
      </trkpt>
      <trkpt lat="48.81723" lon="2.42064">
        <ele>86.5</ele>
        <time>2015-04-27T19:00:33.090Z</time>
      </trkpt>
      <trkpt lat="48.81721" lon="2.42076">
        <ele>86.6</ele>
        <time>2015-04-27T19:00:33.989Z</time>
      </trkpt>
      <trkpt lat="48.81721" lon="2.42086">
        <ele>87.1</ele>
        <time>2015-04-27T19:00:35.030Z</time>
      </trkpt>
      <trkpt lat="48.8172" lon="2.42096">
        <ele>87.5</ele>
        <time>2015-04-27T19:00:35.957Z</time>
      </trkpt>
      <trkpt lat="48.8172" lon="2.42104">
        <ele>87.6</ele>
        <time>2015-04-27T19:00:36.952Z</time>
      </trkpt>
      <trkpt lat="48.81719" lon="2.42111">
        <ele>88.2</ele>
        <time>2015-04-27T19:00:37.818Z</time>
      </trkpt>
      <trkpt lat="48.81719" lon="2.42118">
        <ele>88.3</ele>
        <time>2015-04-27T19:00:38.825Z</time>
      </trkpt>
      <trkpt lat="48.81718" lon="2.42124">
        <ele>88.2</ele>
        <time>2015-04-27T19:00:39.983Z</time>
      </trkpt>
      <trkpt lat="48.81717" lon="2.42133">
        <ele>88.2</ele>
        <time>2015-04-27T19:00:41.030Z</time>
      </trkpt>
      <trkpt lat="48.81716" lon="2.4214">
        <ele>88.2</ele>
        <time>2015-04-27T19:00:41.979Z</time>
      </trkpt>
      <trkpt lat="48.81714" lon="2.42149">
        <ele>88.2</ele>
        <time>2015-04-27T19:00:43.963Z</time>
      </trkpt>
      <trkpt lat="48.81713" lon="2.42154">
        <ele>88.6</ele>
        <time>2015-04-27T19:00:45.112Z</time>
      </trkpt>
      <trkpt lat="48.81711" lon="2.42164">
        <ele>89.5</ele>
        <time>2015-04-27T19:00:46.976Z</time>
      </trkpt>
      <trkpt lat="48.8171" lon="2.42169">
        <ele>89.8</ele>
        <time>2015-04-27T19:00:47.880Z</time>
      </trkpt>
      <trkpt lat="48.8171" lon="2.42176">
        <ele>90.1</ele>
        <time>2015-04-27T19:00:48.899Z</time>
      </trkpt>
      <trkpt lat="48.81712" lon="2.42184">
        <ele>90</ele>
        <time>2015-04-27T19:00:49.978Z</time>
      </trkpt>
      <trkpt lat="48.81715" lon="2.42194">
        <ele>90.3</ele>
        <time>2015-04-27T19:00:50.853Z</time>
      </trkpt>
      <trkpt lat="48.81717" lon="2.42205">
        <ele>90.7</ele>
        <time>2015-04-27T19:00:51.901Z</time>
      </trkpt>
      <trkpt lat="48.8172" lon="2.42213">
        <ele>90.8</ele>
        <time>2015-04-27T19:00:52.907Z</time>
      </trkpt>
      <trkpt lat="48.81721" lon="2.42226">
        <ele>91</ele>
        <time>2015-04-27T19:00:53.884Z</time>
      </trkpt>
      <trkpt lat="48.81723" lon="2.42234">
        <ele>90.5</ele>
        <time>2015-04-27T19:00:54.913Z</time>
      </trkpt>
      <trkpt lat="48.81725" lon="2.42242">
        <ele>90.3</ele>
        <time>2015-04-27T19:00:55.934Z</time>
      </trkpt>
      <trkpt lat="48.81724" lon="2.4225">
        <ele>90</ele>
        <time>2015-04-27T19:00:57.031Z</time>
      </trkpt>
      <trkpt lat="48.81724" lon="2.42257">
        <ele>89.9</ele>
        <time>2015-04-27T19:00:58.031Z</time>
      </trkpt>
      <trkpt lat="48.81722" lon="2.42263">
        <ele>89.8</ele>
        <time>2015-04-27T19:00:58.866Z</time>
      </trkpt>
      <trkpt lat="48.81721" lon="2.4227">
        <ele>89.9</ele>
        <time>2015-04-27T19:00:59.984Z</time>
      </trkpt>
      <trkpt lat="48.8172" lon="2.42276">
        <ele>90.1</ele>
        <time>2015-04-27T19:01:00.868Z</time>
      </trkpt>
      <trkpt lat="48.81718" lon="2.42284">
        <ele>90.1</ele>
        <time>2015-04-27T19:01:01.915Z</time>
      </trkpt>
      <trkpt lat="48.81716" lon="2.42291">
        <ele>90.4</ele>
        <time>2015-04-27T19:01:02.924Z</time>
      </trkpt>
      <trkpt lat="48.81714" lon="2.42298">
        <ele>90.5</ele>
        <time>2015-04-27T19:01:03.943Z</time>
      </trkpt>
      <trkpt lat="48.81712" lon="2.42306">
        <ele>90.6</ele>
        <time>2015-04-27T19:01:05.007Z</time>
      </trkpt>
      <trkpt lat="48.81709" lon="2.42312">
        <ele>90</ele>
        <time>2015-04-27T19:01:06.011Z</time>
      </trkpt>
      <trkpt lat="48.81705" lon="2.42325">
        <ele>89.3</ele>
        <time>2015-04-27T19:01:08.053Z</time>
      </trkpt>
      <trkpt lat="48.81705" lon="2.42332">
        <ele>89.4</ele>
        <time>2015-04-27T19:01:09.050Z</time>
      </trkpt>
      <trkpt lat="48.81704" lon="2.4234">
        <ele>89.6</ele>
        <time>2015-04-27T19:01:09.970Z</time>
      </trkpt>
      <trkpt lat="48.81704" lon="2.42348">
        <ele>89.7</ele>
        <time>2015-04-27T19:01:11.003Z</time>
      </trkpt>
      <trkpt lat="48.81701" lon="2.42356">
        <ele>89.6</ele>
        <time>2015-04-27T19:01:12.035Z</time>
      </trkpt>
      <trkpt lat="48.817" lon="2.42364">
        <ele>89.7</ele>
        <time>2015-04-27T19:01:13.052Z</time>
      </trkpt>
      <trkpt lat="48.81699" lon="2.42373">
        <ele>89.8</ele>
        <time>2015-04-27T19:01:14.062Z</time>
      </trkpt>
      <trkpt lat="48.81698" lon="2.42382">
        <ele>90</ele>
        <time>2015-04-27T19:01:15.074Z</time>
      </trkpt>
      <trkpt lat="48.81697" lon="2.4239">
        <ele>90.5</ele>
        <time>2015-04-27T19:01:15.971Z</time>
      </trkpt>
      <trkpt lat="48.81696" lon="2.424">
        <ele>91</ele>
        <time>2015-04-27T19:01:16.856Z</time>
      </trkpt>
      <trkpt lat="48.81696" lon="2.42409">
        <ele>91.4</ele>
        <time>2015-04-27T19:01:17.879Z</time>
      </trkpt>
      <trkpt lat="48.81696" lon="2.42418">
        <ele>91.6</ele>
        <time>2015-04-27T19:01:18.900Z</time>
      </trkpt>
      <trkpt lat="48.81696" lon="2.42427">
        <ele>92</ele>
        <time>2015-04-27T19:01:19.909Z</time>
      </trkpt>
      <trkpt lat="48.81696" lon="2.42435">
        <ele>92.4</ele>
        <time>2015-04-27T19:01:20.945Z</time>
      </trkpt>
      <trkpt lat="48.81696" lon="2.42445">
        <ele>92.4</ele>
        <time>2015-04-27T19:01:21.915Z</time>
      </trkpt>
      <trkpt lat="48.81696" lon="2.42454">
        <ele>92.7</ele>
        <time>2015-04-27T19:01:23.005Z</time>
      </trkpt>
      <trkpt lat="48.81696" lon="2.42464">
        <ele>92.8</ele>
        <time>2015-04-27T19:01:23.879Z</time>
      </trkpt>
      <trkpt lat="48.81697" lon="2.42473">
        <ele>93</ele>
        <time>2015-04-27T19:01:24.875Z</time>
      </trkpt>
      <trkpt lat="48.81697" lon="2.42483">
        <ele>93.2</ele>
        <time>2015-04-27T19:01:25.894Z</time>
      </trkpt>
      <trkpt lat="48.81698" lon="2.42493">
        <ele>93.2</ele>
        <time>2015-04-27T19:01:26.901Z</time>
      </trkpt>
      <trkpt lat="48.81699" lon="2.42502">
        <ele>93.3</ele>
        <time>2015-04-27T19:01:27.921Z</time>
      </trkpt>
      <trkpt lat="48.81699" lon="2.42511">
        <ele>93.2</ele>
        <time>2015-04-27T19:01:28.934Z</time>
      </trkpt>
      <trkpt lat="48.81698" lon="2.4252">
        <ele>93</ele>
        <time>2015-04-27T19:01:29.940Z</time>
      </trkpt>
      <trkpt lat="48.81697" lon="2.42528">
        <ele>92.6</ele>
        <time>2015-04-27T19:01:30.946Z</time>
      </trkpt>
      <trkpt lat="48.81696" lon="2.42535">
        <ele>92.3</ele>
        <time>2015-04-27T19:01:31.955Z</time>
      </trkpt>
      <trkpt lat="48.81693" lon="2.42543">
        <ele>91.7</ele>
        <time>2015-04-27T19:01:32.857Z</time>
      </trkpt>
      <trkpt lat="48.81691" lon="2.42551">
        <ele>91.4</ele>
        <time>2015-04-27T19:01:33.962Z</time>
      </trkpt>
      <trkpt lat="48.81689" lon="2.42561">
        <ele>91.3</ele>
        <time>2015-04-27T19:01:35.007Z</time>
      </trkpt>
      <trkpt lat="48.81687" lon="2.42573">
        <ele>91</ele>
        <time>2015-04-27T19:01:36.027Z</time>
      </trkpt>
      <trkpt lat="48.81686" lon="2.42587">
        <ele>90.7</ele>
        <time>2015-04-27T19:01:37.024Z</time>
      </trkpt>
      <trkpt lat="48.81686" lon="2.42601">
        <ele>90.7</ele>
        <time>2015-04-27T19:01:38.042Z</time>
      </trkpt>
      <trkpt lat="48.81687" lon="2.42614">
        <ele>90.7</ele>
        <time>2015-04-27T19:01:39.065Z</time>
      </trkpt>
      <trkpt lat="48.81687" lon="2.42625">
        <ele>90.7</ele>
        <time>2015-04-27T19:01:40.071Z</time>
      </trkpt>
      <trkpt lat="48.81687" lon="2.42636">
        <ele>90.6</ele>
        <time>2015-04-27T19:01:40.848Z</time>
      </trkpt>
      <trkpt lat="48.81687" lon="2.42646">
        <ele>90.7</ele>
        <time>2015-04-27T19:01:41.856Z</time>
      </trkpt>
      <trkpt lat="48.81688" lon="2.42657">
        <ele>91.9</ele>
        <time>2015-04-27T19:01:42.876Z</time>
      </trkpt>
      <trkpt lat="48.81688" lon="2.42668">
        <ele>91.8</ele>
        <time>2015-04-27T19:01:43.887Z</time>
      </trkpt>
      <trkpt lat="48.81689" lon="2.42679">
        <ele>91.8</ele>
        <time>2015-04-27T19:01:44.893Z</time>
      </trkpt>
      <trkpt lat="48.8169" lon="2.42689">
        <ele>91.4</ele>
        <time>2015-04-27T19:01:45.902Z</time>
      </trkpt>
      <trkpt lat="48.81691" lon="2.427">
        <ele>91.3</ele>
        <time>2015-04-27T19:01:46.962Z</time>
      </trkpt>
      <trkpt lat="48.81692" lon="2.42711">
        <ele>91.2</ele>
        <time>2015-04-27T19:01:47.963Z</time>
      </trkpt>
      <trkpt lat="48.81693" lon="2.42722">
        <ele>90.9</ele>
        <time>2015-04-27T19:01:48.976Z</time>
      </trkpt>
      <trkpt lat="48.81695" lon="2.42733">
        <ele>91</ele>
        <time>2015-04-27T19:01:49.984Z</time>
      </trkpt>
      <trkpt lat="48.81696" lon="2.42743">
        <ele>90.9</ele>
        <time>2015-04-27T19:01:51.001Z</time>
      </trkpt>
      <trkpt lat="48.81697" lon="2.42754">
        <ele>90.8</ele>
        <time>2015-04-27T19:01:52.011Z</time>
      </trkpt>
      <trkpt lat="48.81697" lon="2.42765">
        <ele>90.5</ele>
        <time>2015-04-27T19:01:52.840Z</time>
      </trkpt>
      <trkpt lat="48.81695" lon="2.42777">
        <ele>90.5</ele>
        <time>2015-04-27T19:01:53.841Z</time>
      </trkpt>
      <trkpt lat="48.81693" lon="2.42788">
        <ele>90.8</ele>
        <time>2015-04-27T19:01:54.862Z</time>
      </trkpt>
      <trkpt lat="48.81691" lon="2.42799">
        <ele>91.1</ele>
        <time>2015-04-27T19:01:55.874Z</time>
      </trkpt>
      <trkpt lat="48.81689" lon="2.4281">
        <ele>91.1</ele>
        <time>2015-04-27T19:01:56.990Z</time>
      </trkpt>
      <trkpt lat="48.8169" lon="2.42821">
        <ele>91.1</ele>
        <time>2015-04-27T19:01:57.840Z</time>
      </trkpt>
      <trkpt lat="48.81689" lon="2.42832">
        <ele>91.2</ele>
        <time>2015-04-27T19:01:58.852Z</time>
      </trkpt>
      <trkpt lat="48.81687" lon="2.42843">
        <ele>91.4</ele>
        <time>2015-04-27T19:01:59.963Z</time>
      </trkpt>
      <trkpt lat="48.81686" lon="2.42852">
        <ele>91.7</ele>
        <time>2015-04-27T19:02:00.979Z</time>
      </trkpt>
      <trkpt lat="48.81683" lon="2.42863">
        <ele>91.8</ele>
        <time>2015-04-27T19:02:01.983Z</time>
      </trkpt>
      <trkpt lat="48.81682" lon="2.42874">
        <ele>91.8</ele>
        <time>2015-04-27T19:02:02.993Z</time>
      </trkpt>
      <trkpt lat="48.81683" lon="2.42884">
        <ele>92</ele>
        <time>2015-04-27T19:02:03.992Z</time>
      </trkpt>
      <trkpt lat="48.81684" lon="2.42894">
        <ele>92.1</ele>
        <time>2015-04-27T19:02:04.885Z</time>
      </trkpt>
      <trkpt lat="48.81686" lon="2.42904">
        <ele>92.2</ele>
        <time>2015-04-27T19:02:05.911Z</time>
      </trkpt>
      <trkpt lat="48.81689" lon="2.42912">
        <ele>92.1</ele>
        <time>2015-04-27T19:02:06.872Z</time>
      </trkpt>
      <trkpt lat="48.81691" lon="2.42921">
        <ele>91.8</ele>
        <time>2015-04-27T19:02:07.853Z</time>
      </trkpt>
      <trkpt lat="48.81692" lon="2.4293">
        <ele>91.8</ele>
        <time>2015-04-27T19:02:08.952Z</time>
      </trkpt>
      <trkpt lat="48.81692" lon="2.42939">
        <ele>92</ele>
        <time>2015-04-27T19:02:09.888Z</time>
      </trkpt>
      <trkpt lat="48.81693" lon="2.42948">
        <ele>92.1</ele>
        <time>2015-04-27T19:02:10.904Z</time>
      </trkpt>
      <trkpt lat="48.81693" lon="2.42956">
        <ele>91.9</ele>
        <time>2015-04-27T19:02:11.934Z</time>
      </trkpt>
      <trkpt lat="48.81693" lon="2.42964">
        <ele>91.3</ele>
        <time>2015-04-27T19:02:12.963Z</time>
      </trkpt>
      <trkpt lat="48.81692" lon="2.42972">
        <ele>91.2</ele>
        <time>2015-04-27T19:02:13.963Z</time>
      </trkpt>
      <trkpt lat="48.81692" lon="2.42981">
        <ele>91.2</ele>
        <time>2015-04-27T19:02:14.986Z</time>
      </trkpt>
      <trkpt lat="48.81691" lon="2.42991">
        <ele>91.1</ele>
        <time>2015-04-27T19:02:15.826Z</time>
      </trkpt>
      <trkpt lat="48.8169" lon="2.43">
        <ele>90.7</ele>
        <time>2015-04-27T19:02:16.832Z</time>
      </trkpt>
      <trkpt lat="48.8169" lon="2.4301">
        <ele>90.3</ele>
        <time>2015-04-27T19:02:17.854Z</time>
      </trkpt>
      <trkpt lat="48.81689" lon="2.4302">
        <ele>90.1</ele>
        <time>2015-04-27T19:02:18.862Z</time>
      </trkpt>
      <trkpt lat="48.81688" lon="2.4303">
        <ele>90</ele>
        <time>2015-04-27T19:02:19.871Z</time>
      </trkpt>
      <trkpt lat="48.81687" lon="2.43041">
        <ele>89.9</ele>
        <time>2015-04-27T19:02:20.885Z</time>
      </trkpt>
      <trkpt lat="48.81686" lon="2.43053">
        <ele>90.2</ele>
        <time>2015-04-27T19:02:21.905Z</time>
      </trkpt>
      <trkpt lat="48.81686" lon="2.43064">
        <ele>90.5</ele>
        <time>2015-04-27T19:02:22.913Z</time>
      </trkpt>
      <trkpt lat="48.81687" lon="2.43076">
        <ele>90.8</ele>
        <time>2015-04-27T19:02:23.974Z</time>
      </trkpt>
      <trkpt lat="48.81687" lon="2.43087">
        <ele>90.8</ele>
        <time>2015-04-27T19:02:24.990Z</time>
      </trkpt>
      <trkpt lat="48.81688" lon="2.43098">
        <ele>90.8</ele>
        <time>2015-04-27T19:02:25.999Z</time>
      </trkpt>
      <trkpt lat="48.81689" lon="2.43109">
        <ele>90.7</ele>
        <time>2015-04-27T19:02:27.003Z</time>
      </trkpt>
      <trkpt lat="48.81691" lon="2.4312">
        <ele>90.7</ele>
        <time>2015-04-27T19:02:27.867Z</time>
      </trkpt>
      <trkpt lat="48.81692" lon="2.4313">
        <ele>90.6</ele>
        <time>2015-04-27T19:02:28.967Z</time>
      </trkpt>
      <trkpt lat="48.81693" lon="2.4314">
        <ele>90.8</ele>
        <time>2015-04-27T19:02:29.868Z</time>
      </trkpt>
      <trkpt lat="48.81694" lon="2.43149">
        <ele>90.7</ele>
        <time>2015-04-27T19:02:30.881Z</time>
      </trkpt>
      <trkpt lat="48.81694" lon="2.43157">
        <ele>90.4</ele>
        <time>2015-04-27T19:02:31.891Z</time>
      </trkpt>
      <trkpt lat="48.81694" lon="2.43167">
        <ele>89.8</ele>
        <time>2015-04-27T19:02:32.892Z</time>
      </trkpt>
      <trkpt lat="48.81695" lon="2.43175">
        <ele>89.5</ele>
        <time>2015-04-27T19:02:33.898Z</time>
      </trkpt>
      <trkpt lat="48.81695" lon="2.43183">
        <ele>88.7</ele>
        <time>2015-04-27T19:02:34.920Z</time>
      </trkpt>
      <trkpt lat="48.81695" lon="2.4319">
        <ele>88.1</ele>
        <time>2015-04-27T19:02:35.926Z</time>
      </trkpt>
      <trkpt lat="48.81697" lon="2.43198">
        <ele>88.2</ele>
        <time>2015-04-27T19:02:36.962Z</time>
      </trkpt>
      <trkpt lat="48.81698" lon="2.43207">
        <ele>88.2</ele>
        <time>2015-04-27T19:02:37.976Z</time>
      </trkpt>
      <trkpt lat="48.817" lon="2.43216">
        <ele>88.3</ele>
        <time>2015-04-27T19:02:38.992Z</time>
      </trkpt>
      <trkpt lat="48.81701" lon="2.43225">
        <ele>88</ele>
        <time>2015-04-27T19:02:40.002Z</time>
      </trkpt>
      <trkpt lat="48.817" lon="2.43235">
        <ele>87.7</ele>
        <time>2015-04-27T19:02:41.014Z</time>
      </trkpt>
      <trkpt lat="48.817" lon="2.43246">
        <ele>87.5</ele>
        <time>2015-04-27T19:02:41.850Z</time>
      </trkpt>
      <trkpt lat="48.81698" lon="2.43259">
        <ele>87.4</ele>
        <time>2015-04-27T19:02:42.863Z</time>
      </trkpt>
      <trkpt lat="48.81696" lon="2.43273">
        <ele>87.5</ele>
        <time>2015-04-27T19:02:43.871Z</time>
      </trkpt>
      <trkpt lat="48.81695" lon="2.43285">
        <ele>87.2</ele>
        <time>2015-04-27T19:02:45.087Z</time>
      </trkpt>
      <trkpt lat="48.81693" lon="2.43296">
        <ele>87.1</ele>
        <time>2015-04-27T19:02:45.900Z</time>
      </trkpt>
      <trkpt lat="48.81692" lon="2.43308">
        <ele>87.2</ele>
        <time>2015-04-27T19:02:46.913Z</time>
      </trkpt>
      <trkpt lat="48.81689" lon="2.43319">
        <ele>86.9</ele>
        <time>2015-04-27T19:02:47.961Z</time>
      </trkpt>
      <trkpt lat="48.81686" lon="2.4333">
        <ele>86.7</ele>
        <time>2015-04-27T19:02:48.967Z</time>
      </trkpt>
      <trkpt lat="48.81683" lon="2.43341">
        <ele>86.4</ele>
        <time>2015-04-27T19:02:49.971Z</time>
      </trkpt>
      <trkpt lat="48.81681" lon="2.43349">
        <ele>86.5</ele>
        <time>2015-04-27T19:02:51.003Z</time>
      </trkpt>
      <trkpt lat="48.81678" lon="2.43357">
        <ele>86.7</ele>
        <time>2015-04-27T19:02:52.023Z</time>
      </trkpt>
      <trkpt lat="48.81676" lon="2.43364">
        <ele>86.8</ele>
        <time>2015-04-27T19:02:53.038Z</time>
      </trkpt>
      <trkpt lat="48.81675" lon="2.43373">
        <ele>86.9</ele>
        <time>2015-04-27T19:02:53.850Z</time>
      </trkpt>
      <trkpt lat="48.81676" lon="2.43383">
        <ele>87.1</ele>
        <time>2015-04-27T19:02:54.963Z</time>
      </trkpt>
      <trkpt lat="48.81676" lon="2.43392">
        <ele>87.2</ele>
        <time>2015-04-27T19:02:55.840Z</time>
      </trkpt>
      <trkpt lat="48.81675" lon="2.43401">
        <ele>87.1</ele>
        <time>2015-04-27T19:02:56.860Z</time>
      </trkpt>
      <trkpt lat="48.81674" lon="2.4341">
        <ele>86.7</ele>
        <time>2015-04-27T19:02:58.069Z</time>
      </trkpt>
      <trkpt lat="48.81675" lon="2.43418">
        <ele>86.9</ele>
        <time>2015-04-27T19:02:59.117Z</time>
      </trkpt>
      <trkpt lat="48.81674" lon="2.43426">
        <ele>87.1</ele>
        <time>2015-04-27T19:02:59.818Z</time>
      </trkpt>
      <trkpt lat="48.81673" lon="2.43435">
        <ele>87.2</ele>
        <time>2015-04-27T19:03:01.029Z</time>
      </trkpt>
      <trkpt lat="48.81672" lon="2.43444">
        <ele>87.4</ele>
        <time>2015-04-27T19:03:02.034Z</time>
      </trkpt>
      <trkpt lat="48.81672" lon="2.43451">
        <ele>87.7</ele>
        <time>2015-04-27T19:03:03.048Z</time>
      </trkpt>
      <trkpt lat="48.81672" lon="2.43458">
        <ele>87.6</ele>
        <time>2015-04-27T19:03:03.963Z</time>
      </trkpt>
      <trkpt lat="48.81672" lon="2.43466">
        <ele>87.7</ele>
        <time>2015-04-27T19:03:04.971Z</time>
      </trkpt>
      <trkpt lat="48.81669" lon="2.43475">
        <ele>87.5</ele>
        <time>2015-04-27T19:03:05.982Z</time>
      </trkpt>
      <trkpt lat="48.81667" lon="2.43483">
        <ele>87.4</ele>
        <time>2015-04-27T19:03:07.007Z</time>
      </trkpt>
      <trkpt lat="48.81665" lon="2.43491">
        <ele>87.4</ele>
        <time>2015-04-27T19:03:08.020Z</time>
      </trkpt>
      <trkpt lat="48.81665" lon="2.43498">
        <ele>87.5</ele>
        <time>2015-04-27T19:03:09.036Z</time>
      </trkpt>
      <trkpt lat="48.81665" lon="2.43506">
        <ele>87.9</ele>
        <time>2015-04-27T19:03:10.035Z</time>
      </trkpt>
      <trkpt lat="48.81666" lon="2.43519">
        <ele>88.4</ele>
        <time>2015-04-27T19:03:11.966Z</time>
      </trkpt>
      <trkpt lat="48.81667" lon="2.43526">
        <ele>88.8</ele>
        <time>2015-04-27T19:03:12.996Z</time>
      </trkpt>
      <trkpt lat="48.81671" lon="2.43535">
        <ele>88.6</ele>
        <time>2015-04-27T19:03:15.026Z</time>
      </trkpt>
      <trkpt lat="48.81673" lon="2.4354">
        <ele>88.6</ele>
        <time>2015-04-27T19:03:16.051Z</time>
      </trkpt>
      <trkpt lat="48.81674" lon="2.43552">
        <ele>89.1</ele>
        <time>2015-04-27T19:03:17.985Z</time>
      </trkpt>
      <trkpt lat="48.81673" lon="2.43558">
        <ele>89.3</ele>
        <time>2015-04-27T19:03:18.893Z</time>
      </trkpt>
      <trkpt lat="48.81673" lon="2.43566">
        <ele>89.6</ele>
        <time>2015-04-27T19:03:19.922Z</time>
      </trkpt>
      <trkpt lat="48.81677" lon="2.43572">
        <ele>89.8</ele>
        <time>2015-04-27T19:03:20.937Z</time>
      </trkpt>
      <trkpt lat="48.8168" lon="2.43578">
        <ele>90</ele>
        <time>2015-04-27T19:03:21.991Z</time>
      </trkpt>
      <trkpt lat="48.81682" lon="2.43584">
        <ele>90.2</ele>
        <time>2015-04-27T19:03:22.854Z</time>
      </trkpt>
      <trkpt lat="48.81684" lon="2.4359">
        <ele>90.4</ele>
        <time>2015-04-27T19:03:24.065Z</time>
      </trkpt>
      <trkpt lat="48.81686" lon="2.43597">
        <ele>90.9</ele>
        <time>2015-04-27T19:03:24.961Z</time>
      </trkpt>
      <trkpt lat="48.81688" lon="2.43604">
        <ele>91.2</ele>
        <time>2015-04-27T19:03:25.824Z</time>
      </trkpt>
      <trkpt lat="48.81691" lon="2.43611">
        <ele>91.2</ele>
        <time>2015-04-27T19:03:27.029Z</time>
      </trkpt>
      <trkpt lat="48.81693" lon="2.43619">
        <ele>91</ele>
        <time>2015-04-27T19:03:28.046Z</time>
      </trkpt>
      <trkpt lat="48.81695" lon="2.43627">
        <ele>90.9</ele>
        <time>2015-04-27T19:03:29.060Z</time>
      </trkpt>
      <trkpt lat="48.81697" lon="2.43635">
        <ele>91.1</ele>
        <time>2015-04-27T19:03:29.983Z</time>
      </trkpt>
      <trkpt lat="48.81698" lon="2.43645">
        <ele>91.2</ele>
        <time>2015-04-27T19:03:30.983Z</time>
      </trkpt>
      <trkpt lat="48.81696" lon="2.43659">
        <ele>91.2</ele>
        <time>2015-04-27T19:03:31.831Z</time>
      </trkpt>
      <trkpt lat="48.81694" lon="2.43672">
        <ele>90.8</ele>
        <time>2015-04-27T19:03:32.855Z</time>
      </trkpt>
      <trkpt lat="48.81693" lon="2.43685">
        <ele>90.2</ele>
        <time>2015-04-27T19:03:34.122Z</time>
      </trkpt>
      <trkpt lat="48.81692" lon="2.43697">
        <ele>89.9</ele>
        <time>2015-04-27T19:03:35.345Z</time>
      </trkpt>
      <trkpt lat="48.81693" lon="2.43708">
        <ele>89.7</ele>
        <time>2015-04-27T19:03:36.005Z</time>
      </trkpt>
      <trkpt lat="48.81693" lon="2.4372">
        <ele>89.4</ele>
        <time>2015-04-27T19:03:37.015Z</time>
      </trkpt>
      <trkpt lat="48.81695" lon="2.43731">
        <ele>89</ele>
        <time>2015-04-27T19:03:38.034Z</time>
      </trkpt>
      <trkpt lat="48.81696" lon="2.43742">
        <ele>88.8</ele>
        <time>2015-04-27T19:03:38.839Z</time>
      </trkpt>
      <trkpt lat="48.81697" lon="2.43754">
        <ele>88.6</ele>
        <time>2015-04-27T19:03:39.922Z</time>
      </trkpt>
      <trkpt lat="48.81698" lon="2.43764">
        <ele>88.3</ele>
        <time>2015-04-27T19:03:40.956Z</time>
      </trkpt>
      <trkpt lat="48.81699" lon="2.43776">
        <ele>88.5</ele>
        <time>2015-04-27T19:03:41.963Z</time>
      </trkpt>
      <trkpt lat="48.81701" lon="2.43788">
        <ele>88.2</ele>
        <time>2015-04-27T19:03:42.995Z</time>
      </trkpt>
      <trkpt lat="48.81702" lon="2.43799">
        <ele>87.9</ele>
        <time>2015-04-27T19:03:43.849Z</time>
      </trkpt>
      <trkpt lat="48.81704" lon="2.43811">
        <ele>87.6</ele>
        <time>2015-04-27T19:03:44.853Z</time>
      </trkpt>
      <trkpt lat="48.81705" lon="2.43822">
        <ele>87.5</ele>
        <time>2015-04-27T19:03:45.895Z</time>
      </trkpt>
      <trkpt lat="48.81706" lon="2.43833">
        <ele>87.3</ele>
        <time>2015-04-27T19:03:46.960Z</time>
      </trkpt>
      <trkpt lat="48.81706" lon="2.43847">
        <ele>87.6</ele>
        <time>2015-04-27T19:03:47.970Z</time>
      </trkpt>
      <trkpt lat="48.81706" lon="2.43859">
        <ele>88</ele>
        <time>2015-04-27T19:03:48.993Z</time>
      </trkpt>
      <trkpt lat="48.81706" lon="2.4387">
        <ele>88.2</ele>
        <time>2015-04-27T19:03:49.999Z</time>
      </trkpt>
      <trkpt lat="48.81705" lon="2.43881">
        <ele>88.4</ele>
        <time>2015-04-27T19:03:51.012Z</time>
      </trkpt>
      <trkpt lat="48.81704" lon="2.43891">
        <ele>88.9</ele>
        <time>2015-04-27T19:03:51.824Z</time>
      </trkpt>
      <trkpt lat="48.81701" lon="2.43903">
        <ele>89.6</ele>
        <time>2015-04-27T19:03:53.043Z</time>
      </trkpt>
      <trkpt lat="48.81697" lon="2.43914">
        <ele>90.1</ele>
        <time>2015-04-27T19:03:54.052Z</time>
      </trkpt>
      <trkpt lat="48.81695" lon="2.43924">
        <ele>90.7</ele>
        <time>2015-04-27T19:03:54.987Z</time>
      </trkpt>
      <trkpt lat="48.81694" lon="2.43934">
        <ele>90.9</ele>
        <time>2015-04-27T19:03:55.947Z</time>
      </trkpt>
      <trkpt lat="48.81692" lon="2.43944">
        <ele>90.9</ele>
        <time>2015-04-27T19:03:57.015Z</time>
      </trkpt>
      <trkpt lat="48.81691" lon="2.43952">
        <ele>90.8</ele>
        <time>2015-04-27T19:03:57.853Z</time>
      </trkpt>
      <trkpt lat="48.8169" lon="2.43961">
        <ele>90.8</ele>
        <time>2015-04-27T19:03:58.858Z</time>
      </trkpt>
      <trkpt lat="48.81689" lon="2.43969">
        <ele>91.1</ele>
        <time>2015-04-27T19:03:59.976Z</time>
      </trkpt>
      <trkpt lat="48.81687" lon="2.43977">
        <ele>91.6</ele>
        <time>2015-04-27T19:04:00.987Z</time>
      </trkpt>
      <trkpt lat="48.81686" lon="2.43983">
        <ele>91.9</ele>
        <time>2015-04-27T19:04:01.998Z</time>
      </trkpt>
      <trkpt lat="48.81687" lon="2.43994">
        <ele>91.8</ele>
        <time>2015-04-27T19:04:04.038Z</time>
      </trkpt>
      <trkpt lat="48.81686" lon="2.44">
        <ele>91.9</ele>
        <time>2015-04-27T19:04:05.044Z</time>
      </trkpt>
      <trkpt lat="48.81685" lon="2.4401">
        <ele>91.9</ele>
        <time>2015-04-27T19:04:06.979Z</time>
      </trkpt>
      <trkpt lat="48.81684" lon="2.44015">
        <ele>91.9</ele>
        <time>2015-04-27T19:04:07.990Z</time>
      </trkpt>
      <trkpt lat="48.81681" lon="2.44027">
        <ele>91.5</ele>
        <time>2015-04-27T19:04:11.057Z</time>
      </trkpt>
      <trkpt lat="48.8168" lon="2.44033">
        <ele>90.8</ele>
        <time>2015-04-27T19:04:12.038Z</time>
      </trkpt>
      <trkpt lat="48.81677" lon="2.44044">
        <ele>90.2</ele>
        <time>2015-04-27T19:04:15.084Z</time>
      </trkpt>
      <trkpt lat="48.81677" lon="2.44048">
        <ele>89.9</ele>
        <time>2015-04-27T19:04:16.068Z</time>
      </trkpt>
      <trkpt lat="48.81675" lon="2.44058">
        <ele>88.8</ele>
        <time>2015-04-27T19:04:17.997Z</time>
      </trkpt>
      <trkpt lat="48.81675" lon="2.44063">
        <ele>88.7</ele>
        <time>2015-04-27T19:04:19.019Z</time>
      </trkpt>
      <trkpt lat="48.81674" lon="2.4407">
        <ele>88.5</ele>
        <time>2015-04-27T19:04:19.863Z</time>
      </trkpt>
      <trkpt lat="48.81673" lon="2.44078">
        <ele>88.6</ele>
        <time>2015-04-27T19:04:20.872Z</time>
      </trkpt>
      <trkpt lat="48.81672" lon="2.44085">
        <ele>88.6</ele>
        <time>2015-04-27T19:04:21.919Z</time>
      </trkpt>
      <trkpt lat="48.81671" lon="2.44092">
        <ele>88.6</ele>
        <time>2015-04-27T19:04:22.938Z</time>
      </trkpt>
      <trkpt lat="48.81671" lon="2.44099">
        <ele>88.5</ele>
        <time>2015-04-27T19:04:23.968Z</time>
      </trkpt>
      <trkpt lat="48.81671" lon="2.44107">
        <ele>88.7</ele>
        <time>2015-04-27T19:04:24.877Z</time>
      </trkpt>
      <trkpt lat="48.8167" lon="2.44115">
        <ele>89.2</ele>
        <time>2015-04-27T19:04:26.008Z</time>
      </trkpt>
      <trkpt lat="48.81669" lon="2.44121">
        <ele>88.8</ele>
        <time>2015-04-27T19:04:27.024Z</time>
      </trkpt>
      <trkpt lat="48.81666" lon="2.44132">
        <ele>87.9</ele>
        <time>2015-04-27T19:04:29.049Z</time>
      </trkpt>
      <trkpt lat="48.81664" lon="2.4414">
        <ele>87.6</ele>
        <time>2015-04-27T19:04:30.067Z</time>
      </trkpt>
      <trkpt lat="48.81664" lon="2.44147">
        <ele>87.6</ele>
        <time>2015-04-27T19:04:30.947Z</time>
      </trkpt>
      <trkpt lat="48.81663" lon="2.44154">
        <ele>87.6</ele>
        <time>2015-04-27T19:04:31.963Z</time>
      </trkpt>
      <trkpt lat="48.81664" lon="2.44161">
        <ele>87.2</ele>
        <time>2015-04-27T19:04:32.848Z</time>
      </trkpt>
      <trkpt lat="48.81663" lon="2.44169">
        <ele>87.3</ele>
        <time>2015-04-27T19:04:33.891Z</time>
      </trkpt>
      <trkpt lat="48.81663" lon="2.44181">
        <ele>86.6</ele>
        <time>2015-04-27T19:04:35.996Z</time>
      </trkpt>
      <trkpt lat="48.81663" lon="2.44187">
        <ele>86.5</ele>
        <time>2015-04-27T19:04:36.876Z</time>
      </trkpt>
      <trkpt lat="48.81662" lon="2.44196">
        <ele>86.9</ele>
        <time>2015-04-27T19:04:37.968Z</time>
      </trkpt>
      <trkpt lat="48.81661" lon="2.44204">
        <ele>87.1</ele>
        <time>2015-04-27T19:04:39.010Z</time>
      </trkpt>
      <trkpt lat="48.81661" lon="2.44211">
        <ele>87.3</ele>
        <time>2015-04-27T19:04:40.026Z</time>
      </trkpt>
      <trkpt lat="48.81661" lon="2.44218">
        <ele>87.3</ele>
        <time>2015-04-27T19:04:41.035Z</time>
      </trkpt>
      <trkpt lat="48.8166" lon="2.44227">
        <ele>87.6</ele>
        <time>2015-04-27T19:04:41.941Z</time>
      </trkpt>
      <trkpt lat="48.8166" lon="2.44234">
        <ele>87.3</ele>
        <time>2015-04-27T19:04:42.960Z</time>
      </trkpt>
      <trkpt lat="48.8166" lon="2.44241">
        <ele>87.1</ele>
        <time>2015-04-27T19:04:43.970Z</time>
      </trkpt>
      <trkpt lat="48.8166" lon="2.44249">
        <ele>87.2</ele>
        <time>2015-04-27T19:04:44.858Z</time>
      </trkpt>
      <trkpt lat="48.81659" lon="2.44258">
        <ele>87</ele>
        <time>2015-04-27T19:04:45.894Z</time>
      </trkpt>
      <trkpt lat="48.81658" lon="2.44267">
        <ele>86.9</ele>
        <time>2015-04-27T19:04:46.905Z</time>
      </trkpt>
      <trkpt lat="48.81658" lon="2.44279">
        <ele>86.7</ele>
        <time>2015-04-27T19:04:48.944Z</time>
      </trkpt>
      <trkpt lat="48.8166" lon="2.44284">
        <ele>86.6</ele>
        <time>2015-04-27T19:04:49.843Z</time>
      </trkpt>
      <trkpt lat="48.81661" lon="2.44296">
        <ele>85.8</ele>
        <time>2015-04-27T19:04:52.040Z</time>
      </trkpt>
      <trkpt lat="48.81662" lon="2.44302">
        <ele>85.7</ele>
        <time>2015-04-27T19:04:53.053Z</time>
      </trkpt>
      <trkpt lat="48.81663" lon="2.44314">
        <ele>85.1</ele>
        <time>2015-04-27T19:04:54.961Z</time>
      </trkpt>
      <trkpt lat="48.81665" lon="2.44321">
        <ele>85.5</ele>
        <time>2015-04-27T19:04:56.033Z</time>
      </trkpt>
      <trkpt lat="48.81663" lon="2.44334">
        <ele>85.9</ele>
        <time>2015-04-27T19:04:57.908Z</time>
      </trkpt>
      <trkpt lat="48.81662" lon="2.44342">
        <ele>86.4</ele>
        <time>2015-04-27T19:04:58.932Z</time>
      </trkpt>
      <trkpt lat="48.81661" lon="2.44354">
        <ele>86.7</ele>
        <time>2015-04-27T19:05:00.954Z</time>
      </trkpt>
      <trkpt lat="48.81661" lon="2.44359">
        <ele>86.4</ele>
        <time>2015-04-27T19:05:02.006Z</time>
      </trkpt>
      <trkpt lat="48.81658" lon="2.44372">
        <ele>85.4</ele>
        <time>2015-04-27T19:05:04.085Z</time>
      </trkpt>
      <trkpt lat="48.81658" lon="2.44377">
        <ele>85.3</ele>
        <time>2015-04-27T19:05:05.015Z</time>
      </trkpt>
      <trkpt lat="48.81659" lon="2.44384">
        <ele>85.1</ele>
        <time>2015-04-27T19:05:05.950Z</time>
      </trkpt>
      <trkpt lat="48.8166" lon="2.44392">
        <ele>85.2</ele>
        <time>2015-04-27T19:05:06.976Z</time>
      </trkpt>
      <trkpt lat="48.81663" lon="2.44401">
        <ele>83.3</ele>
        <time>2015-04-27T19:05:07.983Z</time>
      </trkpt>
      <trkpt lat="48.81665" lon="2.44407">
        <ele>82.1</ele>
        <time>2015-04-27T19:05:09.070Z</time>
      </trkpt>
      <trkpt lat="48.81664" lon="2.44415">
        <ele>82.3</ele>
        <time>2015-04-27T19:07:51.044Z</time>
      </trkpt>
      <trkpt lat="48.81633" lon="2.44386">
        <ele>89.1</ele>
        <time>2015-04-27T19:07:51.967Z</time>
      </trkpt>
      <trkpt lat="48.8163" lon="2.44383">
        <ele>89.5</ele>
        <time>2015-04-27T19:09:53.009Z</time>
      </trkpt>
      <trkpt lat="48.81604" lon="2.44386">
        <ele>92.5</ele>
        <time>2015-04-27T19:09:54.023Z</time>
      </trkpt>
      <trkpt lat="48.81597" lon="2.44382">
        <ele>93.1</ele>
        <time>2015-04-27T19:09:58.010Z</time>
      </trkpt>
      <trkpt lat="48.81594" lon="2.44382">
        <ele>93.3</ele>
        <time>2015-04-27T19:09:59.022Z</time>
      </trkpt>
      <trkpt lat="48.81585" lon="2.44381">
        <ele>93.1</ele>
        <time>2015-04-27T19:10:05.107Z</time>
      </trkpt>
      <trkpt lat="48.81585" lon="2.44384">
        <ele>92.7</ele>
        <time>2015-04-27T19:10:06.110Z</time>
      </trkpt>
      <trkpt lat="48.81585" lon="2.44391">
        <ele>93</ele>
        <time>2015-04-27T19:11:13.014Z</time>
      </trkpt>
      <trkpt lat="48.81585" lon="2.44409">
        <ele>94.8</ele>
        <time>2015-04-27T19:11:14.059Z</time>
      </trkpt>
      <trkpt lat="48.81586" lon="2.44422">
        <ele>94.7</ele>
        <time>2015-04-27T19:11:24.030Z</time>
      </trkpt>
      <trkpt lat="48.81588" lon="2.44435">
        <ele>95.4</ele>
        <time>2015-04-27T19:11:25.037Z</time>
      </trkpt>
      <trkpt lat="48.81587" lon="2.44448">
        <ele>94.5</ele>
        <time>2015-04-27T19:11:28.986Z</time>
      </trkpt>
      <trkpt lat="48.81587" lon="2.44451">
        <ele>94.3</ele>
        <time>2015-04-27T19:11:29.998Z</time>
      </trkpt>
      <trkpt lat="48.81587" lon="2.44461">
        <ele>93.3</ele>
        <time>2015-04-27T19:11:33.068Z</time>
      </trkpt>
      <trkpt lat="48.81587" lon="2.44466">
        <ele>93.1</ele>
        <time>2015-04-27T19:11:34.021Z</time>
      </trkpt>
      <trkpt lat="48.81586" lon="2.44479">
        <ele>92.1</ele>
        <time>2015-04-27T19:11:37.069Z</time>
      </trkpt>
      <trkpt lat="48.81585" lon="2.44482">
        <ele>91.8</ele>
        <time>2015-04-27T19:11:37.959Z</time>
      </trkpt>
      <trkpt lat="48.81583" lon="2.44493">
        <ele>90.7</ele>
        <time>2015-04-27T19:11:41.021Z</time>
      </trkpt>
      <trkpt lat="48.81582" lon="2.44498">
        <ele>90.5</ele>
        <time>2015-04-27T19:11:42.036Z</time>
      </trkpt>
      <trkpt lat="48.81581" lon="2.44507">
        <ele>90.1</ele>
        <time>2015-04-27T19:11:44.014Z</time>
      </trkpt>
      <trkpt lat="48.8158" lon="2.44513">
        <ele>90.4</ele>
        <time>2015-04-27T19:11:45.056Z</time>
      </trkpt>
      <trkpt lat="48.81581" lon="2.44522">
        <ele>90.8</ele>
        <time>2015-04-27T19:11:47.009Z</time>
      </trkpt>
      <trkpt lat="48.81581" lon="2.44527">
        <ele>90.8</ele>
        <time>2015-04-27T19:11:48.043Z</time>
      </trkpt>
      <trkpt lat="48.81581" lon="2.44538">
        <ele>90.4</ele>
        <time>2015-04-27T19:11:49.969Z</time>
      </trkpt>
      <trkpt lat="48.81582" lon="2.44543">
        <ele>90.3</ele>
        <time>2015-04-27T19:11:51.030Z</time>
      </trkpt>
      <trkpt lat="48.81582" lon="2.44555">
        <ele>90</ele>
        <time>2015-04-27T19:11:53.940Z</time>
      </trkpt>
      <trkpt lat="48.81582" lon="2.44559">
        <ele>90</ele>
        <time>2015-04-27T19:11:54.980Z</time>
      </trkpt>
      <trkpt lat="48.81583" lon="2.44571">
        <ele>90.1</ele>
        <time>2015-04-27T19:11:59.008Z</time>
      </trkpt>
      <trkpt lat="48.81583" lon="2.44571">
        <ele>90.3</ele>
        <time>2015-04-27T19:11:59.940Z</time>
      </trkpt>
      <trkpt lat="48.81583" lon="2.44571">
        <ele>90.3</ele>
        <time>2015-04-27T19:12:29.992Z</time>
      </trkpt>
      <trkpt lat="48.81571" lon="2.44595">
        <ele>91.2</ele>
        <time>2015-04-27T19:12:30.967Z</time>
      </trkpt>
      <trkpt lat="48.81571" lon="2.44608">
        <ele>92</ele>
        <time>2015-04-27T19:12:34.036Z</time>
      </trkpt>
      <trkpt lat="48.81571" lon="2.44614">
        <ele>92</ele>
        <time>2015-04-27T19:12:35.050Z</time>
      </trkpt>
      <trkpt lat="48.81571" lon="2.44621">
        <ele>92</ele>
        <time>2015-04-27T19:12:35.976Z</time>
      </trkpt>
      <trkpt lat="48.81572" lon="2.44628">
        <ele>92.4</ele>
        <time>2015-04-27T19:12:36.978Z</time>
      </trkpt>
      <trkpt lat="48.81575" lon="2.4464">
        <ele>92.7</ele>
        <time>2015-04-27T19:12:39.016Z</time>
      </trkpt>
      <trkpt lat="48.81576" lon="2.44646">
        <ele>92.9</ele>
        <time>2015-04-27T19:12:40.050Z</time>
      </trkpt>
      <trkpt lat="48.81576" lon="2.44656">
        <ele>92.7</ele>
        <time>2015-04-27T19:12:41.987Z</time>
      </trkpt>
      <trkpt lat="48.81576" lon="2.4466">
        <ele>92.7</ele>
        <time>2015-04-27T19:12:42.999Z</time>
      </trkpt>
      <trkpt lat="48.81574" lon="2.44673">
        <ele>92.5</ele>
        <time>2015-04-27T19:12:45.025Z</time>
      </trkpt>
      <trkpt lat="48.81573" lon="2.4468">
        <ele>92.3</ele>
        <time>2015-04-27T19:12:46.032Z</time>
      </trkpt>
      <trkpt lat="48.81572" lon="2.44686">
        <ele>92</ele>
        <time>2015-04-27T19:12:47.056Z</time>
      </trkpt>
      <trkpt lat="48.81571" lon="2.44694">
        <ele>91.7</ele>
        <time>2015-04-27T19:12:48.068Z</time>
      </trkpt>
      <trkpt lat="48.81571" lon="2.44703">
        <ele>91.5</ele>
        <time>2015-04-27T19:12:48.974Z</time>
      </trkpt>
      <trkpt lat="48.81571" lon="2.44711">
        <ele>91.6</ele>
        <time>2015-04-27T19:12:49.979Z</time>
      </trkpt>
      <trkpt lat="48.81571" lon="2.44724">
        <ele>92.1</ele>
        <time>2015-04-27T19:12:52.064Z</time>
      </trkpt>
      <trkpt lat="48.81572" lon="2.44731">
        <ele>91.8</ele>
        <time>2015-04-27T19:12:52.972Z</time>
      </trkpt>
      <trkpt lat="48.81573" lon="2.44739">
        <ele>91.4</ele>
        <time>2015-04-27T19:12:53.976Z</time>
      </trkpt>
      <trkpt lat="48.81572" lon="2.44747">
        <ele>91.3</ele>
        <time>2015-04-27T19:12:55.007Z</time>
      </trkpt>
      <trkpt lat="48.81571" lon="2.44754">
        <ele>91.6</ele>
        <time>2015-04-27T19:12:56.040Z</time>
      </trkpt>
      <trkpt lat="48.81571" lon="2.44762">
        <ele>91.9</ele>
        <time>2015-04-27T19:12:57.052Z</time>
      </trkpt>
      <trkpt lat="48.81571" lon="2.44769">
        <ele>92.4</ele>
        <time>2015-04-27T19:12:58.054Z</time>
      </trkpt>
      <trkpt lat="48.8157" lon="2.44777">
        <ele>92.7</ele>
        <time>2015-04-27T19:12:59.061Z</time>
      </trkpt>
      <trkpt lat="48.81569" lon="2.44784">
        <ele>92.9</ele>
        <time>2015-04-27T19:12:59.983Z</time>
      </trkpt>
      <trkpt lat="48.81568" lon="2.44791">
        <ele>92.8</ele>
        <time>2015-04-27T19:13:00.995Z</time>
      </trkpt>
      <trkpt lat="48.81567" lon="2.44799">
        <ele>92.4</ele>
        <time>2015-04-27T19:13:02.035Z</time>
      </trkpt>
      <trkpt lat="48.81566" lon="2.44806">
        <ele>92</ele>
        <time>2015-04-27T19:13:03.070Z</time>
      </trkpt>
      <trkpt lat="48.81566" lon="2.44814">
        <ele>91.7</ele>
        <time>2015-04-27T19:13:03.991Z</time>
      </trkpt>
      <trkpt lat="48.81565" lon="2.44822">
        <ele>91.4</ele>
        <time>2015-04-27T19:13:05.014Z</time>
      </trkpt>
      <trkpt lat="48.81565" lon="2.44829">
        <ele>90.9</ele>
        <time>2015-04-27T19:13:06.029Z</time>
      </trkpt>
      <trkpt lat="48.81564" lon="2.44836">
        <ele>90.5</ele>
        <time>2015-04-27T19:13:07.042Z</time>
      </trkpt>
      <trkpt lat="48.81564" lon="2.44843">
        <ele>90.2</ele>
        <time>2015-04-27T19:13:08.058Z</time>
      </trkpt>
      <trkpt lat="48.81564" lon="2.4485">
        <ele>90.1</ele>
        <time>2015-04-27T19:13:09.073Z</time>
      </trkpt>
      <trkpt lat="48.81563" lon="2.44858">
        <ele>90.1</ele>
        <time>2015-04-27T19:13:10.070Z</time>
      </trkpt>
      <trkpt lat="48.81563" lon="2.44865">
        <ele>90.5</ele>
        <time>2015-04-27T19:13:11.007Z</time>
      </trkpt>
      <trkpt lat="48.81562" lon="2.44872">
        <ele>90.8</ele>
        <time>2015-04-27T19:13:12.004Z</time>
      </trkpt>
      <trkpt lat="48.81562" lon="2.44879">
        <ele>91.1</ele>
        <time>2015-04-27T19:13:13.006Z</time>
      </trkpt>
      <trkpt lat="48.81563" lon="2.44886">
        <ele>91.3</ele>
        <time>2015-04-27T19:13:14.021Z</time>
      </trkpt>
      <trkpt lat="48.81562" lon="2.44893">
        <ele>91.6</ele>
        <time>2015-04-27T19:13:15.109Z</time>
      </trkpt>
      <trkpt lat="48.81562" lon="2.449">
        <ele>91.8</ele>
        <time>2015-04-27T19:13:15.977Z</time>
      </trkpt>
      <trkpt lat="48.81563" lon="2.44908">
        <ele>91.9</ele>
        <time>2015-04-27T19:13:16.973Z</time>
      </trkpt>
      <trkpt lat="48.81563" lon="2.44915">
        <ele>92.1</ele>
        <time>2015-04-27T19:13:17.983Z</time>
      </trkpt>
      <trkpt lat="48.81563" lon="2.44922">
        <ele>92.1</ele>
        <time>2015-04-27T19:13:19.050Z</time>
      </trkpt>
      <trkpt lat="48.81562" lon="2.4493">
        <ele>92.1</ele>
        <time>2015-04-27T19:13:19.974Z</time>
      </trkpt>
      <trkpt lat="48.81562" lon="2.44938">
        <ele>92.2</ele>
        <time>2015-04-27T19:13:21.024Z</time>
      </trkpt>
      <trkpt lat="48.81563" lon="2.44946">
        <ele>92.3</ele>
        <time>2015-04-27T19:13:22.033Z</time>
      </trkpt>
      <trkpt lat="48.81563" lon="2.44954">
        <ele>92.4</ele>
        <time>2015-04-27T19:13:23.046Z</time>
      </trkpt>
      <trkpt lat="48.81562" lon="2.44967">
        <ele>92.1</ele>
        <time>2015-04-27T19:13:24.973Z</time>
      </trkpt>
      <trkpt lat="48.81561" lon="2.44974">
        <ele>92</ele>
        <time>2015-04-27T19:13:26.043Z</time>
      </trkpt>
      <trkpt lat="48.8156" lon="2.44981">
        <ele>92.1</ele>
        <time>2015-04-27T19:13:27.017Z</time>
      </trkpt>
      <trkpt lat="48.81559" lon="2.44989">
        <ele>92.5</ele>
        <time>2015-04-27T19:13:28.021Z</time>
      </trkpt>
      <trkpt lat="48.81558" lon="2.44997">
        <ele>92.6</ele>
        <time>2015-04-27T19:13:28.949Z</time>
      </trkpt>
      <trkpt lat="48.81557" lon="2.45005">
        <ele>92.8</ele>
        <time>2015-04-27T19:13:29.967Z</time>
      </trkpt>
      <trkpt lat="48.81556" lon="2.45013">
        <ele>93</ele>
        <time>2015-04-27T19:13:30.975Z</time>
      </trkpt>
      <trkpt lat="48.81554" lon="2.45023">
        <ele>91.6</ele>
        <time>2015-04-27T19:13:31.982Z</time>
      </trkpt>
      <trkpt lat="48.81551" lon="2.45032">
        <ele>90.7</ele>
        <time>2015-04-27T19:13:33.013Z</time>
      </trkpt>
      <trkpt lat="48.81548" lon="2.4504">
        <ele>90.2</ele>
        <time>2015-04-27T19:13:34.021Z</time>
      </trkpt>
      <trkpt lat="48.81546" lon="2.45047">
        <ele>89.9</ele>
        <time>2015-04-27T19:13:35.045Z</time>
      </trkpt>
      <trkpt lat="48.81544" lon="2.45054">
        <ele>89.5</ele>
        <time>2015-04-27T19:13:35.965Z</time>
      </trkpt>
      <trkpt lat="48.81542" lon="2.45062">
        <ele>88.6</ele>
        <time>2015-04-27T19:13:36.971Z</time>
      </trkpt>
      <trkpt lat="48.8154" lon="2.4507">
        <ele>88</ele>
        <time>2015-04-27T19:13:37.986Z</time>
      </trkpt>
      <trkpt lat="48.81538" lon="2.45081">
        <ele>87.8</ele>
        <time>2015-04-27T19:13:38.998Z</time>
      </trkpt>
      <trkpt lat="48.81537" lon="2.45089">
        <ele>87.2</ele>
        <time>2015-04-27T19:13:40.011Z</time>
      </trkpt>
      <trkpt lat="48.81534" lon="2.45097">
        <ele>87.1</ele>
        <time>2015-04-27T19:13:41.033Z</time>
      </trkpt>
      <trkpt lat="48.81531" lon="2.45105">
        <ele>87.3</ele>
        <time>2015-04-27T19:13:41.952Z</time>
      </trkpt>
      <trkpt lat="48.81528" lon="2.45111">
        <ele>87</ele>
        <time>2015-04-27T19:13:42.953Z</time>
      </trkpt>
      <trkpt lat="48.81525" lon="2.45117">
        <ele>86.7</ele>
        <time>2015-04-27T19:13:43.956Z</time>
      </trkpt>
      <trkpt lat="48.81522" lon="2.45124">
        <ele>86.6</ele>
        <time>2015-04-27T19:13:45.007Z</time>
      </trkpt>
      <trkpt lat="48.8152" lon="2.4513">
        <ele>86.6</ele>
        <time>2015-04-27T19:13:46.020Z</time>
      </trkpt>
      <trkpt lat="48.81516" lon="2.45134">
        <ele>86.6</ele>
        <time>2015-04-27T19:13:47.031Z</time>
      </trkpt>
      <trkpt lat="48.81512" lon="2.4514">
        <ele>86.7</ele>
        <time>2015-04-27T19:13:48.043Z</time>
      </trkpt>
      <trkpt lat="48.81509" lon="2.45145">
        <ele>86.8</ele>
        <time>2015-04-27T19:13:48.956Z</time>
      </trkpt>
      <trkpt lat="48.81505" lon="2.45151">
        <ele>86.5</ele>
        <time>2015-04-27T19:13:49.937Z</time>
      </trkpt>
      <trkpt lat="48.81502" lon="2.45157">
        <ele>86.3</ele>
        <time>2015-04-27T19:13:50.978Z</time>
      </trkpt>
      <trkpt lat="48.81499" lon="2.45162">
        <ele>86.1</ele>
        <time>2015-04-27T19:13:51.991Z</time>
      </trkpt>
      <trkpt lat="48.81496" lon="2.45168">
        <ele>85.8</ele>
        <time>2015-04-27T19:13:53.007Z</time>
      </trkpt>
      <trkpt lat="48.81492" lon="2.45173">
        <ele>85.8</ele>
        <time>2015-04-27T19:13:54.018Z</time>
      </trkpt>
      <trkpt lat="48.81489" lon="2.45179">
        <ele>85.8</ele>
        <time>2015-04-27T19:13:55.085Z</time>
      </trkpt>
      <trkpt lat="48.81485" lon="2.45184">
        <ele>85.7</ele>
        <time>2015-04-27T19:13:56.039Z</time>
      </trkpt>
      <trkpt lat="48.81481" lon="2.45191">
        <ele>86</ele>
        <time>2015-04-27T19:13:57.049Z</time>
      </trkpt>
      <trkpt lat="48.81477" lon="2.45197">
        <ele>86.2</ele>
        <time>2015-04-27T19:13:57.956Z</time>
      </trkpt>
      <trkpt lat="48.81473" lon="2.45202">
        <ele>86.1</ele>
        <time>2015-04-27T19:13:58.953Z</time>
      </trkpt>
      <trkpt lat="48.8147" lon="2.45207">
        <ele>85.8</ele>
        <time>2015-04-27T19:13:59.962Z</time>
      </trkpt>
      <trkpt lat="48.81466" lon="2.45212">
        <ele>86</ele>
        <time>2015-04-27T19:14:00.972Z</time>
      </trkpt>
      <trkpt lat="48.81463" lon="2.45216">
        <ele>86.2</ele>
        <time>2015-04-27T19:14:01.991Z</time>
      </trkpt>
      <trkpt lat="48.8146" lon="2.45222">
        <ele>86.5</ele>
        <time>2015-04-27T19:14:03.010Z</time>
      </trkpt>
      <trkpt lat="48.81456" lon="2.45226">
        <ele>86.6</ele>
        <time>2015-04-27T19:14:04.017Z</time>
      </trkpt>
      <trkpt lat="48.81452" lon="2.45231">
        <ele>86.7</ele>
        <time>2015-04-27T19:14:05.037Z</time>
      </trkpt>
      <trkpt lat="48.81448" lon="2.45236">
        <ele>86.9</ele>
        <time>2015-04-27T19:14:06.044Z</time>
      </trkpt>
      <trkpt lat="48.81444" lon="2.45241">
        <ele>86.9</ele>
        <time>2015-04-27T19:14:07.062Z</time>
      </trkpt>
      <trkpt lat="48.81439" lon="2.45247">
        <ele>87.1</ele>
        <time>2015-04-27T19:14:07.973Z</time>
      </trkpt>
      <trkpt lat="48.81435" lon="2.45253">
        <ele>87.1</ele>
        <time>2015-04-27T19:14:09.000Z</time>
      </trkpt>
      <trkpt lat="48.8143" lon="2.45259">
        <ele>87</ele>
        <time>2015-04-27T19:14:10.028Z</time>
      </trkpt>
      <trkpt lat="48.81425" lon="2.45265">
        <ele>87.2</ele>
        <time>2015-04-27T19:14:11.041Z</time>
      </trkpt>
      <trkpt lat="48.8142" lon="2.4527">
        <ele>87.1</ele>
        <time>2015-04-27T19:14:11.944Z</time>
      </trkpt>
      <trkpt lat="48.81416" lon="2.45276">
        <ele>87.1</ele>
        <time>2015-04-27T19:14:12.971Z</time>
      </trkpt>
      <trkpt lat="48.81411" lon="2.45281">
        <ele>87.2</ele>
        <time>2015-04-27T19:14:14.002Z</time>
      </trkpt>
      <trkpt lat="48.81407" lon="2.45286">
        <ele>87.2</ele>
        <time>2015-04-27T19:14:15.028Z</time>
      </trkpt>
      <trkpt lat="48.81403" lon="2.45291">
        <ele>87.1</ele>
        <time>2015-04-27T19:14:15.948Z</time>
      </trkpt>
      <trkpt lat="48.81399" lon="2.45295">
        <ele>87.4</ele>
        <time>2015-04-27T19:14:16.988Z</time>
      </trkpt>
      <trkpt lat="48.81395" lon="2.453">
        <ele>87.6</ele>
        <time>2015-04-27T19:14:18.004Z</time>
      </trkpt>
      <trkpt lat="48.81391" lon="2.45305">
        <ele>87.8</ele>
        <time>2015-04-27T19:14:19.016Z</time>
      </trkpt>
      <trkpt lat="48.81386" lon="2.45311">
        <ele>87.9</ele>
        <time>2015-04-27T19:14:20.032Z</time>
      </trkpt>
      <trkpt lat="48.81381" lon="2.45317">
        <ele>88.1</ele>
        <time>2015-04-27T19:14:21.085Z</time>
      </trkpt>
      <trkpt lat="48.81377" lon="2.45323">
        <ele>88.2</ele>
        <time>2015-04-27T19:14:21.956Z</time>
      </trkpt>
      <trkpt lat="48.81373" lon="2.45328">
        <ele>88.4</ele>
        <time>2015-04-27T19:14:22.970Z</time>
      </trkpt>
      <trkpt lat="48.81368" lon="2.45333">
        <ele>88.3</ele>
        <time>2015-04-27T19:14:23.987Z</time>
      </trkpt>
      <trkpt lat="48.81364" lon="2.45339">
        <ele>88.6</ele>
        <time>2015-04-27T19:14:25.000Z</time>
      </trkpt>
      <trkpt lat="48.81359" lon="2.45346">
        <ele>88.7</ele>
        <time>2015-04-27T19:14:26.011Z</time>
      </trkpt>
      <trkpt lat="48.81355" lon="2.45352">
        <ele>88.7</ele>
        <time>2015-04-27T19:14:27.043Z</time>
      </trkpt>
      <trkpt lat="48.81351" lon="2.45356">
        <ele>88.7</ele>
        <time>2015-04-27T19:14:28.041Z</time>
      </trkpt>
      <trkpt lat="48.81347" lon="2.45361">
        <ele>88.3</ele>
        <time>2015-04-27T19:14:29.068Z</time>
      </trkpt>
      <trkpt lat="48.81343" lon="2.45365">
        <ele>88.7</ele>
        <time>2015-04-27T19:14:29.981Z</time>
      </trkpt>
      <trkpt lat="48.81336" lon="2.45372">
        <ele>88.7</ele>
        <time>2015-04-27T19:14:32.026Z</time>
      </trkpt>
      <trkpt lat="48.81332" lon="2.45377">
        <ele>88.8</ele>
        <time>2015-04-27T19:14:33.079Z</time>
      </trkpt>
      <trkpt lat="48.81328" lon="2.45382">
        <ele>89</ele>
        <time>2015-04-27T19:14:33.962Z</time>
      </trkpt>
      <trkpt lat="48.81325" lon="2.45387">
        <ele>88.7</ele>
        <time>2015-04-27T19:14:34.981Z</time>
      </trkpt>
      <trkpt lat="48.81321" lon="2.45391">
        <ele>88.9</ele>
        <time>2015-04-27T19:14:36.031Z</time>
      </trkpt>
      <trkpt lat="48.81317" lon="2.45395">
        <ele>88.5</ele>
        <time>2015-04-27T19:14:37.046Z</time>
      </trkpt>
      <trkpt lat="48.81314" lon="2.45398">
        <ele>88.4</ele>
        <time>2015-04-27T19:14:38.124Z</time>
      </trkpt>
      <trkpt lat="48.81309" lon="2.45402">
        <ele>88.4</ele>
        <time>2015-04-27T19:14:39.058Z</time>
      </trkpt>
      <trkpt lat="48.81304" lon="2.45407">
        <ele>88.3</ele>
        <time>2015-04-27T19:14:40.088Z</time>
      </trkpt>
      <trkpt lat="48.81298" lon="2.45411">
        <ele>88.4</ele>
        <time>2015-04-27T19:14:40.980Z</time>
      </trkpt>
      <trkpt lat="48.81294" lon="2.45417">
        <ele>88.5</ele>
        <time>2015-04-27T19:14:41.984Z</time>
      </trkpt>
      <trkpt lat="48.81289" lon="2.45422">
        <ele>88.4</ele>
        <time>2015-04-27T19:14:42.991Z</time>
      </trkpt>
      <trkpt lat="48.81284" lon="2.45427">
        <ele>88.5</ele>
        <time>2015-04-27T19:14:44.002Z</time>
      </trkpt>
      <trkpt lat="48.81279" lon="2.45433">
        <ele>88.6</ele>
        <time>2015-04-27T19:14:45.016Z</time>
      </trkpt>
      <trkpt lat="48.81274" lon="2.45437">
        <ele>88.5</ele>
        <time>2015-04-27T19:14:46.033Z</time>
      </trkpt>
      <trkpt lat="48.81269" lon="2.45442">
        <ele>88.5</ele>
        <time>2015-04-27T19:14:47.041Z</time>
      </trkpt>
      <trkpt lat="48.81264" lon="2.45447">
        <ele>88.6</ele>
        <time>2015-04-27T19:14:47.951Z</time>
      </trkpt>
      <trkpt lat="48.81258" lon="2.45452">
        <ele>88.4</ele>
        <time>2015-04-27T19:14:49.158Z</time>
      </trkpt>
      <trkpt lat="48.81254" lon="2.45457">
        <ele>88.3</ele>
        <time>2015-04-27T19:14:49.963Z</time>
      </trkpt>
      <trkpt lat="48.8125" lon="2.45462">
        <ele>88.4</ele>
        <time>2015-04-27T19:14:51.030Z</time>
      </trkpt>
      <trkpt lat="48.81245" lon="2.45467">
        <ele>88.6</ele>
        <time>2015-04-27T19:14:52.027Z</time>
      </trkpt>
      <trkpt lat="48.81241" lon="2.4547">
        <ele>88.7</ele>
        <time>2015-04-27T19:14:53.038Z</time>
      </trkpt>
      <trkpt lat="48.81233" lon="2.45478">
        <ele>88.4</ele>
        <time>2015-04-27T19:14:54.987Z</time>
      </trkpt>
      <trkpt lat="48.8123" lon="2.45481">
        <ele>88.6</ele>
        <time>2015-04-27T19:14:56.007Z</time>
      </trkpt>
      <trkpt lat="48.81224" lon="2.45486">
        <ele>88.8</ele>
        <time>2015-04-27T19:14:58.092Z</time>
      </trkpt>
      <trkpt lat="48.8122" lon="2.45489">
        <ele>88.8</ele>
        <time>2015-04-27T19:14:58.976Z</time>
      </trkpt>
      <trkpt lat="48.81214" lon="2.45495">
        <ele>89.2</ele>
        <time>2015-04-27T19:15:01.006Z</time>
      </trkpt>
      <trkpt lat="48.81211" lon="2.45499">
        <ele>89.5</ele>
        <time>2015-04-27T19:15:02.018Z</time>
      </trkpt>
      <trkpt lat="48.81206" lon="2.45503">
        <ele>89.3</ele>
        <time>2015-04-27T19:15:03.030Z</time>
      </trkpt>
      <trkpt lat="48.81202" lon="2.45507">
        <ele>89</ele>
        <time>2015-04-27T19:15:04.051Z</time>
      </trkpt>
      <trkpt lat="48.81197" lon="2.45513">
        <ele>89</ele>
        <time>2015-04-27T19:15:04.979Z</time>
      </trkpt>
      <trkpt lat="48.81192" lon="2.45517">
        <ele>89</ele>
        <time>2015-04-27T19:15:05.975Z</time>
      </trkpt>
      <trkpt lat="48.81188" lon="2.45522">
        <ele>89</ele>
        <time>2015-04-27T19:15:06.992Z</time>
      </trkpt>
      <trkpt lat="48.81182" lon="2.45527">
        <ele>88.9</ele>
        <time>2015-04-27T19:15:08.000Z</time>
      </trkpt>
      <trkpt lat="48.81177" lon="2.45533">
        <ele>88.8</ele>
        <time>2015-04-27T19:15:09.023Z</time>
      </trkpt>
      <trkpt lat="48.81172" lon="2.45539">
        <ele>88.7</ele>
        <time>2015-04-27T19:15:10.027Z</time>
      </trkpt>
      <trkpt lat="48.81167" lon="2.45544">
        <ele>88.6</ele>
        <time>2015-04-27T19:15:11.045Z</time>
      </trkpt>
      <trkpt lat="48.81162" lon="2.45549">
        <ele>88.7</ele>
        <time>2015-04-27T19:15:12.056Z</time>
      </trkpt>
      <trkpt lat="48.81157" lon="2.45554">
        <ele>88.8</ele>
        <time>2015-04-27T19:15:12.982Z</time>
      </trkpt>
      <trkpt lat="48.81152" lon="2.45559">
        <ele>88.9</ele>
        <time>2015-04-27T19:15:13.988Z</time>
      </trkpt>
      <trkpt lat="48.81148" lon="2.45563">
        <ele>88.5</ele>
        <time>2015-04-27T19:15:15.055Z</time>
      </trkpt>
      <trkpt lat="48.81144" lon="2.45567">
        <ele>88.4</ele>
        <time>2015-04-27T19:15:16.071Z</time>
      </trkpt>
      <trkpt lat="48.81139" lon="2.45572">
        <ele>88.4</ele>
        <time>2015-04-27T19:15:17.081Z</time>
      </trkpt>
      <trkpt lat="48.81136" lon="2.45576">
        <ele>88.6</ele>
        <time>2015-04-27T19:15:17.996Z</time>
      </trkpt>
      <trkpt lat="48.8113" lon="2.45582">
        <ele>88.7</ele>
        <time>2015-04-27T19:15:20.010Z</time>
      </trkpt>
      <trkpt lat="48.81127" lon="2.45584">
        <ele>88.7</ele>
        <time>2015-04-27T19:15:21.083Z</time>
      </trkpt>
      <trkpt lat="48.81122" lon="2.45587">
        <ele>89.1</ele>
        <time>2015-04-27T19:15:23.004Z</time>
      </trkpt>
      <trkpt lat="48.81118" lon="2.45591">
        <ele>89</ele>
        <time>2015-04-27T19:15:24.006Z</time>
      </trkpt>
      <trkpt lat="48.81111" lon="2.45594">
        <ele>89.5</ele>
        <time>2015-04-27T19:15:28.067Z</time>
      </trkpt>
      <trkpt lat="48.81108" lon="2.45594">
        <ele>89.1</ele>
        <time>2015-04-27T19:15:29.048Z</time>
      </trkpt>
      <trkpt lat="48.81104" lon="2.45596">
        <ele>88.5</ele>
        <time>2015-04-27T19:15:33.070Z</time>
      </trkpt>
      <trkpt lat="48.81095" lon="2.45602">
        <ele>87</ele>
        <time>2015-04-27T19:15:34.085Z</time>
      </trkpt>
      <trkpt lat="48.81089" lon="2.45608">
        <ele>85.7</ele>
        <time>2015-04-27T19:15:35.020Z</time>
      </trkpt>
      <trkpt lat="48.81085" lon="2.45613">
        <ele>84.6</ele>
        <time>2015-04-27T19:15:36.043Z</time>
      </trkpt>
      <trkpt lat="48.81078" lon="2.45621">
        <ele>83.4</ele>
        <time>2015-04-27T19:15:38.002Z</time>
      </trkpt>
      <trkpt lat="48.81075" lon="2.45625">
        <ele>83.4</ele>
        <time>2015-04-27T19:15:39.010Z</time>
      </trkpt>
      <trkpt lat="48.8107" lon="2.45632">
        <ele>83.7</ele>
        <time>2015-04-27T19:15:41.050Z</time>
      </trkpt>
      <trkpt lat="48.81069" lon="2.45636">
        <ele>84.9</ele>
        <time>2015-04-27T19:15:41.957Z</time>
      </trkpt>
      <trkpt lat="48.81069" lon="2.45636">
        <ele>84.9</ele>
        <time>2015-04-27T19:16:02.071Z</time>
      </trkpt>
      <trkpt lat="48.81055" lon="2.45652">
        <ele>90.9</ele>
        <time>2015-04-27T19:16:03.269Z</time>
      </trkpt>
      <trkpt lat="48.81049" lon="2.45662">
        <ele>90.8</ele>
        <time>2015-04-27T19:16:07.019Z</time>
      </trkpt>
      <trkpt lat="48.81047" lon="2.45665">
        <ele>91.1</ele>
        <time>2015-04-27T19:16:08.034Z</time>
      </trkpt>
      <trkpt lat="48.81043" lon="2.45674">
        <ele>91.4</ele>
        <time>2015-04-27T19:16:10.060Z</time>
      </trkpt>
      <trkpt lat="48.81041" lon="2.45679">
        <ele>91.6</ele>
        <time>2015-04-27T19:16:10.987Z</time>
      </trkpt>
      <trkpt lat="48.81038" lon="2.45689">
        <ele>91.8</ele>
        <time>2015-04-27T19:16:13.034Z</time>
      </trkpt>
      <trkpt lat="48.81036" lon="2.45695">
        <ele>91.7</ele>
        <time>2015-04-27T19:16:14.047Z</time>
      </trkpt>
      <trkpt lat="48.81032" lon="2.45706">
        <ele>91.7</ele>
        <time>2015-04-27T19:16:15.988Z</time>
      </trkpt>
      <trkpt lat="48.81031" lon="2.45712">
        <ele>91.6</ele>
        <time>2015-04-27T19:16:17.002Z</time>
      </trkpt>
      <trkpt lat="48.81028" lon="2.45718">
        <ele>91.6</ele>
        <time>2015-04-27T19:16:18.018Z</time>
      </trkpt>
      <trkpt lat="48.81026" lon="2.45725">
        <ele>91.5</ele>
        <time>2015-04-27T19:16:19.042Z</time>
      </trkpt>
      <trkpt lat="48.81024" lon="2.45732">
        <ele>91.8</ele>
        <time>2015-04-27T19:16:20.064Z</time>
      </trkpt>
      <trkpt lat="48.81022" lon="2.45739">
        <ele>91.7</ele>
        <time>2015-04-27T19:16:21.081Z</time>
      </trkpt>
      <trkpt lat="48.81019" lon="2.45745">
        <ele>91.8</ele>
        <time>2015-04-27T19:16:21.984Z</time>
      </trkpt>
      <trkpt lat="48.81017" lon="2.45751">
        <ele>91.7</ele>
        <time>2015-04-27T19:16:23.008Z</time>
      </trkpt>
      <trkpt lat="48.81015" lon="2.45757">
        <ele>91.7</ele>
        <time>2015-04-27T19:16:24.016Z</time>
      </trkpt>
      <trkpt lat="48.81012" lon="2.45764">
        <ele>91.5</ele>
        <time>2015-04-27T19:16:25.021Z</time>
      </trkpt>
      <trkpt lat="48.81009" lon="2.4577">
        <ele>91.1</ele>
        <time>2015-04-27T19:16:26.039Z</time>
      </trkpt>
      <trkpt lat="48.81006" lon="2.45777">
        <ele>90.7</ele>
        <time>2015-04-27T19:16:27.047Z</time>
      </trkpt>
      <trkpt lat="48.81004" lon="2.45784">
        <ele>90.6</ele>
        <time>2015-04-27T19:16:27.977Z</time>
      </trkpt>
      <trkpt lat="48.81002" lon="2.4579">
        <ele>90.4</ele>
        <time>2015-04-27T19:16:29.028Z</time>
      </trkpt>
      <trkpt lat="48.80999" lon="2.45797">
        <ele>90.2</ele>
        <time>2015-04-27T19:16:30.093Z</time>
      </trkpt>
      <trkpt lat="48.80997" lon="2.45804">
        <ele>90.2</ele>
        <time>2015-04-27T19:16:31.081Z</time>
      </trkpt>
      <trkpt lat="48.80994" lon="2.45812">
        <ele>90.7</ele>
        <time>2015-04-27T19:16:31.978Z</time>
      </trkpt>
      <trkpt lat="48.80992" lon="2.45818">
        <ele>91</ele>
        <time>2015-04-27T19:16:33.032Z</time>
      </trkpt>
      <trkpt lat="48.8099" lon="2.45825">
        <ele>90.7</ele>
        <time>2015-04-27T19:16:34.032Z</time>
      </trkpt>
      <trkpt lat="48.80988" lon="2.45831">
        <ele>90.8</ele>
        <time>2015-04-27T19:16:35.047Z</time>
      </trkpt>
      <trkpt lat="48.80985" lon="2.4584">
        <ele>90.8</ele>
        <time>2015-04-27T19:16:35.943Z</time>
      </trkpt>
      <trkpt lat="48.80982" lon="2.45848">
        <ele>91.1</ele>
        <time>2015-04-27T19:16:36.997Z</time>
      </trkpt>
      <trkpt lat="48.8098" lon="2.45855">
        <ele>91.1</ele>
        <time>2015-04-27T19:16:38.037Z</time>
      </trkpt>
      <trkpt lat="48.80977" lon="2.45862">
        <ele>91</ele>
        <time>2015-04-27T19:16:39.043Z</time>
      </trkpt>
      <trkpt lat="48.80973" lon="2.4587">
        <ele>90.8</ele>
        <time>2015-04-27T19:16:39.942Z</time>
      </trkpt>
      <trkpt lat="48.8097" lon="2.45878">
        <ele>90.6</ele>
        <time>2015-04-27T19:16:41.013Z</time>
      </trkpt>
      <trkpt lat="48.80966" lon="2.45885">
        <ele>90.2</ele>
        <time>2015-04-27T19:16:42.018Z</time>
      </trkpt>
      <trkpt lat="48.80962" lon="2.45893">
        <ele>90.1</ele>
        <time>2015-04-27T19:16:43.030Z</time>
      </trkpt>
      <trkpt lat="48.80958" lon="2.459">
        <ele>89.7</ele>
        <time>2015-04-27T19:16:44.048Z</time>
      </trkpt>
      <trkpt lat="48.80955" lon="2.45908">
        <ele>89.7</ele>
        <time>2015-04-27T19:16:45.056Z</time>
      </trkpt>
      <trkpt lat="48.80951" lon="2.45915">
        <ele>89.7</ele>
        <time>2015-04-27T19:16:45.991Z</time>
      </trkpt>
      <trkpt lat="48.80948" lon="2.45921">
        <ele>89.5</ele>
        <time>2015-04-27T19:16:46.967Z</time>
      </trkpt>
      <trkpt lat="48.80945" lon="2.45928">
        <ele>89.3</ele>
        <time>2015-04-27T19:16:47.979Z</time>
      </trkpt>
      <trkpt lat="48.80942" lon="2.45936">
        <ele>89.5</ele>
        <time>2015-04-27T19:16:48.984Z</time>
      </trkpt>
      <trkpt lat="48.80938" lon="2.45944">
        <ele>89.6</ele>
        <time>2015-04-27T19:16:50.001Z</time>
      </trkpt>
      <trkpt lat="48.80935" lon="2.45952">
        <ele>89.6</ele>
        <time>2015-04-27T19:16:51.027Z</time>
      </trkpt>
      <trkpt lat="48.80931" lon="2.4596">
        <ele>89.2</ele>
        <time>2015-04-27T19:16:52.027Z</time>
      </trkpt>
      <trkpt lat="48.80928" lon="2.45967">
        <ele>89.3</ele>
        <time>2015-04-27T19:16:53.055Z</time>
      </trkpt>
      <trkpt lat="48.80924" lon="2.45974">
        <ele>89.5</ele>
        <time>2015-04-27T19:16:53.975Z</time>
      </trkpt>
      <trkpt lat="48.8092" lon="2.45981">
        <ele>89.5</ele>
        <time>2015-04-27T19:16:54.977Z</time>
      </trkpt>
      <trkpt lat="48.80917" lon="2.45988">
        <ele>89.4</ele>
        <time>2015-04-27T19:16:55.976Z</time>
      </trkpt>
      <trkpt lat="48.80913" lon="2.45995">
        <ele>89.5</ele>
        <time>2015-04-27T19:16:57.031Z</time>
      </trkpt>
      <trkpt lat="48.80909" lon="2.46002">
        <ele>89.6</ele>
        <time>2015-04-27T19:16:58.039Z</time>
      </trkpt>
      <trkpt lat="48.80906" lon="2.4601">
        <ele>89.1</ele>
        <time>2015-04-27T19:16:59.050Z</time>
      </trkpt>
      <trkpt lat="48.80902" lon="2.46017">
        <ele>88.8</ele>
        <time>2015-04-27T19:17:00.098Z</time>
      </trkpt>
      <trkpt lat="48.80898" lon="2.46024">
        <ele>88.7</ele>
        <time>2015-04-27T19:17:00.976Z</time>
      </trkpt>
      <trkpt lat="48.80894" lon="2.46031">
        <ele>88.5</ele>
        <time>2015-04-27T19:17:01.987Z</time>
      </trkpt>
      <trkpt lat="48.8089" lon="2.46038">
        <ele>88.1</ele>
        <time>2015-04-27T19:17:03.022Z</time>
      </trkpt>
      <trkpt lat="48.80886" lon="2.46044">
        <ele>87.9</ele>
        <time>2015-04-27T19:17:04.037Z</time>
      </trkpt>
      <trkpt lat="48.80883" lon="2.46052">
        <ele>87.6</ele>
        <time>2015-04-27T19:17:05.044Z</time>
      </trkpt>
      <trkpt lat="48.80878" lon="2.46057">
        <ele>87.3</ele>
        <time>2015-04-27T19:17:06.050Z</time>
      </trkpt>
      <trkpt lat="48.80874" lon="2.46064">
        <ele>86.9</ele>
        <time>2015-04-27T19:17:07.054Z</time>
      </trkpt>
      <trkpt lat="48.8087" lon="2.46071">
        <ele>86.8</ele>
        <time>2015-04-27T19:17:08.008Z</time>
      </trkpt>
      <trkpt lat="48.80866" lon="2.46078">
        <ele>86.8</ele>
        <time>2015-04-27T19:17:09.035Z</time>
      </trkpt>
      <trkpt lat="48.80862" lon="2.46086">
        <ele>87</ele>
        <time>2015-04-27T19:17:10.033Z</time>
      </trkpt>
      <trkpt lat="48.80858" lon="2.46095">
        <ele>87</ele>
        <time>2015-04-27T19:17:10.980Z</time>
      </trkpt>
      <trkpt lat="48.80855" lon="2.46103">
        <ele>87.2</ele>
        <time>2015-04-27T19:17:11.987Z</time>
      </trkpt>
      <trkpt lat="48.80851" lon="2.46111">
        <ele>87.4</ele>
        <time>2015-04-27T19:17:13.004Z</time>
      </trkpt>
      <trkpt lat="48.80847" lon="2.46119">
        <ele>87.2</ele>
        <time>2015-04-27T19:17:14.062Z</time>
      </trkpt>
      <trkpt lat="48.80843" lon="2.46127">
        <ele>87.1</ele>
        <time>2015-04-27T19:17:15.074Z</time>
      </trkpt>
      <trkpt lat="48.80839" lon="2.46135">
        <ele>87.1</ele>
        <time>2015-04-27T19:17:15.958Z</time>
      </trkpt>
      <trkpt lat="48.80835" lon="2.46143">
        <ele>87</ele>
        <time>2015-04-27T19:17:16.963Z</time>
      </trkpt>
      <trkpt lat="48.80831" lon="2.4615">
        <ele>86.9</ele>
        <time>2015-04-27T19:17:17.975Z</time>
      </trkpt>
      <trkpt lat="48.80827" lon="2.46158">
        <ele>87</ele>
        <time>2015-04-27T19:17:18.997Z</time>
      </trkpt>
      <trkpt lat="48.80823" lon="2.46166">
        <ele>87.1</ele>
        <time>2015-04-27T19:17:20.013Z</time>
      </trkpt>
      <trkpt lat="48.80819" lon="2.46173">
        <ele>86.9</ele>
        <time>2015-04-27T19:17:21.115Z</time>
      </trkpt>
      <trkpt lat="48.80814" lon="2.4618">
        <ele>87.2</ele>
        <time>2015-04-27T19:17:22.048Z</time>
      </trkpt>
      <trkpt lat="48.80811" lon="2.46191">
        <ele>87.4</ele>
        <time>2015-04-27T19:17:23.065Z</time>
      </trkpt>
      <trkpt lat="48.80807" lon="2.46197">
        <ele>87.5</ele>
        <time>2015-04-27T19:17:23.999Z</time>
      </trkpt>
      <trkpt lat="48.80804" lon="2.46206">
        <ele>87.4</ele>
        <time>2015-04-27T19:17:24.983Z</time>
      </trkpt>
      <trkpt lat="48.808" lon="2.46215">
        <ele>87.4</ele>
        <time>2015-04-27T19:17:26.028Z</time>
      </trkpt>
      <trkpt lat="48.80797" lon="2.46224">
        <ele>87.9</ele>
        <time>2015-04-27T19:17:27.033Z</time>
      </trkpt>
      <trkpt lat="48.80795" lon="2.46229">
        <ele>87.9</ele>
        <time>2015-04-27T19:17:28.043Z</time>
      </trkpt>
      <trkpt lat="48.80791" lon="2.46234">
        <ele>88.2</ele>
        <time>2015-04-27T19:17:29.054Z</time>
      </trkpt>
      <trkpt lat="48.80787" lon="2.4624">
        <ele>88.2</ele>
        <time>2015-04-27T19:17:30.063Z</time>
      </trkpt>
      <trkpt lat="48.80783" lon="2.46247">
        <ele>88.3</ele>
        <time>2015-04-27T19:17:30.988Z</time>
      </trkpt>
      <trkpt lat="48.8078" lon="2.46254">
        <ele>88.1</ele>
        <time>2015-04-27T19:17:31.958Z</time>
      </trkpt>
      <trkpt lat="48.80777" lon="2.4626">
        <ele>88.4</ele>
        <time>2015-04-27T19:17:32.982Z</time>
      </trkpt>
      <trkpt lat="48.80774" lon="2.46266">
        <ele>88.8</ele>
        <time>2015-04-27T19:17:34.008Z</time>
      </trkpt>
      <trkpt lat="48.8077" lon="2.46272">
        <ele>89</ele>
        <time>2015-04-27T19:17:35.015Z</time>
      </trkpt>
      <trkpt lat="48.80767" lon="2.46278">
        <ele>88.9</ele>
        <time>2015-04-27T19:17:36.023Z</time>
      </trkpt>
      <trkpt lat="48.80763" lon="2.46285">
        <ele>89</ele>
        <time>2015-04-27T19:17:36.926Z</time>
      </trkpt>
      <trkpt lat="48.80758" lon="2.46292">
        <ele>89.1</ele>
        <time>2015-04-27T19:17:37.937Z</time>
      </trkpt>
      <trkpt lat="48.80754" lon="2.46299">
        <ele>89.2</ele>
        <time>2015-04-27T19:17:38.963Z</time>
      </trkpt>
      <trkpt lat="48.80749" lon="2.46304">
        <ele>89.3</ele>
        <time>2015-04-27T19:17:40.007Z</time>
      </trkpt>
      <trkpt lat="48.80745" lon="2.4631">
        <ele>89.2</ele>
        <time>2015-04-27T19:17:41.027Z</time>
      </trkpt>
      <trkpt lat="48.8074" lon="2.46317">
        <ele>89.5</ele>
        <time>2015-04-27T19:17:42.078Z</time>
      </trkpt>
      <trkpt lat="48.80735" lon="2.46324">
        <ele>89.5</ele>
        <time>2015-04-27T19:17:42.974Z</time>
      </trkpt>
      <trkpt lat="48.80731" lon="2.4633">
        <ele>89.5</ele>
        <time>2015-04-27T19:17:44.015Z</time>
      </trkpt>
      <trkpt lat="48.80727" lon="2.46337">
        <ele>89.8</ele>
        <time>2015-04-27T19:17:45.106Z</time>
      </trkpt>
      <trkpt lat="48.80721" lon="2.46345">
        <ele>89.9</ele>
        <time>2015-04-27T19:17:45.989Z</time>
      </trkpt>
      <trkpt lat="48.80716" lon="2.46352">
        <ele>89.9</ele>
        <time>2015-04-27T19:17:47.024Z</time>
      </trkpt>
      <trkpt lat="48.80711" lon="2.46359">
        <ele>90.1</ele>
        <time>2015-04-27T19:17:48.096Z</time>
      </trkpt>
      <trkpt lat="48.80706" lon="2.46366">
        <ele>90.1</ele>
        <time>2015-04-27T19:17:48.981Z</time>
      </trkpt>
      <trkpt lat="48.80699" lon="2.46374">
        <ele>89</ele>
        <time>2015-04-27T19:17:49.994Z</time>
      </trkpt>
      <trkpt lat="48.80693" lon="2.46383">
        <ele>88.5</ele>
        <time>2015-04-27T19:17:51.066Z</time>
      </trkpt>
      <trkpt lat="48.80688" lon="2.46391">
        <ele>88.4</ele>
        <time>2015-04-27T19:17:52.012Z</time>
      </trkpt>
      <trkpt lat="48.80683" lon="2.46397">
        <ele>88.3</ele>
        <time>2015-04-27T19:17:53.054Z</time>
      </trkpt>
      <trkpt lat="48.80679" lon="2.46403">
        <ele>88.9</ele>
        <time>2015-04-27T19:17:53.949Z</time>
      </trkpt>
      <trkpt lat="48.80674" lon="2.4641">
        <ele>89.2</ele>
        <time>2015-04-27T19:17:54.990Z</time>
      </trkpt>
      <trkpt lat="48.8067" lon="2.46415">
        <ele>89.2</ele>
        <time>2015-04-27T19:17:56.020Z</time>
      </trkpt>
      <trkpt lat="48.80665" lon="2.46421">
        <ele>89.1</ele>
        <time>2015-04-27T19:17:57.060Z</time>
      </trkpt>
      <trkpt lat="48.8066" lon="2.46427">
        <ele>89.2</ele>
        <time>2015-04-27T19:17:57.986Z</time>
      </trkpt>
      <trkpt lat="48.80656" lon="2.46432">
        <ele>89.3</ele>
        <time>2015-04-27T19:17:58.991Z</time>
      </trkpt>
      <trkpt lat="48.80652" lon="2.46437">
        <ele>89.3</ele>
        <time>2015-04-27T19:18:00.009Z</time>
      </trkpt>
      <trkpt lat="48.80648" lon="2.46442">
        <ele>89.3</ele>
        <time>2015-04-27T19:18:01.033Z</time>
      </trkpt>
      <trkpt lat="48.80644" lon="2.46447">
        <ele>89.3</ele>
        <time>2015-04-27T19:18:02.057Z</time>
      </trkpt>
      <trkpt lat="48.8064" lon="2.46453">
        <ele>89.2</ele>
        <time>2015-04-27T19:18:03.091Z</time>
      </trkpt>
      <trkpt lat="48.80634" lon="2.46461">
        <ele>88.4</ele>
        <time>2015-04-27T19:18:03.973Z</time>
      </trkpt>
      <trkpt lat="48.80629" lon="2.46469">
        <ele>87.8</ele>
        <time>2015-04-27T19:18:05.010Z</time>
      </trkpt>
      <trkpt lat="48.80624" lon="2.46476">
        <ele>87.7</ele>
        <time>2015-04-27T19:18:06.039Z</time>
      </trkpt>
      <trkpt lat="48.80621" lon="2.46482">
        <ele>87.8</ele>
        <time>2015-04-27T19:18:07.044Z</time>
      </trkpt>
      <trkpt lat="48.80617" lon="2.46488">
        <ele>87.8</ele>
        <time>2015-04-27T19:18:07.945Z</time>
      </trkpt>
      <trkpt lat="48.80613" lon="2.46494">
        <ele>87.4</ele>
        <time>2015-04-27T19:18:08.998Z</time>
      </trkpt>
      <trkpt lat="48.80609" lon="2.465">
        <ele>87.3</ele>
        <time>2015-04-27T19:18:09.972Z</time>
      </trkpt>
      <trkpt lat="48.80606" lon="2.46505">
        <ele>87.1</ele>
        <time>2015-04-27T19:18:11.015Z</time>
      </trkpt>
      <trkpt lat="48.80601" lon="2.46511">
        <ele>87</ele>
        <time>2015-04-27T19:18:12.036Z</time>
      </trkpt>
      <trkpt lat="48.80597" lon="2.46517">
        <ele>86.9</ele>
        <time>2015-04-27T19:18:13.050Z</time>
      </trkpt>
      <trkpt lat="48.80592" lon="2.46523">
        <ele>86.9</ele>
        <time>2015-04-27T19:18:14.100Z</time>
      </trkpt>
      <trkpt lat="48.80588" lon="2.46529">
        <ele>86.7</ele>
        <time>2015-04-27T19:18:15.109Z</time>
      </trkpt>
      <trkpt lat="48.80584" lon="2.46535">
        <ele>86.7</ele>
        <time>2015-04-27T19:18:15.979Z</time>
      </trkpt>
      <trkpt lat="48.8058" lon="2.46542">
        <ele>86.7</ele>
        <time>2015-04-27T19:18:16.994Z</time>
      </trkpt>
      <trkpt lat="48.80575" lon="2.4655">
        <ele>86.8</ele>
        <time>2015-04-27T19:18:18.041Z</time>
      </trkpt>
      <trkpt lat="48.8057" lon="2.46557">
        <ele>87</ele>
        <time>2015-04-27T19:18:18.978Z</time>
      </trkpt>
      <trkpt lat="48.80565" lon="2.46564">
        <ele>87</ele>
        <time>2015-04-27T19:18:19.969Z</time>
      </trkpt>
      <trkpt lat="48.8056" lon="2.46571">
        <ele>86.7</ele>
        <time>2015-04-27T19:18:21.021Z</time>
      </trkpt>
      <trkpt lat="48.80555" lon="2.46578">
        <ele>86.6</ele>
        <time>2015-04-27T19:18:22.023Z</time>
      </trkpt>
      <trkpt lat="48.80551" lon="2.46584">
        <ele>86.6</ele>
        <time>2015-04-27T19:18:23.041Z</time>
      </trkpt>
      <trkpt lat="48.80546" lon="2.4659">
        <ele>86.7</ele>
        <time>2015-04-27T19:18:24.046Z</time>
      </trkpt>
      <trkpt lat="48.80541" lon="2.46597">
        <ele>86.6</ele>
        <time>2015-04-27T19:18:24.973Z</time>
      </trkpt>
      <trkpt lat="48.80537" lon="2.46604">
        <ele>86.9</ele>
        <time>2015-04-27T19:18:25.972Z</time>
      </trkpt>
      <trkpt lat="48.80533" lon="2.4661">
        <ele>87</ele>
        <time>2015-04-27T19:18:27.024Z</time>
      </trkpt>
      <trkpt lat="48.80529" lon="2.46616">
        <ele>86.9</ele>
        <time>2015-04-27T19:18:28.029Z</time>
      </trkpt>
      <trkpt lat="48.80524" lon="2.46623">
        <ele>86.7</ele>
        <time>2015-04-27T19:18:29.038Z</time>
      </trkpt>
      <trkpt lat="48.8052" lon="2.46629">
        <ele>86.6</ele>
        <time>2015-04-27T19:18:30.044Z</time>
      </trkpt>
      <trkpt lat="48.80517" lon="2.46636">
        <ele>86.4</ele>
        <time>2015-04-27T19:18:31.056Z</time>
      </trkpt>
      <trkpt lat="48.80512" lon="2.46642">
        <ele>86.4</ele>
        <time>2015-04-27T19:18:32.063Z</time>
      </trkpt>
      <trkpt lat="48.80508" lon="2.46647">
        <ele>86.2</ele>
        <time>2015-04-27T19:18:33.069Z</time>
      </trkpt>
      <trkpt lat="48.80504" lon="2.46651">
        <ele>86.2</ele>
        <time>2015-04-27T19:18:33.969Z</time>
      </trkpt>
      <trkpt lat="48.805" lon="2.46656">
        <ele>85.9</ele>
        <time>2015-04-27T19:18:35.014Z</time>
      </trkpt>
      <trkpt lat="48.80497" lon="2.46661">
        <ele>86</ele>
        <time>2015-04-27T19:18:36.027Z</time>
      </trkpt>
      <trkpt lat="48.80494" lon="2.46666">
        <ele>86.4</ele>
        <time>2015-04-27T19:18:36.944Z</time>
      </trkpt>
      <trkpt lat="48.8049" lon="2.46672">
        <ele>86.3</ele>
        <time>2015-04-27T19:18:37.949Z</time>
      </trkpt>
      <trkpt lat="48.80487" lon="2.46678">
        <ele>86.4</ele>
        <time>2015-04-27T19:18:39.007Z</time>
      </trkpt>
      <trkpt lat="48.80484" lon="2.46684">
        <ele>86.4</ele>
        <time>2015-04-27T19:18:40.007Z</time>
      </trkpt>
      <trkpt lat="48.8048" lon="2.4669">
        <ele>86.3</ele>
        <time>2015-04-27T19:18:41.032Z</time>
      </trkpt>
      <trkpt lat="48.80476" lon="2.46696">
        <ele>86.3</ele>
        <time>2015-04-27T19:18:42.043Z</time>
      </trkpt>
      <trkpt lat="48.80471" lon="2.46703">
        <ele>85.9</ele>
        <time>2015-04-27T19:18:43.063Z</time>
      </trkpt>
      <trkpt lat="48.80466" lon="2.4671">
        <ele>85.8</ele>
        <time>2015-04-27T19:18:44.069Z</time>
      </trkpt>
      <trkpt lat="48.80462" lon="2.46716">
        <ele>85.7</ele>
        <time>2015-04-27T19:18:45.019Z</time>
      </trkpt>
      <trkpt lat="48.80457" lon="2.46723">
        <ele>85.4</ele>
        <time>2015-04-27T19:18:46.010Z</time>
      </trkpt>
      <trkpt lat="48.80452" lon="2.4673">
        <ele>85.3</ele>
        <time>2015-04-27T19:18:47.015Z</time>
      </trkpt>
      <trkpt lat="48.80447" lon="2.46736">
        <ele>85.2</ele>
        <time>2015-04-27T19:18:48.036Z</time>
      </trkpt>
      <trkpt lat="48.80442" lon="2.46741">
        <ele>85.1</ele>
        <time>2015-04-27T19:18:49.089Z</time>
      </trkpt>
      <trkpt lat="48.80437" lon="2.46747">
        <ele>85.7</ele>
        <time>2015-04-27T19:18:49.980Z</time>
      </trkpt>
      <trkpt lat="48.80431" lon="2.46752">
        <ele>85.4</ele>
        <time>2015-04-27T19:18:51.029Z</time>
      </trkpt>
      <trkpt lat="48.80426" lon="2.46757">
        <ele>85.7</ele>
        <time>2015-04-27T19:18:52.019Z</time>
      </trkpt>
      <trkpt lat="48.80421" lon="2.46761">
        <ele>86</ele>
        <time>2015-04-27T19:18:53.027Z</time>
      </trkpt>
      <trkpt lat="48.80416" lon="2.46764">
        <ele>86</ele>
        <time>2015-04-27T19:18:54.036Z</time>
      </trkpt>
      <trkpt lat="48.80411" lon="2.46767">
        <ele>86.4</ele>
        <time>2015-04-27T19:18:55.052Z</time>
      </trkpt>
      <trkpt lat="48.80406" lon="2.46771">
        <ele>86.4</ele>
        <time>2015-04-27T19:18:56.064Z</time>
      </trkpt>
      <trkpt lat="48.80401" lon="2.46775">
        <ele>86.3</ele>
        <time>2015-04-27T19:18:57.082Z</time>
      </trkpt>
      <trkpt lat="48.80395" lon="2.46779">
        <ele>86.3</ele>
        <time>2015-04-27T19:18:57.969Z</time>
      </trkpt>
      <trkpt lat="48.80388" lon="2.46783">
        <ele>86.1</ele>
        <time>2015-04-27T19:18:58.971Z</time>
      </trkpt>
      <trkpt lat="48.80382" lon="2.46786">
        <ele>85.8</ele>
        <time>2015-04-27T19:18:59.983Z</time>
      </trkpt>
      <trkpt lat="48.80376" lon="2.46788">
        <ele>85.5</ele>
        <time>2015-04-27T19:19:01.026Z</time>
      </trkpt>
      <trkpt lat="48.80371" lon="2.46789">
        <ele>85.5</ele>
        <time>2015-04-27T19:19:02.031Z</time>
      </trkpt>
      <trkpt lat="48.80365" lon="2.4679">
        <ele>85.2</ele>
        <time>2015-04-27T19:19:03.023Z</time>
      </trkpt>
      <trkpt lat="48.8036" lon="2.46791">
        <ele>85.1</ele>
        <time>2015-04-27T19:19:04.034Z</time>
      </trkpt>
      <trkpt lat="48.80353" lon="2.46791">
        <ele>84.9</ele>
        <time>2015-04-27T19:19:05.057Z</time>
      </trkpt>
      <trkpt lat="48.80348" lon="2.46792">
        <ele>85.1</ele>
        <time>2015-04-27T19:19:06.072Z</time>
      </trkpt>
      <trkpt lat="48.80342" lon="2.46793">
        <ele>85.4</ele>
        <time>2015-04-27T19:19:06.974Z</time>
      </trkpt>
      <trkpt lat="48.80336" lon="2.46792">
        <ele>85.6</ele>
        <time>2015-04-27T19:19:07.988Z</time>
      </trkpt>
      <trkpt lat="48.8033" lon="2.46792">
        <ele>85.8</ele>
        <time>2015-04-27T19:19:09.017Z</time>
      </trkpt>
      <trkpt lat="48.80324" lon="2.46792">
        <ele>86</ele>
        <time>2015-04-27T19:19:10.070Z</time>
      </trkpt>
      <trkpt lat="48.80319" lon="2.46791">
        <ele>86.1</ele>
        <time>2015-04-27T19:19:10.974Z</time>
      </trkpt>
      <trkpt lat="48.80313" lon="2.46791">
        <ele>86</ele>
        <time>2015-04-27T19:19:11.979Z</time>
      </trkpt>
      <trkpt lat="48.80307" lon="2.46791">
        <ele>85.9</ele>
        <time>2015-04-27T19:19:13.015Z</time>
      </trkpt>
      <trkpt lat="48.80301" lon="2.46792">
        <ele>85.6</ele>
        <time>2015-04-27T19:19:14.016Z</time>
      </trkpt>
      <trkpt lat="48.80296" lon="2.46792">
        <ele>85.7</ele>
        <time>2015-04-27T19:19:15.032Z</time>
      </trkpt>
      <trkpt lat="48.8029" lon="2.46791">
        <ele>86.1</ele>
        <time>2015-04-27T19:19:16.050Z</time>
      </trkpt>
      <trkpt lat="48.80284" lon="2.46791">
        <ele>86.1</ele>
        <time>2015-04-27T19:19:16.975Z</time>
      </trkpt>
      <trkpt lat="48.80279" lon="2.4679">
        <ele>86</ele>
        <time>2015-04-27T19:19:17.973Z</time>
      </trkpt>
      <trkpt lat="48.80274" lon="2.4679">
        <ele>86.3</ele>
        <time>2015-04-27T19:19:18.973Z</time>
      </trkpt>
      <trkpt lat="48.80267" lon="2.46788">
        <ele>86.2</ele>
        <time>2015-04-27T19:19:19.979Z</time>
      </trkpt>
      <trkpt lat="48.80261" lon="2.46786">
        <ele>86.4</ele>
        <time>2015-04-27T19:19:21.033Z</time>
      </trkpt>
      <trkpt lat="48.80255" lon="2.46783">
        <ele>86.7</ele>
        <time>2015-04-27T19:19:22.044Z</time>
      </trkpt>
      <trkpt lat="48.80249" lon="2.4678">
        <ele>86.8</ele>
        <time>2015-04-27T19:19:23.058Z</time>
      </trkpt>
      <trkpt lat="48.80243" lon="2.46778">
        <ele>87</ele>
        <time>2015-04-27T19:19:23.952Z</time>
      </trkpt>
      <trkpt lat="48.80237" lon="2.46776">
        <ele>86.8</ele>
        <time>2015-04-27T19:19:24.996Z</time>
      </trkpt>
      <trkpt lat="48.80231" lon="2.46773">
        <ele>87</ele>
        <time>2015-04-27T19:19:26.008Z</time>
      </trkpt>
      <trkpt lat="48.80224" lon="2.46771">
        <ele>87.1</ele>
        <time>2015-04-27T19:19:27.020Z</time>
      </trkpt>
      <trkpt lat="48.80218" lon="2.46769">
        <ele>87.2</ele>
        <time>2015-04-27T19:19:28.021Z</time>
      </trkpt>
      <trkpt lat="48.80213" lon="2.46766">
        <ele>87.2</ele>
        <time>2015-04-27T19:19:29.055Z</time>
      </trkpt>
      <trkpt lat="48.80207" lon="2.46763">
        <ele>87.1</ele>
        <time>2015-04-27T19:19:30.065Z</time>
      </trkpt>
      <trkpt lat="48.80202" lon="2.46759">
        <ele>87.2</ele>
        <time>2015-04-27T19:19:30.975Z</time>
      </trkpt>
      <trkpt lat="48.80196" lon="2.46757">
        <ele>86.9</ele>
        <time>2015-04-27T19:19:31.971Z</time>
      </trkpt>
      <trkpt lat="48.8019" lon="2.46755">
        <ele>86.8</ele>
        <time>2015-04-27T19:19:33.007Z</time>
      </trkpt>
      <trkpt lat="48.80184" lon="2.46753">
        <ele>86.5</ele>
        <time>2015-04-27T19:19:34.017Z</time>
      </trkpt>
      <trkpt lat="48.80178" lon="2.4675">
        <ele>86.3</ele>
        <time>2015-04-27T19:19:35.017Z</time>
      </trkpt>
      <trkpt lat="48.80171" lon="2.46747">
        <ele>86.4</ele>
        <time>2015-04-27T19:19:36.024Z</time>
      </trkpt>
      <trkpt lat="48.80166" lon="2.46745">
        <ele>86.3</ele>
        <time>2015-04-27T19:19:37.031Z</time>
      </trkpt>
      <trkpt lat="48.80161" lon="2.46741">
        <ele>86.4</ele>
        <time>2015-04-27T19:19:37.943Z</time>
      </trkpt>
      <trkpt lat="48.80156" lon="2.46737">
        <ele>86.5</ele>
        <time>2015-04-27T19:19:39.021Z</time>
      </trkpt>
      <trkpt lat="48.80152" lon="2.46733">
        <ele>86.8</ele>
        <time>2015-04-27T19:19:39.982Z</time>
      </trkpt>
      <trkpt lat="48.80146" lon="2.4673">
        <ele>86.7</ele>
        <time>2015-04-27T19:19:40.983Z</time>
      </trkpt>
      <trkpt lat="48.8014" lon="2.46728">
        <ele>87.1</ele>
        <time>2015-04-27T19:19:42.167Z</time>
      </trkpt>
      <trkpt lat="48.80135" lon="2.46725">
        <ele>86.9</ele>
        <time>2015-04-27T19:19:42.953Z</time>
      </trkpt>
      <trkpt lat="48.8013" lon="2.46722">
        <ele>87</ele>
        <time>2015-04-27T19:19:44.000Z</time>
      </trkpt>
      <trkpt lat="48.80125" lon="2.46719">
        <ele>86.6</ele>
        <time>2015-04-27T19:19:45.035Z</time>
      </trkpt>
      <trkpt lat="48.8012" lon="2.46716">
        <ele>86.4</ele>
        <time>2015-04-27T19:19:45.972Z</time>
      </trkpt>
      <trkpt lat="48.80114" lon="2.46713">
        <ele>86.3</ele>
        <time>2015-04-27T19:19:46.974Z</time>
      </trkpt>
      <trkpt lat="48.80108" lon="2.4671">
        <ele>86.1</ele>
        <time>2015-04-27T19:19:47.991Z</time>
      </trkpt>
      <trkpt lat="48.80102" lon="2.46708">
        <ele>85.4</ele>
        <time>2015-04-27T19:19:49.012Z</time>
      </trkpt>
      <trkpt lat="48.80095" lon="2.46706">
        <ele>83.8</ele>
        <time>2015-04-27T19:19:50.023Z</time>
      </trkpt>
      <trkpt lat="48.80089" lon="2.46702">
        <ele>83.2</ele>
        <time>2015-04-27T19:19:51.113Z</time>
      </trkpt>
      <trkpt lat="48.80083" lon="2.46696">
        <ele>83.1</ele>
        <time>2015-04-27T19:19:51.977Z</time>
      </trkpt>
      <trkpt lat="48.80077" lon="2.46691">
        <ele>82.9</ele>
        <time>2015-04-27T19:19:53.027Z</time>
      </trkpt>
      <trkpt lat="48.80071" lon="2.46687">
        <ele>82.7</ele>
        <time>2015-04-27T19:19:54.048Z</time>
      </trkpt>
      <trkpt lat="48.80065" lon="2.46682">
        <ele>82.5</ele>
        <time>2015-04-27T19:19:55.054Z</time>
      </trkpt>
      <trkpt lat="48.8006" lon="2.46678">
        <ele>82.4</ele>
        <time>2015-04-27T19:19:56.066Z</time>
      </trkpt>
      <trkpt lat="48.80054" lon="2.46674">
        <ele>82.2</ele>
        <time>2015-04-27T19:19:57.151Z</time>
      </trkpt>
      <trkpt lat="48.80049" lon="2.46668">
        <ele>82.2</ele>
        <time>2015-04-27T19:19:57.968Z</time>
      </trkpt>
      <trkpt lat="48.80045" lon="2.46662">
        <ele>82.4</ele>
        <time>2015-04-27T19:19:59.009Z</time>
      </trkpt>
      <trkpt lat="48.80041" lon="2.46657">
        <ele>82.6</ele>
        <time>2015-04-27T19:20:00.030Z</time>
      </trkpt>
      <trkpt lat="48.80036" lon="2.46653">
        <ele>82.6</ele>
        <time>2015-04-27T19:20:01.042Z</time>
      </trkpt>
      <trkpt lat="48.80031" lon="2.46648">
        <ele>82.5</ele>
        <time>2015-04-27T19:20:02.045Z</time>
      </trkpt>
      <trkpt lat="48.80025" lon="2.46645">
        <ele>82.8</ele>
        <time>2015-04-27T19:20:03.020Z</time>
      </trkpt>
      <trkpt lat="48.8002" lon="2.46642">
        <ele>83.2</ele>
        <time>2015-04-27T19:20:04.004Z</time>
      </trkpt>
      <trkpt lat="48.80015" lon="2.46638">
        <ele>83.5</ele>
        <time>2015-04-27T19:20:04.999Z</time>
      </trkpt>
      <trkpt lat="48.8001" lon="2.46634">
        <ele>83.8</ele>
        <time>2015-04-27T19:20:06.012Z</time>
      </trkpt>
      <trkpt lat="48.80005" lon="2.46629">
        <ele>84</ele>
        <time>2015-04-27T19:20:07.017Z</time>
      </trkpt>
      <trkpt lat="48.80001" lon="2.46623">
        <ele>84.1</ele>
        <time>2015-04-27T19:20:08.029Z</time>
      </trkpt>
      <trkpt lat="48.79996" lon="2.46619">
        <ele>84.4</ele>
        <time>2015-04-27T19:20:09.005Z</time>
      </trkpt>
      <trkpt lat="48.79991" lon="2.46616">
        <ele>84.6</ele>
        <time>2015-04-27T19:20:10.024Z</time>
      </trkpt>
      <trkpt lat="48.79987" lon="2.46612">
        <ele>84.4</ele>
        <time>2015-04-27T19:20:10.990Z</time>
      </trkpt>
      <trkpt lat="48.79983" lon="2.46608">
        <ele>84.3</ele>
        <time>2015-04-27T19:20:12.015Z</time>
      </trkpt>
      <trkpt lat="48.79979" lon="2.46604">
        <ele>84.2</ele>
        <time>2015-04-27T19:20:12.979Z</time>
      </trkpt>
      <trkpt lat="48.79975" lon="2.46601">
        <ele>84.3</ele>
        <time>2015-04-27T19:20:13.968Z</time>
      </trkpt>
      <trkpt lat="48.79969" lon="2.46598">
        <ele>84.5</ele>
        <time>2015-04-27T19:20:15.006Z</time>
      </trkpt>
      <trkpt lat="48.79964" lon="2.46596">
        <ele>84.4</ele>
        <time>2015-04-27T19:20:16.010Z</time>
      </trkpt>
      <trkpt lat="48.7996" lon="2.46593">
        <ele>84.7</ele>
        <time>2015-04-27T19:20:17.019Z</time>
      </trkpt>
      <trkpt lat="48.79956" lon="2.4659">
        <ele>84.5</ele>
        <time>2015-04-27T19:20:17.998Z</time>
      </trkpt>
      <trkpt lat="48.79951" lon="2.46587">
        <ele>84.4</ele>
        <time>2015-04-27T19:20:18.939Z</time>
      </trkpt>
      <trkpt lat="48.79947" lon="2.46584">
        <ele>84.4</ele>
        <time>2015-04-27T19:20:19.953Z</time>
      </trkpt>
      <trkpt lat="48.7994" lon="2.46577">
        <ele>84.1</ele>
        <time>2015-04-27T19:20:22.021Z</time>
      </trkpt>
      <trkpt lat="48.79937" lon="2.46575">
        <ele>84.1</ele>
        <time>2015-04-27T19:20:22.943Z</time>
      </trkpt>
      <trkpt lat="48.7993" lon="2.46569">
        <ele>84.5</ele>
        <time>2015-04-27T19:20:26.025Z</time>
      </trkpt>
      <trkpt lat="48.79928" lon="2.46568">
        <ele>84.5</ele>
        <time>2015-04-27T19:20:27.081Z</time>
      </trkpt>
      <trkpt lat="48.79922" lon="2.46577">
        <ele>88.9</ele>
        <time>2015-04-27T19:21:00.942Z</time>
      </trkpt>
      <trkpt lat="48.79924" lon="2.4658">
        <ele>89</ele>
        <time>2015-04-27T19:21:01.963Z</time>
      </trkpt>
      <trkpt lat="48.79921" lon="2.46591">
        <ele>88.5</ele>
        <time>2015-04-27T19:21:06.030Z</time>
      </trkpt>
      <trkpt lat="48.79919" lon="2.46593">
        <ele>88.6</ele>
        <time>2015-04-27T19:21:06.946Z</time>
      </trkpt>
      <trkpt lat="48.79911" lon="2.466">
        <ele>88.7</ele>
        <time>2015-04-27T19:21:11.035Z</time>
      </trkpt>
      <trkpt lat="48.79908" lon="2.46602">
        <ele>88.6</ele>
        <time>2015-04-27T19:21:12.050Z</time>
      </trkpt>
      <trkpt lat="48.79901" lon="2.46605">
        <ele>88.3</ele>
        <time>2015-04-27T19:21:13.950Z</time>
      </trkpt>
      <trkpt lat="48.79897" lon="2.46608">
        <ele>88.1</ele>
        <time>2015-04-27T19:21:15.013Z</time>
      </trkpt>
      <trkpt lat="48.79892" lon="2.46611">
        <ele>87.7</ele>
        <time>2015-04-27T19:21:15.942Z</time>
      </trkpt>
      <trkpt lat="48.79888" lon="2.46615">
        <ele>87.5</ele>
        <time>2015-04-27T19:21:16.950Z</time>
      </trkpt>
      <trkpt lat="48.79883" lon="2.46618">
        <ele>87.5</ele>
        <time>2015-04-27T19:21:17.971Z</time>
      </trkpt>
      <trkpt lat="48.79878" lon="2.46622">
        <ele>87.6</ele>
        <time>2015-04-27T19:21:19.055Z</time>
      </trkpt>
      <trkpt lat="48.79874" lon="2.46625">
        <ele>87.7</ele>
        <time>2015-04-27T19:21:19.985Z</time>
      </trkpt>
      <trkpt lat="48.79869" lon="2.46627">
        <ele>87.7</ele>
        <time>2015-04-27T19:21:21.016Z</time>
      </trkpt>
      <trkpt lat="48.79865" lon="2.4663">
        <ele>87.6</ele>
        <time>2015-04-27T19:21:22.027Z</time>
      </trkpt>
      <trkpt lat="48.7986" lon="2.46632">
        <ele>87.3</ele>
        <time>2015-04-27T19:21:23.134Z</time>
      </trkpt>
      <trkpt lat="48.79856" lon="2.46635">
        <ele>86.9</ele>
        <time>2015-04-27T19:21:24.056Z</time>
      </trkpt>
      <trkpt lat="48.79851" lon="2.46638">
        <ele>86.6</ele>
        <time>2015-04-27T19:21:25.074Z</time>
      </trkpt>
      <trkpt lat="48.79847" lon="2.4664">
        <ele>86.2</ele>
        <time>2015-04-27T19:21:25.949Z</time>
      </trkpt>
      <trkpt lat="48.79843" lon="2.46643">
        <ele>86</ele>
        <time>2015-04-27T19:21:27.030Z</time>
      </trkpt>
      <trkpt lat="48.79835" lon="2.46646">
        <ele>86.2</ele>
        <time>2015-04-27T19:21:28.942Z</time>
      </trkpt>
      <trkpt lat="48.79832" lon="2.46648">
        <ele>85.9</ele>
        <time>2015-04-27T19:21:29.947Z</time>
      </trkpt>
      <trkpt lat="48.79824" lon="2.46652">
        <ele>86.1</ele>
        <time>2015-04-27T19:21:31.971Z</time>
      </trkpt>
      <trkpt lat="48.79821" lon="2.46653">
        <ele>85.8</ele>
        <time>2015-04-27T19:21:33.033Z</time>
      </trkpt>
      <trkpt lat="48.79814" lon="2.46657">
        <ele>85.6</ele>
        <time>2015-04-27T19:21:35.054Z</time>
      </trkpt>
      <trkpt lat="48.79811" lon="2.46659">
        <ele>85.7</ele>
        <time>2015-04-27T19:21:36.011Z</time>
      </trkpt>
      <trkpt lat="48.79804" lon="2.46663">
        <ele>85.9</ele>
        <time>2015-04-27T19:21:37.961Z</time>
      </trkpt>
      <trkpt lat="48.79801" lon="2.46666">
        <ele>86</ele>
        <time>2015-04-27T19:21:39.026Z</time>
      </trkpt>
      <trkpt lat="48.79794" lon="2.46671">
        <ele>85.9</ele>
        <time>2015-04-27T19:21:41.064Z</time>
      </trkpt>
      <trkpt lat="48.7979" lon="2.46673">
        <ele>86</ele>
        <time>2015-04-27T19:21:41.997Z</time>
      </trkpt>
      <trkpt lat="48.79782" lon="2.46679">
        <ele>86.2</ele>
        <time>2015-04-27T19:21:43.979Z</time>
      </trkpt>
      <trkpt lat="48.79779" lon="2.46681">
        <ele>86.4</ele>
        <time>2015-04-27T19:21:45.039Z</time>
      </trkpt>
      <trkpt lat="48.79772" lon="2.46685">
        <ele>87</ele>
        <time>2015-04-27T19:21:46.987Z</time>
      </trkpt>
      <trkpt lat="48.79768" lon="2.46688">
        <ele>87</ele>
        <time>2015-04-27T19:21:47.983Z</time>
      </trkpt>
      <trkpt lat="48.79761" lon="2.46693">
        <ele>87.4</ele>
        <time>2015-04-27T19:21:50.067Z</time>
      </trkpt>
      <trkpt lat="48.79757" lon="2.46696">
        <ele>87.5</ele>
        <time>2015-04-27T19:21:51.009Z</time>
      </trkpt>
      <trkpt lat="48.7975" lon="2.46701">
        <ele>87.6</ele>
        <time>2015-04-27T19:21:53.208Z</time>
      </trkpt>
      <trkpt lat="48.79747" lon="2.46703">
        <ele>87.6</ele>
        <time>2015-04-27T19:21:53.997Z</time>
      </trkpt>
      <trkpt lat="48.79741" lon="2.46707">
        <ele>87.6</ele>
        <time>2015-04-27T19:21:56.011Z</time>
      </trkpt>
      <trkpt lat="48.79738" lon="2.4671">
        <ele>87.6</ele>
        <time>2015-04-27T19:21:57.052Z</time>
      </trkpt>
      <trkpt lat="48.79732" lon="2.46715">
        <ele>87.4</ele>
        <time>2015-04-27T19:21:58.951Z</time>
      </trkpt>
      <trkpt lat="48.79728" lon="2.46717">
        <ele>87.3</ele>
        <time>2015-04-27T19:22:00.008Z</time>
      </trkpt>
      <trkpt lat="48.79722" lon="2.46722">
        <ele>87.2</ele>
        <time>2015-04-27T19:22:01.969Z</time>
      </trkpt>
      <trkpt lat="48.79719" lon="2.46724">
        <ele>87.3</ele>
        <time>2015-04-27T19:22:02.999Z</time>
      </trkpt>
      <trkpt lat="48.79713" lon="2.46729">
        <ele>87.5</ele>
        <time>2015-04-27T19:22:05.026Z</time>
      </trkpt>
      <trkpt lat="48.7971" lon="2.46732">
        <ele>87.6</ele>
        <time>2015-04-27T19:22:06.032Z</time>
      </trkpt>
      <trkpt lat="48.79704" lon="2.46738">
        <ele>87.9</ele>
        <time>2015-04-27T19:22:08.528Z</time>
      </trkpt>
      <trkpt lat="48.797" lon="2.46742">
        <ele>87.9</ele>
        <time>2015-04-27T19:22:09.010Z</time>
      </trkpt>
      <trkpt lat="48.79694" lon="2.46748">
        <ele>88.1</ele>
        <time>2015-04-27T19:22:11.015Z</time>
      </trkpt>
      <trkpt lat="48.79691" lon="2.46751">
        <ele>88.3</ele>
        <time>2015-04-27T19:22:12.024Z</time>
      </trkpt>
      <trkpt lat="48.79685" lon="2.46756">
        <ele>88.6</ele>
        <time>2015-04-27T19:22:14.043Z</time>
      </trkpt>
      <trkpt lat="48.79681" lon="2.4676">
        <ele>88.8</ele>
        <time>2015-04-27T19:22:15.054Z</time>
      </trkpt>
      <trkpt lat="48.79675" lon="2.46764">
        <ele>88.9</ele>
        <time>2015-04-27T19:22:16.965Z</time>
      </trkpt>
      <trkpt lat="48.79672" lon="2.46766">
        <ele>88.9</ele>
        <time>2015-04-27T19:22:18.009Z</time>
      </trkpt>
      <trkpt lat="48.79665" lon="2.46773">
        <ele>89.2</ele>
        <time>2015-04-27T19:22:21.004Z</time>
      </trkpt>
      <trkpt lat="48.79663" lon="2.46775">
        <ele>89.4</ele>
        <time>2015-04-27T19:22:22.022Z</time>
      </trkpt>
      <trkpt lat="48.79656" lon="2.46782">
        <ele>89.3</ele>
        <time>2015-04-27T19:22:30.011Z</time>
      </trkpt>
      <trkpt lat="48.79653" lon="2.46786">
        <ele>89.7</ele>
        <time>2015-04-27T19:22:31.019Z</time>
      </trkpt>
      <trkpt lat="48.79646" lon="2.46791">
        <ele>90</ele>
        <time>2015-04-27T19:22:34.033Z</time>
      </trkpt>
      <trkpt lat="48.79642" lon="2.46795">
        <ele>89.6</ele>
        <time>2015-04-27T19:22:35.050Z</time>
      </trkpt>
      <trkpt lat="48.79636" lon="2.468">
        <ele>89.2</ele>
        <time>2015-04-27T19:22:36.990Z</time>
      </trkpt>
      <trkpt lat="48.79633" lon="2.46802">
        <ele>89.2</ele>
        <time>2015-04-27T19:22:38.023Z</time>
      </trkpt>
      <trkpt lat="48.79627" lon="2.46806">
        <ele>89.1</ele>
        <time>2015-04-27T19:22:39.928Z</time>
      </trkpt>
      <trkpt lat="48.79623" lon="2.4681">
        <ele>88.6</ele>
        <time>2015-04-27T19:22:40.942Z</time>
      </trkpt>
      <trkpt lat="48.79616" lon="2.46815">
        <ele>88.9</ele>
        <time>2015-04-27T19:22:43.010Z</time>
      </trkpt>
      <trkpt lat="48.79611" lon="2.46817">
        <ele>88.5</ele>
        <time>2015-04-27T19:22:44.023Z</time>
      </trkpt>
      <trkpt lat="48.79604" lon="2.46824">
        <ele>89</ele>
        <time>2015-04-27T19:22:46.023Z</time>
      </trkpt>
      <trkpt lat="48.79602" lon="2.46826">
        <ele>89.3</ele>
        <time>2015-04-27T19:22:46.946Z</time>
      </trkpt>
      <trkpt lat="48.79594" lon="2.4683">
        <ele>88.9</ele>
        <time>2015-04-27T19:22:50.037Z</time>
      </trkpt>
      <trkpt lat="48.79591" lon="2.46831">
        <ele>88.3</ele>
        <time>2015-04-27T19:22:51.069Z</time>
      </trkpt>
      <trkpt lat="48.79587" lon="2.46833">
        <ele>88.2</ele>
        <time>2015-04-27T19:22:59.031Z</time>
      </trkpt>
      <trkpt lat="48.7958" lon="2.46841">
        <ele>88.2</ele>
        <time>2015-04-27T19:23:00.070Z</time>
      </trkpt>
      <trkpt lat="48.79576" lon="2.46852">
        <ele>89</ele>
        <time>2015-04-27T19:23:04.142Z</time>
      </trkpt>
      <trkpt lat="48.79575" lon="2.46855">
        <ele>89.4</ele>
        <time>2015-04-27T19:23:05.006Z</time>
      </trkpt>
      <trkpt lat="48.79567" lon="2.46859">
        <ele>89</ele>
        <time>2015-04-27T19:23:07.968Z</time>
      </trkpt>
      <trkpt lat="48.79565" lon="2.4686">
        <ele>88.9</ele>
        <time>2015-04-27T19:23:09.014Z</time>
      </trkpt>
      <trkpt lat="48.79557" lon="2.46863">
        <ele>88.9</ele>
        <time>2015-04-27T19:23:12.046Z</time>
      </trkpt>
      <trkpt lat="48.79555" lon="2.46865">
        <ele>88.8</ele>
        <time>2015-04-27T19:23:12.971Z</time>
      </trkpt>
      <trkpt lat="48.79548" lon="2.46871">
        <ele>88.2</ele>
        <time>2015-04-27T19:23:15.025Z</time>
      </trkpt>
      <trkpt lat="48.79544" lon="2.46873">
        <ele>87.7</ele>
        <time>2015-04-27T19:23:16.030Z</time>
      </trkpt>
      <trkpt lat="48.79536" lon="2.46877">
        <ele>86.2</ele>
        <time>2015-04-27T19:23:23.055Z</time>
      </trkpt>
      <trkpt lat="48.79526" lon="2.4688">
        <ele>85.6</ele>
        <time>2015-04-27T19:23:24.013Z</time>
      </trkpt>
      <trkpt lat="48.7952" lon="2.46884">
        <ele>85.4</ele>
        <time>2015-04-27T19:23:26.007Z</time>
      </trkpt>
      <trkpt lat="48.79518" lon="2.46886">
        <ele>85.3</ele>
        <time>2015-04-27T19:23:27.046Z</time>
      </trkpt>
      <trkpt lat="48.79511" lon="2.46887">
        <ele>84.9</ele>
        <time>2015-04-27T19:23:30.004Z</time>
      </trkpt>
      <trkpt lat="48.79509" lon="2.46887">
        <ele>84.6</ele>
        <time>2015-04-27T19:23:31.000Z</time>
      </trkpt>
      <trkpt lat="48.79501" lon="2.46887">
        <ele>84.3</ele>
        <time>2015-04-27T19:23:34.040Z</time>
      </trkpt>
      <trkpt lat="48.79497" lon="2.46888">
        <ele>83.3</ele>
        <time>2015-04-27T19:23:35.052Z</time>
      </trkpt>
      <trkpt lat="48.79492" lon="2.4689">
        <ele>83.6</ele>
        <time>2015-04-27T19:23:35.967Z</time>
      </trkpt>
      <trkpt lat="48.79485" lon="2.46893">
        <ele>84.7</ele>
        <time>2015-04-27T19:23:36.969Z</time>
      </trkpt>
      <trkpt lat="48.7948" lon="2.46895">
        <ele>84.7</ele>
        <time>2015-04-27T19:23:37.981Z</time>
      </trkpt>
      <trkpt lat="48.79475" lon="2.46897">
        <ele>84.4</ele>
        <time>2015-04-27T19:23:39.014Z</time>
      </trkpt>
      <trkpt lat="48.7947" lon="2.46901">
        <ele>84.2</ele>
        <time>2015-04-27T19:23:40.030Z</time>
      </trkpt>
      <trkpt lat="48.79464" lon="2.46905">
        <ele>84.2</ele>
        <time>2015-04-27T19:23:41.040Z</time>
      </trkpt>
      <trkpt lat="48.79458" lon="2.46909">
        <ele>84</ele>
        <time>2015-04-27T19:23:41.967Z</time>
      </trkpt>
      <trkpt lat="48.79453" lon="2.46913">
        <ele>83.7</ele>
        <time>2015-04-27T19:23:42.977Z</time>
      </trkpt>
      <trkpt lat="48.79448" lon="2.46916">
        <ele>83.6</ele>
        <time>2015-04-27T19:23:43.983Z</time>
      </trkpt>
      <trkpt lat="48.79443" lon="2.4692">
        <ele>83.8</ele>
        <time>2015-04-27T19:23:45.010Z</time>
      </trkpt>
      <trkpt lat="48.79436" lon="2.46924">
        <ele>84.1</ele>
        <time>2015-04-27T19:23:47.038Z</time>
      </trkpt>
      <trkpt lat="48.79432" lon="2.46925">
        <ele>84.2</ele>
        <time>2015-04-27T19:23:48.046Z</time>
      </trkpt>
      <trkpt lat="48.79424" lon="2.46931">
        <ele>84.4</ele>
        <time>2015-04-27T19:23:51.032Z</time>
      </trkpt>
      <trkpt lat="48.79423" lon="2.46931">
        <ele>84.6</ele>
        <time>2015-04-27T19:23:51.977Z</time>
      </trkpt>
      <trkpt lat="48.79423" lon="2.46931">
        <ele>84.6</ele>
        <time>2015-04-27T19:23:58.936Z</time>
      </trkpt>
      <trkpt lat="48.79412" lon="2.46937">
        <ele>86.3</ele>
        <time>2015-04-27T19:23:59.985Z</time>
      </trkpt>
      <trkpt lat="48.79405" lon="2.46934">
        <ele>86.3</ele>
        <time>2015-04-27T19:24:03.026Z</time>
      </trkpt>
      <trkpt lat="48.79402" lon="2.46932">
        <ele>86.2</ele>
        <time>2015-04-27T19:24:04.048Z</time>
      </trkpt>
      <trkpt lat="48.79395" lon="2.46929">
        <ele>85.8</ele>
        <time>2015-04-27T19:24:05.983Z</time>
      </trkpt>
      <trkpt lat="48.79392" lon="2.46926">
        <ele>85.4</ele>
        <time>2015-04-27T19:24:07.033Z</time>
      </trkpt>
      <trkpt lat="48.79387" lon="2.46922">
        <ele>84.4</ele>
        <time>2015-04-27T19:24:09.137Z</time>
      </trkpt>
      <trkpt lat="48.79384" lon="2.46921">
        <ele>84.1</ele>
        <time>2015-04-27T19:24:09.979Z</time>
      </trkpt>
      <trkpt lat="48.79376" lon="2.4692">
        <ele>84.2</ele>
        <time>2015-04-27T19:24:13.044Z</time>
      </trkpt>
      <trkpt lat="48.79374" lon="2.4692">
        <ele>84.1</ele>
        <time>2015-04-27T19:24:13.989Z</time>
      </trkpt>
      <trkpt lat="48.79368" lon="2.46921">
        <ele>83.9</ele>
        <time>2015-04-27T19:24:15.954Z</time>
      </trkpt>
      <trkpt lat="48.79365" lon="2.46922">
        <ele>83.5</ele>
        <time>2015-04-27T19:24:17.007Z</time>
      </trkpt>
      <trkpt lat="48.7936" lon="2.4692">
        <ele>83.5</ele>
        <time>2015-04-27T19:24:19.048Z</time>
      </trkpt>
      <trkpt lat="48.79356" lon="2.46919">
        <ele>83.6</ele>
        <time>2015-04-27T19:24:19.984Z</time>
      </trkpt>
      <trkpt lat="48.79348" lon="2.4692">
        <ele>83.9</ele>
        <time>2015-04-27T19:24:22.060Z</time>
      </trkpt>
      <trkpt lat="48.79346" lon="2.46918">
        <ele>84.1</ele>
        <time>2015-04-27T19:24:22.956Z</time>
      </trkpt>
      <trkpt lat="48.7934" lon="2.46915">
        <ele>84.4</ele>
        <time>2015-04-27T19:24:24.983Z</time>
      </trkpt>
      <trkpt lat="48.79336" lon="2.46913">
        <ele>84.3</ele>
        <time>2015-04-27T19:24:26.007Z</time>
      </trkpt>
      <trkpt lat="48.79329" lon="2.4691">
        <ele>84.3</ele>
        <time>2015-04-27T19:24:27.959Z</time>
      </trkpt>
      <trkpt lat="48.79326" lon="2.46909">
        <ele>84.2</ele>
        <time>2015-04-27T19:24:28.976Z</time>
      </trkpt>
      <trkpt lat="48.7932" lon="2.4691">
        <ele>84.3</ele>
        <time>2015-04-27T19:24:31.003Z</time>
      </trkpt>
      <trkpt lat="48.79316" lon="2.46909">
        <ele>84.2</ele>
        <time>2015-04-27T19:24:32.007Z</time>
      </trkpt>
      <trkpt lat="48.79308" lon="2.46908">
        <ele>84.1</ele>
        <time>2015-04-27T19:24:34.989Z</time>
      </trkpt>
      <trkpt lat="48.79305" lon="2.46908">
        <ele>83.8</ele>
        <time>2015-04-27T19:24:35.982Z</time>
      </trkpt>
      <trkpt lat="48.79297" lon="2.46908">
        <ele>83.1</ele>
        <time>2015-04-27T19:24:38.011Z</time>
      </trkpt>
      <trkpt lat="48.79293" lon="2.46909">
        <ele>83</ele>
        <time>2015-04-27T19:24:39.034Z</time>
      </trkpt>
      <trkpt lat="48.79288" lon="2.46909">
        <ele>82.5</ele>
        <time>2015-04-27T19:24:39.970Z</time>
      </trkpt>
      <trkpt lat="48.79284" lon="2.46909">
        <ele>82.8</ele>
        <time>2015-04-27T19:24:41.000Z</time>
      </trkpt>
      <trkpt lat="48.79276" lon="2.4691">
        <ele>83.7</ele>
        <time>2015-04-27T19:24:43.027Z</time>
      </trkpt>
      <trkpt lat="48.79273" lon="2.46911">
        <ele>83.7</ele>
        <time>2015-04-27T19:24:44.039Z</time>
      </trkpt>
      <trkpt lat="48.79266" lon="2.46913">
        <ele>83.3</ele>
        <time>2015-04-27T19:24:45.940Z</time>
      </trkpt>
      <trkpt lat="48.79263" lon="2.46913">
        <ele>83.4</ele>
        <time>2015-04-27T19:24:46.981Z</time>
      </trkpt>
      <trkpt lat="48.79256" lon="2.46913">
        <ele>82.9</ele>
        <time>2015-04-27T19:24:49.007Z</time>
      </trkpt>
      <trkpt lat="48.79253" lon="2.46914">
        <ele>83.1</ele>
        <time>2015-04-27T19:24:50.034Z</time>
      </trkpt>
      <trkpt lat="48.79246" lon="2.46911">
        <ele>84.1</ele>
        <time>2015-04-27T19:24:53.035Z</time>
      </trkpt>
      <trkpt lat="48.79243" lon="2.46911">
        <ele>84.3</ele>
        <time>2015-04-27T19:24:54.018Z</time>
      </trkpt>
      <trkpt lat="48.79236" lon="2.4691">
        <ele>84.2</ele>
        <time>2015-04-27T19:24:56.111Z</time>
      </trkpt>
      <trkpt lat="48.79232" lon="2.4691">
        <ele>84.2</ele>
        <time>2015-04-27T19:24:57.009Z</time>
      </trkpt>
      <trkpt lat="48.79224" lon="2.46913">
        <ele>84.6</ele>
        <time>2015-04-27T19:24:59.003Z</time>
      </trkpt>
      <trkpt lat="48.79218" lon="2.46917">
        <ele>84.7</ele>
        <time>2015-04-27T19:24:59.963Z</time>
      </trkpt>
      <trkpt lat="48.79215" lon="2.46919">
        <ele>84.6</ele>
        <time>2015-04-27T19:25:00.973Z</time>
      </trkpt>
      <trkpt lat="48.79209" lon="2.46922">
        <ele>83.8</ele>
        <time>2015-04-27T19:25:02.006Z</time>
      </trkpt>
      <trkpt lat="48.792" lon="2.46923">
        <ele>83.4</ele>
        <time>2015-04-27T19:25:03.937Z</time>
      </trkpt>
      <trkpt lat="48.79196" lon="2.46922">
        <ele>83</ele>
        <time>2015-04-27T19:25:05.027Z</time>
      </trkpt>
      <trkpt lat="48.79189" lon="2.46923">
        <ele>82.7</ele>
        <time>2015-04-27T19:25:06.975Z</time>
      </trkpt>
      <trkpt lat="48.79185" lon="2.46923">
        <ele>82.6</ele>
        <time>2015-04-27T19:25:08.055Z</time>
      </trkpt>
      <trkpt lat="48.79178" lon="2.46926">
        <ele>82.6</ele>
        <time>2015-04-27T19:25:10.015Z</time>
      </trkpt>
      <trkpt lat="48.79175" lon="2.46927">
        <ele>82.7</ele>
        <time>2015-04-27T19:25:10.968Z</time>
      </trkpt>
      <trkpt lat="48.79167" lon="2.46929">
        <ele>83.5</ele>
        <time>2015-04-27T19:25:14.019Z</time>
      </trkpt>
      <trkpt lat="48.79163" lon="2.46931">
        <ele>83.3</ele>
        <time>2015-04-27T19:25:15.061Z</time>
      </trkpt>
      <trkpt lat="48.79155" lon="2.46934">
        <ele>82.9</ele>
        <time>2015-04-27T19:25:16.949Z</time>
      </trkpt>
      <trkpt lat="48.79152" lon="2.46934">
        <ele>82.7</ele>
        <time>2015-04-27T19:25:18.032Z</time>
      </trkpt>
      <trkpt lat="48.79144" lon="2.46934">
        <ele>82.5</ele>
        <time>2015-04-27T19:25:20.017Z</time>
      </trkpt>
      <trkpt lat="48.79139" lon="2.46935">
        <ele>82.4</ele>
        <time>2015-04-27T19:25:21.019Z</time>
      </trkpt>
      <trkpt lat="48.79133" lon="2.46935">
        <ele>82.5</ele>
        <time>2015-04-27T19:25:23.026Z</time>
      </trkpt>
      <trkpt lat="48.79129" lon="2.46935">
        <ele>82.7</ele>
        <time>2015-04-27T19:25:24.003Z</time>
      </trkpt>
      <trkpt lat="48.79123" lon="2.46936">
        <ele>83</ele>
        <time>2015-04-27T19:25:26.136Z</time>
      </trkpt>
      <trkpt lat="48.7912" lon="2.46935">
        <ele>83</ele>
        <time>2015-04-27T19:25:27.005Z</time>
      </trkpt>
      <trkpt lat="48.79114" lon="2.46935">
        <ele>83.1</ele>
        <time>2015-04-27T19:25:29.147Z</time>
      </trkpt>
      <trkpt lat="48.7911" lon="2.46934">
        <ele>83.1</ele>
        <time>2015-04-27T19:25:30.031Z</time>
      </trkpt>
      <trkpt lat="48.79103" lon="2.46934">
        <ele>82.4</ele>
        <time>2015-04-27T19:25:32.991Z</time>
      </trkpt>
      <trkpt lat="48.791" lon="2.46934">
        <ele>82.2</ele>
        <time>2015-04-27T19:25:33.995Z</time>
      </trkpt>
      <trkpt lat="48.79093" lon="2.46937">
        <ele>82.2</ele>
        <time>2015-04-27T19:25:36.047Z</time>
      </trkpt>
      <trkpt lat="48.79089" lon="2.46939">
        <ele>82.1</ele>
        <time>2015-04-27T19:25:37.184Z</time>
      </trkpt>
      <trkpt lat="48.79085" lon="2.46943">
        <ele>82</ele>
        <time>2015-04-27T19:25:37.954Z</time>
      </trkpt>
      <trkpt lat="48.7908" lon="2.46946">
        <ele>81.6</ele>
        <time>2015-04-27T19:25:39.005Z</time>
      </trkpt>
      <trkpt lat="48.79073" lon="2.46949">
        <ele>81.1</ele>
        <time>2015-04-27T19:25:41.026Z</time>
      </trkpt>
      <trkpt lat="48.79071" lon="2.4695">
        <ele>81.4</ele>
        <time>2015-04-27T19:25:41.975Z</time>
      </trkpt>
      <trkpt lat="48.79065" lon="2.4695">
        <ele>81.3</ele>
        <time>2015-04-27T19:25:43.992Z</time>
      </trkpt>
      <trkpt lat="48.79062" lon="2.4695">
        <ele>81</ele>
        <time>2015-04-27T19:25:45.031Z</time>
      </trkpt>
      <trkpt lat="48.79055" lon="2.46949">
        <ele>80.4</ele>
        <time>2015-04-27T19:25:46.979Z</time>
      </trkpt>
      <trkpt lat="48.79052" lon="2.46949">
        <ele>80.4</ele>
        <time>2015-04-27T19:25:47.996Z</time>
      </trkpt>
      <trkpt lat="48.79043" lon="2.4695">
        <ele>80.2</ele>
        <time>2015-04-27T19:25:50.983Z</time>
      </trkpt>
      <trkpt lat="48.7904" lon="2.4695">
        <ele>80.2</ele>
        <time>2015-04-27T19:25:51.977Z</time>
      </trkpt>
      <trkpt lat="48.79033" lon="2.46951">
        <ele>80.3</ele>
        <time>2015-04-27T19:25:54.030Z</time>
      </trkpt>
      <trkpt lat="48.79028" lon="2.46953">
        <ele>80.5</ele>
        <time>2015-04-27T19:25:55.039Z</time>
      </trkpt>
      <trkpt lat="48.79023" lon="2.46956">
        <ele>80.8</ele>
        <time>2015-04-27T19:25:56.172Z</time>
      </trkpt>
      <trkpt lat="48.79018" lon="2.46959">
        <ele>80.8</ele>
        <time>2015-04-27T19:25:56.973Z</time>
      </trkpt>
      <trkpt lat="48.7901" lon="2.46962">
        <ele>80.8</ele>
        <time>2015-04-27T19:25:58.999Z</time>
      </trkpt>
      <trkpt lat="48.79007" lon="2.46962">
        <ele>80.6</ele>
        <time>2015-04-27T19:26:00.014Z</time>
      </trkpt>
      <trkpt lat="48.78999" lon="2.4696">
        <ele>80.8</ele>
        <time>2015-04-27T19:26:03.049Z</time>
      </trkpt>
      <trkpt lat="48.78996" lon="2.46958">
        <ele>80.6</ele>
        <time>2015-04-27T19:26:04.056Z</time>
      </trkpt>
      <trkpt lat="48.78989" lon="2.46959">
        <ele>80.5</ele>
        <time>2015-04-27T19:26:06.962Z</time>
      </trkpt>
      <trkpt lat="48.78986" lon="2.46959">
        <ele>80.5</ele>
        <time>2015-04-27T19:26:07.969Z</time>
      </trkpt>
      <trkpt lat="48.78978" lon="2.46961">
        <ele>80.8</ele>
        <time>2015-04-27T19:26:10.001Z</time>
      </trkpt>
      <trkpt lat="48.78975" lon="2.46962">
        <ele>80.8</ele>
        <time>2015-04-27T19:26:11.017Z</time>
      </trkpt>
      <trkpt lat="48.78967" lon="2.46963">
        <ele>80.9</ele>
        <time>2015-04-27T19:26:13.029Z</time>
      </trkpt>
      <trkpt lat="48.78962" lon="2.46964">
        <ele>81.2</ele>
        <time>2015-04-27T19:26:14.036Z</time>
      </trkpt>
      <trkpt lat="48.78957" lon="2.46966">
        <ele>81.6</ele>
        <time>2015-04-27T19:26:15.065Z</time>
      </trkpt>
      <trkpt lat="48.78953" lon="2.46968">
        <ele>81.4</ele>
        <time>2015-04-27T19:26:15.970Z</time>
      </trkpt>
      <trkpt lat="48.78948" lon="2.46969">
        <ele>81.4</ele>
        <time>2015-04-27T19:26:16.997Z</time>
      </trkpt>
      <trkpt lat="48.78943" lon="2.46971">
        <ele>81.1</ele>
        <time>2015-04-27T19:26:18.016Z</time>
      </trkpt>
      <trkpt lat="48.78937" lon="2.46973">
        <ele>80.9</ele>
        <time>2015-04-27T19:26:19.043Z</time>
      </trkpt>
      <trkpt lat="48.78932" lon="2.46976">
        <ele>80.3</ele>
        <time>2015-04-27T19:26:20.051Z</time>
      </trkpt>
      <trkpt lat="48.78927" lon="2.46978">
        <ele>80.2</ele>
        <time>2015-04-27T19:26:21.058Z</time>
      </trkpt>
      <trkpt lat="48.78923" lon="2.46979">
        <ele>80</ele>
        <time>2015-04-27T19:26:21.958Z</time>
      </trkpt>
      <trkpt lat="48.78915" lon="2.46983">
        <ele>80.4</ele>
        <time>2015-04-27T19:26:23.979Z</time>
      </trkpt>
      <trkpt lat="48.7891" lon="2.46985">
        <ele>80.7</ele>
        <time>2015-04-27T19:26:25.006Z</time>
      </trkpt>
      <trkpt lat="48.78902" lon="2.46989">
        <ele>81.2</ele>
        <time>2015-04-27T19:26:27.053Z</time>
      </trkpt>
      <trkpt lat="48.789" lon="2.46992">
        <ele>81.1</ele>
        <time>2015-04-27T19:26:27.936Z</time>
      </trkpt>
      <trkpt lat="48.78896" lon="2.46996">
        <ele>80.9</ele>
        <time>2015-04-27T19:26:32.041Z</time>
      </trkpt>
      <trkpt lat="48.78886" lon="2.47007">
        <ele>81.7</ele>
        <time>2015-04-27T19:26:33.046Z</time>
      </trkpt>
      <trkpt lat="48.7888" lon="2.47012">
        <ele>83</ele>
        <time>2015-04-27T19:26:35.716Z</time>
      </trkpt>
      <trkpt lat="48.78876" lon="2.47015">
        <ele>83.6</ele>
        <time>2015-04-27T19:26:36.009Z</time>
      </trkpt>
      <trkpt lat="48.78872" lon="2.47019">
        <ele>83.8</ele>
        <time>2015-04-27T19:26:37.039Z</time>
      </trkpt>
      <trkpt lat="48.78867" lon="2.47023">
        <ele>84.1</ele>
        <time>2015-04-27T19:26:37.938Z</time>
      </trkpt>
      <trkpt lat="48.78862" lon="2.47027">
        <ele>84.3</ele>
        <time>2015-04-27T19:26:39.018Z</time>
      </trkpt>
      <trkpt lat="48.78858" lon="2.47031">
        <ele>84.4</ele>
        <time>2015-04-27T19:26:40.034Z</time>
      </trkpt>
      <trkpt lat="48.78854" lon="2.47035">
        <ele>84.3</ele>
        <time>2015-04-27T19:26:40.953Z</time>
      </trkpt>
      <trkpt lat="48.78849" lon="2.4704">
        <ele>84.1</ele>
        <time>2015-04-27T19:26:41.967Z</time>
      </trkpt>
      <trkpt lat="48.78843" lon="2.47046">
        <ele>84.1</ele>
        <time>2015-04-27T19:26:42.968Z</time>
      </trkpt>
      <trkpt lat="48.78838" lon="2.47049">
        <ele>83.8</ele>
        <time>2015-04-27T19:26:43.975Z</time>
      </trkpt>
      <trkpt lat="48.78833" lon="2.47053">
        <ele>83.9</ele>
        <time>2015-04-27T19:26:44.991Z</time>
      </trkpt>
      <trkpt lat="48.78829" lon="2.47057">
        <ele>83.9</ele>
        <time>2015-04-27T19:26:46.006Z</time>
      </trkpt>
      <trkpt lat="48.78824" lon="2.47061">
        <ele>84.2</ele>
        <time>2015-04-27T19:26:47.019Z</time>
      </trkpt>
      <trkpt lat="48.78819" lon="2.47066">
        <ele>83.5</ele>
        <time>2015-04-27T19:26:47.937Z</time>
      </trkpt>
      <trkpt lat="48.78814" lon="2.47071">
        <ele>83.6</ele>
        <time>2015-04-27T19:26:48.967Z</time>
      </trkpt>
      <trkpt lat="48.78809" lon="2.47076">
        <ele>83.7</ele>
        <time>2015-04-27T19:26:49.980Z</time>
      </trkpt>
      <trkpt lat="48.78806" lon="2.47082">
        <ele>83.6</ele>
        <time>2015-04-27T19:26:51.042Z</time>
      </trkpt>
      <trkpt lat="48.78803" lon="2.47086">
        <ele>83.5</ele>
        <time>2015-04-27T19:26:52.007Z</time>
      </trkpt>
      <trkpt lat="48.78799" lon="2.47091">
        <ele>83.6</ele>
        <time>2015-04-27T19:26:53.046Z</time>
      </trkpt>
      <trkpt lat="48.78794" lon="2.47097">
        <ele>83.8</ele>
        <time>2015-04-27T19:26:53.929Z</time>
      </trkpt>
      <trkpt lat="48.78787" lon="2.47106">
        <ele>83.1</ele>
        <time>2015-04-27T19:26:54.956Z</time>
      </trkpt>
      <trkpt lat="48.7878" lon="2.47115">
        <ele>82.9</ele>
        <time>2015-04-27T19:26:55.969Z</time>
      </trkpt>
      <trkpt lat="48.78775" lon="2.47121">
        <ele>82.4</ele>
        <time>2015-04-27T19:26:57.011Z</time>
      </trkpt>
      <trkpt lat="48.7877" lon="2.47129">
        <ele>82.4</ele>
        <time>2015-04-27T19:26:58.017Z</time>
      </trkpt>
      <trkpt lat="48.78764" lon="2.47136">
        <ele>82.8</ele>
        <time>2015-04-27T19:26:59.034Z</time>
      </trkpt>
      <trkpt lat="48.78759" lon="2.47142">
        <ele>82.7</ele>
        <time>2015-04-27T19:26:59.930Z</time>
      </trkpt>
      <trkpt lat="48.78755" lon="2.47147">
        <ele>83.3</ele>
        <time>2015-04-27T19:27:01.129Z</time>
      </trkpt>
      <trkpt lat="48.78752" lon="2.47152">
        <ele>83.7</ele>
        <time>2015-04-27T19:27:01.999Z</time>
      </trkpt>
      <trkpt lat="48.78748" lon="2.47158">
        <ele>84.2</ele>
        <time>2015-04-27T19:27:03.013Z</time>
      </trkpt>
      <trkpt lat="48.78745" lon="2.47164">
        <ele>84.8</ele>
        <time>2015-04-27T19:27:04.021Z</time>
      </trkpt>
      <trkpt lat="48.78741" lon="2.47171">
        <ele>85.8</ele>
        <time>2015-04-27T19:27:05.030Z</time>
      </trkpt>
      <trkpt lat="48.78738" lon="2.47177">
        <ele>85.9</ele>
        <time>2015-04-27T19:27:06.049Z</time>
      </trkpt>
      <trkpt lat="48.78735" lon="2.47183">
        <ele>86.1</ele>
        <time>2015-04-27T19:27:06.972Z</time>
      </trkpt>
      <trkpt lat="48.78733" lon="2.47188">
        <ele>86.1</ele>
        <time>2015-04-27T19:27:07.973Z</time>
      </trkpt>
      <trkpt lat="48.78728" lon="2.47198">
        <ele>86.2</ele>
        <time>2015-04-27T19:27:09.930Z</time>
      </trkpt>
      <trkpt lat="48.78725" lon="2.47203">
        <ele>86.3</ele>
        <time>2015-04-27T19:27:10.957Z</time>
      </trkpt>
      <trkpt lat="48.78722" lon="2.47212">
        <ele>86</ele>
        <time>2015-04-27T19:27:13.022Z</time>
      </trkpt>
      <trkpt lat="48.7872" lon="2.47218">
        <ele>86.1</ele>
        <time>2015-04-27T19:27:14.029Z</time>
      </trkpt>
      <trkpt lat="48.78716" lon="2.47227">
        <ele>86.4</ele>
        <time>2015-04-27T19:27:16.510Z</time>
      </trkpt>
      <trkpt lat="48.78713" lon="2.47231">
        <ele>86.4</ele>
        <time>2015-04-27T19:27:16.960Z</time>
      </trkpt>
      <trkpt lat="48.7871" lon="2.47239">
        <ele>86.6</ele>
        <time>2015-04-27T19:27:18.970Z</time>
      </trkpt>
      <trkpt lat="48.78709" lon="2.47245">
        <ele>86.8</ele>
        <time>2015-04-27T19:27:19.981Z</time>
      </trkpt>
      <trkpt lat="48.78707" lon="2.47255">
        <ele>87</ele>
        <time>2015-04-27T19:27:22.034Z</time>
      </trkpt>
      <trkpt lat="48.78706" lon="2.4726">
        <ele>87.2</ele>
        <time>2015-04-27T19:27:23.044Z</time>
      </trkpt>
      <trkpt lat="48.78703" lon="2.47271">
        <ele>88.1</ele>
        <time>2015-04-27T19:27:26.709Z</time>
      </trkpt>
      <trkpt lat="48.78701" lon="2.47273">
        <ele>88.4</ele>
        <time>2015-04-27T19:27:26.972Z</time>
      </trkpt>
      <trkpt lat="48.78701" lon="2.47273">
        <ele>88.4</ele>
        <time>2015-04-27T19:27:57.985Z</time>
      </trkpt>
      <trkpt lat="48.787" lon="2.47296">
        <ele>96.4</ele>
        <time>2015-04-27T19:27:59.025Z</time>
      </trkpt>
      <trkpt lat="48.78699" lon="2.47302">
        <ele>97</ele>
        <time>2015-04-27T19:28:04.947Z</time>
      </trkpt>
      <trkpt lat="48.78693" lon="2.47311">
        <ele>96.9</ele>
        <time>2015-04-27T19:28:05.964Z</time>
      </trkpt>
      <trkpt lat="48.78686" lon="2.47318">
        <ele>96.9</ele>
        <time>2015-04-27T19:28:09.030Z</time>
      </trkpt>
      <trkpt lat="48.78684" lon="2.4732">
        <ele>97.2</ele>
        <time>2015-04-27T19:28:10.040Z</time>
      </trkpt>
      <trkpt lat="48.78679" lon="2.47325">
        <ele>97.7</ele>
        <time>2015-04-27T19:28:11.980Z</time>
      </trkpt>
      <trkpt lat="48.78676" lon="2.47329">
        <ele>98</ele>
        <time>2015-04-27T19:28:13.010Z</time>
      </trkpt>
      <trkpt lat="48.78671" lon="2.47334">
        <ele>98.8</ele>
        <time>2015-04-27T19:28:14.983Z</time>
      </trkpt>
      <trkpt lat="48.78667" lon="2.47335">
        <ele>98.2</ele>
        <time>2015-04-27T19:28:15.995Z</time>
      </trkpt>
      <trkpt lat="48.78661" lon="2.47337">
        <ele>97.8</ele>
        <time>2015-04-27T19:28:18.006Z</time>
      </trkpt>
      <trkpt lat="48.78657" lon="2.4734">
        <ele>97.8</ele>
        <time>2015-04-27T19:28:19.017Z</time>
      </trkpt>
      <trkpt lat="48.7865" lon="2.47344">
        <ele>97.2</ele>
        <time>2015-04-27T19:28:21.572Z</time>
      </trkpt>
      <trkpt lat="48.78646" lon="2.47347">
        <ele>96.9</ele>
        <time>2015-04-27T19:28:21.964Z</time>
      </trkpt>
      <trkpt lat="48.78639" lon="2.4735">
        <ele>96.5</ele>
        <time>2015-04-27T19:28:23.958Z</time>
      </trkpt>
      <trkpt lat="48.78636" lon="2.47351">
        <ele>96.6</ele>
        <time>2015-04-27T19:28:24.984Z</time>
      </trkpt>
      <trkpt lat="48.7863" lon="2.47354">
        <ele>96.1</ele>
        <time>2015-04-27T19:28:27.021Z</time>
      </trkpt>
      <trkpt lat="48.78626" lon="2.47356">
        <ele>95.9</ele>
        <time>2015-04-27T19:28:28.015Z</time>
      </trkpt>
      <trkpt lat="48.78619" lon="2.47359">
        <ele>95.2</ele>
        <time>2015-04-27T19:28:29.963Z</time>
      </trkpt>
      <trkpt lat="48.78615" lon="2.4736">
        <ele>95</ele>
        <time>2015-04-27T19:28:30.980Z</time>
      </trkpt>
      <trkpt lat="48.78608" lon="2.47363">
        <ele>94.6</ele>
        <time>2015-04-27T19:28:33.009Z</time>
      </trkpt>
      <trkpt lat="48.78604" lon="2.47365">
        <ele>94.3</ele>
        <time>2015-04-27T19:28:34.020Z</time>
      </trkpt>
      <trkpt lat="48.78597" lon="2.47369">
        <ele>93.9</ele>
        <time>2015-04-27T19:28:36.026Z</time>
      </trkpt>
      <trkpt lat="48.78593" lon="2.4737">
        <ele>93.9</ele>
        <time>2015-04-27T19:28:37.040Z</time>
      </trkpt>
      <trkpt lat="48.78586" lon="2.47367">
        <ele>93.3</ele>
        <time>2015-04-27T19:28:38.976Z</time>
      </trkpt>
      <trkpt lat="48.78584" lon="2.47363">
        <ele>93.3</ele>
        <time>2015-04-27T19:28:40.016Z</time>
      </trkpt>
      <trkpt lat="48.78579" lon="2.47355">
        <ele>92.8</ele>
        <time>2015-04-27T19:28:42.036Z</time>
      </trkpt>
      <trkpt lat="48.78577" lon="2.47351">
        <ele>92.4</ele>
        <time>2015-04-27T19:28:43.047Z</time>
      </trkpt>
      <trkpt lat="48.78573" lon="2.47343">
        <ele>91.7</ele>
        <time>2015-04-27T19:28:45.872Z</time>
      </trkpt>
      <trkpt lat="48.78571" lon="2.4734">
        <ele>91.6</ele>
        <time>2015-04-27T19:28:45.951Z</time>
      </trkpt>
      <trkpt lat="48.78567" lon="2.47332">
        <ele>91.8</ele>
        <time>2015-04-27T19:28:47.977Z</time>
      </trkpt>
      <trkpt lat="48.78565" lon="2.47329">
        <ele>92</ele>
        <time>2015-04-27T19:28:49.007Z</time>
      </trkpt>
      <trkpt lat="48.78559" lon="2.47319">
        <ele>92.4</ele>
        <time>2015-04-27T19:28:51.981Z</time>
      </trkpt>
      <trkpt lat="48.78557" lon="2.47315">
        <ele>92.7</ele>
        <time>2015-04-27T19:28:52.996Z</time>
      </trkpt>
      <trkpt lat="48.78555" lon="2.4731">
        <ele>91.8</ele>
        <time>2015-04-27T19:30:31.207Z</time>
      </trkpt>
      <trkpt lat="48.78545" lon="2.47287">
        <ele>93.6</ele>
        <time>2015-04-27T19:30:32.007Z</time>
      </trkpt>
      <trkpt lat="48.7854" lon="2.47278">
        <ele>92.5</ele>
        <time>2015-04-27T19:30:36.948Z</time>
      </trkpt>
      <trkpt lat="48.78539" lon="2.47277">
        <ele>92.4</ele>
        <time>2015-04-27T19:30:37.969Z</time>
      </trkpt>
      <trkpt lat="48.78533" lon="2.47268">
        <ele>92.4</ele>
        <time>2015-04-27T19:30:40.961Z</time>
      </trkpt>
      <trkpt lat="48.78533" lon="2.47265">
        <ele>92.3</ele>
        <time>2015-04-27T19:30:41.968Z</time>
      </trkpt>
      <trkpt lat="48.78531" lon="2.47256">
        <ele>93.3</ele>
        <time>2015-04-27T19:31:09.021Z</time>
      </trkpt>
      <trkpt lat="48.78506" lon="2.47217">
        <ele>97.6</ele>
        <time>2015-04-27T19:31:10.004Z</time>
      </trkpt>
      <trkpt lat="48.78505" lon="2.47216">
        <ele>97.8</ele>
        <time>2015-04-27T19:36:03.044Z</time>
      </trkpt>
      <trkpt lat="48.78496" lon="2.47228">
        <ele>104.5</ele>
        <time>2015-04-27T19:36:04.071Z</time>
      </trkpt>
      <trkpt lat="48.78491" lon="2.47239">
        <ele>103.8</ele>
        <time>2015-04-27T19:36:08.017Z</time>
      </trkpt>
      <trkpt lat="48.7849" lon="2.47242">
        <ele>103.6</ele>
        <time>2015-04-27T19:36:09.139Z</time>
      </trkpt>
      <trkpt lat="48.78486" lon="2.4725">
        <ele>103.3</ele>
        <time>2015-04-27T19:36:11.180Z</time>
      </trkpt>
      <trkpt lat="48.78484" lon="2.47254">
        <ele>103</ele>
        <time>2015-04-27T19:36:12.094Z</time>
      </trkpt>
      <trkpt lat="48.7848" lon="2.47262">
        <ele>102.6</ele>
        <time>2015-04-27T19:36:13.961Z</time>
      </trkpt>
      <trkpt lat="48.78478" lon="2.47266">
        <ele>102.5</ele>
        <time>2015-04-27T19:36:14.976Z</time>
      </trkpt>
      <trkpt lat="48.78473" lon="2.47274">
        <ele>102.3</ele>
        <time>2015-04-27T19:36:16.999Z</time>
      </trkpt>
      <trkpt lat="48.78471" lon="2.47278">
        <ele>102.2</ele>
        <time>2015-04-27T19:36:18.004Z</time>
      </trkpt>
      <trkpt lat="48.78467" lon="2.47286">
        <ele>101.7</ele>
        <time>2015-04-27T19:36:19.963Z</time>
      </trkpt>
      <trkpt lat="48.78464" lon="2.4729">
        <ele>101.5</ele>
        <time>2015-04-27T19:36:21.059Z</time>
      </trkpt>
      <trkpt lat="48.7846" lon="2.47298">
        <ele>101.1</ele>
        <time>2015-04-27T19:36:22.985Z</time>
      </trkpt>
      <trkpt lat="48.78458" lon="2.47303">
        <ele>100.8</ele>
        <time>2015-04-27T19:36:24.000Z</time>
      </trkpt>
      <trkpt lat="48.78454" lon="2.47313">
        <ele>99.4</ele>
        <time>2015-04-27T19:36:25.940Z</time>
      </trkpt>
      <trkpt lat="48.78452" lon="2.47317">
        <ele>99</ele>
        <time>2015-04-27T19:36:27.025Z</time>
      </trkpt>
      <trkpt lat="48.78448" lon="2.47324">
        <ele>97.6</ele>
        <time>2015-04-27T19:36:28.955Z</time>
      </trkpt>
      <trkpt lat="48.78446" lon="2.47328">
        <ele>97.4</ele>
        <time>2015-04-27T19:36:29.957Z</time>
      </trkpt>
      <trkpt lat="48.7844" lon="2.47338">
        <ele>96.7</ele>
        <time>2015-04-27T19:36:32.050Z</time>
      </trkpt>
      <trkpt lat="48.78438" lon="2.47343">
        <ele>96.1</ele>
        <time>2015-04-27T19:36:33.059Z</time>
      </trkpt>
      <trkpt lat="48.78433" lon="2.47353">
        <ele>95.6</ele>
        <time>2015-04-27T19:36:34.973Z</time>
      </trkpt>
      <trkpt lat="48.7843" lon="2.47359">
        <ele>95.3</ele>
        <time>2015-04-27T19:36:36.026Z</time>
      </trkpt>
      <trkpt lat="48.78427" lon="2.47365">
        <ele>95.2</ele>
        <time>2015-04-27T19:36:36.916Z</time>
      </trkpt>
      <trkpt lat="48.78424" lon="2.47371">
        <ele>94.6</ele>
        <time>2015-04-27T19:36:37.949Z</time>
      </trkpt>
      <trkpt lat="48.7842" lon="2.47377">
        <ele>94.5</ele>
        <time>2015-04-27T19:36:38.982Z</time>
      </trkpt>
      <trkpt lat="48.78417" lon="2.47385">
        <ele>94.3</ele>
        <time>2015-04-27T19:36:40.002Z</time>
      </trkpt>
      <trkpt lat="48.78414" lon="2.47393">
        <ele>93.5</ele>
        <time>2015-04-27T19:36:40.948Z</time>
      </trkpt>
      <trkpt lat="48.78411" lon="2.47399">
        <ele>93.1</ele>
        <time>2015-04-27T19:36:41.948Z</time>
      </trkpt>
      <trkpt lat="48.78408" lon="2.47405">
        <ele>92.7</ele>
        <time>2015-04-27T19:36:42.967Z</time>
      </trkpt>
      <trkpt lat="48.78404" lon="2.47411">
        <ele>92.7</ele>
        <time>2015-04-27T19:36:43.981Z</time>
      </trkpt>
      <trkpt lat="48.78401" lon="2.47417">
        <ele>92.5</ele>
        <time>2015-04-27T19:36:44.997Z</time>
      </trkpt>
      <trkpt lat="48.78397" lon="2.47424">
        <ele>92.3</ele>
        <time>2015-04-27T19:36:46.011Z</time>
      </trkpt>
      <trkpt lat="48.78393" lon="2.47429">
        <ele>92.1</ele>
        <time>2015-04-27T19:36:46.945Z</time>
      </trkpt>
      <trkpt lat="48.78389" lon="2.47434">
        <ele>91.8</ele>
        <time>2015-04-27T19:36:47.941Z</time>
      </trkpt>
      <trkpt lat="48.78381" lon="2.47439">
        <ele>91.1</ele>
        <time>2015-04-27T19:36:50.023Z</time>
      </trkpt>
      <trkpt lat="48.78377" lon="2.47441">
        <ele>90.9</ele>
        <time>2015-04-27T19:36:50.962Z</time>
      </trkpt>
      <trkpt lat="48.78368" lon="2.47443">
        <ele>91</ele>
        <time>2015-04-27T19:36:52.998Z</time>
      </trkpt>
      <trkpt lat="48.78364" lon="2.47443">
        <ele>90.7</ele>
        <time>2015-04-27T19:36:54.005Z</time>
      </trkpt>
      <trkpt lat="48.78356" lon="2.47442">
        <ele>90.4</ele>
        <time>2015-04-27T19:36:56.012Z</time>
      </trkpt>
      <trkpt lat="48.78353" lon="2.47442">
        <ele>90.4</ele>
        <time>2015-04-27T19:36:57.024Z</time>
      </trkpt>
      <trkpt lat="48.78345" lon="2.47443">
        <ele>89.6</ele>
        <time>2015-04-27T19:36:59.040Z</time>
      </trkpt>
      <trkpt lat="48.78342" lon="2.47444">
        <ele>89.2</ele>
        <time>2015-04-27T19:37:00.057Z</time>
      </trkpt>
      <trkpt lat="48.78334" lon="2.47445">
        <ele>89.9</ele>
        <time>2015-04-27T19:37:03.032Z</time>
      </trkpt>
      <trkpt lat="48.78332" lon="2.47447">
        <ele>90.6</ele>
        <time>2015-04-27T19:37:03.984Z</time>
      </trkpt>
      <trkpt lat="48.78331" lon="2.47448">
        <ele>90.8</ele>
        <time>2015-04-27T19:37:13.997Z</time>
      </trkpt>
      <trkpt lat="48.78325" lon="2.47456">
        <ele>92.4</ele>
        <time>2015-04-27T19:37:15.015Z</time>
      </trkpt>
      <trkpt lat="48.78318" lon="2.47463">
        <ele>92</ele>
        <time>2015-04-27T19:37:19.059Z</time>
      </trkpt>
      <trkpt lat="48.78315" lon="2.47465">
        <ele>91.6</ele>
        <time>2015-04-27T19:37:19.958Z</time>
      </trkpt>
      <trkpt lat="48.78309" lon="2.47471">
        <ele>91.2</ele>
        <time>2015-04-27T19:37:22.119Z</time>
      </trkpt>
      <trkpt lat="48.78306" lon="2.47474">
        <ele>90.8</ele>
        <time>2015-04-27T19:37:22.969Z</time>
      </trkpt>
      <trkpt lat="48.78299" lon="2.4748">
        <ele>90.8</ele>
        <time>2015-04-27T19:37:24.944Z</time>
      </trkpt>
      <trkpt lat="48.78295" lon="2.47483">
        <ele>90.8</ele>
        <time>2015-04-27T19:37:25.969Z</time>
      </trkpt>
      <trkpt lat="48.78291" lon="2.47487">
        <ele>90.2</ele>
        <time>2015-04-27T19:37:27.029Z</time>
      </trkpt>
      <trkpt lat="48.78287" lon="2.47491">
        <ele>90.2</ele>
        <time>2015-04-27T19:37:28.027Z</time>
      </trkpt>
      <trkpt lat="48.7828" lon="2.47497">
        <ele>89.9</ele>
        <time>2015-04-27T19:37:29.943Z</time>
      </trkpt>
      <trkpt lat="48.78276" lon="2.47501">
        <ele>90</ele>
        <time>2015-04-27T19:37:30.963Z</time>
      </trkpt>
      <trkpt lat="48.78269" lon="2.47507">
        <ele>89.5</ele>
        <time>2015-04-27T19:37:32.990Z</time>
      </trkpt>
      <trkpt lat="48.78265" lon="2.47511">
        <ele>89.3</ele>
        <time>2015-04-27T19:37:33.948Z</time>
      </trkpt>
      <trkpt lat="48.78258" lon="2.47516">
        <ele>89</ele>
        <time>2015-04-27T19:37:36.011Z</time>
      </trkpt>
      <trkpt lat="48.78254" lon="2.47519">
        <ele>88.9</ele>
        <time>2015-04-27T19:37:36.961Z</time>
      </trkpt>
      <trkpt lat="48.78248" lon="2.47526">
        <ele>88.6</ele>
        <time>2015-04-27T19:37:38.990Z</time>
      </trkpt>
      <trkpt lat="48.78244" lon="2.47531">
        <ele>88.4</ele>
        <time>2015-04-27T19:37:40.000Z</time>
      </trkpt>
      <trkpt lat="48.78241" lon="2.47535">
        <ele>88.1</ele>
        <time>2015-04-27T19:37:40.939Z</time>
      </trkpt>
      <trkpt lat="48.78236" lon="2.47539">
        <ele>87.9</ele>
        <time>2015-04-27T19:37:41.939Z</time>
      </trkpt>
      <trkpt lat="48.7823" lon="2.47543">
        <ele>87.4</ele>
        <time>2015-04-27T19:37:43.983Z</time>
      </trkpt>
      <trkpt lat="48.78227" lon="2.47545">
        <ele>87.5</ele>
        <time>2015-04-27T19:37:44.992Z</time>
      </trkpt>
      <trkpt lat="48.7822" lon="2.47551">
        <ele>87.4</ele>
        <time>2015-04-27T19:37:47.916Z</time>
      </trkpt>
      <trkpt lat="48.78218" lon="2.47553">
        <ele>87</ele>
        <time>2015-04-27T19:37:48.971Z</time>
      </trkpt>
      <trkpt lat="48.78212" lon="2.47559">
        <ele>87.1</ele>
        <time>2015-04-27T19:37:51.033Z</time>
      </trkpt>
      <trkpt lat="48.78207" lon="2.47561">
        <ele>86.9</ele>
        <time>2015-04-27T19:37:51.927Z</time>
      </trkpt>
      <trkpt lat="48.782" lon="2.47567">
        <ele>87</ele>
        <time>2015-04-27T19:37:53.943Z</time>
      </trkpt>
      <trkpt lat="48.78196" lon="2.47571">
        <ele>86.9</ele>
        <time>2015-04-27T19:37:54.940Z</time>
      </trkpt>
      <trkpt lat="48.78192" lon="2.47575">
        <ele>87</ele>
        <time>2015-04-27T19:37:55.946Z</time>
      </trkpt>
      <trkpt lat="48.78188" lon="2.4758">
        <ele>86.6</ele>
        <time>2015-04-27T19:37:56.984Z</time>
      </trkpt>
      <trkpt lat="48.7818" lon="2.47587">
        <ele>86.4</ele>
        <time>2015-04-27T19:37:58.941Z</time>
      </trkpt>
      <trkpt lat="48.78175" lon="2.47591">
        <ele>85.9</ele>
        <time>2015-04-27T19:37:59.985Z</time>
      </trkpt>
      <trkpt lat="48.78168" lon="2.47597">
        <ele>85.7</ele>
        <time>2015-04-27T19:38:02.022Z</time>
      </trkpt>
      <trkpt lat="48.78165" lon="2.47599">
        <ele>85.6</ele>
        <time>2015-04-27T19:38:03.068Z</time>
      </trkpt>
      <trkpt lat="48.78159" lon="2.47604">
        <ele>85.1</ele>
        <time>2015-04-27T19:38:04.951Z</time>
      </trkpt>
      <trkpt lat="48.78155" lon="2.47607">
        <ele>85</ele>
        <time>2015-04-27T19:38:05.940Z</time>
      </trkpt>
      <trkpt lat="48.78148" lon="2.47613">
        <ele>85.1</ele>
        <time>2015-04-27T19:38:07.944Z</time>
      </trkpt>
      <trkpt lat="48.78145" lon="2.47617">
        <ele>85.1</ele>
        <time>2015-04-27T19:38:09.008Z</time>
      </trkpt>
      <trkpt lat="48.7814" lon="2.47622">
        <ele>85.3</ele>
        <time>2015-04-27T19:38:10.942Z</time>
      </trkpt>
      <trkpt lat="48.78136" lon="2.47626">
        <ele>85.8</ele>
        <time>2015-04-27T19:38:11.987Z</time>
      </trkpt>
      <trkpt lat="48.78128" lon="2.47633">
        <ele>86.7</ele>
        <time>2015-04-27T19:38:15.129Z</time>
      </trkpt>
      <trkpt lat="48.78127" lon="2.47634">
        <ele>86.6</ele>
        <time>2015-04-27T19:38:15.979Z</time>
      </trkpt>
      <trkpt lat="48.78133" lon="2.47628">
        <ele>88.3</ele>
        <time>2015-04-27T19:38:32.982Z</time>
      </trkpt>
      <trkpt lat="48.78135" lon="2.47626">
        <ele>88.4</ele>
        <time>2015-04-27T19:38:34.112Z</time>
      </trkpt>
      <trkpt lat="48.78142" lon="2.47621">
        <ele>88.6</ele>
        <time>2015-04-27T19:38:36.996Z</time>
      </trkpt>
      <trkpt lat="48.78145" lon="2.47619">
        <ele>88.7</ele>
        <time>2015-04-27T19:38:38.007Z</time>
      </trkpt>
      <trkpt lat="48.78151" lon="2.47615">
        <ele>88.7</ele>
        <time>2015-04-27T19:38:39.931Z</time>
      </trkpt>
      <trkpt lat="48.78154" lon="2.47613">
        <ele>88.9</ele>
        <time>2015-04-27T19:38:40.947Z</time>
      </trkpt>
      <trkpt lat="48.7816" lon="2.47607">
        <ele>88.9</ele>
        <time>2015-04-27T19:38:42.947Z</time>
      </trkpt>
      <trkpt lat="48.78162" lon="2.47603">
        <ele>88.8</ele>
        <time>2015-04-27T19:38:43.961Z</time>
      </trkpt>
      <trkpt lat="48.78167" lon="2.47598">
        <ele>89</ele>
        <time>2015-04-27T19:38:45.966Z</time>
      </trkpt>
      <trkpt lat="48.78169" lon="2.47594">
        <ele>89.1</ele>
        <time>2015-04-27T19:38:46.947Z</time>
      </trkpt>
      <trkpt lat="48.78175" lon="2.47585">
        <ele>89.4</ele>
        <time>2015-04-27T19:38:50.018Z</time>
      </trkpt>
      <trkpt lat="48.78178" lon="2.47582">
        <ele>89.5</ele>
        <time>2015-04-27T19:38:51.320Z</time>
      </trkpt>
      <trkpt lat="48.78183" lon="2.47579">
        <ele>90.2</ele>
        <time>2015-04-27T19:38:52.927Z</time>
      </trkpt>
      <trkpt lat="48.78186" lon="2.47577">
        <ele>90.1</ele>
        <time>2015-04-27T19:38:54.009Z</time>
      </trkpt>
      <trkpt lat="48.78193" lon="2.47573">
        <ele>90.1</ele>
        <time>2015-04-27T19:38:55.954Z</time>
      </trkpt>
      <trkpt lat="48.78196" lon="2.47571">
        <ele>90.3</ele>
        <time>2015-04-27T19:38:56.961Z</time>
      </trkpt>
      <trkpt lat="48.78201" lon="2.47566">
        <ele>90.6</ele>
        <time>2015-04-27T19:38:59.022Z</time>
      </trkpt>
      <trkpt lat="48.78204" lon="2.47562">
        <ele>90.6</ele>
        <time>2015-04-27T19:38:59.929Z</time>
      </trkpt>
      <trkpt lat="48.78212" lon="2.47558">
        <ele>90.4</ele>
        <time>2015-04-27T19:39:01.954Z</time>
      </trkpt>
      <trkpt lat="48.78216" lon="2.47555">
        <ele>90.5</ele>
        <time>2015-04-27T19:39:03.309Z</time>
      </trkpt>
      <trkpt lat="48.7822" lon="2.47551">
        <ele>90.4</ele>
        <time>2015-04-27T19:39:03.976Z</time>
      </trkpt>
      <trkpt lat="48.78224" lon="2.47547">
        <ele>90.3</ele>
        <time>2015-04-27T19:39:04.985Z</time>
      </trkpt>
      <trkpt lat="48.78231" lon="2.4754">
        <ele>89.8</ele>
        <time>2015-04-27T19:39:06.918Z</time>
      </trkpt>
      <trkpt lat="48.78234" lon="2.47537">
        <ele>89.7</ele>
        <time>2015-04-27T19:39:07.926Z</time>
      </trkpt>
      <trkpt lat="48.78239" lon="2.4753">
        <ele>89.8</ele>
        <time>2015-04-27T19:39:10.024Z</time>
      </trkpt>
      <trkpt lat="48.78242" lon="2.47526">
        <ele>90.1</ele>
        <time>2015-04-27T19:39:10.942Z</time>
      </trkpt>
      <trkpt lat="48.78248" lon="2.4752">
        <ele>90.4</ele>
        <time>2015-04-27T19:39:12.956Z</time>
      </trkpt>
      <trkpt lat="48.78251" lon="2.47518">
        <ele>90.4</ele>
        <time>2015-04-27T19:39:13.944Z</time>
      </trkpt>
      <trkpt lat="48.78257" lon="2.47513">
        <ele>90.4</ele>
        <time>2015-04-27T19:39:16.011Z</time>
      </trkpt>
      <trkpt lat="48.7826" lon="2.4751">
        <ele>90.6</ele>
        <time>2015-04-27T19:39:16.932Z</time>
      </trkpt>
      <trkpt lat="48.78267" lon="2.47504">
        <ele>90.3</ele>
        <time>2015-04-27T19:39:19.002Z</time>
      </trkpt>
      <trkpt lat="48.78271" lon="2.47501">
        <ele>90.3</ele>
        <time>2015-04-27T19:39:20.015Z</time>
      </trkpt>
      <trkpt lat="48.78278" lon="2.47495">
        <ele>90.9</ele>
        <time>2015-04-27T19:39:22.689Z</time>
      </trkpt>
      <trkpt lat="48.78281" lon="2.47493">
        <ele>91</ele>
        <time>2015-04-27T19:39:22.962Z</time>
      </trkpt>
      <trkpt lat="48.78287" lon="2.47485">
        <ele>92.2</ele>
        <time>2015-04-27T19:39:24.985Z</time>
      </trkpt>
      <trkpt lat="48.7829" lon="2.47482">
        <ele>92.5</ele>
        <time>2015-04-27T19:39:26.012Z</time>
      </trkpt>
      <trkpt lat="48.78297" lon="2.47478">
        <ele>93.3</ele>
        <time>2015-04-27T19:39:27.925Z</time>
      </trkpt>
      <trkpt lat="48.783" lon="2.47475">
        <ele>93.3</ele>
        <time>2015-04-27T19:39:28.949Z</time>
      </trkpt>
      <trkpt lat="48.78306" lon="2.47469">
        <ele>93</ele>
        <time>2015-04-27T19:39:30.978Z</time>
      </trkpt>
      <trkpt lat="48.78308" lon="2.47466">
        <ele>92.7</ele>
        <time>2015-04-27T19:39:31.989Z</time>
      </trkpt>
      <trkpt lat="48.78315" lon="2.4746">
        <ele>93.2</ele>
        <time>2015-04-27T19:39:35.717Z</time>
      </trkpt>
      <trkpt lat="48.78318" lon="2.47458">
        <ele>93.2</ele>
        <time>2015-04-27T19:39:35.956Z</time>
      </trkpt>
      <trkpt lat="48.78324" lon="2.47449">
        <ele>93.5</ele>
        <time>2015-04-27T19:39:40.834Z</time>
      </trkpt>
      <trkpt lat="48.78324" lon="2.47447">
        <ele>93.4</ele>
        <time>2015-04-27T19:39:40.929Z</time>
      </trkpt>
      <trkpt lat="48.78323" lon="2.47438">
        <ele>93.9</ele>
        <time>2015-04-27T19:39:49.036Z</time>
      </trkpt>
      <trkpt lat="48.78315" lon="2.47437">
        <ele>94.7</ele>
        <time>2015-04-27T19:39:49.945Z</time>
      </trkpt>
      <trkpt lat="48.78307" lon="2.47436">
        <ele>95.5</ele>
        <time>2015-04-27T19:39:54.007Z</time>
      </trkpt>
      <trkpt lat="48.78304" lon="2.47436">
        <ele>95.5</ele>
        <time>2015-04-27T19:39:54.966Z</time>
      </trkpt>
      <trkpt lat="48.78297" lon="2.47437">
        <ele>95.5</ele>
        <time>2015-04-27T19:39:58.001Z</time>
      </trkpt>
      <trkpt lat="48.78294" lon="2.47438">
        <ele>96.1</ele>
        <time>2015-04-27T19:39:59.036Z</time>
      </trkpt>
      <trkpt lat="48.78286" lon="2.47442">
        <ele>97.1</ele>
        <time>2015-04-27T19:40:01.975Z</time>
      </trkpt>
      <trkpt lat="48.78283" lon="2.47442">
        <ele>97.3</ele>
        <time>2015-04-27T19:40:03.028Z</time>
      </trkpt>
      <trkpt lat="48.78276" lon="2.47444">
        <ele>97.4</ele>
        <time>2015-04-27T19:40:04.954Z</time>
      </trkpt>
      <trkpt lat="48.78273" lon="2.47445">
        <ele>97.5</ele>
        <time>2015-04-27T19:40:05.958Z</time>
      </trkpt>
      <trkpt lat="48.78265" lon="2.47448">
        <ele>97.6</ele>
        <time>2015-04-27T19:40:07.973Z</time>
      </trkpt>
      <trkpt lat="48.78262" lon="2.47449">
        <ele>98</ele>
        <time>2015-04-27T19:40:09.032Z</time>
      </trkpt>
      <trkpt lat="48.78254" lon="2.4745">
        <ele>97.4</ele>
        <time>2015-04-27T19:40:11.304Z</time>
      </trkpt>
      <trkpt lat="48.78251" lon="2.47452">
        <ele>97.4</ele>
        <time>2015-04-27T19:40:11.915Z</time>
      </trkpt>
      <trkpt lat="48.78245" lon="2.47455">
        <ele>97.6</ele>
        <time>2015-04-27T19:40:13.930Z</time>
      </trkpt>
      <trkpt lat="48.78243" lon="2.47456">
        <ele>97.3</ele>
        <time>2015-04-27T19:40:14.947Z</time>
      </trkpt>
      <trkpt lat="48.78235" lon="2.47459">
        <ele>97.2</ele>
        <time>2015-04-27T19:40:18.097Z</time>
      </trkpt>
      <trkpt lat="48.78232" lon="2.4746">
        <ele>97.5</ele>
        <time>2015-04-27T19:40:18.927Z</time>
      </trkpt>
      <trkpt lat="48.78225" lon="2.47464">
        <ele>98.9</ele>
        <time>2015-04-27T19:40:23.005Z</time>
      </trkpt>
      <trkpt lat="48.78222" lon="2.47463">
        <ele>99.2</ele>
        <time>2015-04-27T19:40:24.010Z</time>
      </trkpt>
      <trkpt lat="48.78216" lon="2.47456">
        <ele>99.8</ele>
        <time>2015-04-27T19:40:28.038Z</time>
      </trkpt>
      <trkpt lat="48.78214" lon="2.47453">
        <ele>99.8</ele>
        <time>2015-04-27T19:40:29.007Z</time>
      </trkpt>
      <trkpt lat="48.78209" lon="2.47443">
        <ele>101.3</ele>
        <time>2015-04-27T19:40:34.042Z</time>
      </trkpt>
      <trkpt lat="48.78208" lon="2.47441">
        <ele>101.3</ele>
        <time>2015-04-27T19:40:34.971Z</time>
      </trkpt>
      <trkpt lat="48.78206" lon="2.4743">
        <ele>102.2</ele>
        <time>2015-04-27T19:40:39.004Z</time>
      </trkpt>
      <trkpt lat="48.78205" lon="2.47426">
        <ele>102.2</ele>
        <time>2015-04-27T19:40:40.031Z</time>
      </trkpt>
      <trkpt lat="48.782" lon="2.47421">
        <ele>102.4</ele>
        <time>2015-04-27T19:44:05.934Z</time>
      </trkpt>
      <trkpt lat="48.78175" lon="2.47408">
        <ele>113.2</ele>
        <time>2015-04-27T19:44:06.946Z</time>
      </trkpt>
      <trkpt lat="48.78168" lon="2.47414">
        <ele>112.6</ele>
        <time>2015-04-27T19:44:09.977Z</time>
      </trkpt>
      <trkpt lat="48.78164" lon="2.47418">
        <ele>111.9</ele>
        <time>2015-04-27T19:44:10.987Z</time>
      </trkpt>
      <trkpt lat="48.78161" lon="2.47423">
        <ele>111.9</ele>
        <time>2015-04-27T19:44:11.900Z</time>
      </trkpt>
      <trkpt lat="48.78157" lon="2.47427">
        <ele>111.7</ele>
        <time>2015-04-27T19:44:12.955Z</time>
      </trkpt>
      <trkpt lat="48.78153" lon="2.47432">
        <ele>111.3</ele>
        <time>2015-04-27T19:44:13.942Z</time>
      </trkpt>
      <trkpt lat="48.7815" lon="2.47437">
        <ele>110.5</ele>
        <time>2015-04-27T19:44:14.981Z</time>
      </trkpt>
      <trkpt lat="48.78147" lon="2.47441">
        <ele>109.7</ele>
        <time>2015-04-27T19:44:15.968Z</time>
      </trkpt>
      <trkpt lat="48.78143" lon="2.47445">
        <ele>109.4</ele>
        <time>2015-04-27T19:44:16.987Z</time>
      </trkpt>
      <trkpt lat="48.78139" lon="2.4745">
        <ele>108.8</ele>
        <time>2015-04-27T19:44:18.053Z</time>
      </trkpt>
      <trkpt lat="48.78135" lon="2.47453">
        <ele>108.5</ele>
        <time>2015-04-27T19:44:19.024Z</time>
      </trkpt>
      <trkpt lat="48.78127" lon="2.47461">
        <ele>108.1</ele>
        <time>2015-04-27T19:44:21.048Z</time>
      </trkpt>
      <trkpt lat="48.78123" lon="2.47464">
        <ele>108.3</ele>
        <time>2015-04-27T19:44:21.968Z</time>
      </trkpt>
      <trkpt lat="48.78119" lon="2.47468">
        <ele>108.6</ele>
        <time>2015-04-27T19:44:23.073Z</time>
      </trkpt>
      <trkpt lat="48.78115" lon="2.47472">
        <ele>108.6</ele>
        <time>2015-04-27T19:44:24.000Z</time>
      </trkpt>
      <trkpt lat="48.78108" lon="2.47479">
        <ele>108.7</ele>
        <time>2015-04-27T19:44:26.019Z</time>
      </trkpt>
      <trkpt lat="48.78105" lon="2.47482">
        <ele>108.5</ele>
        <time>2015-04-27T19:44:27.042Z</time>
      </trkpt>
      <trkpt lat="48.78098" lon="2.4749">
        <ele>108.2</ele>
        <time>2015-04-27T19:44:28.999Z</time>
      </trkpt>
      <trkpt lat="48.78094" lon="2.47494">
        <ele>108.1</ele>
        <time>2015-04-27T19:44:30.017Z</time>
      </trkpt>
      <trkpt lat="48.7809" lon="2.47498">
        <ele>108.3</ele>
        <time>2015-04-27T19:44:31.025Z</time>
      </trkpt>
      <trkpt lat="48.78086" lon="2.47501">
        <ele>108.1</ele>
        <time>2015-04-27T19:44:32.054Z</time>
      </trkpt>
      <trkpt lat="48.78079" lon="2.47509">
        <ele>108.1</ele>
        <time>2015-04-27T19:44:34.003Z</time>
      </trkpt>
      <trkpt lat="48.78075" lon="2.47513">
        <ele>108.2</ele>
        <time>2015-04-27T19:44:35.029Z</time>
      </trkpt>
      <trkpt lat="48.78068" lon="2.47521">
        <ele>108</ele>
        <time>2015-04-27T19:44:36.948Z</time>
      </trkpt>
      <trkpt lat="48.78064" lon="2.47525">
        <ele>108</ele>
        <time>2015-04-27T19:44:37.957Z</time>
      </trkpt>
      <trkpt lat="48.7806" lon="2.4753">
        <ele>107.8</ele>
        <time>2015-04-27T19:44:38.980Z</time>
      </trkpt>
      <trkpt lat="48.78056" lon="2.47534">
        <ele>107.5</ele>
        <time>2015-04-27T19:44:39.990Z</time>
      </trkpt>
      <trkpt lat="48.78052" lon="2.47539">
        <ele>107.4</ele>
        <time>2015-04-27T19:44:40.999Z</time>
      </trkpt>
      <trkpt lat="48.78047" lon="2.47544">
        <ele>107.6</ele>
        <time>2015-04-27T19:44:42.015Z</time>
      </trkpt>
      <trkpt lat="48.78043" lon="2.47548">
        <ele>107.8</ele>
        <time>2015-04-27T19:44:43.026Z</time>
      </trkpt>
      <trkpt lat="48.78039" lon="2.47553">
        <ele>108.4</ele>
        <time>2015-04-27T19:44:44.036Z</time>
      </trkpt>
      <trkpt lat="48.78035" lon="2.47557">
        <ele>108.7</ele>
        <time>2015-04-27T19:44:44.983Z</time>
      </trkpt>
      <trkpt lat="48.78031" lon="2.47561">
        <ele>108.7</ele>
        <time>2015-04-27T19:44:45.960Z</time>
      </trkpt>
      <trkpt lat="48.78028" lon="2.47564">
        <ele>108.5</ele>
        <time>2015-04-27T19:44:46.972Z</time>
      </trkpt>
      <trkpt lat="48.78023" lon="2.47567">
        <ele>108.6</ele>
        <time>2015-04-27T19:44:47.978Z</time>
      </trkpt>
      <trkpt lat="48.78019" lon="2.4757">
        <ele>108.7</ele>
        <time>2015-04-27T19:44:48.989Z</time>
      </trkpt>
      <trkpt lat="48.78014" lon="2.47573">
        <ele>108.6</ele>
        <time>2015-04-27T19:44:49.999Z</time>
      </trkpt>
      <trkpt lat="48.78006" lon="2.47579">
        <ele>108.4</ele>
        <time>2015-04-27T19:44:51.960Z</time>
      </trkpt>
      <trkpt lat="48.78003" lon="2.47584">
        <ele>108.3</ele>
        <time>2015-04-27T19:44:52.966Z</time>
      </trkpt>
      <trkpt lat="48.77999" lon="2.47588">
        <ele>108.1</ele>
        <time>2015-04-27T19:44:53.992Z</time>
      </trkpt>
      <trkpt lat="48.77996" lon="2.47593">
        <ele>108.1</ele>
        <time>2015-04-27T19:44:54.990Z</time>
      </trkpt>
      <trkpt lat="48.77992" lon="2.47597">
        <ele>107.8</ele>
        <time>2015-04-27T19:44:56.021Z</time>
      </trkpt>
      <trkpt lat="48.77989" lon="2.47602">
        <ele>107.8</ele>
        <time>2015-04-27T19:44:57.019Z</time>
      </trkpt>
      <trkpt lat="48.77985" lon="2.47606">
        <ele>107.6</ele>
        <time>2015-04-27T19:44:58.031Z</time>
      </trkpt>
      <trkpt lat="48.77981" lon="2.47609">
        <ele>107.5</ele>
        <time>2015-04-27T19:44:58.943Z</time>
      </trkpt>
      <trkpt lat="48.77973" lon="2.47616">
        <ele>107.5</ele>
        <time>2015-04-27T19:45:00.969Z</time>
      </trkpt>
      <trkpt lat="48.77969" lon="2.4762">
        <ele>107.4</ele>
        <time>2015-04-27T19:45:02.025Z</time>
      </trkpt>
      <trkpt lat="48.77965" lon="2.47625">
        <ele>107.3</ele>
        <time>2015-04-27T19:45:03.075Z</time>
      </trkpt>
      <trkpt lat="48.77961" lon="2.47629">
        <ele>107.2</ele>
        <time>2015-04-27T19:45:03.963Z</time>
      </trkpt>
      <trkpt lat="48.77957" lon="2.47633">
        <ele>107.3</ele>
        <time>2015-04-27T19:45:04.953Z</time>
      </trkpt>
      <trkpt lat="48.77953" lon="2.47638">
        <ele>107.5</ele>
        <time>2015-04-27T19:45:05.970Z</time>
      </trkpt>
      <trkpt lat="48.77949" lon="2.47642">
        <ele>107.4</ele>
        <time>2015-04-27T19:45:06.988Z</time>
      </trkpt>
      <trkpt lat="48.77945" lon="2.47646">
        <ele>107.5</ele>
        <time>2015-04-27T19:45:07.999Z</time>
      </trkpt>
      <trkpt lat="48.77941" lon="2.4765">
        <ele>107.3</ele>
        <time>2015-04-27T19:45:09.003Z</time>
      </trkpt>
      <trkpt lat="48.77937" lon="2.47655">
        <ele>107.3</ele>
        <time>2015-04-27T19:45:10.012Z</time>
      </trkpt>
      <trkpt lat="48.77933" lon="2.47659">
        <ele>107.4</ele>
        <time>2015-04-27T19:45:11.025Z</time>
      </trkpt>
      <trkpt lat="48.77929" lon="2.47663">
        <ele>107.7</ele>
        <time>2015-04-27T19:45:11.916Z</time>
      </trkpt>
      <trkpt lat="48.77925" lon="2.47667">
        <ele>108.1</ele>
        <time>2015-04-27T19:45:12.940Z</time>
      </trkpt>
      <trkpt lat="48.7792" lon="2.47671">
        <ele>108.3</ele>
        <time>2015-04-27T19:45:13.952Z</time>
      </trkpt>
      <trkpt lat="48.77916" lon="2.47675">
        <ele>108.1</ele>
        <time>2015-04-27T19:45:14.978Z</time>
      </trkpt>
      <trkpt lat="48.77911" lon="2.4768">
        <ele>108</ele>
        <time>2015-04-27T19:45:15.992Z</time>
      </trkpt>
      <trkpt lat="48.77908" lon="2.47685">
        <ele>108.5</ele>
        <time>2015-04-27T19:45:17.003Z</time>
      </trkpt>
      <trkpt lat="48.77904" lon="2.4769">
        <ele>108.6</ele>
        <time>2015-04-27T19:45:18.004Z</time>
      </trkpt>
      <trkpt lat="48.77899" lon="2.47694">
        <ele>109.2</ele>
        <time>2015-04-27T19:45:19.016Z</time>
      </trkpt>
      <trkpt lat="48.77895" lon="2.47699">
        <ele>109.5</ele>
        <time>2015-04-27T19:45:19.921Z</time>
      </trkpt>
      <trkpt lat="48.77891" lon="2.47703">
        <ele>109.8</ele>
        <time>2015-04-27T19:45:20.973Z</time>
      </trkpt>
      <trkpt lat="48.77886" lon="2.47707">
        <ele>110</ele>
        <time>2015-04-27T19:45:21.973Z</time>
      </trkpt>
      <trkpt lat="48.77882" lon="2.47711">
        <ele>110.1</ele>
        <time>2015-04-27T19:45:22.986Z</time>
      </trkpt>
      <trkpt lat="48.77877" lon="2.47715">
        <ele>110.4</ele>
        <time>2015-04-27T19:45:23.991Z</time>
      </trkpt>
      <trkpt lat="48.77873" lon="2.47719">
        <ele>110.6</ele>
        <time>2015-04-27T19:45:25.001Z</time>
      </trkpt>
      <trkpt lat="48.77869" lon="2.47723">
        <ele>110.7</ele>
        <time>2015-04-27T19:45:26.011Z</time>
      </trkpt>
      <trkpt lat="48.77864" lon="2.47727">
        <ele>110.7</ele>
        <time>2015-04-27T19:45:27.030Z</time>
      </trkpt>
      <trkpt lat="48.77859" lon="2.47732">
        <ele>110.6</ele>
        <time>2015-04-27T19:45:28.043Z</time>
      </trkpt>
      <trkpt lat="48.77855" lon="2.47737">
        <ele>110.7</ele>
        <time>2015-04-27T19:45:28.955Z</time>
      </trkpt>
      <trkpt lat="48.77851" lon="2.47742">
        <ele>110.8</ele>
        <time>2015-04-27T19:45:29.961Z</time>
      </trkpt>
      <trkpt lat="48.77846" lon="2.47748">
        <ele>110.9</ele>
        <time>2015-04-27T19:45:30.971Z</time>
      </trkpt>
      <trkpt lat="48.77841" lon="2.47753">
        <ele>110.9</ele>
        <time>2015-04-27T19:45:31.985Z</time>
      </trkpt>
      <trkpt lat="48.77837" lon="2.47759">
        <ele>111.2</ele>
        <time>2015-04-27T19:45:32.999Z</time>
      </trkpt>
      <trkpt lat="48.77833" lon="2.47764">
        <ele>111.4</ele>
        <time>2015-04-27T19:45:34.014Z</time>
      </trkpt>
      <trkpt lat="48.77828" lon="2.4777">
        <ele>111.6</ele>
        <time>2015-04-27T19:45:35.018Z</time>
      </trkpt>
      <trkpt lat="48.77823" lon="2.47775">
        <ele>111.3</ele>
        <time>2015-04-27T19:45:35.928Z</time>
      </trkpt>
      <trkpt lat="48.77818" lon="2.4778">
        <ele>111.3</ele>
        <time>2015-04-27T19:45:36.932Z</time>
      </trkpt>
      <trkpt lat="48.77813" lon="2.47785">
        <ele>111.1</ele>
        <time>2015-04-27T19:45:37.942Z</time>
      </trkpt>
      <trkpt lat="48.77808" lon="2.47791">
        <ele>110.8</ele>
        <time>2015-04-27T19:45:38.963Z</time>
      </trkpt>
      <trkpt lat="48.77804" lon="2.47796">
        <ele>110.9</ele>
        <time>2015-04-27T19:45:39.979Z</time>
      </trkpt>
      <trkpt lat="48.77799" lon="2.478">
        <ele>110.7</ele>
        <time>2015-04-27T19:45:40.984Z</time>
      </trkpt>
      <trkpt lat="48.77794" lon="2.47805">
        <ele>110.6</ele>
        <time>2015-04-27T19:45:41.997Z</time>
      </trkpt>
      <trkpt lat="48.77789" lon="2.47809">
        <ele>110.6</ele>
        <time>2015-04-27T19:45:43.015Z</time>
      </trkpt>
      <trkpt lat="48.77785" lon="2.47814">
        <ele>110.7</ele>
        <time>2015-04-27T19:45:43.948Z</time>
      </trkpt>
      <trkpt lat="48.7778" lon="2.47819">
        <ele>110.8</ele>
        <time>2015-04-27T19:45:45.076Z</time>
      </trkpt>
      <trkpt lat="48.77775" lon="2.47825">
        <ele>110.7</ele>
        <time>2015-04-27T19:45:45.920Z</time>
      </trkpt>
      <trkpt lat="48.77771" lon="2.4783">
        <ele>110.5</ele>
        <time>2015-04-27T19:45:46.956Z</time>
      </trkpt>
      <trkpt lat="48.77766" lon="2.47834">
        <ele>110.6</ele>
        <time>2015-04-27T19:45:48.109Z</time>
      </trkpt>
      <trkpt lat="48.77761" lon="2.47839">
        <ele>111</ele>
        <time>2015-04-27T19:45:48.987Z</time>
      </trkpt>
      <trkpt lat="48.77756" lon="2.47844">
        <ele>111.7</ele>
        <time>2015-04-27T19:45:49.994Z</time>
      </trkpt>
      <trkpt lat="48.7775" lon="2.47848">
        <ele>112</ele>
        <time>2015-04-27T19:45:51.010Z</time>
      </trkpt>
      <trkpt lat="48.77745" lon="2.47853">
        <ele>112.3</ele>
        <time>2015-04-27T19:45:52.032Z</time>
      </trkpt>
      <trkpt lat="48.7774" lon="2.47857">
        <ele>112.2</ele>
        <time>2015-04-27T19:45:52.973Z</time>
      </trkpt>
      <trkpt lat="48.77734" lon="2.47861">
        <ele>112.5</ele>
        <time>2015-04-27T19:45:53.983Z</time>
      </trkpt>
      <trkpt lat="48.7773" lon="2.47866">
        <ele>112.6</ele>
        <time>2015-04-27T19:45:55.015Z</time>
      </trkpt>
      <trkpt lat="48.77725" lon="2.47871">
        <ele>112.5</ele>
        <time>2015-04-27T19:45:55.960Z</time>
      </trkpt>
      <trkpt lat="48.7772" lon="2.47875">
        <ele>112.4</ele>
        <time>2015-04-27T19:45:56.993Z</time>
      </trkpt>
      <trkpt lat="48.77715" lon="2.4788">
        <ele>112.6</ele>
        <time>2015-04-27T19:45:58.001Z</time>
      </trkpt>
      <trkpt lat="48.77711" lon="2.47885">
        <ele>112.5</ele>
        <time>2015-04-27T19:45:59.009Z</time>
      </trkpt>
      <trkpt lat="48.77706" lon="2.4789">
        <ele>112.6</ele>
        <time>2015-04-27T19:46:00.022Z</time>
      </trkpt>
      <trkpt lat="48.77702" lon="2.47895">
        <ele>112.7</ele>
        <time>2015-04-27T19:46:00.907Z</time>
      </trkpt>
      <trkpt lat="48.77698" lon="2.47899">
        <ele>113</ele>
        <time>2015-04-27T19:46:01.935Z</time>
      </trkpt>
      <trkpt lat="48.77694" lon="2.47904">
        <ele>113.2</ele>
        <time>2015-04-27T19:46:02.986Z</time>
      </trkpt>
      <trkpt lat="48.77689" lon="2.47908">
        <ele>113.3</ele>
        <time>2015-04-27T19:46:03.994Z</time>
      </trkpt>
      <trkpt lat="48.77685" lon="2.47912">
        <ele>113.2</ele>
        <time>2015-04-27T19:46:05.003Z</time>
      </trkpt>
      <trkpt lat="48.77681" lon="2.47916">
        <ele>113.3</ele>
        <time>2015-04-27T19:46:06.024Z</time>
      </trkpt>
      <trkpt lat="48.77674" lon="2.47924">
        <ele>113</ele>
        <time>2015-04-27T19:46:07.931Z</time>
      </trkpt>
      <trkpt lat="48.77673" lon="2.47927">
        <ele>111.6</ele>
        <time>2015-04-27T19:46:08.997Z</time>
      </trkpt>
      <trkpt lat="48.77667" lon="2.47935">
        <ele>111.2</ele>
        <time>2015-04-27T19:46:10.947Z</time>
      </trkpt>
      <trkpt lat="48.77665" lon="2.47937">
        <ele>111</ele>
        <time>2015-04-27T19:46:11.959Z</time>
      </trkpt>
      <trkpt lat="48.77658" lon="2.47944">
        <ele>110.7</ele>
        <time>2015-04-27T19:46:15.011Z</time>
      </trkpt>
      <trkpt lat="48.77656" lon="2.47946">
        <ele>110.6</ele>
        <time>2015-04-27T19:46:16.024Z</time>
      </trkpt>
      <trkpt lat="48.7765" lon="2.47951">
        <ele>111.5</ele>
        <time>2015-04-27T19:46:32.976Z</time>
      </trkpt>
      <trkpt lat="48.7764" lon="2.47961">
        <ele>111.8</ele>
        <time>2015-04-27T19:46:33.973Z</time>
      </trkpt>
      <trkpt lat="48.77633" lon="2.47965">
        <ele>111.1</ele>
        <time>2015-04-27T19:46:35.980Z</time>
      </trkpt>
      <trkpt lat="48.77631" lon="2.47967">
        <ele>110.9</ele>
        <time>2015-04-27T19:46:37.022Z</time>
      </trkpt>
      <trkpt lat="48.77625" lon="2.47973">
        <ele>110.8</ele>
        <time>2015-04-27T19:46:38.966Z</time>
      </trkpt>
      <trkpt lat="48.77622" lon="2.47977">
        <ele>110.2</ele>
        <time>2015-04-27T19:46:39.968Z</time>
      </trkpt>
      <trkpt lat="48.77616" lon="2.47984">
        <ele>109</ele>
        <time>2015-04-27T19:46:41.932Z</time>
      </trkpt>
      <trkpt lat="48.77614" lon="2.47988">
        <ele>108.3</ele>
        <time>2015-04-27T19:46:42.928Z</time>
      </trkpt>
      <trkpt lat="48.77608" lon="2.47996">
        <ele>107.2</ele>
        <time>2015-04-27T19:46:44.982Z</time>
      </trkpt>
      <trkpt lat="48.77604" lon="2.48">
        <ele>106.9</ele>
        <time>2015-04-27T19:46:46.002Z</time>
      </trkpt>
      <trkpt lat="48.776" lon="2.48003">
        <ele>106</ele>
        <time>2015-04-27T19:46:47.031Z</time>
      </trkpt>
      <trkpt lat="48.77596" lon="2.48007">
        <ele>105.8</ele>
        <time>2015-04-27T19:46:47.942Z</time>
      </trkpt>
      <trkpt lat="48.77592" lon="2.48011">
        <ele>105.9</ele>
        <time>2015-04-27T19:46:48.951Z</time>
      </trkpt>
      <trkpt lat="48.77589" lon="2.48016">
        <ele>106.1</ele>
        <time>2015-04-27T19:46:49.957Z</time>
      </trkpt>
      <trkpt lat="48.77585" lon="2.48022">
        <ele>106.3</ele>
        <time>2015-04-27T19:46:50.972Z</time>
      </trkpt>
      <trkpt lat="48.77581" lon="2.48026">
        <ele>106.8</ele>
        <time>2015-04-27T19:46:51.979Z</time>
      </trkpt>
      <trkpt lat="48.77577" lon="2.4803">
        <ele>107</ele>
        <time>2015-04-27T19:46:53.432Z</time>
      </trkpt>
      <trkpt lat="48.77573" lon="2.48034">
        <ele>107.3</ele>
        <time>2015-04-27T19:46:53.934Z</time>
      </trkpt>
      <trkpt lat="48.77569" lon="2.48038">
        <ele>107.5</ele>
        <time>2015-04-27T19:46:54.932Z</time>
      </trkpt>
      <trkpt lat="48.77565" lon="2.48042">
        <ele>107.6</ele>
        <time>2015-04-27T19:46:55.943Z</time>
      </trkpt>
      <trkpt lat="48.7756" lon="2.48046">
        <ele>107.8</ele>
        <time>2015-04-27T19:46:56.967Z</time>
      </trkpt>
      <trkpt lat="48.77556" lon="2.4805">
        <ele>108</ele>
        <time>2015-04-27T19:46:57.977Z</time>
      </trkpt>
      <trkpt lat="48.77552" lon="2.48053">
        <ele>108.1</ele>
        <time>2015-04-27T19:46:59.001Z</time>
      </trkpt>
      <trkpt lat="48.77547" lon="2.48057">
        <ele>108.5</ele>
        <time>2015-04-27T19:47:00.014Z</time>
      </trkpt>
      <trkpt lat="48.77543" lon="2.48061">
        <ele>108.8</ele>
        <time>2015-04-27T19:47:01.028Z</time>
      </trkpt>
      <trkpt lat="48.77539" lon="2.48066">
        <ele>109</ele>
        <time>2015-04-27T19:47:01.925Z</time>
      </trkpt>
      <trkpt lat="48.77534" lon="2.4807">
        <ele>108.8</ele>
        <time>2015-04-27T19:47:02.936Z</time>
      </trkpt>
      <trkpt lat="48.7753" lon="2.48075">
        <ele>109</ele>
        <time>2015-04-27T19:47:03.939Z</time>
      </trkpt>
      <trkpt lat="48.77525" lon="2.48079">
        <ele>108.9</ele>
        <time>2015-04-27T19:47:04.949Z</time>
      </trkpt>
      <trkpt lat="48.77521" lon="2.48083">
        <ele>108.7</ele>
        <time>2015-04-27T19:47:05.961Z</time>
      </trkpt>
      <trkpt lat="48.77517" lon="2.48087">
        <ele>108.6</ele>
        <time>2015-04-27T19:47:06.930Z</time>
      </trkpt>
      <trkpt lat="48.77512" lon="2.48092">
        <ele>108.6</ele>
        <time>2015-04-27T19:47:07.994Z</time>
      </trkpt>
      <trkpt lat="48.77506" lon="2.48098">
        <ele>108.9</ele>
        <time>2015-04-27T19:47:09.008Z</time>
      </trkpt>
      <trkpt lat="48.77501" lon="2.48103">
        <ele>109</ele>
        <time>2015-04-27T19:47:09.927Z</time>
      </trkpt>
      <trkpt lat="48.77495" lon="2.48109">
        <ele>109.5</ele>
        <time>2015-04-27T19:47:10.925Z</time>
      </trkpt>
      <trkpt lat="48.7749" lon="2.48115">
        <ele>109.8</ele>
        <time>2015-04-27T19:47:12.010Z</time>
      </trkpt>
      <trkpt lat="48.77484" lon="2.4812">
        <ele>110.2</ele>
        <time>2015-04-27T19:47:12.932Z</time>
      </trkpt>
      <trkpt lat="48.77479" lon="2.48125">
        <ele>110.5</ele>
        <time>2015-04-27T19:47:13.942Z</time>
      </trkpt>
      <trkpt lat="48.77474" lon="2.4813">
        <ele>110.4</ele>
        <time>2015-04-27T19:47:14.979Z</time>
      </trkpt>
      <trkpt lat="48.77469" lon="2.48135">
        <ele>110</ele>
        <time>2015-04-27T19:47:16.158Z</time>
      </trkpt>
      <trkpt lat="48.77464" lon="2.4814">
        <ele>109.8</ele>
        <time>2015-04-27T19:47:17.015Z</time>
      </trkpt>
      <trkpt lat="48.77459" lon="2.48146">
        <ele>109.9</ele>
        <time>2015-04-27T19:47:18.028Z</time>
      </trkpt>
      <trkpt lat="48.77454" lon="2.48151">
        <ele>110</ele>
        <time>2015-04-27T19:47:18.929Z</time>
      </trkpt>
      <trkpt lat="48.7745" lon="2.48156">
        <ele>110.1</ele>
        <time>2015-04-27T19:47:19.937Z</time>
      </trkpt>
      <trkpt lat="48.77446" lon="2.48161">
        <ele>110.5</ele>
        <time>2015-04-27T19:47:20.966Z</time>
      </trkpt>
      <trkpt lat="48.77443" lon="2.48165">
        <ele>110.7</ele>
        <time>2015-04-27T19:47:21.961Z</time>
      </trkpt>
      <trkpt lat="48.77437" lon="2.48171">
        <ele>111</ele>
        <time>2015-04-27T19:47:23.931Z</time>
      </trkpt>
      <trkpt lat="48.77435" lon="2.48173">
        <ele>110.7</ele>
        <time>2015-04-27T19:47:24.939Z</time>
      </trkpt>
      <trkpt lat="48.77427" lon="2.48177">
        <ele>110.1</ele>
        <time>2015-04-27T19:47:27.915Z</time>
      </trkpt>
      <trkpt lat="48.77425" lon="2.48178">
        <ele>109.9</ele>
        <time>2015-04-27T19:47:28.939Z</time>
      </trkpt>
      <trkpt lat="48.77418" lon="2.48184">
        <ele>109.7</ele>
        <time>2015-04-27T19:47:32.942Z</time>
      </trkpt>
      <trkpt lat="48.77416" lon="2.48186">
        <ele>109.6</ele>
        <time>2015-04-27T19:47:33.950Z</time>
      </trkpt>
      <trkpt lat="48.77412" lon="2.48197">
        <ele>109.1</ele>
        <time>2015-04-27T19:47:37.935Z</time>
      </trkpt>
      <trkpt lat="48.77414" lon="2.48202">
        <ele>108.6</ele>
        <time>2015-04-27T19:47:38.960Z</time>
      </trkpt>
      <trkpt lat="48.77417" lon="2.4821">
        <ele>108.7</ele>
        <time>2015-04-27T19:47:40.930Z</time>
      </trkpt>
      <trkpt lat="48.7742" lon="2.48216">
        <ele>108.8</ele>
        <time>2015-04-27T19:47:41.961Z</time>
      </trkpt>
      <trkpt lat="48.77422" lon="2.48229">
        <ele>108.9</ele>
        <time>2015-04-27T19:47:43.920Z</time>
      </trkpt>
      <trkpt lat="48.77423" lon="2.48236">
        <ele>108.5</ele>
        <time>2015-04-27T19:47:44.965Z</time>
      </trkpt>
      <trkpt lat="48.77423" lon="2.48244">
        <ele>108.5</ele>
        <time>2015-04-27T19:47:46.135Z</time>
      </trkpt>
      <trkpt lat="48.77422" lon="2.48252">
        <ele>108.3</ele>
        <time>2015-04-27T19:47:47.008Z</time>
      </trkpt>
      <trkpt lat="48.77423" lon="2.4826">
        <ele>108.4</ele>
        <time>2015-04-27T19:47:47.919Z</time>
      </trkpt>
      <trkpt lat="48.77423" lon="2.48269">
        <ele>108.7</ele>
        <time>2015-04-27T19:47:48.912Z</time>
      </trkpt>
      <trkpt lat="48.77423" lon="2.48278">
        <ele>108.9</ele>
        <time>2015-04-27T19:47:49.918Z</time>
      </trkpt>
      <trkpt lat="48.77422" lon="2.48287">
        <ele>109.2</ele>
        <time>2015-04-27T19:47:50.936Z</time>
      </trkpt>
      <trkpt lat="48.77422" lon="2.48296">
        <ele>109.5</ele>
        <time>2015-04-27T19:47:51.957Z</time>
      </trkpt>
      <trkpt lat="48.77421" lon="2.48306">
        <ele>109.7</ele>
        <time>2015-04-27T19:47:53.014Z</time>
      </trkpt>
      <trkpt lat="48.7742" lon="2.48315">
        <ele>109.6</ele>
        <time>2015-04-27T19:47:53.964Z</time>
      </trkpt>
      <trkpt lat="48.77419" lon="2.48325">
        <ele>109.4</ele>
        <time>2015-04-27T19:47:54.972Z</time>
      </trkpt>
      <trkpt lat="48.77419" lon="2.48334">
        <ele>109.3</ele>
        <time>2015-04-27T19:47:55.996Z</time>
      </trkpt>
      <trkpt lat="48.77417" lon="2.48344">
        <ele>109.3</ele>
        <time>2015-04-27T19:47:57.003Z</time>
      </trkpt>
      <trkpt lat="48.77416" lon="2.48353">
        <ele>109.1</ele>
        <time>2015-04-27T19:47:57.934Z</time>
      </trkpt>
      <trkpt lat="48.77415" lon="2.48363">
        <ele>108.9</ele>
        <time>2015-04-27T19:47:58.919Z</time>
      </trkpt>
      <trkpt lat="48.77414" lon="2.48372">
        <ele>108.5</ele>
        <time>2015-04-27T19:47:59.935Z</time>
      </trkpt>
      <trkpt lat="48.77413" lon="2.48382">
        <ele>108.1</ele>
        <time>2015-04-27T19:48:00.951Z</time>
      </trkpt>
      <trkpt lat="48.77413" lon="2.48391">
        <ele>107.9</ele>
        <time>2015-04-27T19:48:01.976Z</time>
      </trkpt>
      <trkpt lat="48.77412" lon="2.484">
        <ele>107.9</ele>
        <time>2015-04-27T19:48:02.992Z</time>
      </trkpt>
      <trkpt lat="48.77411" lon="2.48409">
        <ele>107.8</ele>
        <time>2015-04-27T19:48:03.919Z</time>
      </trkpt>
      <trkpt lat="48.77411" lon="2.48418">
        <ele>107.8</ele>
        <time>2015-04-27T19:48:04.934Z</time>
      </trkpt>
      <trkpt lat="48.7741" lon="2.48427">
        <ele>107.8</ele>
        <time>2015-04-27T19:48:05.972Z</time>
      </trkpt>
      <trkpt lat="48.7741" lon="2.48435">
        <ele>107.6</ele>
        <time>2015-04-27T19:48:06.981Z</time>
      </trkpt>
      <trkpt lat="48.7741" lon="2.48444">
        <ele>107.6</ele>
        <time>2015-04-27T19:48:07.992Z</time>
      </trkpt>
      <trkpt lat="48.77409" lon="2.48452">
        <ele>107.4</ele>
        <time>2015-04-27T19:48:09.007Z</time>
      </trkpt>
      <trkpt lat="48.77409" lon="2.48461">
        <ele>107.3</ele>
        <time>2015-04-27T19:48:10.251Z</time>
      </trkpt>
      <trkpt lat="48.77409" lon="2.48469">
        <ele>107</ele>
        <time>2015-04-27T19:48:10.929Z</time>
      </trkpt>
      <trkpt lat="48.77408" lon="2.48478">
        <ele>107.3</ele>
        <time>2015-04-27T19:48:11.974Z</time>
      </trkpt>
      <trkpt lat="48.77407" lon="2.48487">
        <ele>106.9</ele>
        <time>2015-04-27T19:48:12.978Z</time>
      </trkpt>
      <trkpt lat="48.77407" lon="2.48496">
        <ele>106.4</ele>
        <time>2015-04-27T19:48:13.983Z</time>
      </trkpt>
      <trkpt lat="48.77406" lon="2.48505">
        <ele>106.6</ele>
        <time>2015-04-27T19:48:15.001Z</time>
      </trkpt>
      <trkpt lat="48.77405" lon="2.48514">
        <ele>106.2</ele>
        <time>2015-04-27T19:48:15.900Z</time>
      </trkpt>
      <trkpt lat="48.77404" lon="2.48523">
        <ele>105.6</ele>
        <time>2015-04-27T19:48:16.920Z</time>
      </trkpt>
      <trkpt lat="48.77403" lon="2.48533">
        <ele>105.3</ele>
        <time>2015-04-27T19:48:17.935Z</time>
      </trkpt>
      <trkpt lat="48.77403" lon="2.48542">
        <ele>104.9</ele>
        <time>2015-04-27T19:48:18.949Z</time>
      </trkpt>
      <trkpt lat="48.77404" lon="2.4855">
        <ele>104.7</ele>
        <time>2015-04-27T19:48:19.984Z</time>
      </trkpt>
      <trkpt lat="48.77404" lon="2.48559">
        <ele>104.7</ele>
        <time>2015-04-27T19:48:20.998Z</time>
      </trkpt>
      <trkpt lat="48.77403" lon="2.48569">
        <ele>104.8</ele>
        <time>2015-04-27T19:48:21.925Z</time>
      </trkpt>
      <trkpt lat="48.77404" lon="2.48579">
        <ele>105.6</ele>
        <time>2015-04-27T19:48:22.935Z</time>
      </trkpt>
      <trkpt lat="48.77404" lon="2.48589">
        <ele>106.1</ele>
        <time>2015-04-27T19:48:23.944Z</time>
      </trkpt>
      <trkpt lat="48.77403" lon="2.48598">
        <ele>106.3</ele>
        <time>2015-04-27T19:48:24.951Z</time>
      </trkpt>
      <trkpt lat="48.77403" lon="2.48607">
        <ele>106.4</ele>
        <time>2015-04-27T19:48:25.959Z</time>
      </trkpt>
      <trkpt lat="48.77403" lon="2.48616">
        <ele>106.8</ele>
        <time>2015-04-27T19:48:26.965Z</time>
      </trkpt>
      <trkpt lat="48.77402" lon="2.48624">
        <ele>107</ele>
        <time>2015-04-27T19:48:27.974Z</time>
      </trkpt>
      <trkpt lat="48.77402" lon="2.48633">
        <ele>106.9</ele>
        <time>2015-04-27T19:48:28.980Z</time>
      </trkpt>
      <trkpt lat="48.77401" lon="2.48641">
        <ele>106.8</ele>
        <time>2015-04-27T19:48:29.993Z</time>
      </trkpt>
      <trkpt lat="48.77401" lon="2.4865">
        <ele>106.5</ele>
        <time>2015-04-27T19:48:31.005Z</time>
      </trkpt>
      <trkpt lat="48.77399" lon="2.48658">
        <ele>106.2</ele>
        <time>2015-04-27T19:48:32.016Z</time>
      </trkpt>
      <trkpt lat="48.77398" lon="2.48666">
        <ele>106.1</ele>
        <time>2015-04-27T19:48:33.032Z</time>
      </trkpt>
      <trkpt lat="48.77398" lon="2.48674">
        <ele>105.8</ele>
        <time>2015-04-27T19:48:33.920Z</time>
      </trkpt>
      <trkpt lat="48.77398" lon="2.48682">
        <ele>105.6</ele>
        <time>2015-04-27T19:48:34.920Z</time>
      </trkpt>
      <trkpt lat="48.77397" lon="2.4869">
        <ele>105.3</ele>
        <time>2015-04-27T19:48:35.939Z</time>
      </trkpt>
      <trkpt lat="48.77396" lon="2.48698">
        <ele>105.2</ele>
        <time>2015-04-27T19:48:36.953Z</time>
      </trkpt>
      <trkpt lat="48.77396" lon="2.48706">
        <ele>105.2</ele>
        <time>2015-04-27T19:48:37.962Z</time>
      </trkpt>
      <trkpt lat="48.77396" lon="2.48714">
        <ele>105.3</ele>
        <time>2015-04-27T19:48:38.973Z</time>
      </trkpt>
      <trkpt lat="48.77395" lon="2.48721">
        <ele>105.2</ele>
        <time>2015-04-27T19:48:39.997Z</time>
      </trkpt>
      <trkpt lat="48.77395" lon="2.48728">
        <ele>105.2</ele>
        <time>2015-04-27T19:48:41.003Z</time>
      </trkpt>
      <trkpt lat="48.77394" lon="2.4874">
        <ele>105.3</ele>
        <time>2015-04-27T19:48:42.919Z</time>
      </trkpt>
      <trkpt lat="48.77393" lon="2.48746">
        <ele>105.2</ele>
        <time>2015-04-27T19:48:43.940Z</time>
      </trkpt>
      <trkpt lat="48.77392" lon="2.48753">
        <ele>105.3</ele>
        <time>2015-04-27T19:48:44.982Z</time>
      </trkpt>
      <trkpt lat="48.77391" lon="2.4876">
        <ele>105.4</ele>
        <time>2015-04-27T19:48:46.000Z</time>
      </trkpt>
      <trkpt lat="48.7739" lon="2.48767">
        <ele>105.2</ele>
        <time>2015-04-27T19:48:47.045Z</time>
      </trkpt>
      <trkpt lat="48.77389" lon="2.48774">
        <ele>104.9</ele>
        <time>2015-04-27T19:48:47.929Z</time>
      </trkpt>
      <trkpt lat="48.77388" lon="2.48782">
        <ele>104.8</ele>
        <time>2015-04-27T19:48:48.933Z</time>
      </trkpt>
      <trkpt lat="48.77388" lon="2.4879">
        <ele>104.8</ele>
        <time>2015-04-27T19:48:49.949Z</time>
      </trkpt>
      <trkpt lat="48.77387" lon="2.48799">
        <ele>104.5</ele>
        <time>2015-04-27T19:48:50.977Z</time>
      </trkpt>
      <trkpt lat="48.77386" lon="2.48808">
        <ele>104.1</ele>
        <time>2015-04-27T19:48:51.983Z</time>
      </trkpt>
      <trkpt lat="48.77385" lon="2.48816">
        <ele>104.1</ele>
        <time>2015-04-27T19:48:52.911Z</time>
      </trkpt>
      <trkpt lat="48.77384" lon="2.48825">
        <ele>104.3</ele>
        <time>2015-04-27T19:48:53.911Z</time>
      </trkpt>
      <trkpt lat="48.77384" lon="2.48834">
        <ele>104.1</ele>
        <time>2015-04-27T19:48:54.919Z</time>
      </trkpt>
      <trkpt lat="48.77383" lon="2.48842">
        <ele>104.2</ele>
        <time>2015-04-27T19:48:55.923Z</time>
      </trkpt>
      <trkpt lat="48.77382" lon="2.48851">
        <ele>104.3</ele>
        <time>2015-04-27T19:48:56.947Z</time>
      </trkpt>
      <trkpt lat="48.77381" lon="2.48859">
        <ele>104</ele>
        <time>2015-04-27T19:48:57.955Z</time>
      </trkpt>
      <trkpt lat="48.7738" lon="2.48868">
        <ele>103.9</ele>
        <time>2015-04-27T19:48:58.966Z</time>
      </trkpt>
      <trkpt lat="48.7738" lon="2.48876">
        <ele>104</ele>
        <time>2015-04-27T19:48:59.984Z</time>
      </trkpt>
      <trkpt lat="48.77379" lon="2.48884">
        <ele>103.9</ele>
        <time>2015-04-27T19:49:00.902Z</time>
      </trkpt>
      <trkpt lat="48.7738" lon="2.48892">
        <ele>104.2</ele>
        <time>2015-04-27T19:49:01.940Z</time>
      </trkpt>
      <trkpt lat="48.77379" lon="2.489">
        <ele>104.3</ele>
        <time>2015-04-27T19:49:02.980Z</time>
      </trkpt>
      <trkpt lat="48.77379" lon="2.48907">
        <ele>104.3</ele>
        <time>2015-04-27T19:49:03.994Z</time>
      </trkpt>
      <trkpt lat="48.77378" lon="2.48913">
        <ele>104.4</ele>
        <time>2015-04-27T19:49:04.928Z</time>
      </trkpt>
      <trkpt lat="48.77376" lon="2.4892">
        <ele>104.4</ele>
        <time>2015-04-27T19:49:05.941Z</time>
      </trkpt>
      <trkpt lat="48.77375" lon="2.48928">
        <ele>104.2</ele>
        <time>2015-04-27T19:49:06.953Z</time>
      </trkpt>
      <trkpt lat="48.77376" lon="2.48937">
        <ele>104.1</ele>
        <time>2015-04-27T19:49:07.959Z</time>
      </trkpt>
      <trkpt lat="48.77375" lon="2.48945">
        <ele>103.9</ele>
        <time>2015-04-27T19:49:08.980Z</time>
      </trkpt>
      <trkpt lat="48.77378" lon="2.48954">
        <ele>103.9</ele>
        <time>2015-04-27T19:49:09.990Z</time>
      </trkpt>
      <trkpt lat="48.77378" lon="2.48961">
        <ele>103.7</ele>
        <time>2015-04-27T19:49:10.909Z</time>
      </trkpt>
      <trkpt lat="48.77377" lon="2.48967">
        <ele>103.6</ele>
        <time>2015-04-27T19:49:11.934Z</time>
      </trkpt>
      <trkpt lat="48.77373" lon="2.48979">
        <ele>103.1</ele>
        <time>2015-04-27T19:49:13.953Z</time>
      </trkpt>
      <trkpt lat="48.7737" lon="2.48983">
        <ele>102.6</ele>
        <time>2015-04-27T19:49:15.015Z</time>
      </trkpt>
      <trkpt lat="48.77366" lon="2.48991">
        <ele>102.6</ele>
        <time>2015-04-27T19:49:16.975Z</time>
      </trkpt>
      <trkpt lat="48.77363" lon="2.48995">
        <ele>102.8</ele>
        <time>2015-04-27T19:49:18.016Z</time>
      </trkpt>
      <trkpt lat="48.77359" lon="2.49004">
        <ele>102.5</ele>
        <time>2015-04-27T19:49:19.991Z</time>
      </trkpt>
      <trkpt lat="48.77357" lon="2.49008">
        <ele>102.6</ele>
        <time>2015-04-27T19:49:21.050Z</time>
      </trkpt>
      <trkpt lat="48.77352" lon="2.49016">
        <ele>102.3</ele>
        <time>2015-04-27T19:49:22.978Z</time>
      </trkpt>
      <trkpt lat="48.77347" lon="2.49019">
        <ele>100.8</ele>
        <time>2015-04-27T19:49:24.051Z</time>
      </trkpt>
      <trkpt lat="48.77341" lon="2.49029">
        <ele>99.3</ele>
        <time>2015-04-27T19:49:25.928Z</time>
      </trkpt>
      <trkpt lat="48.77338" lon="2.49033">
        <ele>98.8</ele>
        <time>2015-04-27T19:49:26.927Z</time>
      </trkpt>
      <trkpt lat="48.77335" lon="2.49042">
        <ele>98.4</ele>
        <time>2015-04-27T19:49:29.169Z</time>
      </trkpt>
      <trkpt lat="48.77333" lon="2.49045">
        <ele>98.3</ele>
        <time>2015-04-27T19:49:29.954Z</time>
      </trkpt>
      <trkpt lat="48.77328" lon="2.49054">
        <ele>98</ele>
        <time>2015-04-27T19:49:33.008Z</time>
      </trkpt>
      <trkpt lat="48.77327" lon="2.49056">
        <ele>97.7</ele>
        <time>2015-04-27T19:49:33.911Z</time>
      </trkpt>
      <trkpt lat="48.77322" lon="2.49066">
        <ele>97</ele>
        <time>2015-04-27T19:49:38.939Z</time>
      </trkpt>
      <trkpt lat="48.77321" lon="2.49067">
        <ele>97.1</ele>
        <time>2015-04-27T19:49:40.047Z</time>
      </trkpt>
      <trkpt lat="48.77326" lon="2.49077">
        <ele>95.6</ele>
        <time>2015-04-27T19:49:46.928Z</time>
      </trkpt>
      <trkpt lat="48.77328" lon="2.49075">
        <ele>95.3</ele>
        <time>2015-04-27T19:49:47.984Z</time>
      </trkpt>
      <trkpt lat="48.77334" lon="2.49069">
        <ele>94.7</ele>
        <time>2015-04-27T19:49:49.937Z</time>
      </trkpt>
      <trkpt lat="48.77336" lon="2.49065">
        <ele>94.5</ele>
        <time>2015-04-27T19:49:51.023Z</time>
      </trkpt>
      <trkpt lat="48.7734" lon="2.49054">
        <ele>94.5</ele>
        <time>2015-04-27T19:49:52.992Z</time>
      </trkpt>
      <trkpt lat="48.77342" lon="2.49048">
        <ele>94.5</ele>
        <time>2015-04-27T19:49:53.988Z</time>
      </trkpt>
      <trkpt lat="48.77346" lon="2.49038">
        <ele>94.5</ele>
        <time>2015-04-27T19:49:55.923Z</time>
      </trkpt>
      <trkpt lat="48.77347" lon="2.49033">
        <ele>94.8</ele>
        <time>2015-04-27T19:49:56.929Z</time>
      </trkpt>
      <trkpt lat="48.77351" lon="2.49025">
        <ele>95.2</ele>
        <time>2015-04-27T19:49:58.958Z</time>
      </trkpt>
      <trkpt lat="48.77353" lon="2.49021">
        <ele>95.1</ele>
        <time>2015-04-27T19:49:59.919Z</time>
      </trkpt>
      <trkpt lat="48.77356" lon="2.49013">
        <ele>95.8</ele>
        <time>2015-04-27T19:50:02.006Z</time>
      </trkpt>
      <trkpt lat="48.77357" lon="2.49009">
        <ele>96.4</ele>
        <time>2015-04-27T19:50:03.225Z</time>
      </trkpt>
      <trkpt lat="48.77363" lon="2.48998">
        <ele>97.5</ele>
        <time>2015-04-27T19:50:05.945Z</time>
      </trkpt>
      <trkpt lat="48.77365" lon="2.48994">
        <ele>98.1</ele>
        <time>2015-04-27T19:50:06.953Z</time>
      </trkpt>
      <trkpt lat="48.77371" lon="2.4899">
        <ele>99</ele>
        <time>2015-04-27T19:50:08.954Z</time>
      </trkpt>
      <trkpt lat="48.77374" lon="2.48989">
        <ele>99.2</ele>
        <time>2015-04-27T19:50:09.990Z</time>
      </trkpt>
      <trkpt lat="48.77381" lon="2.48986">
        <ele>99.8</ele>
        <time>2015-04-27T19:50:11.933Z</time>
      </trkpt>
      <trkpt lat="48.77384" lon="2.48986">
        <ele>99.7</ele>
        <time>2015-04-27T19:50:12.958Z</time>
      </trkpt>
      <trkpt lat="48.77392" lon="2.48987">
        <ele>99.9</ele>
        <time>2015-04-27T19:50:15.026Z</time>
      </trkpt>
      <trkpt lat="48.77397" lon="2.48987">
        <ele>99.7</ele>
        <time>2015-04-27T19:50:15.930Z</time>
      </trkpt>
      <trkpt lat="48.77404" lon="2.48985">
        <ele>100.4</ele>
        <time>2015-04-27T19:50:17.939Z</time>
      </trkpt>
      <trkpt lat="48.77407" lon="2.48985">
        <ele>100.6</ele>
        <time>2015-04-27T19:50:18.948Z</time>
      </trkpt>
      <trkpt lat="48.77413" lon="2.48982">
        <ele>101.3</ele>
        <time>2015-04-27T19:50:21.004Z</time>
      </trkpt>
      <trkpt lat="48.77416" lon="2.48981">
        <ele>102.1</ele>
        <time>2015-04-27T19:50:21.955Z</time>
      </trkpt>
      <trkpt lat="48.77423" lon="2.48982">
        <ele>103.4</ele>
        <time>2015-04-27T19:50:23.914Z</time>
      </trkpt>
      <trkpt lat="48.77427" lon="2.48982">
        <ele>103.8</ele>
        <time>2015-04-27T19:50:24.994Z</time>
      </trkpt>
      <trkpt lat="48.77433" lon="2.48983">
        <ele>104.4</ele>
        <time>2015-04-27T19:50:26.926Z</time>
      </trkpt>
      <trkpt lat="48.77436" lon="2.48983">
        <ele>104.7</ele>
        <time>2015-04-27T19:50:27.934Z</time>
      </trkpt>
      <trkpt lat="48.77442" lon="2.48984">
        <ele>105</ele>
        <time>2015-04-27T19:50:29.891Z</time>
      </trkpt>
      <trkpt lat="48.77446" lon="2.48984">
        <ele>105.5</ele>
        <time>2015-04-27T19:50:30.911Z</time>
      </trkpt>
      <trkpt lat="48.77453" lon="2.48984">
        <ele>105.9</ele>
        <time>2015-04-27T19:50:32.955Z</time>
      </trkpt>
      <trkpt lat="48.77457" lon="2.48983">
        <ele>106.1</ele>
        <time>2015-04-27T19:50:33.980Z</time>
      </trkpt>
      <trkpt lat="48.77465" lon="2.48982">
        <ele>106.8</ele>
        <time>2015-04-27T19:50:35.900Z</time>
      </trkpt>
      <trkpt lat="48.77469" lon="2.48982">
        <ele>107.3</ele>
        <time>2015-04-27T19:50:36.966Z</time>
      </trkpt>
      <trkpt lat="48.77477" lon="2.48982">
        <ele>107.8</ele>
        <time>2015-04-27T19:50:38.990Z</time>
      </trkpt>
      <trkpt lat="48.77481" lon="2.48982">
        <ele>107.9</ele>
        <time>2015-04-27T19:50:39.931Z</time>
      </trkpt>
      <trkpt lat="48.77486" lon="2.48983">
        <ele>107.9</ele>
        <time>2015-04-27T19:50:40.933Z</time>
      </trkpt>
      <trkpt lat="48.77491" lon="2.48984">
        <ele>107.1</ele>
        <time>2015-04-27T19:50:41.945Z</time>
      </trkpt>
      <trkpt lat="48.77497" lon="2.48986">
        <ele>106.4</ele>
        <time>2015-04-27T19:50:42.967Z</time>
      </trkpt>
      <trkpt lat="48.77501" lon="2.48987">
        <ele>106.4</ele>
        <time>2015-04-27T19:50:43.980Z</time>
      </trkpt>
      <trkpt lat="48.7751" lon="2.48988">
        <ele>106.5</ele>
        <time>2015-04-27T19:50:46.019Z</time>
      </trkpt>
      <trkpt lat="48.77514" lon="2.48988">
        <ele>106.2</ele>
        <time>2015-04-27T19:50:47.156Z</time>
      </trkpt>
      <trkpt lat="48.77518" lon="2.48989">
        <ele>106.5</ele>
        <time>2015-04-27T19:50:47.950Z</time>
      </trkpt>
      <trkpt lat="48.77524" lon="2.4899">
        <ele>106.2</ele>
        <time>2015-04-27T19:50:48.958Z</time>
      </trkpt>
      <trkpt lat="48.7753" lon="2.48992">
        <ele>105.1</ele>
        <time>2015-04-27T19:50:50.003Z</time>
      </trkpt>
      <trkpt lat="48.77536" lon="2.48994">
        <ele>104.3</ele>
        <time>2015-04-27T19:50:51.012Z</time>
      </trkpt>
      <trkpt lat="48.77542" lon="2.48995">
        <ele>103.8</ele>
        <time>2015-04-27T19:50:51.935Z</time>
      </trkpt>
      <trkpt lat="48.77546" lon="2.48996">
        <ele>103.6</ele>
        <time>2015-04-27T19:50:52.921Z</time>
      </trkpt>
      <trkpt lat="48.77553" lon="2.48997">
        <ele>103.1</ele>
        <time>2015-04-27T19:50:53.945Z</time>
      </trkpt>
      <trkpt lat="48.77558" lon="2.48999">
        <ele>102.5</ele>
        <time>2015-04-27T19:50:54.955Z</time>
      </trkpt>
      <trkpt lat="48.77564" lon="2.49001">
        <ele>101.9</ele>
        <time>2015-04-27T19:50:55.982Z</time>
      </trkpt>
      <trkpt lat="48.7757" lon="2.49003">
        <ele>101.5</ele>
        <time>2015-04-27T19:50:57.029Z</time>
      </trkpt>
      <trkpt lat="48.77575" lon="2.49004">
        <ele>101.2</ele>
        <time>2015-04-27T19:50:57.924Z</time>
      </trkpt>
      <trkpt lat="48.77581" lon="2.49005">
        <ele>100.8</ele>
        <time>2015-04-27T19:50:58.922Z</time>
      </trkpt>
      <trkpt lat="48.77586" lon="2.49006">
        <ele>100.5</ele>
        <time>2015-04-27T19:50:59.944Z</time>
      </trkpt>
      <trkpt lat="48.77591" lon="2.49007">
        <ele>100.5</ele>
        <time>2015-04-27T19:51:00.949Z</time>
      </trkpt>
      <trkpt lat="48.77599" lon="2.4901">
        <ele>100.5</ele>
        <time>2015-04-27T19:51:02.970Z</time>
      </trkpt>
      <trkpt lat="48.77602" lon="2.49013">
        <ele>100.3</ele>
        <time>2015-04-27T19:51:03.982Z</time>
      </trkpt>
      <trkpt lat="48.7761" lon="2.49016">
        <ele>99.6</ele>
        <time>2015-04-27T19:51:05.941Z</time>
      </trkpt>
      <trkpt lat="48.77614" lon="2.49017">
        <ele>99.2</ele>
        <time>2015-04-27T19:51:06.951Z</time>
      </trkpt>
      <trkpt lat="48.77622" lon="2.49019">
        <ele>98.7</ele>
        <time>2015-04-27T19:51:08.964Z</time>
      </trkpt>
      <trkpt lat="48.77627" lon="2.4902">
        <ele>98.5</ele>
        <time>2015-04-27T19:51:09.976Z</time>
      </trkpt>
      <trkpt lat="48.77635" lon="2.49023">
        <ele>97.6</ele>
        <time>2015-04-27T19:51:11.904Z</time>
      </trkpt>
      <trkpt lat="48.77639" lon="2.49024">
        <ele>97.4</ele>
        <time>2015-04-27T19:51:12.969Z</time>
      </trkpt>
      <trkpt lat="48.77647" lon="2.49027">
        <ele>97.6</ele>
        <time>2015-04-27T19:51:14.951Z</time>
      </trkpt>
      <trkpt lat="48.77652" lon="2.49028">
        <ele>97.5</ele>
        <time>2015-04-27T19:51:15.955Z</time>
      </trkpt>
      <trkpt lat="48.77656" lon="2.4903">
        <ele>97.3</ele>
        <time>2015-04-27T19:51:16.980Z</time>
      </trkpt>
      <trkpt lat="48.77661" lon="2.49032">
        <ele>96.9</ele>
        <time>2015-04-27T19:51:17.993Z</time>
      </trkpt>
      <trkpt lat="48.77669" lon="2.49036">
        <ele>97.1</ele>
        <time>2015-04-27T19:51:19.913Z</time>
      </trkpt>
      <trkpt lat="48.77673" lon="2.49038">
        <ele>96.7</ele>
        <time>2015-04-27T19:51:21.015Z</time>
      </trkpt>
      <trkpt lat="48.77681" lon="2.49041">
        <ele>95.8</ele>
        <time>2015-04-27T19:51:22.993Z</time>
      </trkpt>
      <trkpt lat="48.77685" lon="2.49044">
        <ele>96</ele>
        <time>2015-04-27T19:51:23.940Z</time>
      </trkpt>
      <trkpt lat="48.77689" lon="2.49047">
        <ele>96.4</ele>
        <time>2015-04-27T19:51:24.922Z</time>
      </trkpt>
      <trkpt lat="48.77694" lon="2.49049">
        <ele>96.4</ele>
        <time>2015-04-27T19:51:25.927Z</time>
      </trkpt>
      <trkpt lat="48.77699" lon="2.49051">
        <ele>96.3</ele>
        <time>2015-04-27T19:51:26.947Z</time>
      </trkpt>
      <trkpt lat="48.77704" lon="2.49054">
        <ele>96.3</ele>
        <time>2015-04-27T19:51:27.962Z</time>
      </trkpt>
      <trkpt lat="48.77709" lon="2.49056">
        <ele>96.6</ele>
        <time>2015-04-27T19:51:28.976Z</time>
      </trkpt>
      <trkpt lat="48.77715" lon="2.49059">
        <ele>96.6</ele>
        <time>2015-04-27T19:51:29.979Z</time>
      </trkpt>
      <trkpt lat="48.7772" lon="2.49062">
        <ele>96.7</ele>
        <time>2015-04-27T19:51:30.997Z</time>
      </trkpt>
      <trkpt lat="48.77726" lon="2.49063">
        <ele>96.5</ele>
        <time>2015-04-27T19:51:32.009Z</time>
      </trkpt>
      <trkpt lat="48.77731" lon="2.49065">
        <ele>96.3</ele>
        <time>2015-04-27T19:51:33.029Z</time>
      </trkpt>
      <trkpt lat="48.77737" lon="2.49067">
        <ele>96</ele>
        <time>2015-04-27T19:51:33.921Z</time>
      </trkpt>
      <trkpt lat="48.77742" lon="2.49069">
        <ele>95.6</ele>
        <time>2015-04-27T19:51:34.916Z</time>
      </trkpt>
      <trkpt lat="48.77747" lon="2.49072">
        <ele>95.6</ele>
        <time>2015-04-27T19:51:35.950Z</time>
      </trkpt>
      <trkpt lat="48.77753" lon="2.49075">
        <ele>95.5</ele>
        <time>2015-04-27T19:51:36.971Z</time>
      </trkpt>
      <trkpt lat="48.77759" lon="2.49078">
        <ele>95.5</ele>
        <time>2015-04-27T19:51:37.972Z</time>
      </trkpt>
      <trkpt lat="48.77765" lon="2.49081">
        <ele>95.8</ele>
        <time>2015-04-27T19:51:38.986Z</time>
      </trkpt>
      <trkpt lat="48.7777" lon="2.49084">
        <ele>96.1</ele>
        <time>2015-04-27T19:51:39.988Z</time>
      </trkpt>
      <trkpt lat="48.77776" lon="2.49088">
        <ele>96</ele>
        <time>2015-04-27T19:51:40.913Z</time>
      </trkpt>
      <trkpt lat="48.77781" lon="2.49092">
        <ele>96</ele>
        <time>2015-04-27T19:51:41.913Z</time>
      </trkpt>
      <trkpt lat="48.77787" lon="2.49096">
        <ele>96.1</ele>
        <time>2015-04-27T19:51:42.922Z</time>
      </trkpt>
      <trkpt lat="48.77792" lon="2.491">
        <ele>95.7</ele>
        <time>2015-04-27T19:51:43.927Z</time>
      </trkpt>
      <trkpt lat="48.77798" lon="2.49104">
        <ele>95.6</ele>
        <time>2015-04-27T19:51:44.959Z</time>
      </trkpt>
      <trkpt lat="48.77804" lon="2.49108">
        <ele>95.6</ele>
        <time>2015-04-27T19:51:45.974Z</time>
      </trkpt>
      <trkpt lat="48.7781" lon="2.49113">
        <ele>95.7</ele>
        <time>2015-04-27T19:51:46.991Z</time>
      </trkpt>
      <trkpt lat="48.77815" lon="2.49117">
        <ele>95.7</ele>
        <time>2015-04-27T19:51:48.004Z</time>
      </trkpt>
      <trkpt lat="48.77821" lon="2.49122">
        <ele>95.7</ele>
        <time>2015-04-27T19:51:48.911Z</time>
      </trkpt>
      <trkpt lat="48.77826" lon="2.49127">
        <ele>95.8</ele>
        <time>2015-04-27T19:51:49.915Z</time>
      </trkpt>
      <trkpt lat="48.77831" lon="2.49132">
        <ele>95.4</ele>
        <time>2015-04-27T19:51:50.940Z</time>
      </trkpt>
      <trkpt lat="48.77837" lon="2.49136">
        <ele>95.4</ele>
        <time>2015-04-27T19:51:51.964Z</time>
      </trkpt>
      <trkpt lat="48.77843" lon="2.49141">
        <ele>95.3</ele>
        <time>2015-04-27T19:51:52.987Z</time>
      </trkpt>
      <trkpt lat="48.77848" lon="2.49146">
        <ele>95</ele>
        <time>2015-04-27T19:51:53.913Z</time>
      </trkpt>
      <trkpt lat="48.77853" lon="2.49152">
        <ele>94.9</ele>
        <time>2015-04-27T19:51:54.922Z</time>
      </trkpt>
      <trkpt lat="48.77858" lon="2.49157">
        <ele>94.9</ele>
        <time>2015-04-27T19:51:55.913Z</time>
      </trkpt>
      <trkpt lat="48.77864" lon="2.49162">
        <ele>94.8</ele>
        <time>2015-04-27T19:51:56.922Z</time>
      </trkpt>
      <trkpt lat="48.77869" lon="2.49167">
        <ele>94.5</ele>
        <time>2015-04-27T19:51:57.940Z</time>
      </trkpt>
      <trkpt lat="48.77874" lon="2.49172">
        <ele>94</ele>
        <time>2015-04-27T19:51:58.950Z</time>
      </trkpt>
      <trkpt lat="48.77879" lon="2.49177">
        <ele>93.2</ele>
        <time>2015-04-27T19:51:59.963Z</time>
      </trkpt>
      <trkpt lat="48.77884" lon="2.49182">
        <ele>92.5</ele>
        <time>2015-04-27T19:52:00.887Z</time>
      </trkpt>
      <trkpt lat="48.77889" lon="2.49187">
        <ele>92.4</ele>
        <time>2015-04-27T19:52:01.936Z</time>
      </trkpt>
      <trkpt lat="48.77894" lon="2.49192">
        <ele>92.5</ele>
        <time>2015-04-27T19:52:02.957Z</time>
      </trkpt>
      <trkpt lat="48.77898" lon="2.49196">
        <ele>92.2</ele>
        <time>2015-04-27T19:52:03.952Z</time>
      </trkpt>
      <trkpt lat="48.77903" lon="2.49201">
        <ele>92</ele>
        <time>2015-04-27T19:52:04.961Z</time>
      </trkpt>
      <trkpt lat="48.77908" lon="2.49206">
        <ele>91.9</ele>
        <time>2015-04-27T19:52:05.970Z</time>
      </trkpt>
      <trkpt lat="48.77912" lon="2.49211">
        <ele>92</ele>
        <time>2015-04-27T19:52:07.002Z</time>
      </trkpt>
      <trkpt lat="48.77916" lon="2.49216">
        <ele>92.1</ele>
        <time>2015-04-27T19:52:07.902Z</time>
      </trkpt>
      <trkpt lat="48.77921" lon="2.49221">
        <ele>92.1</ele>
        <time>2015-04-27T19:52:08.932Z</time>
      </trkpt>
      <trkpt lat="48.77925" lon="2.49226">
        <ele>92.6</ele>
        <time>2015-04-27T19:52:09.933Z</time>
      </trkpt>
      <trkpt lat="48.77929" lon="2.4923">
        <ele>92.5</ele>
        <time>2015-04-27T19:52:10.936Z</time>
      </trkpt>
      <trkpt lat="48.77934" lon="2.49233">
        <ele>92.5</ele>
        <time>2015-04-27T19:52:11.947Z</time>
      </trkpt>
      <trkpt lat="48.7794" lon="2.49235">
        <ele>92.4</ele>
        <time>2015-04-27T19:52:12.959Z</time>
      </trkpt>
      <trkpt lat="48.77945" lon="2.49239">
        <ele>92.8</ele>
        <time>2015-04-27T19:52:13.963Z</time>
      </trkpt>
      <trkpt lat="48.7795" lon="2.49243">
        <ele>93</ele>
        <time>2015-04-27T19:52:14.988Z</time>
      </trkpt>
      <trkpt lat="48.77955" lon="2.49247">
        <ele>93.2</ele>
        <time>2015-04-27T19:52:16.000Z</time>
      </trkpt>
      <trkpt lat="48.7796" lon="2.49252">
        <ele>93.7</ele>
        <time>2015-04-27T19:52:16.912Z</time>
      </trkpt>
      <trkpt lat="48.77965" lon="2.49257">
        <ele>93.4</ele>
        <time>2015-04-27T19:52:17.933Z</time>
      </trkpt>
      <trkpt lat="48.77969" lon="2.49262">
        <ele>93.4</ele>
        <time>2015-04-27T19:52:18.938Z</time>
      </trkpt>
      <trkpt lat="48.77973" lon="2.49266">
        <ele>93.5</ele>
        <time>2015-04-27T19:52:19.947Z</time>
      </trkpt>
      <trkpt lat="48.77978" lon="2.49275">
        <ele>93.3</ele>
        <time>2015-04-27T19:52:21.991Z</time>
      </trkpt>
      <trkpt lat="48.77981" lon="2.49279">
        <ele>93.3</ele>
        <time>2015-04-27T19:52:23.009Z</time>
      </trkpt>
      <trkpt lat="48.77985" lon="2.49282">
        <ele>93.4</ele>
        <time>2015-04-27T19:52:23.919Z</time>
      </trkpt>
      <trkpt lat="48.7799" lon="2.49286">
        <ele>93.3</ele>
        <time>2015-04-27T19:52:24.922Z</time>
      </trkpt>
      <trkpt lat="48.77994" lon="2.4929">
        <ele>93.4</ele>
        <time>2015-04-27T19:52:25.961Z</time>
      </trkpt>
      <trkpt lat="48.77999" lon="2.49293">
        <ele>93.6</ele>
        <time>2015-04-27T19:52:26.991Z</time>
      </trkpt>
      <trkpt lat="48.78003" lon="2.49298">
        <ele>93.4</ele>
        <time>2015-04-27T19:52:28.013Z</time>
      </trkpt>
      <trkpt lat="48.78008" lon="2.49302">
        <ele>93.3</ele>
        <time>2015-04-27T19:52:28.912Z</time>
      </trkpt>
      <trkpt lat="48.78012" lon="2.49306">
        <ele>93.1</ele>
        <time>2015-04-27T19:52:29.932Z</time>
      </trkpt>
      <trkpt lat="48.78017" lon="2.4931">
        <ele>93.3</ele>
        <time>2015-04-27T19:52:30.938Z</time>
      </trkpt>
      <trkpt lat="48.78022" lon="2.49314">
        <ele>93.4</ele>
        <time>2015-04-27T19:52:31.953Z</time>
      </trkpt>
      <trkpt lat="48.78027" lon="2.49319">
        <ele>93.7</ele>
        <time>2015-04-27T19:52:32.965Z</time>
      </trkpt>
      <trkpt lat="48.78031" lon="2.49324">
        <ele>94</ele>
        <time>2015-04-27T19:52:33.973Z</time>
      </trkpt>
      <trkpt lat="48.78036" lon="2.49328">
        <ele>93.9</ele>
        <time>2015-04-27T19:52:34.888Z</time>
      </trkpt>
      <trkpt lat="48.78041" lon="2.49332">
        <ele>93.8</ele>
        <time>2015-04-27T19:52:35.912Z</time>
      </trkpt>
      <trkpt lat="48.78046" lon="2.49337">
        <ele>93.6</ele>
        <time>2015-04-27T19:52:36.956Z</time>
      </trkpt>
      <trkpt lat="48.7805" lon="2.49341">
        <ele>93.6</ele>
        <time>2015-04-27T19:52:37.970Z</time>
      </trkpt>
      <trkpt lat="48.78056" lon="2.49346">
        <ele>93.3</ele>
        <time>2015-04-27T19:52:38.988Z</time>
      </trkpt>
      <trkpt lat="48.78061" lon="2.4935">
        <ele>93.1</ele>
        <time>2015-04-27T19:52:40.000Z</time>
      </trkpt>
      <trkpt lat="48.78066" lon="2.49354">
        <ele>93.1</ele>
        <time>2015-04-27T19:52:40.927Z</time>
      </trkpt>
      <trkpt lat="48.78071" lon="2.49359">
        <ele>93</ele>
        <time>2015-04-27T19:52:41.917Z</time>
      </trkpt>
      <trkpt lat="48.78076" lon="2.49364">
        <ele>93</ele>
        <time>2015-04-27T19:52:42.921Z</time>
      </trkpt>
      <trkpt lat="48.78081" lon="2.49368">
        <ele>92.9</ele>
        <time>2015-04-27T19:52:43.939Z</time>
      </trkpt>
      <trkpt lat="48.78087" lon="2.49373">
        <ele>92.7</ele>
        <time>2015-04-27T19:52:44.949Z</time>
      </trkpt>
      <trkpt lat="48.78093" lon="2.49377">
        <ele>92.8</ele>
        <time>2015-04-27T19:52:45.970Z</time>
      </trkpt>
      <trkpt lat="48.78099" lon="2.49382">
        <ele>92.7</ele>
        <time>2015-04-27T19:52:46.981Z</time>
      </trkpt>
      <trkpt lat="48.78104" lon="2.49386">
        <ele>92.5</ele>
        <time>2015-04-27T19:52:47.997Z</time>
      </trkpt>
      <trkpt lat="48.78109" lon="2.49392">
        <ele>92.5</ele>
        <time>2015-04-27T19:52:48.951Z</time>
      </trkpt>
      <trkpt lat="48.78114" lon="2.49397">
        <ele>92.5</ele>
        <time>2015-04-27T19:52:49.915Z</time>
      </trkpt>
      <trkpt lat="48.78119" lon="2.49403">
        <ele>92.3</ele>
        <time>2015-04-27T19:52:50.934Z</time>
      </trkpt>
      <trkpt lat="48.78125" lon="2.49408">
        <ele>92</ele>
        <time>2015-04-27T19:52:51.950Z</time>
      </trkpt>
      <trkpt lat="48.7813" lon="2.49413">
        <ele>91.5</ele>
        <time>2015-04-27T19:52:52.968Z</time>
      </trkpt>
      <trkpt lat="48.78136" lon="2.49418">
        <ele>91</ele>
        <time>2015-04-27T19:52:54.011Z</time>
      </trkpt>
      <trkpt lat="48.78141" lon="2.49423">
        <ele>90.5</ele>
        <time>2015-04-27T19:52:54.910Z</time>
      </trkpt>
      <trkpt lat="48.78147" lon="2.49428">
        <ele>90.1</ele>
        <time>2015-04-27T19:52:55.944Z</time>
      </trkpt>
      <trkpt lat="48.78152" lon="2.49433">
        <ele>89.7</ele>
        <time>2015-04-27T19:52:56.965Z</time>
      </trkpt>
      <trkpt lat="48.78158" lon="2.49438">
        <ele>89.2</ele>
        <time>2015-04-27T19:52:57.987Z</time>
      </trkpt>
      <trkpt lat="48.78163" lon="2.49443">
        <ele>88.6</ele>
        <time>2015-04-27T19:52:58.996Z</time>
      </trkpt>
      <trkpt lat="48.78168" lon="2.49448">
        <ele>88.2</ele>
        <time>2015-04-27T19:52:59.922Z</time>
      </trkpt>
      <trkpt lat="48.78173" lon="2.49453">
        <ele>88.3</ele>
        <time>2015-04-27T19:53:00.937Z</time>
      </trkpt>
      <trkpt lat="48.78178" lon="2.4946">
        <ele>88.1</ele>
        <time>2015-04-27T19:53:01.965Z</time>
      </trkpt>
      <trkpt lat="48.78183" lon="2.49465">
        <ele>88.1</ele>
        <time>2015-04-27T19:53:02.973Z</time>
      </trkpt>
      <trkpt lat="48.78187" lon="2.4947">
        <ele>88.1</ele>
        <time>2015-04-27T19:53:03.981Z</time>
      </trkpt>
      <trkpt lat="48.78192" lon="2.49475">
        <ele>88.1</ele>
        <time>2015-04-27T19:53:04.986Z</time>
      </trkpt>
      <trkpt lat="48.78197" lon="2.4948">
        <ele>88.3</ele>
        <time>2015-04-27T19:53:05.880Z</time>
      </trkpt>
      <trkpt lat="48.78202" lon="2.49484">
        <ele>88.3</ele>
        <time>2015-04-27T19:53:06.903Z</time>
      </trkpt>
      <trkpt lat="48.78207" lon="2.49488">
        <ele>88.2</ele>
        <time>2015-04-27T19:53:07.929Z</time>
      </trkpt>
      <trkpt lat="48.78212" lon="2.49493">
        <ele>88.4</ele>
        <time>2015-04-27T19:53:08.973Z</time>
      </trkpt>
      <trkpt lat="48.78216" lon="2.49497">
        <ele>88.7</ele>
        <time>2015-04-27T19:53:09.928Z</time>
      </trkpt>
      <trkpt lat="48.78221" lon="2.49501">
        <ele>88.7</ele>
        <time>2015-04-27T19:53:10.951Z</time>
      </trkpt>
      <trkpt lat="48.78225" lon="2.49504">
        <ele>88.2</ele>
        <time>2015-04-27T19:53:11.962Z</time>
      </trkpt>
      <trkpt lat="48.78229" lon="2.49507">
        <ele>88</ele>
        <time>2015-04-27T19:53:12.985Z</time>
      </trkpt>
      <trkpt lat="48.78237" lon="2.4951">
        <ele>87.8</ele>
        <time>2015-04-27T19:53:14.925Z</time>
      </trkpt>
      <trkpt lat="48.78241" lon="2.49511">
        <ele>87.7</ele>
        <time>2015-04-27T19:53:15.951Z</time>
      </trkpt>
      <trkpt lat="48.7825" lon="2.49514">
        <ele>88</ele>
        <time>2015-04-27T19:53:17.918Z</time>
      </trkpt>
      <trkpt lat="48.78254" lon="2.49515">
        <ele>88.3</ele>
        <time>2015-04-27T19:53:18.933Z</time>
      </trkpt>
      <trkpt lat="48.78262" lon="2.49518">
        <ele>88.6</ele>
        <time>2015-04-27T19:53:20.987Z</time>
      </trkpt>
      <trkpt lat="48.78266" lon="2.49519">
        <ele>88.9</ele>
        <time>2015-04-27T19:53:22.020Z</time>
      </trkpt>
      <trkpt lat="48.78274" lon="2.49522">
        <ele>88.7</ele>
        <time>2015-04-27T19:53:25.001Z</time>
      </trkpt>
      <trkpt lat="48.78274" lon="2.49523">
        <ele>88.3</ele>
        <time>2015-04-27T19:53:25.892Z</time>
      </trkpt>
      <trkpt lat="48.78273" lon="2.49523">
        <ele>88.1</ele>
        <time>2015-04-27T19:54:36.901Z</time>
      </trkpt>
      <trkpt lat="48.78267" lon="2.49521">
        <ele>94</ele>
        <time>2015-04-27T19:54:37.915Z</time>
      </trkpt>
      <trkpt lat="48.78275" lon="2.4952">
        <ele>93.8</ele>
        <time>2015-04-27T19:54:40.958Z</time>
      </trkpt>
      <trkpt lat="48.78278" lon="2.49519">
        <ele>93.6</ele>
        <time>2015-04-27T19:54:41.966Z</time>
      </trkpt>
      <trkpt lat="48.78284" lon="2.4952">
        <ele>93.9</ele>
        <time>2015-04-27T19:54:44.006Z</time>
      </trkpt>
      <trkpt lat="48.78288" lon="2.49521">
        <ele>93.8</ele>
        <time>2015-04-27T19:54:44.974Z</time>
      </trkpt>
      <trkpt lat="48.78295" lon="2.49524">
        <ele>94</ele>
        <time>2015-04-27T19:54:46.949Z</time>
      </trkpt>
      <trkpt lat="48.78299" lon="2.49525">
        <ele>94.1</ele>
        <time>2015-04-27T19:54:47.983Z</time>
      </trkpt>
      <trkpt lat="48.78308" lon="2.49526">
        <ele>94.3</ele>
        <time>2015-04-27T19:54:49.922Z</time>
      </trkpt>
      <trkpt lat="48.78312" lon="2.49526">
        <ele>94.4</ele>
        <time>2015-04-27T19:54:51.001Z</time>
      </trkpt>
      <trkpt lat="48.7832" lon="2.49528">
        <ele>94</ele>
        <time>2015-04-27T19:54:53.941Z</time>
      </trkpt>
      <trkpt lat="48.78323" lon="2.49529">
        <ele>94.1</ele>
        <time>2015-04-27T19:54:54.958Z</time>
      </trkpt>
      <trkpt lat="48.78331" lon="2.4953">
        <ele>93.6</ele>
        <time>2015-04-27T19:54:57.929Z</time>
      </trkpt>
      <trkpt lat="48.78333" lon="2.49531">
        <ele>93.6</ele>
        <time>2015-04-27T19:54:58.919Z</time>
      </trkpt>
      <trkpt lat="48.78341" lon="2.49532">
        <ele>93.4</ele>
        <time>2015-04-27T19:55:01.962Z</time>
      </trkpt>
      <trkpt lat="48.78343" lon="2.49532">
        <ele>92.9</ele>
        <time>2015-04-27T19:55:02.974Z</time>
      </trkpt>
      <trkpt lat="48.7835" lon="2.49536">
        <ele>91.9</ele>
        <time>2015-04-27T19:55:07.966Z</time>
      </trkpt>
      <trkpt lat="48.78352" lon="2.49537">
        <ele>91.8</ele>
        <time>2015-04-27T19:55:08.988Z</time>
      </trkpt>
      <trkpt lat="48.78359" lon="2.49539">
        <ele>91</ele>
        <time>2015-04-27T19:55:11.956Z</time>
      </trkpt>
      <trkpt lat="48.78362" lon="2.4954">
        <ele>91</ele>
        <time>2015-04-27T19:55:12.924Z</time>
      </trkpt>
      <trkpt lat="48.78368" lon="2.4954">
        <ele>91</ele>
        <time>2015-04-27T19:55:15.980Z</time>
      </trkpt>
      <trkpt lat="48.78371" lon="2.4954">
        <ele>91.2</ele>
        <time>2015-04-27T19:55:16.988Z</time>
      </trkpt>
      <trkpt lat="48.78377" lon="2.4954">
        <ele>91.3</ele>
        <time>2015-04-27T19:55:19.041Z</time>
      </trkpt>
      <trkpt lat="48.7838" lon="2.49539">
        <ele>91.1</ele>
        <time>2015-04-27T19:55:19.936Z</time>
      </trkpt>
      <trkpt lat="48.78387" lon="2.4954">
        <ele>90.9</ele>
        <time>2015-04-27T19:55:23.221Z</time>
      </trkpt>
      <trkpt lat="48.7839" lon="2.4954">
        <ele>90.7</ele>
        <time>2015-04-27T19:55:24.003Z</time>
      </trkpt>
      <trkpt lat="48.78396" lon="2.49541">
        <ele>91.5</ele>
        <time>2015-04-27T19:55:26.929Z</time>
      </trkpt>
      <trkpt lat="48.78399" lon="2.49541">
        <ele>91.8</ele>
        <time>2015-04-27T19:55:27.954Z</time>
      </trkpt>
      <trkpt lat="48.78407" lon="2.4954">
        <ele>92</ele>
        <time>2015-04-27T19:55:30.977Z</time>
      </trkpt>
      <trkpt lat="48.78409" lon="2.4954">
        <ele>92.2</ele>
        <time>2015-04-27T19:55:31.981Z</time>
      </trkpt>
      <trkpt lat="48.78416" lon="2.49541">
        <ele>92.8</ele>
        <time>2015-04-27T19:55:35.665Z</time>
      </trkpt>
      <trkpt lat="48.78419" lon="2.49542">
        <ele>92.9</ele>
        <time>2015-04-27T19:55:35.976Z</time>
      </trkpt>
      <trkpt lat="48.78428" lon="2.49542">
        <ele>93.1</ele>
        <time>2015-04-27T19:55:38.925Z</time>
      </trkpt>
      <trkpt lat="48.78431" lon="2.49541">
        <ele>92.9</ele>
        <time>2015-04-27T19:55:39.947Z</time>
      </trkpt>
      <trkpt lat="48.78437" lon="2.49541">
        <ele>92.9</ele>
        <time>2015-04-27T19:55:41.964Z</time>
      </trkpt>
      <trkpt lat="48.78441" lon="2.49541">
        <ele>92.7</ele>
        <time>2015-04-27T19:55:42.989Z</time>
      </trkpt>
      <trkpt lat="48.78447" lon="2.49542">
        <ele>92.9</ele>
        <time>2015-04-27T19:55:45.868Z</time>
      </trkpt>
      <trkpt lat="48.7845" lon="2.49542">
        <ele>92.8</ele>
        <time>2015-04-27T19:55:45.918Z</time>
      </trkpt>
      <trkpt lat="48.78456" lon="2.49542">
        <ele>92.9</ele>
        <time>2015-04-27T19:55:48.003Z</time>
      </trkpt>
      <trkpt lat="48.78459" lon="2.49542">
        <ele>92.7</ele>
        <time>2015-04-27T19:55:48.926Z</time>
      </trkpt>
      <trkpt lat="48.78467" lon="2.49542">
        <ele>92.9</ele>
        <time>2015-04-27T19:55:51.925Z</time>
      </trkpt>
      <trkpt lat="48.78469" lon="2.49542">
        <ele>93</ele>
        <time>2015-04-27T19:55:52.967Z</time>
      </trkpt>
      <trkpt lat="48.78474" lon="2.49541">
        <ele>93</ele>
        <time>2015-04-27T19:56:45.996Z</time>
      </trkpt>
      <trkpt lat="48.78486" lon="2.49536">
        <ele>93.5</ele>
        <time>2015-04-27T19:56:47.023Z</time>
      </trkpt>
      <trkpt lat="48.78493" lon="2.49535">
        <ele>93.7</ele>
        <time>2015-04-27T19:56:49.956Z</time>
      </trkpt>
      <trkpt lat="48.78496" lon="2.49534">
        <ele>93.7</ele>
        <time>2015-04-27T19:56:51.002Z</time>
      </trkpt>
      <trkpt lat="48.78504" lon="2.49533">
        <ele>94.4</ele>
        <time>2015-04-27T19:56:53.952Z</time>
      </trkpt>
      <trkpt lat="48.78507" lon="2.49532">
        <ele>94.5</ele>
        <time>2015-04-27T19:56:54.961Z</time>
      </trkpt>
      <trkpt lat="48.78515" lon="2.49531">
        <ele>94.8</ele>
        <time>2015-04-27T19:56:56.981Z</time>
      </trkpt>
      <trkpt lat="48.78519" lon="2.49531">
        <ele>94.9</ele>
        <time>2015-04-27T19:56:58.035Z</time>
      </trkpt>
      <trkpt lat="48.78527" lon="2.49529">
        <ele>95.1</ele>
        <time>2015-04-27T19:56:59.921Z</time>
      </trkpt>
      <trkpt lat="48.78532" lon="2.49528">
        <ele>95</ele>
        <time>2015-04-27T19:57:00.928Z</time>
      </trkpt>
      <trkpt lat="48.78536" lon="2.49527">
        <ele>95.2</ele>
        <time>2015-04-27T19:57:01.938Z</time>
      </trkpt>
      <trkpt lat="48.78541" lon="2.49524">
        <ele>95.9</ele>
        <time>2015-04-27T19:57:02.952Z</time>
      </trkpt>
      <trkpt lat="48.78546" lon="2.49524">
        <ele>96</ele>
        <time>2015-04-27T19:57:03.961Z</time>
      </trkpt>
      <trkpt lat="48.78552" lon="2.49523">
        <ele>96.1</ele>
        <time>2015-04-27T19:57:04.878Z</time>
      </trkpt>
      <trkpt lat="48.78557" lon="2.49522">
        <ele>96.1</ele>
        <time>2015-04-27T19:57:06.345Z</time>
      </trkpt>
      <trkpt lat="48.78561" lon="2.49522">
        <ele>96.2</ele>
        <time>2015-04-27T19:57:07.000Z</time>
      </trkpt>
      <trkpt lat="48.78565" lon="2.49522">
        <ele>96.1</ele>
        <time>2015-04-27T19:57:07.883Z</time>
      </trkpt>
      <trkpt lat="48.7857" lon="2.49522">
        <ele>96.5</ele>
        <time>2015-04-27T19:57:08.921Z</time>
      </trkpt>
      <trkpt lat="48.78576" lon="2.49521">
        <ele>96.8</ele>
        <time>2015-04-27T19:57:09.933Z</time>
      </trkpt>
      <trkpt lat="48.78581" lon="2.49521">
        <ele>96.9</ele>
        <time>2015-04-27T19:57:10.936Z</time>
      </trkpt>
      <trkpt lat="48.78586" lon="2.49523">
        <ele>97.1</ele>
        <time>2015-04-27T19:57:11.956Z</time>
      </trkpt>
      <trkpt lat="48.78591" lon="2.49524">
        <ele>97.8</ele>
        <time>2015-04-27T19:57:12.964Z</time>
      </trkpt>
      <trkpt lat="48.78597" lon="2.49526">
        <ele>98.3</ele>
        <time>2015-04-27T19:57:13.984Z</time>
      </trkpt>
      <trkpt lat="48.78602" lon="2.49525">
        <ele>98.2</ele>
        <time>2015-04-27T19:57:14.992Z</time>
      </trkpt>
      <trkpt lat="48.78608" lon="2.49525">
        <ele>98.1</ele>
        <time>2015-04-27T19:57:15.908Z</time>
      </trkpt>
      <trkpt lat="48.78614" lon="2.49525">
        <ele>97.9</ele>
        <time>2015-04-27T19:57:16.910Z</time>
      </trkpt>
      <trkpt lat="48.78622" lon="2.49524">
        <ele>97.6</ele>
        <time>2015-04-27T19:57:18.975Z</time>
      </trkpt>
      <trkpt lat="48.78626" lon="2.49524">
        <ele>97.2</ele>
        <time>2015-04-27T19:57:19.982Z</time>
      </trkpt>
      <trkpt lat="48.78634" lon="2.49522">
        <ele>96.4</ele>
        <time>2015-04-27T19:57:21.955Z</time>
      </trkpt>
      <trkpt lat="48.78638" lon="2.49522">
        <ele>96.3</ele>
        <time>2015-04-27T19:57:22.973Z</time>
      </trkpt>
      <trkpt lat="48.78642" lon="2.49523">
        <ele>96.3</ele>
        <time>2015-04-27T19:57:23.916Z</time>
      </trkpt>
      <trkpt lat="48.78647" lon="2.49523">
        <ele>96.5</ele>
        <time>2015-04-27T19:57:24.922Z</time>
      </trkpt>
      <trkpt lat="48.78656" lon="2.49523">
        <ele>96.7</ele>
        <time>2015-04-27T19:57:26.940Z</time>
      </trkpt>
      <trkpt lat="48.78659" lon="2.49523">
        <ele>96.6</ele>
        <time>2015-04-27T19:57:27.958Z</time>
      </trkpt>
      <trkpt lat="48.78666" lon="2.49524">
        <ele>96.6</ele>
        <time>2015-04-27T19:57:29.876Z</time>
      </trkpt>
      <trkpt lat="48.7867" lon="2.49524">
        <ele>96.4</ele>
        <time>2015-04-27T19:57:30.983Z</time>
      </trkpt>
      <trkpt lat="48.78679" lon="2.49524">
        <ele>96.2</ele>
        <time>2015-04-27T19:57:32.999Z</time>
      </trkpt>
      <trkpt lat="48.78681" lon="2.49524">
        <ele>96</ele>
        <time>2015-04-27T19:57:33.923Z</time>
      </trkpt>
      <trkpt lat="48.78689" lon="2.49524">
        <ele>96.2</ele>
        <time>2015-04-27T19:57:35.908Z</time>
      </trkpt>
      <trkpt lat="48.78693" lon="2.49524">
        <ele>96.2</ele>
        <time>2015-04-27T19:57:36.909Z</time>
      </trkpt>
      <trkpt lat="48.78696" lon="2.49525">
        <ele>96.2</ele>
        <time>2015-04-27T19:57:37.915Z</time>
      </trkpt>
      <trkpt lat="48.78704" lon="2.49525">
        <ele>96.7</ele>
        <time>2015-04-27T19:57:38.928Z</time>
      </trkpt>
      <trkpt lat="48.78712" lon="2.49527">
        <ele>96.9</ele>
        <time>2015-04-27T19:57:40.885Z</time>
      </trkpt>
      <trkpt lat="48.78715" lon="2.49524">
        <ele>97.9</ele>
        <time>2015-04-27T19:57:41.925Z</time>
      </trkpt>
      <trkpt lat="48.78723" lon="2.49522">
        <ele>98.4</ele>
        <time>2015-04-27T19:57:43.930Z</time>
      </trkpt>
      <trkpt lat="48.78728" lon="2.49523">
        <ele>98.5</ele>
        <time>2015-04-27T19:57:44.946Z</time>
      </trkpt>
      <trkpt lat="48.78737" lon="2.49524">
        <ele>98.4</ele>
        <time>2015-04-27T19:57:46.993Z</time>
      </trkpt>
      <trkpt lat="48.78742" lon="2.49523">
        <ele>98.1</ele>
        <time>2015-04-27T19:57:47.911Z</time>
      </trkpt>
      <trkpt lat="48.78746" lon="2.49522">
        <ele>98</ele>
        <time>2015-04-27T19:57:48.907Z</time>
      </trkpt>
      <trkpt lat="48.78751" lon="2.49523">
        <ele>98.3</ele>
        <time>2015-04-27T19:57:49.918Z</time>
      </trkpt>
      <trkpt lat="48.78756" lon="2.49523">
        <ele>98.4</ele>
        <time>2015-04-27T19:57:50.947Z</time>
      </trkpt>
      <trkpt lat="48.78761" lon="2.49523">
        <ele>98.3</ele>
        <time>2015-04-27T19:57:51.982Z</time>
      </trkpt>
      <trkpt lat="48.78766" lon="2.49523">
        <ele>98.4</ele>
        <time>2015-04-27T19:57:52.963Z</time>
      </trkpt>
      <trkpt lat="48.78772" lon="2.49522">
        <ele>98.5</ele>
        <time>2015-04-27T19:57:53.974Z</time>
      </trkpt>
      <trkpt lat="48.78777" lon="2.49522">
        <ele>98.4</ele>
        <time>2015-04-27T19:57:55.094Z</time>
      </trkpt>
      <trkpt lat="48.78782" lon="2.49523">
        <ele>98.5</ele>
        <time>2015-04-27T19:57:55.902Z</time>
      </trkpt>
      <trkpt lat="48.78788" lon="2.49525">
        <ele>97.9</ele>
        <time>2015-04-27T19:57:57.030Z</time>
      </trkpt>
      <trkpt lat="48.78795" lon="2.49526">
        <ele>97</ele>
        <time>2015-04-27T19:57:57.942Z</time>
      </trkpt>
      <trkpt lat="48.78801" lon="2.49526">
        <ele>96.9</ele>
        <time>2015-04-27T19:57:58.935Z</time>
      </trkpt>
      <trkpt lat="48.78806" lon="2.49526">
        <ele>96.8</ele>
        <time>2015-04-27T19:57:59.942Z</time>
      </trkpt>
      <trkpt lat="48.78811" lon="2.49526">
        <ele>96.9</ele>
        <time>2015-04-27T19:58:00.948Z</time>
      </trkpt>
      <trkpt lat="48.78816" lon="2.49527">
        <ele>97</ele>
        <time>2015-04-27T19:58:01.971Z</time>
      </trkpt>
      <trkpt lat="48.7882" lon="2.49526">
        <ele>97.2</ele>
        <time>2015-04-27T19:58:02.981Z</time>
      </trkpt>
      <trkpt lat="48.78825" lon="2.49526">
        <ele>97.6</ele>
        <time>2015-04-27T19:58:04.083Z</time>
      </trkpt>
      <trkpt lat="48.78833" lon="2.49524">
        <ele>97.9</ele>
        <time>2015-04-27T19:58:06.005Z</time>
      </trkpt>
      <trkpt lat="48.78836" lon="2.49522">
        <ele>97.8</ele>
        <time>2015-04-27T19:58:06.917Z</time>
      </trkpt>
      <trkpt lat="48.78841" lon="2.49522">
        <ele>98.4</ele>
        <time>2015-04-27T19:58:07.949Z</time>
      </trkpt>
      <trkpt lat="48.78846" lon="2.49523">
        <ele>98.7</ele>
        <time>2015-04-27T19:58:08.952Z</time>
      </trkpt>
      <trkpt lat="48.78851" lon="2.49522">
        <ele>98.6</ele>
        <time>2015-04-27T19:58:09.927Z</time>
      </trkpt>
      <trkpt lat="48.78857" lon="2.49523">
        <ele>98.8</ele>
        <time>2015-04-27T19:58:10.898Z</time>
      </trkpt>
      <trkpt lat="48.78863" lon="2.49524">
        <ele>98.8</ele>
        <time>2015-04-27T19:58:11.931Z</time>
      </trkpt>
      <trkpt lat="48.78868" lon="2.49525">
        <ele>98.9</ele>
        <time>2015-04-27T19:58:12.940Z</time>
      </trkpt>
      <trkpt lat="48.78873" lon="2.49526">
        <ele>99</ele>
        <time>2015-04-27T19:58:13.946Z</time>
      </trkpt>
      <trkpt lat="48.78879" lon="2.49526">
        <ele>99.3</ele>
        <time>2015-04-27T19:58:14.952Z</time>
      </trkpt>
      <trkpt lat="48.78884" lon="2.49526">
        <ele>99.2</ele>
        <time>2015-04-27T19:58:15.961Z</time>
      </trkpt>
      <trkpt lat="48.78889" lon="2.49527">
        <ele>99.5</ele>
        <time>2015-04-27T19:58:16.964Z</time>
      </trkpt>
      <trkpt lat="48.78893" lon="2.49528">
        <ele>99.5</ele>
        <time>2015-04-27T19:58:17.932Z</time>
      </trkpt>
      <trkpt lat="48.78898" lon="2.49528">
        <ele>99.2</ele>
        <time>2015-04-27T19:58:18.917Z</time>
      </trkpt>
      <trkpt lat="48.78902" lon="2.49529">
        <ele>99</ele>
        <time>2015-04-27T19:58:19.930Z</time>
      </trkpt>
      <trkpt lat="48.78907" lon="2.49531">
        <ele>98.9</ele>
        <time>2015-04-27T19:58:20.935Z</time>
      </trkpt>
      <trkpt lat="48.78913" lon="2.49532">
        <ele>98.5</ele>
        <time>2015-04-27T19:58:21.985Z</time>
      </trkpt>
      <trkpt lat="48.78917" lon="2.49534">
        <ele>98.7</ele>
        <time>2015-04-27T19:58:22.952Z</time>
      </trkpt>
      <trkpt lat="48.78924" lon="2.49538">
        <ele>99.4</ele>
        <time>2015-04-27T19:58:25.002Z</time>
      </trkpt>
      <trkpt lat="48.7893" lon="2.49542">
        <ele>98.7</ele>
        <time>2015-04-27T19:58:25.928Z</time>
      </trkpt>
      <trkpt lat="48.78936" lon="2.49545">
        <ele>97.7</ele>
        <time>2015-04-27T19:58:26.949Z</time>
      </trkpt>
      <trkpt lat="48.78942" lon="2.49548">
        <ele>97</ele>
        <time>2015-04-27T19:58:27.966Z</time>
      </trkpt>
      <trkpt lat="48.78947" lon="2.49552">
        <ele>96.7</ele>
        <time>2015-04-27T19:58:29.582Z</time>
      </trkpt>
      <trkpt lat="48.78952" lon="2.49555">
        <ele>96.5</ele>
        <time>2015-04-27T19:58:29.963Z</time>
      </trkpt>
      <trkpt lat="48.78956" lon="2.49559">
        <ele>96.5</ele>
        <time>2015-04-27T19:58:30.973Z</time>
      </trkpt>
      <trkpt lat="48.7896" lon="2.49562">
        <ele>96.5</ele>
        <time>2015-04-27T19:58:31.978Z</time>
      </trkpt>
      <trkpt lat="48.78969" lon="2.49566">
        <ele>96</ele>
        <time>2015-04-27T19:58:34.714Z</time>
      </trkpt>
      <trkpt lat="48.78973" lon="2.49568">
        <ele>95.7</ele>
        <time>2015-04-27T19:58:34.882Z</time>
      </trkpt>
      <trkpt lat="48.78977" lon="2.49571">
        <ele>95.7</ele>
        <time>2015-04-27T19:58:35.956Z</time>
      </trkpt>
      <trkpt lat="48.78981" lon="2.49574">
        <ele>95.3</ele>
        <time>2015-04-27T19:58:36.947Z</time>
      </trkpt>
      <trkpt lat="48.78986" lon="2.49578">
        <ele>95.4</ele>
        <time>2015-04-27T19:58:37.959Z</time>
      </trkpt>
      <trkpt lat="48.7899" lon="2.49581">
        <ele>95.2</ele>
        <time>2015-04-27T19:58:38.963Z</time>
      </trkpt>
      <trkpt lat="48.78994" lon="2.49583">
        <ele>94.9</ele>
        <time>2015-04-27T19:58:40.802Z</time>
      </trkpt>
      <trkpt lat="48.78999" lon="2.49586">
        <ele>95.1</ele>
        <time>2015-04-27T19:58:40.875Z</time>
      </trkpt>
      <trkpt lat="48.79004" lon="2.49589">
        <ele>94.9</ele>
        <time>2015-04-27T19:58:41.901Z</time>
      </trkpt>
      <trkpt lat="48.79009" lon="2.49593">
        <ele>94.9</ele>
        <time>2015-04-27T19:58:42.905Z</time>
      </trkpt>
      <trkpt lat="48.79014" lon="2.49596">
        <ele>95</ele>
        <time>2015-04-27T19:58:43.926Z</time>
      </trkpt>
      <trkpt lat="48.7902" lon="2.49599">
        <ele>94.8</ele>
        <time>2015-04-27T19:58:44.936Z</time>
      </trkpt>
      <trkpt lat="48.79026" lon="2.49602">
        <ele>94.4</ele>
        <time>2015-04-27T19:58:45.947Z</time>
      </trkpt>
      <trkpt lat="48.79031" lon="2.49605">
        <ele>94.5</ele>
        <time>2015-04-27T19:58:46.953Z</time>
      </trkpt>
      <trkpt lat="48.79037" lon="2.49608">
        <ele>94.5</ele>
        <time>2015-04-27T19:58:47.966Z</time>
      </trkpt>
      <trkpt lat="48.79044" lon="2.4961">
        <ele>94.6</ele>
        <time>2015-04-27T19:58:48.974Z</time>
      </trkpt>
      <trkpt lat="48.7905" lon="2.49613">
        <ele>95.1</ele>
        <time>2015-04-27T19:58:49.988Z</time>
      </trkpt>
      <trkpt lat="48.79056" lon="2.49617">
        <ele>95.1</ele>
        <time>2015-04-27T19:58:50.998Z</time>
      </trkpt>
      <trkpt lat="48.79062" lon="2.4962">
        <ele>95.1</ele>
        <time>2015-04-27T19:58:51.927Z</time>
      </trkpt>
      <trkpt lat="48.79067" lon="2.49624">
        <ele>94.6</ele>
        <time>2015-04-27T19:58:52.921Z</time>
      </trkpt>
      <trkpt lat="48.79072" lon="2.49627">
        <ele>93.8</ele>
        <time>2015-04-27T19:58:54.000Z</time>
      </trkpt>
      <trkpt lat="48.79078" lon="2.4963">
        <ele>93.3</ele>
        <time>2015-04-27T19:58:54.905Z</time>
      </trkpt>
      <trkpt lat="48.79083" lon="2.49635">
        <ele>93.3</ele>
        <time>2015-04-27T19:58:55.935Z</time>
      </trkpt>
      <trkpt lat="48.79089" lon="2.49638">
        <ele>93.1</ele>
        <time>2015-04-27T19:58:56.948Z</time>
      </trkpt>
      <trkpt lat="48.79093" lon="2.49643">
        <ele>93.1</ele>
        <time>2015-04-27T19:58:57.953Z</time>
      </trkpt>
      <trkpt lat="48.79099" lon="2.49647">
        <ele>93.3</ele>
        <time>2015-04-27T19:58:58.936Z</time>
      </trkpt>
      <trkpt lat="48.79105" lon="2.4965">
        <ele>93.5</ele>
        <time>2015-04-27T19:58:59.908Z</time>
      </trkpt>
      <trkpt lat="48.79111" lon="2.49653">
        <ele>93.6</ele>
        <time>2015-04-27T19:59:00.926Z</time>
      </trkpt>
      <trkpt lat="48.79117" lon="2.49657">
        <ele>93.8</ele>
        <time>2015-04-27T19:59:01.942Z</time>
      </trkpt>
      <trkpt lat="48.79123" lon="2.4966">
        <ele>93.4</ele>
        <time>2015-04-27T19:59:03.008Z</time>
      </trkpt>
      <trkpt lat="48.79129" lon="2.49663">
        <ele>93.2</ele>
        <time>2015-04-27T19:59:04.024Z</time>
      </trkpt>
      <trkpt lat="48.79135" lon="2.49666">
        <ele>92.5</ele>
        <time>2015-04-27T19:59:04.902Z</time>
      </trkpt>
      <trkpt lat="48.79142" lon="2.49669">
        <ele>92.7</ele>
        <time>2015-04-27T19:59:05.925Z</time>
      </trkpt>
      <trkpt lat="48.79149" lon="2.49672">
        <ele>92.6</ele>
        <time>2015-04-27T19:59:06.933Z</time>
      </trkpt>
      <trkpt lat="48.79155" lon="2.49675">
        <ele>92.5</ele>
        <time>2015-04-27T19:59:07.961Z</time>
      </trkpt>
      <trkpt lat="48.79162" lon="2.49679">
        <ele>92.2</ele>
        <time>2015-04-27T19:59:08.976Z</time>
      </trkpt>
      <trkpt lat="48.79169" lon="2.49683">
        <ele>92</ele>
        <time>2015-04-27T19:59:10.003Z</time>
      </trkpt>
      <trkpt lat="48.79176" lon="2.49685">
        <ele>92</ele>
        <time>2015-04-27T19:59:10.901Z</time>
      </trkpt>
      <trkpt lat="48.79182" lon="2.49689">
        <ele>91.8</ele>
        <time>2015-04-27T19:59:11.916Z</time>
      </trkpt>
      <trkpt lat="48.79188" lon="2.49692">
        <ele>91.6</ele>
        <time>2015-04-27T19:59:12.927Z</time>
      </trkpt>
      <trkpt lat="48.79193" lon="2.49695">
        <ele>92</ele>
        <time>2015-04-27T19:59:13.873Z</time>
      </trkpt>
      <trkpt lat="48.79197" lon="2.49699">
        <ele>92</ele>
        <time>2015-04-27T19:59:14.923Z</time>
      </trkpt>
      <trkpt lat="48.79201" lon="2.49704">
        <ele>92.4</ele>
        <time>2015-04-27T19:59:15.926Z</time>
      </trkpt>
      <trkpt lat="48.79209" lon="2.49707">
        <ele>92.7</ele>
        <time>2015-04-27T19:59:16.957Z</time>
      </trkpt>
      <trkpt lat="48.79214" lon="2.49711">
        <ele>92.5</ele>
        <time>2015-04-27T19:59:18.144Z</time>
      </trkpt>
      <trkpt lat="48.79219" lon="2.49716">
        <ele>92.4</ele>
        <time>2015-04-27T19:59:18.898Z</time>
      </trkpt>
      <trkpt lat="48.79223" lon="2.4972">
        <ele>92.2</ele>
        <time>2015-04-27T19:59:19.901Z</time>
      </trkpt>
      <trkpt lat="48.79228" lon="2.49723">
        <ele>92.4</ele>
        <time>2015-04-27T19:59:20.981Z</time>
      </trkpt>
      <trkpt lat="48.79234" lon="2.49726">
        <ele>92.5</ele>
        <time>2015-04-27T19:59:22.003Z</time>
      </trkpt>
      <trkpt lat="48.79239" lon="2.49729">
        <ele>92.6</ele>
        <time>2015-04-27T19:59:22.894Z</time>
      </trkpt>
      <trkpt lat="48.79244" lon="2.49732">
        <ele>93.1</ele>
        <time>2015-04-27T19:59:23.908Z</time>
      </trkpt>
      <trkpt lat="48.79251" lon="2.49736">
        <ele>93.4</ele>
        <time>2015-04-27T19:59:24.918Z</time>
      </trkpt>
      <trkpt lat="48.79256" lon="2.49739">
        <ele>93.5</ele>
        <time>2015-04-27T19:59:25.996Z</time>
      </trkpt>
      <trkpt lat="48.79261" lon="2.49742">
        <ele>93.4</ele>
        <time>2015-04-27T19:59:26.916Z</time>
      </trkpt>
      <trkpt lat="48.79265" lon="2.49744">
        <ele>93.4</ele>
        <time>2015-04-27T19:59:27.916Z</time>
      </trkpt>
      <trkpt lat="48.79272" lon="2.49747">
        <ele>93.1</ele>
        <time>2015-04-27T19:59:28.919Z</time>
      </trkpt>
      <trkpt lat="48.79277" lon="2.4975">
        <ele>92.9</ele>
        <time>2015-04-27T19:59:29.947Z</time>
      </trkpt>
      <trkpt lat="48.79281" lon="2.49752">
        <ele>92.6</ele>
        <time>2015-04-27T19:59:30.956Z</time>
      </trkpt>
      <trkpt lat="48.79289" lon="2.49757">
        <ele>92.4</ele>
        <time>2015-04-27T19:59:32.993Z</time>
      </trkpt>
      <trkpt lat="48.79293" lon="2.4976">
        <ele>92.3</ele>
        <time>2015-04-27T19:59:34.014Z</time>
      </trkpt>
      <trkpt lat="48.79297" lon="2.49764">
        <ele>92</ele>
        <time>2015-04-27T19:59:34.910Z</time>
      </trkpt>
      <trkpt lat="48.79301" lon="2.49767">
        <ele>91.5</ele>
        <time>2015-04-27T19:59:35.921Z</time>
      </trkpt>
      <trkpt lat="48.79308" lon="2.49774">
        <ele>91.3</ele>
        <time>2015-04-27T19:59:37.940Z</time>
      </trkpt>
      <trkpt lat="48.7931" lon="2.49777">
        <ele>91</ele>
        <time>2015-04-27T19:59:38.946Z</time>
      </trkpt>
      <trkpt lat="48.79317" lon="2.49781">
        <ele>91</ele>
        <time>2015-04-27T19:59:40.922Z</time>
      </trkpt>
      <trkpt lat="48.7932" lon="2.49783">
        <ele>91.1</ele>
        <time>2015-04-27T19:59:41.943Z</time>
      </trkpt>
      <trkpt lat="48.79327" lon="2.49786">
        <ele>91.7</ele>
        <time>2015-04-27T19:59:44.939Z</time>
      </trkpt>
      <trkpt lat="48.79329" lon="2.49786">
        <ele>92.5</ele>
        <time>2015-04-27T19:59:45.937Z</time>
      </trkpt>
      <trkpt lat="48.79334" lon="2.49796">
        <ele>91.1</ele>
        <time>2015-04-27T20:00:04.967Z</time>
      </trkpt>
      <trkpt lat="48.79336" lon="2.49798">
        <ele>91.6</ele>
        <time>2015-04-27T20:00:05.974Z</time>
      </trkpt>
      <trkpt lat="48.79343" lon="2.49803">
        <ele>92.2</ele>
        <time>2015-04-27T20:00:07.994Z</time>
      </trkpt>
      <trkpt lat="48.79348" lon="2.49805">
        <ele>92.1</ele>
        <time>2015-04-27T20:00:09.018Z</time>
      </trkpt>
      <trkpt lat="48.79353" lon="2.49807">
        <ele>92</ele>
        <time>2015-04-27T20:00:09.940Z</time>
      </trkpt>
      <trkpt lat="48.79357" lon="2.49809">
        <ele>92</ele>
        <time>2015-04-27T20:00:10.946Z</time>
      </trkpt>
      <trkpt lat="48.79362" lon="2.49811">
        <ele>92.2</ele>
        <time>2015-04-27T20:00:11.950Z</time>
      </trkpt>
      <trkpt lat="48.79367" lon="2.49812">
        <ele>92.4</ele>
        <time>2015-04-27T20:00:12.959Z</time>
      </trkpt>
      <trkpt lat="48.79372" lon="2.49814">
        <ele>92.2</ele>
        <time>2015-04-27T20:00:13.966Z</time>
      </trkpt>
      <trkpt lat="48.79377" lon="2.49816">
        <ele>92</ele>
        <time>2015-04-27T20:00:14.977Z</time>
      </trkpt>
      <trkpt lat="48.79384" lon="2.49821">
        <ele>92.2</ele>
        <time>2015-04-27T20:00:16.908Z</time>
      </trkpt>
      <trkpt lat="48.79388" lon="2.49824">
        <ele>92.1</ele>
        <time>2015-04-27T20:00:17.942Z</time>
      </trkpt>
      <trkpt lat="48.79396" lon="2.49828">
        <ele>91.9</ele>
        <time>2015-04-27T20:00:19.913Z</time>
      </trkpt>
      <trkpt lat="48.794" lon="2.49831">
        <ele>91.8</ele>
        <time>2015-04-27T20:00:20.923Z</time>
      </trkpt>
      <trkpt lat="48.79408" lon="2.49836">
        <ele>91.7</ele>
        <time>2015-04-27T20:00:22.933Z</time>
      </trkpt>
      <trkpt lat="48.79412" lon="2.49839">
        <ele>91.8</ele>
        <time>2015-04-27T20:00:23.930Z</time>
      </trkpt>
      <trkpt lat="48.79416" lon="2.49842">
        <ele>91.8</ele>
        <time>2015-04-27T20:00:24.937Z</time>
      </trkpt>
      <trkpt lat="48.79421" lon="2.49845">
        <ele>91.8</ele>
        <time>2015-04-27T20:00:25.947Z</time>
      </trkpt>
      <trkpt lat="48.79425" lon="2.49847">
        <ele>92.2</ele>
        <time>2015-04-27T20:00:26.971Z</time>
      </trkpt>
      <trkpt lat="48.79429" lon="2.4985">
        <ele>92.8</ele>
        <time>2015-04-27T20:00:27.985Z</time>
      </trkpt>
      <trkpt lat="48.79437" lon="2.49856">
        <ele>93.3</ele>
        <time>2015-04-27T20:00:29.903Z</time>
      </trkpt>
      <trkpt lat="48.79441" lon="2.49859">
        <ele>93.6</ele>
        <time>2015-04-27T20:00:30.937Z</time>
      </trkpt>
      <trkpt lat="48.79449" lon="2.49864">
        <ele>93.6</ele>
        <time>2015-04-27T20:00:32.994Z</time>
      </trkpt>
      <trkpt lat="48.79452" lon="2.49868">
        <ele>93.7</ele>
        <time>2015-04-27T20:00:34.004Z</time>
      </trkpt>
      <trkpt lat="48.79458" lon="2.49873">
        <ele>93.6</ele>
        <time>2015-04-27T20:00:35.880Z</time>
      </trkpt>
      <trkpt lat="48.79462" lon="2.49876">
        <ele>93.9</ele>
        <time>2015-04-27T20:00:36.911Z</time>
      </trkpt>
      <trkpt lat="48.79468" lon="2.49879">
        <ele>94</ele>
        <time>2015-04-27T20:00:38.934Z</time>
      </trkpt>
      <trkpt lat="48.79471" lon="2.49881">
        <ele>93.9</ele>
        <time>2015-04-27T20:00:39.944Z</time>
      </trkpt>
      <trkpt lat="48.79475" lon="2.49885">
        <ele>93.6</ele>
        <time>2015-04-27T20:00:40.946Z</time>
      </trkpt>
      <trkpt lat="48.79479" lon="2.49887">
        <ele>93.9</ele>
        <time>2015-04-27T20:00:41.979Z</time>
      </trkpt>
      <trkpt lat="48.79484" lon="2.4989">
        <ele>93.7</ele>
        <time>2015-04-27T20:00:43.086Z</time>
      </trkpt>
      <trkpt lat="48.79489" lon="2.49894">
        <ele>93.6</ele>
        <time>2015-04-27T20:00:43.916Z</time>
      </trkpt>
      <trkpt lat="48.79493" lon="2.49897">
        <ele>93.6</ele>
        <time>2015-04-27T20:00:44.931Z</time>
      </trkpt>
      <trkpt lat="48.79498" lon="2.499">
        <ele>93.6</ele>
        <time>2015-04-27T20:00:45.994Z</time>
      </trkpt>
      <trkpt lat="48.79503" lon="2.49903">
        <ele>93.6</ele>
        <time>2015-04-27T20:00:46.920Z</time>
      </trkpt>
      <trkpt lat="48.79507" lon="2.49905">
        <ele>93.6</ele>
        <time>2015-04-27T20:00:47.919Z</time>
      </trkpt>
      <trkpt lat="48.79515" lon="2.49909">
        <ele>93.8</ele>
        <time>2015-04-27T20:00:49.957Z</time>
      </trkpt>
      <trkpt lat="48.79518" lon="2.49911">
        <ele>93.7</ele>
        <time>2015-04-27T20:00:50.910Z</time>
      </trkpt>
      <trkpt lat="48.79524" lon="2.49916">
        <ele>94.1</ele>
        <time>2015-04-27T20:00:52.960Z</time>
      </trkpt>
      <trkpt lat="48.79531" lon="2.4992">
        <ele>94.3</ele>
        <time>2015-04-27T20:00:53.950Z</time>
      </trkpt>
      <trkpt lat="48.79537" lon="2.49924">
        <ele>94.8</ele>
        <time>2015-04-27T20:00:54.969Z</time>
      </trkpt>
      <trkpt lat="48.79542" lon="2.49927">
        <ele>95.4</ele>
        <time>2015-04-27T20:00:55.930Z</time>
      </trkpt>
      <trkpt lat="48.79546" lon="2.4993">
        <ele>95.5</ele>
        <time>2015-04-27T20:00:57.220Z</time>
      </trkpt>
      <trkpt lat="48.79551" lon="2.49931">
        <ele>95.5</ele>
        <time>2015-04-27T20:00:57.932Z</time>
      </trkpt>
      <trkpt lat="48.79555" lon="2.49933">
        <ele>96</ele>
        <time>2015-04-27T20:00:58.920Z</time>
      </trkpt>
      <trkpt lat="48.7956" lon="2.49936">
        <ele>96.5</ele>
        <time>2015-04-27T20:00:59.931Z</time>
      </trkpt>
      <trkpt lat="48.79566" lon="2.49939">
        <ele>97.7</ele>
        <time>2015-04-27T20:01:00.987Z</time>
      </trkpt>
      <trkpt lat="48.79571" lon="2.49942">
        <ele>98.8</ele>
        <time>2015-04-27T20:01:01.959Z</time>
      </trkpt>
      <trkpt lat="48.79576" lon="2.49945">
        <ele>99.1</ele>
        <time>2015-04-27T20:01:02.908Z</time>
      </trkpt>
      <trkpt lat="48.7958" lon="2.49949">
        <ele>99.4</ele>
        <time>2015-04-27T20:01:03.995Z</time>
      </trkpt>
      <trkpt lat="48.79584" lon="2.49953">
        <ele>99.6</ele>
        <time>2015-04-27T20:01:04.908Z</time>
      </trkpt>
      <trkpt lat="48.79588" lon="2.49957">
        <ele>99.9</ele>
        <time>2015-04-27T20:01:05.902Z</time>
      </trkpt>
      <trkpt lat="48.79594" lon="2.49962">
        <ele>101.3</ele>
        <time>2015-04-27T20:01:07.515Z</time>
      </trkpt>
      <trkpt lat="48.79598" lon="2.49968">
        <ele>101.6</ele>
        <time>2015-04-27T20:01:07.957Z</time>
      </trkpt>
      <trkpt lat="48.79602" lon="2.49979">
        <ele>101.5</ele>
        <time>2015-04-27T20:01:09.999Z</time>
      </trkpt>
      <trkpt lat="48.79605" lon="2.49983">
        <ele>101.4</ele>
        <time>2015-04-27T20:01:10.910Z</time>
      </trkpt>
      <trkpt lat="48.79609" lon="2.49991">
        <ele>101.2</ele>
        <time>2015-04-27T20:01:12.934Z</time>
      </trkpt>
      <trkpt lat="48.79612" lon="2.49996">
        <ele>101.1</ele>
        <time>2015-04-27T20:01:13.954Z</time>
      </trkpt>
      <trkpt lat="48.79615" lon="2.50001">
        <ele>101.1</ele>
        <time>2015-04-27T20:01:15.005Z</time>
      </trkpt>
      <trkpt lat="48.79618" lon="2.50007">
        <ele>100.7</ele>
        <time>2015-04-27T20:01:15.929Z</time>
      </trkpt>
      <trkpt lat="48.79622" lon="2.50012">
        <ele>100.6</ele>
        <time>2015-04-27T20:01:17.662Z</time>
      </trkpt>
      <trkpt lat="48.79625" lon="2.50017">
        <ele>100.5</ele>
        <time>2015-04-27T20:01:17.881Z</time>
      </trkpt>
      <trkpt lat="48.79628" lon="2.50027">
        <ele>100.5</ele>
        <time>2015-04-27T20:01:19.930Z</time>
      </trkpt>
      <trkpt lat="48.79629" lon="2.50032">
        <ele>100.5</ele>
        <time>2015-04-27T20:01:20.939Z</time>
      </trkpt>
      <trkpt lat="48.79636" lon="2.50038">
        <ele>101.9</ele>
        <time>2015-04-27T20:01:22.665Z</time>
      </trkpt>
      <trkpt lat="48.79639" lon="2.50043">
        <ele>102</ele>
        <time>2015-04-27T20:01:22.883Z</time>
      </trkpt>
      <trkpt lat="48.79644" lon="2.50054">
        <ele>102.2</ele>
        <time>2015-04-27T20:01:24.914Z</time>
      </trkpt>
      <trkpt lat="48.79646" lon="2.50061">
        <ele>102.1</ele>
        <time>2015-04-27T20:01:25.935Z</time>
      </trkpt>
      <trkpt lat="48.79649" lon="2.50067">
        <ele>102.2</ele>
        <time>2015-04-27T20:01:26.957Z</time>
      </trkpt>
      <trkpt lat="48.79651" lon="2.50073">
        <ele>102.1</ele>
        <time>2015-04-27T20:01:28.151Z</time>
      </trkpt>
      <trkpt lat="48.79654" lon="2.5008">
        <ele>102.1</ele>
        <time>2015-04-27T20:01:28.984Z</time>
      </trkpt>
      <trkpt lat="48.79659" lon="2.50086">
        <ele>102.3</ele>
        <time>2015-04-27T20:01:29.903Z</time>
      </trkpt>
      <trkpt lat="48.79662" lon="2.50093">
        <ele>102.2</ele>
        <time>2015-04-27T20:01:30.908Z</time>
      </trkpt>
      <trkpt lat="48.79666" lon="2.501">
        <ele>102.3</ele>
        <time>2015-04-27T20:01:31.901Z</time>
      </trkpt>
      <trkpt lat="48.7967" lon="2.50105">
        <ele>102</ele>
        <time>2015-04-27T20:01:32.929Z</time>
      </trkpt>
      <trkpt lat="48.79675" lon="2.5011">
        <ele>101.8</ele>
        <time>2015-04-27T20:01:33.941Z</time>
      </trkpt>
      <trkpt lat="48.7968" lon="2.50115">
        <ele>101.7</ele>
        <time>2015-04-27T20:01:34.960Z</time>
      </trkpt>
      <trkpt lat="48.79684" lon="2.5012">
        <ele>101.6</ele>
        <time>2015-04-27T20:01:35.980Z</time>
      </trkpt>
      <trkpt lat="48.79689" lon="2.50128">
        <ele>101.6</ele>
        <time>2015-04-27T20:01:36.969Z</time>
      </trkpt>
      <trkpt lat="48.79697" lon="2.50134">
        <ele>101.2</ele>
        <time>2015-04-27T20:01:37.927Z</time>
      </trkpt>
      <trkpt lat="48.79703" lon="2.5014">
        <ele>101.1</ele>
        <time>2015-04-27T20:01:38.948Z</time>
      </trkpt>
      <trkpt lat="48.79709" lon="2.50146">
        <ele>101</ele>
        <time>2015-04-27T20:01:39.955Z</time>
      </trkpt>
      <trkpt lat="48.79715" lon="2.50152">
        <ele>100.8</ele>
        <time>2015-04-27T20:01:40.957Z</time>
      </trkpt>
      <trkpt lat="48.79721" lon="2.50159">
        <ele>100.3</ele>
        <time>2015-04-27T20:01:41.964Z</time>
      </trkpt>
      <trkpt lat="48.79728" lon="2.50167">
        <ele>100.4</ele>
        <time>2015-04-27T20:01:42.981Z</time>
      </trkpt>
      <trkpt lat="48.79732" lon="2.50173">
        <ele>100.1</ele>
        <time>2015-04-27T20:01:43.987Z</time>
      </trkpt>
      <trkpt lat="48.79736" lon="2.5018">
        <ele>99.8</ele>
        <time>2015-04-27T20:01:44.999Z</time>
      </trkpt>
      <trkpt lat="48.79739" lon="2.50186">
        <ele>99.9</ele>
        <time>2015-04-27T20:01:46.001Z</time>
      </trkpt>
      <trkpt lat="48.79742" lon="2.50191">
        <ele>100</ele>
        <time>2015-04-27T20:01:46.898Z</time>
      </trkpt>
      <trkpt lat="48.79744" lon="2.50197">
        <ele>99.9</ele>
        <time>2015-04-27T20:01:47.899Z</time>
      </trkpt>
      <trkpt lat="48.79749" lon="2.50207">
        <ele>100.3</ele>
        <time>2015-04-27T20:01:49.907Z</time>
      </trkpt>
      <trkpt lat="48.79751" lon="2.50212">
        <ele>100.4</ele>
        <time>2015-04-27T20:01:50.951Z</time>
      </trkpt>
      <trkpt lat="48.79755" lon="2.50222">
        <ele>101</ele>
        <time>2015-04-27T20:01:52.915Z</time>
      </trkpt>
      <trkpt lat="48.79758" lon="2.50227">
        <ele>100.8</ele>
        <time>2015-04-27T20:01:53.963Z</time>
      </trkpt>
      <trkpt lat="48.79762" lon="2.50236">
        <ele>100.5</ele>
        <time>2015-04-27T20:01:55.996Z</time>
      </trkpt>
      <trkpt lat="48.79766" lon="2.50241">
        <ele>101.5</ele>
        <time>2015-04-27T20:01:57.016Z</time>
      </trkpt>
      <trkpt lat="48.79772" lon="2.50249">
        <ele>100.5</ele>
        <time>2015-04-27T20:01:58.945Z</time>
      </trkpt>
      <trkpt lat="48.79775" lon="2.50252">
        <ele>100</ele>
        <time>2015-04-27T20:01:59.963Z</time>
      </trkpt>
      <trkpt lat="48.7978" lon="2.50258">
        <ele>99.5</ele>
        <time>2015-04-27T20:02:01.898Z</time>
      </trkpt>
      <trkpt lat="48.79783" lon="2.50261">
        <ele>99.4</ele>
        <time>2015-04-27T20:02:02.929Z</time>
      </trkpt>
      <trkpt lat="48.79791" lon="2.50268">
        <ele>98.6</ele>
        <time>2015-04-27T20:02:06.988Z</time>
      </trkpt>
      <trkpt lat="48.79792" lon="2.50269">
        <ele>98.7</ele>
        <time>2015-04-27T20:02:07.929Z</time>
      </trkpt>
      <trkpt lat="48.79799" lon="2.50264">
        <ele>99.1</ele>
        <time>2015-04-27T20:02:24.992Z</time>
      </trkpt>
      <trkpt lat="48.79799" lon="2.50262">
        <ele>99</ele>
        <time>2015-04-27T20:02:25.936Z</time>
      </trkpt>
      <trkpt lat="48.79802" lon="2.5025">
        <ele>99.4</ele>
        <time>2015-04-27T20:02:29.934Z</time>
      </trkpt>
      <trkpt lat="48.79802" lon="2.50247">
        <ele>99.2</ele>
        <time>2015-04-27T20:02:30.956Z</time>
      </trkpt>
      <trkpt lat="48.79806" lon="2.50237">
        <ele>99.6</ele>
        <time>2015-04-27T20:02:34.977Z</time>
      </trkpt>
      <trkpt lat="48.79807" lon="2.50234">
        <ele>99.8</ele>
        <time>2015-04-27T20:02:36.003Z</time>
      </trkpt>
      <trkpt lat="48.7981" lon="2.50223">
        <ele>101</ele>
        <time>2015-04-27T20:02:38.968Z</time>
      </trkpt>
      <trkpt lat="48.79811" lon="2.50219">
        <ele>101.4</ele>
        <time>2015-04-27T20:02:39.991Z</time>
      </trkpt>
      <trkpt lat="48.79812" lon="2.5021">
        <ele>101.8</ele>
        <time>2015-04-27T20:02:41.913Z</time>
      </trkpt>
      <trkpt lat="48.79814" lon="2.50206">
        <ele>102.1</ele>
        <time>2015-04-27T20:02:42.930Z</time>
      </trkpt>
      <trkpt lat="48.79819" lon="2.50196">
        <ele>101.9</ele>
        <time>2015-04-27T20:02:44.975Z</time>
      </trkpt>
      <trkpt lat="48.79821" lon="2.5019">
        <ele>102.1</ele>
        <time>2015-04-27T20:02:45.984Z</time>
      </trkpt>
      <trkpt lat="48.79825" lon="2.50179">
        <ele>102.8</ele>
        <time>2015-04-27T20:02:48.215Z</time>
      </trkpt>
      <trkpt lat="48.79829" lon="2.50171">
        <ele>103.7</ele>
        <time>2015-04-27T20:02:48.985Z</time>
      </trkpt>
      <trkpt lat="48.79834" lon="2.50163">
        <ele>104.3</ele>
        <time>2015-04-27T20:02:50.003Z</time>
      </trkpt>
      <trkpt lat="48.79836" lon="2.50156">
        <ele>104.9</ele>
        <time>2015-04-27T20:02:50.971Z</time>
      </trkpt>
      <trkpt lat="48.79839" lon="2.50149">
        <ele>105.3</ele>
        <time>2015-04-27T20:02:51.958Z</time>
      </trkpt>
      <trkpt lat="48.79842" lon="2.50142">
        <ele>105.6</ele>
        <time>2015-04-27T20:02:52.954Z</time>
      </trkpt>
      <trkpt lat="48.79844" lon="2.50135">
        <ele>105.8</ele>
        <time>2015-04-27T20:02:53.980Z</time>
      </trkpt>
      <trkpt lat="48.79846" lon="2.50128">
        <ele>106.2</ele>
        <time>2015-04-27T20:02:54.998Z</time>
      </trkpt>
      <trkpt lat="48.79848" lon="2.50121">
        <ele>106.6</ele>
        <time>2015-04-27T20:02:56.012Z</time>
      </trkpt>
      <trkpt lat="48.7985" lon="2.50115">
        <ele>106.8</ele>
        <time>2015-04-27T20:02:57.049Z</time>
      </trkpt>
      <trkpt lat="48.79853" lon="2.50109">
        <ele>106.6</ele>
        <time>2015-04-27T20:02:57.930Z</time>
      </trkpt>
      <trkpt lat="48.79857" lon="2.50103">
        <ele>106.5</ele>
        <time>2015-04-27T20:02:58.949Z</time>
      </trkpt>
      <trkpt lat="48.79859" lon="2.50097">
        <ele>106.4</ele>
        <time>2015-04-27T20:02:59.982Z</time>
      </trkpt>
      <trkpt lat="48.79862" lon="2.50091">
        <ele>106.3</ele>
        <time>2015-04-27T20:03:00.894Z</time>
      </trkpt>
      <trkpt lat="48.79866" lon="2.50084">
        <ele>105.8</ele>
        <time>2015-04-27T20:03:01.922Z</time>
      </trkpt>
      <trkpt lat="48.79868" lon="2.50078">
        <ele>105.5</ele>
        <time>2015-04-27T20:03:02.949Z</time>
      </trkpt>
      <trkpt lat="48.79871" lon="2.50072">
        <ele>105.3</ele>
        <time>2015-04-27T20:03:03.962Z</time>
      </trkpt>
      <trkpt lat="48.79874" lon="2.50066">
        <ele>104.9</ele>
        <time>2015-04-27T20:03:05.029Z</time>
      </trkpt>
      <trkpt lat="48.79878" lon="2.5006">
        <ele>104.2</ele>
        <time>2015-04-27T20:03:06.486Z</time>
      </trkpt>
      <trkpt lat="48.7988" lon="2.50054">
        <ele>103.7</ele>
        <time>2015-04-27T20:03:06.930Z</time>
      </trkpt>
      <trkpt lat="48.79883" lon="2.50048">
        <ele>103.1</ele>
        <time>2015-04-27T20:03:07.949Z</time>
      </trkpt>
      <trkpt lat="48.79886" lon="2.50042">
        <ele>102.8</ele>
        <time>2015-04-27T20:03:08.967Z</time>
      </trkpt>
      <trkpt lat="48.79889" lon="2.50035">
        <ele>102.5</ele>
        <time>2015-04-27T20:03:09.925Z</time>
      </trkpt>
      <trkpt lat="48.79891" lon="2.50029">
        <ele>102</ele>
        <time>2015-04-27T20:03:10.931Z</time>
      </trkpt>
      <trkpt lat="48.79894" lon="2.50023">
        <ele>101.5</ele>
        <time>2015-04-27T20:03:11.973Z</time>
      </trkpt>
      <trkpt lat="48.79898" lon="2.50017">
        <ele>101.3</ele>
        <time>2015-04-27T20:03:12.981Z</time>
      </trkpt>
      <trkpt lat="48.79901" lon="2.5001">
        <ele>101</ele>
        <time>2015-04-27T20:03:13.991Z</time>
      </trkpt>
      <trkpt lat="48.79905" lon="2.50002">
        <ele>100.9</ele>
        <time>2015-04-27T20:03:14.990Z</time>
      </trkpt>
      <trkpt lat="48.79908" lon="2.49993">
        <ele>101.1</ele>
        <time>2015-04-27T20:03:15.920Z</time>
      </trkpt>
      <trkpt lat="48.79911" lon="2.49982">
        <ele>102.2</ele>
        <time>2015-04-27T20:03:16.936Z</time>
      </trkpt>
      <trkpt lat="48.79913" lon="2.49972">
        <ele>103.2</ele>
        <time>2015-04-27T20:03:17.950Z</time>
      </trkpt>
      <trkpt lat="48.79915" lon="2.49964">
        <ele>103.5</ele>
        <time>2015-04-27T20:03:18.965Z</time>
      </trkpt>
      <trkpt lat="48.79916" lon="2.49957">
        <ele>103.5</ele>
        <time>2015-04-27T20:03:19.899Z</time>
      </trkpt>
      <trkpt lat="48.79919" lon="2.49948">
        <ele>103.6</ele>
        <time>2015-04-27T20:03:20.928Z</time>
      </trkpt>
      <trkpt lat="48.79922" lon="2.49941">
        <ele>103.7</ele>
        <time>2015-04-27T20:03:21.949Z</time>
      </trkpt>
      <trkpt lat="48.79927" lon="2.49932">
        <ele>103.8</ele>
        <time>2015-04-27T20:03:22.920Z</time>
      </trkpt>
      <trkpt lat="48.79931" lon="2.49923">
        <ele>104.2</ele>
        <time>2015-04-27T20:03:23.901Z</time>
      </trkpt>
      <trkpt lat="48.79935" lon="2.49913">
        <ele>104.2</ele>
        <time>2015-04-27T20:03:24.912Z</time>
      </trkpt>
      <trkpt lat="48.79938" lon="2.49904">
        <ele>104</ele>
        <time>2015-04-27T20:03:25.912Z</time>
      </trkpt>
      <trkpt lat="48.79942" lon="2.49895">
        <ele>103.7</ele>
        <time>2015-04-27T20:03:26.946Z</time>
      </trkpt>
      <trkpt lat="48.79946" lon="2.49885">
        <ele>103.6</ele>
        <time>2015-04-27T20:03:27.968Z</time>
      </trkpt>
      <trkpt lat="48.79949" lon="2.49876">
        <ele>103.5</ele>
        <time>2015-04-27T20:03:28.887Z</time>
      </trkpt>
      <trkpt lat="48.79952" lon="2.49867">
        <ele>103.2</ele>
        <time>2015-04-27T20:03:29.887Z</time>
      </trkpt>
      <trkpt lat="48.79957" lon="2.49858">
        <ele>103.4</ele>
        <time>2015-04-27T20:03:30.891Z</time>
      </trkpt>
      <trkpt lat="48.79962" lon="2.49848">
        <ele>103.5</ele>
        <time>2015-04-27T20:03:31.895Z</time>
      </trkpt>
      <trkpt lat="48.79967" lon="2.4984">
        <ele>103.5</ele>
        <time>2015-04-27T20:03:32.917Z</time>
      </trkpt>
      <trkpt lat="48.79971" lon="2.49831">
        <ele>103.4</ele>
        <time>2015-04-27T20:03:33.945Z</time>
      </trkpt>
      <trkpt lat="48.79975" lon="2.49822">
        <ele>103.2</ele>
        <time>2015-04-27T20:03:34.953Z</time>
      </trkpt>
      <trkpt lat="48.79978" lon="2.49812">
        <ele>103.2</ele>
        <time>2015-04-27T20:03:35.970Z</time>
      </trkpt>
      <trkpt lat="48.79981" lon="2.49802">
        <ele>103.1</ele>
        <time>2015-04-27T20:03:36.974Z</time>
      </trkpt>
      <trkpt lat="48.79985" lon="2.49792">
        <ele>102.9</ele>
        <time>2015-04-27T20:03:37.898Z</time>
      </trkpt>
      <trkpt lat="48.79988" lon="2.49783">
        <ele>102.8</ele>
        <time>2015-04-27T20:03:38.911Z</time>
      </trkpt>
      <trkpt lat="48.79991" lon="2.49774">
        <ele>102.9</ele>
        <time>2015-04-27T20:03:39.941Z</time>
      </trkpt>
      <trkpt lat="48.79995" lon="2.49765">
        <ele>102.8</ele>
        <time>2015-04-27T20:03:40.953Z</time>
      </trkpt>
      <trkpt lat="48.79999" lon="2.49757">
        <ele>103</ele>
        <time>2015-04-27T20:03:41.961Z</time>
      </trkpt>
      <trkpt lat="48.80002" lon="2.49749">
        <ele>103.4</ele>
        <time>2015-04-27T20:03:42.966Z</time>
      </trkpt>
      <trkpt lat="48.80005" lon="2.49741">
        <ele>103.6</ele>
        <time>2015-04-27T20:03:43.886Z</time>
      </trkpt>
      <trkpt lat="48.80009" lon="2.49732">
        <ele>104</ele>
        <time>2015-04-27T20:03:45.026Z</time>
      </trkpt>
      <trkpt lat="48.80011" lon="2.49724">
        <ele>104.5</ele>
        <time>2015-04-27T20:03:45.909Z</time>
      </trkpt>
      <trkpt lat="48.80014" lon="2.49715">
        <ele>105.1</ele>
        <time>2015-04-27T20:03:46.886Z</time>
      </trkpt>
      <trkpt lat="48.80016" lon="2.49706">
        <ele>106</ele>
        <time>2015-04-27T20:03:47.903Z</time>
      </trkpt>
      <trkpt lat="48.80018" lon="2.49697">
        <ele>106.5</ele>
        <time>2015-04-27T20:03:48.912Z</time>
      </trkpt>
      <trkpt lat="48.80021" lon="2.49688">
        <ele>107</ele>
        <time>2015-04-27T20:03:49.927Z</time>
      </trkpt>
      <trkpt lat="48.80023" lon="2.49678">
        <ele>107.5</ele>
        <time>2015-04-27T20:03:50.935Z</time>
      </trkpt>
      <trkpt lat="48.80026" lon="2.49669">
        <ele>108</ele>
        <time>2015-04-27T20:03:51.952Z</time>
      </trkpt>
      <trkpt lat="48.80029" lon="2.4966">
        <ele>108</ele>
        <time>2015-04-27T20:03:52.972Z</time>
      </trkpt>
      <trkpt lat="48.80032" lon="2.49652">
        <ele>108.1</ele>
        <time>2015-04-27T20:03:53.885Z</time>
      </trkpt>
      <trkpt lat="48.80036" lon="2.49644">
        <ele>108</ele>
        <time>2015-04-27T20:03:54.894Z</time>
      </trkpt>
      <trkpt lat="48.80041" lon="2.49637">
        <ele>107.6</ele>
        <time>2015-04-27T20:03:55.915Z</time>
      </trkpt>
      <trkpt lat="48.80044" lon="2.49629">
        <ele>107.4</ele>
        <time>2015-04-27T20:03:56.921Z</time>
      </trkpt>
      <trkpt lat="48.80049" lon="2.49621">
        <ele>106.9</ele>
        <time>2015-04-27T20:03:57.935Z</time>
      </trkpt>
      <trkpt lat="48.80053" lon="2.49612">
        <ele>106.7</ele>
        <time>2015-04-27T20:03:58.965Z</time>
      </trkpt>
      <trkpt lat="48.80058" lon="2.49604">
        <ele>106.6</ele>
        <time>2015-04-27T20:03:59.898Z</time>
      </trkpt>
      <trkpt lat="48.80061" lon="2.49595">
        <ele>106.6</ele>
        <time>2015-04-27T20:04:00.891Z</time>
      </trkpt>
      <trkpt lat="48.80066" lon="2.49586">
        <ele>106.4</ele>
        <time>2015-04-27T20:04:01.905Z</time>
      </trkpt>
      <trkpt lat="48.80072" lon="2.49578">
        <ele>106.1</ele>
        <time>2015-04-27T20:04:02.921Z</time>
      </trkpt>
      <trkpt lat="48.80077" lon="2.49569">
        <ele>106.1</ele>
        <time>2015-04-27T20:04:03.941Z</time>
      </trkpt>
      <trkpt lat="48.80082" lon="2.4956">
        <ele>105.7</ele>
        <time>2015-04-27T20:04:04.951Z</time>
      </trkpt>
      <trkpt lat="48.80087" lon="2.49552">
        <ele>105.3</ele>
        <time>2015-04-27T20:04:05.868Z</time>
      </trkpt>
      <trkpt lat="48.80091" lon="2.49542">
        <ele>104.9</ele>
        <time>2015-04-27T20:04:06.891Z</time>
      </trkpt>
      <trkpt lat="48.80096" lon="2.49533">
        <ele>104.4</ele>
        <time>2015-04-27T20:04:07.895Z</time>
      </trkpt>
      <trkpt lat="48.801" lon="2.49525">
        <ele>104</ele>
        <time>2015-04-27T20:04:08.910Z</time>
      </trkpt>
      <trkpt lat="48.80104" lon="2.49516">
        <ele>103.1</ele>
        <time>2015-04-27T20:04:09.927Z</time>
      </trkpt>
      <trkpt lat="48.80108" lon="2.49508">
        <ele>102.7</ele>
        <time>2015-04-27T20:04:10.932Z</time>
      </trkpt>
      <trkpt lat="48.80113" lon="2.49499">
        <ele>102.1</ele>
        <time>2015-04-27T20:04:11.939Z</time>
      </trkpt>
      <trkpt lat="48.80117" lon="2.49489">
        <ele>101.9</ele>
        <time>2015-04-27T20:04:12.901Z</time>
      </trkpt>
      <trkpt lat="48.80119" lon="2.49479">
        <ele>101.6</ele>
        <time>2015-04-27T20:04:13.883Z</time>
      </trkpt>
      <trkpt lat="48.80122" lon="2.4947">
        <ele>101.4</ele>
        <time>2015-04-27T20:04:14.899Z</time>
      </trkpt>
      <trkpt lat="48.80125" lon="2.49462">
        <ele>101</ele>
        <time>2015-04-27T20:04:15.911Z</time>
      </trkpt>
      <trkpt lat="48.8013" lon="2.49457">
        <ele>99.2</ele>
        <time>2015-04-27T20:04:16.927Z</time>
      </trkpt>
      <trkpt lat="48.80135" lon="2.4945">
        <ele>98.4</ele>
        <time>2015-04-27T20:04:17.935Z</time>
      </trkpt>
      <trkpt lat="48.80139" lon="2.49443">
        <ele>97.7</ele>
        <time>2015-04-27T20:04:18.948Z</time>
      </trkpt>
      <trkpt lat="48.80143" lon="2.49434">
        <ele>97.8</ele>
        <time>2015-04-27T20:04:19.960Z</time>
      </trkpt>
      <trkpt lat="48.80147" lon="2.49426">
        <ele>98.2</ele>
        <time>2015-04-27T20:04:20.967Z</time>
      </trkpt>
      <trkpt lat="48.8015" lon="2.49417">
        <ele>98.3</ele>
        <time>2015-04-27T20:04:21.918Z</time>
      </trkpt>
      <trkpt lat="48.80152" lon="2.49408">
        <ele>98.7</ele>
        <time>2015-04-27T20:04:22.943Z</time>
      </trkpt>
      <trkpt lat="48.80154" lon="2.49398">
        <ele>98.9</ele>
        <time>2015-04-27T20:04:23.953Z</time>
      </trkpt>
      <trkpt lat="48.80156" lon="2.49387">
        <ele>99</ele>
        <time>2015-04-27T20:04:24.972Z</time>
      </trkpt>
      <trkpt lat="48.80159" lon="2.49378">
        <ele>99.2</ele>
        <time>2015-04-27T20:04:25.984Z</time>
      </trkpt>
      <trkpt lat="48.80163" lon="2.49369">
        <ele>99.4</ele>
        <time>2015-04-27T20:04:26.993Z</time>
      </trkpt>
      <trkpt lat="48.80166" lon="2.4936">
        <ele>99.6</ele>
        <time>2015-04-27T20:04:28.021Z</time>
      </trkpt>
      <trkpt lat="48.8017" lon="2.49351">
        <ele>100</ele>
        <time>2015-04-27T20:04:28.905Z</time>
      </trkpt>
      <trkpt lat="48.80173" lon="2.49343">
        <ele>100.1</ele>
        <time>2015-04-27T20:04:29.925Z</time>
      </trkpt>
      <trkpt lat="48.80176" lon="2.49335">
        <ele>100.3</ele>
        <time>2015-04-27T20:04:30.941Z</time>
      </trkpt>
      <trkpt lat="48.80179" lon="2.49326">
        <ele>100.5</ele>
        <time>2015-04-27T20:04:31.946Z</time>
      </trkpt>
      <trkpt lat="48.80182" lon="2.49316">
        <ele>100.9</ele>
        <time>2015-04-27T20:04:32.965Z</time>
      </trkpt>
      <trkpt lat="48.80186" lon="2.49307">
        <ele>101.2</ele>
        <time>2015-04-27T20:04:33.966Z</time>
      </trkpt>
      <trkpt lat="48.80192" lon="2.49299">
        <ele>101.4</ele>
        <time>2015-04-27T20:04:34.980Z</time>
      </trkpt>
      <trkpt lat="48.80195" lon="2.49291">
        <ele>101.1</ele>
        <time>2015-04-27T20:04:35.894Z</time>
      </trkpt>
      <trkpt lat="48.80196" lon="2.49282">
        <ele>101.5</ele>
        <time>2015-04-27T20:04:36.895Z</time>
      </trkpt>
      <trkpt lat="48.80199" lon="2.49275">
        <ele>101.1</ele>
        <time>2015-04-27T20:04:37.912Z</time>
      </trkpt>
      <trkpt lat="48.80201" lon="2.49268">
        <ele>101.3</ele>
        <time>2015-04-27T20:04:38.929Z</time>
      </trkpt>
      <trkpt lat="48.80203" lon="2.4926">
        <ele>101.4</ele>
        <time>2015-04-27T20:04:39.945Z</time>
      </trkpt>
      <trkpt lat="48.80205" lon="2.49254">
        <ele>101.6</ele>
        <time>2015-04-27T20:04:40.958Z</time>
      </trkpt>
      <trkpt lat="48.80208" lon="2.49248">
        <ele>101.8</ele>
        <time>2015-04-27T20:04:41.978Z</time>
      </trkpt>
      <trkpt lat="48.80211" lon="2.49242">
        <ele>101.7</ele>
        <time>2015-04-27T20:04:42.868Z</time>
      </trkpt>
      <trkpt lat="48.80214" lon="2.49236">
        <ele>101.5</ele>
        <time>2015-04-27T20:04:43.932Z</time>
      </trkpt>
      <trkpt lat="48.80217" lon="2.4923">
        <ele>101.4</ele>
        <time>2015-04-27T20:04:44.945Z</time>
      </trkpt>
      <trkpt lat="48.80221" lon="2.49225">
        <ele>101.1</ele>
        <time>2015-04-27T20:04:45.978Z</time>
      </trkpt>
      <trkpt lat="48.80224" lon="2.4922">
        <ele>100.9</ele>
        <time>2015-04-27T20:04:46.994Z</time>
      </trkpt>
      <trkpt lat="48.80229" lon="2.4921">
        <ele>100.8</ele>
        <time>2015-04-27T20:04:48.913Z</time>
      </trkpt>
      <trkpt lat="48.80231" lon="2.49204">
        <ele>100.7</ele>
        <time>2015-04-27T20:04:50.037Z</time>
      </trkpt>
      <trkpt lat="48.80235" lon="2.49193">
        <ele>100.9</ele>
        <time>2015-04-27T20:04:51.907Z</time>
      </trkpt>
      <trkpt lat="48.80236" lon="2.49188">
        <ele>101.2</ele>
        <time>2015-04-27T20:04:52.960Z</time>
      </trkpt>
      <trkpt lat="48.80238" lon="2.49177">
        <ele>101.3</ele>
        <time>2015-04-27T20:04:54.985Z</time>
      </trkpt>
      <trkpt lat="48.80239" lon="2.49171">
        <ele>101.2</ele>
        <time>2015-04-27T20:04:55.929Z</time>
      </trkpt>
      <trkpt lat="48.80241" lon="2.4916">
        <ele>101.4</ele>
        <time>2015-04-27T20:04:57.930Z</time>
      </trkpt>
      <trkpt lat="48.8024" lon="2.49152">
        <ele>103.3</ele>
        <time>2015-04-27T20:04:59.014Z</time>
      </trkpt>
      <trkpt lat="48.80245" lon="2.49143">
        <ele>103.8</ele>
        <time>2015-04-27T20:05:00.946Z</time>
      </trkpt>
      <trkpt lat="48.80246" lon="2.49138">
        <ele>103.9</ele>
        <time>2015-04-27T20:05:02.007Z</time>
      </trkpt>
      <trkpt lat="48.8025" lon="2.49129">
        <ele>104.1</ele>
        <time>2015-04-27T20:05:04.002Z</time>
      </trkpt>
      <trkpt lat="48.80251" lon="2.49124">
        <ele>104.1</ele>
        <time>2015-04-27T20:05:04.901Z</time>
      </trkpt>
      <trkpt lat="48.80255" lon="2.49114">
        <ele>103.8</ele>
        <time>2015-04-27T20:05:06.932Z</time>
      </trkpt>
      <trkpt lat="48.80256" lon="2.49108">
        <ele>103.7</ele>
        <time>2015-04-27T20:05:07.969Z</time>
      </trkpt>
      <trkpt lat="48.8026" lon="2.49098">
        <ele>103.8</ele>
        <time>2015-04-27T20:05:09.910Z</time>
      </trkpt>
      <trkpt lat="48.80262" lon="2.49092">
        <ele>103.9</ele>
        <time>2015-04-27T20:05:10.917Z</time>
      </trkpt>
      <trkpt lat="48.80266" lon="2.49086">
        <ele>103.8</ele>
        <time>2015-04-27T20:05:11.969Z</time>
      </trkpt>
      <trkpt lat="48.80269" lon="2.49079">
        <ele>103.6</ele>
        <time>2015-04-27T20:05:12.879Z</time>
      </trkpt>
      <trkpt lat="48.80272" lon="2.49072">
        <ele>103.6</ele>
        <time>2015-04-27T20:05:13.897Z</time>
      </trkpt>
      <trkpt lat="48.80275" lon="2.49065">
        <ele>103.4</ele>
        <time>2015-04-27T20:05:14.916Z</time>
      </trkpt>
      <trkpt lat="48.80278" lon="2.49059">
        <ele>103.2</ele>
        <time>2015-04-27T20:05:15.954Z</time>
      </trkpt>
      <trkpt lat="48.80281" lon="2.49053">
        <ele>102.9</ele>
        <time>2015-04-27T20:05:16.965Z</time>
      </trkpt>
      <trkpt lat="48.80283" lon="2.49046">
        <ele>102.7</ele>
        <time>2015-04-27T20:05:17.894Z</time>
      </trkpt>
      <trkpt lat="48.80286" lon="2.4904">
        <ele>102.4</ele>
        <time>2015-04-27T20:05:18.903Z</time>
      </trkpt>
      <trkpt lat="48.8029" lon="2.49033">
        <ele>102.1</ele>
        <time>2015-04-27T20:05:19.937Z</time>
      </trkpt>
      <trkpt lat="48.80293" lon="2.49026">
        <ele>102.1</ele>
        <time>2015-04-27T20:05:20.969Z</time>
      </trkpt>
      <trkpt lat="48.80296" lon="2.49019">
        <ele>102.1</ele>
        <time>2015-04-27T20:05:21.980Z</time>
      </trkpt>
      <trkpt lat="48.80299" lon="2.49011">
        <ele>102.2</ele>
        <time>2015-04-27T20:05:22.996Z</time>
      </trkpt>
      <trkpt lat="48.80302" lon="2.49002">
        <ele>102.5</ele>
        <time>2015-04-27T20:05:23.907Z</time>
      </trkpt>
      <trkpt lat="48.80305" lon="2.48993">
        <ele>102.7</ele>
        <time>2015-04-27T20:05:24.943Z</time>
      </trkpt>
      <trkpt lat="48.80308" lon="2.48984">
        <ele>102.8</ele>
        <time>2015-04-27T20:05:25.933Z</time>
      </trkpt>
      <trkpt lat="48.80312" lon="2.48976">
        <ele>103</ele>
        <time>2015-04-27T20:05:27.004Z</time>
      </trkpt>
      <trkpt lat="48.80315" lon="2.48967">
        <ele>103.1</ele>
        <time>2015-04-27T20:05:28.115Z</time>
      </trkpt>
      <trkpt lat="48.80318" lon="2.48957">
        <ele>103.1</ele>
        <time>2015-04-27T20:05:28.956Z</time>
      </trkpt>
      <trkpt lat="48.80322" lon="2.48949">
        <ele>102.7</ele>
        <time>2015-04-27T20:05:29.922Z</time>
      </trkpt>
      <trkpt lat="48.80326" lon="2.48941">
        <ele>102.4</ele>
        <time>2015-04-27T20:05:30.906Z</time>
      </trkpt>
      <trkpt lat="48.80329" lon="2.48933">
        <ele>102</ele>
        <time>2015-04-27T20:05:31.939Z</time>
      </trkpt>
      <trkpt lat="48.80333" lon="2.48924">
        <ele>101.5</ele>
        <time>2015-04-27T20:05:33.008Z</time>
      </trkpt>
      <trkpt lat="48.80337" lon="2.48915">
        <ele>101.2</ele>
        <time>2015-04-27T20:05:34.035Z</time>
      </trkpt>
      <trkpt lat="48.80343" lon="2.48906">
        <ele>101</ele>
        <time>2015-04-27T20:05:34.921Z</time>
      </trkpt>
      <trkpt lat="48.80347" lon="2.48896">
        <ele>100.9</ele>
        <time>2015-04-27T20:05:35.957Z</time>
      </trkpt>
      <trkpt lat="48.8035" lon="2.48886">
        <ele>100.7</ele>
        <time>2015-04-27T20:05:36.965Z</time>
      </trkpt>
      <trkpt lat="48.80354" lon="2.48876">
        <ele>100.3</ele>
        <time>2015-04-27T20:05:37.879Z</time>
      </trkpt>
      <trkpt lat="48.80357" lon="2.48866">
        <ele>100</ele>
        <time>2015-04-27T20:05:38.917Z</time>
      </trkpt>
      <trkpt lat="48.80361" lon="2.48856">
        <ele>99.7</ele>
        <time>2015-04-27T20:05:39.933Z</time>
      </trkpt>
      <trkpt lat="48.80365" lon="2.48846">
        <ele>99.5</ele>
        <time>2015-04-27T20:05:40.871Z</time>
      </trkpt>
      <trkpt lat="48.8037" lon="2.48836">
        <ele>99</ele>
        <time>2015-04-27T20:05:41.885Z</time>
      </trkpt>
      <trkpt lat="48.80374" lon="2.48825">
        <ele>98.8</ele>
        <time>2015-04-27T20:05:42.890Z</time>
      </trkpt>
      <trkpt lat="48.80378" lon="2.48816">
        <ele>98.5</ele>
        <time>2015-04-27T20:05:43.907Z</time>
      </trkpt>
      <trkpt lat="48.80382" lon="2.48806">
        <ele>97.9</ele>
        <time>2015-04-27T20:05:44.912Z</time>
      </trkpt>
      <trkpt lat="48.80387" lon="2.48796">
        <ele>97.5</ele>
        <time>2015-04-27T20:05:45.922Z</time>
      </trkpt>
      <trkpt lat="48.8039" lon="2.48786">
        <ele>97.6</ele>
        <time>2015-04-27T20:05:46.942Z</time>
      </trkpt>
      <trkpt lat="48.80395" lon="2.48777">
        <ele>97.6</ele>
        <time>2015-04-27T20:05:47.966Z</time>
      </trkpt>
      <trkpt lat="48.804" lon="2.48768">
        <ele>97.7</ele>
        <time>2015-04-27T20:05:48.972Z</time>
      </trkpt>
      <trkpt lat="48.80405" lon="2.48759">
        <ele>97.3</ele>
        <time>2015-04-27T20:05:49.997Z</time>
      </trkpt>
      <trkpt lat="48.80408" lon="2.4875">
        <ele>97.1</ele>
        <time>2015-04-27T20:05:51.001Z</time>
      </trkpt>
      <trkpt lat="48.80411" lon="2.48741">
        <ele>96.9</ele>
        <time>2015-04-27T20:05:51.916Z</time>
      </trkpt>
      <trkpt lat="48.80413" lon="2.48733">
        <ele>96.9</ele>
        <time>2015-04-27T20:05:52.895Z</time>
      </trkpt>
      <trkpt lat="48.80415" lon="2.48725">
        <ele>96.7</ele>
        <time>2015-04-27T20:05:53.911Z</time>
      </trkpt>
      <trkpt lat="48.80418" lon="2.48718">
        <ele>96.5</ele>
        <time>2015-04-27T20:05:54.913Z</time>
      </trkpt>
      <trkpt lat="48.80421" lon="2.48709">
        <ele>96</ele>
        <time>2015-04-27T20:05:55.930Z</time>
      </trkpt>
      <trkpt lat="48.80423" lon="2.48701">
        <ele>96</ele>
        <time>2015-04-27T20:05:56.937Z</time>
      </trkpt>
      <trkpt lat="48.80425" lon="2.48692">
        <ele>96</ele>
        <time>2015-04-27T20:05:57.947Z</time>
      </trkpt>
      <trkpt lat="48.80428" lon="2.48685">
        <ele>96</ele>
        <time>2015-04-27T20:05:58.955Z</time>
      </trkpt>
      <trkpt lat="48.8043" lon="2.48678">
        <ele>96</ele>
        <time>2015-04-27T20:05:59.962Z</time>
      </trkpt>
      <trkpt lat="48.80432" lon="2.4867">
        <ele>95.9</ele>
        <time>2015-04-27T20:06:00.973Z</time>
      </trkpt>
      <trkpt lat="48.80435" lon="2.48663">
        <ele>96.2</ele>
        <time>2015-04-27T20:06:01.888Z</time>
      </trkpt>
      <trkpt lat="48.80436" lon="2.48656">
        <ele>96.3</ele>
        <time>2015-04-27T20:06:02.907Z</time>
      </trkpt>
      <trkpt lat="48.80437" lon="2.48647">
        <ele>96.2</ele>
        <time>2015-04-27T20:06:03.934Z</time>
      </trkpt>
      <trkpt lat="48.80437" lon="2.4864">
        <ele>96.3</ele>
        <time>2015-04-27T20:06:04.939Z</time>
      </trkpt>
      <trkpt lat="48.8044" lon="2.48629">
        <ele>96.7</ele>
        <time>2015-04-27T20:06:06.885Z</time>
      </trkpt>
      <trkpt lat="48.80442" lon="2.48624">
        <ele>97</ele>
        <time>2015-04-27T20:06:07.917Z</time>
      </trkpt>
      <trkpt lat="48.80446" lon="2.48615">
        <ele>97.3</ele>
        <time>2015-04-27T20:06:09.962Z</time>
      </trkpt>
      <trkpt lat="48.80448" lon="2.4861">
        <ele>97.2</ele>
        <time>2015-04-27T20:06:10.980Z</time>
      </trkpt>
      <trkpt lat="48.8045" lon="2.48597">
        <ele>97.8</ele>
        <time>2015-04-27T20:06:13.928Z</time>
      </trkpt>
      <trkpt lat="48.80452" lon="2.48593">
        <ele>98.1</ele>
        <time>2015-04-27T20:06:14.931Z</time>
      </trkpt>
      <trkpt lat="48.80457" lon="2.48584">
        <ele>97.8</ele>
        <time>2015-04-27T20:06:16.860Z</time>
      </trkpt>
      <trkpt lat="48.8046" lon="2.4858">
        <ele>98</ele>
        <time>2015-04-27T20:06:17.921Z</time>
      </trkpt>
      <trkpt lat="48.80464" lon="2.48576">
        <ele>97.7</ele>
        <time>2015-04-27T20:06:18.904Z</time>
      </trkpt>
      <trkpt lat="48.80468" lon="2.48572">
        <ele>97.8</ele>
        <time>2015-04-27T20:06:19.911Z</time>
      </trkpt>
      <trkpt lat="48.80476" lon="2.48566">
        <ele>97.7</ele>
        <time>2015-04-27T20:06:21.923Z</time>
      </trkpt>
      <trkpt lat="48.80479" lon="2.48562">
        <ele>97.4</ele>
        <time>2015-04-27T20:06:22.929Z</time>
      </trkpt>
      <trkpt lat="48.80486" lon="2.48557">
        <ele>97.5</ele>
        <time>2015-04-27T20:06:25.913Z</time>
      </trkpt>
      <trkpt lat="48.80488" lon="2.48558">
        <ele>96.8</ele>
        <time>2015-04-27T20:06:26.929Z</time>
      </trkpt>
      <trkpt lat="48.80494" lon="2.48555">
        <ele>99.1</ele>
        <time>2015-04-27T20:07:06.989Z</time>
      </trkpt>
      <trkpt lat="48.80496" lon="2.4855">
        <ele>99</ele>
        <time>2015-04-27T20:07:07.898Z</time>
      </trkpt>
      <trkpt lat="48.805" lon="2.48538">
        <ele>98.8</ele>
        <time>2015-04-27T20:07:09.911Z</time>
      </trkpt>
      <trkpt lat="48.80502" lon="2.48533">
        <ele>98.7</ele>
        <time>2015-04-27T20:07:10.919Z</time>
      </trkpt>
      <trkpt lat="48.80505" lon="2.48523">
        <ele>98.1</ele>
        <time>2015-04-27T20:07:12.938Z</time>
      </trkpt>
      <trkpt lat="48.80506" lon="2.48519">
        <ele>97.9</ele>
        <time>2015-04-27T20:07:13.958Z</time>
      </trkpt>
      <trkpt lat="48.80508" lon="2.48507">
        <ele>97.9</ele>
        <time>2015-04-27T20:07:16.891Z</time>
      </trkpt>
      <trkpt lat="48.8051" lon="2.48503">
        <ele>97.9</ele>
        <time>2015-04-27T20:07:17.907Z</time>
      </trkpt>
      <trkpt lat="48.80512" lon="2.48493">
        <ele>98.1</ele>
        <time>2015-04-27T20:07:20.107Z</time>
      </trkpt>
      <trkpt lat="48.80514" lon="2.48489">
        <ele>98.1</ele>
        <time>2015-04-27T20:07:20.940Z</time>
      </trkpt>
      <trkpt lat="48.80515" lon="2.48478">
        <ele>98.6</ele>
        <time>2015-04-27T20:07:22.958Z</time>
      </trkpt>
      <trkpt lat="48.80515" lon="2.48473">
        <ele>98.8</ele>
        <time>2015-04-27T20:07:23.897Z</time>
      </trkpt>
      <trkpt lat="48.80516" lon="2.48467">
        <ele>99</ele>
        <time>2015-04-27T20:07:24.924Z</time>
      </trkpt>
      <trkpt lat="48.80515" lon="2.48458">
        <ele>100.1</ele>
        <time>2015-04-27T20:07:25.948Z</time>
      </trkpt>
      <trkpt lat="48.80518" lon="2.48447">
        <ele>99.8</ele>
        <time>2015-04-27T20:07:27.979Z</time>
      </trkpt>
      <trkpt lat="48.8052" lon="2.48442">
        <ele>99.6</ele>
        <time>2015-04-27T20:07:28.992Z</time>
      </trkpt>
      <trkpt lat="48.80523" lon="2.48431">
        <ele>99.1</ele>
        <time>2015-04-27T20:07:31.617Z</time>
      </trkpt>
      <trkpt lat="48.80525" lon="2.48426">
        <ele>98.8</ele>
        <time>2015-04-27T20:07:31.910Z</time>
      </trkpt>
      <trkpt lat="48.80529" lon="2.48415">
        <ele>98.1</ele>
        <time>2015-04-27T20:07:33.950Z</time>
      </trkpt>
      <trkpt lat="48.80531" lon="2.4841">
        <ele>97.9</ele>
        <time>2015-04-27T20:07:34.998Z</time>
      </trkpt>
      <trkpt lat="48.80533" lon="2.48401">
        <ele>97.8</ele>
        <time>2015-04-27T20:07:36.892Z</time>
      </trkpt>
      <trkpt lat="48.80534" lon="2.48397">
        <ele>97.8</ele>
        <time>2015-04-27T20:07:37.895Z</time>
      </trkpt>
      <trkpt lat="48.80539" lon="2.48385">
        <ele>97.7</ele>
        <time>2015-04-27T20:10:43.935Z</time>
      </trkpt>
      <trkpt lat="48.8054" lon="2.48385">
        <ele>94.5</ele>
        <time>2015-04-27T20:10:44.983Z</time>
      </trkpt>
      <trkpt lat="48.80538" lon="2.48375">
        <ele>94.8</ele>
        <time>2015-04-27T20:10:47.918Z</time>
      </trkpt>
      <trkpt lat="48.80537" lon="2.48371">
        <ele>94.8</ele>
        <time>2015-04-27T20:10:48.911Z</time>
      </trkpt>
      <trkpt lat="48.80537" lon="2.48358">
        <ele>94.9</ele>
        <time>2015-04-27T20:10:51.986Z</time>
      </trkpt>
      <trkpt lat="48.80537" lon="2.48352">
        <ele>95</ele>
        <time>2015-04-27T20:10:52.996Z</time>
      </trkpt>
      <trkpt lat="48.8054" lon="2.4834">
        <ele>95</ele>
        <time>2015-04-27T20:10:55.010Z</time>
      </trkpt>
      <trkpt lat="48.80541" lon="2.48332">
        <ele>94.9</ele>
        <time>2015-04-27T20:10:55.921Z</time>
      </trkpt>
      <trkpt lat="48.80542" lon="2.48324">
        <ele>94.7</ele>
        <time>2015-04-27T20:10:56.937Z</time>
      </trkpt>
      <trkpt lat="48.80543" lon="2.48315">
        <ele>94.5</ele>
        <time>2015-04-27T20:10:58.000Z</time>
      </trkpt>
      <trkpt lat="48.80544" lon="2.48307">
        <ele>94.3</ele>
        <time>2015-04-27T20:10:58.921Z</time>
      </trkpt>
      <trkpt lat="48.80547" lon="2.483">
        <ele>94.3</ele>
        <time>2015-04-27T20:10:59.929Z</time>
      </trkpt>
      <trkpt lat="48.80548" lon="2.48293">
        <ele>94.2</ele>
        <time>2015-04-27T20:11:00.948Z</time>
      </trkpt>
      <trkpt lat="48.8055" lon="2.48285">
        <ele>94.1</ele>
        <time>2015-04-27T20:11:01.960Z</time>
      </trkpt>
      <trkpt lat="48.80551" lon="2.48276">
        <ele>94.3</ele>
        <time>2015-04-27T20:11:02.992Z</time>
      </trkpt>
      <trkpt lat="48.80553" lon="2.48269">
        <ele>94.5</ele>
        <time>2015-04-27T20:11:04.006Z</time>
      </trkpt>
      <trkpt lat="48.80555" lon="2.48261">
        <ele>94.5</ele>
        <time>2015-04-27T20:11:04.923Z</time>
      </trkpt>
      <trkpt lat="48.80557" lon="2.48253">
        <ele>94.2</ele>
        <time>2015-04-27T20:11:05.928Z</time>
      </trkpt>
      <trkpt lat="48.80557" lon="2.48245">
        <ele>94</ele>
        <time>2015-04-27T20:11:07.003Z</time>
      </trkpt>
      <trkpt lat="48.8056" lon="2.48238">
        <ele>94.1</ele>
        <time>2015-04-27T20:11:07.888Z</time>
      </trkpt>
      <trkpt lat="48.80561" lon="2.48229">
        <ele>94.3</ele>
        <time>2015-04-27T20:11:08.903Z</time>
      </trkpt>
      <trkpt lat="48.80561" lon="2.48221">
        <ele>94.4</ele>
        <time>2015-04-27T20:11:09.907Z</time>
      </trkpt>
      <trkpt lat="48.80561" lon="2.48212">
        <ele>94.5</ele>
        <time>2015-04-27T20:11:10.928Z</time>
      </trkpt>
      <trkpt lat="48.80561" lon="2.48204">
        <ele>94.8</ele>
        <time>2015-04-27T20:11:11.926Z</time>
      </trkpt>
      <trkpt lat="48.80561" lon="2.48196">
        <ele>95</ele>
        <time>2015-04-27T20:11:13.169Z</time>
      </trkpt>
      <trkpt lat="48.80563" lon="2.48188">
        <ele>95.1</ele>
        <time>2015-04-27T20:11:13.960Z</time>
      </trkpt>
      <trkpt lat="48.80564" lon="2.48181">
        <ele>95.2</ele>
        <time>2015-04-27T20:11:14.969Z</time>
      </trkpt>
      <trkpt lat="48.80566" lon="2.48173">
        <ele>95.1</ele>
        <time>2015-04-27T20:11:16.106Z</time>
      </trkpt>
      <trkpt lat="48.80567" lon="2.48166">
        <ele>95.2</ele>
        <time>2015-04-27T20:11:16.895Z</time>
      </trkpt>
      <trkpt lat="48.80573" lon="2.48157">
        <ele>95.9</ele>
        <time>2015-04-27T20:11:17.904Z</time>
      </trkpt>
      <trkpt lat="48.80581" lon="2.48148">
        <ele>96.9</ele>
        <time>2015-04-27T20:11:18.920Z</time>
      </trkpt>
      <trkpt lat="48.80584" lon="2.48141">
        <ele>97.1</ele>
        <time>2015-04-27T20:11:19.935Z</time>
      </trkpt>
      <trkpt lat="48.80585" lon="2.48133">
        <ele>97.3</ele>
        <time>2015-04-27T20:11:20.947Z</time>
      </trkpt>
      <trkpt lat="48.80587" lon="2.48124">
        <ele>97.5</ele>
        <time>2015-04-27T20:11:21.983Z</time>
      </trkpt>
      <trkpt lat="48.8059" lon="2.48118">
        <ele>97.5</ele>
        <time>2015-04-27T20:11:22.905Z</time>
      </trkpt>
      <trkpt lat="48.80593" lon="2.48105">
        <ele>97.5</ele>
        <time>2015-04-27T20:11:24.964Z</time>
      </trkpt>
      <trkpt lat="48.80594" lon="2.48097">
        <ele>97.3</ele>
        <time>2015-04-27T20:11:25.897Z</time>
      </trkpt>
      <trkpt lat="48.80595" lon="2.48089">
        <ele>97.4</ele>
        <time>2015-04-27T20:11:26.912Z</time>
      </trkpt>
      <trkpt lat="48.80597" lon="2.48082">
        <ele>97.3</ele>
        <time>2015-04-27T20:11:27.922Z</time>
      </trkpt>
      <trkpt lat="48.80599" lon="2.48075">
        <ele>97.4</ele>
        <time>2015-04-27T20:11:28.935Z</time>
      </trkpt>
      <trkpt lat="48.806" lon="2.48067">
        <ele>97.4</ele>
        <time>2015-04-27T20:11:29.935Z</time>
      </trkpt>
      <trkpt lat="48.806" lon="2.4806">
        <ele>97.3</ele>
        <time>2015-04-27T20:11:30.864Z</time>
      </trkpt>
      <trkpt lat="48.80599" lon="2.48051">
        <ele>97.6</ele>
        <time>2015-04-27T20:11:31.876Z</time>
      </trkpt>
      <trkpt lat="48.806" lon="2.48042">
        <ele>97.4</ele>
        <time>2015-04-27T20:11:32.883Z</time>
      </trkpt>
      <trkpt lat="48.80601" lon="2.48034">
        <ele>97.2</ele>
        <time>2015-04-27T20:11:33.891Z</time>
      </trkpt>
      <trkpt lat="48.80602" lon="2.48026">
        <ele>97</ele>
        <time>2015-04-27T20:11:34.900Z</time>
      </trkpt>
      <trkpt lat="48.80605" lon="2.48019">
        <ele>96.9</ele>
        <time>2015-04-27T20:11:35.926Z</time>
      </trkpt>
      <trkpt lat="48.80608" lon="2.48013">
        <ele>96.7</ele>
        <time>2015-04-27T20:11:36.936Z</time>
      </trkpt>
      <trkpt lat="48.80612" lon="2.48006">
        <ele>96.5</ele>
        <time>2015-04-27T20:11:37.846Z</time>
      </trkpt>
      <trkpt lat="48.80617" lon="2.47999">
        <ele>96.2</ele>
        <time>2015-04-27T20:11:38.898Z</time>
      </trkpt>
      <trkpt lat="48.80621" lon="2.47991">
        <ele>95.6</ele>
        <time>2015-04-27T20:11:39.913Z</time>
      </trkpt>
      <trkpt lat="48.80624" lon="2.47984">
        <ele>95.4</ele>
        <time>2015-04-27T20:11:40.921Z</time>
      </trkpt>
      <trkpt lat="48.80627" lon="2.47976">
        <ele>95.3</ele>
        <time>2015-04-27T20:11:41.929Z</time>
      </trkpt>
      <trkpt lat="48.8063" lon="2.47969">
        <ele>94.9</ele>
        <time>2015-04-27T20:11:42.938Z</time>
      </trkpt>
      <trkpt lat="48.80634" lon="2.47963">
        <ele>94.6</ele>
        <time>2015-04-27T20:11:43.942Z</time>
      </trkpt>
      <trkpt lat="48.80636" lon="2.47955">
        <ele>94</ele>
        <time>2015-04-27T20:11:44.951Z</time>
      </trkpt>
      <trkpt lat="48.80638" lon="2.47947">
        <ele>93.7</ele>
        <time>2015-04-27T20:11:45.964Z</time>
      </trkpt>
      <trkpt lat="48.80641" lon="2.47939">
        <ele>93.3</ele>
        <time>2015-04-27T20:11:46.981Z</time>
      </trkpt>
      <trkpt lat="48.80643" lon="2.47931">
        <ele>93.2</ele>
        <time>2015-04-27T20:11:47.901Z</time>
      </trkpt>
      <trkpt lat="48.80645" lon="2.47921">
        <ele>93</ele>
        <time>2015-04-27T20:11:48.898Z</time>
      </trkpt>
      <trkpt lat="48.80646" lon="2.47913">
        <ele>93</ele>
        <time>2015-04-27T20:11:49.904Z</time>
      </trkpt>
      <trkpt lat="48.80647" lon="2.47905">
        <ele>92.8</ele>
        <time>2015-04-27T20:11:50.905Z</time>
      </trkpt>
      <trkpt lat="48.80649" lon="2.47897">
        <ele>92.8</ele>
        <time>2015-04-27T20:11:51.938Z</time>
      </trkpt>
      <trkpt lat="48.80651" lon="2.47888">
        <ele>92.9</ele>
        <time>2015-04-27T20:11:52.945Z</time>
      </trkpt>
      <trkpt lat="48.80653" lon="2.4788">
        <ele>92.7</ele>
        <time>2015-04-27T20:11:53.953Z</time>
      </trkpt>
      <trkpt lat="48.8066" lon="2.47875">
        <ele>92</ele>
        <time>2015-04-27T20:11:54.967Z</time>
      </trkpt>
      <trkpt lat="48.80663" lon="2.47867">
        <ele>91.6</ele>
        <time>2015-04-27T20:11:55.897Z</time>
      </trkpt>
      <trkpt lat="48.80665" lon="2.47859">
        <ele>91.4</ele>
        <time>2015-04-27T20:11:56.910Z</time>
      </trkpt>
      <trkpt lat="48.80667" lon="2.4785">
        <ele>91</ele>
        <time>2015-04-27T20:11:57.934Z</time>
      </trkpt>
      <trkpt lat="48.80669" lon="2.47841">
        <ele>90.5</ele>
        <time>2015-04-27T20:11:58.952Z</time>
      </trkpt>
      <trkpt lat="48.80671" lon="2.47832">
        <ele>90</ele>
        <time>2015-04-27T20:11:59.957Z</time>
      </trkpt>
      <trkpt lat="48.80674" lon="2.47825">
        <ele>89.6</ele>
        <time>2015-04-27T20:12:00.900Z</time>
      </trkpt>
      <trkpt lat="48.80675" lon="2.47815">
        <ele>89.4</ele>
        <time>2015-04-27T20:12:01.902Z</time>
      </trkpt>
      <trkpt lat="48.80678" lon="2.47807">
        <ele>89.2</ele>
        <time>2015-04-27T20:12:02.916Z</time>
      </trkpt>
      <trkpt lat="48.80681" lon="2.47799">
        <ele>89</ele>
        <time>2015-04-27T20:12:03.966Z</time>
      </trkpt>
      <trkpt lat="48.80682" lon="2.4779">
        <ele>89.3</ele>
        <time>2015-04-27T20:12:04.968Z</time>
      </trkpt>
      <trkpt lat="48.80684" lon="2.47781">
        <ele>89.7</ele>
        <time>2015-04-27T20:12:05.980Z</time>
      </trkpt>
      <trkpt lat="48.80686" lon="2.47773">
        <ele>89.5</ele>
        <time>2015-04-27T20:12:06.891Z</time>
      </trkpt>
      <trkpt lat="48.80688" lon="2.47765">
        <ele>89.2</ele>
        <time>2015-04-27T20:12:07.892Z</time>
      </trkpt>
      <trkpt lat="48.80688" lon="2.47754">
        <ele>89.5</ele>
        <time>2015-04-27T20:12:08.917Z</time>
      </trkpt>
      <trkpt lat="48.80688" lon="2.47745">
        <ele>89.4</ele>
        <time>2015-04-27T20:12:09.979Z</time>
      </trkpt>
      <trkpt lat="48.80688" lon="2.47737">
        <ele>89.5</ele>
        <time>2015-04-27T20:12:10.967Z</time>
      </trkpt>
      <trkpt lat="48.80688" lon="2.47727">
        <ele>89.5</ele>
        <time>2015-04-27T20:12:11.984Z</time>
      </trkpt>
      <trkpt lat="48.80688" lon="2.47717">
        <ele>89.3</ele>
        <time>2015-04-27T20:12:12.894Z</time>
      </trkpt>
      <trkpt lat="48.80688" lon="2.47707">
        <ele>89.4</ele>
        <time>2015-04-27T20:12:13.867Z</time>
      </trkpt>
      <trkpt lat="48.80687" lon="2.47696">
        <ele>88.9</ele>
        <time>2015-04-27T20:12:14.977Z</time>
      </trkpt>
      <trkpt lat="48.80687" lon="2.47686">
        <ele>89.3</ele>
        <time>2015-04-27T20:12:15.984Z</time>
      </trkpt>
      <trkpt lat="48.80687" lon="2.47676">
        <ele>89.4</ele>
        <time>2015-04-27T20:12:16.899Z</time>
      </trkpt>
      <trkpt lat="48.80689" lon="2.47665">
        <ele>89.5</ele>
        <time>2015-04-27T20:12:17.915Z</time>
      </trkpt>
      <trkpt lat="48.80691" lon="2.47656">
        <ele>89.6</ele>
        <time>2015-04-27T20:12:18.928Z</time>
      </trkpt>
      <trkpt lat="48.80693" lon="2.47647">
        <ele>89.7</ele>
        <time>2015-04-27T20:12:19.981Z</time>
      </trkpt>
      <trkpt lat="48.80696" lon="2.47637">
        <ele>89.7</ele>
        <time>2015-04-27T20:12:20.998Z</time>
      </trkpt>
      <trkpt lat="48.80699" lon="2.47629">
        <ele>89.5</ele>
        <time>2015-04-27T20:12:21.996Z</time>
      </trkpt>
      <trkpt lat="48.80703" lon="2.47621">
        <ele>89.3</ele>
        <time>2015-04-27T20:12:22.901Z</time>
      </trkpt>
      <trkpt lat="48.80706" lon="2.47612">
        <ele>89.5</ele>
        <time>2015-04-27T20:12:23.903Z</time>
      </trkpt>
      <trkpt lat="48.8071" lon="2.47605">
        <ele>89</ele>
        <time>2015-04-27T20:12:24.898Z</time>
      </trkpt>
      <trkpt lat="48.80714" lon="2.47597">
        <ele>88.6</ele>
        <time>2015-04-27T20:12:25.910Z</time>
      </trkpt>
      <trkpt lat="48.80717" lon="2.47588">
        <ele>88.4</ele>
        <time>2015-04-27T20:12:26.923Z</time>
      </trkpt>
      <trkpt lat="48.80719" lon="2.4758">
        <ele>88.2</ele>
        <time>2015-04-27T20:12:27.932Z</time>
      </trkpt>
      <trkpt lat="48.80723" lon="2.47573">
        <ele>87.9</ele>
        <time>2015-04-27T20:12:28.949Z</time>
      </trkpt>
      <trkpt lat="48.80725" lon="2.47565">
        <ele>87.9</ele>
        <time>2015-04-27T20:12:29.952Z</time>
      </trkpt>
      <trkpt lat="48.80726" lon="2.47556">
        <ele>88</ele>
        <time>2015-04-27T20:12:30.964Z</time>
      </trkpt>
      <trkpt lat="48.80727" lon="2.47548">
        <ele>88.1</ele>
        <time>2015-04-27T20:12:31.969Z</time>
      </trkpt>
      <trkpt lat="48.80727" lon="2.47539">
        <ele>88.3</ele>
        <time>2015-04-27T20:12:32.982Z</time>
      </trkpt>
      <trkpt lat="48.80728" lon="2.47531">
        <ele>88.3</ele>
        <time>2015-04-27T20:12:33.989Z</time>
      </trkpt>
      <trkpt lat="48.8073" lon="2.47523">
        <ele>88.8</ele>
        <time>2015-04-27T20:12:34.894Z</time>
      </trkpt>
      <trkpt lat="48.80732" lon="2.47514">
        <ele>88.8</ele>
        <time>2015-04-27T20:12:35.901Z</time>
      </trkpt>
      <trkpt lat="48.80734" lon="2.47506">
        <ele>89.2</ele>
        <time>2015-04-27T20:12:36.902Z</time>
      </trkpt>
      <trkpt lat="48.80736" lon="2.47498">
        <ele>89.9</ele>
        <time>2015-04-27T20:12:37.910Z</time>
      </trkpt>
      <trkpt lat="48.80737" lon="2.47489">
        <ele>90.6</ele>
        <time>2015-04-27T20:12:38.921Z</time>
      </trkpt>
      <trkpt lat="48.80738" lon="2.4748">
        <ele>91.2</ele>
        <time>2015-04-27T20:12:39.932Z</time>
      </trkpt>
      <trkpt lat="48.8074" lon="2.47471">
        <ele>91.6</ele>
        <time>2015-04-27T20:12:40.941Z</time>
      </trkpt>
      <trkpt lat="48.80741" lon="2.47463">
        <ele>91.8</ele>
        <time>2015-04-27T20:12:41.980Z</time>
      </trkpt>
      <trkpt lat="48.80743" lon="2.47454">
        <ele>92.5</ele>
        <time>2015-04-27T20:12:42.894Z</time>
      </trkpt>
      <trkpt lat="48.80743" lon="2.47446">
        <ele>93.1</ele>
        <time>2015-04-27T20:12:43.899Z</time>
      </trkpt>
      <trkpt lat="48.80744" lon="2.47438">
        <ele>93.3</ele>
        <time>2015-04-27T20:12:44.918Z</time>
      </trkpt>
      <trkpt lat="48.80746" lon="2.47431">
        <ele>93.8</ele>
        <time>2015-04-27T20:12:45.925Z</time>
      </trkpt>
      <trkpt lat="48.80748" lon="2.47424">
        <ele>94.3</ele>
        <time>2015-04-27T20:12:46.931Z</time>
      </trkpt>
      <trkpt lat="48.8075" lon="2.47417">
        <ele>94.5</ele>
        <time>2015-04-27T20:12:47.936Z</time>
      </trkpt>
      <trkpt lat="48.80751" lon="2.47409">
        <ele>94.9</ele>
        <time>2015-04-27T20:12:48.995Z</time>
      </trkpt>
      <trkpt lat="48.80752" lon="2.47402">
        <ele>95.2</ele>
        <time>2015-04-27T20:12:49.974Z</time>
      </trkpt>
      <trkpt lat="48.80754" lon="2.47395">
        <ele>95.7</ele>
        <time>2015-04-27T20:12:50.990Z</time>
      </trkpt>
      <trkpt lat="48.80756" lon="2.47388">
        <ele>96.3</ele>
        <time>2015-04-27T20:12:51.996Z</time>
      </trkpt>
      <trkpt lat="48.80758" lon="2.47382">
        <ele>96.7</ele>
        <time>2015-04-27T20:12:52.899Z</time>
      </trkpt>
      <trkpt lat="48.8076" lon="2.47376">
        <ele>97.1</ele>
        <time>2015-04-27T20:12:53.906Z</time>
      </trkpt>
      <trkpt lat="48.80764" lon="2.47371">
        <ele>97.3</ele>
        <time>2015-04-27T20:12:54.919Z</time>
      </trkpt>
      <trkpt lat="48.80768" lon="2.47367">
        <ele>97.7</ele>
        <time>2015-04-27T20:12:55.932Z</time>
      </trkpt>
      <trkpt lat="48.80772" lon="2.47362">
        <ele>98.5</ele>
        <time>2015-04-27T20:12:56.963Z</time>
      </trkpt>
      <trkpt lat="48.80776" lon="2.47358">
        <ele>98.9</ele>
        <time>2015-04-27T20:12:57.973Z</time>
      </trkpt>
      <trkpt lat="48.80784" lon="2.47352">
        <ele>99.3</ele>
        <time>2015-04-27T20:12:59.900Z</time>
      </trkpt>
      <trkpt lat="48.8079" lon="2.47349">
        <ele>99.5</ele>
        <time>2015-04-27T20:13:00.916Z</time>
      </trkpt>
      <trkpt lat="48.80795" lon="2.47346">
        <ele>99.4</ele>
        <time>2015-04-27T20:13:01.930Z</time>
      </trkpt>
      <trkpt lat="48.808" lon="2.47342">
        <ele>99.4</ele>
        <time>2015-04-27T20:13:02.945Z</time>
      </trkpt>
      <trkpt lat="48.80805" lon="2.4734">
        <ele>99.7</ele>
        <time>2015-04-27T20:13:03.949Z</time>
      </trkpt>
      <trkpt lat="48.80811" lon="2.47336">
        <ele>100</ele>
        <time>2015-04-27T20:13:04.896Z</time>
      </trkpt>
      <trkpt lat="48.80817" lon="2.47333">
        <ele>100.5</ele>
        <time>2015-04-27T20:13:05.917Z</time>
      </trkpt>
      <trkpt lat="48.80821" lon="2.4733">
        <ele>100.9</ele>
        <time>2015-04-27T20:13:06.928Z</time>
      </trkpt>
      <trkpt lat="48.80826" lon="2.47328">
        <ele>101</ele>
        <time>2015-04-27T20:13:07.940Z</time>
      </trkpt>
      <trkpt lat="48.8083" lon="2.47325">
        <ele>101.2</ele>
        <time>2015-04-27T20:13:08.945Z</time>
      </trkpt>
      <trkpt lat="48.80836" lon="2.47321">
        <ele>101.3</ele>
        <time>2015-04-27T20:13:09.972Z</time>
      </trkpt>
      <trkpt lat="48.80841" lon="2.47316">
        <ele>101.5</ele>
        <time>2015-04-27T20:13:10.981Z</time>
      </trkpt>
      <trkpt lat="48.80845" lon="2.47311">
        <ele>101.5</ele>
        <time>2015-04-27T20:13:11.900Z</time>
      </trkpt>
      <trkpt lat="48.80848" lon="2.47306">
        <ele>101.7</ele>
        <time>2015-04-27T20:13:12.870Z</time>
      </trkpt>
      <trkpt lat="48.80852" lon="2.47301">
        <ele>101.6</ele>
        <time>2015-04-27T20:13:13.881Z</time>
      </trkpt>
      <trkpt lat="48.80856" lon="2.47296">
        <ele>101.7</ele>
        <time>2015-04-27T20:13:14.912Z</time>
      </trkpt>
      <trkpt lat="48.80862" lon="2.4729">
        <ele>101.7</ele>
        <time>2015-04-27T20:13:15.936Z</time>
      </trkpt>
      <trkpt lat="48.80868" lon="2.47284">
        <ele>101.7</ele>
        <time>2015-04-27T20:13:16.932Z</time>
      </trkpt>
      <trkpt lat="48.80873" lon="2.47278">
        <ele>101.7</ele>
        <time>2015-04-27T20:13:17.946Z</time>
      </trkpt>
      <trkpt lat="48.80877" lon="2.47273">
        <ele>101.4</ele>
        <time>2015-04-27T20:13:18.969Z</time>
      </trkpt>
      <trkpt lat="48.80882" lon="2.47267">
        <ele>101.4</ele>
        <time>2015-04-27T20:13:19.972Z</time>
      </trkpt>
      <trkpt lat="48.80886" lon="2.47261">
        <ele>101.3</ele>
        <time>2015-04-27T20:13:20.978Z</time>
      </trkpt>
      <trkpt lat="48.80889" lon="2.47256">
        <ele>101.2</ele>
        <time>2015-04-27T20:13:21.983Z</time>
      </trkpt>
      <trkpt lat="48.80893" lon="2.4725">
        <ele>101</ele>
        <time>2015-04-27T20:13:22.891Z</time>
      </trkpt>
      <trkpt lat="48.80898" lon="2.47244">
        <ele>100.5</ele>
        <time>2015-04-27T20:13:23.897Z</time>
      </trkpt>
      <trkpt lat="48.80902" lon="2.47238">
        <ele>100.1</ele>
        <time>2015-04-27T20:13:24.898Z</time>
      </trkpt>
      <trkpt lat="48.80906" lon="2.47233">
        <ele>100</ele>
        <time>2015-04-27T20:13:25.907Z</time>
      </trkpt>
      <trkpt lat="48.80911" lon="2.47228">
        <ele>100</ele>
        <time>2015-04-27T20:13:26.932Z</time>
      </trkpt>
      <trkpt lat="48.80916" lon="2.47223">
        <ele>100</ele>
        <time>2015-04-27T20:13:27.951Z</time>
      </trkpt>
      <trkpt lat="48.80918" lon="2.47218">
        <ele>100.1</ele>
        <time>2015-04-27T20:13:28.957Z</time>
      </trkpt>
      <trkpt lat="48.8092" lon="2.47212">
        <ele>100</ele>
        <time>2015-04-27T20:13:29.960Z</time>
      </trkpt>
      <trkpt lat="48.80925" lon="2.47207">
        <ele>100.2</ele>
        <time>2015-04-27T20:13:30.966Z</time>
      </trkpt>
      <trkpt lat="48.80929" lon="2.47202">
        <ele>100.3</ele>
        <time>2015-04-27T20:13:31.981Z</time>
      </trkpt>
      <trkpt lat="48.80932" lon="2.47197">
        <ele>100.4</ele>
        <time>2015-04-27T20:13:32.993Z</time>
      </trkpt>
      <trkpt lat="48.80936" lon="2.47193">
        <ele>100.1</ele>
        <time>2015-04-27T20:13:34.003Z</time>
      </trkpt>
      <trkpt lat="48.80941" lon="2.47188">
        <ele>99.7</ele>
        <time>2015-04-27T20:13:34.906Z</time>
      </trkpt>
      <trkpt lat="48.80946" lon="2.47184">
        <ele>99.7</ele>
        <time>2015-04-27T20:13:35.917Z</time>
      </trkpt>
      <trkpt lat="48.80951" lon="2.47179">
        <ele>99.7</ele>
        <time>2015-04-27T20:13:36.925Z</time>
      </trkpt>
      <trkpt lat="48.80958" lon="2.47171">
        <ele>100</ele>
        <time>2015-04-27T20:13:38.961Z</time>
      </trkpt>
      <trkpt lat="48.80962" lon="2.47168">
        <ele>100.2</ele>
        <time>2015-04-27T20:13:39.992Z</time>
      </trkpt>
      <trkpt lat="48.80966" lon="2.47164">
        <ele>100</ele>
        <time>2015-04-27T20:13:40.892Z</time>
      </trkpt>
      <trkpt lat="48.8097" lon="2.47158">
        <ele>99.6</ele>
        <time>2015-04-27T20:13:41.876Z</time>
      </trkpt>
      <trkpt lat="48.80976" lon="2.47152">
        <ele>98.5</ele>
        <time>2015-04-27T20:13:43.940Z</time>
      </trkpt>
      <trkpt lat="48.80979" lon="2.47149">
        <ele>98</ele>
        <time>2015-04-27T20:13:44.944Z</time>
      </trkpt>
      <trkpt lat="48.80981" lon="2.47141">
        <ele>97.3</ele>
        <time>2015-04-27T20:13:47.000Z</time>
      </trkpt>
      <trkpt lat="48.80984" lon="2.47137">
        <ele>97.6</ele>
        <time>2015-04-27T20:13:47.866Z</time>
      </trkpt>
      <trkpt lat="48.80987" lon="2.47126">
        <ele>97.9</ele>
        <time>2015-04-27T20:13:50.947Z</time>
      </trkpt>
      <trkpt lat="48.80989" lon="2.47122">
        <ele>98.2</ele>
        <time>2015-04-27T20:13:51.901Z</time>
      </trkpt>
      <trkpt lat="48.80994" lon="2.47113">
        <ele>99.3</ele>
        <time>2015-04-27T20:13:55.954Z</time>
      </trkpt>
      <trkpt lat="48.80995" lon="2.47111">
        <ele>99.7</ele>
        <time>2015-04-27T20:13:56.942Z</time>
      </trkpt>
      <trkpt lat="48.80995" lon="2.47105">
        <ele>102.2</ele>
        <time>2015-04-27T20:14:57.059Z</time>
      </trkpt>
      <trkpt lat="48.80989" lon="2.47073">
        <ele>119.1</ele>
        <time>2015-04-27T20:14:57.938Z</time>
      </trkpt>
      <trkpt lat="48.8099" lon="2.47067">
        <ele>119.5</ele>
        <time>2015-04-27T20:15:06.003Z</time>
      </trkpt>
      <trkpt lat="48.80992" lon="2.4705">
        <ele>119</ele>
        <time>2015-04-27T20:15:06.997Z</time>
      </trkpt>
      <trkpt lat="48.80999" lon="2.47045">
        <ele>118.1</ele>
        <time>2015-04-27T20:15:10.952Z</time>
      </trkpt>
      <trkpt lat="48.81001" lon="2.47044">
        <ele>117.6</ele>
        <time>2015-04-27T20:15:11.937Z</time>
      </trkpt>
      <trkpt lat="48.81005" lon="2.47041">
        <ele>117</ele>
        <time>2015-04-27T20:17:44.914Z</time>
      </trkpt>
      <trkpt lat="48.81021" lon="2.47034">
        <ele>121.7</ele>
        <time>2015-04-27T20:17:45.924Z</time>
      </trkpt>
      <trkpt lat="48.81028" lon="2.47032">
        <ele>120.7</ele>
        <time>2015-04-27T20:17:48.908Z</time>
      </trkpt>
      <trkpt lat="48.8103" lon="2.4703">
        <ele>120.2</ele>
        <time>2015-04-27T20:17:49.948Z</time>
      </trkpt>
      <trkpt lat="48.81035" lon="2.47022">
        <ele>119.6</ele>
        <time>2015-04-27T20:17:52.940Z</time>
      </trkpt>
      <trkpt lat="48.81036" lon="2.47019">
        <ele>119.4</ele>
        <time>2015-04-27T20:17:53.949Z</time>
      </trkpt>
      <trkpt lat="48.81042" lon="2.47011">
        <ele>118.7</ele>
        <time>2015-04-27T20:17:56.960Z</time>
      </trkpt>
      <trkpt lat="48.81044" lon="2.47008">
        <ele>118.5</ele>
        <time>2015-04-27T20:17:58.001Z</time>
      </trkpt>
      <trkpt lat="48.81048" lon="2.47002">
        <ele>118.6</ele>
        <time>2015-04-27T20:17:59.932Z</time>
      </trkpt>
      <trkpt lat="48.81051" lon="2.46998">
        <ele>118.3</ele>
        <time>2015-04-27T20:18:00.872Z</time>
      </trkpt>
      <trkpt lat="48.81055" lon="2.46989">
        <ele>118.4</ele>
        <time>2015-04-27T20:18:02.909Z</time>
      </trkpt>
      <trkpt lat="48.81058" lon="2.46986">
        <ele>118.5</ele>
        <time>2015-04-27T20:18:03.915Z</time>
      </trkpt>
      <trkpt lat="48.81063" lon="2.46979">
        <ele>118.2</ele>
        <time>2015-04-27T20:18:05.868Z</time>
      </trkpt>
      <trkpt lat="48.81065" lon="2.46976">
        <ele>118.2</ele>
        <time>2015-04-27T20:18:06.906Z</time>
      </trkpt>
      <trkpt lat="48.81068" lon="2.46968">
        <ele>118.2</ele>
        <time>2015-04-27T20:18:08.920Z</time>
      </trkpt>
      <trkpt lat="48.81071" lon="2.46963">
        <ele>118</ele>
        <time>2015-04-27T20:18:09.926Z</time>
      </trkpt>
      <trkpt lat="48.81074" lon="2.46956">
        <ele>117.7</ele>
        <time>2015-04-27T20:18:12.008Z</time>
      </trkpt>
      <trkpt lat="48.81077" lon="2.46951">
        <ele>117.5</ele>
        <time>2015-04-27T20:18:12.878Z</time>
      </trkpt>
      <trkpt lat="48.81082" lon="2.46947">
        <ele>117.3</ele>
        <time>2015-04-27T20:18:13.895Z</time>
      </trkpt>
      <trkpt lat="48.81084" lon="2.46943">
        <ele>117.1</ele>
        <time>2015-04-27T20:18:14.901Z</time>
      </trkpt>
      <trkpt lat="48.81089" lon="2.46933">
        <ele>117</ele>
        <time>2015-04-27T20:18:17.203Z</time>
      </trkpt>
      <trkpt lat="48.81092" lon="2.46929">
        <ele>117.1</ele>
        <time>2015-04-27T20:18:17.941Z</time>
      </trkpt>
      <trkpt lat="48.81097" lon="2.46925">
        <ele>116.9</ele>
        <time>2015-04-27T20:18:18.955Z</time>
      </trkpt>
      <trkpt lat="48.811" lon="2.46921">
        <ele>116.5</ele>
        <time>2015-04-27T20:18:19.844Z</time>
      </trkpt>
      <trkpt lat="48.81106" lon="2.46913">
        <ele>116.2</ele>
        <time>2015-04-27T20:18:22.260Z</time>
      </trkpt>
      <trkpt lat="48.81107" lon="2.46908">
        <ele>116.3</ele>
        <time>2015-04-27T20:18:22.920Z</time>
      </trkpt>
      <trkpt lat="48.81115" lon="2.46902">
        <ele>116.5</ele>
        <time>2015-04-27T20:18:24.954Z</time>
      </trkpt>
      <trkpt lat="48.8112" lon="2.469">
        <ele>116.6</ele>
        <time>2015-04-27T20:18:25.893Z</time>
      </trkpt>
      <trkpt lat="48.81126" lon="2.46899">
        <ele>116.4</ele>
        <time>2015-04-27T20:18:26.898Z</time>
      </trkpt>
      <trkpt lat="48.81132" lon="2.46898">
        <ele>116.4</ele>
        <time>2015-04-27T20:18:27.932Z</time>
      </trkpt>
      <trkpt lat="48.81138" lon="2.46896">
        <ele>116.3</ele>
        <time>2015-04-27T20:18:28.950Z</time>
      </trkpt>
      <trkpt lat="48.81143" lon="2.46894">
        <ele>116.2</ele>
        <time>2015-04-27T20:18:29.959Z</time>
      </trkpt>
      <trkpt lat="48.81147" lon="2.46891">
        <ele>116.2</ele>
        <time>2015-04-27T20:18:30.856Z</time>
      </trkpt>
      <trkpt lat="48.81153" lon="2.46889">
        <ele>116.1</ele>
        <time>2015-04-27T20:18:31.882Z</time>
      </trkpt>
      <trkpt lat="48.81157" lon="2.46886">
        <ele>116.3</ele>
        <time>2015-04-27T20:18:32.898Z</time>
      </trkpt>
      <trkpt lat="48.81162" lon="2.46883">
        <ele>116.4</ele>
        <time>2015-04-27T20:18:33.906Z</time>
      </trkpt>
      <trkpt lat="48.8117" lon="2.46876">
        <ele>116.6</ele>
        <time>2015-04-27T20:18:35.957Z</time>
      </trkpt>
      <trkpt lat="48.81174" lon="2.46872">
        <ele>116.9</ele>
        <time>2015-04-27T20:18:36.973Z</time>
      </trkpt>
      <trkpt lat="48.81181" lon="2.46865">
        <ele>117.5</ele>
        <time>2015-04-27T20:18:38.936Z</time>
      </trkpt>
      <trkpt lat="48.81183" lon="2.4686">
        <ele>118</ele>
        <time>2015-04-27T20:18:39.953Z</time>
      </trkpt>
      <trkpt lat="48.81189" lon="2.46852">
        <ele>118.3</ele>
        <time>2015-04-27T20:18:41.913Z</time>
      </trkpt>
      <trkpt lat="48.8119" lon="2.46846">
        <ele>118.3</ele>
        <time>2015-04-27T20:18:42.960Z</time>
      </trkpt>
      <trkpt lat="48.81191" lon="2.46835">
        <ele>118.6</ele>
        <time>2015-04-27T20:18:45.793Z</time>
      </trkpt>
      <trkpt lat="48.81192" lon="2.46829">
        <ele>118.5</ele>
        <time>2015-04-27T20:18:45.981Z</time>
      </trkpt>
      <trkpt lat="48.81197" lon="2.46818">
        <ele>118.6</ele>
        <time>2015-04-27T20:18:47.890Z</time>
      </trkpt>
      <trkpt lat="48.812" lon="2.46812">
        <ele>118.7</ele>
        <time>2015-04-27T20:18:48.917Z</time>
      </trkpt>
      <trkpt lat="48.81202" lon="2.46806">
        <ele>118.9</ele>
        <time>2015-04-27T20:18:50.813Z</time>
      </trkpt>
      <trkpt lat="48.81205" lon="2.468">
        <ele>118.9</ele>
        <time>2015-04-27T20:18:50.898Z</time>
      </trkpt>
      <trkpt lat="48.81209" lon="2.46789">
        <ele>119</ele>
        <time>2015-04-27T20:18:52.915Z</time>
      </trkpt>
      <trkpt lat="48.81211" lon="2.46784">
        <ele>118.9</ele>
        <time>2015-04-27T20:18:54.018Z</time>
      </trkpt>
      <trkpt lat="48.81217" lon="2.46774">
        <ele>118.6</ele>
        <time>2015-04-27T20:18:55.906Z</time>
      </trkpt>
      <trkpt lat="48.81219" lon="2.46768">
        <ele>118.6</ele>
        <time>2015-04-27T20:18:56.942Z</time>
      </trkpt>
      <trkpt lat="48.81221" lon="2.46762">
        <ele>118.6</ele>
        <time>2015-04-27T20:18:57.950Z</time>
      </trkpt>
      <trkpt lat="48.81224" lon="2.46757">
        <ele>118.5</ele>
        <time>2015-04-27T20:18:58.970Z</time>
      </trkpt>
      <trkpt lat="48.81229" lon="2.46747">
        <ele>118.5</ele>
        <time>2015-04-27T20:19:00.900Z</time>
      </trkpt>
      <trkpt lat="48.81232" lon="2.46742">
        <ele>118.5</ele>
        <time>2015-04-27T20:19:01.927Z</time>
      </trkpt>
      <trkpt lat="48.81235" lon="2.46737">
        <ele>118.3</ele>
        <time>2015-04-27T20:19:02.983Z</time>
      </trkpt>
      <trkpt lat="48.81239" lon="2.46733">
        <ele>118.2</ele>
        <time>2015-04-27T20:19:03.986Z</time>
      </trkpt>
      <trkpt lat="48.81243" lon="2.46728">
        <ele>118</ele>
        <time>2015-04-27T20:19:04.864Z</time>
      </trkpt>
      <trkpt lat="48.81246" lon="2.46723">
        <ele>117.7</ele>
        <time>2015-04-27T20:19:05.895Z</time>
      </trkpt>
      <trkpt lat="48.81253" lon="2.46714">
        <ele>117.4</ele>
        <time>2015-04-27T20:19:07.928Z</time>
      </trkpt>
      <trkpt lat="48.81256" lon="2.4671">
        <ele>117.2</ele>
        <time>2015-04-27T20:19:09.011Z</time>
      </trkpt>
      <trkpt lat="48.81262" lon="2.46699">
        <ele>116.9</ele>
        <time>2015-04-27T20:19:10.906Z</time>
      </trkpt>
      <trkpt lat="48.81264" lon="2.46694">
        <ele>116.9</ele>
        <time>2015-04-27T20:19:11.916Z</time>
      </trkpt>
      <trkpt lat="48.81267" lon="2.46689">
        <ele>117</ele>
        <time>2015-04-27T20:19:12.959Z</time>
      </trkpt>
      <trkpt lat="48.81271" lon="2.46684">
        <ele>117.3</ele>
        <time>2015-04-27T20:19:13.970Z</time>
      </trkpt>
      <trkpt lat="48.81274" lon="2.46678">
        <ele>117.5</ele>
        <time>2015-04-27T20:19:14.912Z</time>
      </trkpt>
      <trkpt lat="48.81278" lon="2.46673">
        <ele>117.6</ele>
        <time>2015-04-27T20:19:15.930Z</time>
      </trkpt>
      <trkpt lat="48.81282" lon="2.46668">
        <ele>117.9</ele>
        <time>2015-04-27T20:19:16.953Z</time>
      </trkpt>
      <trkpt lat="48.81286" lon="2.46662">
        <ele>117.9</ele>
        <time>2015-04-27T20:19:17.970Z</time>
      </trkpt>
      <trkpt lat="48.81289" lon="2.46658">
        <ele>117.8</ele>
        <time>2015-04-27T20:19:18.866Z</time>
      </trkpt>
      <trkpt lat="48.81292" lon="2.46653">
        <ele>117.7</ele>
        <time>2015-04-27T20:19:19.892Z</time>
      </trkpt>
      <trkpt lat="48.81296" lon="2.46648">
        <ele>117.3</ele>
        <time>2015-04-27T20:19:20.912Z</time>
      </trkpt>
      <trkpt lat="48.813" lon="2.46644">
        <ele>117.1</ele>
        <time>2015-04-27T20:19:21.928Z</time>
      </trkpt>
      <trkpt lat="48.81305" lon="2.4664">
        <ele>116.9</ele>
        <time>2015-04-27T20:19:23.209Z</time>
      </trkpt>
      <trkpt lat="48.81308" lon="2.46635">
        <ele>116.9</ele>
        <time>2015-04-27T20:19:23.950Z</time>
      </trkpt>
      <trkpt lat="48.81311" lon="2.46629">
        <ele>116.6</ele>
        <time>2015-04-27T20:19:24.963Z</time>
      </trkpt>
      <trkpt lat="48.81315" lon="2.46623">
        <ele>116.5</ele>
        <time>2015-04-27T20:19:25.973Z</time>
      </trkpt>
      <trkpt lat="48.81318" lon="2.46617">
        <ele>116.5</ele>
        <time>2015-04-27T20:19:26.992Z</time>
      </trkpt>
      <trkpt lat="48.8132" lon="2.46612">
        <ele>116.7</ele>
        <time>2015-04-27T20:19:28.011Z</time>
      </trkpt>
      <trkpt lat="48.81322" lon="2.46606">
        <ele>116.6</ele>
        <time>2015-04-27T20:19:28.909Z</time>
      </trkpt>
      <trkpt lat="48.81325" lon="2.466">
        <ele>116.5</ele>
        <time>2015-04-27T20:19:29.925Z</time>
      </trkpt>
      <trkpt lat="48.81329" lon="2.46595">
        <ele>116.4</ele>
        <time>2015-04-27T20:19:31.048Z</time>
      </trkpt>
      <trkpt lat="48.81331" lon="2.4659">
        <ele>116.5</ele>
        <time>2015-04-27T20:19:31.935Z</time>
      </trkpt>
      <trkpt lat="48.81336" lon="2.46584">
        <ele>116.5</ele>
        <time>2015-04-27T20:19:32.922Z</time>
      </trkpt>
      <trkpt lat="48.81339" lon="2.46578">
        <ele>116.6</ele>
        <time>2015-04-27T20:19:33.937Z</time>
      </trkpt>
      <trkpt lat="48.81341" lon="2.46572">
        <ele>116.3</ele>
        <time>2015-04-27T20:19:34.956Z</time>
      </trkpt>
      <trkpt lat="48.81345" lon="2.46565">
        <ele>116.2</ele>
        <time>2015-04-27T20:19:35.979Z</time>
      </trkpt>
      <trkpt lat="48.81349" lon="2.4656">
        <ele>116.1</ele>
        <time>2015-04-27T20:19:36.898Z</time>
      </trkpt>
      <trkpt lat="48.81352" lon="2.46555">
        <ele>115.9</ele>
        <time>2015-04-27T20:19:37.901Z</time>
      </trkpt>
      <trkpt lat="48.81354" lon="2.46548">
        <ele>115.6</ele>
        <time>2015-04-27T20:19:38.905Z</time>
      </trkpt>
      <trkpt lat="48.81357" lon="2.46542">
        <ele>115.4</ele>
        <time>2015-04-27T20:19:39.917Z</time>
      </trkpt>
      <trkpt lat="48.81359" lon="2.46536">
        <ele>115.4</ele>
        <time>2015-04-27T20:19:40.932Z</time>
      </trkpt>
      <trkpt lat="48.81363" lon="2.46531">
        <ele>115.2</ele>
        <time>2015-04-27T20:19:41.952Z</time>
      </trkpt>
      <trkpt lat="48.81366" lon="2.46524">
        <ele>115.1</ele>
        <time>2015-04-27T20:19:42.972Z</time>
      </trkpt>
      <trkpt lat="48.81369" lon="2.46517">
        <ele>115</ele>
        <time>2015-04-27T20:19:43.979Z</time>
      </trkpt>
      <trkpt lat="48.81372" lon="2.46512">
        <ele>114.6</ele>
        <time>2015-04-27T20:19:44.904Z</time>
      </trkpt>
      <trkpt lat="48.81375" lon="2.46507">
        <ele>114.4</ele>
        <time>2015-04-27T20:19:45.940Z</time>
      </trkpt>
      <trkpt lat="48.81381" lon="2.46498">
        <ele>114.4</ele>
        <time>2015-04-27T20:19:47.982Z</time>
      </trkpt>
      <trkpt lat="48.81384" lon="2.46493">
        <ele>114.2</ele>
        <time>2015-04-27T20:19:48.879Z</time>
      </trkpt>
      <trkpt lat="48.81388" lon="2.46488">
        <ele>113.4</ele>
        <time>2015-04-27T20:19:49.960Z</time>
      </trkpt>
      <trkpt lat="48.81392" lon="2.46482">
        <ele>112.8</ele>
        <time>2015-04-27T20:19:50.965Z</time>
      </trkpt>
      <trkpt lat="48.81394" lon="2.46475">
        <ele>112.4</ele>
        <time>2015-04-27T20:19:51.996Z</time>
      </trkpt>
      <trkpt lat="48.81398" lon="2.46467">
        <ele>112</ele>
        <time>2015-04-27T20:19:52.983Z</time>
      </trkpt>
      <trkpt lat="48.81401" lon="2.4646">
        <ele>112.4</ele>
        <time>2015-04-27T20:19:53.905Z</time>
      </trkpt>
      <trkpt lat="48.81403" lon="2.46451">
        <ele>112.9</ele>
        <time>2015-04-27T20:19:54.906Z</time>
      </trkpt>
      <trkpt lat="48.81406" lon="2.46443">
        <ele>113.2</ele>
        <time>2015-04-27T20:19:55.942Z</time>
      </trkpt>
      <trkpt lat="48.81408" lon="2.46434">
        <ele>113.4</ele>
        <time>2015-04-27T20:19:56.956Z</time>
      </trkpt>
      <trkpt lat="48.81409" lon="2.46426">
        <ele>113.3</ele>
        <time>2015-04-27T20:19:57.962Z</time>
      </trkpt>
      <trkpt lat="48.81411" lon="2.46418">
        <ele>113.1</ele>
        <time>2015-04-27T20:19:58.977Z</time>
      </trkpt>
      <trkpt lat="48.81413" lon="2.4641">
        <ele>113.1</ele>
        <time>2015-04-27T20:20:00.142Z</time>
      </trkpt>
      <trkpt lat="48.81415" lon="2.46403">
        <ele>113.3</ele>
        <time>2015-04-27T20:20:00.899Z</time>
      </trkpt>
      <trkpt lat="48.81418" lon="2.46398">
        <ele>113.4</ele>
        <time>2015-04-27T20:20:01.920Z</time>
      </trkpt>
      <trkpt lat="48.81423" lon="2.46393">
        <ele>113.5</ele>
        <time>2015-04-27T20:20:02.929Z</time>
      </trkpt>
      <trkpt lat="48.81427" lon="2.46387">
        <ele>113.6</ele>
        <time>2015-04-27T20:20:03.944Z</time>
      </trkpt>
      <trkpt lat="48.8143" lon="2.46382">
        <ele>113.5</ele>
        <time>2015-04-27T20:20:04.962Z</time>
      </trkpt>
      <trkpt lat="48.81437" lon="2.46374">
        <ele>113.6</ele>
        <time>2015-04-27T20:20:06.985Z</time>
      </trkpt>
      <trkpt lat="48.81442" lon="2.46368">
        <ele>113.4</ele>
        <time>2015-04-27T20:20:07.913Z</time>
      </trkpt>
      <trkpt lat="48.81447" lon="2.46364">
        <ele>113.1</ele>
        <time>2015-04-27T20:20:08.898Z</time>
      </trkpt>
      <trkpt lat="48.81452" lon="2.46361">
        <ele>112.7</ele>
        <time>2015-04-27T20:20:09.931Z</time>
      </trkpt>
      <trkpt lat="48.81457" lon="2.46357">
        <ele>112.6</ele>
        <time>2015-04-27T20:20:10.907Z</time>
      </trkpt>
      <trkpt lat="48.81461" lon="2.46353">
        <ele>113.2</ele>
        <time>2015-04-27T20:20:11.911Z</time>
      </trkpt>
      <trkpt lat="48.81467" lon="2.46345">
        <ele>113</ele>
        <time>2015-04-27T20:20:13.935Z</time>
      </trkpt>
      <trkpt lat="48.8147" lon="2.46342">
        <ele>113.1</ele>
        <time>2015-04-27T20:20:14.947Z</time>
      </trkpt>
      <trkpt lat="48.81476" lon="2.46336">
        <ele>112.5</ele>
        <time>2015-04-27T20:20:16.871Z</time>
      </trkpt>
      <trkpt lat="48.81479" lon="2.46333">
        <ele>112.1</ele>
        <time>2015-04-27T20:20:17.876Z</time>
      </trkpt>
      <trkpt lat="48.81484" lon="2.46325">
        <ele>112.6</ele>
        <time>2015-04-27T20:20:19.923Z</time>
      </trkpt>
      <trkpt lat="48.81485" lon="2.46321">
        <ele>112.7</ele>
        <time>2015-04-27T20:20:20.939Z</time>
      </trkpt>
      <trkpt lat="48.81492" lon="2.46318">
        <ele>113.3</ele>
        <time>2015-04-27T20:20:22.906Z</time>
      </trkpt>
      <trkpt lat="48.81493" lon="2.46316">
        <ele>113.2</ele>
        <time>2015-04-27T20:20:23.938Z</time>
      </trkpt>
      <trkpt lat="48.81495" lon="2.4631">
        <ele>112.9</ele>
        <time>2015-04-27T20:20:53.924Z</time>
      </trkpt>
      <trkpt lat="48.81487" lon="2.46302">
        <ele>111.9</ele>
        <time>2015-04-27T20:20:54.939Z</time>
      </trkpt>
      <trkpt lat="48.81481" lon="2.46295">
        <ele>111.7</ele>
        <time>2015-04-27T20:20:57.948Z</time>
      </trkpt>
      <trkpt lat="48.81478" lon="2.46292">
        <ele>111.6</ele>
        <time>2015-04-27T20:20:59.018Z</time>
      </trkpt>
      <trkpt lat="48.81472" lon="2.46285">
        <ele>111.1</ele>
        <time>2015-04-27T20:21:00.906Z</time>
      </trkpt>
      <trkpt lat="48.81469" lon="2.46281">
        <ele>111</ele>
        <time>2015-04-27T20:21:01.916Z</time>
      </trkpt>
      <trkpt lat="48.81462" lon="2.46273">
        <ele>110.5</ele>
        <time>2015-04-27T20:21:03.981Z</time>
      </trkpt>
      <trkpt lat="48.81458" lon="2.46269">
        <ele>110.4</ele>
        <time>2015-04-27T20:21:04.889Z</time>
      </trkpt>
      <trkpt lat="48.81455" lon="2.46265">
        <ele>110.3</ele>
        <time>2015-04-27T20:21:05.930Z</time>
      </trkpt>
      <trkpt lat="48.81451" lon="2.46261">
        <ele>110.2</ele>
        <time>2015-04-27T20:21:06.958Z</time>
      </trkpt>
      <trkpt lat="48.81444" lon="2.46255">
        <ele>109.7</ele>
        <time>2015-04-27T20:21:08.906Z</time>
      </trkpt>
      <trkpt lat="48.8144" lon="2.46252">
        <ele>109.4</ele>
        <time>2015-04-27T20:21:09.937Z</time>
      </trkpt>
      <trkpt lat="48.81438" lon="2.4624">
        <ele>108.7</ele>
        <time>2015-04-27T20:21:11.958Z</time>
      </trkpt>
      <trkpt lat="48.81439" lon="2.46233">
        <ele>108.3</ele>
        <time>2015-04-27T20:21:12.988Z</time>
      </trkpt>
      <trkpt lat="48.81442" lon="2.46227">
        <ele>107.8</ele>
        <time>2015-04-27T20:21:13.894Z</time>
      </trkpt>
      <trkpt lat="48.81444" lon="2.46222">
        <ele>107.6</ele>
        <time>2015-04-27T20:21:14.905Z</time>
      </trkpt>
      <trkpt lat="48.81447" lon="2.46218">
        <ele>107.5</ele>
        <time>2015-04-27T20:21:15.978Z</time>
      </trkpt>
      <trkpt lat="48.81451" lon="2.46213">
        <ele>107.5</ele>
        <time>2015-04-27T20:21:16.988Z</time>
      </trkpt>
      <trkpt lat="48.81454" lon="2.46207">
        <ele>107.5</ele>
        <time>2015-04-27T20:21:17.863Z</time>
      </trkpt>
      <trkpt lat="48.81457" lon="2.46201">
        <ele>107.6</ele>
        <time>2015-04-27T20:21:18.908Z</time>
      </trkpt>
      <trkpt lat="48.81461" lon="2.46197">
        <ele>107.5</ele>
        <time>2015-04-27T20:21:19.966Z</time>
      </trkpt>
      <trkpt lat="48.81464" lon="2.46191">
        <ele>107.4</ele>
        <time>2015-04-27T20:21:20.991Z</time>
      </trkpt>
      <trkpt lat="48.81466" lon="2.46184">
        <ele>108</ele>
        <time>2015-04-27T20:21:22.001Z</time>
      </trkpt>
      <trkpt lat="48.81469" lon="2.46175">
        <ele>108.3</ele>
        <time>2015-04-27T20:21:22.968Z</time>
      </trkpt>
      <trkpt lat="48.81471" lon="2.46166">
        <ele>108.9</ele>
        <time>2015-04-27T20:21:23.903Z</time>
      </trkpt>
      <trkpt lat="48.81474" lon="2.46158">
        <ele>109.1</ele>
        <time>2015-04-27T20:21:24.911Z</time>
      </trkpt>
      <trkpt lat="48.81477" lon="2.46152">
        <ele>109.1</ele>
        <time>2015-04-27T20:21:25.915Z</time>
      </trkpt>
      <trkpt lat="48.8148" lon="2.46145">
        <ele>109.4</ele>
        <time>2015-04-27T20:21:26.931Z</time>
      </trkpt>
      <trkpt lat="48.81484" lon="2.46139">
        <ele>109.4</ele>
        <time>2015-04-27T20:21:27.955Z</time>
      </trkpt>
      <trkpt lat="48.81488" lon="2.46132">
        <ele>109.5</ele>
        <time>2015-04-27T20:21:28.962Z</time>
      </trkpt>
      <trkpt lat="48.81494" lon="2.46127">
        <ele>109.3</ele>
        <time>2015-04-27T20:21:29.967Z</time>
      </trkpt>
      <trkpt lat="48.81499" lon="2.46122">
        <ele>109.5</ele>
        <time>2015-04-27T20:21:30.983Z</time>
      </trkpt>
      <trkpt lat="48.81504" lon="2.46118">
        <ele>109.3</ele>
        <time>2015-04-27T20:21:31.889Z</time>
      </trkpt>
      <trkpt lat="48.8151" lon="2.46115">
        <ele>109.2</ele>
        <time>2015-04-27T20:21:32.905Z</time>
      </trkpt>
      <trkpt lat="48.81513" lon="2.4611">
        <ele>109</ele>
        <time>2015-04-27T20:21:33.930Z</time>
      </trkpt>
      <trkpt lat="48.81519" lon="2.46107">
        <ele>108.8</ele>
        <time>2015-04-27T20:21:34.941Z</time>
      </trkpt>
      <trkpt lat="48.81524" lon="2.46103">
        <ele>108.1</ele>
        <time>2015-04-27T20:21:35.951Z</time>
      </trkpt>
      <trkpt lat="48.81529" lon="2.461">
        <ele>108</ele>
        <time>2015-04-27T20:21:36.955Z</time>
      </trkpt>
      <trkpt lat="48.81536" lon="2.46098">
        <ele>108.1</ele>
        <time>2015-04-27T20:21:37.880Z</time>
      </trkpt>
      <trkpt lat="48.81541" lon="2.46095">
        <ele>108.2</ele>
        <time>2015-04-27T20:21:38.895Z</time>
      </trkpt>
      <trkpt lat="48.81545" lon="2.46092">
        <ele>108.5</ele>
        <time>2015-04-27T20:21:39.903Z</time>
      </trkpt>
      <trkpt lat="48.81553" lon="2.46089">
        <ele>108.7</ele>
        <time>2015-04-27T20:21:40.915Z</time>
      </trkpt>
      <trkpt lat="48.81559" lon="2.46085">
        <ele>108.9</ele>
        <time>2015-04-27T20:21:41.928Z</time>
      </trkpt>
      <trkpt lat="48.81562" lon="2.4608">
        <ele>109.2</ele>
        <time>2015-04-27T20:21:42.935Z</time>
      </trkpt>
      <trkpt lat="48.81564" lon="2.46074">
        <ele>109.4</ele>
        <time>2015-04-27T20:21:43.962Z</time>
      </trkpt>
      <trkpt lat="48.81564" lon="2.46066">
        <ele>109.3</ele>
        <time>2015-04-27T20:21:44.974Z</time>
      </trkpt>
      <trkpt lat="48.81567" lon="2.46058">
        <ele>109.2</ele>
        <time>2015-04-27T20:21:45.906Z</time>
      </trkpt>
      <trkpt lat="48.81571" lon="2.46051">
        <ele>108.9</ele>
        <time>2015-04-27T20:21:46.895Z</time>
      </trkpt>
      <trkpt lat="48.81576" lon="2.46044">
        <ele>108.6</ele>
        <time>2015-04-27T20:21:47.909Z</time>
      </trkpt>
      <trkpt lat="48.81579" lon="2.46037">
        <ele>108.3</ele>
        <time>2015-04-27T20:21:48.921Z</time>
      </trkpt>
      <trkpt lat="48.81581" lon="2.46029">
        <ele>108.1</ele>
        <time>2015-04-27T20:21:49.954Z</time>
      </trkpt>
      <trkpt lat="48.81585" lon="2.46022">
        <ele>107.9</ele>
        <time>2015-04-27T20:21:50.960Z</time>
      </trkpt>
      <trkpt lat="48.81587" lon="2.46014">
        <ele>107.7</ele>
        <time>2015-04-27T20:21:51.877Z</time>
      </trkpt>
      <trkpt lat="48.8159" lon="2.46007">
        <ele>107.3</ele>
        <time>2015-04-27T20:21:52.892Z</time>
      </trkpt>
      <trkpt lat="48.81591" lon="2.45998">
        <ele>107.1</ele>
        <time>2015-04-27T20:21:53.918Z</time>
      </trkpt>
      <trkpt lat="48.81593" lon="2.45991">
        <ele>107.1</ele>
        <time>2015-04-27T20:21:54.938Z</time>
      </trkpt>
      <trkpt lat="48.81595" lon="2.45984">
        <ele>106.8</ele>
        <time>2015-04-27T20:21:55.857Z</time>
      </trkpt>
      <trkpt lat="48.81597" lon="2.45977">
        <ele>106.5</ele>
        <time>2015-04-27T20:21:56.913Z</time>
      </trkpt>
      <trkpt lat="48.81599" lon="2.4597">
        <ele>106.5</ele>
        <time>2015-04-27T20:21:57.886Z</time>
      </trkpt>
      <trkpt lat="48.816" lon="2.45961">
        <ele>106.2</ele>
        <time>2015-04-27T20:21:58.914Z</time>
      </trkpt>
      <trkpt lat="48.81603" lon="2.45953">
        <ele>106.1</ele>
        <time>2015-04-27T20:21:59.920Z</time>
      </trkpt>
      <trkpt lat="48.81604" lon="2.45944">
        <ele>105.8</ele>
        <time>2015-04-27T20:22:00.835Z</time>
      </trkpt>
      <trkpt lat="48.81603" lon="2.45933">
        <ele>105.4</ele>
        <time>2015-04-27T20:22:01.846Z</time>
      </trkpt>
      <trkpt lat="48.81604" lon="2.45924">
        <ele>105.2</ele>
        <time>2015-04-27T20:22:02.860Z</time>
      </trkpt>
      <trkpt lat="48.81607" lon="2.45915">
        <ele>104.9</ele>
        <time>2015-04-27T20:22:03.889Z</time>
      </trkpt>
      <trkpt lat="48.81609" lon="2.45907">
        <ele>104.4</ele>
        <time>2015-04-27T20:22:04.892Z</time>
      </trkpt>
      <trkpt lat="48.81611" lon="2.45898">
        <ele>103.9</ele>
        <time>2015-04-27T20:22:05.911Z</time>
      </trkpt>
      <trkpt lat="48.81612" lon="2.45889">
        <ele>103.6</ele>
        <time>2015-04-27T20:22:06.864Z</time>
      </trkpt>
      <trkpt lat="48.81617" lon="2.45883">
        <ele>103.6</ele>
        <time>2015-04-27T20:22:07.889Z</time>
      </trkpt>
      <trkpt lat="48.81617" lon="2.45874">
        <ele>103.5</ele>
        <time>2015-04-27T20:22:08.909Z</time>
      </trkpt>
      <trkpt lat="48.81619" lon="2.45866">
        <ele>103.5</ele>
        <time>2015-04-27T20:22:09.915Z</time>
      </trkpt>
      <trkpt lat="48.81618" lon="2.45856">
        <ele>103.3</ele>
        <time>2015-04-27T20:22:10.839Z</time>
      </trkpt>
      <trkpt lat="48.81616" lon="2.45844">
        <ele>103.1</ele>
        <time>2015-04-27T20:22:11.847Z</time>
      </trkpt>
      <trkpt lat="48.81614" lon="2.45832">
        <ele>102.9</ele>
        <time>2015-04-27T20:22:12.882Z</time>
      </trkpt>
      <trkpt lat="48.81618" lon="2.45823">
        <ele>102.8</ele>
        <time>2015-04-27T20:22:13.898Z</time>
      </trkpt>
      <trkpt lat="48.81621" lon="2.45815">
        <ele>102.7</ele>
        <time>2015-04-27T20:22:14.851Z</time>
      </trkpt>
      <trkpt lat="48.81625" lon="2.45808">
        <ele>102.8</ele>
        <time>2015-04-27T20:22:15.859Z</time>
      </trkpt>
      <trkpt lat="48.81628" lon="2.45801">
        <ele>103</ele>
        <time>2015-04-27T20:22:16.864Z</time>
      </trkpt>
      <trkpt lat="48.81631" lon="2.45794">
        <ele>103.1</ele>
        <time>2015-04-27T20:22:17.877Z</time>
      </trkpt>
      <trkpt lat="48.81634" lon="2.45786">
        <ele>103</ele>
        <time>2015-04-27T20:22:18.899Z</time>
      </trkpt>
      <trkpt lat="48.81637" lon="2.45778">
        <ele>102.8</ele>
        <time>2015-04-27T20:22:19.925Z</time>
      </trkpt>
      <trkpt lat="48.81639" lon="2.4577">
        <ele>102.8</ele>
        <time>2015-04-27T20:22:20.853Z</time>
      </trkpt>
      <trkpt lat="48.81642" lon="2.45762">
        <ele>102.9</ele>
        <time>2015-04-27T20:22:21.854Z</time>
      </trkpt>
      <trkpt lat="48.81644" lon="2.45755">
        <ele>103</ele>
        <time>2015-04-27T20:22:22.870Z</time>
      </trkpt>
      <trkpt lat="48.81647" lon="2.45748">
        <ele>102.8</ele>
        <time>2015-04-27T20:22:23.901Z</time>
      </trkpt>
      <trkpt lat="48.81648" lon="2.4574">
        <ele>102.6</ele>
        <time>2015-04-27T20:22:24.837Z</time>
      </trkpt>
      <trkpt lat="48.81649" lon="2.45733">
        <ele>102.5</ele>
        <time>2015-04-27T20:22:25.837Z</time>
      </trkpt>
      <trkpt lat="48.8165" lon="2.45726">
        <ele>102.5</ele>
        <time>2015-04-27T20:22:26.873Z</time>
      </trkpt>
      <trkpt lat="48.81651" lon="2.45718">
        <ele>102.3</ele>
        <time>2015-04-27T20:22:27.883Z</time>
      </trkpt>
      <trkpt lat="48.81654" lon="2.45711">
        <ele>102.3</ele>
        <time>2015-04-27T20:22:28.901Z</time>
      </trkpt>
      <trkpt lat="48.81655" lon="2.45703">
        <ele>102.5</ele>
        <time>2015-04-27T20:22:29.910Z</time>
      </trkpt>
      <trkpt lat="48.81656" lon="2.45695">
        <ele>102.5</ele>
        <time>2015-04-27T20:22:30.923Z</time>
      </trkpt>
      <trkpt lat="48.8166" lon="2.45687">
        <ele>102.5</ele>
        <time>2015-04-27T20:22:31.833Z</time>
      </trkpt>
      <trkpt lat="48.81662" lon="2.4568">
        <ele>102.2</ele>
        <time>2015-04-27T20:22:32.848Z</time>
      </trkpt>
      <trkpt lat="48.81664" lon="2.45673">
        <ele>102</ele>
        <time>2015-04-27T20:22:33.868Z</time>
      </trkpt>
      <trkpt lat="48.81665" lon="2.45666">
        <ele>101.8</ele>
        <time>2015-04-27T20:22:34.870Z</time>
      </trkpt>
      <trkpt lat="48.81668" lon="2.45659">
        <ele>101.4</ele>
        <time>2015-04-27T20:22:35.883Z</time>
      </trkpt>
      <trkpt lat="48.81669" lon="2.45651">
        <ele>100.8</ele>
        <time>2015-04-27T20:22:36.912Z</time>
      </trkpt>
      <trkpt lat="48.8167" lon="2.45643">
        <ele>100.6</ele>
        <time>2015-04-27T20:22:37.942Z</time>
      </trkpt>
      <trkpt lat="48.81671" lon="2.45636">
        <ele>100.5</ele>
        <time>2015-04-27T20:22:38.879Z</time>
      </trkpt>
      <trkpt lat="48.81671" lon="2.45628">
        <ele>100.5</ele>
        <time>2015-04-27T20:22:39.879Z</time>
      </trkpt>
      <trkpt lat="48.81672" lon="2.45619">
        <ele>100.5</ele>
        <time>2015-04-27T20:22:40.881Z</time>
      </trkpt>
      <trkpt lat="48.81673" lon="2.45609">
        <ele>100.6</ele>
        <time>2015-04-27T20:22:41.897Z</time>
      </trkpt>
      <trkpt lat="48.81673" lon="2.45599">
        <ele>100.8</ele>
        <time>2015-04-27T20:22:42.910Z</time>
      </trkpt>
      <trkpt lat="48.81677" lon="2.4559">
        <ele>101.5</ele>
        <time>2015-04-27T20:22:43.834Z</time>
      </trkpt>
      <trkpt lat="48.8168" lon="2.4558">
        <ele>102.9</ele>
        <time>2015-04-27T20:22:44.880Z</time>
      </trkpt>
      <trkpt lat="48.81681" lon="2.45569">
        <ele>103.7</ele>
        <time>2015-04-27T20:22:45.898Z</time>
      </trkpt>
      <trkpt lat="48.81681" lon="2.45561">
        <ele>103.9</ele>
        <time>2015-04-27T20:22:46.919Z</time>
      </trkpt>
      <trkpt lat="48.81683" lon="2.45553">
        <ele>103.9</ele>
        <time>2015-04-27T20:22:47.937Z</time>
      </trkpt>
      <trkpt lat="48.81683" lon="2.45544">
        <ele>103.8</ele>
        <time>2015-04-27T20:22:48.941Z</time>
      </trkpt>
      <trkpt lat="48.81685" lon="2.45536">
        <ele>103.7</ele>
        <time>2015-04-27T20:22:49.856Z</time>
      </trkpt>
      <trkpt lat="48.81687" lon="2.4553">
        <ele>103.6</ele>
        <time>2015-04-27T20:22:50.871Z</time>
      </trkpt>
      <trkpt lat="48.81689" lon="2.45522">
        <ele>103.5</ele>
        <time>2015-04-27T20:22:51.905Z</time>
      </trkpt>
      <trkpt lat="48.8169" lon="2.45514">
        <ele>103</ele>
        <time>2015-04-27T20:22:52.915Z</time>
      </trkpt>
      <trkpt lat="48.81691" lon="2.45507">
        <ele>102.6</ele>
        <time>2015-04-27T20:22:53.829Z</time>
      </trkpt>
      <trkpt lat="48.81698" lon="2.45488">
        <ele>102</ele>
        <time>2015-04-27T20:22:56.946Z</time>
      </trkpt>
      <trkpt lat="48.81729" lon="2.45193">
        <ele>105</ele>
        <time>2015-04-27T20:23:27.901Z</time>
      </trkpt>
      <trkpt lat="48.81734" lon="2.45183">
        <ele>110.8</ele>
        <time>2015-04-27T20:23:28.937Z</time>
      </trkpt>
      <trkpt lat="48.81737" lon="2.4517">
        <ele>117.8</ele>
        <time>2015-04-27T20:23:29.951Z</time>
      </trkpt>
      <trkpt lat="48.81739" lon="2.45164">
        <ele>117</ele>
        <time>2015-04-27T20:23:30.866Z</time>
      </trkpt>
      <trkpt lat="48.81743" lon="2.45158">
        <ele>114.7</ele>
        <time>2015-04-27T20:23:31.875Z</time>
      </trkpt>
      <trkpt lat="48.81747" lon="2.45153">
        <ele>111.4</ele>
        <time>2015-04-27T20:23:32.875Z</time>
      </trkpt>
      <trkpt lat="48.81751" lon="2.45146">
        <ele>110</ele>
        <time>2015-04-27T20:23:33.895Z</time>
      </trkpt>
      <trkpt lat="48.81755" lon="2.4514">
        <ele>109.3</ele>
        <time>2015-04-27T20:23:34.978Z</time>
      </trkpt>
      <trkpt lat="48.81755" lon="2.45131">
        <ele>106.6</ele>
        <time>2015-04-27T20:23:35.862Z</time>
      </trkpt>
      <trkpt lat="48.81757" lon="2.45122">
        <ele>104.5</ele>
        <time>2015-04-27T20:23:36.899Z</time>
      </trkpt>
      <trkpt lat="48.81759" lon="2.45113">
        <ele>103.1</ele>
        <time>2015-04-27T20:23:37.867Z</time>
      </trkpt>
      <trkpt lat="48.8176" lon="2.45103">
        <ele>102.1</ele>
        <time>2015-04-27T20:23:38.876Z</time>
      </trkpt>
      <trkpt lat="48.81762" lon="2.45095">
        <ele>100.9</ele>
        <time>2015-04-27T20:23:39.898Z</time>
      </trkpt>
      <trkpt lat="48.81765" lon="2.45087">
        <ele>98.6</ele>
        <time>2015-04-27T20:23:40.935Z</time>
      </trkpt>
      <trkpt lat="48.81769" lon="2.45079">
        <ele>97.4</ele>
        <time>2015-04-27T20:23:41.942Z</time>
      </trkpt>
      <trkpt lat="48.8177" lon="2.4507">
        <ele>95.8</ele>
        <time>2015-04-27T20:23:42.852Z</time>
      </trkpt>
      <trkpt lat="48.81775" lon="2.45063">
        <ele>92.6</ele>
        <time>2015-04-27T20:23:43.863Z</time>
      </trkpt>
      <trkpt lat="48.81777" lon="2.45055">
        <ele>89.9</ele>
        <time>2015-04-27T20:23:44.881Z</time>
      </trkpt>
      <trkpt lat="48.81778" lon="2.45046">
        <ele>88.7</ele>
        <time>2015-04-27T20:23:45.891Z</time>
      </trkpt>
      <trkpt lat="48.81782" lon="2.45038">
        <ele>87.5</ele>
        <time>2015-04-27T20:23:46.901Z</time>
      </trkpt>
      <trkpt lat="48.81784" lon="2.45027">
        <ele>89.5</ele>
        <time>2015-04-27T20:23:47.907Z</time>
      </trkpt>
      <trkpt lat="48.81786" lon="2.45016">
        <ele>89.1</ele>
        <time>2015-04-27T20:23:48.912Z</time>
      </trkpt>
      <trkpt lat="48.81787" lon="2.45005">
        <ele>89.3</ele>
        <time>2015-04-27T20:23:49.918Z</time>
      </trkpt>
      <trkpt lat="48.81789" lon="2.44994">
        <ele>88.2</ele>
        <time>2015-04-27T20:23:50.936Z</time>
      </trkpt>
      <trkpt lat="48.8179" lon="2.44984">
        <ele>88.4</ele>
        <time>2015-04-27T20:23:51.942Z</time>
      </trkpt>
      <trkpt lat="48.81793" lon="2.44975">
        <ele>88.7</ele>
        <time>2015-04-27T20:23:52.831Z</time>
      </trkpt>
      <trkpt lat="48.81794" lon="2.44965">
        <ele>88.9</ele>
        <time>2015-04-27T20:23:53.844Z</time>
      </trkpt>
      <trkpt lat="48.81797" lon="2.44957">
        <ele>88.2</ele>
        <time>2015-04-27T20:23:54.855Z</time>
      </trkpt>
      <trkpt lat="48.81799" lon="2.44949">
        <ele>88.6</ele>
        <time>2015-04-27T20:23:55.866Z</time>
      </trkpt>
      <trkpt lat="48.81801" lon="2.44939">
        <ele>88.4</ele>
        <time>2015-04-27T20:23:56.889Z</time>
      </trkpt>
      <trkpt lat="48.818" lon="2.44927">
        <ele>88.7</ele>
        <time>2015-04-27T20:23:57.896Z</time>
      </trkpt>
      <trkpt lat="48.818" lon="2.44918">
        <ele>88.8</ele>
        <time>2015-04-27T20:23:58.913Z</time>
      </trkpt>
      <trkpt lat="48.818" lon="2.44906">
        <ele>88.1</ele>
        <time>2015-04-27T20:23:59.919Z</time>
      </trkpt>
      <trkpt lat="48.818" lon="2.44896">
        <ele>88.1</ele>
        <time>2015-04-27T20:24:00.937Z</time>
      </trkpt>
      <trkpt lat="48.818" lon="2.44885">
        <ele>88.3</ele>
        <time>2015-04-27T20:24:01.950Z</time>
      </trkpt>
      <trkpt lat="48.818" lon="2.44875">
        <ele>88.2</ele>
        <time>2015-04-27T20:24:02.867Z</time>
      </trkpt>
      <trkpt lat="48.81801" lon="2.44865">
        <ele>88.9</ele>
        <time>2015-04-27T20:24:03.988Z</time>
      </trkpt>
      <trkpt lat="48.81801" lon="2.44854">
        <ele>88.6</ele>
        <time>2015-04-27T20:24:04.858Z</time>
      </trkpt>
      <trkpt lat="48.81801" lon="2.44846">
        <ele>88.1</ele>
        <time>2015-04-27T20:24:05.881Z</time>
      </trkpt>
      <trkpt lat="48.81801" lon="2.44835">
        <ele>87.8</ele>
        <time>2015-04-27T20:24:06.891Z</time>
      </trkpt>
      <trkpt lat="48.818" lon="2.44825">
        <ele>87.7</ele>
        <time>2015-04-27T20:24:07.901Z</time>
      </trkpt>
      <trkpt lat="48.818" lon="2.44816">
        <ele>87.6</ele>
        <time>2015-04-27T20:24:08.913Z</time>
      </trkpt>
      <trkpt lat="48.81801" lon="2.44805">
        <ele>87.7</ele>
        <time>2015-04-27T20:24:09.919Z</time>
      </trkpt>
      <trkpt lat="48.81802" lon="2.44795">
        <ele>87.7</ele>
        <time>2015-04-27T20:24:10.942Z</time>
      </trkpt>
      <trkpt lat="48.81803" lon="2.44786">
        <ele>87.2</ele>
        <time>2015-04-27T20:24:11.955Z</time>
      </trkpt>
      <trkpt lat="48.81805" lon="2.44778">
        <ele>87.5</ele>
        <time>2015-04-27T20:24:12.955Z</time>
      </trkpt>
      <trkpt lat="48.81808" lon="2.4477">
        <ele>87.6</ele>
        <time>2015-04-27T20:24:13.963Z</time>
      </trkpt>
      <trkpt lat="48.81805" lon="2.44758">
        <ele>88.6</ele>
        <time>2015-04-27T20:24:14.862Z</time>
      </trkpt>
      <trkpt lat="48.81802" lon="2.44747">
        <ele>89.5</ele>
        <time>2015-04-27T20:24:15.902Z</time>
      </trkpt>
      <trkpt lat="48.818" lon="2.44734">
        <ele>90.5</ele>
        <time>2015-04-27T20:24:16.922Z</time>
      </trkpt>
      <trkpt lat="48.81798" lon="2.44723">
        <ele>91</ele>
        <time>2015-04-27T20:24:17.939Z</time>
      </trkpt>
      <trkpt lat="48.81797" lon="2.44713">
        <ele>91.3</ele>
        <time>2015-04-27T20:24:18.959Z</time>
      </trkpt>
      <trkpt lat="48.81799" lon="2.44704">
        <ele>91.5</ele>
        <time>2015-04-27T20:24:19.904Z</time>
      </trkpt>
      <trkpt lat="48.818" lon="2.44696">
        <ele>91.3</ele>
        <time>2015-04-27T20:24:20.894Z</time>
      </trkpt>
      <trkpt lat="48.81801" lon="2.44688">
        <ele>91.4</ele>
        <time>2015-04-27T20:24:21.898Z</time>
      </trkpt>
      <trkpt lat="48.81802" lon="2.44679">
        <ele>91.1</ele>
        <time>2015-04-27T20:24:22.919Z</time>
      </trkpt>
      <trkpt lat="48.81803" lon="2.44671">
        <ele>91.7</ele>
        <time>2015-04-27T20:24:23.924Z</time>
      </trkpt>
      <trkpt lat="48.81803" lon="2.44662">
        <ele>92.2</ele>
        <time>2015-04-27T20:24:24.906Z</time>
      </trkpt>
      <trkpt lat="48.81804" lon="2.44653">
        <ele>92.4</ele>
        <time>2015-04-27T20:24:25.910Z</time>
      </trkpt>
      <trkpt lat="48.81804" lon="2.44644">
        <ele>92.7</ele>
        <time>2015-04-27T20:24:26.925Z</time>
      </trkpt>
      <trkpt lat="48.81804" lon="2.44634">
        <ele>92.6</ele>
        <time>2015-04-27T20:24:27.966Z</time>
      </trkpt>
      <trkpt lat="48.81804" lon="2.44623">
        <ele>92.8</ele>
        <time>2015-04-27T20:24:28.869Z</time>
      </trkpt>
      <trkpt lat="48.81805" lon="2.44612">
        <ele>92.9</ele>
        <time>2015-04-27T20:24:29.864Z</time>
      </trkpt>
      <trkpt lat="48.81806" lon="2.44601">
        <ele>93.3</ele>
        <time>2015-04-27T20:24:30.874Z</time>
      </trkpt>
      <trkpt lat="48.81806" lon="2.44591">
        <ele>93.2</ele>
        <time>2015-04-27T20:24:31.878Z</time>
      </trkpt>
      <trkpt lat="48.81807" lon="2.44581">
        <ele>92.5</ele>
        <time>2015-04-27T20:24:32.918Z</time>
      </trkpt>
      <trkpt lat="48.81808" lon="2.44571">
        <ele>92.5</ele>
        <time>2015-04-27T20:24:33.928Z</time>
      </trkpt>
      <trkpt lat="48.81808" lon="2.44561">
        <ele>92.5</ele>
        <time>2015-04-27T20:24:34.945Z</time>
      </trkpt>
      <trkpt lat="48.81808" lon="2.4455">
        <ele>92.3</ele>
        <time>2015-04-27T20:24:35.886Z</time>
      </trkpt>
      <trkpt lat="48.81808" lon="2.44539">
        <ele>92.3</ele>
        <time>2015-04-27T20:24:36.857Z</time>
      </trkpt>
      <trkpt lat="48.81808" lon="2.44527">
        <ele>91.7</ele>
        <time>2015-04-27T20:24:38.145Z</time>
      </trkpt>
      <trkpt lat="48.81808" lon="2.44516">
        <ele>91.4</ele>
        <time>2015-04-27T20:24:38.874Z</time>
      </trkpt>
      <trkpt lat="48.81807" lon="2.44503">
        <ele>91.4</ele>
        <time>2015-04-27T20:24:39.892Z</time>
      </trkpt>
      <trkpt lat="48.81806" lon="2.4449">
        <ele>91.5</ele>
        <time>2015-04-27T20:24:40.906Z</time>
      </trkpt>
      <trkpt lat="48.81806" lon="2.44479">
        <ele>91.9</ele>
        <time>2015-04-27T20:24:41.916Z</time>
      </trkpt>
      <trkpt lat="48.81805" lon="2.44468">
        <ele>91.7</ele>
        <time>2015-04-27T20:24:42.923Z</time>
      </trkpt>
      <trkpt lat="48.81805" lon="2.44458">
        <ele>91.7</ele>
        <time>2015-04-27T20:24:43.937Z</time>
      </trkpt>
      <trkpt lat="48.81805" lon="2.44448">
        <ele>92</ele>
        <time>2015-04-27T20:24:44.946Z</time>
      </trkpt>
      <trkpt lat="48.8181" lon="2.44437">
        <ele>93.1</ele>
        <time>2015-04-27T20:24:45.958Z</time>
      </trkpt>
      <trkpt lat="48.81811" lon="2.44426">
        <ele>93.7</ele>
        <time>2015-04-27T20:24:46.875Z</time>
      </trkpt>
      <trkpt lat="48.81812" lon="2.44416">
        <ele>93.4</ele>
        <time>2015-04-27T20:24:47.873Z</time>
      </trkpt>
      <trkpt lat="48.81813" lon="2.44405">
        <ele>93.4</ele>
        <time>2015-04-27T20:24:48.892Z</time>
      </trkpt>
      <trkpt lat="48.81813" lon="2.44395">
        <ele>93.3</ele>
        <time>2015-04-27T20:24:49.896Z</time>
      </trkpt>
      <trkpt lat="48.81813" lon="2.44384">
        <ele>93.5</ele>
        <time>2015-04-27T20:24:50.904Z</time>
      </trkpt>
      <trkpt lat="48.81812" lon="2.44373">
        <ele>93.7</ele>
        <time>2015-04-27T20:24:51.927Z</time>
      </trkpt>
      <trkpt lat="48.81812" lon="2.44363">
        <ele>93.4</ele>
        <time>2015-04-27T20:24:52.941Z</time>
      </trkpt>
      <trkpt lat="48.81813" lon="2.44354">
        <ele>93.1</ele>
        <time>2015-04-27T20:24:53.958Z</time>
      </trkpt>
      <trkpt lat="48.81812" lon="2.44344">
        <ele>92.7</ele>
        <time>2015-04-27T20:24:54.849Z</time>
      </trkpt>
      <trkpt lat="48.81812" lon="2.44334">
        <ele>92.1</ele>
        <time>2015-04-27T20:24:55.848Z</time>
      </trkpt>
      <trkpt lat="48.81813" lon="2.44325">
        <ele>91.5</ele>
        <time>2015-04-27T20:24:56.890Z</time>
      </trkpt>
      <trkpt lat="48.81812" lon="2.44316">
        <ele>91.1</ele>
        <time>2015-04-27T20:24:57.890Z</time>
      </trkpt>
      <trkpt lat="48.81812" lon="2.44307">
        <ele>90.5</ele>
        <time>2015-04-27T20:24:58.910Z</time>
      </trkpt>
      <trkpt lat="48.81812" lon="2.443">
        <ele>90.3</ele>
        <time>2015-04-27T20:24:59.915Z</time>
      </trkpt>
      <trkpt lat="48.8181" lon="2.44291">
        <ele>90</ele>
        <time>2015-04-27T20:25:00.925Z</time>
      </trkpt>
      <trkpt lat="48.81809" lon="2.44281">
        <ele>89.6</ele>
        <time>2015-04-27T20:25:01.935Z</time>
      </trkpt>
      <trkpt lat="48.81806" lon="2.44272">
        <ele>89.4</ele>
        <time>2015-04-27T20:25:02.966Z</time>
      </trkpt>
      <trkpt lat="48.81804" lon="2.44262">
        <ele>89</ele>
        <time>2015-04-27T20:25:03.977Z</time>
      </trkpt>
      <trkpt lat="48.81801" lon="2.44252">
        <ele>88.3</ele>
        <time>2015-04-27T20:25:04.868Z</time>
      </trkpt>
      <trkpt lat="48.81799" lon="2.44242">
        <ele>87.8</ele>
        <time>2015-04-27T20:25:05.888Z</time>
      </trkpt>
      <trkpt lat="48.81798" lon="2.44233">
        <ele>87.7</ele>
        <time>2015-04-27T20:25:06.917Z</time>
      </trkpt>
      <trkpt lat="48.81797" lon="2.44223">
        <ele>87.9</ele>
        <time>2015-04-27T20:25:07.927Z</time>
      </trkpt>
      <trkpt lat="48.81797" lon="2.44213">
        <ele>88.1</ele>
        <time>2015-04-27T20:25:08.941Z</time>
      </trkpt>
      <trkpt lat="48.81797" lon="2.44203">
        <ele>88.2</ele>
        <time>2015-04-27T20:25:09.945Z</time>
      </trkpt>
      <trkpt lat="48.81798" lon="2.44192">
        <ele>87.9</ele>
        <time>2015-04-27T20:25:10.846Z</time>
      </trkpt>
      <trkpt lat="48.81799" lon="2.44183">
        <ele>88.2</ele>
        <time>2015-04-27T20:25:11.867Z</time>
      </trkpt>
      <trkpt lat="48.818" lon="2.44174">
        <ele>88.2</ele>
        <time>2015-04-27T20:25:12.890Z</time>
      </trkpt>
      <trkpt lat="48.81803" lon="2.44167">
        <ele>88.3</ele>
        <time>2015-04-27T20:25:13.894Z</time>
      </trkpt>
      <trkpt lat="48.81806" lon="2.44159">
        <ele>88.3</ele>
        <time>2015-04-27T20:25:14.904Z</time>
      </trkpt>
      <trkpt lat="48.81808" lon="2.44151">
        <ele>88.2</ele>
        <time>2015-04-27T20:25:15.911Z</time>
      </trkpt>
      <trkpt lat="48.81811" lon="2.44144">
        <ele>88</ele>
        <time>2015-04-27T20:25:16.929Z</time>
      </trkpt>
      <trkpt lat="48.81813" lon="2.44136">
        <ele>88.1</ele>
        <time>2015-04-27T20:25:17.964Z</time>
      </trkpt>
      <trkpt lat="48.81816" lon="2.44129">
        <ele>88.6</ele>
        <time>2015-04-27T20:25:18.864Z</time>
      </trkpt>
      <trkpt lat="48.81818" lon="2.44122">
        <ele>88.8</ele>
        <time>2015-04-27T20:25:20.000Z</time>
      </trkpt>
      <trkpt lat="48.8182" lon="2.44115">
        <ele>89.3</ele>
        <time>2015-04-27T20:25:20.915Z</time>
      </trkpt>
      <trkpt lat="48.81821" lon="2.44107">
        <ele>89.5</ele>
        <time>2015-04-27T20:25:21.928Z</time>
      </trkpt>
      <trkpt lat="48.81823" lon="2.44099">
        <ele>89.3</ele>
        <time>2015-04-27T20:25:22.946Z</time>
      </trkpt>
      <trkpt lat="48.81825" lon="2.44091">
        <ele>89.4</ele>
        <time>2015-04-27T20:25:23.954Z</time>
      </trkpt>
      <trkpt lat="48.81826" lon="2.44082">
        <ele>88.9</ele>
        <time>2015-04-27T20:25:24.963Z</time>
      </trkpt>
      <trkpt lat="48.81827" lon="2.44074">
        <ele>88.6</ele>
        <time>2015-04-27T20:25:25.976Z</time>
      </trkpt>
      <trkpt lat="48.81829" lon="2.44067">
        <ele>88.5</ele>
        <time>2015-04-27T20:25:27.025Z</time>
      </trkpt>
      <trkpt lat="48.81833" lon="2.44061">
        <ele>88.5</ele>
        <time>2015-04-27T20:25:27.998Z</time>
      </trkpt>
      <trkpt lat="48.81835" lon="2.44054">
        <ele>88.1</ele>
        <time>2015-04-27T20:25:28.882Z</time>
      </trkpt>
      <trkpt lat="48.81837" lon="2.44046">
        <ele>87.9</ele>
        <time>2015-04-27T20:25:29.882Z</time>
      </trkpt>
      <trkpt lat="48.81839" lon="2.44039">
        <ele>87.9</ele>
        <time>2015-04-27T20:25:30.910Z</time>
      </trkpt>
      <trkpt lat="48.81841" lon="2.44031">
        <ele>87.8</ele>
        <time>2015-04-27T20:25:31.920Z</time>
      </trkpt>
      <trkpt lat="48.81841" lon="2.44021">
        <ele>87.9</ele>
        <time>2015-04-27T20:25:32.929Z</time>
      </trkpt>
      <trkpt lat="48.81843" lon="2.44012">
        <ele>88.1</ele>
        <time>2015-04-27T20:25:33.933Z</time>
      </trkpt>
      <trkpt lat="48.81845" lon="2.44005">
        <ele>88.4</ele>
        <time>2015-04-27T20:25:34.957Z</time>
      </trkpt>
      <trkpt lat="48.81847" lon="2.43998">
        <ele>88.8</ele>
        <time>2015-04-27T20:25:35.966Z</time>
      </trkpt>
      <trkpt lat="48.81848" lon="2.4399">
        <ele>89.1</ele>
        <time>2015-04-27T20:25:36.877Z</time>
      </trkpt>
      <trkpt lat="48.81849" lon="2.43982">
        <ele>89.6</ele>
        <time>2015-04-27T20:25:37.906Z</time>
      </trkpt>
      <trkpt lat="48.81848" lon="2.43974">
        <ele>90.1</ele>
        <time>2015-04-27T20:25:38.908Z</time>
      </trkpt>
      <trkpt lat="48.81847" lon="2.43965">
        <ele>89.9</ele>
        <time>2015-04-27T20:25:39.935Z</time>
      </trkpt>
      <trkpt lat="48.81849" lon="2.43958">
        <ele>90.2</ele>
        <time>2015-04-27T20:25:40.952Z</time>
      </trkpt>
      <trkpt lat="48.8185" lon="2.43951">
        <ele>90.3</ele>
        <time>2015-04-27T20:25:41.957Z</time>
      </trkpt>
      <trkpt lat="48.81849" lon="2.43942">
        <ele>90.2</ele>
        <time>2015-04-27T20:25:42.869Z</time>
      </trkpt>
      <trkpt lat="48.81848" lon="2.43933">
        <ele>90.1</ele>
        <time>2015-04-27T20:25:43.873Z</time>
      </trkpt>
      <trkpt lat="48.81847" lon="2.43923">
        <ele>90.2</ele>
        <time>2015-04-27T20:25:44.978Z</time>
      </trkpt>
      <trkpt lat="48.81847" lon="2.43913">
        <ele>90.2</ele>
        <time>2015-04-27T20:25:45.982Z</time>
      </trkpt>
      <trkpt lat="48.81846" lon="2.43902">
        <ele>90.5</ele>
        <time>2015-04-27T20:25:46.878Z</time>
      </trkpt>
      <trkpt lat="48.81845" lon="2.43891">
        <ele>91</ele>
        <time>2015-04-27T20:25:47.883Z</time>
      </trkpt>
      <trkpt lat="48.81844" lon="2.43881">
        <ele>91.2</ele>
        <time>2015-04-27T20:25:48.899Z</time>
      </trkpt>
      <trkpt lat="48.81842" lon="2.43872">
        <ele>91.2</ele>
        <time>2015-04-27T20:25:49.933Z</time>
      </trkpt>
      <trkpt lat="48.8184" lon="2.43861">
        <ele>91.2</ele>
        <time>2015-04-27T20:25:50.933Z</time>
      </trkpt>
      <trkpt lat="48.81838" lon="2.43851">
        <ele>91.5</ele>
        <time>2015-04-27T20:25:51.946Z</time>
      </trkpt>
      <trkpt lat="48.81838" lon="2.43841">
        <ele>91.6</ele>
        <time>2015-04-27T20:25:52.965Z</time>
      </trkpt>
      <trkpt lat="48.81838" lon="2.4383">
        <ele>91.6</ele>
        <time>2015-04-27T20:25:53.859Z</time>
      </trkpt>
      <trkpt lat="48.81837" lon="2.43819">
        <ele>91.6</ele>
        <time>2015-04-27T20:25:54.890Z</time>
      </trkpt>
      <trkpt lat="48.81837" lon="2.43809">
        <ele>91.3</ele>
        <time>2015-04-27T20:25:55.894Z</time>
      </trkpt>
      <trkpt lat="48.81838" lon="2.43799">
        <ele>91.3</ele>
        <time>2015-04-27T20:25:56.896Z</time>
      </trkpt>
      <trkpt lat="48.81837" lon="2.43788">
        <ele>91.1</ele>
        <time>2015-04-27T20:25:57.901Z</time>
      </trkpt>
      <trkpt lat="48.81839" lon="2.43779">
        <ele>91.3</ele>
        <time>2015-04-27T20:25:58.922Z</time>
      </trkpt>
      <trkpt lat="48.81838" lon="2.43768">
        <ele>91.7</ele>
        <time>2015-04-27T20:25:59.931Z</time>
      </trkpt>
      <trkpt lat="48.81837" lon="2.43756">
        <ele>91.6</ele>
        <time>2015-04-27T20:26:00.935Z</time>
      </trkpt>
      <trkpt lat="48.81834" lon="2.43743">
        <ele>91.7</ele>
        <time>2015-04-27T20:26:01.876Z</time>
      </trkpt>
      <trkpt lat="48.81832" lon="2.4373">
        <ele>91.6</ele>
        <time>2015-04-27T20:26:02.885Z</time>
      </trkpt>
      <trkpt lat="48.81829" lon="2.43717">
        <ele>91.7</ele>
        <time>2015-04-27T20:26:03.921Z</time>
      </trkpt>
      <trkpt lat="48.81829" lon="2.43707">
        <ele>91.7</ele>
        <time>2015-04-27T20:26:05.007Z</time>
      </trkpt>
      <trkpt lat="48.81826" lon="2.43693">
        <ele>91.6</ele>
        <time>2015-04-27T20:26:05.967Z</time>
      </trkpt>
      <trkpt lat="48.81824" lon="2.43681">
        <ele>91.5</ele>
        <time>2015-04-27T20:26:06.869Z</time>
      </trkpt>
      <trkpt lat="48.81823" lon="2.4367">
        <ele>91.4</ele>
        <time>2015-04-27T20:26:07.921Z</time>
      </trkpt>
      <trkpt lat="48.81822" lon="2.4366">
        <ele>91.2</ele>
        <time>2015-04-27T20:26:08.902Z</time>
      </trkpt>
      <trkpt lat="48.8182" lon="2.43649">
        <ele>90.8</ele>
        <time>2015-04-27T20:26:09.899Z</time>
      </trkpt>
      <trkpt lat="48.81821" lon="2.4364">
        <ele>91</ele>
        <time>2015-04-27T20:26:10.925Z</time>
      </trkpt>
      <trkpt lat="48.81821" lon="2.43629">
        <ele>90.8</ele>
        <time>2015-04-27T20:26:11.937Z</time>
      </trkpt>
      <trkpt lat="48.8182" lon="2.4362">
        <ele>90.6</ele>
        <time>2015-04-27T20:26:12.949Z</time>
      </trkpt>
      <trkpt lat="48.8182" lon="2.4361">
        <ele>90.6</ele>
        <time>2015-04-27T20:26:13.960Z</time>
      </trkpt>
      <trkpt lat="48.81819" lon="2.43601">
        <ele>90.8</ele>
        <time>2015-04-27T20:26:14.970Z</time>
      </trkpt>
      <trkpt lat="48.81819" lon="2.43592">
        <ele>90.5</ele>
        <time>2015-04-27T20:26:15.894Z</time>
      </trkpt>
      <trkpt lat="48.81819" lon="2.43583">
        <ele>90.4</ele>
        <time>2015-04-27T20:26:16.910Z</time>
      </trkpt>
      <trkpt lat="48.81819" lon="2.43573">
        <ele>90.7</ele>
        <time>2015-04-27T20:26:17.914Z</time>
      </trkpt>
      <trkpt lat="48.8182" lon="2.43564">
        <ele>91.4</ele>
        <time>2015-04-27T20:26:18.931Z</time>
      </trkpt>
      <trkpt lat="48.81819" lon="2.43554">
        <ele>91.5</ele>
        <time>2015-04-27T20:26:19.936Z</time>
      </trkpt>
      <trkpt lat="48.81818" lon="2.43546">
        <ele>91.3</ele>
        <time>2015-04-27T20:26:20.962Z</time>
      </trkpt>
      <trkpt lat="48.81817" lon="2.43536">
        <ele>91.1</ele>
        <time>2015-04-27T20:26:21.969Z</time>
      </trkpt>
      <trkpt lat="48.81815" lon="2.43527">
        <ele>91</ele>
        <time>2015-04-27T20:26:22.855Z</time>
      </trkpt>
      <trkpt lat="48.81815" lon="2.43519">
        <ele>90.8</ele>
        <time>2015-04-27T20:26:23.864Z</time>
      </trkpt>
      <trkpt lat="48.81815" lon="2.43511">
        <ele>90.5</ele>
        <time>2015-04-27T20:26:24.897Z</time>
      </trkpt>
      <trkpt lat="48.81815" lon="2.43503">
        <ele>90</ele>
        <time>2015-04-27T20:26:25.906Z</time>
      </trkpt>
      <trkpt lat="48.81815" lon="2.43494">
        <ele>90.2</ele>
        <time>2015-04-27T20:26:26.922Z</time>
      </trkpt>
      <trkpt lat="48.81815" lon="2.43487">
        <ele>90.3</ele>
        <time>2015-04-27T20:26:27.931Z</time>
      </trkpt>
      <trkpt lat="48.81814" lon="2.43478">
        <ele>90.3</ele>
        <time>2015-04-27T20:26:28.855Z</time>
      </trkpt>
      <trkpt lat="48.81814" lon="2.4347">
        <ele>89.9</ele>
        <time>2015-04-27T20:26:29.868Z</time>
      </trkpt>
      <trkpt lat="48.81812" lon="2.43462">
        <ele>89.3</ele>
        <time>2015-04-27T20:26:30.880Z</time>
      </trkpt>
      <trkpt lat="48.81813" lon="2.43454">
        <ele>89.3</ele>
        <time>2015-04-27T20:26:31.897Z</time>
      </trkpt>
      <trkpt lat="48.81815" lon="2.43448">
        <ele>89</ele>
        <time>2015-04-27T20:26:32.906Z</time>
      </trkpt>
      <trkpt lat="48.81817" lon="2.4344">
        <ele>89.2</ele>
        <time>2015-04-27T20:26:33.926Z</time>
      </trkpt>
      <trkpt lat="48.8182" lon="2.43428">
        <ele>88.7</ele>
        <time>2015-04-27T20:26:35.859Z</time>
      </trkpt>
      <trkpt lat="48.81822" lon="2.43423">
        <ele>88.2</ele>
        <time>2015-04-27T20:26:36.871Z</time>
      </trkpt>
      <trkpt lat="48.81823" lon="2.43409">
        <ele>88</ele>
        <time>2015-04-27T20:26:39.126Z</time>
      </trkpt>
      <trkpt lat="48.81821" lon="2.43401">
        <ele>88.1</ele>
        <time>2015-04-27T20:26:39.927Z</time>
      </trkpt>
      <trkpt lat="48.8182" lon="2.43393">
        <ele>88.1</ele>
        <time>2015-04-27T20:26:40.935Z</time>
      </trkpt>
      <trkpt lat="48.81818" lon="2.43385">
        <ele>88.2</ele>
        <time>2015-04-27T20:26:41.944Z</time>
      </trkpt>
      <trkpt lat="48.81818" lon="2.43378">
        <ele>88.1</ele>
        <time>2015-04-27T20:26:42.896Z</time>
      </trkpt>
      <trkpt lat="48.81818" lon="2.4337">
        <ele>88.1</ele>
        <time>2015-04-27T20:26:43.891Z</time>
      </trkpt>
      <trkpt lat="48.81817" lon="2.43364">
        <ele>87.8</ele>
        <time>2015-04-27T20:26:44.903Z</time>
      </trkpt>
      <trkpt lat="48.81818" lon="2.43356">
        <ele>87.8</ele>
        <time>2015-04-27T20:26:45.924Z</time>
      </trkpt>
      <trkpt lat="48.81816" lon="2.43348">
        <ele>88.1</ele>
        <time>2015-04-27T20:26:46.865Z</time>
      </trkpt>
      <trkpt lat="48.81814" lon="2.4334">
        <ele>88.3</ele>
        <time>2015-04-27T20:26:47.889Z</time>
      </trkpt>
      <trkpt lat="48.81813" lon="2.43328">
        <ele>88.4</ele>
        <time>2015-04-27T20:26:49.930Z</time>
      </trkpt>
      <trkpt lat="48.81813" lon="2.43321">
        <ele>88.4</ele>
        <time>2015-04-27T20:26:50.947Z</time>
      </trkpt>
      <trkpt lat="48.8181" lon="2.43309">
        <ele>87.9</ele>
        <time>2015-04-27T20:26:52.917Z</time>
      </trkpt>
      <trkpt lat="48.81809" lon="2.43303">
        <ele>87.9</ele>
        <time>2015-04-27T20:26:54.008Z</time>
      </trkpt>
      <trkpt lat="48.8181" lon="2.43291">
        <ele>87.7</ele>
        <time>2015-04-27T20:26:55.915Z</time>
      </trkpt>
      <trkpt lat="48.81809" lon="2.43284">
        <ele>87.7</ele>
        <time>2015-04-27T20:26:56.959Z</time>
      </trkpt>
      <trkpt lat="48.81809" lon="2.43277">
        <ele>87.6</ele>
        <time>2015-04-27T20:26:57.984Z</time>
      </trkpt>
      <trkpt lat="48.81808" lon="2.43271">
        <ele>87.7</ele>
        <time>2015-04-27T20:26:58.881Z</time>
      </trkpt>
      <trkpt lat="48.81807" lon="2.43257">
        <ele>87.5</ele>
        <time>2015-04-27T20:27:00.876Z</time>
      </trkpt>
      <trkpt lat="48.81807" lon="2.43251">
        <ele>87.2</ele>
        <time>2015-04-27T20:27:01.906Z</time>
      </trkpt>
      <trkpt lat="48.81808" lon="2.43238">
        <ele>87.2</ele>
        <time>2015-04-27T20:27:03.892Z</time>
      </trkpt>
      <trkpt lat="48.81808" lon="2.43231">
        <ele>87.2</ele>
        <time>2015-04-27T20:27:04.899Z</time>
      </trkpt>
      <trkpt lat="48.81808" lon="2.43225">
        <ele>87.5</ele>
        <time>2015-04-27T20:27:06.001Z</time>
      </trkpt>
      <trkpt lat="48.81808" lon="2.43217">
        <ele>87.7</ele>
        <time>2015-04-27T20:27:06.890Z</time>
      </trkpt>
      <trkpt lat="48.8181" lon="2.43205">
        <ele>87.6</ele>
        <time>2015-04-27T20:27:08.951Z</time>
      </trkpt>
      <trkpt lat="48.8181" lon="2.432">
        <ele>87.7</ele>
        <time>2015-04-27T20:27:09.958Z</time>
      </trkpt>
      <trkpt lat="48.81811" lon="2.43188">
        <ele>87.8</ele>
        <time>2015-04-27T20:27:11.901Z</time>
      </trkpt>
      <trkpt lat="48.81813" lon="2.43183">
        <ele>88</ele>
        <time>2015-04-27T20:27:12.902Z</time>
      </trkpt>
      <trkpt lat="48.81815" lon="2.43172">
        <ele>87.9</ele>
        <time>2015-04-27T20:27:14.947Z</time>
      </trkpt>
      <trkpt lat="48.81814" lon="2.43165">
        <ele>87.7</ele>
        <time>2015-04-27T20:27:15.951Z</time>
      </trkpt>
      <trkpt lat="48.81814" lon="2.43158">
        <ele>87.7</ele>
        <time>2015-04-27T20:27:17.548Z</time>
      </trkpt>
      <trkpt lat="48.81814" lon="2.43151">
        <ele>87.5</ele>
        <time>2015-04-27T20:27:17.904Z</time>
      </trkpt>
      <trkpt lat="48.81815" lon="2.43141">
        <ele>87.2</ele>
        <time>2015-04-27T20:27:19.935Z</time>
      </trkpt>
      <trkpt lat="48.81815" lon="2.43135">
        <ele>87</ele>
        <time>2015-04-27T20:27:20.943Z</time>
      </trkpt>
      <trkpt lat="48.81814" lon="2.43121">
        <ele>86.9</ele>
        <time>2015-04-27T20:27:22.836Z</time>
      </trkpt>
      <trkpt lat="48.81813" lon="2.43113">
        <ele>86.6</ele>
        <time>2015-04-27T20:27:23.867Z</time>
      </trkpt>
      <trkpt lat="48.81811" lon="2.43104">
        <ele>86.4</ele>
        <time>2015-04-27T20:27:24.867Z</time>
      </trkpt>
      <trkpt lat="48.81809" lon="2.43098">
        <ele>86.1</ele>
        <time>2015-04-27T20:27:25.867Z</time>
      </trkpt>
      <trkpt lat="48.81807" lon="2.43085">
        <ele>85.9</ele>
        <time>2015-04-27T20:27:27.886Z</time>
      </trkpt>
      <trkpt lat="48.81808" lon="2.4308">
        <ele>85.7</ele>
        <time>2015-04-27T20:27:28.904Z</time>
      </trkpt>
      <trkpt lat="48.81806" lon="2.43072">
        <ele>85.7</ele>
        <time>2015-04-27T20:27:29.917Z</time>
      </trkpt>
      <trkpt lat="48.81808" lon="2.43064">
        <ele>85.5</ele>
        <time>2015-04-27T20:27:30.930Z</time>
      </trkpt>
      <trkpt lat="48.81811" lon="2.43053">
        <ele>85.8</ele>
        <time>2015-04-27T20:27:32.999Z</time>
      </trkpt>
      <trkpt lat="48.81813" lon="2.43047">
        <ele>85.9</ele>
        <time>2015-04-27T20:27:33.895Z</time>
      </trkpt>
      <trkpt lat="48.81814" lon="2.43035">
        <ele>86.1</ele>
        <time>2015-04-27T20:27:35.929Z</time>
      </trkpt>
      <trkpt lat="48.81813" lon="2.43028">
        <ele>86.3</ele>
        <time>2015-04-27T20:27:37.068Z</time>
      </trkpt>
      <trkpt lat="48.81811" lon="2.43021">
        <ele>86.3</ele>
        <time>2015-04-27T20:27:37.951Z</time>
      </trkpt>
      <trkpt lat="48.8181" lon="2.43014">
        <ele>86.1</ele>
        <time>2015-04-27T20:27:38.879Z</time>
      </trkpt>
      <trkpt lat="48.8181" lon="2.43008">
        <ele>86.2</ele>
        <time>2015-04-27T20:27:40.802Z</time>
      </trkpt>
      <trkpt lat="48.81807" lon="2.42999">
        <ele>86.3</ele>
        <time>2015-04-27T20:27:40.899Z</time>
      </trkpt>
      <trkpt lat="48.81805" lon="2.42989">
        <ele>86.4</ele>
        <time>2015-04-27T20:27:41.917Z</time>
      </trkpt>
      <trkpt lat="48.818" lon="2.42978">
        <ele>86.5</ele>
        <time>2015-04-27T20:27:42.927Z</time>
      </trkpt>
      <trkpt lat="48.81798" lon="2.4297">
        <ele>86.7</ele>
        <time>2015-04-27T20:27:43.955Z</time>
      </trkpt>
      <trkpt lat="48.81795" lon="2.4296">
        <ele>86.6</ele>
        <time>2015-04-27T20:27:44.967Z</time>
      </trkpt>
      <trkpt lat="48.81794" lon="2.42952">
        <ele>87</ele>
        <time>2015-04-27T20:27:45.906Z</time>
      </trkpt>
      <trkpt lat="48.81793" lon="2.42944">
        <ele>87.1</ele>
        <time>2015-04-27T20:27:46.918Z</time>
      </trkpt>
      <trkpt lat="48.81794" lon="2.42932">
        <ele>87.5</ele>
        <time>2015-04-27T20:27:48.852Z</time>
      </trkpt>
      <trkpt lat="48.81792" lon="2.42925">
        <ele>87.5</ele>
        <time>2015-04-27T20:27:49.877Z</time>
      </trkpt>
      <trkpt lat="48.8179" lon="2.42916">
        <ele>87.5</ele>
        <time>2015-04-27T20:27:50.883Z</time>
      </trkpt>
      <trkpt lat="48.8179" lon="2.4291">
        <ele>87.5</ele>
        <time>2015-04-27T20:27:51.927Z</time>
      </trkpt>
      <trkpt lat="48.8179" lon="2.42903">
        <ele>87.3</ele>
        <time>2015-04-27T20:27:52.959Z</time>
      </trkpt>
      <trkpt lat="48.81791" lon="2.42896">
        <ele>87.2</ele>
        <time>2015-04-27T20:27:53.881Z</time>
      </trkpt>
      <trkpt lat="48.81791" lon="2.42889">
        <ele>87.3</ele>
        <time>2015-04-27T20:27:54.981Z</time>
      </trkpt>
      <trkpt lat="48.81791" lon="2.42882">
        <ele>87.1</ele>
        <time>2015-04-27T20:27:55.893Z</time>
      </trkpt>
      <trkpt lat="48.81791" lon="2.42874">
        <ele>86.1</ele>
        <time>2015-04-27T20:27:56.912Z</time>
      </trkpt>
      <trkpt lat="48.81791" lon="2.42867">
        <ele>85.7</ele>
        <time>2015-04-27T20:27:57.917Z</time>
      </trkpt>
      <trkpt lat="48.81792" lon="2.4286">
        <ele>86.4</ele>
        <time>2015-04-27T20:27:58.928Z</time>
      </trkpt>
      <trkpt lat="48.81792" lon="2.42853">
        <ele>86.6</ele>
        <time>2015-04-27T20:27:59.941Z</time>
      </trkpt>
      <trkpt lat="48.81792" lon="2.42844">
        <ele>86.2</ele>
        <time>2015-04-27T20:28:01.431Z</time>
      </trkpt>
      <trkpt lat="48.81791" lon="2.42835">
        <ele>86.1</ele>
        <time>2015-04-27T20:28:01.879Z</time>
      </trkpt>
      <trkpt lat="48.8179" lon="2.42827">
        <ele>85.9</ele>
        <time>2015-04-27T20:28:02.900Z</time>
      </trkpt>
      <trkpt lat="48.8179" lon="2.42819">
        <ele>85.9</ele>
        <time>2015-04-27T20:28:03.936Z</time>
      </trkpt>
      <trkpt lat="48.81789" lon="2.42811">
        <ele>86</ele>
        <time>2015-04-27T20:28:04.942Z</time>
      </trkpt>
      <trkpt lat="48.8179" lon="2.42803">
        <ele>86</ele>
        <time>2015-04-27T20:28:05.940Z</time>
      </trkpt>
      <trkpt lat="48.8179" lon="2.42795">
        <ele>85.8</ele>
        <time>2015-04-27T20:28:06.851Z</time>
      </trkpt>
      <trkpt lat="48.81791" lon="2.42787">
        <ele>85.6</ele>
        <time>2015-04-27T20:28:07.940Z</time>
      </trkpt>
      <trkpt lat="48.81792" lon="2.4278">
        <ele>85.3</ele>
        <time>2015-04-27T20:28:08.896Z</time>
      </trkpt>
      <trkpt lat="48.81792" lon="2.42772">
        <ele>85.1</ele>
        <time>2015-04-27T20:28:09.902Z</time>
      </trkpt>
      <trkpt lat="48.81792" lon="2.42763">
        <ele>85.2</ele>
        <time>2015-04-27T20:28:10.900Z</time>
      </trkpt>
      <trkpt lat="48.81792" lon="2.42754">
        <ele>85.4</ele>
        <time>2015-04-27T20:28:11.908Z</time>
      </trkpt>
      <trkpt lat="48.81792" lon="2.42746">
        <ele>85.5</ele>
        <time>2015-04-27T20:28:12.920Z</time>
      </trkpt>
      <trkpt lat="48.81792" lon="2.42737">
        <ele>85.6</ele>
        <time>2015-04-27T20:28:13.939Z</time>
      </trkpt>
      <trkpt lat="48.81792" lon="2.42727">
        <ele>86</ele>
        <time>2015-04-27T20:28:14.969Z</time>
      </trkpt>
      <trkpt lat="48.81793" lon="2.42718">
        <ele>86.6</ele>
        <time>2015-04-27T20:28:15.983Z</time>
      </trkpt>
      <trkpt lat="48.81791" lon="2.42707">
        <ele>87.6</ele>
        <time>2015-04-27T20:28:16.877Z</time>
      </trkpt>
      <trkpt lat="48.8179" lon="2.42697">
        <ele>88.3</ele>
        <time>2015-04-27T20:28:17.880Z</time>
      </trkpt>
      <trkpt lat="48.81788" lon="2.42687">
        <ele>89</ele>
        <time>2015-04-27T20:28:18.903Z</time>
      </trkpt>
      <trkpt lat="48.81787" lon="2.42678">
        <ele>89.5</ele>
        <time>2015-04-27T20:28:19.919Z</time>
      </trkpt>
      <trkpt lat="48.81785" lon="2.42669">
        <ele>89.8</ele>
        <time>2015-04-27T20:28:20.956Z</time>
      </trkpt>
      <trkpt lat="48.81785" lon="2.42661">
        <ele>90.1</ele>
        <time>2015-04-27T20:28:21.969Z</time>
      </trkpt>
      <trkpt lat="48.81784" lon="2.42653">
        <ele>90.4</ele>
        <time>2015-04-27T20:28:22.877Z</time>
      </trkpt>
      <trkpt lat="48.81784" lon="2.42646">
        <ele>90.8</ele>
        <time>2015-04-27T20:28:23.892Z</time>
      </trkpt>
      <trkpt lat="48.81787" lon="2.4264">
        <ele>90.7</ele>
        <time>2015-04-27T20:28:24.931Z</time>
      </trkpt>
      <trkpt lat="48.81787" lon="2.42632">
        <ele>91.3</ele>
        <time>2015-04-27T20:28:25.942Z</time>
      </trkpt>
      <trkpt lat="48.81786" lon="2.42624">
        <ele>91.8</ele>
        <time>2015-04-27T20:28:26.896Z</time>
      </trkpt>
      <trkpt lat="48.81784" lon="2.42613">
        <ele>93.6</ele>
        <time>2015-04-27T20:28:27.908Z</time>
      </trkpt>
      <trkpt lat="48.81785" lon="2.42606">
        <ele>94.1</ele>
        <time>2015-04-27T20:28:28.917Z</time>
      </trkpt>
      <trkpt lat="48.81785" lon="2.42598">
        <ele>94.1</ele>
        <time>2015-04-27T20:28:29.916Z</time>
      </trkpt>
      <trkpt lat="48.81785" lon="2.4259">
        <ele>94.1</ele>
        <time>2015-04-27T20:28:30.929Z</time>
      </trkpt>
      <trkpt lat="48.81787" lon="2.42584">
        <ele>94.3</ele>
        <time>2015-04-27T20:28:31.960Z</time>
      </trkpt>
      <trkpt lat="48.81788" lon="2.42573">
        <ele>94.7</ele>
        <time>2015-04-27T20:28:34.004Z</time>
      </trkpt>
      <trkpt lat="48.81788" lon="2.42566">
        <ele>94.6</ele>
        <time>2015-04-27T20:28:34.855Z</time>
      </trkpt>
      <trkpt lat="48.81786" lon="2.42559">
        <ele>94.7</ele>
        <time>2015-04-27T20:28:35.860Z</time>
      </trkpt>
      <trkpt lat="48.81786" lon="2.42551">
        <ele>94.8</ele>
        <time>2015-04-27T20:28:36.882Z</time>
      </trkpt>
      <trkpt lat="48.81785" lon="2.42538">
        <ele>94.5</ele>
        <time>2015-04-27T20:28:38.899Z</time>
      </trkpt>
      <trkpt lat="48.81784" lon="2.42532">
        <ele>94.3</ele>
        <time>2015-04-27T20:28:39.921Z</time>
      </trkpt>
      <trkpt lat="48.81785" lon="2.42525">
        <ele>94</ele>
        <time>2015-04-27T20:28:40.842Z</time>
      </trkpt>
      <trkpt lat="48.81787" lon="2.42518">
        <ele>93.9</ele>
        <time>2015-04-27T20:28:41.846Z</time>
      </trkpt>
      <trkpt lat="48.81789" lon="2.42506">
        <ele>93.4</ele>
        <time>2015-04-27T20:28:43.875Z</time>
      </trkpt>
      <trkpt lat="48.8179" lon="2.425">
        <ele>93.3</ele>
        <time>2015-04-27T20:28:44.904Z</time>
      </trkpt>
      <trkpt lat="48.81794" lon="2.42488">
        <ele>93.1</ele>
        <time>2015-04-27T20:28:46.860Z</time>
      </trkpt>
      <trkpt lat="48.81795" lon="2.42481">
        <ele>93.2</ele>
        <time>2015-04-27T20:28:47.878Z</time>
      </trkpt>
      <trkpt lat="48.81797" lon="2.42468">
        <ele>93.8</ele>
        <time>2015-04-27T20:28:49.872Z</time>
      </trkpt>
      <trkpt lat="48.81799" lon="2.42462">
        <ele>94.6</ele>
        <time>2015-04-27T20:28:50.927Z</time>
      </trkpt>
      <trkpt lat="48.81801" lon="2.42452">
        <ele>95.8</ele>
        <time>2015-04-27T20:28:52.885Z</time>
      </trkpt>
      <trkpt lat="48.81802" lon="2.42446">
        <ele>96.4</ele>
        <time>2015-04-27T20:28:53.893Z</time>
      </trkpt>
      <trkpt lat="48.81802" lon="2.42435">
        <ele>97.8</ele>
        <time>2015-04-27T20:33:35.855Z</time>
      </trkpt>
      <trkpt lat="48.81815" lon="2.42448">
        <ele>98.7</ele>
        <time>2015-04-27T20:33:36.883Z</time>
      </trkpt>
      <trkpt lat="48.81814" lon="2.42437">
        <ele>97.5</ele>
        <time>2015-04-27T20:33:39.959Z</time>
      </trkpt>
      <trkpt lat="48.81813" lon="2.42432">
        <ele>96.7</ele>
        <time>2015-04-27T20:33:40.885Z</time>
      </trkpt>
      <trkpt lat="48.81812" lon="2.42421">
        <ele>95.4</ele>
        <time>2015-04-27T20:33:42.858Z</time>
      </trkpt>
      <trkpt lat="48.81812" lon="2.42415">
        <ele>95.1</ele>
        <time>2015-04-27T20:33:43.887Z</time>
      </trkpt>
      <trkpt lat="48.81812" lon="2.42402">
        <ele>94.3</ele>
        <time>2015-04-27T20:33:45.892Z</time>
      </trkpt>
      <trkpt lat="48.81812" lon="2.42395">
        <ele>94.1</ele>
        <time>2015-04-27T20:33:46.907Z</time>
      </trkpt>
      <trkpt lat="48.81811" lon="2.42382">
        <ele>93.6</ele>
        <time>2015-04-27T20:33:48.871Z</time>
      </trkpt>
      <trkpt lat="48.81811" lon="2.42377">
        <ele>93.4</ele>
        <time>2015-04-27T20:33:49.896Z</time>
      </trkpt>
      <trkpt lat="48.8181" lon="2.42365">
        <ele>93.2</ele>
        <time>2015-04-27T20:33:51.977Z</time>
      </trkpt>
      <trkpt lat="48.8181" lon="2.4236">
        <ele>92.9</ele>
        <time>2015-04-27T20:33:52.907Z</time>
      </trkpt>
      <trkpt lat="48.81811" lon="2.42349">
        <ele>92.6</ele>
        <time>2015-04-27T20:33:54.901Z</time>
      </trkpt>
      <trkpt lat="48.8181" lon="2.42343">
        <ele>92.6</ele>
        <time>2015-04-27T20:33:55.924Z</time>
      </trkpt>
      <trkpt lat="48.8181" lon="2.42333">
        <ele>92.6</ele>
        <time>2015-04-27T20:33:57.982Z</time>
      </trkpt>
      <trkpt lat="48.8181" lon="2.42328">
        <ele>92.7</ele>
        <time>2015-04-27T20:33:58.905Z</time>
      </trkpt>
      <trkpt lat="48.81811" lon="2.42316">
        <ele>92.8</ele>
        <time>2015-04-27T20:34:01.899Z</time>
      </trkpt>
      <trkpt lat="48.81811" lon="2.42311">
        <ele>93</ele>
        <time>2015-04-27T20:34:02.911Z</time>
      </trkpt>
      <trkpt lat="48.81809" lon="2.42301">
        <ele>93.5</ele>
        <time>2015-04-27T20:34:04.894Z</time>
      </trkpt>
      <trkpt lat="48.81809" lon="2.42296">
        <ele>93.8</ele>
        <time>2015-04-27T20:34:05.876Z</time>
      </trkpt>
      <trkpt lat="48.81809" lon="2.42286">
        <ele>93.3</ele>
        <time>2015-04-27T20:34:07.902Z</time>
      </trkpt>
      <trkpt lat="48.81809" lon="2.42281">
        <ele>93.1</ele>
        <time>2015-04-27T20:34:08.906Z</time>
      </trkpt>
      <trkpt lat="48.8181" lon="2.42269">
        <ele>93</ele>
        <time>2015-04-27T20:34:10.945Z</time>
      </trkpt>
      <trkpt lat="48.81811" lon="2.42264">
        <ele>92.9</ele>
        <time>2015-04-27T20:34:11.860Z</time>
      </trkpt>
      <trkpt lat="48.81812" lon="2.42253">
        <ele>92.7</ele>
        <time>2015-04-27T20:34:13.886Z</time>
      </trkpt>
      <trkpt lat="48.81812" lon="2.42246">
        <ele>92.2</ele>
        <time>2015-04-27T20:34:14.898Z</time>
      </trkpt>
      <trkpt lat="48.81812" lon="2.42239">
        <ele>92</ele>
        <time>2015-04-27T20:34:15.922Z</time>
      </trkpt>
      <trkpt lat="48.81811" lon="2.42232">
        <ele>92.1</ele>
        <time>2015-04-27T20:34:16.931Z</time>
      </trkpt>
      <trkpt lat="48.8181" lon="2.42225">
        <ele>91.8</ele>
        <time>2015-04-27T20:34:17.943Z</time>
      </trkpt>
      <trkpt lat="48.81809" lon="2.42218">
        <ele>91.8</ele>
        <time>2015-04-27T20:34:18.951Z</time>
      </trkpt>
      <trkpt lat="48.81809" lon="2.42206">
        <ele>91.8</ele>
        <time>2015-04-27T20:34:21.137Z</time>
      </trkpt>
      <trkpt lat="48.8181" lon="2.422">
        <ele>91.7</ele>
        <time>2015-04-27T20:34:21.907Z</time>
      </trkpt>
      <trkpt lat="48.81812" lon="2.42188">
        <ele>91.8</ele>
        <time>2015-04-27T20:34:23.824Z</time>
      </trkpt>
      <trkpt lat="48.81813" lon="2.42182">
        <ele>92</ele>
        <time>2015-04-27T20:34:24.850Z</time>
      </trkpt>
      <trkpt lat="48.81816" lon="2.4217">
        <ele>92.1</ele>
        <time>2015-04-27T20:34:26.864Z</time>
      </trkpt>
      <trkpt lat="48.81818" lon="2.42166">
        <ele>92.2</ele>
        <time>2015-04-27T20:34:27.860Z</time>
      </trkpt>
      <trkpt lat="48.81821" lon="2.42161">
        <ele>92.4</ele>
        <time>2015-04-27T20:34:28.868Z</time>
      </trkpt>
      <trkpt lat="48.81824" lon="2.42154">
        <ele>92.9</ele>
        <time>2015-04-27T20:34:29.868Z</time>
      </trkpt>
      <trkpt lat="48.81826" lon="2.42144">
        <ele>94</ele>
        <time>2015-04-27T20:34:30.945Z</time>
      </trkpt>
      <trkpt lat="48.81827" lon="2.42134">
        <ele>94.4</ele>
        <time>2015-04-27T20:34:31.857Z</time>
      </trkpt>
      <trkpt lat="48.81827" lon="2.42127">
        <ele>94.3</ele>
        <time>2015-04-27T20:34:32.596Z</time>
      </trkpt>
      <trkpt lat="48.81826" lon="2.4212">
        <ele>93.8</ele>
        <time>2015-04-27T20:34:33.905Z</time>
      </trkpt>
      <trkpt lat="48.81826" lon="2.42113">
        <ele>93.6</ele>
        <time>2015-04-27T20:34:35.804Z</time>
      </trkpt>
      <trkpt lat="48.81826" lon="2.42106">
        <ele>93.5</ele>
        <time>2015-04-27T20:34:35.924Z</time>
      </trkpt>
      <trkpt lat="48.81826" lon="2.42094">
        <ele>93.2</ele>
        <time>2015-04-27T20:34:37.861Z</time>
      </trkpt>
      <trkpt lat="48.81827" lon="2.42088">
        <ele>93.2</ele>
        <time>2015-04-27T20:34:38.855Z</time>
      </trkpt>
      <trkpt lat="48.8183" lon="2.42076">
        <ele>93.1</ele>
        <time>2015-04-27T20:34:40.934Z</time>
      </trkpt>
      <trkpt lat="48.8183" lon="2.4207">
        <ele>93.1</ele>
        <time>2015-04-27T20:34:41.925Z</time>
      </trkpt>
      <trkpt lat="48.81831" lon="2.42064">
        <ele>92.9</ele>
        <time>2015-04-27T20:34:42.842Z</time>
      </trkpt>
      <trkpt lat="48.81832" lon="2.42056">
        <ele>93.6</ele>
        <time>2015-04-27T20:34:43.856Z</time>
      </trkpt>
      <trkpt lat="48.81832" lon="2.42048">
        <ele>94</ele>
        <time>2015-04-27T20:34:44.872Z</time>
      </trkpt>
      <trkpt lat="48.81833" lon="2.42041">
        <ele>94.2</ele>
        <time>2015-04-27T20:34:45.885Z</time>
      </trkpt>
      <trkpt lat="48.81832" lon="2.42029">
        <ele>94.8</ele>
        <time>2015-04-27T20:34:47.925Z</time>
      </trkpt>
      <trkpt lat="48.81832" lon="2.42022">
        <ele>95.1</ele>
        <time>2015-04-27T20:34:48.923Z</time>
      </trkpt>
      <trkpt lat="48.81832" lon="2.4201">
        <ele>95.5</ele>
        <time>2015-04-27T20:34:51.161Z</time>
      </trkpt>
      <trkpt lat="48.81831" lon="2.42005">
        <ele>95.6</ele>
        <time>2015-04-27T20:34:51.894Z</time>
      </trkpt>
      <trkpt lat="48.8183" lon="2.41995">
        <ele>96.6</ele>
        <time>2015-04-27T20:34:53.944Z</time>
      </trkpt>
      <trkpt lat="48.81831" lon="2.41991">
        <ele>96.8</ele>
        <time>2015-04-27T20:34:54.855Z</time>
      </trkpt>
      <trkpt lat="48.81835" lon="2.41979">
        <ele>96.5</ele>
        <time>2015-04-27T20:34:59.905Z</time>
      </trkpt>
      <trkpt lat="48.81835" lon="2.41977">
        <ele>96.3</ele>
        <time>2015-04-27T20:35:00.913Z</time>
      </trkpt>
      <trkpt lat="48.81841" lon="2.41968">
        <ele>96</ele>
        <time>2015-04-27T20:35:04.863Z</time>
      </trkpt>
      <trkpt lat="48.81843" lon="2.41967">
        <ele>96</ele>
        <time>2015-04-27T20:35:05.919Z</time>
      </trkpt>
      <trkpt lat="48.81843" lon="2.41963">
        <ele>96.4</ele>
        <time>2015-04-27T20:37:25.894Z</time>
      </trkpt>
      <trkpt lat="48.81844" lon="2.41944">
        <ele>100.5</ele>
        <time>2015-04-27T20:37:26.903Z</time>
      </trkpt>
      <trkpt lat="48.81845" lon="2.41933">
        <ele>98.9</ele>
        <time>2015-04-27T20:37:30.955Z</time>
      </trkpt>
      <trkpt lat="48.81846" lon="2.4193">
        <ele>98.9</ele>
        <time>2015-04-27T20:37:31.879Z</time>
      </trkpt>
      <trkpt lat="48.81847" lon="2.41918">
        <ele>99.2</ele>
        <time>2015-04-27T20:37:35.732Z</time>
      </trkpt>
      <trkpt lat="48.81847" lon="2.41914">
        <ele>99.2</ele>
        <time>2015-04-27T20:37:35.912Z</time>
      </trkpt>
      <trkpt lat="48.81848" lon="2.41904">
        <ele>99.6</ele>
        <time>2015-04-27T20:37:38.875Z</time>
      </trkpt>
      <trkpt lat="48.81848" lon="2.419">
        <ele>99.6</ele>
        <time>2015-04-27T20:37:39.939Z</time>
      </trkpt>
      <trkpt lat="48.81854" lon="2.4189">
        <ele>99.3</ele>
        <time>2015-04-27T20:37:42.957Z</time>
      </trkpt>
      <trkpt lat="48.81855" lon="2.41886">
        <ele>99.3</ele>
        <time>2015-04-27T20:37:43.936Z</time>
      </trkpt>
      <trkpt lat="48.81858" lon="2.41875">
        <ele>99.6</ele>
        <time>2015-04-27T20:37:46.838Z</time>
      </trkpt>
      <trkpt lat="48.81859" lon="2.41872">
        <ele>99.7</ele>
        <time>2015-04-27T20:37:47.933Z</time>
      </trkpt>
      <trkpt lat="48.81863" lon="2.41862">
        <ele>99.8</ele>
        <time>2015-04-27T20:37:50.957Z</time>
      </trkpt>
      <trkpt lat="48.81864" lon="2.4186">
        <ele>99.9</ele>
        <time>2015-04-27T20:37:51.896Z</time>
      </trkpt>
      <trkpt lat="48.81869" lon="2.41851">
        <ele>99.9</ele>
        <time>2015-04-27T20:37:56.076Z</time>
      </trkpt>
      <trkpt lat="48.81869" lon="2.41847">
        <ele>100</ele>
        <time>2015-04-27T20:37:56.848Z</time>
      </trkpt>
      <trkpt lat="48.81874" lon="2.41837">
        <ele>99.6</ele>
        <time>2015-04-27T20:38:01.138Z</time>
      </trkpt>
      <trkpt lat="48.81874" lon="2.41834">
        <ele>99.8</ele>
        <time>2015-04-27T20:38:01.869Z</time>
      </trkpt>
      <trkpt lat="48.81879" lon="2.41823">
        <ele>100.1</ele>
        <time>2015-04-27T20:38:08.000Z</time>
      </trkpt>
      <trkpt lat="48.81878" lon="2.4182">
        <ele>100.5</ele>
        <time>2015-04-27T20:38:08.938Z</time>
      </trkpt>
      <trkpt lat="48.81882" lon="2.41812">
        <ele>101</ele>
        <time>2015-04-27T20:38:11.878Z</time>
      </trkpt>
      <trkpt lat="48.81881" lon="2.41807">
        <ele>101.5</ele>
        <time>2015-04-27T20:38:12.884Z</time>
      </trkpt>
      <trkpt lat="48.81886" lon="2.41798">
        <ele>102</ele>
        <time>2015-04-27T20:38:16.433Z</time>
      </trkpt>
      <trkpt lat="48.81888" lon="2.41795">
        <ele>102.1</ele>
        <time>2015-04-27T20:38:16.859Z</time>
      </trkpt>
      <trkpt lat="48.8189" lon="2.41784">
        <ele>102.1</ele>
        <time>2015-04-27T20:38:21.514Z</time>
      </trkpt>
      <trkpt lat="48.81891" lon="2.41781">
        <ele>102.2</ele>
        <time>2015-04-27T20:38:22.095Z</time>
      </trkpt>
      <trkpt lat="48.81895" lon="2.41774">
        <ele>102.6</ele>
        <time>2015-04-27T20:38:23.868Z</time>
      </trkpt>
      <trkpt lat="48.81898" lon="2.41771">
        <ele>102.7</ele>
        <time>2015-04-27T20:38:24.879Z</time>
      </trkpt>
      <trkpt lat="48.81901" lon="2.41759">
        <ele>102.8</ele>
        <time>2015-04-27T20:38:27.960Z</time>
      </trkpt>
      <trkpt lat="48.81901" lon="2.41755">
        <ele>103</ele>
        <time>2015-04-27T20:38:28.871Z</time>
      </trkpt>
      <trkpt lat="48.819" lon="2.41741">
        <ele>102.5</ele>
        <time>2015-04-27T20:38:31.892Z</time>
      </trkpt>
      <trkpt lat="48.819" lon="2.41737">
        <ele>102.4</ele>
        <time>2015-04-27T20:38:32.914Z</time>
      </trkpt>
      <trkpt lat="48.81902" lon="2.41728">
        <ele>102.5</ele>
        <time>2015-04-27T20:38:35.742Z</time>
      </trkpt>
      <trkpt lat="48.81903" lon="2.41723">
        <ele>102.3</ele>
        <time>2015-04-27T20:38:35.820Z</time>
      </trkpt>
      <trkpt lat="48.81904" lon="2.41714">
        <ele>101.8</ele>
        <time>2015-04-27T20:38:37.899Z</time>
      </trkpt>
      <trkpt lat="48.81905" lon="2.4171">
        <ele>101.5</ele>
        <time>2015-04-27T20:38:38.835Z</time>
      </trkpt>
      <trkpt lat="48.81906" lon="2.417">
        <ele>102.3</ele>
        <time>2015-04-27T20:38:40.857Z</time>
      </trkpt>
      <trkpt lat="48.81908" lon="2.41696">
        <ele>102.2</ele>
        <time>2015-04-27T20:38:41.846Z</time>
      </trkpt>
      <trkpt lat="48.81912" lon="2.41688">
        <ele>102.7</ele>
        <time>2015-04-27T20:38:43.896Z</time>
      </trkpt>
      <trkpt lat="48.81913" lon="2.41684">
        <ele>102.8</ele>
        <time>2015-04-27T20:38:44.911Z</time>
      </trkpt>
      <trkpt lat="48.81916" lon="2.41674">
        <ele>102.7</ele>
        <time>2015-04-27T20:38:46.925Z</time>
      </trkpt>
      <trkpt lat="48.81918" lon="2.4167">
        <ele>102.5</ele>
        <time>2015-04-27T20:38:47.944Z</time>
      </trkpt>
      <trkpt lat="48.8192" lon="2.41658">
        <ele>102.7</ele>
        <time>2015-04-27T20:38:50.992Z</time>
      </trkpt>
      <trkpt lat="48.81921" lon="2.41653">
        <ele>102.7</ele>
        <time>2015-04-27T20:38:51.983Z</time>
      </trkpt>
      <trkpt lat="48.81924" lon="2.41641">
        <ele>102.6</ele>
        <time>2015-04-27T20:38:53.841Z</time>
      </trkpt>
      <trkpt lat="48.81924" lon="2.41636">
        <ele>103.5</ele>
        <time>2015-04-27T20:38:54.878Z</time>
      </trkpt>
      <trkpt lat="48.81924" lon="2.41624">
        <ele>105.7</ele>
        <time>2015-04-27T20:38:57.924Z</time>
      </trkpt>
      <trkpt lat="48.81928" lon="2.41622">
        <ele>105.9</ele>
        <time>2015-04-27T20:38:58.940Z</time>
      </trkpt>
      <trkpt lat="48.81936" lon="2.41616">
        <ele>106.7</ele>
        <time>2015-04-27T20:39:01.897Z</time>
      </trkpt>
      <trkpt lat="48.81938" lon="2.41614">
        <ele>106.8</ele>
        <time>2015-04-27T20:39:02.914Z</time>
      </trkpt>
      <trkpt lat="48.81942" lon="2.41602">
        <ele>106.6</ele>
        <time>2015-04-27T20:39:06.900Z</time>
      </trkpt>
      <trkpt lat="48.81944" lon="2.41599">
        <ele>106.3</ele>
        <time>2015-04-27T20:39:07.924Z</time>
      </trkpt>
      <trkpt lat="48.8195" lon="2.41591">
        <ele>106.1</ele>
        <time>2015-04-27T20:39:11.187Z</time>
      </trkpt>
      <trkpt lat="48.81951" lon="2.41588">
        <ele>106.6</ele>
        <time>2015-04-27T20:39:11.903Z</time>
      </trkpt>
      <trkpt lat="48.81954" lon="2.4158">
        <ele>107.8</ele>
        <time>2015-04-27T20:39:13.905Z</time>
      </trkpt>
      <trkpt lat="48.81956" lon="2.41575">
        <ele>108.3</ele>
        <time>2015-04-27T20:39:14.921Z</time>
      </trkpt>
      <trkpt lat="48.81964" lon="2.4157">
        <ele>109.1</ele>
        <time>2015-04-27T20:39:16.958Z</time>
      </trkpt>
      <trkpt lat="48.81968" lon="2.41568">
        <ele>109.5</ele>
        <time>2015-04-27T20:39:17.838Z</time>
      </trkpt>
      <trkpt lat="48.81975" lon="2.41565">
        <ele>110.2</ele>
        <time>2015-04-27T20:39:19.888Z</time>
      </trkpt>
      <trkpt lat="48.81977" lon="2.41562">
        <ele>110.4</ele>
        <time>2015-04-27T20:39:20.895Z</time>
      </trkpt>
      <trkpt lat="48.81984" lon="2.41557">
        <ele>110.6</ele>
        <time>2015-04-27T20:39:22.942Z</time>
      </trkpt>
      <trkpt lat="48.81986" lon="2.41554">
        <ele>110.7</ele>
        <time>2015-04-27T20:39:23.979Z</time>
      </trkpt>
      <trkpt lat="48.81992" lon="2.41548">
        <ele>111.1</ele>
        <time>2015-04-27T20:39:26.643Z</time>
      </trkpt>
      <trkpt lat="48.81995" lon="2.41545">
        <ele>111.6</ele>
        <time>2015-04-27T20:39:26.934Z</time>
      </trkpt>
      <trkpt lat="48.81999" lon="2.41537">
        <ele>111.7</ele>
        <time>2015-04-27T20:39:28.947Z</time>
      </trkpt>
      <trkpt lat="48.82001" lon="2.41533">
        <ele>111.9</ele>
        <time>2015-04-27T20:39:29.862Z</time>
      </trkpt>
      <trkpt lat="48.82007" lon="2.41531">
        <ele>112.3</ele>
        <time>2015-04-27T20:39:31.886Z</time>
      </trkpt>
      <trkpt lat="48.82011" lon="2.41532">
        <ele>112.6</ele>
        <time>2015-04-27T20:39:32.908Z</time>
      </trkpt>
      <trkpt lat="48.82018" lon="2.41527">
        <ele>112.9</ele>
        <time>2015-04-27T20:39:35.811Z</time>
      </trkpt>
      <trkpt lat="48.82022" lon="2.41523">
        <ele>113.2</ele>
        <time>2015-04-27T20:39:35.853Z</time>
      </trkpt>
      <trkpt lat="48.8203" lon="2.41518">
        <ele>113.6</ele>
        <time>2015-04-27T20:39:37.879Z</time>
      </trkpt>
      <trkpt lat="48.82035" lon="2.41516">
        <ele>113.5</ele>
        <time>2015-04-27T20:39:38.887Z</time>
      </trkpt>
      <trkpt lat="48.82043" lon="2.41512">
        <ele>113.8</ele>
        <time>2015-04-27T20:39:40.950Z</time>
      </trkpt>
      <trkpt lat="48.82047" lon="2.41509">
        <ele>113.8</ele>
        <time>2015-04-27T20:39:41.839Z</time>
      </trkpt>
      <trkpt lat="48.82052" lon="2.41502">
        <ele>114.4</ele>
        <time>2015-04-27T20:39:43.924Z</time>
      </trkpt>
      <trkpt lat="48.82054" lon="2.41497">
        <ele>114.7</ele>
        <time>2015-04-27T20:39:44.931Z</time>
      </trkpt>
      <trkpt lat="48.8206" lon="2.41489">
        <ele>114.9</ele>
        <time>2015-04-27T20:39:46.880Z</time>
      </trkpt>
      <trkpt lat="48.82064" lon="2.41488">
        <ele>115.1</ele>
        <time>2015-04-27T20:39:47.870Z</time>
      </trkpt>
      <trkpt lat="48.8207" lon="2.41482">
        <ele>115.7</ele>
        <time>2015-04-27T20:39:50.187Z</time>
      </trkpt>
      <trkpt lat="48.82073" lon="2.4148">
        <ele>115.7</ele>
        <time>2015-04-27T20:39:51.004Z</time>
      </trkpt>
      <trkpt lat="48.82078" lon="2.41473">
        <ele>115.6</ele>
        <time>2015-04-27T20:39:52.896Z</time>
      </trkpt>
      <trkpt lat="48.82081" lon="2.41471">
        <ele>115.6</ele>
        <time>2015-04-27T20:39:54.001Z</time>
      </trkpt>
      <trkpt lat="48.82087" lon="2.41467">
        <ele>115.1</ele>
        <time>2015-04-27T20:39:56.398Z</time>
      </trkpt>
      <trkpt lat="48.8209" lon="2.41464">
        <ele>115</ele>
        <time>2015-04-27T20:39:56.870Z</time>
      </trkpt>
      <trkpt lat="48.82093" lon="2.41455">
        <ele>114.9</ele>
        <time>2015-04-27T20:39:58.887Z</time>
      </trkpt>
      <trkpt lat="48.82094" lon="2.4145">
        <ele>114.7</ele>
        <time>2015-04-27T20:39:59.902Z</time>
      </trkpt>
      <trkpt lat="48.82099" lon="2.41442">
        <ele>114.5</ele>
        <time>2015-04-27T20:40:01.850Z</time>
      </trkpt>
      <trkpt lat="48.82102" lon="2.41439">
        <ele>114</ele>
        <time>2015-04-27T20:40:02.860Z</time>
      </trkpt>
      <trkpt lat="48.82108" lon="2.41431">
        <ele>113.9</ele>
        <time>2015-04-27T20:40:04.899Z</time>
      </trkpt>
      <trkpt lat="48.82111" lon="2.41425">
        <ele>113.9</ele>
        <time>2015-04-27T20:40:05.920Z</time>
      </trkpt>
      <trkpt lat="48.82117" lon="2.41417">
        <ele>113.5</ele>
        <time>2015-04-27T20:40:07.875Z</time>
      </trkpt>
      <trkpt lat="48.8212" lon="2.41413">
        <ele>113.2</ele>
        <time>2015-04-27T20:40:08.900Z</time>
      </trkpt>
      <trkpt lat="48.82125" lon="2.41403">
        <ele>112.4</ele>
        <time>2015-04-27T20:40:10.848Z</time>
      </trkpt>
      <trkpt lat="48.82127" lon="2.41398">
        <ele>112.6</ele>
        <time>2015-04-27T20:40:11.902Z</time>
      </trkpt>
      <trkpt lat="48.82132" lon="2.41387">
        <ele>112.9</ele>
        <time>2015-04-27T20:40:13.894Z</time>
      </trkpt>
      <trkpt lat="48.82137" lon="2.41382">
        <ele>113.1</ele>
        <time>2015-04-27T20:40:14.869Z</time>
      </trkpt>
      <trkpt lat="48.82141" lon="2.41378">
        <ele>113.4</ele>
        <time>2015-04-27T20:40:15.879Z</time>
      </trkpt>
      <trkpt lat="48.82144" lon="2.41372">
        <ele>113.6</ele>
        <time>2015-04-27T20:40:16.893Z</time>
      </trkpt>
      <trkpt lat="48.82147" lon="2.41367">
        <ele>113.8</ele>
        <time>2015-04-27T20:40:17.930Z</time>
      </trkpt>
      <trkpt lat="48.82152" lon="2.41364">
        <ele>113.9</ele>
        <time>2015-04-27T20:40:18.827Z</time>
      </trkpt>
      <trkpt lat="48.82156" lon="2.41359">
        <ele>113.9</ele>
        <time>2015-04-27T20:40:19.835Z</time>
      </trkpt>
      <trkpt lat="48.8216" lon="2.41354">
        <ele>113.9</ele>
        <time>2015-04-27T20:40:20.849Z</time>
      </trkpt>
      <trkpt lat="48.82163" lon="2.41349">
        <ele>114.1</ele>
        <time>2015-04-27T20:40:22.050Z</time>
      </trkpt>
      <trkpt lat="48.82167" lon="2.41344">
        <ele>114</ele>
        <time>2015-04-27T20:40:22.902Z</time>
      </trkpt>
      <trkpt lat="48.82174" lon="2.41335">
        <ele>114.1</ele>
        <time>2015-04-27T20:40:24.918Z</time>
      </trkpt>
      <trkpt lat="48.82177" lon="2.41331">
        <ele>113.9</ele>
        <time>2015-04-27T20:40:25.926Z</time>
      </trkpt>
      <trkpt lat="48.82182" lon="2.41322">
        <ele>113.8</ele>
        <time>2015-04-27T20:40:27.948Z</time>
      </trkpt>
      <trkpt lat="48.82186" lon="2.41319">
        <ele>113.4</ele>
        <time>2015-04-27T20:40:28.924Z</time>
      </trkpt>
      <trkpt lat="48.8219" lon="2.41309">
        <ele>113.2</ele>
        <time>2015-04-27T20:40:30.890Z</time>
      </trkpt>
      <trkpt lat="48.82193" lon="2.41304">
        <ele>113.2</ele>
        <time>2015-04-27T20:40:31.917Z</time>
      </trkpt>
      <trkpt lat="48.82198" lon="2.413">
        <ele>113.4</ele>
        <time>2015-04-27T20:40:32.864Z</time>
      </trkpt>
      <trkpt lat="48.82202" lon="2.41295">
        <ele>113.6</ele>
        <time>2015-04-27T20:40:33.904Z</time>
      </trkpt>
      <trkpt lat="48.82205" lon="2.41291">
        <ele>113.7</ele>
        <time>2015-04-27T20:40:34.911Z</time>
      </trkpt>
      <trkpt lat="48.82209" lon="2.41288">
        <ele>114.1</ele>
        <time>2015-04-27T20:40:35.931Z</time>
      </trkpt>
      <trkpt lat="48.82213" lon="2.41284">
        <ele>114.5</ele>
        <time>2015-04-27T20:40:36.999Z</time>
      </trkpt>
      <trkpt lat="48.82217" lon="2.4128">
        <ele>114.7</ele>
        <time>2015-04-27T20:40:37.853Z</time>
      </trkpt>
      <trkpt lat="48.82225" lon="2.41274">
        <ele>114.8</ele>
        <time>2015-04-27T20:40:39.880Z</time>
      </trkpt>
      <trkpt lat="48.82228" lon="2.4127">
        <ele>115.2</ele>
        <time>2015-04-27T20:40:40.916Z</time>
      </trkpt>
      <trkpt lat="48.82235" lon="2.41262">
        <ele>115.7</ele>
        <time>2015-04-27T20:40:42.851Z</time>
      </trkpt>
      <trkpt lat="48.82237" lon="2.41257">
        <ele>116</ele>
        <time>2015-04-27T20:40:43.871Z</time>
      </trkpt>
      <trkpt lat="48.8224" lon="2.41245">
        <ele>116.5</ele>
        <time>2015-04-27T20:40:45.872Z</time>
      </trkpt>
      <trkpt lat="48.82241" lon="2.41239">
        <ele>116.6</ele>
        <time>2015-04-27T20:40:46.921Z</time>
      </trkpt>
      <trkpt lat="48.82245" lon="2.4123">
        <ele>116.7</ele>
        <time>2015-04-27T20:40:48.852Z</time>
      </trkpt>
      <trkpt lat="48.82249" lon="2.41226">
        <ele>116.5</ele>
        <time>2015-04-27T20:40:49.872Z</time>
      </trkpt>
      <trkpt lat="48.82255" lon="2.41219">
        <ele>116.3</ele>
        <time>2015-04-27T20:40:51.941Z</time>
      </trkpt>
      <trkpt lat="48.82258" lon="2.41215">
        <ele>116.3</ele>
        <time>2015-04-27T20:40:52.901Z</time>
      </trkpt>
      <trkpt lat="48.82265" lon="2.41207">
        <ele>116</ele>
        <time>2015-04-27T20:40:54.846Z</time>
      </trkpt>
      <trkpt lat="48.82267" lon="2.41203">
        <ele>115.5</ele>
        <time>2015-04-27T20:40:55.858Z</time>
      </trkpt>
      <trkpt lat="48.82272" lon="2.41195">
        <ele>115.3</ele>
        <time>2015-04-27T20:40:57.907Z</time>
      </trkpt>
      <trkpt lat="48.82274" lon="2.4119">
        <ele>115.2</ele>
        <time>2015-04-27T20:40:59.017Z</time>
      </trkpt>
      <trkpt lat="48.8228" lon="2.41182">
        <ele>114.8</ele>
        <time>2015-04-27T20:41:00.900Z</time>
      </trkpt>
      <trkpt lat="48.82283" lon="2.41179">
        <ele>114.6</ele>
        <time>2015-04-27T20:41:01.913Z</time>
      </trkpt>
      <trkpt lat="48.82289" lon="2.41171">
        <ele>114.2</ele>
        <time>2015-04-27T20:41:03.892Z</time>
      </trkpt>
      <trkpt lat="48.82293" lon="2.41168">
        <ele>114.4</ele>
        <time>2015-04-27T20:41:04.906Z</time>
      </trkpt>
      <trkpt lat="48.82299" lon="2.41159">
        <ele>114.9</ele>
        <time>2015-04-27T20:41:06.843Z</time>
      </trkpt>
      <trkpt lat="48.82303" lon="2.41155">
        <ele>115.2</ele>
        <time>2015-04-27T20:41:07.870Z</time>
      </trkpt>
      <trkpt lat="48.82307" lon="2.41151">
        <ele>115.7</ele>
        <time>2015-04-27T20:41:08.914Z</time>
      </trkpt>
      <trkpt lat="48.82311" lon="2.41147">
        <ele>116.4</ele>
        <time>2015-04-27T20:41:09.923Z</time>
      </trkpt>
      <trkpt lat="48.82314" lon="2.41143">
        <ele>116.7</ele>
        <time>2015-04-27T20:41:10.937Z</time>
      </trkpt>
      <trkpt lat="48.82319" lon="2.41141">
        <ele>116.8</ele>
        <time>2015-04-27T20:41:11.845Z</time>
      </trkpt>
      <trkpt lat="48.82324" lon="2.41138">
        <ele>117.1</ele>
        <time>2015-04-27T20:41:12.874Z</time>
      </trkpt>
      <trkpt lat="48.82328" lon="2.41135">
        <ele>117.4</ele>
        <time>2015-04-27T20:41:13.887Z</time>
      </trkpt>
      <trkpt lat="48.82333" lon="2.41132">
        <ele>117.5</ele>
        <time>2015-04-27T20:41:14.891Z</time>
      </trkpt>
      <trkpt lat="48.82337" lon="2.41129">
        <ele>118</ele>
        <time>2015-04-27T20:41:15.901Z</time>
      </trkpt>
      <trkpt lat="48.82341" lon="2.41125">
        <ele>118.2</ele>
        <time>2015-04-27T20:41:16.911Z</time>
      </trkpt>
      <trkpt lat="48.82345" lon="2.4112">
        <ele>118.4</ele>
        <time>2015-04-27T20:41:17.924Z</time>
      </trkpt>
      <trkpt lat="48.82348" lon="2.41115">
        <ele>118.8</ele>
        <time>2015-04-27T20:41:18.846Z</time>
      </trkpt>
      <trkpt lat="48.82352" lon="2.4111">
        <ele>118.8</ele>
        <time>2015-04-27T20:41:19.856Z</time>
      </trkpt>
      <trkpt lat="48.82357" lon="2.41106">
        <ele>118.8</ele>
        <time>2015-04-27T20:41:20.880Z</time>
      </trkpt>
      <trkpt lat="48.8236" lon="2.41101">
        <ele>118.5</ele>
        <time>2015-04-27T20:41:21.898Z</time>
      </trkpt>
      <trkpt lat="48.82364" lon="2.41095">
        <ele>118.3</ele>
        <time>2015-04-27T20:41:22.904Z</time>
      </trkpt>
      <trkpt lat="48.82367" lon="2.41088">
        <ele>118</ele>
        <time>2015-04-27T20:41:23.968Z</time>
      </trkpt>
      <trkpt lat="48.82369" lon="2.41081">
        <ele>117.5</ele>
        <time>2015-04-27T20:41:24.854Z</time>
      </trkpt>
      <trkpt lat="48.82372" lon="2.41075">
        <ele>117.1</ele>
        <time>2015-04-27T20:41:25.887Z</time>
      </trkpt>
      <trkpt lat="48.82375" lon="2.41062">
        <ele>116.1</ele>
        <time>2015-04-27T20:41:27.904Z</time>
      </trkpt>
      <trkpt lat="48.82377" lon="2.41056">
        <ele>115.5</ele>
        <time>2015-04-27T20:41:28.830Z</time>
      </trkpt>
      <trkpt lat="48.8238" lon="2.41051">
        <ele>115.4</ele>
        <time>2015-04-27T20:41:29.869Z</time>
      </trkpt>
      <trkpt lat="48.82384" lon="2.41045">
        <ele>115.6</ele>
        <time>2015-04-27T20:41:30.874Z</time>
      </trkpt>
      <trkpt lat="48.82389" lon="2.4104">
        <ele>115.4</ele>
        <time>2015-04-27T20:41:31.888Z</time>
      </trkpt>
      <trkpt lat="48.82395" lon="2.41035">
        <ele>115.7</ele>
        <time>2015-04-27T20:41:32.901Z</time>
      </trkpt>
      <trkpt lat="48.82401" lon="2.41029">
        <ele>115.5</ele>
        <time>2015-04-27T20:41:33.923Z</time>
      </trkpt>
      <trkpt lat="48.82405" lon="2.41023">
        <ele>115.7</ele>
        <time>2015-04-27T20:41:34.931Z</time>
      </trkpt>
      <trkpt lat="48.82408" lon="2.41015">
        <ele>115.8</ele>
        <time>2015-04-27T20:41:35.848Z</time>
      </trkpt>
      <trkpt lat="48.82412" lon="2.41009">
        <ele>116</ele>
        <time>2015-04-27T20:41:36.824Z</time>
      </trkpt>
      <trkpt lat="48.82414" lon="2.41">
        <ele>116.2</ele>
        <time>2015-04-27T20:41:37.854Z</time>
      </trkpt>
      <trkpt lat="48.82417" lon="2.40993">
        <ele>116.6</ele>
        <time>2015-04-27T20:41:38.861Z</time>
      </trkpt>
      <trkpt lat="48.8242" lon="2.40987">
        <ele>116.9</ele>
        <time>2015-04-27T20:41:39.884Z</time>
      </trkpt>
      <trkpt lat="48.82423" lon="2.4098">
        <ele>117.1</ele>
        <time>2015-04-27T20:41:40.895Z</time>
      </trkpt>
      <trkpt lat="48.82425" lon="2.40973">
        <ele>117.3</ele>
        <time>2015-04-27T20:41:41.917Z</time>
      </trkpt>
      <trkpt lat="48.82428" lon="2.40967">
        <ele>117.5</ele>
        <time>2015-04-27T20:41:42.920Z</time>
      </trkpt>
      <trkpt lat="48.82431" lon="2.40959">
        <ele>117.4</ele>
        <time>2015-04-27T20:41:43.937Z</time>
      </trkpt>
      <trkpt lat="48.82435" lon="2.40954">
        <ele>117.5</ele>
        <time>2015-04-27T20:41:44.946Z</time>
      </trkpt>
      <trkpt lat="48.82439" lon="2.40948">
        <ele>117.6</ele>
        <time>2015-04-27T20:41:45.870Z</time>
      </trkpt>
      <trkpt lat="48.82443" lon="2.40941">
        <ele>117.4</ele>
        <time>2015-04-27T20:41:46.864Z</time>
      </trkpt>
      <trkpt lat="48.82446" lon="2.40934">
        <ele>117.4</ele>
        <time>2015-04-27T20:41:47.908Z</time>
      </trkpt>
      <trkpt lat="48.82449" lon="2.40927">
        <ele>117.6</ele>
        <time>2015-04-27T20:41:48.911Z</time>
      </trkpt>
      <trkpt lat="48.82452" lon="2.40919">
        <ele>117.3</ele>
        <time>2015-04-27T20:41:49.920Z</time>
      </trkpt>
      <trkpt lat="48.82457" lon="2.40913">
        <ele>117</ele>
        <time>2015-04-27T20:41:50.844Z</time>
      </trkpt>
      <trkpt lat="48.82462" lon="2.40907">
        <ele>116.7</ele>
        <time>2015-04-27T20:41:51.950Z</time>
      </trkpt>
      <trkpt lat="48.82468" lon="2.409">
        <ele>116.4</ele>
        <time>2015-04-27T20:41:52.855Z</time>
      </trkpt>
      <trkpt lat="48.82473" lon="2.40894">
        <ele>116.4</ele>
        <time>2015-04-27T20:41:53.855Z</time>
      </trkpt>
      <trkpt lat="48.82478" lon="2.40888">
        <ele>116.4</ele>
        <time>2015-04-27T20:41:54.861Z</time>
      </trkpt>
      <trkpt lat="48.82482" lon="2.40882">
        <ele>116.6</ele>
        <time>2015-04-27T20:41:55.876Z</time>
      </trkpt>
      <trkpt lat="48.82487" lon="2.40876">
        <ele>116.9</ele>
        <time>2015-04-27T20:41:56.889Z</time>
      </trkpt>
      <trkpt lat="48.82494" lon="2.40871">
        <ele>116.6</ele>
        <time>2015-04-27T20:41:57.911Z</time>
      </trkpt>
      <trkpt lat="48.825" lon="2.40864">
        <ele>115.7</ele>
        <time>2015-04-27T20:41:58.915Z</time>
      </trkpt>
      <trkpt lat="48.82506" lon="2.40858">
        <ele>115.4</ele>
        <time>2015-04-27T20:41:59.847Z</time>
      </trkpt>
      <trkpt lat="48.82511" lon="2.40852">
        <ele>115.2</ele>
        <time>2015-04-27T20:42:00.848Z</time>
      </trkpt>
      <trkpt lat="48.82517" lon="2.40846">
        <ele>114.6</ele>
        <time>2015-04-27T20:42:01.871Z</time>
      </trkpt>
      <trkpt lat="48.82521" lon="2.4084">
        <ele>113.8</ele>
        <time>2015-04-27T20:42:02.887Z</time>
      </trkpt>
      <trkpt lat="48.82525" lon="2.40832">
        <ele>113.2</ele>
        <time>2015-04-27T20:42:03.887Z</time>
      </trkpt>
      <trkpt lat="48.8253" lon="2.40826">
        <ele>113.4</ele>
        <time>2015-04-27T20:42:04.896Z</time>
      </trkpt>
      <trkpt lat="48.82536" lon="2.40819">
        <ele>113.8</ele>
        <time>2015-04-27T20:42:05.914Z</time>
      </trkpt>
      <trkpt lat="48.82539" lon="2.40809">
        <ele>114.2</ele>
        <time>2015-04-27T20:42:06.935Z</time>
      </trkpt>
      <trkpt lat="48.82543" lon="2.40799">
        <ele>114.6</ele>
        <time>2015-04-27T20:42:07.848Z</time>
      </trkpt>
      <trkpt lat="48.82545" lon="2.4079">
        <ele>115</ele>
        <time>2015-04-27T20:42:08.858Z</time>
      </trkpt>
      <trkpt lat="48.82548" lon="2.40779">
        <ele>115.6</ele>
        <time>2015-04-27T20:42:09.885Z</time>
      </trkpt>
      <trkpt lat="48.8255" lon="2.40767">
        <ele>115.9</ele>
        <time>2015-04-27T20:42:10.896Z</time>
      </trkpt>
      <trkpt lat="48.82551" lon="2.40755">
        <ele>116</ele>
        <time>2015-04-27T20:42:11.909Z</time>
      </trkpt>
      <trkpt lat="48.82553" lon="2.40744">
        <ele>116.2</ele>
        <time>2015-04-27T20:42:12.911Z</time>
      </trkpt>
      <trkpt lat="48.82555" lon="2.40732">
        <ele>116.1</ele>
        <time>2015-04-27T20:42:13.935Z</time>
      </trkpt>
      <trkpt lat="48.82557" lon="2.40721">
        <ele>115.9</ele>
        <time>2015-04-27T20:42:14.852Z</time>
      </trkpt>
      <trkpt lat="48.82561" lon="2.40715">
        <ele>115.7</ele>
        <time>2015-04-27T20:42:15.880Z</time>
      </trkpt>
      <trkpt lat="48.82565" lon="2.40707">
        <ele>115.8</ele>
        <time>2015-04-27T20:42:16.886Z</time>
      </trkpt>
      <trkpt lat="48.82567" lon="2.40699">
        <ele>116.1</ele>
        <time>2015-04-27T20:42:17.902Z</time>
      </trkpt>
      <trkpt lat="48.82572" lon="2.40693">
        <ele>116.3</ele>
        <time>2015-04-27T20:42:18.924Z</time>
      </trkpt>
      <trkpt lat="48.82577" lon="2.40689">
        <ele>116.4</ele>
        <time>2015-04-27T20:42:19.930Z</time>
      </trkpt>
      <trkpt lat="48.82581" lon="2.40684">
        <ele>116.9</ele>
        <time>2015-04-27T20:42:20.945Z</time>
      </trkpt>
      <trkpt lat="48.82585" lon="2.40679">
        <ele>117.2</ele>
        <time>2015-04-27T20:42:21.950Z</time>
      </trkpt>
      <trkpt lat="48.82589" lon="2.40675">
        <ele>117.6</ele>
        <time>2015-04-27T20:42:22.847Z</time>
      </trkpt>
      <trkpt lat="48.82594" lon="2.40673">
        <ele>118.1</ele>
        <time>2015-04-27T20:42:23.866Z</time>
      </trkpt>
      <trkpt lat="48.82599" lon="2.4067">
        <ele>118.5</ele>
        <time>2015-04-27T20:42:24.874Z</time>
      </trkpt>
      <trkpt lat="48.82605" lon="2.40667">
        <ele>118.8</ele>
        <time>2015-04-27T20:42:25.897Z</time>
      </trkpt>
      <trkpt lat="48.8261" lon="2.40665">
        <ele>119.3</ele>
        <time>2015-04-27T20:42:26.904Z</time>
      </trkpt>
      <trkpt lat="48.82618" lon="2.40658">
        <ele>119.7</ele>
        <time>2015-04-27T20:42:28.849Z</time>
      </trkpt>
      <trkpt lat="48.82621" lon="2.40655">
        <ele>119.9</ele>
        <time>2015-04-27T20:42:29.881Z</time>
      </trkpt>
      <trkpt lat="48.82625" lon="2.40651">
        <ele>119.9</ele>
        <time>2015-04-27T20:42:30.917Z</time>
      </trkpt>
      <trkpt lat="48.82629" lon="2.40647">
        <ele>120</ele>
        <time>2015-04-27T20:42:31.929Z</time>
      </trkpt>
      <trkpt lat="48.82633" lon="2.40643">
        <ele>119.9</ele>
        <time>2015-04-27T20:42:32.939Z</time>
      </trkpt>
      <trkpt lat="48.82636" lon="2.40639">
        <ele>120.3</ele>
        <time>2015-04-27T20:42:33.951Z</time>
      </trkpt>
      <trkpt lat="48.82643" lon="2.40631">
        <ele>119.8</ele>
        <time>2015-04-27T20:42:35.854Z</time>
      </trkpt>
      <trkpt lat="48.82646" lon="2.40626">
        <ele>119.8</ele>
        <time>2015-04-27T20:42:36.877Z</time>
      </trkpt>
      <trkpt lat="48.82649" lon="2.40615">
        <ele>119.2</ele>
        <time>2015-04-27T20:42:38.865Z</time>
      </trkpt>
      <trkpt lat="48.8265" lon="2.4061">
        <ele>119.2</ele>
        <time>2015-04-27T20:42:39.906Z</time>
      </trkpt>
      <trkpt lat="48.82654" lon="2.406">
        <ele>118.7</ele>
        <time>2015-04-27T20:42:41.938Z</time>
      </trkpt>
      <trkpt lat="48.82655" lon="2.40594">
        <ele>118.6</ele>
        <time>2015-04-27T20:42:42.827Z</time>
      </trkpt>
      <trkpt lat="48.82655" lon="2.40587">
        <ele>118.8</ele>
        <time>2015-04-27T20:42:43.830Z</time>
      </trkpt>
      <trkpt lat="48.82655" lon="2.40578">
        <ele>119.5</ele>
        <time>2015-04-27T20:42:44.883Z</time>
      </trkpt>
      <trkpt lat="48.82657" lon="2.40568">
        <ele>119.9</ele>
        <time>2015-04-27T20:42:46.922Z</time>
      </trkpt>
      <trkpt lat="48.82659" lon="2.40565">
        <ele>120</ele>
        <time>2015-04-27T20:42:47.923Z</time>
      </trkpt>
      <trkpt lat="48.82664" lon="2.40557">
        <ele>121</ele>
        <time>2015-04-27T20:42:49.867Z</time>
      </trkpt>
      <trkpt lat="48.82666" lon="2.40555">
        <ele>121.6</ele>
        <time>2015-04-27T20:42:50.895Z</time>
      </trkpt>
      <trkpt lat="48.82673" lon="2.4055">
        <ele>122.4</ele>
        <time>2015-04-27T20:42:52.912Z</time>
      </trkpt>
      <trkpt lat="48.82678" lon="2.40548">
        <ele>123</ele>
        <time>2015-04-27T20:42:53.937Z</time>
      </trkpt>
      <trkpt lat="48.82686" lon="2.40543">
        <ele>123.5</ele>
        <time>2015-04-27T20:42:55.926Z</time>
      </trkpt>
      <trkpt lat="48.8269" lon="2.40541">
        <ele>123.8</ele>
        <time>2015-04-27T20:42:56.921Z</time>
      </trkpt>
      <trkpt lat="48.82697" lon="2.40535">
        <ele>124.7</ele>
        <time>2015-04-27T20:42:58.860Z</time>
      </trkpt>
      <trkpt lat="48.82699" lon="2.40532">
        <ele>125.3</ele>
        <time>2015-04-27T20:42:59.918Z</time>
      </trkpt>
      <trkpt lat="48.82704" lon="2.40521">
        <ele>125.4</ele>
        <time>2015-04-27T20:43:02.876Z</time>
      </trkpt>
      <trkpt lat="48.82705" lon="2.40516">
        <ele>125.2</ele>
        <time>2015-04-27T20:43:03.940Z</time>
      </trkpt>
      <trkpt lat="48.82706" lon="2.40506">
        <ele>125</ele>
        <time>2015-04-27T20:43:05.869Z</time>
      </trkpt>
      <trkpt lat="48.82707" lon="2.40502">
        <ele>125.3</ele>
        <time>2015-04-27T20:43:06.899Z</time>
      </trkpt>
      <trkpt lat="48.8271" lon="2.40493">
        <ele>126.2</ele>
        <time>2015-04-27T20:43:08.897Z</time>
      </trkpt>
      <trkpt lat="48.82712" lon="2.40489">
        <ele>126.6</ele>
        <time>2015-04-27T20:43:09.951Z</time>
      </trkpt>
      <trkpt lat="48.82716" lon="2.4048">
        <ele>127.9</ele>
        <time>2015-04-27T20:43:11.910Z</time>
      </trkpt>
      <trkpt lat="48.82718" lon="2.40477">
        <ele>128.1</ele>
        <time>2015-04-27T20:43:12.844Z</time>
      </trkpt>
      <trkpt lat="48.82725" lon="2.40469">
        <ele>128.3</ele>
        <time>2015-04-27T20:43:15.900Z</time>
      </trkpt>
      <trkpt lat="48.82727" lon="2.40466">
        <ele>128.3</ele>
        <time>2015-04-27T20:43:16.911Z</time>
      </trkpt>
      <trkpt lat="48.82733" lon="2.40458">
        <ele>128.4</ele>
        <time>2015-04-27T20:43:19.907Z</time>
      </trkpt>
      <trkpt lat="48.82734" lon="2.40456">
        <ele>128.3</ele>
        <time>2015-04-27T20:43:20.962Z</time>
      </trkpt>
      <trkpt lat="48.8274" lon="2.40446">
        <ele>128.6</ele>
        <time>2015-04-27T20:43:23.910Z</time>
      </trkpt>
      <trkpt lat="48.82743" lon="2.40443">
        <ele>128.6</ele>
        <time>2015-04-27T20:43:24.871Z</time>
      </trkpt>
      <trkpt lat="48.82749" lon="2.40437">
        <ele>128.1</ele>
        <time>2015-04-27T20:43:26.894Z</time>
      </trkpt>
      <trkpt lat="48.82753" lon="2.40435">
        <ele>128</ele>
        <time>2015-04-27T20:43:27.906Z</time>
      </trkpt>
      <trkpt lat="48.82761" lon="2.40431">
        <ele>126.8</ele>
        <time>2015-04-27T20:43:29.927Z</time>
      </trkpt>
      <trkpt lat="48.82764" lon="2.40428">
        <ele>126.4</ele>
        <time>2015-04-27T20:43:31.016Z</time>
      </trkpt>
      <trkpt lat="48.8277" lon="2.40422">
        <ele>125.8</ele>
        <time>2015-04-27T20:43:32.895Z</time>
      </trkpt>
      <trkpt lat="48.82771" lon="2.40417">
        <ele>125.6</ele>
        <time>2015-04-27T20:43:33.931Z</time>
      </trkpt>
      <trkpt lat="48.82775" lon="2.40407">
        <ele>125.1</ele>
        <time>2015-04-27T20:43:36.850Z</time>
      </trkpt>
      <trkpt lat="48.82776" lon="2.40403">
        <ele>125.1</ele>
        <time>2015-04-27T20:43:37.842Z</time>
      </trkpt>
      <trkpt lat="48.82782" lon="2.40395">
        <ele>124.8</ele>
        <time>2015-04-27T20:43:41.116Z</time>
      </trkpt>
      <trkpt lat="48.82786" lon="2.40393">
        <ele>124.9</ele>
        <time>2015-04-27T20:43:41.874Z</time>
      </trkpt>
      <trkpt lat="48.82792" lon="2.40391">
        <ele>125</ele>
        <time>2015-04-27T20:43:43.878Z</time>
      </trkpt>
      <trkpt lat="48.82795" lon="2.40391">
        <ele>124.9</ele>
        <time>2015-04-27T20:43:44.894Z</time>
      </trkpt>
      <trkpt lat="48.82801" lon="2.40387">
        <ele>125.4</ele>
        <time>2015-04-27T20:43:46.929Z</time>
      </trkpt>
      <trkpt lat="48.82805" lon="2.40385">
        <ele>125.6</ele>
        <time>2015-04-27T20:43:47.960Z</time>
      </trkpt>
      <trkpt lat="48.82811" lon="2.40381">
        <ele>125.7</ele>
        <time>2015-04-27T20:43:49.851Z</time>
      </trkpt>
      <trkpt lat="48.82814" lon="2.40379">
        <ele>125.7</ele>
        <time>2015-04-27T20:43:50.882Z</time>
      </trkpt>
      <trkpt lat="48.82813" lon="2.40372">
        <ele>123.1</ele>
        <time>2015-04-27T20:47:11.399Z</time>
      </trkpt>
      <trkpt lat="48.82793" lon="2.4036">
        <ele>118.9</ele>
        <time>2015-04-27T20:47:11.898Z</time>
      </trkpt>
      <trkpt lat="48.82799" lon="2.40353">
        <ele>118.5</ele>
        <time>2015-04-27T20:47:14.855Z</time>
      </trkpt>
      <trkpt lat="48.82801" lon="2.40351">
        <ele>118.2</ele>
        <time>2015-04-27T20:47:15.894Z</time>
      </trkpt>
      <trkpt lat="48.82807" lon="2.40347">
        <ele>117.5</ele>
        <time>2015-04-27T20:47:17.838Z</time>
      </trkpt>
      <trkpt lat="48.82811" lon="2.40344">
        <ele>117.3</ele>
        <time>2015-04-27T20:47:18.855Z</time>
      </trkpt>
      <trkpt lat="48.82818" lon="2.40337">
        <ele>117.5</ele>
        <time>2015-04-27T20:47:21.485Z</time>
      </trkpt>
      <trkpt lat="48.82822" lon="2.40333">
        <ele>118</ele>
        <time>2015-04-27T20:47:21.880Z</time>
      </trkpt>
      <trkpt lat="48.82826" lon="2.40329">
        <ele>118.2</ele>
        <time>2015-04-27T20:47:22.900Z</time>
      </trkpt>
      <trkpt lat="48.82829" lon="2.40323">
        <ele>118.4</ele>
        <time>2015-04-27T20:47:23.941Z</time>
      </trkpt>
      <trkpt lat="48.82833" lon="2.40317">
        <ele>118.3</ele>
        <time>2015-04-27T20:47:24.863Z</time>
      </trkpt>
      <trkpt lat="48.82838" lon="2.40312">
        <ele>118</ele>
        <time>2015-04-27T20:47:25.862Z</time>
      </trkpt>
      <trkpt lat="48.82841" lon="2.40306">
        <ele>117.4</ele>
        <time>2015-04-27T20:47:26.873Z</time>
      </trkpt>
      <trkpt lat="48.82845" lon="2.403">
        <ele>116.8</ele>
        <time>2015-04-27T20:47:27.884Z</time>
      </trkpt>
      <trkpt lat="48.82849" lon="2.40295">
        <ele>116.4</ele>
        <time>2015-04-27T20:47:28.912Z</time>
      </trkpt>
      <trkpt lat="48.82851" lon="2.40288">
        <ele>115.8</ele>
        <time>2015-04-27T20:47:29.932Z</time>
      </trkpt>
      <trkpt lat="48.82855" lon="2.40282">
        <ele>115.5</ele>
        <time>2015-04-27T20:47:30.829Z</time>
      </trkpt>
      <trkpt lat="48.82859" lon="2.40276">
        <ele>115.4</ele>
        <time>2015-04-27T20:47:31.843Z</time>
      </trkpt>
      <trkpt lat="48.82863" lon="2.40271">
        <ele>115.4</ele>
        <time>2015-04-27T20:47:32.863Z</time>
      </trkpt>
      <trkpt lat="48.82866" lon="2.40263">
        <ele>115.6</ele>
        <time>2015-04-27T20:47:33.879Z</time>
      </trkpt>
      <trkpt lat="48.82869" lon="2.40255">
        <ele>115.8</ele>
        <time>2015-04-27T20:47:34.890Z</time>
      </trkpt>
      <trkpt lat="48.82872" lon="2.40246">
        <ele>116</ele>
        <time>2015-04-27T20:47:35.891Z</time>
      </trkpt>
      <trkpt lat="48.82876" lon="2.4024">
        <ele>116</ele>
        <time>2015-04-27T20:47:36.909Z</time>
      </trkpt>
      <trkpt lat="48.8288" lon="2.40232">
        <ele>116</ele>
        <time>2015-04-27T20:47:37.941Z</time>
      </trkpt>
      <trkpt lat="48.82883" lon="2.40227">
        <ele>115.9</ele>
        <time>2015-04-27T20:47:38.842Z</time>
      </trkpt>
      <trkpt lat="48.82887" lon="2.40221">
        <ele>115.9</ele>
        <time>2015-04-27T20:47:39.883Z</time>
      </trkpt>
      <trkpt lat="48.82892" lon="2.40215">
        <ele>115.6</ele>
        <time>2015-04-27T20:47:40.892Z</time>
      </trkpt>
      <trkpt lat="48.82898" lon="2.4021">
        <ele>114.9</ele>
        <time>2015-04-27T20:47:41.900Z</time>
      </trkpt>
      <trkpt lat="48.82904" lon="2.40206">
        <ele>114.9</ele>
        <time>2015-04-27T20:47:42.910Z</time>
      </trkpt>
      <trkpt lat="48.8291" lon="2.402">
        <ele>114.8</ele>
        <time>2015-04-27T20:47:43.916Z</time>
      </trkpt>
      <trkpt lat="48.82915" lon="2.40195">
        <ele>115.2</ele>
        <time>2015-04-27T20:47:44.927Z</time>
      </trkpt>
      <trkpt lat="48.8292" lon="2.40189">
        <ele>115.1</ele>
        <time>2015-04-27T20:47:45.937Z</time>
      </trkpt>
      <trkpt lat="48.82926" lon="2.40186">
        <ele>114.6</ele>
        <time>2015-04-27T20:47:46.837Z</time>
      </trkpt>
      <trkpt lat="48.8293" lon="2.4018">
        <ele>114.4</ele>
        <time>2015-04-27T20:47:47.850Z</time>
      </trkpt>
      <trkpt lat="48.82934" lon="2.40173">
        <ele>114.3</ele>
        <time>2015-04-27T20:47:48.851Z</time>
      </trkpt>
      <trkpt lat="48.82938" lon="2.40166">
        <ele>113.8</ele>
        <time>2015-04-27T20:47:49.861Z</time>
      </trkpt>
      <trkpt lat="48.82942" lon="2.40159">
        <ele>113.4</ele>
        <time>2015-04-27T20:47:50.876Z</time>
      </trkpt>
      <trkpt lat="48.82945" lon="2.40153">
        <ele>112.9</ele>
        <time>2015-04-27T20:47:51.898Z</time>
      </trkpt>
      <trkpt lat="48.82949" lon="2.40147">
        <ele>112.2</ele>
        <time>2015-04-27T20:47:52.911Z</time>
      </trkpt>
      <trkpt lat="48.82953" lon="2.40141">
        <ele>111.9</ele>
        <time>2015-04-27T20:47:53.918Z</time>
      </trkpt>
      <trkpt lat="48.82957" lon="2.40138">
        <ele>112.1</ele>
        <time>2015-04-27T20:47:54.809Z</time>
      </trkpt>
      <trkpt lat="48.82961" lon="2.40134">
        <ele>112.1</ele>
        <time>2015-04-27T20:47:55.831Z</time>
      </trkpt>
      <trkpt lat="48.82967" lon="2.40124">
        <ele>111.8</ele>
        <time>2015-04-27T20:47:57.861Z</time>
      </trkpt>
      <trkpt lat="48.8297" lon="2.40118">
        <ele>111.4</ele>
        <time>2015-04-27T20:47:59.127Z</time>
      </trkpt>
      <trkpt lat="48.82972" lon="2.40112">
        <ele>111.2</ele>
        <time>2015-04-27T20:47:59.850Z</time>
      </trkpt>
      <trkpt lat="48.82975" lon="2.40106">
        <ele>110.8</ele>
        <time>2015-04-27T20:48:00.866Z</time>
      </trkpt>
      <trkpt lat="48.82979" lon="2.401">
        <ele>110.5</ele>
        <time>2015-04-27T20:48:01.891Z</time>
      </trkpt>
      <trkpt lat="48.82982" lon="2.40093">
        <ele>109.7</ele>
        <time>2015-04-27T20:48:02.901Z</time>
      </trkpt>
      <trkpt lat="48.82984" lon="2.40085">
        <ele>109.3</ele>
        <time>2015-04-27T20:48:03.919Z</time>
      </trkpt>
      <trkpt lat="48.82988" lon="2.40078">
        <ele>109.4</ele>
        <time>2015-04-27T20:48:04.868Z</time>
      </trkpt>
      <trkpt lat="48.82991" lon="2.40071">
        <ele>109.4</ele>
        <time>2015-04-27T20:48:05.848Z</time>
      </trkpt>
      <trkpt lat="48.82994" lon="2.40064">
        <ele>109.4</ele>
        <time>2015-04-27T20:48:06.842Z</time>
      </trkpt>
      <trkpt lat="48.82999" lon="2.40057">
        <ele>109.7</ele>
        <time>2015-04-27T20:48:07.855Z</time>
      </trkpt>
      <trkpt lat="48.83003" lon="2.40052">
        <ele>109.5</ele>
        <time>2015-04-27T20:48:08.854Z</time>
      </trkpt>
      <trkpt lat="48.83007" lon="2.40046">
        <ele>109.1</ele>
        <time>2015-04-27T20:48:09.872Z</time>
      </trkpt>
      <trkpt lat="48.83012" lon="2.4004">
        <ele>109.1</ele>
        <time>2015-04-27T20:48:11.005Z</time>
      </trkpt>
      <trkpt lat="48.83016" lon="2.40034">
        <ele>109.5</ele>
        <time>2015-04-27T20:48:11.843Z</time>
      </trkpt>
      <trkpt lat="48.8302" lon="2.40027">
        <ele>109.6</ele>
        <time>2015-04-27T20:48:12.853Z</time>
      </trkpt>
      <trkpt lat="48.83023" lon="2.40019">
        <ele>109.8</ele>
        <time>2015-04-27T20:48:13.866Z</time>
      </trkpt>
      <trkpt lat="48.83027" lon="2.40013">
        <ele>110</ele>
        <time>2015-04-27T20:48:14.876Z</time>
      </trkpt>
      <trkpt lat="48.83031" lon="2.40006">
        <ele>110.3</ele>
        <time>2015-04-27T20:48:15.896Z</time>
      </trkpt>
      <trkpt lat="48.83036" lon="2.4">
        <ele>110.2</ele>
        <time>2015-04-27T20:48:16.910Z</time>
      </trkpt>
      <trkpt lat="48.8304" lon="2.39993">
        <ele>110</ele>
        <time>2015-04-27T20:48:17.859Z</time>
      </trkpt>
      <trkpt lat="48.83044" lon="2.39987">
        <ele>110.1</ele>
        <time>2015-04-27T20:48:18.873Z</time>
      </trkpt>
      <trkpt lat="48.83048" lon="2.3998">
        <ele>110.2</ele>
        <time>2015-04-27T20:48:19.893Z</time>
      </trkpt>
      <trkpt lat="48.83051" lon="2.39973">
        <ele>110.1</ele>
        <time>2015-04-27T20:48:20.900Z</time>
      </trkpt>
      <trkpt lat="48.83054" lon="2.39967">
        <ele>109.8</ele>
        <time>2015-04-27T20:48:21.921Z</time>
      </trkpt>
      <trkpt lat="48.83057" lon="2.39961">
        <ele>109.5</ele>
        <time>2015-04-27T20:48:22.922Z</time>
      </trkpt>
      <trkpt lat="48.83061" lon="2.39956">
        <ele>109.3</ele>
        <time>2015-04-27T20:48:23.958Z</time>
      </trkpt>
      <trkpt lat="48.83065" lon="2.39951">
        <ele>109.1</ele>
        <time>2015-04-27T20:48:24.874Z</time>
      </trkpt>
      <trkpt lat="48.83069" lon="2.39947">
        <ele>108.9</ele>
        <time>2015-04-27T20:48:25.897Z</time>
      </trkpt>
      <trkpt lat="48.83073" lon="2.39942">
        <ele>108.9</ele>
        <time>2015-04-27T20:48:26.896Z</time>
      </trkpt>
      <trkpt lat="48.83077" lon="2.39937">
        <ele>108.7</ele>
        <time>2015-04-27T20:48:27.906Z</time>
      </trkpt>
      <trkpt lat="48.83082" lon="2.39931">
        <ele>108.5</ele>
        <time>2015-04-27T20:48:28.922Z</time>
      </trkpt>
      <trkpt lat="48.83086" lon="2.39923">
        <ele>108.4</ele>
        <time>2015-04-27T20:48:29.837Z</time>
      </trkpt>
      <trkpt lat="48.83091" lon="2.39918">
        <ele>108</ele>
        <time>2015-04-27T20:48:30.844Z</time>
      </trkpt>
      <trkpt lat="48.83095" lon="2.3991">
        <ele>107.9</ele>
        <time>2015-04-27T20:48:31.858Z</time>
      </trkpt>
      <trkpt lat="48.831" lon="2.39904">
        <ele>107.9</ele>
        <time>2015-04-27T20:48:32.865Z</time>
      </trkpt>
      <trkpt lat="48.83104" lon="2.39896">
        <ele>107.9</ele>
        <time>2015-04-27T20:48:33.888Z</time>
      </trkpt>
      <trkpt lat="48.83109" lon="2.39889">
        <ele>107.8</ele>
        <time>2015-04-27T20:48:34.902Z</time>
      </trkpt>
      <trkpt lat="48.83113" lon="2.39882">
        <ele>107.6</ele>
        <time>2015-04-27T20:48:35.816Z</time>
      </trkpt>
      <trkpt lat="48.83117" lon="2.39875">
        <ele>107.6</ele>
        <time>2015-04-27T20:48:36.848Z</time>
      </trkpt>
      <trkpt lat="48.83121" lon="2.39868">
        <ele>107.6</ele>
        <time>2015-04-27T20:48:37.868Z</time>
      </trkpt>
      <trkpt lat="48.83124" lon="2.3986">
        <ele>107.5</ele>
        <time>2015-04-27T20:48:38.882Z</time>
      </trkpt>
      <trkpt lat="48.83129" lon="2.39853">
        <ele>107.1</ele>
        <time>2015-04-27T20:48:39.899Z</time>
      </trkpt>
      <trkpt lat="48.83133" lon="2.39846">
        <ele>106.8</ele>
        <time>2015-04-27T20:48:40.910Z</time>
      </trkpt>
      <trkpt lat="48.83137" lon="2.39839">
        <ele>106.6</ele>
        <time>2015-04-27T20:48:41.920Z</time>
      </trkpt>
      <trkpt lat="48.83141" lon="2.39833">
        <ele>106.4</ele>
        <time>2015-04-27T20:48:42.918Z</time>
      </trkpt>
      <trkpt lat="48.83145" lon="2.39827">
        <ele>106</ele>
        <time>2015-04-27T20:48:43.837Z</time>
      </trkpt>
      <trkpt lat="48.83148" lon="2.3982">
        <ele>105.8</ele>
        <time>2015-04-27T20:48:44.840Z</time>
      </trkpt>
      <trkpt lat="48.83152" lon="2.39814">
        <ele>105.6</ele>
        <time>2015-04-27T20:48:45.892Z</time>
      </trkpt>
      <trkpt lat="48.83155" lon="2.39809">
        <ele>105.6</ele>
        <time>2015-04-27T20:48:46.897Z</time>
      </trkpt>
      <trkpt lat="48.83161" lon="2.39803">
        <ele>105.3</ele>
        <time>2015-04-27T20:48:48.919Z</time>
      </trkpt>
      <trkpt lat="48.83164" lon="2.39801">
        <ele>105</ele>
        <time>2015-04-27T20:48:49.988Z</time>
      </trkpt>
      <trkpt lat="48.8317" lon="2.39795">
        <ele>104.6</ele>
        <time>2015-04-27T20:48:51.904Z</time>
      </trkpt>
      <trkpt lat="48.83173" lon="2.39793">
        <ele>104.3</ele>
        <time>2015-04-27T20:48:52.913Z</time>
      </trkpt>
      <trkpt lat="48.83179" lon="2.39786">
        <ele>103.9</ele>
        <time>2015-04-27T20:48:55.854Z</time>
      </trkpt>
      <trkpt lat="48.83182" lon="2.39784">
        <ele>104</ele>
        <time>2015-04-27T20:48:56.901Z</time>
      </trkpt>
      <trkpt lat="48.8319" lon="2.39778">
        <ele>104.3</ele>
        <time>2015-04-27T20:49:10.906Z</time>
      </trkpt>
      <trkpt lat="48.8319" lon="2.39774">
        <ele>104.2</ele>
        <time>2015-04-27T20:49:11.937Z</time>
      </trkpt>
      <trkpt lat="48.83193" lon="2.39766">
        <ele>104.2</ele>
        <time>2015-04-27T20:49:13.863Z</time>
      </trkpt>
      <trkpt lat="48.83194" lon="2.39761">
        <ele>104.2</ele>
        <time>2015-04-27T20:49:14.871Z</time>
      </trkpt>
      <trkpt lat="48.83197" lon="2.39751">
        <ele>104.1</ele>
        <time>2015-04-27T20:49:16.891Z</time>
      </trkpt>
      <trkpt lat="48.83199" lon="2.39746">
        <ele>104</ele>
        <time>2015-04-27T20:49:17.925Z</time>
      </trkpt>
      <trkpt lat="48.83203" lon="2.39737">
        <ele>104.3</ele>
        <time>2015-04-27T20:49:19.842Z</time>
      </trkpt>
      <trkpt lat="48.83206" lon="2.39732">
        <ele>104.3</ele>
        <time>2015-04-27T20:49:20.877Z</time>
      </trkpt>
      <trkpt lat="48.83211" lon="2.39721">
        <ele>104.7</ele>
        <time>2015-04-27T20:49:22.936Z</time>
      </trkpt>
      <trkpt lat="48.83213" lon="2.39717">
        <ele>104.3</ele>
        <time>2015-04-27T20:49:23.872Z</time>
      </trkpt>
      <trkpt lat="48.8322" lon="2.39709">
        <ele>104</ele>
        <time>2015-04-27T20:49:25.916Z</time>
      </trkpt>
      <trkpt lat="48.83223" lon="2.39703">
        <ele>104.3</ele>
        <time>2015-04-27T20:49:26.825Z</time>
      </trkpt>
      <trkpt lat="48.83227" lon="2.39698">
        <ele>104.2</ele>
        <time>2015-04-27T20:49:27.932Z</time>
      </trkpt>
      <trkpt lat="48.8323" lon="2.39693">
        <ele>104.3</ele>
        <time>2015-04-27T20:49:28.842Z</time>
      </trkpt>
      <trkpt lat="48.83233" lon="2.39688">
        <ele>104.2</ele>
        <time>2015-04-27T20:49:29.851Z</time>
      </trkpt>
      <trkpt lat="48.83237" lon="2.39683">
        <ele>104.4</ele>
        <time>2015-04-27T20:49:30.877Z</time>
      </trkpt>
      <trkpt lat="48.8324" lon="2.39678">
        <ele>104.4</ele>
        <time>2015-04-27T20:49:31.895Z</time>
      </trkpt>
      <trkpt lat="48.83243" lon="2.39671">
        <ele>104.7</ele>
        <time>2015-04-27T20:49:32.910Z</time>
      </trkpt>
      <trkpt lat="48.83245" lon="2.39665">
        <ele>105.1</ele>
        <time>2015-04-27T20:49:33.930Z</time>
      </trkpt>
      <trkpt lat="48.83249" lon="2.3966">
        <ele>105.1</ele>
        <time>2015-04-27T20:49:34.827Z</time>
      </trkpt>
      <trkpt lat="48.83253" lon="2.39655">
        <ele>105.3</ele>
        <time>2015-04-27T20:49:35.830Z</time>
      </trkpt>
      <trkpt lat="48.83258" lon="2.39651">
        <ele>105.3</ele>
        <time>2015-04-27T20:49:36.842Z</time>
      </trkpt>
      <trkpt lat="48.83262" lon="2.39647">
        <ele>105.1</ele>
        <time>2015-04-27T20:49:37.854Z</time>
      </trkpt>
      <trkpt lat="48.83266" lon="2.39642">
        <ele>105</ele>
        <time>2015-04-27T20:49:38.862Z</time>
      </trkpt>
      <trkpt lat="48.83269" lon="2.39637">
        <ele>104.7</ele>
        <time>2015-04-27T20:49:39.889Z</time>
      </trkpt>
      <trkpt lat="48.83273" lon="2.39633">
        <ele>104.4</ele>
        <time>2015-04-27T20:49:40.896Z</time>
      </trkpt>
      <trkpt lat="48.83278" lon="2.39628">
        <ele>104.3</ele>
        <time>2015-04-27T20:49:41.909Z</time>
      </trkpt>
      <trkpt lat="48.83281" lon="2.39622">
        <ele>104.3</ele>
        <time>2015-04-27T20:49:42.848Z</time>
      </trkpt>
      <trkpt lat="48.83285" lon="2.39617">
        <ele>104.1</ele>
        <time>2015-04-27T20:49:43.857Z</time>
      </trkpt>
      <trkpt lat="48.83289" lon="2.39612">
        <ele>104.3</ele>
        <time>2015-04-27T20:49:44.877Z</time>
      </trkpt>
      <trkpt lat="48.83293" lon="2.39606">
        <ele>104.4</ele>
        <time>2015-04-27T20:49:45.902Z</time>
      </trkpt>
      <trkpt lat="48.83296" lon="2.396">
        <ele>104.4</ele>
        <time>2015-04-27T20:49:46.926Z</time>
      </trkpt>
      <trkpt lat="48.833" lon="2.39595">
        <ele>104.5</ele>
        <time>2015-04-27T20:49:47.837Z</time>
      </trkpt>
      <trkpt lat="48.83303" lon="2.39589">
        <ele>104.8</ele>
        <time>2015-04-27T20:49:48.843Z</time>
      </trkpt>
      <trkpt lat="48.83306" lon="2.39584">
        <ele>104.8</ele>
        <time>2015-04-27T20:49:49.857Z</time>
      </trkpt>
      <trkpt lat="48.8331" lon="2.39578">
        <ele>105.1</ele>
        <time>2015-04-27T20:49:50.903Z</time>
      </trkpt>
      <trkpt lat="48.83314" lon="2.39573">
        <ele>105.2</ele>
        <time>2015-04-27T20:49:51.921Z</time>
      </trkpt>
      <trkpt lat="48.83317" lon="2.39567">
        <ele>105.4</ele>
        <time>2015-04-27T20:49:52.931Z</time>
      </trkpt>
      <trkpt lat="48.8332" lon="2.39561">
        <ele>105.4</ele>
        <time>2015-04-27T20:49:53.849Z</time>
      </trkpt>
      <trkpt lat="48.83324" lon="2.39555">
        <ele>105.3</ele>
        <time>2015-04-27T20:49:54.841Z</time>
      </trkpt>
      <trkpt lat="48.83328" lon="2.39549">
        <ele>105.2</ele>
        <time>2015-04-27T20:49:55.856Z</time>
      </trkpt>
      <trkpt lat="48.83331" lon="2.39541">
        <ele>104.8</ele>
        <time>2015-04-27T20:49:56.862Z</time>
      </trkpt>
      <trkpt lat="48.83334" lon="2.39535">
        <ele>104.8</ele>
        <time>2015-04-27T20:49:57.887Z</time>
      </trkpt>
      <trkpt lat="48.83337" lon="2.39529">
        <ele>104.8</ele>
        <time>2015-04-27T20:49:58.895Z</time>
      </trkpt>
      <trkpt lat="48.83341" lon="2.39523">
        <ele>105.1</ele>
        <time>2015-04-27T20:49:59.906Z</time>
      </trkpt>
      <trkpt lat="48.83346" lon="2.39517">
        <ele>105.4</ele>
        <time>2015-04-27T20:50:00.915Z</time>
      </trkpt>
      <trkpt lat="48.83349" lon="2.3951">
        <ele>105.3</ele>
        <time>2015-04-27T20:50:01.923Z</time>
      </trkpt>
      <trkpt lat="48.83352" lon="2.39503">
        <ele>105.5</ele>
        <time>2015-04-27T20:50:02.859Z</time>
      </trkpt>
      <trkpt lat="48.83356" lon="2.39496">
        <ele>105.8</ele>
        <time>2015-04-27T20:50:03.876Z</time>
      </trkpt>
      <trkpt lat="48.8336" lon="2.3949">
        <ele>106.1</ele>
        <time>2015-04-27T20:50:04.894Z</time>
      </trkpt>
      <trkpt lat="48.83363" lon="2.39483">
        <ele>106.3</ele>
        <time>2015-04-27T20:50:05.915Z</time>
      </trkpt>
      <trkpt lat="48.83367" lon="2.39476">
        <ele>106.2</ele>
        <time>2015-04-27T20:50:06.923Z</time>
      </trkpt>
      <trkpt lat="48.83371" lon="2.3947">
        <ele>106.1</ele>
        <time>2015-04-27T20:50:07.839Z</time>
      </trkpt>
      <trkpt lat="48.83375" lon="2.39465">
        <ele>106</ele>
        <time>2015-04-27T20:50:08.854Z</time>
      </trkpt>
      <trkpt lat="48.8338" lon="2.39461">
        <ele>106.3</ele>
        <time>2015-04-27T20:50:09.875Z</time>
      </trkpt>
      <trkpt lat="48.83383" lon="2.39455">
        <ele>106.5</ele>
        <time>2015-04-27T20:50:10.893Z</time>
      </trkpt>
      <trkpt lat="48.83387" lon="2.3945">
        <ele>106.5</ele>
        <time>2015-04-27T20:50:11.910Z</time>
      </trkpt>
      <trkpt lat="48.83391" lon="2.39445">
        <ele>106.4</ele>
        <time>2015-04-27T20:50:12.920Z</time>
      </trkpt>
      <trkpt lat="48.83394" lon="2.3944">
        <ele>106.4</ele>
        <time>2015-04-27T20:50:13.838Z</time>
      </trkpt>
      <trkpt lat="48.83398" lon="2.39434">
        <ele>106.3</ele>
        <time>2015-04-27T20:50:14.843Z</time>
      </trkpt>
      <trkpt lat="48.83402" lon="2.39428">
        <ele>106.1</ele>
        <time>2015-04-27T20:50:15.904Z</time>
      </trkpt>
      <trkpt lat="48.83406" lon="2.39423">
        <ele>105.9</ele>
        <time>2015-04-27T20:50:16.913Z</time>
      </trkpt>
      <trkpt lat="48.83409" lon="2.39418">
        <ele>106</ele>
        <time>2015-04-27T20:50:18.001Z</time>
      </trkpt>
      <trkpt lat="48.83413" lon="2.39413">
        <ele>106</ele>
        <time>2015-04-27T20:50:18.842Z</time>
      </trkpt>
      <trkpt lat="48.83417" lon="2.39407">
        <ele>106.1</ele>
        <time>2015-04-27T20:50:19.876Z</time>
      </trkpt>
      <trkpt lat="48.83421" lon="2.39403">
        <ele>106.2</ele>
        <time>2015-04-27T20:50:20.885Z</time>
      </trkpt>
      <trkpt lat="48.83426" lon="2.394">
        <ele>106.4</ele>
        <time>2015-04-27T20:50:22.180Z</time>
      </trkpt>
      <trkpt lat="48.8343" lon="2.39397">
        <ele>106.5</ele>
        <time>2015-04-27T20:50:22.916Z</time>
      </trkpt>
      <trkpt lat="48.83435" lon="2.39393">
        <ele>106.7</ele>
        <time>2015-04-27T20:50:23.927Z</time>
      </trkpt>
      <trkpt lat="48.8344" lon="2.39388">
        <ele>106.8</ele>
        <time>2015-04-27T20:50:24.846Z</time>
      </trkpt>
      <trkpt lat="48.83445" lon="2.39385">
        <ele>107.1</ele>
        <time>2015-04-27T20:50:25.846Z</time>
      </trkpt>
      <trkpt lat="48.8345" lon="2.3938">
        <ele>107.2</ele>
        <time>2015-04-27T20:50:26.852Z</time>
      </trkpt>
      <trkpt lat="48.83454" lon="2.39376">
        <ele>107.1</ele>
        <time>2015-04-27T20:50:27.879Z</time>
      </trkpt>
      <trkpt lat="48.83459" lon="2.39372">
        <ele>107</ele>
        <time>2015-04-27T20:50:28.887Z</time>
      </trkpt>
      <trkpt lat="48.83465" lon="2.39368">
        <ele>107</ele>
        <time>2015-04-27T20:50:29.902Z</time>
      </trkpt>
      <trkpt lat="48.8347" lon="2.39364">
        <ele>107.3</ele>
        <time>2015-04-27T20:50:30.841Z</time>
      </trkpt>
      <trkpt lat="48.83475" lon="2.39359">
        <ele>107.3</ele>
        <time>2015-04-27T20:50:31.889Z</time>
      </trkpt>
      <trkpt lat="48.8348" lon="2.39354">
        <ele>107.1</ele>
        <time>2015-04-27T20:50:32.902Z</time>
      </trkpt>
      <trkpt lat="48.83485" lon="2.39347">
        <ele>107.2</ele>
        <time>2015-04-27T20:50:33.905Z</time>
      </trkpt>
      <trkpt lat="48.8349" lon="2.39341">
        <ele>107.3</ele>
        <time>2015-04-27T20:50:34.911Z</time>
      </trkpt>
      <trkpt lat="48.83495" lon="2.39333">
        <ele>107.5</ele>
        <time>2015-04-27T20:50:35.812Z</time>
      </trkpt>
      <trkpt lat="48.835" lon="2.39328">
        <ele>107.3</ele>
        <time>2015-04-27T20:50:36.838Z</time>
      </trkpt>
      <trkpt lat="48.83504" lon="2.39322">
        <ele>107.1</ele>
        <time>2015-04-27T20:50:37.853Z</time>
      </trkpt>
      <trkpt lat="48.83509" lon="2.39317">
        <ele>106.7</ele>
        <time>2015-04-27T20:50:38.867Z</time>
      </trkpt>
      <trkpt lat="48.83514" lon="2.39311">
        <ele>106.4</ele>
        <time>2015-04-27T20:50:39.889Z</time>
      </trkpt>
      <trkpt lat="48.83518" lon="2.39304">
        <ele>106.4</ele>
        <time>2015-04-27T20:50:40.897Z</time>
      </trkpt>
      <trkpt lat="48.83523" lon="2.39298">
        <ele>106.3</ele>
        <time>2015-04-27T20:50:41.905Z</time>
      </trkpt>
      <trkpt lat="48.83528" lon="2.39291">
        <ele>106.2</ele>
        <time>2015-04-27T20:50:42.912Z</time>
      </trkpt>
      <trkpt lat="48.83533" lon="2.39284">
        <ele>106.6</ele>
        <time>2015-04-27T20:50:43.917Z</time>
      </trkpt>
      <trkpt lat="48.83537" lon="2.39277">
        <ele>106.5</ele>
        <time>2015-04-27T20:50:44.926Z</time>
      </trkpt>
      <trkpt lat="48.83542" lon="2.39269">
        <ele>106.4</ele>
        <time>2015-04-27T20:50:45.930Z</time>
      </trkpt>
      <trkpt lat="48.83546" lon="2.39261">
        <ele>105.7</ele>
        <time>2015-04-27T20:50:46.842Z</time>
      </trkpt>
      <trkpt lat="48.83549" lon="2.39252">
        <ele>104.9</ele>
        <time>2015-04-27T20:50:47.840Z</time>
      </trkpt>
      <trkpt lat="48.83554" lon="2.39248">
        <ele>104.4</ele>
        <time>2015-04-27T20:50:48.847Z</time>
      </trkpt>
      <trkpt lat="48.83561" lon="2.39246">
        <ele>103.9</ele>
        <time>2015-04-27T20:50:49.858Z</time>
      </trkpt>
      <trkpt lat="48.83567" lon="2.39244">
        <ele>103.3</ele>
        <time>2015-04-27T20:50:50.876Z</time>
      </trkpt>
      <trkpt lat="48.83574" lon="2.3924">
        <ele>103</ele>
        <time>2015-04-27T20:50:51.884Z</time>
      </trkpt>
      <trkpt lat="48.8358" lon="2.39236">
        <ele>102.5</ele>
        <time>2015-04-27T20:50:52.895Z</time>
      </trkpt>
      <trkpt lat="48.83586" lon="2.39232">
        <ele>102.2</ele>
        <time>2015-04-27T20:50:53.909Z</time>
      </trkpt>
      <trkpt lat="48.83592" lon="2.39228">
        <ele>101.9</ele>
        <time>2015-04-27T20:50:54.914Z</time>
      </trkpt>
      <trkpt lat="48.83599" lon="2.39226">
        <ele>101.8</ele>
        <time>2015-04-27T20:50:55.935Z</time>
      </trkpt>
      <trkpt lat="48.83605" lon="2.39222">
        <ele>101.7</ele>
        <time>2015-04-27T20:50:56.834Z</time>
      </trkpt>
      <trkpt lat="48.83612" lon="2.39219">
        <ele>101.8</ele>
        <time>2015-04-27T20:50:57.872Z</time>
      </trkpt>
      <trkpt lat="48.83618" lon="2.39215">
        <ele>101.6</ele>
        <time>2015-04-27T20:50:58.887Z</time>
      </trkpt>
      <trkpt lat="48.83624" lon="2.3921">
        <ele>101</ele>
        <time>2015-04-27T20:50:59.927Z</time>
      </trkpt>
      <trkpt lat="48.83629" lon="2.39205">
        <ele>100.7</ele>
        <time>2015-04-27T20:51:00.938Z</time>
      </trkpt>
      <trkpt lat="48.83634" lon="2.39199">
        <ele>100.1</ele>
        <time>2015-04-27T20:51:01.840Z</time>
      </trkpt>
      <trkpt lat="48.8364" lon="2.39193">
        <ele>99.5</ele>
        <time>2015-04-27T20:51:02.839Z</time>
      </trkpt>
      <trkpt lat="48.83647" lon="2.39188">
        <ele>99.1</ele>
        <time>2015-04-27T20:51:03.873Z</time>
      </trkpt>
      <trkpt lat="48.83654" lon="2.39185">
        <ele>99.1</ele>
        <time>2015-04-27T20:51:04.882Z</time>
      </trkpt>
      <trkpt lat="48.8366" lon="2.3918">
        <ele>98.5</ele>
        <time>2015-04-27T20:51:05.892Z</time>
      </trkpt>
      <trkpt lat="48.83665" lon="2.39176">
        <ele>98.3</ele>
        <time>2015-04-27T20:51:06.902Z</time>
      </trkpt>
      <trkpt lat="48.83672" lon="2.39173">
        <ele>98.2</ele>
        <time>2015-04-27T20:51:07.907Z</time>
      </trkpt>
      <trkpt lat="48.83679" lon="2.3917">
        <ele>97.1</ele>
        <time>2015-04-27T20:51:08.913Z</time>
      </trkpt>
      <trkpt lat="48.83686" lon="2.39167">
        <ele>96.4</ele>
        <time>2015-04-27T20:51:09.921Z</time>
      </trkpt>
      <trkpt lat="48.83693" lon="2.39163">
        <ele>96.2</ele>
        <time>2015-04-27T20:51:10.926Z</time>
      </trkpt>
      <trkpt lat="48.837" lon="2.39161">
        <ele>96</ele>
        <time>2015-04-27T20:51:11.839Z</time>
      </trkpt>
      <trkpt lat="48.83706" lon="2.39156">
        <ele>95.5</ele>
        <time>2015-04-27T20:51:12.848Z</time>
      </trkpt>
      <trkpt lat="48.83711" lon="2.39149">
        <ele>94.7</ele>
        <time>2015-04-27T20:51:13.862Z</time>
      </trkpt>
      <trkpt lat="48.83716" lon="2.39143">
        <ele>94</ele>
        <time>2015-04-27T20:51:14.892Z</time>
      </trkpt>
      <trkpt lat="48.83721" lon="2.39137">
        <ele>93.5</ele>
        <time>2015-04-27T20:51:15.903Z</time>
      </trkpt>
      <trkpt lat="48.83725" lon="2.39132">
        <ele>93</ele>
        <time>2015-04-27T20:51:16.923Z</time>
      </trkpt>
      <trkpt lat="48.83729" lon="2.39127">
        <ele>92.6</ele>
        <time>2015-04-27T20:51:17.837Z</time>
      </trkpt>
      <trkpt lat="48.83734" lon="2.39122">
        <ele>92.4</ele>
        <time>2015-04-27T20:51:18.847Z</time>
      </trkpt>
      <trkpt lat="48.83738" lon="2.39114">
        <ele>92.7</ele>
        <time>2015-04-27T20:51:19.851Z</time>
      </trkpt>
      <trkpt lat="48.83742" lon="2.39107">
        <ele>93</ele>
        <time>2015-04-27T20:51:20.860Z</time>
      </trkpt>
      <trkpt lat="48.83746" lon="2.39102">
        <ele>93</ele>
        <time>2015-04-27T20:51:21.894Z</time>
      </trkpt>
      <trkpt lat="48.83751" lon="2.39097">
        <ele>92.7</ele>
        <time>2015-04-27T20:51:22.910Z</time>
      </trkpt>
      <trkpt lat="48.83755" lon="2.39092">
        <ele>92.7</ele>
        <time>2015-04-27T20:51:23.921Z</time>
      </trkpt>
      <trkpt lat="48.83759" lon="2.39087">
        <ele>92.5</ele>
        <time>2015-04-27T20:51:24.841Z</time>
      </trkpt>
      <trkpt lat="48.83764" lon="2.3908">
        <ele>92.6</ele>
        <time>2015-04-27T20:51:25.842Z</time>
      </trkpt>
      <trkpt lat="48.83769" lon="2.39075">
        <ele>92.5</ele>
        <time>2015-04-27T20:51:26.849Z</time>
      </trkpt>
      <trkpt lat="48.83774" lon="2.3907">
        <ele>92.7</ele>
        <time>2015-04-27T20:51:27.879Z</time>
      </trkpt>
      <trkpt lat="48.83778" lon="2.39065">
        <ele>92.8</ele>
        <time>2015-04-27T20:51:28.883Z</time>
      </trkpt>
      <trkpt lat="48.83783" lon="2.39061">
        <ele>92.8</ele>
        <time>2015-04-27T20:51:29.897Z</time>
      </trkpt>
      <trkpt lat="48.83788" lon="2.39056">
        <ele>92.7</ele>
        <time>2015-04-27T20:51:30.901Z</time>
      </trkpt>
      <trkpt lat="48.83794" lon="2.39052">
        <ele>92.7</ele>
        <time>2015-04-27T20:51:31.912Z</time>
      </trkpt>
      <trkpt lat="48.83798" lon="2.39048">
        <ele>92.9</ele>
        <time>2015-04-27T20:51:32.935Z</time>
      </trkpt>
      <trkpt lat="48.83802" lon="2.39042">
        <ele>92.9</ele>
        <time>2015-04-27T20:51:33.951Z</time>
      </trkpt>
      <trkpt lat="48.83806" lon="2.39036">
        <ele>92.7</ele>
        <time>2015-04-27T20:51:34.835Z</time>
      </trkpt>
      <trkpt lat="48.83809" lon="2.39029">
        <ele>92.6</ele>
        <time>2015-04-27T20:51:35.848Z</time>
      </trkpt>
      <trkpt lat="48.83813" lon="2.39021">
        <ele>92.6</ele>
        <time>2015-04-27T20:51:36.873Z</time>
      </trkpt>
      <trkpt lat="48.83816" lon="2.39013">
        <ele>92.4</ele>
        <time>2015-04-27T20:51:37.896Z</time>
      </trkpt>
      <trkpt lat="48.8382" lon="2.39005">
        <ele>92.1</ele>
        <time>2015-04-27T20:51:38.900Z</time>
      </trkpt>
      <trkpt lat="48.83824" lon="2.38998">
        <ele>91.8</ele>
        <time>2015-04-27T20:51:39.905Z</time>
      </trkpt>
      <trkpt lat="48.83829" lon="2.38991">
        <ele>91.8</ele>
        <time>2015-04-27T20:51:40.909Z</time>
      </trkpt>
      <trkpt lat="48.83833" lon="2.38985">
        <ele>92</ele>
        <time>2015-04-27T20:51:41.916Z</time>
      </trkpt>
      <trkpt lat="48.83838" lon="2.38981">
        <ele>91.9</ele>
        <time>2015-04-27T20:51:42.837Z</time>
      </trkpt>
      <trkpt lat="48.83843" lon="2.38977">
        <ele>91.9</ele>
        <time>2015-04-27T20:51:43.837Z</time>
      </trkpt>
      <trkpt lat="48.83847" lon="2.38973">
        <ele>91.9</ele>
        <time>2015-04-27T20:51:44.844Z</time>
      </trkpt>
      <trkpt lat="48.83852" lon="2.38969">
        <ele>91.9</ele>
        <time>2015-04-27T20:51:45.878Z</time>
      </trkpt>
      <trkpt lat="48.83856" lon="2.38964">
        <ele>91.9</ele>
        <time>2015-04-27T20:51:46.878Z</time>
      </trkpt>
      <trkpt lat="48.83859" lon="2.38958">
        <ele>92</ele>
        <time>2015-04-27T20:51:47.892Z</time>
      </trkpt>
      <trkpt lat="48.83863" lon="2.38953">
        <ele>92.1</ele>
        <time>2015-04-27T20:51:48.904Z</time>
      </trkpt>
      <trkpt lat="48.83869" lon="2.38945">
        <ele>92.6</ele>
        <time>2015-04-27T20:51:50.818Z</time>
      </trkpt>
      <trkpt lat="48.83872" lon="2.38943">
        <ele>92.6</ele>
        <time>2015-04-27T20:51:51.958Z</time>
      </trkpt>
      <trkpt lat="48.83879" lon="2.38937">
        <ele>92.6</ele>
        <time>2015-04-27T20:51:54.866Z</time>
      </trkpt>
      <trkpt lat="48.83881" lon="2.38936">
        <ele>92.6</ele>
        <time>2015-04-27T20:51:55.875Z</time>
      </trkpt>
      <trkpt lat="48.83889" lon="2.38933">
        <ele>94.5</ele>
        <time>2015-04-27T20:51:58.820Z</time>
      </trkpt>
      <trkpt lat="48.83892" lon="2.38932">
        <ele>95</ele>
        <time>2015-04-27T20:51:59.831Z</time>
      </trkpt>
      <trkpt lat="48.83897" lon="2.38933">
        <ele>96.9</ele>
        <time>2015-04-27T20:53:33.902Z</time>
      </trkpt>
      <trkpt lat="48.83907" lon="2.38928">
        <ele>108.5</ele>
        <time>2015-04-27T20:53:34.956Z</time>
      </trkpt>
      <trkpt lat="48.8391" lon="2.38918">
        <ele>107.6</ele>
        <time>2015-04-27T20:53:38.924Z</time>
      </trkpt>
      <trkpt lat="48.8391" lon="2.38915">
        <ele>107.7</ele>
        <time>2015-04-27T20:53:39.934Z</time>
      </trkpt>
      <trkpt lat="48.8391" lon="2.38902">
        <ele>107.5</ele>
        <time>2015-04-27T20:53:42.843Z</time>
      </trkpt>
      <trkpt lat="48.8391" lon="2.38898">
        <ele>107.2</ele>
        <time>2015-04-27T20:53:43.880Z</time>
      </trkpt>
      <trkpt lat="48.83907" lon="2.38886">
        <ele>105.9</ele>
        <time>2015-04-27T20:53:45.922Z</time>
      </trkpt>
      <trkpt lat="48.83904" lon="2.38878">
        <ele>105.4</ele>
        <time>2015-04-27T20:53:46.839Z</time>
      </trkpt>
      <trkpt lat="48.83903" lon="2.3887">
        <ele>105.3</ele>
        <time>2015-04-27T20:53:47.857Z</time>
      </trkpt>
      <trkpt lat="48.83902" lon="2.38862">
        <ele>105.5</ele>
        <time>2015-04-27T20:53:48.864Z</time>
      </trkpt>
      <trkpt lat="48.83901" lon="2.38854">
        <ele>105.8</ele>
        <time>2015-04-27T20:53:49.901Z</time>
      </trkpt>
      <trkpt lat="48.839" lon="2.38848">
        <ele>106</ele>
        <time>2015-04-27T20:53:50.906Z</time>
      </trkpt>
      <trkpt lat="48.83899" lon="2.38841">
        <ele>105.5</ele>
        <time>2015-04-27T20:53:51.927Z</time>
      </trkpt>
      <trkpt lat="48.83899" lon="2.38833">
        <ele>105.3</ele>
        <time>2015-04-27T20:53:52.808Z</time>
      </trkpt>
      <trkpt lat="48.83898" lon="2.38826">
        <ele>104.9</ele>
        <time>2015-04-27T20:53:53.841Z</time>
      </trkpt>
      <trkpt lat="48.83897" lon="2.38819">
        <ele>104.3</ele>
        <time>2015-04-27T20:53:54.850Z</time>
      </trkpt>
      <trkpt lat="48.83899" lon="2.38806">
        <ele>103.3</ele>
        <time>2015-04-27T20:53:56.885Z</time>
      </trkpt>
      <trkpt lat="48.839" lon="2.38799">
        <ele>102.5</ele>
        <time>2015-04-27T20:53:57.896Z</time>
      </trkpt>
      <trkpt lat="48.83901" lon="2.38791">
        <ele>102.4</ele>
        <time>2015-04-27T20:53:58.920Z</time>
      </trkpt>
      <trkpt lat="48.83902" lon="2.38784">
        <ele>102.1</ele>
        <time>2015-04-27T20:53:59.831Z</time>
      </trkpt>
      <trkpt lat="48.83903" lon="2.38776">
        <ele>101.6</ele>
        <time>2015-04-27T20:54:00.806Z</time>
      </trkpt>
      <trkpt lat="48.83904" lon="2.38768">
        <ele>101.4</ele>
        <time>2015-04-27T20:54:01.825Z</time>
      </trkpt>
      <trkpt lat="48.83904" lon="2.38759">
        <ele>101.1</ele>
        <time>2015-04-27T20:54:02.838Z</time>
      </trkpt>
      <trkpt lat="48.83905" lon="2.3875">
        <ele>101</ele>
        <time>2015-04-27T20:54:03.871Z</time>
      </trkpt>
      <trkpt lat="48.83905" lon="2.38741">
        <ele>100.8</ele>
        <time>2015-04-27T20:54:04.896Z</time>
      </trkpt>
      <trkpt lat="48.83906" lon="2.38732">
        <ele>100.6</ele>
        <time>2015-04-27T20:54:05.911Z</time>
      </trkpt>
      <trkpt lat="48.83906" lon="2.38722">
        <ele>100.6</ele>
        <time>2015-04-27T20:54:06.835Z</time>
      </trkpt>
      <trkpt lat="48.83908" lon="2.38713">
        <ele>100.3</ele>
        <time>2015-04-27T20:54:07.858Z</time>
      </trkpt>
      <trkpt lat="48.8391" lon="2.38705">
        <ele>100.1</ele>
        <time>2015-04-27T20:54:08.853Z</time>
      </trkpt>
      <trkpt lat="48.83913" lon="2.38697">
        <ele>100</ele>
        <time>2015-04-27T20:54:09.872Z</time>
      </trkpt>
      <trkpt lat="48.83917" lon="2.3869">
        <ele>99.3</ele>
        <time>2015-04-27T20:54:10.892Z</time>
      </trkpt>
      <trkpt lat="48.8392" lon="2.38684">
        <ele>99.4</ele>
        <time>2015-04-27T20:54:11.896Z</time>
      </trkpt>
      <trkpt lat="48.83924" lon="2.38661">
        <ele>99.4</ele>
        <time>2015-04-27T20:54:15.855Z</time>
      </trkpt>
      <trkpt lat="48.83921" lon="2.38655">
        <ele>99</ele>
        <time>2015-04-27T20:54:16.910Z</time>
      </trkpt>
      <trkpt lat="48.83915" lon="2.38648">
        <ele>98.5</ele>
        <time>2015-04-27T20:54:17.923Z</time>
      </trkpt>
      <trkpt lat="48.83903" lon="2.38624">
        <ele>97.6</ele>
        <time>2015-04-27T20:54:20.962Z</time>
      </trkpt>
      <trkpt lat="48.83905" lon="2.38613">
        <ele>95.9</ele>
        <time>2015-04-27T20:54:22.855Z</time>
      </trkpt>
      <trkpt lat="48.83908" lon="2.38607">
        <ele>95.1</ele>
        <time>2015-04-27T20:54:23.934Z</time>
      </trkpt>
      <trkpt lat="48.83907" lon="2.38597">
        <ele>94.2</ele>
        <time>2015-04-27T20:54:24.923Z</time>
      </trkpt>
      <trkpt lat="48.83917" lon="2.38576">
        <ele>92</ele>
        <time>2015-04-27T20:54:26.945Z</time>
      </trkpt>
      <trkpt lat="48.83921" lon="2.38562">
        <ele>91.2</ele>
        <time>2015-04-27T20:54:27.902Z</time>
      </trkpt>
      <trkpt lat="48.83925" lon="2.38549">
        <ele>90.8</ele>
        <time>2015-04-27T20:54:28.914Z</time>
      </trkpt>
      <trkpt lat="48.83928" lon="2.38534">
        <ele>91.2</ele>
        <time>2015-04-27T20:54:29.907Z</time>
      </trkpt>
      <trkpt lat="48.83937" lon="2.38522">
        <ele>94.2</ele>
        <time>2015-04-27T20:54:30.928Z</time>
      </trkpt>
      <trkpt lat="48.83938" lon="2.38509">
        <ele>93.1</ele>
        <time>2015-04-27T20:54:31.831Z</time>
      </trkpt>
      <trkpt lat="48.83941" lon="2.38499">
        <ele>94.4</ele>
        <time>2015-04-27T20:54:32.838Z</time>
      </trkpt>
      <trkpt lat="48.83943" lon="2.3849">
        <ele>93.9</ele>
        <time>2015-04-27T20:54:33.862Z</time>
      </trkpt>
      <trkpt lat="48.83945" lon="2.38482">
        <ele>93.2</ele>
        <time>2015-04-27T20:54:34.870Z</time>
      </trkpt>
      <trkpt lat="48.83946" lon="2.38473">
        <ele>93.2</ele>
        <time>2015-04-27T20:54:35.900Z</time>
      </trkpt>
      <trkpt lat="48.83948" lon="2.38465">
        <ele>91.6</ele>
        <time>2015-04-27T20:54:36.833Z</time>
      </trkpt>
      <trkpt lat="48.83953" lon="2.38459">
        <ele>89.7</ele>
        <time>2015-04-27T20:54:37.852Z</time>
      </trkpt>
      <trkpt lat="48.83956" lon="2.38451">
        <ele>88.2</ele>
        <time>2015-04-27T20:54:38.833Z</time>
      </trkpt>
      <trkpt lat="48.83958" lon="2.38444">
        <ele>87.8</ele>
        <time>2015-04-27T20:54:39.872Z</time>
      </trkpt>
      <trkpt lat="48.83961" lon="2.38435">
        <ele>88.4</ele>
        <time>2015-04-27T20:54:40.864Z</time>
      </trkpt>
      <trkpt lat="48.83963" lon="2.38427">
        <ele>88.9</ele>
        <time>2015-04-27T20:54:41.886Z</time>
      </trkpt>
      <trkpt lat="48.83964" lon="2.38419">
        <ele>88.3</ele>
        <time>2015-04-27T20:54:42.890Z</time>
      </trkpt>
      <trkpt lat="48.83966" lon="2.38412">
        <ele>87.8</ele>
        <time>2015-04-27T20:54:43.907Z</time>
      </trkpt>
      <trkpt lat="48.83968" lon="2.38404">
        <ele>88.2</ele>
        <time>2015-04-27T20:54:44.919Z</time>
      </trkpt>
      <trkpt lat="48.8397" lon="2.38397">
        <ele>88.1</ele>
        <time>2015-04-27T20:54:45.933Z</time>
      </trkpt>
      <trkpt lat="48.83972" lon="2.38389">
        <ele>87.9</ele>
        <time>2015-04-27T20:54:46.829Z</time>
      </trkpt>
      <trkpt lat="48.83986" lon="2.38326">
        <ele>87.3</ele>
        <time>2015-04-27T20:54:54.844Z</time>
      </trkpt>
      <trkpt lat="48.83987" lon="2.38318">
        <ele>87.3</ele>
        <time>2015-04-27T20:54:55.834Z</time>
      </trkpt>
      <trkpt lat="48.83988" lon="2.3831">
        <ele>86.9</ele>
        <time>2015-04-27T20:54:56.857Z</time>
      </trkpt>
      <trkpt lat="48.83988" lon="2.38299">
        <ele>86.2</ele>
        <time>2015-04-27T20:54:57.942Z</time>
      </trkpt>
      <trkpt lat="48.83991" lon="2.38287">
        <ele>85</ele>
        <time>2015-04-27T20:54:58.832Z</time>
      </trkpt>
      <trkpt lat="48.83992" lon="2.38277">
        <ele>85.8</ele>
        <time>2015-04-27T20:54:59.838Z</time>
      </trkpt>
      <trkpt lat="48.83993" lon="2.38267">
        <ele>87.4</ele>
        <time>2015-04-27T20:55:00.858Z</time>
      </trkpt>
      <trkpt lat="48.83994" lon="2.38258">
        <ele>87.8</ele>
        <time>2015-04-27T20:55:01.862Z</time>
      </trkpt>
      <trkpt lat="48.83996" lon="2.3825">
        <ele>88.4</ele>
        <time>2015-04-27T20:55:02.878Z</time>
      </trkpt>
      <trkpt lat="48.83998" lon="2.3824">
        <ele>89.9</ele>
        <time>2015-04-27T20:55:03.893Z</time>
      </trkpt>
      <trkpt lat="48.83999" lon="2.38231">
        <ele>90.2</ele>
        <time>2015-04-27T20:55:04.918Z</time>
      </trkpt>
      <trkpt lat="48.83999" lon="2.38222">
        <ele>90.8</ele>
        <time>2015-04-27T20:55:05.832Z</time>
      </trkpt>
      <trkpt lat="48.84" lon="2.38213">
        <ele>90.5</ele>
        <time>2015-04-27T20:55:06.846Z</time>
      </trkpt>
      <trkpt lat="48.84001" lon="2.38204">
        <ele>90.9</ele>
        <time>2015-04-27T20:55:07.861Z</time>
      </trkpt>
      <trkpt lat="48.84002" lon="2.38197">
        <ele>90.7</ele>
        <time>2015-04-27T20:55:08.872Z</time>
      </trkpt>
      <trkpt lat="48.84003" lon="2.38189">
        <ele>90.4</ele>
        <time>2015-04-27T20:55:09.879Z</time>
      </trkpt>
      <trkpt lat="48.84003" lon="2.38181">
        <ele>90.7</ele>
        <time>2015-04-27T20:55:10.883Z</time>
      </trkpt>
      <trkpt lat="48.84006" lon="2.38174">
        <ele>89.3</ele>
        <time>2015-04-27T20:55:11.896Z</time>
      </trkpt>
      <trkpt lat="48.84007" lon="2.38167">
        <ele>89.3</ele>
        <time>2015-04-27T20:55:12.915Z</time>
      </trkpt>
      <trkpt lat="48.84008" lon="2.3816">
        <ele>88.9</ele>
        <time>2015-04-27T20:55:13.827Z</time>
      </trkpt>
      <trkpt lat="48.84009" lon="2.38153">
        <ele>88.1</ele>
        <time>2015-04-27T20:55:14.844Z</time>
      </trkpt>
      <trkpt lat="48.84011" lon="2.38147">
        <ele>87.6</ele>
        <time>2015-04-27T20:55:15.870Z</time>
      </trkpt>
      <trkpt lat="48.84013" lon="2.38141">
        <ele>86.8</ele>
        <time>2015-04-27T20:55:16.884Z</time>
      </trkpt>
      <trkpt lat="48.84014" lon="2.38133">
        <ele>85.9</ele>
        <time>2015-04-27T20:55:17.895Z</time>
      </trkpt>
      <trkpt lat="48.84014" lon="2.38125">
        <ele>85.7</ele>
        <time>2015-04-27T20:55:18.912Z</time>
      </trkpt>
      <trkpt lat="48.84015" lon="2.38117">
        <ele>86</ele>
        <time>2015-04-27T20:55:19.833Z</time>
      </trkpt>
      <trkpt lat="48.84016" lon="2.38109">
        <ele>87.1</ele>
        <time>2015-04-27T20:55:20.842Z</time>
      </trkpt>
      <trkpt lat="48.84018" lon="2.38101">
        <ele>87.2</ele>
        <time>2015-04-27T20:55:21.862Z</time>
      </trkpt>
      <trkpt lat="48.8402" lon="2.38094">
        <ele>87.2</ele>
        <time>2015-04-27T20:55:22.867Z</time>
      </trkpt>
      <trkpt lat="48.84021" lon="2.38087">
        <ele>87.1</ele>
        <time>2015-04-27T20:55:23.892Z</time>
      </trkpt>
      <trkpt lat="48.84023" lon="2.38079">
        <ele>87.1</ele>
        <time>2015-04-27T20:55:24.903Z</time>
      </trkpt>
      <trkpt lat="48.84025" lon="2.38072">
        <ele>86.9</ele>
        <time>2015-04-27T20:55:25.815Z</time>
      </trkpt>
      <trkpt lat="48.84026" lon="2.38064">
        <ele>87.1</ele>
        <time>2015-04-27T20:55:26.836Z</time>
      </trkpt>
      <trkpt lat="48.84027" lon="2.38057">
        <ele>87</ele>
        <time>2015-04-27T20:55:27.853Z</time>
      </trkpt>
      <trkpt lat="48.84028" lon="2.3805">
        <ele>87.2</ele>
        <time>2015-04-27T20:55:28.888Z</time>
      </trkpt>
      <trkpt lat="48.84029" lon="2.38043">
        <ele>87.6</ele>
        <time>2015-04-27T20:55:29.889Z</time>
      </trkpt>
      <trkpt lat="48.84029" lon="2.38036">
        <ele>88.3</ele>
        <time>2015-04-27T20:55:30.903Z</time>
      </trkpt>
      <trkpt lat="48.84031" lon="2.38029">
        <ele>88.7</ele>
        <time>2015-04-27T20:55:31.823Z</time>
      </trkpt>
      <trkpt lat="48.84032" lon="2.38022">
        <ele>88.9</ele>
        <time>2015-04-27T20:55:32.841Z</time>
      </trkpt>
      <trkpt lat="48.84032" lon="2.38015">
        <ele>89.1</ele>
        <time>2015-04-27T20:55:33.958Z</time>
      </trkpt>
      <trkpt lat="48.84033" lon="2.38008">
        <ele>89</ele>
        <time>2015-04-27T20:55:34.824Z</time>
      </trkpt>
      <trkpt lat="48.84033" lon="2.38001">
        <ele>89</ele>
        <time>2015-04-27T20:55:35.838Z</time>
      </trkpt>
      <trkpt lat="48.84033" lon="2.37994">
        <ele>89</ele>
        <time>2015-04-27T20:55:36.850Z</time>
      </trkpt>
      <trkpt lat="48.84037" lon="2.37982">
        <ele>88.9</ele>
        <time>2015-04-27T20:55:38.872Z</time>
      </trkpt>
      <trkpt lat="48.84038" lon="2.37974">
        <ele>89.2</ele>
        <time>2015-04-27T20:55:39.878Z</time>
      </trkpt>
      <trkpt lat="48.84039" lon="2.37967">
        <ele>89.3</ele>
        <time>2015-04-27T20:55:40.828Z</time>
      </trkpt>
      <trkpt lat="48.8404" lon="2.3796">
        <ele>89.1</ele>
        <time>2015-04-27T20:55:41.835Z</time>
      </trkpt>
      <trkpt lat="48.84041" lon="2.37953">
        <ele>88.7</ele>
        <time>2015-04-27T20:55:42.867Z</time>
      </trkpt>
      <trkpt lat="48.84042" lon="2.37947">
        <ele>88.7</ele>
        <time>2015-04-27T20:55:43.878Z</time>
      </trkpt>
      <trkpt lat="48.84043" lon="2.3794">
        <ele>88.5</ele>
        <time>2015-04-27T20:55:44.901Z</time>
      </trkpt>
      <trkpt lat="48.84044" lon="2.37933">
        <ele>88.6</ele>
        <time>2015-04-27T20:55:45.910Z</time>
      </trkpt>
      <trkpt lat="48.84046" lon="2.37922">
        <ele>88.5</ele>
        <time>2015-04-27T20:55:47.828Z</time>
      </trkpt>
      <trkpt lat="48.84047" lon="2.37917">
        <ele>88.5</ele>
        <time>2015-04-27T20:55:48.843Z</time>
      </trkpt>
      <trkpt lat="48.8405" lon="2.37909">
        <ele>88.7</ele>
        <time>2015-04-27T20:55:50.866Z</time>
      </trkpt>
      <trkpt lat="48.84052" lon="2.37905">
        <ele>88.9</ele>
        <time>2015-04-27T20:55:51.903Z</time>
      </trkpt>
      <trkpt lat="48.84056" lon="2.37898">
        <ele>89.7</ele>
        <time>2015-04-27T20:55:53.854Z</time>
      </trkpt>
      <trkpt lat="48.84057" lon="2.37894">
        <ele>90.2</ele>
        <time>2015-04-27T20:55:54.862Z</time>
      </trkpt>
      <trkpt lat="48.8406" lon="2.37884">
        <ele>90.8</ele>
        <time>2015-04-27T20:55:56.933Z</time>
      </trkpt>
      <trkpt lat="48.84063" lon="2.37879">
        <ele>89.9</ele>
        <time>2015-04-27T20:55:57.942Z</time>
      </trkpt>
      <trkpt lat="48.84066" lon="2.37874">
        <ele>89.2</ele>
        <time>2015-04-27T20:55:58.806Z</time>
      </trkpt>
      <trkpt lat="48.84068" lon="2.37866">
        <ele>88.9</ele>
        <time>2015-04-27T20:55:59.849Z</time>
      </trkpt>
      <trkpt lat="48.84076" lon="2.37859">
        <ele>89</ele>
        <time>2015-04-27T20:56:01.879Z</time>
      </trkpt>
      <trkpt lat="48.84079" lon="2.37857">
        <ele>88.7</ele>
        <time>2015-04-27T20:56:02.885Z</time>
      </trkpt>
      <trkpt lat="48.84083" lon="2.37852">
        <ele>86.5</ele>
        <time>2015-04-27T20:56:04.835Z</time>
      </trkpt>
      <trkpt lat="48.84086" lon="2.37847">
        <ele>86</ele>
        <time>2015-04-27T20:56:05.869Z</time>
      </trkpt>
      <trkpt lat="48.84091" lon="2.3784">
        <ele>86.3</ele>
        <time>2015-04-27T20:56:07.898Z</time>
      </trkpt>
      <trkpt lat="48.84094" lon="2.37837">
        <ele>86.1</ele>
        <time>2015-04-27T20:56:08.915Z</time>
      </trkpt>
      <trkpt lat="48.84101" lon="2.37832">
        <ele>86.7</ele>
        <time>2015-04-27T20:56:10.870Z</time>
      </trkpt>
      <trkpt lat="48.84105" lon="2.37831">
        <ele>87.1</ele>
        <time>2015-04-27T20:56:11.881Z</time>
      </trkpt>
      <trkpt lat="48.84111" lon="2.37825">
        <ele>87.5</ele>
        <time>2015-04-27T20:56:13.845Z</time>
      </trkpt>
      <trkpt lat="48.84114" lon="2.37821">
        <ele>87.5</ele>
        <time>2015-04-27T20:56:14.860Z</time>
      </trkpt>
      <trkpt lat="48.84117" lon="2.37816">
        <ele>87.3</ele>
        <time>2015-04-27T20:56:15.953Z</time>
      </trkpt>
      <trkpt lat="48.8412" lon="2.3781">
        <ele>87.2</ele>
        <time>2015-04-27T20:56:16.830Z</time>
      </trkpt>
      <trkpt lat="48.84123" lon="2.37805">
        <ele>87.2</ele>
        <time>2015-04-27T20:56:17.850Z</time>
      </trkpt>
      <trkpt lat="48.84126" lon="2.37798">
        <ele>87.4</ele>
        <time>2015-04-27T20:56:18.864Z</time>
      </trkpt>
      <trkpt lat="48.84129" lon="2.37793">
        <ele>87.7</ele>
        <time>2015-04-27T20:56:19.870Z</time>
      </trkpt>
      <trkpt lat="48.84132" lon="2.37787">
        <ele>87.7</ele>
        <time>2015-04-27T20:56:20.888Z</time>
      </trkpt>
      <trkpt lat="48.84135" lon="2.37781">
        <ele>87.6</ele>
        <time>2015-04-27T20:56:21.902Z</time>
      </trkpt>
      <trkpt lat="48.84138" lon="2.37775">
        <ele>87.6</ele>
        <time>2015-04-27T20:56:22.917Z</time>
      </trkpt>
      <trkpt lat="48.84141" lon="2.37769">
        <ele>87.8</ele>
        <time>2015-04-27T20:56:23.835Z</time>
      </trkpt>
      <trkpt lat="48.84144" lon="2.37763">
        <ele>87.8</ele>
        <time>2015-04-27T20:56:24.842Z</time>
      </trkpt>
      <trkpt lat="48.84147" lon="2.37758">
        <ele>87.9</ele>
        <time>2015-04-27T20:56:25.857Z</time>
      </trkpt>
      <trkpt lat="48.8415" lon="2.37753">
        <ele>88.1</ele>
        <time>2015-04-27T20:56:26.901Z</time>
      </trkpt>
      <trkpt lat="48.84153" lon="2.37747">
        <ele>88.3</ele>
        <time>2015-04-27T20:56:27.922Z</time>
      </trkpt>
      <trkpt lat="48.84156" lon="2.3774">
        <ele>88.5</ele>
        <time>2015-04-27T20:56:28.839Z</time>
      </trkpt>
      <trkpt lat="48.84159" lon="2.37734">
        <ele>88.8</ele>
        <time>2015-04-27T20:56:29.856Z</time>
      </trkpt>
      <trkpt lat="48.84161" lon="2.37728">
        <ele>89.2</ele>
        <time>2015-04-27T20:56:30.868Z</time>
      </trkpt>
      <trkpt lat="48.84164" lon="2.37723">
        <ele>89.5</ele>
        <time>2015-04-27T20:56:31.894Z</time>
      </trkpt>
      <trkpt lat="48.84167" lon="2.37718">
        <ele>89.5</ele>
        <time>2015-04-27T20:56:32.896Z</time>
      </trkpt>
      <trkpt lat="48.84171" lon="2.37712">
        <ele>89.4</ele>
        <time>2015-04-27T20:56:33.904Z</time>
      </trkpt>
      <trkpt lat="48.84174" lon="2.37707">
        <ele>89.6</ele>
        <time>2015-04-27T20:56:34.908Z</time>
      </trkpt>
      <trkpt lat="48.84177" lon="2.37701">
        <ele>89.8</ele>
        <time>2015-04-27T20:56:36.087Z</time>
      </trkpt>
      <trkpt lat="48.8418" lon="2.37695">
        <ele>90.1</ele>
        <time>2015-04-27T20:56:36.829Z</time>
      </trkpt>
      <trkpt lat="48.84182" lon="2.37689">
        <ele>90.3</ele>
        <time>2015-04-27T20:56:37.855Z</time>
      </trkpt>
      <trkpt lat="48.84184" lon="2.37682">
        <ele>90.4</ele>
        <time>2015-04-27T20:56:38.895Z</time>
      </trkpt>
      <trkpt lat="48.84186" lon="2.37675">
        <ele>90.8</ele>
        <time>2015-04-27T20:56:39.913Z</time>
      </trkpt>
      <trkpt lat="48.84189" lon="2.37669">
        <ele>91.4</ele>
        <time>2015-04-27T20:56:40.853Z</time>
      </trkpt>
      <trkpt lat="48.84194" lon="2.37659">
        <ele>92.6</ele>
        <time>2015-04-27T20:56:42.862Z</time>
      </trkpt>
      <trkpt lat="48.84197" lon="2.37654">
        <ele>92.9</ele>
        <time>2015-04-27T20:56:43.878Z</time>
      </trkpt>
      <trkpt lat="48.84202" lon="2.37645">
        <ele>93.8</ele>
        <time>2015-04-27T20:56:45.874Z</time>
      </trkpt>
      <trkpt lat="48.84205" lon="2.37642">
        <ele>94.2</ele>
        <time>2015-04-27T20:56:46.879Z</time>
      </trkpt>
      <trkpt lat="48.84211" lon="2.37633">
        <ele>94.8</ele>
        <time>2015-04-27T20:56:49.886Z</time>
      </trkpt>
      <trkpt lat="48.84213" lon="2.3763">
        <ele>95.3</ele>
        <time>2015-04-27T20:56:50.911Z</time>
      </trkpt>
      <trkpt lat="48.84217" lon="2.37623">
        <ele>95.8</ele>
        <time>2015-04-27T20:56:52.850Z</time>
      </trkpt>
      <trkpt lat="48.84218" lon="2.37617">
        <ele>95.6</ele>
        <time>2015-04-27T20:56:53.868Z</time>
      </trkpt>
      <trkpt lat="48.84222" lon="2.37608">
        <ele>95.6</ele>
        <time>2015-04-27T20:56:55.836Z</time>
      </trkpt>
      <trkpt lat="48.84222" lon="2.37601">
        <ele>95.5</ele>
        <time>2015-04-27T20:56:56.848Z</time>
      </trkpt>
      <trkpt lat="48.84225" lon="2.37589">
        <ele>95.2</ele>
        <time>2015-04-27T20:56:58.930Z</time>
      </trkpt>
      <trkpt lat="48.84227" lon="2.37584">
        <ele>95.2</ele>
        <time>2015-04-27T20:56:59.832Z</time>
      </trkpt>
      <trkpt lat="48.84233" lon="2.37575">
        <ele>94.8</ele>
        <time>2015-04-27T20:57:01.850Z</time>
      </trkpt>
      <trkpt lat="48.84236" lon="2.3757">
        <ele>94.6</ele>
        <time>2015-04-27T20:57:02.863Z</time>
      </trkpt>
      <trkpt lat="48.84242" lon="2.37561">
        <ele>94.5</ele>
        <time>2015-04-27T20:57:04.870Z</time>
      </trkpt>
      <trkpt lat="48.84246" lon="2.37557">
        <ele>94.6</ele>
        <time>2015-04-27T20:57:05.885Z</time>
      </trkpt>
      <trkpt lat="48.8425" lon="2.37553">
        <ele>94.9</ele>
        <time>2015-04-27T20:57:06.838Z</time>
      </trkpt>
      <trkpt lat="48.84255" lon="2.37551">
        <ele>95.1</ele>
        <time>2015-04-27T20:57:07.841Z</time>
      </trkpt>
      <trkpt lat="48.84258" lon="2.37546">
        <ele>95.3</ele>
        <time>2015-04-27T20:57:08.905Z</time>
      </trkpt>
      <trkpt lat="48.84262" lon="2.37542">
        <ele>95.8</ele>
        <time>2015-04-27T20:57:09.920Z</time>
      </trkpt>
      <trkpt lat="48.84267" lon="2.37541">
        <ele>95.8</ele>
        <time>2015-04-27T20:57:10.867Z</time>
      </trkpt>
      <trkpt lat="48.84271" lon="2.37537">
        <ele>95.9</ele>
        <time>2015-04-27T20:57:11.876Z</time>
      </trkpt>
      <trkpt lat="48.84275" lon="2.37533">
        <ele>96.1</ele>
        <time>2015-04-27T20:57:12.863Z</time>
      </trkpt>
      <trkpt lat="48.8428" lon="2.37528">
        <ele>96.6</ele>
        <time>2015-04-27T20:57:13.900Z</time>
      </trkpt>
      <trkpt lat="48.84284" lon="2.37523">
        <ele>96.9</ele>
        <time>2015-04-27T20:57:14.923Z</time>
      </trkpt>
      <trkpt lat="48.84286" lon="2.37514">
        <ele>96.1</ele>
        <time>2015-04-27T20:57:15.939Z</time>
      </trkpt>
      <trkpt lat="48.84289" lon="2.37507">
        <ele>96.2</ele>
        <time>2015-04-27T20:57:16.942Z</time>
      </trkpt>
      <trkpt lat="48.84291" lon="2.375">
        <ele>96.5</ele>
        <time>2015-04-27T20:57:17.827Z</time>
      </trkpt>
      <trkpt lat="48.84294" lon="2.37494">
        <ele>96.9</ele>
        <time>2015-04-27T20:57:18.830Z</time>
      </trkpt>
      <trkpt lat="48.84298" lon="2.3749">
        <ele>97.4</ele>
        <time>2015-04-27T20:57:19.838Z</time>
      </trkpt>
      <trkpt lat="48.843" lon="2.37484">
        <ele>97.8</ele>
        <time>2015-04-27T20:57:20.863Z</time>
      </trkpt>
      <trkpt lat="48.84302" lon="2.37476">
        <ele>98.5</ele>
        <time>2015-04-27T20:57:21.879Z</time>
      </trkpt>
      <trkpt lat="48.84304" lon="2.37466">
        <ele>100</ele>
        <time>2015-04-27T20:57:22.912Z</time>
      </trkpt>
      <trkpt lat="48.84304" lon="2.37456">
        <ele>100.6</ele>
        <time>2015-04-27T20:57:23.862Z</time>
      </trkpt>
      <trkpt lat="48.84307" lon="2.37446">
        <ele>101.4</ele>
        <time>2015-04-27T20:57:24.873Z</time>
      </trkpt>
      <trkpt lat="48.8431" lon="2.3744">
        <ele>102.2</ele>
        <time>2015-04-27T20:57:25.921Z</time>
      </trkpt>
      <trkpt lat="48.84315" lon="2.37436">
        <ele>102.8</ele>
        <time>2015-04-27T20:57:26.917Z</time>
      </trkpt>
      <trkpt lat="48.84319" lon="2.37432">
        <ele>103</ele>
        <time>2015-04-27T20:57:27.929Z</time>
      </trkpt>
      <trkpt lat="48.84325" lon="2.37429">
        <ele>102.4</ele>
        <time>2015-04-27T20:57:28.827Z</time>
      </trkpt>
      <trkpt lat="48.84329" lon="2.37423">
        <ele>101.3</ele>
        <time>2015-04-27T20:57:29.827Z</time>
      </trkpt>
      <trkpt lat="48.84333" lon="2.37417">
        <ele>100.5</ele>
        <time>2015-04-27T20:57:30.831Z</time>
      </trkpt>
      <trkpt lat="48.84338" lon="2.3741">
        <ele>100.4</ele>
        <time>2015-04-27T20:57:31.837Z</time>
      </trkpt>
      <trkpt lat="48.84344" lon="2.37404">
        <ele>100.9</ele>
        <time>2015-04-27T20:57:32.851Z</time>
      </trkpt>
      <trkpt lat="48.84347" lon="2.374">
        <ele>100.8</ele>
        <time>2015-04-27T20:57:33.879Z</time>
      </trkpt>
      <trkpt lat="48.84351" lon="2.37397">
        <ele>101.8</ele>
        <time>2015-04-27T20:57:34.873Z</time>
      </trkpt>
      <trkpt lat="48.84356" lon="2.37393">
        <ele>102.6</ele>
        <time>2015-04-27T20:57:35.890Z</time>
      </trkpt>
      <trkpt lat="48.84361" lon="2.3739">
        <ele>102.6</ele>
        <time>2015-04-27T20:57:36.900Z</time>
      </trkpt>
      <trkpt lat="48.84367" lon="2.37387">
        <ele>102.6</ele>
        <time>2015-04-27T20:57:37.908Z</time>
      </trkpt>
      <trkpt lat="48.84371" lon="2.37385">
        <ele>102.6</ele>
        <time>2015-04-27T20:57:38.923Z</time>
      </trkpt>
      <trkpt lat="48.84376" lon="2.37382">
        <ele>102.3</ele>
        <time>2015-04-27T20:57:39.931Z</time>
      </trkpt>
      <trkpt lat="48.84381" lon="2.37379">
        <ele>102.4</ele>
        <time>2015-04-27T20:57:40.821Z</time>
      </trkpt>
      <trkpt lat="48.84384" lon="2.37376">
        <ele>102.3</ele>
        <time>2015-04-27T20:57:41.824Z</time>
      </trkpt>
      <trkpt lat="48.84388" lon="2.37371">
        <ele>102.4</ele>
        <time>2015-04-27T20:57:42.853Z</time>
      </trkpt>
      <trkpt lat="48.84391" lon="2.37366">
        <ele>102.4</ele>
        <time>2015-04-27T20:57:43.863Z</time>
      </trkpt>
      <trkpt lat="48.84395" lon="2.3736">
        <ele>102.7</ele>
        <time>2015-04-27T20:57:44.880Z</time>
      </trkpt>
      <trkpt lat="48.84398" lon="2.37355">
        <ele>102.8</ele>
        <time>2015-04-27T20:57:45.920Z</time>
      </trkpt>
      <trkpt lat="48.844" lon="2.37351">
        <ele>102.6</ele>
        <time>2015-04-27T20:57:46.846Z</time>
      </trkpt>
      <trkpt lat="48.84405" lon="2.37346">
        <ele>102.7</ele>
        <time>2015-04-27T20:57:47.861Z</time>
      </trkpt>
      <trkpt lat="48.84408" lon="2.37338">
        <ele>102.8</ele>
        <time>2015-04-27T20:57:48.897Z</time>
      </trkpt>
      <trkpt lat="48.84409" lon="2.37329">
        <ele>102.5</ele>
        <time>2015-04-27T20:57:49.848Z</time>
      </trkpt>
      <trkpt lat="48.84412" lon="2.37323">
        <ele>102.9</ele>
        <time>2015-04-27T20:57:50.884Z</time>
      </trkpt>
      <trkpt lat="48.84416" lon="2.37318">
        <ele>103.2</ele>
        <time>2015-04-27T20:57:51.889Z</time>
      </trkpt>
      <trkpt lat="48.84419" lon="2.37312">
        <ele>103.6</ele>
        <time>2015-04-27T20:57:52.916Z</time>
      </trkpt>
      <trkpt lat="48.84424" lon="2.37307">
        <ele>102.2</ele>
        <time>2015-04-27T20:57:53.871Z</time>
      </trkpt>
      <trkpt lat="48.84427" lon="2.37302">
        <ele>101.8</ele>
        <time>2015-04-27T20:57:54.885Z</time>
      </trkpt>
      <trkpt lat="48.84431" lon="2.37296">
        <ele>101.9</ele>
        <time>2015-04-27T20:57:55.915Z</time>
      </trkpt>
      <trkpt lat="48.84435" lon="2.37289">
        <ele>102.8</ele>
        <time>2015-04-27T20:57:56.840Z</time>
      </trkpt>
      <trkpt lat="48.84438" lon="2.37281">
        <ele>103.1</ele>
        <time>2015-04-27T20:57:57.861Z</time>
      </trkpt>
      <trkpt lat="48.84442" lon="2.37275">
        <ele>104</ele>
        <time>2015-04-27T20:57:58.872Z</time>
      </trkpt>
      <trkpt lat="48.84444" lon="2.37267">
        <ele>104.5</ele>
        <time>2015-04-27T20:57:59.880Z</time>
      </trkpt>
      <trkpt lat="48.84447" lon="2.37254">
        <ele>104.4</ele>
        <time>2015-04-27T20:58:01.832Z</time>
      </trkpt>
      <trkpt lat="48.84449" lon="2.37246">
        <ele>105</ele>
        <time>2015-04-27T20:58:02.853Z</time>
      </trkpt>
      <trkpt lat="48.84451" lon="2.37241">
        <ele>105</ele>
        <time>2015-04-27T20:58:03.874Z</time>
      </trkpt>
      <trkpt lat="48.8445" lon="2.37231">
        <ele>104</ele>
        <time>2015-04-27T20:58:04.910Z</time>
      </trkpt>
      <trkpt lat="48.8445" lon="2.37219">
        <ele>101.9</ele>
        <time>2015-04-27T20:58:06.834Z</time>
      </trkpt>
      <trkpt lat="48.84451" lon="2.37216">
        <ele>101.7</ele>
        <time>2015-04-27T20:58:07.857Z</time>
      </trkpt>
      <trkpt lat="48.84458" lon="2.37214">
        <ele>101.6</ele>
        <time>2015-04-27T20:58:09.883Z</time>
      </trkpt>
      <trkpt lat="48.84462" lon="2.37212">
        <ele>101.8</ele>
        <time>2015-04-27T20:58:10.852Z</time>
      </trkpt>
      <trkpt lat="48.8447" lon="2.37209">
        <ele>102.4</ele>
        <time>2015-04-27T20:58:12.897Z</time>
      </trkpt>
      <trkpt lat="48.84475" lon="2.37207">
        <ele>102.9</ele>
        <time>2015-04-27T20:58:13.906Z</time>
      </trkpt>
      <trkpt lat="48.8448" lon="2.37202">
        <ele>103.6</ele>
        <time>2015-04-27T20:58:14.954Z</time>
      </trkpt>
      <trkpt lat="48.84484" lon="2.37198">
        <ele>104</ele>
        <time>2015-04-27T20:58:15.932Z</time>
      </trkpt>
      <trkpt lat="48.84489" lon="2.37194">
        <ele>104.4</ele>
        <time>2015-04-27T20:58:16.805Z</time>
      </trkpt>
      <trkpt lat="48.84495" lon="2.37191">
        <ele>104.5</ele>
        <time>2015-04-27T20:58:17.840Z</time>
      </trkpt>
      <trkpt lat="48.84499" lon="2.37187">
        <ele>104.9</ele>
        <time>2015-04-27T20:58:18.849Z</time>
      </trkpt>
      <trkpt lat="48.84503" lon="2.37182">
        <ele>104.6</ele>
        <time>2015-04-27T20:58:19.857Z</time>
      </trkpt>
      <trkpt lat="48.84507" lon="2.37175">
        <ele>104.3</ele>
        <time>2015-04-27T20:58:20.878Z</time>
      </trkpt>
      <trkpt lat="48.84507" lon="2.37166">
        <ele>103</ele>
        <time>2015-04-27T20:58:21.890Z</time>
      </trkpt>
      <trkpt lat="48.84512" lon="2.37156">
        <ele>101.8</ele>
        <time>2015-04-27T20:58:23.819Z</time>
      </trkpt>
      <trkpt lat="48.84516" lon="2.37151">
        <ele>101.7</ele>
        <time>2015-04-27T20:58:24.844Z</time>
      </trkpt>
      <trkpt lat="48.84521" lon="2.37145">
        <ele>100.6</ele>
        <time>2015-04-27T20:58:26.924Z</time>
      </trkpt>
      <trkpt lat="48.84522" lon="2.37142">
        <ele>99.5</ele>
        <time>2015-04-27T20:58:27.919Z</time>
      </trkpt>
      <trkpt lat="48.84527" lon="2.37135">
        <ele>98.2</ele>
        <time>2015-04-27T20:58:29.828Z</time>
      </trkpt>
      <trkpt lat="48.8453" lon="2.37132">
        <ele>97.8</ele>
        <time>2015-04-27T20:58:30.815Z</time>
      </trkpt>
      <trkpt lat="48.84535" lon="2.37127">
        <ele>97.1</ele>
        <time>2015-04-27T20:58:32.835Z</time>
      </trkpt>
      <trkpt lat="48.84538" lon="2.37124">
        <ele>96.8</ele>
        <time>2015-04-27T20:58:33.999Z</time>
      </trkpt>
      <trkpt lat="48.84543" lon="2.37117">
        <ele>96.2</ele>
        <time>2015-04-27T20:58:35.858Z</time>
      </trkpt>
      <trkpt lat="48.84546" lon="2.37115">
        <ele>95.9</ele>
        <time>2015-04-27T20:58:36.876Z</time>
      </trkpt>
      <trkpt lat="48.84552" lon="2.37112">
        <ele>95.5</ele>
        <time>2015-04-27T20:58:38.875Z</time>
      </trkpt>
      <trkpt lat="48.84555" lon="2.37111">
        <ele>95.5</ele>
        <time>2015-04-27T20:58:39.904Z</time>
      </trkpt>
      <trkpt lat="48.84563" lon="2.37109">
        <ele>97</ele>
        <time>2015-04-27T20:58:42.832Z</time>
      </trkpt>
      <trkpt lat="48.84565" lon="2.37113">
        <ele>97.2</ele>
        <time>2015-04-27T20:58:43.838Z</time>
      </trkpt>
      <trkpt lat="48.84572" lon="2.37114">
        <ele>94.7</ele>
        <time>2015-04-27T20:59:33.884Z</time>
      </trkpt>
      <trkpt lat="48.84574" lon="2.37112">
        <ele>94.8</ele>
        <time>2015-04-27T20:59:34.910Z</time>
      </trkpt>
      <trkpt lat="48.84581" lon="2.37106">
        <ele>95.5</ele>
        <time>2015-04-27T20:59:37.877Z</time>
      </trkpt>
      <trkpt lat="48.84584" lon="2.37105">
        <ele>95.6</ele>
        <time>2015-04-27T20:59:38.936Z</time>
      </trkpt>
      <trkpt lat="48.84589" lon="2.37101">
        <ele>96</ele>
        <time>2015-04-27T20:59:41.860Z</time>
      </trkpt>
      <trkpt lat="48.84592" lon="2.37099">
        <ele>96.4</ele>
        <time>2015-04-27T20:59:42.875Z</time>
      </trkpt>
      <trkpt lat="48.84597" lon="2.37095">
        <ele>97.2</ele>
        <time>2015-04-27T20:59:44.921Z</time>
      </trkpt>
      <trkpt lat="48.846" lon="2.37093">
        <ele>97.4</ele>
        <time>2015-04-27T20:59:45.925Z</time>
      </trkpt>
      <trkpt lat="48.84607" lon="2.37087">
        <ele>98.1</ele>
        <time>2015-04-27T20:59:48.859Z</time>
      </trkpt>
      <trkpt lat="48.84609" lon="2.37084">
        <ele>97.9</ele>
        <time>2015-04-27T20:59:49.802Z</time>
      </trkpt>
      <trkpt lat="48.84614" lon="2.37077">
        <ele>98.1</ele>
        <time>2015-04-27T20:59:51.880Z</time>
      </trkpt>
      <trkpt lat="48.84616" lon="2.37074">
        <ele>98.1</ele>
        <time>2015-04-27T20:59:52.899Z</time>
      </trkpt>
      <trkpt lat="48.84622" lon="2.37069">
        <ele>98.5</ele>
        <time>2015-04-27T20:59:54.818Z</time>
      </trkpt>
      <trkpt lat="48.84625" lon="2.37066">
        <ele>98.5</ele>
        <time>2015-04-27T20:59:55.824Z</time>
      </trkpt>
      <trkpt lat="48.84631" lon="2.37059">
        <ele>98.6</ele>
        <time>2015-04-27T20:59:57.883Z</time>
      </trkpt>
      <trkpt lat="48.84633" lon="2.37054">
        <ele>98.6</ele>
        <time>2015-04-27T20:59:58.896Z</time>
      </trkpt>
      <trkpt lat="48.84635" lon="2.37047">
        <ele>98.2</ele>
        <time>2015-04-27T20:59:59.901Z</time>
      </trkpt>
      <trkpt lat="48.84639" lon="2.37043">
        <ele>99.1</ele>
        <time>2015-04-27T21:00:00.838Z</time>
      </trkpt>
      <trkpt lat="48.84643" lon="2.37038">
        <ele>100.4</ele>
        <time>2015-04-27T21:00:01.840Z</time>
      </trkpt>
      <trkpt lat="48.84647" lon="2.37034">
        <ele>101.5</ele>
        <time>2015-04-27T21:00:02.810Z</time>
      </trkpt>
      <trkpt lat="48.8465" lon="2.37028">
        <ele>101.8</ele>
        <time>2015-04-27T21:00:03.880Z</time>
      </trkpt>
      <trkpt lat="48.84652" lon="2.37022">
        <ele>101.8</ele>
        <time>2015-04-27T21:00:04.897Z</time>
      </trkpt>
      <trkpt lat="48.84657" lon="2.37012">
        <ele>101.4</ele>
        <time>2015-04-27T21:00:06.926Z</time>
      </trkpt>
      <trkpt lat="48.8466" lon="2.37008">
        <ele>101.8</ele>
        <time>2015-04-27T21:00:07.835Z</time>
      </trkpt>
      <trkpt lat="48.84665" lon="2.36999">
        <ele>102.4</ele>
        <time>2015-04-27T21:00:09.899Z</time>
      </trkpt>
      <trkpt lat="48.84667" lon="2.36994">
        <ele>102.1</ele>
        <time>2015-04-27T21:00:10.917Z</time>
      </trkpt>
      <trkpt lat="48.84671" lon="2.36985">
        <ele>101.7</ele>
        <time>2015-04-27T21:00:12.838Z</time>
      </trkpt>
      <trkpt lat="48.84674" lon="2.36979">
        <ele>101.6</ele>
        <time>2015-04-27T21:00:13.866Z</time>
      </trkpt>
      <trkpt lat="48.84679" lon="2.3697">
        <ele>101.8</ele>
        <time>2015-04-27T21:00:15.897Z</time>
      </trkpt>
      <trkpt lat="48.84681" lon="2.36965">
        <ele>101.9</ele>
        <time>2015-04-27T21:00:16.908Z</time>
      </trkpt>
      <trkpt lat="48.84686" lon="2.36956">
        <ele>102.2</ele>
        <time>2015-04-27T21:00:18.823Z</time>
      </trkpt>
      <trkpt lat="48.84687" lon="2.36953">
        <ele>102.1</ele>
        <time>2015-04-27T21:00:19.844Z</time>
      </trkpt>
      <trkpt lat="48.84691" lon="2.3695">
        <ele>103</ele>
        <time>2015-04-27T21:00:34.890Z</time>
      </trkpt>
      <trkpt lat="48.84699" lon="2.36936">
        <ele>104.9</ele>
        <time>2015-04-27T21:00:35.813Z</time>
      </trkpt>
      <trkpt lat="48.84706" lon="2.36929">
        <ele>105.1</ele>
        <time>2015-04-27T21:00:39.915Z</time>
      </trkpt>
      <trkpt lat="48.84707" lon="2.36928">
        <ele>104.8</ele>
        <time>2015-04-27T21:00:40.920Z</time>
      </trkpt>
      <trkpt lat="48.84713" lon="2.36924">
        <ele>105.3</ele>
        <time>2015-04-27T21:00:44.840Z</time>
      </trkpt>
      <trkpt lat="48.84715" lon="2.36922">
        <ele>105.3</ele>
        <time>2015-04-27T21:00:45.940Z</time>
      </trkpt>
      <trkpt lat="48.84721" lon="2.36915">
        <ele>105.3</ele>
        <time>2015-04-27T21:00:48.875Z</time>
      </trkpt>
      <trkpt lat="48.84723" lon="2.36911">
        <ele>105.6</ele>
        <time>2015-04-27T21:00:49.884Z</time>
      </trkpt>
      <trkpt lat="48.8473" lon="2.36902">
        <ele>107.3</ele>
        <time>2015-04-27T21:00:52.838Z</time>
      </trkpt>
      <trkpt lat="48.84732" lon="2.369">
        <ele>107.9</ele>
        <time>2015-04-27T21:00:53.856Z</time>
      </trkpt>
      <trkpt lat="48.84738" lon="2.36894">
        <ele>108.3</ele>
        <time>2015-04-27T21:00:56.889Z</time>
      </trkpt>
      <trkpt lat="48.8474" lon="2.36892">
        <ele>108.3</ele>
        <time>2015-04-27T21:00:57.901Z</time>
      </trkpt>
      <trkpt lat="48.84744" lon="2.36884">
        <ele>108.3</ele>
        <time>2015-04-27T21:01:01.187Z</time>
      </trkpt>
      <trkpt lat="48.84746" lon="2.36881">
        <ele>108.2</ele>
        <time>2015-04-27T21:01:01.835Z</time>
      </trkpt>
      <trkpt lat="48.84748" lon="2.36871">
        <ele>107.3</ele>
        <time>2015-04-27T21:01:04.864Z</time>
      </trkpt>
      <trkpt lat="48.84749" lon="2.36868">
        <ele>107</ele>
        <time>2015-04-27T21:01:05.876Z</time>
      </trkpt>
      <trkpt lat="48.84754" lon="2.36857">
        <ele>107</ele>
        <time>2015-04-27T21:01:08.910Z</time>
      </trkpt>
      <trkpt lat="48.84755" lon="2.36853">
        <ele>106.4</ele>
        <time>2015-04-27T21:01:09.908Z</time>
      </trkpt>
      <trkpt lat="48.84759" lon="2.36843">
        <ele>106</ele>
        <time>2015-04-27T21:01:11.881Z</time>
      </trkpt>
      <trkpt lat="48.84761" lon="2.36838">
        <ele>105.8</ele>
        <time>2015-04-27T21:01:12.839Z</time>
      </trkpt>
      <trkpt lat="48.84765" lon="2.36829">
        <ele>105.2</ele>
        <time>2015-04-27T21:01:14.896Z</time>
      </trkpt>
      <trkpt lat="48.84766" lon="2.36824">
        <ele>105</ele>
        <time>2015-04-27T21:01:15.852Z</time>
      </trkpt>
      <trkpt lat="48.84771" lon="2.36817">
        <ele>104.4</ele>
        <time>2015-04-27T21:01:17.842Z</time>
      </trkpt>
      <trkpt lat="48.84775" lon="2.36816">
        <ele>103.7</ele>
        <time>2015-04-27T21:01:18.845Z</time>
      </trkpt>
      <trkpt lat="48.84782" lon="2.36811">
        <ele>102.5</ele>
        <time>2015-04-27T21:01:21.577Z</time>
      </trkpt>
      <trkpt lat="48.84785" lon="2.36808">
        <ele>102.2</ele>
        <time>2015-04-27T21:01:21.865Z</time>
      </trkpt>
      <trkpt lat="48.8479" lon="2.36802">
        <ele>101.4</ele>
        <time>2015-04-27T21:01:23.803Z</time>
      </trkpt>
      <trkpt lat="48.84792" lon="2.36798">
        <ele>100.9</ele>
        <time>2015-04-27T21:01:24.830Z</time>
      </trkpt>
      <trkpt lat="48.84797" lon="2.36791">
        <ele>100.2</ele>
        <time>2015-04-27T21:01:26.842Z</time>
      </trkpt>
      <trkpt lat="48.84799" lon="2.36788">
        <ele>99.9</ele>
        <time>2015-04-27T21:01:27.870Z</time>
      </trkpt>
      <trkpt lat="48.84805" lon="2.36778">
        <ele>98.4</ele>
        <time>2015-04-27T21:01:31.798Z</time>
      </trkpt>
      <trkpt lat="48.84807" lon="2.36776">
        <ele>97.8</ele>
        <time>2015-04-27T21:01:32.812Z</time>
      </trkpt>
      <trkpt lat="48.84811" lon="2.36764">
        <ele>95.4</ele>
        <time>2015-04-27T21:01:45.878Z</time>
      </trkpt>
      <trkpt lat="48.84814" lon="2.36766">
        <ele>95</ele>
        <time>2015-04-27T21:01:46.887Z</time>
      </trkpt>
      <trkpt lat="48.84822" lon="2.36769">
        <ele>95.1</ele>
        <time>2015-04-27T21:01:49.860Z</time>
      </trkpt>
      <trkpt lat="48.84824" lon="2.3677">
        <ele>95.1</ele>
        <time>2015-04-27T21:01:50.875Z</time>
      </trkpt>
      <trkpt lat="48.84829" lon="2.36775">
        <ele>94.9</ele>
        <time>2015-04-27T21:01:52.865Z</time>
      </trkpt>
      <trkpt lat="48.84833" lon="2.36779">
        <ele>94.9</ele>
        <time>2015-04-27T21:01:53.872Z</time>
      </trkpt>
      <trkpt lat="48.84837" lon="2.36789">
        <ele>95.1</ele>
        <time>2015-04-27T21:01:55.922Z</time>
      </trkpt>
      <trkpt lat="48.84839" lon="2.36792">
        <ele>94.9</ele>
        <time>2015-04-27T21:01:56.835Z</time>
      </trkpt>
      <trkpt lat="48.84845" lon="2.36796">
        <ele>94.4</ele>
        <time>2015-04-27T21:01:58.881Z</time>
      </trkpt>
      <trkpt lat="48.84847" lon="2.36797">
        <ele>94.3</ele>
        <time>2015-04-27T21:01:59.889Z</time>
      </trkpt>
      <trkpt lat="48.84854" lon="2.36801">
        <ele>94.4</ele>
        <time>2015-04-27T21:02:02.969Z</time>
      </trkpt>
      <trkpt lat="48.84857" lon="2.36803">
        <ele>94.3</ele>
        <time>2015-04-27T21:02:03.855Z</time>
      </trkpt>
      <trkpt lat="48.84863" lon="2.36806">
        <ele>94.3</ele>
        <time>2015-04-27T21:02:05.878Z</time>
      </trkpt>
      <trkpt lat="48.84867" lon="2.36808">
        <ele>94.6</ele>
        <time>2015-04-27T21:02:06.880Z</time>
      </trkpt>
      <trkpt lat="48.84874" lon="2.3681">
        <ele>94.8</ele>
        <time>2015-04-27T21:02:08.897Z</time>
      </trkpt>
      <trkpt lat="48.84878" lon="2.3681">
        <ele>94.8</ele>
        <time>2015-04-27T21:02:09.930Z</time>
      </trkpt>
      <trkpt lat="48.84884" lon="2.3681">
        <ele>94</ele>
        <time>2015-04-27T21:02:10.813Z</time>
      </trkpt>
      <trkpt lat="48.84888" lon="2.3681">
        <ele>93.9</ele>
        <time>2015-04-27T21:02:11.824Z</time>
      </trkpt>
      <trkpt lat="48.84896" lon="2.36807">
        <ele>92.5</ele>
        <time>2015-04-27T21:02:13.965Z</time>
      </trkpt>
      <trkpt lat="48.84898" lon="2.36805">
        <ele>92.4</ele>
        <time>2015-04-27T21:02:14.850Z</time>
      </trkpt>
      <trkpt lat="48.84898" lon="2.36804">
        <ele>92.8</ele>
        <time>2015-04-27T21:02:26.825Z</time>
      </trkpt>
      <trkpt lat="48.84903" lon="2.36788">
        <ele>91.1</ele>
        <time>2015-04-27T21:02:27.863Z</time>
      </trkpt>
      <trkpt lat="48.84907" lon="2.36776">
        <ele>90.9</ele>
        <time>2015-04-27T21:02:31.887Z</time>
      </trkpt>
      <trkpt lat="48.84908" lon="2.36773">
        <ele>90.7</ele>
        <time>2015-04-27T21:02:32.901Z</time>
      </trkpt>
      <trkpt lat="48.84911" lon="2.36763">
        <ele>90</ele>
        <time>2015-04-27T21:02:35.854Z</time>
      </trkpt>
      <trkpt lat="48.84912" lon="2.36759">
        <ele>89.7</ele>
        <time>2015-04-27T21:02:36.851Z</time>
      </trkpt>
      <trkpt lat="48.84914" lon="2.36748">
        <ele>89</ele>
        <time>2015-04-27T21:02:39.875Z</time>
      </trkpt>
      <trkpt lat="48.84914" lon="2.36744">
        <ele>89.4</ele>
        <time>2015-04-27T21:02:40.926Z</time>
      </trkpt>
      <trkpt lat="48.84915" lon="2.3673">
        <ele>90.7</ele>
        <time>2015-04-27T21:02:43.867Z</time>
      </trkpt>
      <trkpt lat="48.84914" lon="2.36724">
        <ele>91.4</ele>
        <time>2015-04-27T21:02:44.888Z</time>
      </trkpt>
      <trkpt lat="48.84912" lon="2.36713">
        <ele>92.8</ele>
        <time>2015-04-27T21:02:46.802Z</time>
      </trkpt>
      <trkpt lat="48.84912" lon="2.36709">
        <ele>93.4</ele>
        <time>2015-04-27T21:02:47.805Z</time>
      </trkpt>
      <trkpt lat="48.84912" lon="2.36698">
        <ele>94.3</ele>
        <time>2015-04-27T21:02:51.499Z</time>
      </trkpt>
      <trkpt lat="48.84912" lon="2.36694">
        <ele>94.6</ele>
        <time>2015-04-27T21:02:51.861Z</time>
      </trkpt>
      <trkpt lat="48.84915" lon="2.36685">
        <ele>95</ele>
        <time>2015-04-27T21:02:54.923Z</time>
      </trkpt>
      <trkpt lat="48.84917" lon="2.36682">
        <ele>95</ele>
        <time>2015-04-27T21:02:55.868Z</time>
      </trkpt>
      <trkpt lat="48.84922" lon="2.36673">
        <ele>95.1</ele>
        <time>2015-04-27T21:02:59.837Z</time>
      </trkpt>
      <trkpt lat="48.84923" lon="2.36671">
        <ele>95.4</ele>
        <time>2015-04-27T21:03:00.846Z</time>
      </trkpt>
      <trkpt lat="48.84924" lon="2.36659">
        <ele>98</ele>
        <time>2015-04-27T21:03:04.913Z</time>
      </trkpt>
      <trkpt lat="48.84925" lon="2.36656">
        <ele>98.3</ele>
        <time>2015-04-27T21:03:05.822Z</time>
      </trkpt>
      <trkpt lat="48.84927" lon="2.36643">
        <ele>100.1</ele>
        <time>2015-04-27T21:03:09.897Z</time>
      </trkpt>
      <trkpt lat="48.84928" lon="2.36641">
        <ele>100</ele>
        <time>2015-04-27T21:03:10.920Z</time>
      </trkpt>
      <trkpt lat="48.84931" lon="2.36632">
        <ele>99.9</ele>
        <time>2015-04-27T21:03:13.829Z</time>
      </trkpt>
      <trkpt lat="48.84932" lon="2.36628">
        <ele>99.8</ele>
        <time>2015-04-27T21:03:14.849Z</time>
      </trkpt>
      <trkpt lat="48.84934" lon="2.36616">
        <ele>99.6</ele>
        <time>2015-04-27T21:03:17.879Z</time>
      </trkpt>
      <trkpt lat="48.84935" lon="2.36611">
        <ele>99.5</ele>
        <time>2015-04-27T21:03:18.892Z</time>
      </trkpt>
      <trkpt lat="48.84936" lon="2.36599">
        <ele>99.9</ele>
        <time>2015-04-27T21:03:20.915Z</time>
      </trkpt>
      <trkpt lat="48.84937" lon="2.36593">
        <ele>100.1</ele>
        <time>2015-04-27T21:03:21.941Z</time>
      </trkpt>
      <trkpt lat="48.84939" lon="2.36581">
        <ele>100.5</ele>
        <time>2015-04-27T21:03:23.839Z</time>
      </trkpt>
      <trkpt lat="48.8494" lon="2.36575">
        <ele>100.6</ele>
        <time>2015-04-27T21:03:24.859Z</time>
      </trkpt>
      <trkpt lat="48.84942" lon="2.36565">
        <ele>101</ele>
        <time>2015-04-27T21:03:26.944Z</time>
      </trkpt>
      <trkpt lat="48.84943" lon="2.3656">
        <ele>101.2</ele>
        <time>2015-04-27T21:03:27.894Z</time>
      </trkpt>
      <trkpt lat="48.84943" lon="2.36551">
        <ele>101</ele>
        <time>2015-04-27T21:03:29.832Z</time>
      </trkpt>
      <trkpt lat="48.84944" lon="2.36546">
        <ele>100.9</ele>
        <time>2015-04-27T21:03:30.834Z</time>
      </trkpt>
      <trkpt lat="48.84945" lon="2.36535">
        <ele>100.5</ele>
        <time>2015-04-27T21:03:32.857Z</time>
      </trkpt>
      <trkpt lat="48.84946" lon="2.36528">
        <ele>100.5</ele>
        <time>2015-04-27T21:03:33.915Z</time>
      </trkpt>
      <trkpt lat="48.84947" lon="2.3652">
        <ele>100.8</ele>
        <time>2015-04-27T21:03:34.833Z</time>
      </trkpt>
      <trkpt lat="48.84948" lon="2.36513">
        <ele>100.9</ele>
        <time>2015-04-27T21:03:35.824Z</time>
      </trkpt>
      <trkpt lat="48.84949" lon="2.36506">
        <ele>100.9</ele>
        <time>2015-04-27T21:03:36.853Z</time>
      </trkpt>
      <trkpt lat="48.84951" lon="2.365">
        <ele>100.8</ele>
        <time>2015-04-27T21:03:37.860Z</time>
      </trkpt>
      <trkpt lat="48.84954" lon="2.36488">
        <ele>100.4</ele>
        <time>2015-04-27T21:03:35.820Z</time>
      </trkpt>
      <trkpt lat="48.84957" lon="2.36481">
        <ele>100.2</ele>
        <time>2015-04-27T21:03:40.900Z</time>
      </trkpt>
      <trkpt lat="48.8496" lon="2.36475">
        <ele>100</ele>
        <time>2015-04-27T21:03:41.909Z</time>
      </trkpt>
      <trkpt lat="48.84962" lon="2.3647">
        <ele>99.8</ele>
        <time>2015-04-27T21:03:42.819Z</time>
      </trkpt>
      <trkpt lat="48.84965" lon="2.3646">
        <ele>99.3</ele>
        <time>2015-04-27T21:03:44.909Z</time>
      </trkpt>
      <trkpt lat="48.84967" lon="2.36455">
        <ele>99</ele>
        <time>2015-04-27T21:03:45.931Z</time>
      </trkpt>
      <trkpt lat="48.84972" lon="2.36451">
        <ele>98.1</ele>
        <time>2015-04-27T21:03:46.805Z</time>
      </trkpt>
      <trkpt lat="48.84976" lon="2.36448">
        <ele>97.4</ele>
        <time>2015-04-27T21:03:47.801Z</time>
      </trkpt>
      <trkpt lat="48.84982" lon="2.36444">
        <ele>97.1</ele>
        <time>2015-04-27T21:03:49.891Z</time>
      </trkpt>
      <trkpt lat="48.84984" lon="2.36442">
        <ele>97.3</ele>
        <time>2015-04-27T21:03:50.884Z</time>
      </trkpt>
      <trkpt lat="48.84991" lon="2.36441">
        <ele>96.8</ele>
        <time>2015-04-27T21:03:54.881Z</time>
      </trkpt>
      <trkpt lat="48.84994" lon="2.36439">
        <ele>96.7</ele>
        <time>2015-04-27T21:03:55.848Z</time>
      </trkpt>
      <trkpt lat="48.84999" lon="2.36434">
        <ele>96.8</ele>
        <time>2015-04-27T21:03:57.886Z</time>
      </trkpt>
      <trkpt lat="48.85002" lon="2.36432">
        <ele>96.8</ele>
        <time>2015-04-27T21:03:58.937Z</time>
      </trkpt>
      <trkpt lat="48.85009" lon="2.36425">
        <ele>98.1</ele>
        <time>2015-04-27T21:04:00.833Z</time>
      </trkpt>
      <trkpt lat="48.85012" lon="2.36422">
        <ele>98.5</ele>
        <time>2015-04-27T21:04:01.874Z</time>
      </trkpt>
      <trkpt lat="48.85018" lon="2.36415">
        <ele>98.7</ele>
        <time>2015-04-27T21:04:03.869Z</time>
      </trkpt>
      <trkpt lat="48.8502" lon="2.36411">
        <ele>98.5</ele>
        <time>2015-04-27T21:04:04.894Z</time>
      </trkpt>
      <trkpt lat="48.85025" lon="2.36403">
        <ele>98</ele>
        <time>2015-04-27T21:04:06.897Z</time>
      </trkpt>
      <trkpt lat="48.85028" lon="2.36399">
        <ele>97.9</ele>
        <time>2015-04-27T21:04:07.814Z</time>
      </trkpt>
      <trkpt lat="48.85035" lon="2.36393">
        <ele>98.3</ele>
        <time>2015-04-27T21:04:09.896Z</time>
      </trkpt>
      <trkpt lat="48.85038" lon="2.3639">
        <ele>98.5</ele>
        <time>2015-04-27T21:04:10.819Z</time>
      </trkpt>
      <trkpt lat="48.85045" lon="2.36385">
        <ele>98.3</ele>
        <time>2015-04-27T21:04:12.859Z</time>
      </trkpt>
      <trkpt lat="48.85047" lon="2.3638">
        <ele>98.2</ele>
        <time>2015-04-27T21:04:13.936Z</time>
      </trkpt>
      <trkpt lat="48.85054" lon="2.36373">
        <ele>98.4</ele>
        <time>2015-04-27T21:04:15.905Z</time>
      </trkpt>
      <trkpt lat="48.85057" lon="2.36369">
        <ele>98.4</ele>
        <time>2015-04-27T21:04:16.919Z</time>
      </trkpt>
      <trkpt lat="48.85063" lon="2.36362">
        <ele>98.4</ele>
        <time>2015-04-27T21:04:18.860Z</time>
      </trkpt>
      <trkpt lat="48.85066" lon="2.36358">
        <ele>98.4</ele>
        <time>2015-04-27T21:04:19.878Z</time>
      </trkpt>
      <trkpt lat="48.85073" lon="2.36353">
        <ele>98.9</ele>
        <time>2015-04-27T21:04:21.930Z</time>
      </trkpt>
      <trkpt lat="48.85076" lon="2.3635">
        <ele>99.1</ele>
        <time>2015-04-27T21:04:22.897Z</time>
      </trkpt>
      <trkpt lat="48.85083" lon="2.36343">
        <ele>98.8</ele>
        <time>2015-04-27T21:04:24.854Z</time>
      </trkpt>
      <trkpt lat="48.85085" lon="2.36339">
        <ele>98.4</ele>
        <time>2015-04-27T21:04:25.865Z</time>
      </trkpt>
      <trkpt lat="48.85088" lon="2.36327">
        <ele>97.5</ele>
        <time>2015-04-27T21:04:27.880Z</time>
      </trkpt>
      <trkpt lat="48.85091" lon="2.36322">
        <ele>97.4</ele>
        <time>2015-04-27T21:04:28.871Z</time>
      </trkpt>
      <trkpt lat="48.85094" lon="2.36312">
        <ele>96.8</ele>
        <time>2015-04-27T21:04:30.827Z</time>
      </trkpt>
      <trkpt lat="48.85095" lon="2.36307">
        <ele>96.1</ele>
        <time>2015-04-27T21:04:31.922Z</time>
      </trkpt>
      <trkpt lat="48.85101" lon="2.36298">
        <ele>94.6</ele>
        <time>2015-04-27T21:04:34.878Z</time>
      </trkpt>
      <trkpt lat="48.85103" lon="2.36294">
        <ele>94.2</ele>
        <time>2015-04-27T21:04:35.884Z</time>
      </trkpt>
      <trkpt lat="48.85109" lon="2.36284">
        <ele>93</ele>
        <time>2015-04-27T21:04:38.859Z</time>
      </trkpt>
      <trkpt lat="48.8511" lon="2.36281">
        <ele>92.8</ele>
        <time>2015-04-27T21:04:39.876Z</time>
      </trkpt>
      <trkpt lat="48.85114" lon="2.3627">
        <ele>93.1</ele>
        <time>2015-04-27T21:04:42.799Z</time>
      </trkpt>
      <trkpt lat="48.85116" lon="2.36268">
        <ele>92.9</ele>
        <time>2015-04-27T21:04:43.825Z</time>
      </trkpt>
      <trkpt lat="48.85115" lon="2.36269">
        <ele>91.2</ele>
        <time>2015-04-27T21:05:26.816Z</time>
      </trkpt>
      <trkpt lat="48.85124" lon="2.36253">
        <ele>88.2</ele>
        <time>2015-04-27T21:05:27.839Z</time>
      </trkpt>
      <trkpt lat="48.85127" lon="2.36241">
        <ele>88.4</ele>
        <time>2015-04-27T21:05:30.832Z</time>
      </trkpt>
      <trkpt lat="48.85129" lon="2.36237">
        <ele>88.4</ele>
        <time>2015-04-27T21:05:31.852Z</time>
      </trkpt>
      <trkpt lat="48.85133" lon="2.36227">
        <ele>88.2</ele>
        <time>2015-04-27T21:05:33.854Z</time>
      </trkpt>
      <trkpt lat="48.85135" lon="2.36221">
        <ele>88.2</ele>
        <time>2015-04-27T21:05:34.883Z</time>
      </trkpt>
      <trkpt lat="48.8514" lon="2.3621">
        <ele>87.7</ele>
        <time>2015-04-27T21:05:36.819Z</time>
      </trkpt>
      <trkpt lat="48.85143" lon="2.36205">
        <ele>87.5</ele>
        <time>2015-04-27T21:05:37.820Z</time>
      </trkpt>
      <trkpt lat="48.85148" lon="2.36196">
        <ele>87.5</ele>
        <time>2015-04-27T21:05:39.880Z</time>
      </trkpt>
      <trkpt lat="48.85151" lon="2.36192">
        <ele>87.5</ele>
        <time>2015-04-27T21:05:40.794Z</time>
      </trkpt>
      <trkpt lat="48.85155" lon="2.36188">
        <ele>87.8</ele>
        <time>2015-04-27T21:05:41.901Z</time>
      </trkpt>
      <trkpt lat="48.85158" lon="2.36182">
        <ele>87.8</ele>
        <time>2015-04-27T21:05:42.829Z</time>
      </trkpt>
      <trkpt lat="48.85164" lon="2.36173">
        <ele>87.8</ele>
        <time>2015-04-27T21:05:44.835Z</time>
      </trkpt>
      <trkpt lat="48.85166" lon="2.36167">
        <ele>87.6</ele>
        <time>2015-04-27T21:05:45.863Z</time>
      </trkpt>
      <trkpt lat="48.85173" lon="2.36159">
        <ele>87.8</ele>
        <time>2015-04-27T21:05:47.886Z</time>
      </trkpt>
      <trkpt lat="48.85176" lon="2.36156">
        <ele>87.9</ele>
        <time>2015-04-27T21:05:48.914Z</time>
      </trkpt>
      <trkpt lat="48.85182" lon="2.36152">
        <ele>87.8</ele>
        <time>2015-04-27T21:05:50.893Z</time>
      </trkpt>
      <trkpt lat="48.85186" lon="2.36151">
        <ele>88</ele>
        <time>2015-04-27T21:05:51.864Z</time>
      </trkpt>
      <trkpt lat="48.85193" lon="2.36145">
        <ele>88.2</ele>
        <time>2015-04-27T21:05:53.883Z</time>
      </trkpt>
      <trkpt lat="48.85195" lon="2.3614">
        <ele>87.9</ele>
        <time>2015-04-27T21:05:54.814Z</time>
      </trkpt>
      <trkpt lat="48.852" lon="2.36131">
        <ele>87.5</ele>
        <time>2015-04-27T21:05:56.843Z</time>
      </trkpt>
      <trkpt lat="48.85203" lon="2.36126">
        <ele>87.7</ele>
        <time>2015-04-27T21:05:57.873Z</time>
      </trkpt>
      <trkpt lat="48.85206" lon="2.36119">
        <ele>87.6</ele>
        <time>2015-04-27T21:05:58.884Z</time>
      </trkpt>
      <trkpt lat="48.85208" lon="2.36113">
        <ele>87.6</ele>
        <time>2015-04-27T21:05:59.804Z</time>
      </trkpt>
      <trkpt lat="48.85211" lon="2.36107">
        <ele>87.7</ele>
        <time>2015-04-27T21:06:00.953Z</time>
      </trkpt>
      <trkpt lat="48.85212" lon="2.361">
        <ele>87.7</ele>
        <time>2015-04-27T21:06:01.829Z</time>
      </trkpt>
      <trkpt lat="48.85214" lon="2.36093">
        <ele>87.9</ele>
        <time>2015-04-27T21:06:02.838Z</time>
      </trkpt>
      <trkpt lat="48.85215" lon="2.36087">
        <ele>88.1</ele>
        <time>2015-04-27T21:06:03.930Z</time>
      </trkpt>
      <trkpt lat="48.85219" lon="2.36075">
        <ele>88.6</ele>
        <time>2015-04-27T21:06:05.965Z</time>
      </trkpt>
      <trkpt lat="48.8522" lon="2.36069">
        <ele>88.7</ele>
        <time>2015-04-27T21:06:06.827Z</time>
      </trkpt>
      <trkpt lat="48.85223" lon="2.36057">
        <ele>89.4</ele>
        <time>2015-04-27T21:06:08.867Z</time>
      </trkpt>
      <trkpt lat="48.85224" lon="2.36051">
        <ele>89.9</ele>
        <time>2015-04-27T21:06:09.881Z</time>
      </trkpt>
      <trkpt lat="48.85225" lon="2.36043">
        <ele>91</ele>
        <time>2015-04-27T21:06:11.208Z</time>
      </trkpt>
      <trkpt lat="48.85227" lon="2.36038">
        <ele>91.6</ele>
        <time>2015-04-27T21:06:11.905Z</time>
      </trkpt>
      <trkpt lat="48.85233" lon="2.36028">
        <ele>92.5</ele>
        <time>2015-04-27T21:06:14.908Z</time>
      </trkpt>
      <trkpt lat="48.85235" lon="2.36025">
        <ele>92.3</ele>
        <time>2015-04-27T21:06:15.924Z</time>
      </trkpt>
      <trkpt lat="48.8524" lon="2.36018">
        <ele>92.3</ele>
        <time>2015-04-27T21:06:17.816Z</time>
      </trkpt>
      <trkpt lat="48.85241" lon="2.36013">
        <ele>92.5</ele>
        <time>2015-04-27T21:06:18.835Z</time>
      </trkpt>
      <trkpt lat="48.85244" lon="2.36002">
        <ele>92.8</ele>
        <time>2015-04-27T21:06:21.484Z</time>
      </trkpt>
      <trkpt lat="48.85246" lon="2.35998">
        <ele>93.1</ele>
        <time>2015-04-27T21:06:21.868Z</time>
      </trkpt>
      <trkpt lat="48.8525" lon="2.35988">
        <ele>93.4</ele>
        <time>2015-04-27T21:06:23.882Z</time>
      </trkpt>
      <trkpt lat="48.85251" lon="2.35984">
        <ele>93.6</ele>
        <time>2015-04-27T21:06:24.799Z</time>
      </trkpt>
      <trkpt lat="48.85254" lon="2.35975">
        <ele>94.1</ele>
        <time>2015-04-27T21:06:26.814Z</time>
      </trkpt>
      <trkpt lat="48.85255" lon="2.3597">
        <ele>94.4</ele>
        <time>2015-04-27T21:06:27.833Z</time>
      </trkpt>
      <trkpt lat="48.85258" lon="2.3596">
        <ele>94.7</ele>
        <time>2015-04-27T21:06:29.927Z</time>
      </trkpt>
      <trkpt lat="48.8526" lon="2.35954">
        <ele>95.1</ele>
        <time>2015-04-27T21:06:30.803Z</time>
      </trkpt>
      <trkpt lat="48.85262" lon="2.35941">
        <ele>95.5</ele>
        <time>2015-04-27T21:06:32.824Z</time>
      </trkpt>
      <trkpt lat="48.85264" lon="2.35937">
        <ele>95.6</ele>
        <time>2015-04-27T21:06:33.901Z</time>
      </trkpt>
      <trkpt lat="48.85268" lon="2.35929">
        <ele>95.5</ele>
        <time>2015-04-27T21:06:35.938Z</time>
      </trkpt>
      <trkpt lat="48.85271" lon="2.35924">
        <ele>95.6</ele>
        <time>2015-04-27T21:06:36.823Z</time>
      </trkpt>
      <trkpt lat="48.85274" lon="2.35915">
        <ele>96.1</ele>
        <time>2015-04-27T21:06:38.843Z</time>
      </trkpt>
      <trkpt lat="48.85276" lon="2.35911">
        <ele>96.1</ele>
        <time>2015-04-27T21:06:39.868Z</time>
      </trkpt>
      <trkpt lat="48.85278" lon="2.35902">
        <ele>96.1</ele>
        <time>2015-04-27T21:06:41.848Z</time>
      </trkpt>
      <trkpt lat="48.8528" lon="2.35897">
        <ele>96.6</ele>
        <time>2015-04-27T21:06:42.832Z</time>
      </trkpt>
      <trkpt lat="48.85285" lon="2.35889">
        <ele>97.3</ele>
        <time>2015-04-27T21:06:44.795Z</time>
      </trkpt>
      <trkpt lat="48.85287" lon="2.35885">
        <ele>97.4</ele>
        <time>2015-04-27T21:06:45.847Z</time>
      </trkpt>
      <trkpt lat="48.8529" lon="2.35874">
        <ele>97.9</ele>
        <time>2015-04-27T21:06:47.802Z</time>
      </trkpt>
      <trkpt lat="48.85291" lon="2.35869">
        <ele>97.9</ele>
        <time>2015-04-27T21:06:48.853Z</time>
      </trkpt>
      <trkpt lat="48.85293" lon="2.3586">
        <ele>98.6</ele>
        <time>2015-04-27T21:06:51.519Z</time>
      </trkpt>
      <trkpt lat="48.85293" lon="2.35854">
        <ele>99</ele>
        <time>2015-04-27T21:06:51.865Z</time>
      </trkpt>
      <trkpt lat="48.85296" lon="2.35845">
        <ele>98.9</ele>
        <time>2015-04-27T21:06:53.855Z</time>
      </trkpt>
      <trkpt lat="48.85298" lon="2.35841">
        <ele>98.4</ele>
        <time>2015-04-27T21:06:55.026Z</time>
      </trkpt>
      <trkpt lat="48.85301" lon="2.35832">
        <ele>98</ele>
        <time>2015-04-27T21:06:56.678Z</time>
      </trkpt>
      <trkpt lat="48.85303" lon="2.35827">
        <ele>98.1</ele>
        <time>2015-04-27T21:06:57.900Z</time>
      </trkpt>
      <trkpt lat="48.85307" lon="2.35815">
        <ele>98.1</ele>
        <time>2015-04-27T21:07:01.801Z</time>
      </trkpt>
      <trkpt lat="48.85308" lon="2.35812">
        <ele>98</ele>
        <time>2015-04-27T21:07:01.871Z</time>
      </trkpt>
      <trkpt lat="48.85315" lon="2.35809">
        <ele>96.2</ele>
        <time>2015-04-27T21:07:03.923Z</time>
      </trkpt>
      <trkpt lat="48.85318" lon="2.35807">
        <ele>95.5</ele>
        <time>2015-04-27T21:07:04.837Z</time>
      </trkpt>
      <trkpt lat="48.85322" lon="2.358">
        <ele>94.4</ele>
        <time>2015-04-27T21:07:06.932Z</time>
      </trkpt>
      <trkpt lat="48.85324" lon="2.35796">
        <ele>94.6</ele>
        <time>2015-04-27T21:07:07.858Z</time>
      </trkpt>
      <trkpt lat="48.85326" lon="2.35786">
        <ele>94.9</ele>
        <time>2015-04-27T21:07:10.858Z</time>
      </trkpt>
      <trkpt lat="48.85327" lon="2.35782">
        <ele>95.2</ele>
        <time>2015-04-27T21:07:11.880Z</time>
      </trkpt>
      <trkpt lat="48.8533" lon="2.3577">
        <ele>96.2</ele>
        <time>2015-04-27T21:07:15.903Z</time>
      </trkpt>
      <trkpt lat="48.85331" lon="2.35768">
        <ele>96.1</ele>
        <time>2015-04-27T21:07:16.802Z</time>
      </trkpt>
      <trkpt lat="48.85336" lon="2.35756">
        <ele>95.6</ele>
        <time>2015-04-27T21:07:22.308Z</time>
      </trkpt>
      <trkpt lat="48.85337" lon="2.35754">
        <ele>95.4</ele>
        <time>2015-04-27T21:07:22.929Z</time>
      </trkpt>
      <trkpt lat="48.85339" lon="2.35746">
        <ele>94.7</ele>
        <time>2015-04-27T21:07:25.832Z</time>
      </trkpt>
      <trkpt lat="48.85341" lon="2.35742">
        <ele>94.7</ele>
        <time>2015-04-27T21:07:26.844Z</time>
      </trkpt>
      <trkpt lat="48.85344" lon="2.35734">
        <ele>94.7</ele>
        <time>2015-04-27T21:07:28.864Z</time>
      </trkpt>
      <trkpt lat="48.85346" lon="2.3573">
        <ele>94.6</ele>
        <time>2015-04-27T21:07:29.872Z</time>
      </trkpt>
      <trkpt lat="48.8535" lon="2.35721">
        <ele>94.5</ele>
        <time>2015-04-27T21:07:32.502Z</time>
      </trkpt>
      <trkpt lat="48.85352" lon="2.35716">
        <ele>94.4</ele>
        <time>2015-04-27T21:07:32.833Z</time>
      </trkpt>
      <trkpt lat="48.85357" lon="2.35706">
        <ele>94.3</ele>
        <time>2015-04-27T21:07:34.870Z</time>
      </trkpt>
      <trkpt lat="48.85359" lon="2.357">
        <ele>94.5</ele>
        <time>2015-04-27T21:07:35.903Z</time>
      </trkpt>
      <trkpt lat="48.85363" lon="2.35688">
        <ele>94.7</ele>
        <time>2015-04-27T21:07:37.832Z</time>
      </trkpt>
      <trkpt lat="48.85365" lon="2.35683">
        <ele>94.7</ele>
        <time>2015-04-27T21:07:38.835Z</time>
      </trkpt>
      <trkpt lat="48.85371" lon="2.35676">
        <ele>94</ele>
        <time>2015-04-27T21:07:41.241Z</time>
      </trkpt>
      <trkpt lat="48.85373" lon="2.35673">
        <ele>94.3</ele>
        <time>2015-04-27T21:07:41.833Z</time>
      </trkpt>
      <trkpt lat="48.85379" lon="2.35666">
        <ele>93.8</ele>
        <time>2015-04-27T21:07:43.853Z</time>
      </trkpt>
      <trkpt lat="48.85381" lon="2.35664">
        <ele>93.6</ele>
        <time>2015-04-27T21:07:44.860Z</time>
      </trkpt>
      <trkpt lat="48.85383" lon="2.35653">
        <ele>93.8</ele>
        <time>2015-04-27T21:07:46.897Z</time>
      </trkpt>
      <trkpt lat="48.85383" lon="2.35643">
        <ele>93.5</ele>
        <time>2015-04-27T21:07:47.904Z</time>
      </trkpt>
      <trkpt lat="48.85384" lon="2.35636">
        <ele>93.4</ele>
        <time>2015-04-27T21:07:48.802Z</time>
      </trkpt>
      <trkpt lat="48.85386" lon="2.3563">
        <ele>93.4</ele>
        <time>2015-04-27T21:07:49.833Z</time>
      </trkpt>
      <trkpt lat="48.85391" lon="2.3562">
        <ele>92.8</ele>
        <time>2015-04-27T21:07:51.866Z</time>
      </trkpt>
      <trkpt lat="48.85393" lon="2.35615">
        <ele>92.2</ele>
        <time>2015-04-27T21:07:52.932Z</time>
      </trkpt>
      <trkpt lat="48.85399" lon="2.35605">
        <ele>91.3</ele>
        <time>2015-04-27T21:07:55.055Z</time>
      </trkpt>
      <trkpt lat="48.85401" lon="2.35599">
        <ele>91.1</ele>
        <time>2015-04-27T21:07:55.895Z</time>
      </trkpt>
      <trkpt lat="48.85404" lon="2.35587">
        <ele>90.5</ele>
        <time>2015-04-27T21:07:57.919Z</time>
      </trkpt>
      <trkpt lat="48.85405" lon="2.35581">
        <ele>90.4</ele>
        <time>2015-04-27T21:07:58.793Z</time>
      </trkpt>
      <trkpt lat="48.85407" lon="2.35574">
        <ele>90.7</ele>
        <time>2015-04-27T21:07:59.861Z</time>
      </trkpt>
      <trkpt lat="48.85409" lon="2.35567">
        <ele>90.6</ele>
        <time>2015-04-27T21:08:00.883Z</time>
      </trkpt>
      <trkpt lat="48.85415" lon="2.35558">
        <ele>90.1</ele>
        <time>2015-04-27T21:08:02.830Z</time>
      </trkpt>
      <trkpt lat="48.85417" lon="2.35552">
        <ele>90.1</ele>
        <time>2015-04-27T21:08:03.871Z</time>
      </trkpt>
      <trkpt lat="48.85422" lon="2.35542">
        <ele>89.9</ele>
        <time>2015-04-27T21:08:06.783Z</time>
      </trkpt>
      <trkpt lat="48.85424" lon="2.35537">
        <ele>89.8</ele>
        <time>2015-04-27T21:08:06.891Z</time>
      </trkpt>
      <trkpt lat="48.85429" lon="2.35526">
        <ele>89.6</ele>
        <time>2015-04-27T21:08:08.818Z</time>
      </trkpt>
      <trkpt lat="48.85431" lon="2.35521">
        <ele>89.6</ele>
        <time>2015-04-27T21:08:09.866Z</time>
      </trkpt>
      <trkpt lat="48.85435" lon="2.35512">
        <ele>89.7</ele>
        <time>2015-04-27T21:08:11.846Z</time>
      </trkpt>
      <trkpt lat="48.85436" lon="2.35507">
        <ele>89.8</ele>
        <time>2015-04-27T21:08:12.830Z</time>
      </trkpt>
      <trkpt lat="48.85439" lon="2.35496">
        <ele>90.5</ele>
        <time>2015-04-27T21:08:14.898Z</time>
      </trkpt>
      <trkpt lat="48.85441" lon="2.3549">
        <ele>91</ele>
        <time>2015-04-27T21:08:15.937Z</time>
      </trkpt>
      <trkpt lat="48.85444" lon="2.3548">
        <ele>91.1</ele>
        <time>2015-04-27T21:08:17.832Z</time>
      </trkpt>
      <trkpt lat="48.85447" lon="2.35476">
        <ele>91.1</ele>
        <time>2015-04-27T21:08:18.837Z</time>
      </trkpt>
      <trkpt lat="48.85451" lon="2.35465">
        <ele>91.1</ele>
        <time>2015-04-27T21:08:20.861Z</time>
      </trkpt>
      <trkpt lat="48.85453" lon="2.35459">
        <ele>91.1</ele>
        <time>2015-04-27T21:08:22.002Z</time>
      </trkpt>
      <trkpt lat="48.85455" lon="2.35453">
        <ele>91.3</ele>
        <time>2015-04-27T21:08:22.802Z</time>
      </trkpt>
      <trkpt lat="48.85457" lon="2.35447">
        <ele>91.3</ele>
        <time>2015-04-27T21:08:23.814Z</time>
      </trkpt>
      <trkpt lat="48.85462" lon="2.35436">
        <ele>91</ele>
        <time>2015-04-27T21:08:25.835Z</time>
      </trkpt>
      <trkpt lat="48.85464" lon="2.35431">
        <ele>91</ele>
        <time>2015-04-27T21:08:26.845Z</time>
      </trkpt>
      <trkpt lat="48.85467" lon="2.35425">
        <ele>91</ele>
        <time>2015-04-27T21:08:27.936Z</time>
      </trkpt>
      <trkpt lat="48.8547" lon="2.35419">
        <ele>91.3</ele>
        <time>2015-04-27T21:08:28.798Z</time>
      </trkpt>
      <trkpt lat="48.85472" lon="2.35412">
        <ele>91.5</ele>
        <time>2015-04-27T21:08:29.808Z</time>
      </trkpt>
      <trkpt lat="48.85474" lon="2.35405">
        <ele>91.5</ele>
        <time>2015-04-27T21:08:30.832Z</time>
      </trkpt>
      <trkpt lat="48.8548" lon="2.35394">
        <ele>91.5</ele>
        <time>2015-04-27T21:08:32.833Z</time>
      </trkpt>
      <trkpt lat="48.85482" lon="2.35389">
        <ele>91.3</ele>
        <time>2015-04-27T21:08:33.869Z</time>
      </trkpt>
      <trkpt lat="48.85486" lon="2.35377">
        <ele>92</ele>
        <time>2015-04-27T21:08:35.828Z</time>
      </trkpt>
      <trkpt lat="48.85488" lon="2.35371">
        <ele>92.1</ele>
        <time>2015-04-27T21:08:36.869Z</time>
      </trkpt>
      <trkpt lat="48.8549" lon="2.35365">
        <ele>92.3</ele>
        <time>2015-04-27T21:08:37.869Z</time>
      </trkpt>
      <trkpt lat="48.85492" lon="2.35359">
        <ele>92.4</ele>
        <time>2015-04-27T21:08:38.895Z</time>
      </trkpt>
      <trkpt lat="48.85496" lon="2.35349">
        <ele>92.6</ele>
        <time>2015-04-27T21:08:40.808Z</time>
      </trkpt>
      <trkpt lat="48.85498" lon="2.35343">
        <ele>92.9</ele>
        <time>2015-04-27T21:08:41.834Z</time>
      </trkpt>
      <trkpt lat="48.85502" lon="2.35332">
        <ele>93.5</ele>
        <time>2015-04-27T21:08:43.875Z</time>
      </trkpt>
      <trkpt lat="48.85505" lon="2.35326">
        <ele>93.6</ele>
        <time>2015-04-27T21:08:44.924Z</time>
      </trkpt>
      <trkpt lat="48.85508" lon="2.35315">
        <ele>93.4</ele>
        <time>2015-04-27T21:08:46.898Z</time>
      </trkpt>
      <trkpt lat="48.85512" lon="2.35312">
        <ele>92.7</ele>
        <time>2015-04-27T21:08:47.817Z</time>
      </trkpt>
      <trkpt lat="48.85517" lon="2.35302">
        <ele>92.1</ele>
        <time>2015-04-27T21:08:49.849Z</time>
      </trkpt>
      <trkpt lat="48.85521" lon="2.353">
        <ele>90.9</ele>
        <time>2015-04-27T21:08:50.863Z</time>
      </trkpt>
      <trkpt lat="48.85526" lon="2.35291">
        <ele>90.8</ele>
        <time>2015-04-27T21:08:52.922Z</time>
      </trkpt>
      <trkpt lat="48.85528" lon="2.35286">
        <ele>90.7</ele>
        <time>2015-04-27T21:08:53.944Z</time>
      </trkpt>
      <trkpt lat="48.85532" lon="2.35277">
        <ele>91.5</ele>
        <time>2015-04-27T21:08:55.824Z</time>
      </trkpt>
      <trkpt lat="48.85534" lon="2.35272">
        <ele>91.7</ele>
        <time>2015-04-27T21:08:56.850Z</time>
      </trkpt>
      <trkpt lat="48.85537" lon="2.35263">
        <ele>91.8</ele>
        <time>2015-04-27T21:08:58.877Z</time>
      </trkpt>
      <trkpt lat="48.85538" lon="2.35256">
        <ele>91.9</ele>
        <time>2015-04-27T21:08:59.843Z</time>
      </trkpt>
      <trkpt lat="48.8554" lon="2.35244">
        <ele>91.6</ele>
        <time>2015-04-27T21:09:01.874Z</time>
      </trkpt>
      <trkpt lat="48.8554" lon="2.35236">
        <ele>91.7</ele>
        <time>2015-04-27T21:09:02.897Z</time>
      </trkpt>
      <trkpt lat="48.85541" lon="2.35228">
        <ele>91.9</ele>
        <time>2015-04-27T21:09:03.933Z</time>
      </trkpt>
      <trkpt lat="48.85544" lon="2.35222">
        <ele>92</ele>
        <time>2015-04-27T21:09:04.811Z</time>
      </trkpt>
      <trkpt lat="48.85546" lon="2.35216">
        <ele>92.2</ele>
        <time>2015-04-27T21:09:05.835Z</time>
      </trkpt>
      <trkpt lat="48.85549" lon="2.3521">
        <ele>92.1</ele>
        <time>2015-04-27T21:09:06.827Z</time>
      </trkpt>
      <trkpt lat="48.85552" lon="2.35204">
        <ele>92.2</ele>
        <time>2015-04-27T21:09:07.850Z</time>
      </trkpt>
      <trkpt lat="48.85555" lon="2.35197">
        <ele>92.4</ele>
        <time>2015-04-27T21:09:08.854Z</time>
      </trkpt>
      <trkpt lat="48.85557" lon="2.35189">
        <ele>92.9</ele>
        <time>2015-04-27T21:09:09.870Z</time>
      </trkpt>
      <trkpt lat="48.85559" lon="2.35182">
        <ele>93.1</ele>
        <time>2015-04-27T21:09:10.892Z</time>
      </trkpt>
      <trkpt lat="48.85562" lon="2.35176">
        <ele>93.4</ele>
        <time>2015-04-27T21:09:11.821Z</time>
      </trkpt>
      <trkpt lat="48.85564" lon="2.3517">
        <ele>93.6</ele>
        <time>2015-04-27T21:09:12.827Z</time>
      </trkpt>
      <trkpt lat="48.85567" lon="2.35163">
        <ele>93.3</ele>
        <time>2015-04-27T21:09:13.900Z</time>
      </trkpt>
      <trkpt lat="48.8557" lon="2.35157">
        <ele>93</ele>
        <time>2015-04-27T21:09:14.807Z</time>
      </trkpt>
      <trkpt lat="48.85572" lon="2.3515">
        <ele>92.7</ele>
        <time>2015-04-27T21:09:15.836Z</time>
      </trkpt>
      <trkpt lat="48.85574" lon="2.35144">
        <ele>92.6</ele>
        <time>2015-04-27T21:09:16.840Z</time>
      </trkpt>
      <trkpt lat="48.85579" lon="2.35133">
        <ele>92</ele>
        <time>2015-04-27T21:09:18.857Z</time>
      </trkpt>
      <trkpt lat="48.85581" lon="2.35126">
        <ele>92.1</ele>
        <time>2015-04-27T21:09:19.862Z</time>
      </trkpt>
      <trkpt lat="48.85582" lon="2.3512">
        <ele>92.4</ele>
        <time>2015-04-27T21:09:20.881Z</time>
      </trkpt>
      <trkpt lat="48.85584" lon="2.35113">
        <ele>92.6</ele>
        <time>2015-04-27T21:09:21.903Z</time>
      </trkpt>
      <trkpt lat="48.85587" lon="2.35101">
        <ele>92.5</ele>
        <time>2015-04-27T21:09:23.840Z</time>
      </trkpt>
      <trkpt lat="48.85588" lon="2.35095">
        <ele>92.6</ele>
        <time>2015-04-27T21:09:24.848Z</time>
      </trkpt>
      <trkpt lat="48.85591" lon="2.35084">
        <ele>92.9</ele>
        <time>2015-04-27T21:09:26.842Z</time>
      </trkpt>
      <trkpt lat="48.85594" lon="2.35079">
        <ele>93.4</ele>
        <time>2015-04-27T21:09:27.881Z</time>
      </trkpt>
      <trkpt lat="48.85599" lon="2.3507">
        <ele>93.8</ele>
        <time>2015-04-27T21:09:29.826Z</time>
      </trkpt>
      <trkpt lat="48.85601" lon="2.35066">
        <ele>94.1</ele>
        <time>2015-04-27T21:09:30.835Z</time>
      </trkpt>
      <trkpt lat="48.85607" lon="2.35061">
        <ele>94.8</ele>
        <time>2015-04-27T21:09:32.819Z</time>
      </trkpt>
      <trkpt lat="48.85612" lon="2.35067">
        <ele>94.8</ele>
        <time>2015-04-27T21:09:33.835Z</time>
      </trkpt>
      <trkpt lat="48.85618" lon="2.35074">
        <ele>94.6</ele>
        <time>2015-04-27T21:09:34.796Z</time>
      </trkpt>
      <trkpt lat="48.85622" lon="2.35078">
        <ele>94.6</ele>
        <time>2015-04-27T21:09:35.818Z</time>
      </trkpt>
      <trkpt lat="48.85628" lon="2.35082">
        <ele>94.6</ele>
        <time>2015-04-27T21:09:36.849Z</time>
      </trkpt>
      <trkpt lat="48.85632" lon="2.35084">
        <ele>94.7</ele>
        <time>2015-04-27T21:09:37.859Z</time>
      </trkpt>
      <trkpt lat="48.85638" lon="2.35085">
        <ele>94.8</ele>
        <time>2015-04-27T21:09:38.866Z</time>
      </trkpt>
      <trkpt lat="48.85642" lon="2.35086">
        <ele>94.8</ele>
        <time>2015-04-27T21:09:39.893Z</time>
      </trkpt>
      <trkpt lat="48.85646" lon="2.35087">
        <ele>94.8</ele>
        <time>2015-04-27T21:09:40.815Z</time>
      </trkpt>
      <trkpt lat="48.85651" lon="2.35089">
        <ele>94.9</ele>
        <time>2015-04-27T21:09:41.829Z</time>
      </trkpt>
      <trkpt lat="48.85656" lon="2.35091">
        <ele>95</ele>
        <time>2015-04-27T21:09:42.836Z</time>
      </trkpt>
      <trkpt lat="48.85661" lon="2.35093">
        <ele>95.1</ele>
        <time>2015-04-27T21:09:43.840Z</time>
      </trkpt>
      <trkpt lat="48.85668" lon="2.35094">
        <ele>94.9</ele>
        <time>2015-04-27T21:09:44.842Z</time>
      </trkpt>
      <trkpt lat="48.85672" lon="2.35094">
        <ele>94.9</ele>
        <time>2015-04-27T21:09:45.858Z</time>
      </trkpt>
      <trkpt lat="48.85678" lon="2.35089">
        <ele>94</ele>
        <time>2015-04-27T21:09:47.891Z</time>
      </trkpt>
      <trkpt lat="48.8568" lon="2.35085">
        <ele>93.9</ele>
        <time>2015-04-27T21:09:48.919Z</time>
      </trkpt>
      <trkpt lat="48.85684" lon="2.35075">
        <ele>93.8</ele>
        <time>2015-04-27T21:09:51.054Z</time>
      </trkpt>
      <trkpt lat="48.85687" lon="2.35069">
        <ele>93.4</ele>
        <time>2015-04-27T21:09:51.832Z</time>
      </trkpt>
      <trkpt lat="48.85691" lon="2.35058">
        <ele>92.8</ele>
        <time>2015-04-27T21:09:53.874Z</time>
      </trkpt>
      <trkpt lat="48.85692" lon="2.35052">
        <ele>92.9</ele>
        <time>2015-04-27T21:09:54.898Z</time>
      </trkpt>
      <trkpt lat="48.85693" lon="2.35045">
        <ele>93</ele>
        <time>2015-04-27T21:09:55.824Z</time>
      </trkpt>
      <trkpt lat="48.85695" lon="2.35038">
        <ele>93.1</ele>
        <time>2015-04-27T21:09:56.834Z</time>
      </trkpt>
      <trkpt lat="48.85695" lon="2.35031">
        <ele>93.5</ele>
        <time>2015-04-27T21:09:57.857Z</time>
      </trkpt>
      <trkpt lat="48.85695" lon="2.35024">
        <ele>93.6</ele>
        <time>2015-04-27T21:09:58.868Z</time>
      </trkpt>
      <trkpt lat="48.85698" lon="2.35011">
        <ele>94.1</ele>
        <time>2015-04-27T21:10:00.818Z</time>
      </trkpt>
      <trkpt lat="48.85699" lon="2.35004">
        <ele>94.2</ele>
        <time>2015-04-27T21:10:01.822Z</time>
      </trkpt>
      <trkpt lat="48.857" lon="2.34998">
        <ele>94.3</ele>
        <time>2015-04-27T21:10:02.877Z</time>
      </trkpt>
      <trkpt lat="48.85701" lon="2.34991">
        <ele>94.7</ele>
        <time>2015-04-27T21:10:03.891Z</time>
      </trkpt>
      <trkpt lat="48.85703" lon="2.34978">
        <ele>95.3</ele>
        <time>2015-04-27T21:10:05.822Z</time>
      </trkpt>
      <trkpt lat="48.85705" lon="2.34972">
        <ele>95.5</ele>
        <time>2015-04-27T21:10:06.862Z</time>
      </trkpt>
      <trkpt lat="48.85708" lon="2.34962">
        <ele>96</ele>
        <time>2015-04-27T21:10:08.824Z</time>
      </trkpt>
      <trkpt lat="48.85711" lon="2.34959">
        <ele>96.3</ele>
        <time>2015-04-27T21:10:09.846Z</time>
      </trkpt>
      <trkpt lat="48.85717" lon="2.34961">
        <ele>96.1</ele>
        <time>2015-04-27T21:10:11.853Z</time>
      </trkpt>
      <trkpt lat="48.8572" lon="2.34966">
        <ele>95.7</ele>
        <time>2015-04-27T21:10:12.888Z</time>
      </trkpt>
      <trkpt lat="48.85725" lon="2.34957">
        <ele>93.8</ele>
        <time>2015-04-27T21:10:36.819Z</time>
      </trkpt>
      <trkpt lat="48.85726" lon="2.34953">
        <ele>93.9</ele>
        <time>2015-04-27T21:10:37.857Z</time>
      </trkpt>
      <trkpt lat="48.85729" lon="2.34944">
        <ele>93</ele>
        <time>2015-04-27T21:10:39.828Z</time>
      </trkpt>
      <trkpt lat="48.85732" lon="2.34938">
        <ele>91.9</ele>
        <time>2015-04-27T21:10:40.886Z</time>
      </trkpt>
      <trkpt lat="48.85734" lon="2.34926">
        <ele>91.4</ele>
        <time>2015-04-27T21:10:42.821Z</time>
      </trkpt>
      <trkpt lat="48.85735" lon="2.34919">
        <ele>91.2</ele>
        <time>2015-04-27T21:10:43.847Z</time>
      </trkpt>
      <trkpt lat="48.85736" lon="2.34906">
        <ele>91.4</ele>
        <time>2015-04-27T21:10:45.902Z</time>
      </trkpt>
      <trkpt lat="48.85737" lon="2.34901">
        <ele>91.4</ele>
        <time>2015-04-27T21:10:46.918Z</time>
      </trkpt>
      <trkpt lat="48.8574" lon="2.34892">
        <ele>92.1</ele>
        <time>2015-04-27T21:10:48.818Z</time>
      </trkpt>
      <trkpt lat="48.85742" lon="2.34887">
        <ele>92.4</ele>
        <time>2015-04-27T21:10:49.823Z</time>
      </trkpt>
      <trkpt lat="48.85746" lon="2.34877">
        <ele>92.8</ele>
        <time>2015-04-27T21:10:51.921Z</time>
      </trkpt>
      <trkpt lat="48.85747" lon="2.3487">
        <ele>93</ele>
        <time>2015-04-27T21:10:52.814Z</time>
      </trkpt>
      <trkpt lat="48.85748" lon="2.34864">
        <ele>93.2</ele>
        <time>2015-04-27T21:10:53.870Z</time>
      </trkpt>
      <trkpt lat="48.85748" lon="2.34857">
        <ele>93.3</ele>
        <time>2015-04-27T21:10:54.886Z</time>
      </trkpt>
      <trkpt lat="48.85749" lon="2.3485">
        <ele>93.4</ele>
        <time>2015-04-27T21:10:55.797Z</time>
      </trkpt>
      <trkpt lat="48.85749" lon="2.34842">
        <ele>93.1</ele>
        <time>2015-04-27T21:10:56.817Z</time>
      </trkpt>
      <trkpt lat="48.8575" lon="2.34835">
        <ele>93</ele>
        <time>2015-04-27T21:10:57.876Z</time>
      </trkpt>
      <trkpt lat="48.8575" lon="2.34828">
        <ele>93</ele>
        <time>2015-04-27T21:10:58.892Z</time>
      </trkpt>
      <trkpt lat="48.85753" lon="2.34816">
        <ele>93.1</ele>
        <time>2015-04-27T21:11:00.813Z</time>
      </trkpt>
      <trkpt lat="48.85754" lon="2.34809">
        <ele>93.1</ele>
        <time>2015-04-27T21:11:01.840Z</time>
      </trkpt>
      <trkpt lat="48.85756" lon="2.34798">
        <ele>92.8</ele>
        <time>2015-04-27T21:11:03.916Z</time>
      </trkpt>
      <trkpt lat="48.85757" lon="2.34793">
        <ele>92.8</ele>
        <time>2015-04-27T21:11:04.793Z</time>
      </trkpt>
      <trkpt lat="48.85761" lon="2.34783">
        <ele>93.2</ele>
        <time>2015-04-27T21:11:06.818Z</time>
      </trkpt>
      <trkpt lat="48.85763" lon="2.34777">
        <ele>93.6</ele>
        <time>2015-04-27T21:11:07.910Z</time>
      </trkpt>
      <trkpt lat="48.85766" lon="2.34767">
        <ele>93.6</ele>
        <time>2015-04-27T21:11:09.852Z</time>
      </trkpt>
      <trkpt lat="48.85768" lon="2.34763">
        <ele>93.2</ele>
        <time>2015-04-27T21:11:10.855Z</time>
      </trkpt>
      <trkpt lat="48.85772" lon="2.34755">
        <ele>93</ele>
        <time>2015-04-27T21:11:12.867Z</time>
      </trkpt>
      <trkpt lat="48.85774" lon="2.34751">
        <ele>92.9</ele>
        <time>2015-04-27T21:11:13.871Z</time>
      </trkpt>
      <trkpt lat="48.85776" lon="2.34741">
        <ele>93.4</ele>
        <time>2015-04-27T21:11:15.826Z</time>
      </trkpt>
      <trkpt lat="48.85778" lon="2.34736">
        <ele>93.6</ele>
        <time>2015-04-27T21:11:16.851Z</time>
      </trkpt>
      <trkpt lat="48.85781" lon="2.34724">
        <ele>94.6</ele>
        <time>2015-04-27T21:11:18.878Z</time>
      </trkpt>
      <trkpt lat="48.85783" lon="2.34719">
        <ele>95</ele>
        <time>2015-04-27T21:11:19.890Z</time>
      </trkpt>
      <trkpt lat="48.8579" lon="2.34715">
        <ele>95.8</ele>
        <time>2015-04-27T21:11:21.909Z</time>
      </trkpt>
      <trkpt lat="48.85794" lon="2.34715">
        <ele>96</ele>
        <time>2015-04-27T21:11:22.923Z</time>
      </trkpt>
      <trkpt lat="48.85803" lon="2.34716">
        <ele>97.2</ele>
        <time>2015-04-27T21:11:25.867Z</time>
      </trkpt>
      <trkpt lat="48.85805" lon="2.34716">
        <ele>97.5</ele>
        <time>2015-04-27T21:11:26.900Z</time>
      </trkpt>
      <trkpt lat="48.85814" lon="2.34718">
        <ele>98.8</ele>
        <time>2015-04-27T21:11:30.877Z</time>
      </trkpt>
      <trkpt lat="48.85816" lon="2.34719">
        <ele>99</ele>
        <time>2015-04-27T21:11:31.973Z</time>
      </trkpt>
      <trkpt lat="48.85821" lon="2.34722">
        <ele>99.6</ele>
        <time>2015-04-27T21:11:33.849Z</time>
      </trkpt>
      <trkpt lat="48.85825" lon="2.34724">
        <ele>99.6</ele>
        <time>2015-04-27T21:11:34.854Z</time>
      </trkpt>
      <trkpt lat="48.85833" lon="2.34731">
        <ele>99.4</ele>
        <time>2015-04-27T21:11:36.864Z</time>
      </trkpt>
      <trkpt lat="48.85839" lon="2.34734">
        <ele>98.5</ele>
        <time>2015-04-27T21:11:37.815Z</time>
      </trkpt>
      <trkpt lat="48.85846" lon="2.34737">
        <ele>97.3</ele>
        <time>2015-04-27T21:11:38.869Z</time>
      </trkpt>
      <trkpt lat="48.85851" lon="2.34737">
        <ele>96.5</ele>
        <time>2015-04-27T21:11:39.880Z</time>
      </trkpt>
      <trkpt lat="48.85858" lon="2.34739">
        <ele>95.6</ele>
        <time>2015-04-27T21:11:41.788Z</time>
      </trkpt>
      <trkpt lat="48.85861" lon="2.34742">
        <ele>96</ele>
        <time>2015-04-27T21:11:42.801Z</time>
      </trkpt>
      <trkpt lat="48.85862" lon="2.34744">
        <ele>96.2</ele>
        <time>2015-04-27T21:11:43.909Z</time>
      </trkpt>
      <trkpt lat="48.85863" lon="2.34745">
        <ele>96.7</ele>
        <time>2015-04-27T21:11:46.898Z</time>
      </trkpt>
      <trkpt lat="48.85868" lon="2.34747">
        <ele>98.1</ele>
        <time>2015-04-27T21:11:47.796Z</time>
      </trkpt>
      <trkpt lat="48.85873" lon="2.34748">
        <ele>98.8</ele>
        <time>2015-04-27T21:11:51.850Z</time>
      </trkpt>
      <trkpt lat="48.85877" lon="2.34745">
        <ele>98.4</ele>
        <time>2015-04-27T21:11:52.795Z</time>
      </trkpt>
      <trkpt lat="48.85885" lon="2.34741">
        <ele>99.3</ele>
        <time>2015-04-27T21:11:55.859Z</time>
      </trkpt>
      <trkpt lat="48.85889" lon="2.3474">
        <ele>99.4</ele>
        <time>2015-04-27T21:11:56.890Z</time>
      </trkpt>
      <trkpt lat="48.85897" lon="2.34737">
        <ele>99.6</ele>
        <time>2015-04-27T21:11:59.835Z</time>
      </trkpt>
      <trkpt lat="48.85899" lon="2.34736">
        <ele>99.5</ele>
        <time>2015-04-27T21:12:00.872Z</time>
      </trkpt>
      <trkpt lat="48.85905" lon="2.34732">
        <ele>98.9</ele>
        <time>2015-04-27T21:12:02.911Z</time>
      </trkpt>
      <trkpt lat="48.85908" lon="2.34728">
        <ele>99.2</ele>
        <time>2015-04-27T21:12:03.875Z</time>
      </trkpt>
      <trkpt lat="48.85915" lon="2.3472">
        <ele>99.4</ele>
        <time>2015-04-27T21:12:06.813Z</time>
      </trkpt>
      <trkpt lat="48.85917" lon="2.34718">
        <ele>99.6</ele>
        <time>2015-04-27T21:12:07.856Z</time>
      </trkpt>
      <trkpt lat="48.85924" lon="2.3471">
        <ele>99.5</ele>
        <time>2015-04-27T21:12:10.809Z</time>
      </trkpt>
      <trkpt lat="48.85925" lon="2.34706">
        <ele>99.2</ele>
        <time>2015-04-27T21:12:11.812Z</time>
      </trkpt>
      <trkpt lat="48.85932" lon="2.34698">
        <ele>100</ele>
        <time>2015-04-27T21:12:14.858Z</time>
      </trkpt>
      <trkpt lat="48.85935" lon="2.34698">
        <ele>100.1</ele>
        <time>2015-04-27T21:12:15.851Z</time>
      </trkpt>
      <trkpt lat="48.85942" lon="2.34703">
        <ele>98.7</ele>
        <time>2015-04-27T21:12:18.833Z</time>
      </trkpt>
      <trkpt lat="48.85946" lon="2.34709">
        <ele>97.8</ele>
        <time>2015-04-27T21:12:19.851Z</time>
      </trkpt>
      <trkpt lat="48.85952" lon="2.34719">
        <ele>98</ele>
        <time>2015-04-27T21:12:21.904Z</time>
      </trkpt>
      <trkpt lat="48.85954" lon="2.34721">
        <ele>98.3</ele>
        <time>2015-04-27T21:12:22.842Z</time>
      </trkpt>
      <trkpt lat="48.85955" lon="2.34721">
        <ele>98.6</ele>
        <time>2015-04-27T21:12:23.814Z</time>
      </trkpt>
      <trkpt lat="48.85955" lon="2.34721">
        <ele>98.9</ele>
        <time>2015-04-27T21:13:57.105Z</time>
      </trkpt>
    </trkseg>
  </trk>
</gpx>